<?xml version='1.0' encoding='UTF-8'?><gpx version="1.1" creator="JPX - https://github.com/jenetics/jpx" xmlns="http://www.topografix.com/GPX/1/1"><trk><trkseg><trkpt lat="44.327481573243105" lon="8.504504061735519"><ele>7.0</ele><time>2026-04-05T13:09:03Z</time></trkpt><trkpt lat="44.32738536657007" lon="8.504558099529293"><ele>6.999999999999999</ele><time>2026-04-05T13:09:47Z</time></trkpt><trkpt lat="44.32744103082778" lon="8.504499048110231"><ele>6.999999999999999</ele><time>2026-04-05T13:18:24Z</time></trkpt><trkpt lat="44.32746092533901" lon="8.504371876001157"><ele>7.0</ele><time>2026-04-05T13:18:31Z</time></trkpt><trkpt lat="44.32746244089445" lon="8.50428031294641"><ele>7.0</ele><time>2026-04-05T13:18:32Z</time></trkpt><trkpt lat="44.32751601647876" lon="8.504469880127537"><ele>7.0</ele><time>2026-04-05T13:18:43.035Z</time></trkpt><trkpt lat="44.32755680604666" lon="8.504393656584389"><ele>6.999999999999999</ele><time>2026-04-05T13:18:49.035Z</time></trkpt><trkpt lat="44.32769416044537" lon="8.504376097245396"><ele>6.999999999999999</ele><time>2026-04-05T13:19:12.03Z</time></trkpt><trkpt lat="44.32778967853016" lon="8.504395982377154"><ele>7.0</ele><time>2026-04-05T13:19:13.03Z</time></trkpt><trkpt lat="44.32784050051237" lon="8.50431560809091"><ele>7.0</ele><time>2026-04-05T13:19:16.026Z</time></trkpt><trkpt lat="44.327787805869356" lon="8.50425038579813"><ele>7.000000000000001</ele><time>2026-04-05T13:19:21.022Z</time></trkpt><trkpt lat="44.32769047001187" lon="8.50428321727025"><ele>7.0</ele><time>2026-04-05T13:19:49.449Z</time></trkpt><trkpt lat="44.32758454313164" lon="8.504348582242587"><ele>7.0</ele><time>2026-04-05T13:20:02Z</time></trkpt><trkpt lat="44.32760511085027" lon="8.504433768278687"><ele>7.0</ele><time>2026-04-05T13:20:09Z</time></trkpt><trkpt lat="44.32763834443734" lon="8.50451902402603"><ele>7.000000000000001</ele><time>2026-04-05T13:20:17Z</time></trkpt><trkpt lat="44.32766621987626" lon="8.504598348614044"><ele>7.0</ele><time>2026-04-05T13:20:23Z</time></trkpt><trkpt lat="44.3277049156313" lon="8.504669077400017"><ele>6.714285714285714</ele><time>2026-04-05T13:20:29Z</time></trkpt><trkpt lat="44.327747428878986" lon="8.504743798468482"><ele>6.428571428571429</ele><time>2026-04-05T13:20:37Z</time></trkpt><trkpt lat="44.32776350329931" lon="8.504842150815673"><ele>6.142857142857142</ele><time>2026-04-05T13:20:45Z</time></trkpt><trkpt lat="44.32780313494892" lon="8.504919948937308"><ele>5.857142857142858</ele><time>2026-04-05T13:20:51Z</time></trkpt><trkpt lat="44.327826394443804" lon="8.505010000218647"><ele>5.571428571428571</ele><time>2026-04-05T13:20:58Z</time></trkpt><trkpt lat="44.327860549014325" lon="8.505087509716382"><ele>5.285714285714286</ele><time>2026-04-05T13:21:04Z</time></trkpt><trkpt lat="44.3278752239998" lon="8.505183344015325"><ele>5.0</ele><time>2026-04-05T13:21:12Z</time></trkpt><trkpt lat="44.3279073073464" lon="8.505260619147036"><ele>5.0</ele><time>2026-04-05T13:21:19Z</time></trkpt><trkpt lat="44.32798861163221" lon="8.505269230358362"><ele>5.0</ele><time>2026-04-05T13:22:40Z</time></trkpt><trkpt lat="44.328039517054066" lon="8.505216620835181"><ele>5.0</ele><time>2026-04-05T13:22:46Z</time></trkpt><trkpt lat="44.32806706123621" lon="8.505134276807228"><ele>5.0</ele><time>2026-04-05T13:22:53Z</time></trkpt><trkpt lat="44.328062219883385" lon="8.505040507538288"><ele>5.0</ele><time>2026-04-05T13:22:59Z</time></trkpt><trkpt lat="44.328050996362755" lon="8.504950124437908"><ele>5.0</ele><time>2026-04-05T13:23:05Z</time></trkpt><trkpt lat="44.32799048931313" lon="8.50491184053384"><ele>5.0</ele><time>2026-04-05T13:23:17Z</time></trkpt><trkpt lat="44.32796945220438" lon="8.504824915511909"><ele>5.0</ele><time>2026-04-05T13:23:23Z</time></trkpt><trkpt lat="44.327923039701574" lon="8.504754900417977"><ele>5.0</ele><time>2026-04-05T13:23:28Z</time></trkpt><trkpt lat="44.327891347125075" lon="8.504675940342649"><ele>5.0</ele><time>2026-04-05T13:23:35Z</time></trkpt><trkpt lat="44.32786467235341" lon="8.504581128700227"><ele>5.0</ele><time>2026-04-05T13:23:41Z</time></trkpt><trkpt lat="44.32781718997524" lon="8.504507946637649"><ele>5.0</ele><time>2026-04-05T13:23:51Z</time></trkpt><trkpt lat="44.32780843533611" lon="8.504414268260675"><ele>5.0</ele><time>2026-04-05T13:23:59Z</time></trkpt><trkpt lat="44.3277373782532" lon="8.504377427706554"><ele>5.0</ele><time>2026-04-05T13:24:08Z</time></trkpt><trkpt lat="44.327678285314086" lon="8.504344722404733"><ele>5.333333333333334</ele><time>2026-04-05T13:24:12Z</time></trkpt><trkpt lat="44.32763506670468" lon="8.504266477514802"><ele>5.666666666666667</ele><time>2026-04-05T13:29:43Z</time></trkpt><trkpt lat="44.32760854646622" lon="8.504172355444025"><ele>6.0</ele><time>2026-04-05T13:29:51Z</time></trkpt><trkpt lat="44.3275560183576" lon="8.504079489635217"><ele>6.333333333333334</ele><time>2026-04-05T13:29:53Z</time></trkpt><trkpt lat="44.327509950979824" lon="8.503952503058741"><ele>6.666666666666667</ele><time>2026-04-05T13:29:55Z</time></trkpt><trkpt lat="44.32746496785057" lon="8.503857149062197"><ele>7.0</ele><time>2026-04-05T13:29:57Z</time></trkpt><trkpt lat="44.327409360544664" lon="8.503730006102229"><ele>7.166666666666667</ele><time>2026-04-05T13:29:59Z</time></trkpt><trkpt lat="44.32735034794155" lon="8.503601000768976"><ele>7.333333333333334</ele><time>2026-04-05T13:30:01Z</time></trkpt><trkpt lat="44.32728980649831" lon="8.503455545149047"><ele>7.5</ele><time>2026-04-05T13:30:03Z</time></trkpt><trkpt lat="44.327259403518035" lon="8.50336888967644"><ele>7.666666666666666</ele><time>2026-04-05T13:30:04Z</time></trkpt><trkpt lat="44.3272211064175" lon="8.503281619347238"><ele>7.833333333333333</ele><time>2026-04-05T13:30:05Z</time></trkpt><trkpt lat="44.32718561993189" lon="8.50318951233915"><ele>8.0</ele><time>2026-04-05T13:30:06Z</time></trkpt><trkpt lat="44.32714470995525" lon="8.5031002689891"><ele>7.666666666666666</ele><time>2026-04-05T13:30:07Z</time></trkpt><trkpt lat="44.32710833855523" lon="8.502997018786708"><ele>7.333333333333333</ele><time>2026-04-05T13:30:08Z</time></trkpt><trkpt lat="44.32707340497981" lon="8.502899342685307"><ele>7.0</ele><time>2026-04-05T13:30:09Z</time></trkpt><trkpt lat="44.32703365765123" lon="8.50280004626257"><ele>6.666666666666666</ele><time>2026-04-05T13:30:10Z</time></trkpt><trkpt lat="44.3269957881182" lon="8.502696977479046"><ele>6.333333333333333</ele><time>2026-04-05T13:30:11Z</time></trkpt><trkpt lat="44.326960279641625" lon="8.502591950522017"><ele>6.0</ele><time>2026-04-05T13:30:12Z</time></trkpt><trkpt lat="44.32692406577276" lon="8.502480146293927"><ele>6.0</ele><time>2026-04-05T13:30:13Z</time></trkpt><trkpt lat="44.32688856409241" lon="8.50236472155374"><ele>6.0</ele><time>2026-04-05T13:30:14Z</time></trkpt><trkpt lat="44.32685743388302" lon="8.50225756153125"><ele>6.0</ele><time>2026-04-05T13:30:15Z</time></trkpt><trkpt lat="44.32682434169296" lon="8.50214874593946"><ele>6.0</ele><time>2026-04-05T13:30:16Z</time></trkpt><trkpt lat="44.32679195123684" lon="8.502031336818279"><ele>6.0</ele><time>2026-04-05T13:30:17Z</time></trkpt><trkpt lat="44.32675644337661" lon="8.501915987808145"><ele>6.0</ele><time>2026-04-05T13:30:18Z</time></trkpt><trkpt lat="44.32671688561726" lon="8.501798382570575"><ele>6.6</ele><time>2026-04-05T13:30:19Z</time></trkpt><trkpt lat="44.326673908136726" lon="8.501677930923766"><ele>7.199999999999999</ele><time>2026-04-05T13:30:20Z</time></trkpt><trkpt lat="44.326625380908624" lon="8.501562877659868"><ele>7.800000000000001</ele><time>2026-04-05T13:30:21Z</time></trkpt><trkpt lat="44.32657554363842" lon="8.501447191694501"><ele>8.4</ele><time>2026-04-05T13:30:22Z</time></trkpt><trkpt lat="44.32651720829016" lon="8.501332933632874"><ele>9.0</ele><time>2026-04-05T13:30:23Z</time></trkpt><trkpt lat="44.326451097465984" lon="8.501223503607056"><ele>8.6</ele><time>2026-04-05T13:30:24Z</time></trkpt><trkpt lat="44.326381912305564" lon="8.501112709254263"><ele>8.2</ele><time>2026-04-05T13:30:25Z</time></trkpt><trkpt lat="44.32631362040971" lon="8.501005664209922"><ele>7.799999999999999</ele><time>2026-04-05T13:30:26Z</time></trkpt><trkpt lat="44.32624015925247" lon="8.500897363350166"><ele>7.3999999999999995</ele><time>2026-04-05T13:30:27Z</time></trkpt><trkpt lat="44.326165085531805" lon="8.50078810250212"><ele>7.0</ele><time>2026-04-05T13:30:28Z</time></trkpt><trkpt lat="44.326088821960084" lon="8.500679573187922"><ele>7.0</ele><time>2026-04-05T13:30:29Z</time></trkpt><trkpt lat="44.3260057376762" lon="8.500575090050784"><ele>6.999999999999999</ele><time>2026-04-05T13:30:30Z</time></trkpt><trkpt lat="44.32592204794346" lon="8.500476695507095"><ele>6.999999999999999</ele><time>2026-04-05T13:30:30.999Z</time></trkpt><trkpt lat="44.32583568192627" lon="8.500377686052323"><ele>7.0</ele><time>2026-04-05T13:30:31.999Z</time></trkpt><trkpt lat="44.325745917208714" lon="8.500280371020226"><ele>7.0</ele><time>2026-04-05T13:30:32.999Z</time></trkpt><trkpt lat="44.32565222060939" lon="8.500190530102783"><ele>6.5</ele><time>2026-04-05T13:30:33.999Z</time></trkpt><trkpt lat="44.325555735199686" lon="8.500095433304164"><ele>6.0</ele><time>2026-04-05T13:30:34.999Z</time></trkpt><trkpt lat="44.32545458873132" lon="8.500003560977026"><ele>5.5</ele><time>2026-04-05T13:30:35.999Z</time></trkpt><trkpt lat="44.32534613076262" lon="8.499917238402261"><ele>5.0</ele><time>2026-04-05T13:30:36.999Z</time></trkpt><trkpt lat="44.32523664581003" lon="8.499831832065295"><ele>5.0</ele><time>2026-04-05T13:30:37.999Z</time></trkpt><trkpt lat="44.325123990427706" lon="8.499751420809272"><ele>5.0</ele><time>2026-04-05T13:30:38.999Z</time></trkpt><trkpt lat="44.325015562111034" lon="8.499675342097992"><ele>5.0</ele><time>2026-04-05T13:30:39.999Z</time></trkpt><trkpt lat="44.32490795443247" lon="8.499607905917077"><ele>5.0</ele><time>2026-04-05T13:30:40.999Z</time></trkpt><trkpt lat="44.32480196872173" lon="8.49954635140339"><ele>8.75</ele><time>2026-04-05T13:30:41.999Z</time></trkpt><trkpt lat="44.324701666663074" lon="8.499480426523606"><ele>12.5</ele><time>2026-04-05T13:30:42.999Z</time></trkpt><trkpt lat="44.324590740907276" lon="8.49942827683918"><ele>16.25</ele><time>2026-04-05T13:30:43.999Z</time></trkpt><trkpt lat="44.32447776903133" lon="8.499341170542237"><ele>20.0</ele><time>2026-04-05T13:30:44.999Z</time></trkpt><trkpt lat="44.324372994909595" lon="8.4992803428825"><ele>20.0</ele><time>2026-04-05T13:30:45.999Z</time></trkpt><trkpt lat="44.32426257499316" lon="8.499206781954953"><ele>20.0</ele><time>2026-04-05T13:30:47Z</time></trkpt><trkpt lat="44.32414456979336" lon="8.499140998181636"><ele>20.0</ele><time>2026-04-05T13:30:48Z</time></trkpt><trkpt lat="44.32401957549484" lon="8.499060896686487"><ele>20.0</ele><time>2026-04-05T13:30:49Z</time></trkpt><trkpt lat="44.32389081996697" lon="8.498983172069892"><ele>16.75</ele><time>2026-04-05T13:30:50Z</time></trkpt><trkpt lat="44.323768327981426" lon="8.498899135086937"><ele>13.5</ele><time>2026-04-05T13:30:51Z</time></trkpt><trkpt lat="44.323646865234295" lon="8.49882205878087"><ele>10.25</ele><time>2026-04-05T13:30:52Z</time></trkpt><trkpt lat="44.32352255525325" lon="8.498744580081048"><ele>7.0</ele><time>2026-04-05T13:30:53Z</time></trkpt><trkpt lat="44.32339519845111" lon="8.498667451435697"><ele>8.25</ele><time>2026-04-05T13:30:54Z</time></trkpt><trkpt lat="44.32326760029653" lon="8.498599673506138"><ele>9.5</ele><time>2026-04-05T13:30:55Z</time></trkpt><trkpt lat="44.32313934673693" lon="8.498542946468207"><ele>10.75</ele><time>2026-04-05T13:30:56Z</time></trkpt><trkpt lat="44.323009568229175" lon="8.498487908760362"><ele>12.0</ele><time>2026-04-05T13:30:57Z</time></trkpt><trkpt lat="44.322881939169186" lon="8.498431265059665"><ele>12.0</ele><time>2026-04-05T13:30:58Z</time></trkpt><trkpt lat="44.32275548713173" lon="8.498361517566819"><ele>12.0</ele><time>2026-04-05T13:30:59Z</time></trkpt><trkpt lat="44.32263124901939" lon="8.498280013149135"><ele>12.0</ele><time>2026-04-05T13:31:00Z</time></trkpt><trkpt lat="44.32251165287339" lon="8.498181019311025"><ele>12.0</ele><time>2026-04-05T13:31:01Z</time></trkpt><trkpt lat="44.32239876148918" lon="8.498056169355134"><ele>12.0</ele><time>2026-04-05T13:31:02Z</time></trkpt><trkpt lat="44.32229404290468" lon="8.49791967041551"><ele>12.0</ele><time>2026-04-05T13:31:03Z</time></trkpt><trkpt lat="44.3221942083264" lon="8.497763783849061"><ele>12.0</ele><time>2026-04-05T13:31:04Z</time></trkpt><trkpt lat="44.322094644298204" lon="8.497610248599175"><ele>12.0</ele><time>2026-04-05T13:31:05Z</time></trkpt><trkpt lat="44.321991762553694" lon="8.497447190529936"><ele>11.0</ele><time>2026-04-05T13:31:06Z</time></trkpt><trkpt lat="44.32189186917567" lon="8.49728446877599"><ele>10.0</ele><time>2026-04-05T13:31:07Z</time></trkpt><trkpt lat="44.32179027883961" lon="8.497107350944477"><ele>9.0</ele><time>2026-04-05T13:31:08Z</time></trkpt><trkpt lat="44.32169241159005" lon="8.496934464079175"><ele>14.333333333333334</ele><time>2026-04-05T13:31:09Z</time></trkpt><trkpt lat="44.32159731479516" lon="8.496751264268278"><ele>19.666666666666668</ele><time>2026-04-05T13:31:10Z</time></trkpt><trkpt lat="44.32151351281555" lon="8.496551450498266"><ele>25.0</ele><time>2026-04-05T13:31:11Z</time></trkpt><trkpt lat="44.321435448275565" lon="8.496347764824595"><ele>21.0</ele><time>2026-04-05T13:31:12Z</time></trkpt><trkpt lat="44.32135201131614" lon="8.496161172210313"><ele>17.0</ele><time>2026-04-05T13:31:13Z</time></trkpt><trkpt lat="44.32127229378641" lon="8.495990237278228"><ele>13.0</ele><time>2026-04-05T13:31:14Z</time></trkpt><trkpt lat="44.321192458840116" lon="8.495840409876907"><ele>9.0</ele><time>2026-04-05T13:31:15Z</time></trkpt><trkpt lat="44.32111627937527" lon="8.495707214425892"><ele>9.0</ele><time>2026-04-05T13:31:16Z</time></trkpt><trkpt lat="44.321041640771384" lon="8.495577520633404"><ele>9.0</ele><time>2026-04-05T13:31:17Z</time></trkpt><trkpt lat="44.32095884623017" lon="8.495450644569692"><ele>9.0</ele><time>2026-04-05T13:31:18Z</time></trkpt><trkpt lat="44.32086383671531" lon="8.495335563577967"><ele>9.0</ele><time>2026-04-05T13:31:19Z</time></trkpt><trkpt lat="44.32074001843743" lon="8.495263083995573"><ele>10.25</ele><time>2026-04-05T13:31:20Z</time></trkpt><trkpt lat="44.320606074910884" lon="8.49521016455796"><ele>11.5</ele><time>2026-04-05T13:31:21Z</time></trkpt><trkpt lat="44.32047168045231" lon="8.49515601218301"><ele>12.75</ele><time>2026-04-05T13:31:22Z</time></trkpt><trkpt lat="44.32035180604082" lon="8.495100968800925"><ele>14.0</ele><time>2026-04-05T13:31:23Z</time></trkpt><trkpt lat="44.32024835981649" lon="8.495049974701264"><ele>14.0</ele><time>2026-04-05T13:31:24Z</time></trkpt><trkpt lat="44.32015074807907" lon="8.495002138586703"><ele>14.0</ele><time>2026-04-05T13:31:25Z</time></trkpt><trkpt lat="44.32004919095111" lon="8.494954304576963"><ele>14.0</ele><time>2026-04-05T13:31:26Z</time></trkpt><trkpt lat="44.3199393469708" lon="8.494893912964915"><ele>14.0</ele><time>2026-04-05T13:31:27Z</time></trkpt><trkpt lat="44.319828742375705" lon="8.494806839809149"><ele>14.666666666666668</ele><time>2026-04-05T13:31:28Z</time></trkpt><trkpt lat="44.31972076263444" lon="8.494669171474355"><ele>15.333333333333332</ele><time>2026-04-05T13:31:29Z</time></trkpt><trkpt lat="44.31962479220696" lon="8.494510160437137"><ele>16.0</ele><time>2026-04-05T13:31:30Z</time></trkpt><trkpt lat="44.31952526206017" lon="8.494341331942056"><ele>16.0</ele><time>2026-04-05T13:31:31Z</time></trkpt><trkpt lat="44.3194171476068" lon="8.494171189756683"><ele>16.0</ele><time>2026-04-05T13:31:32Z</time></trkpt><trkpt lat="44.3193058620485" lon="8.494000718132478"><ele>16.0</ele><time>2026-04-05T13:31:33Z</time></trkpt><trkpt lat="44.319180208838155" lon="8.493840000600532"><ele>18.333333333333332</ele><time>2026-04-05T13:31:34Z</time></trkpt><trkpt lat="44.31904286604448" lon="8.493698466243947"><ele>20.666666666666668</ele><time>2026-04-05T13:31:35Z</time></trkpt><trkpt lat="44.31890036341681" lon="8.493579753596592"><ele>23.0</ele><time>2026-04-05T13:31:36Z</time></trkpt><trkpt lat="44.318769777370115" lon="8.493477437354382"><ele>23.0</ele><time>2026-04-05T13:31:37Z</time></trkpt><trkpt lat="44.31865068322427" lon="8.493380880537618"><ele>23.0</ele><time>2026-04-05T13:31:38Z</time></trkpt><trkpt lat="44.318538130110966" lon="8.493287718754095"><ele>23.0</ele><time>2026-04-05T13:31:39Z</time></trkpt><trkpt lat="44.31842853874714" lon="8.493191617064817"><ele>23.0</ele><time>2026-04-05T13:31:40Z</time></trkpt><trkpt lat="44.318318645031326" lon="8.493093282187305"><ele>23.0</ele><time>2026-04-05T13:31:41Z</time></trkpt><trkpt lat="44.318195753843334" lon="8.492997681758517"><ele>23.0</ele><time>2026-04-05T13:31:42Z</time></trkpt><trkpt lat="44.31807949925784" lon="8.492904438564787"><ele>23.0</ele><time>2026-04-05T13:31:43Z</time></trkpt><trkpt lat="44.317972737549795" lon="8.492810396806115"><ele>23.0</ele><time>2026-04-05T13:31:44Z</time></trkpt><trkpt lat="44.31784290076066" lon="8.492681069239046"><ele>21.25</ele><time>2026-04-05T13:31:45Z</time></trkpt><trkpt lat="44.31770775292975" lon="8.492600187428058"><ele>19.5</ele><time>2026-04-05T13:31:46Z</time></trkpt><trkpt lat="44.31760914921462" lon="8.492467626511004"><ele>17.75</ele><time>2026-04-05T13:31:47Z</time></trkpt><trkpt lat="44.317512321828595" lon="8.49234598826099"><ele>16.0</ele><time>2026-04-05T13:31:48Z</time></trkpt><trkpt lat="44.317422830118794" lon="8.492244027117378"><ele>16.0</ele><time>2026-04-05T13:31:49Z</time></trkpt><trkpt lat="44.31735079067918" lon="8.492152292871182"><ele>16.0</ele><time>2026-04-05T13:31:50Z</time></trkpt><trkpt lat="44.317276589459325" lon="8.492065726830862"><ele>16.0</ele><time>2026-04-05T13:31:51Z</time></trkpt><trkpt lat="44.3171953558235" lon="8.491978643939639"><ele>16.0</ele><time>2026-04-05T13:31:52Z</time></trkpt><trkpt lat="44.31711421036251" lon="8.491884530429088"><ele>16.0</ele><time>2026-04-05T13:31:53Z</time></trkpt><trkpt lat="44.317032871524795" lon="8.491785923033753"><ele>14.5</ele><time>2026-04-05T13:31:54Z</time></trkpt><trkpt lat="44.31694885236718" lon="8.49168562538335"><ele>13.0</ele><time>2026-04-05T13:31:55Z</time></trkpt><trkpt lat="44.316862460279246" lon="8.491584735558385"><ele>11.5</ele><time>2026-04-05T13:31:56Z</time></trkpt><trkpt lat="44.316773978133135" lon="8.49148972312712"><ele>10.0</ele><time>2026-04-05T13:31:57Z</time></trkpt><trkpt lat="44.316683533590535" lon="8.491388605220843"><ele>10.0</ele><time>2026-04-05T13:31:58Z</time></trkpt><trkpt lat="44.31659205267356" lon="8.491283409511295"><ele>10.0</ele><time>2026-04-05T13:31:59Z</time></trkpt><trkpt lat="44.316497981827524" lon="8.491185211405199"><ele>10.0</ele><time>2026-04-05T13:32:00Z</time></trkpt><trkpt lat="44.31640809053662" lon="8.491087759635022"><ele>10.0</ele><time>2026-04-05T13:32:01Z</time></trkpt><trkpt lat="44.3163217729083" lon="8.490990931817933"><ele>10.4</ele><time>2026-04-05T13:32:02Z</time></trkpt><trkpt lat="44.3162345926853" lon="8.490894743495879"><ele>10.8</ele><time>2026-04-05T13:32:03Z</time></trkpt><trkpt lat="44.31614483617767" lon="8.490808091074785"><ele>11.2</ele><time>2026-04-05T13:32:04Z</time></trkpt><trkpt lat="44.316056963697406" lon="8.490718361264788"><ele>11.6</ele><time>2026-04-05T13:32:05Z</time></trkpt><trkpt lat="44.31596050911739" lon="8.490645302935647"><ele>12.0</ele><time>2026-04-05T13:32:06Z</time></trkpt><trkpt lat="44.31585852584633" lon="8.49056227618094"><ele>12.0</ele><time>2026-04-05T13:32:07Z</time></trkpt><trkpt lat="44.31575027065761" lon="8.490491784515655"><ele>12.0</ele><time>2026-04-05T13:32:08Z</time></trkpt><trkpt lat="44.315639436515575" lon="8.490427209671859"><ele>12.0</ele><time>2026-04-05T13:32:09Z</time></trkpt><trkpt lat="44.31552082693039" lon="8.490374804627784"><ele>12.0</ele><time>2026-04-05T13:32:10Z</time></trkpt><trkpt lat="44.31540403745638" lon="8.490319880345737"><ele>12.75</ele><time>2026-04-05T13:32:11Z</time></trkpt><trkpt lat="44.31529068914636" lon="8.490261722471445"><ele>13.5</ele><time>2026-04-05T13:32:12Z</time></trkpt><trkpt lat="44.3151911983905" lon="8.49018790808819"><ele>14.25</ele><time>2026-04-05T13:32:13Z</time></trkpt><trkpt lat="44.31509496152123" lon="8.490088657914837"><ele>15.0</ele><time>2026-04-05T13:32:14Z</time></trkpt><trkpt lat="44.3150091814288" lon="8.489973763555735"><ele>15.0</ele><time>2026-04-05T13:32:15Z</time></trkpt><trkpt lat="44.31493061555625" lon="8.489845802040172"><ele>15.0</ele><time>2026-04-05T13:32:16Z</time></trkpt><trkpt lat="44.31485777165516" lon="8.489708834486278"><ele>15.0</ele><time>2026-04-05T13:32:17Z</time></trkpt><trkpt lat="44.3147965583199" lon="8.489565211207816"><ele>15.0</ele><time>2026-04-05T13:32:17.999Z</time></trkpt><trkpt lat="44.31474342518345" lon="8.489435554648662"><ele>12.6</ele><time>2026-04-05T13:32:18.999Z</time></trkpt><trkpt lat="44.31469624119863" lon="8.489316023808964"><ele>10.2</ele><time>2026-04-05T13:32:19.999Z</time></trkpt><trkpt lat="44.31464820033677" lon="8.489192416670049"><ele>7.8</ele><time>2026-04-05T13:32:20.999Z</time></trkpt><trkpt lat="44.31459286790314" lon="8.4890683564904"><ele>5.4</ele><time>2026-04-05T13:32:21.999Z</time></trkpt><trkpt lat="44.31453147974128" lon="8.48895694847458"><ele>3.0</ele><time>2026-04-05T13:32:22.999Z</time></trkpt><trkpt lat="44.3144682790482" lon="8.488853467183358"><ele>3.0</ele><time>2026-04-05T13:32:23.999Z</time></trkpt><trkpt lat="44.31439867038461" lon="8.48876226110764"><ele>3.0</ele><time>2026-04-05T13:32:24.999Z</time></trkpt><trkpt lat="44.31433146238635" lon="8.488672594567838"><ele>3.0</ele><time>2026-04-05T13:32:25.999Z</time></trkpt><trkpt lat="44.314261513144686" lon="8.488578352410542"><ele>3.0</ele><time>2026-04-05T13:32:26.999Z</time></trkpt><trkpt lat="44.31419475973798" lon="8.488486593422616"><ele>3.0</ele><time>2026-04-05T13:32:27.999Z</time></trkpt><trkpt lat="44.31412594950527" lon="8.488390075252545"><ele>2.6</ele><time>2026-04-05T13:32:28.999Z</time></trkpt><trkpt lat="44.31405350446379" lon="8.488290695079616"><ele>2.1999999999999997</ele><time>2026-04-05T13:32:29.999Z</time></trkpt><trkpt lat="44.31397919846384" lon="8.488187004637396"><ele>1.8</ele><time>2026-04-05T13:32:30.999Z</time></trkpt><trkpt lat="44.313905633057885" lon="8.488080977249025"><ele>1.4</ele><time>2026-04-05T13:32:31.999Z</time></trkpt><trkpt lat="44.31382478406014" lon="8.487978908227424"><ele>1.0</ele><time>2026-04-05T13:32:32.999Z</time></trkpt><trkpt lat="44.31373396994992" lon="8.48788269123397"><ele>7.2</ele><time>2026-04-05T13:32:33.999Z</time></trkpt><trkpt lat="44.31363221452098" lon="8.487798792049114"><ele>13.4</ele><time>2026-04-05T13:32:34.999Z</time></trkpt><trkpt lat="44.31352317257416" lon="8.487735772104514"><ele>19.6</ele><time>2026-04-05T13:32:35.999Z</time></trkpt><trkpt lat="44.3134206811224" lon="8.487692821302975"><ele>25.8</ele><time>2026-04-05T13:32:36.999Z</time></trkpt><trkpt lat="44.31331651186828" lon="8.487667671719729"><ele>32.0</ele><time>2026-04-05T13:32:37.999Z</time></trkpt><trkpt lat="44.31321570563354" lon="8.487660888735364"><ele>32.0</ele><time>2026-04-05T13:32:38.999Z</time></trkpt><trkpt lat="44.31311767166138" lon="8.487662137923381"><ele>32.0</ele><time>2026-04-05T13:32:39.999Z</time></trkpt><trkpt lat="44.31301757501165" lon="8.487663996702146"><ele>32.0</ele><time>2026-04-05T13:32:40.999Z</time></trkpt><trkpt lat="44.31291942148334" lon="8.487670090411257"><ele>32.0</ele><time>2026-04-05T13:32:41.999Z</time></trkpt><trkpt lat="44.3128229203804" lon="8.48767524118959"><ele>32.0</ele><time>2026-04-05T13:32:42.999Z</time></trkpt><trkpt lat="44.31272234788545" lon="8.487681336714116"><ele>29.0</ele><time>2026-04-05T13:32:43.999Z</time></trkpt><trkpt lat="44.31262186940171" lon="8.487678740001215"><ele>26.0</ele><time>2026-04-05T13:32:44.999Z</time></trkpt><trkpt lat="44.31252238668405" lon="8.487663580304913"><ele>23.0</ele><time>2026-04-05T13:32:45.999Z</time></trkpt><trkpt lat="44.31232542270936" lon="8.487549963966641"><ele>20.0</ele><time>2026-04-05T13:32:47.999Z</time></trkpt><trkpt lat="44.31223492754896" lon="8.487466055077126"><ele>17.8</ele><time>2026-04-05T13:32:48.999Z</time></trkpt><trkpt lat="44.312156072148476" lon="8.487358941833852"><ele>15.6</ele><time>2026-04-05T13:32:49.999Z</time></trkpt><trkpt lat="44.312087954592" lon="8.487238825582502"><ele>13.4</ele><time>2026-04-05T13:32:50.999Z</time></trkpt><trkpt lat="44.31202069457546" lon="8.487117142116437"><ele>11.2</ele><time>2026-04-05T13:32:51.999Z</time></trkpt><trkpt lat="44.3119515106236" lon="8.486998760976999"><ele>9.0</ele><time>2026-04-05T13:32:52.999Z</time></trkpt><trkpt lat="44.31188308310107" lon="8.486877327595137"><ele>9.0</ele><time>2026-04-05T13:32:53.999Z</time></trkpt><trkpt lat="44.3118173847429" lon="8.486765266408913"><ele>9.0</ele><time>2026-04-05T13:32:54.999Z</time></trkpt><trkpt lat="44.31175391063144" lon="8.48666820538814"><ele>9.0</ele><time>2026-04-05T13:32:55.999Z</time></trkpt><trkpt lat="44.31169452206582" lon="8.486581468416714"><ele>9.0</ele><time>2026-04-05T13:32:56.999Z</time></trkpt><trkpt lat="44.31163720823201" lon="8.486497965209184"><ele>9.0</ele><time>2026-04-05T13:32:57.999Z</time></trkpt><trkpt lat="44.31157992493828" lon="8.48641905466931"><ele>9.0</ele><time>2026-04-05T13:32:58.999Z</time></trkpt><trkpt lat="44.31149974142487" lon="8.486330470293545"><ele>9.0</ele><time>2026-04-05T13:32:59.999Z</time></trkpt><trkpt lat="44.31140538351415" lon="8.48623635491196"><ele>9.0</ele><time>2026-04-05T13:33:00.999Z</time></trkpt><trkpt lat="44.3113065406731" lon="8.486130127771213"><ele>9.0</ele><time>2026-04-05T13:33:01.999Z</time></trkpt><trkpt lat="44.311199594152335" lon="8.486019255145125"><ele>9.0</ele><time>2026-04-05T13:33:02.999Z</time></trkpt><trkpt lat="44.311083906679386" lon="8.485912170504948"><ele>9.0</ele><time>2026-04-05T13:33:03.999Z</time></trkpt><trkpt lat="44.31095718740246" lon="8.485804722884511"><ele>9.0</ele><time>2026-04-05T13:33:04.999Z</time></trkpt><trkpt lat="44.31082667152922" lon="8.485691350011395"><ele>9.0</ele><time>2026-04-05T13:33:05.999Z</time></trkpt><trkpt lat="44.31069166962617" lon="8.485576678121575"><ele>8.5</ele><time>2026-04-05T13:33:06.999Z</time></trkpt><trkpt lat="44.310565900141754" lon="8.485467100220484"><ele>8.0</ele><time>2026-04-05T13:33:07.999Z</time></trkpt><trkpt lat="44.31046373765671" lon="8.485376536783694"><ele>7.5</ele><time>2026-04-05T13:33:08.999Z</time></trkpt><trkpt lat="44.310376474650454" lon="8.485304099029022"><ele>7.0</ele><time>2026-04-05T13:33:09.999Z</time></trkpt><trkpt lat="44.31029730352445" lon="8.48524354369981"><ele>7.000000000000001</ele><time>2026-04-05T13:33:10.999Z</time></trkpt><trkpt lat="44.310228010830386" lon="8.485178407488291"><ele>7.0</ele><time>2026-04-05T13:33:11.999Z</time></trkpt><trkpt lat="44.31016244647313" lon="8.485105012083269"><ele>7.0</ele><time>2026-04-05T13:33:12.999Z</time></trkpt><trkpt lat="44.31011072253669" lon="8.485021542681443"><ele>7.0</ele><time>2026-04-05T13:33:13.999Z</time></trkpt><trkpt lat="44.31006252546459" lon="8.484943957701478"><ele>7.000000000000001</ele><time>2026-04-05T13:33:14.999Z</time></trkpt><trkpt lat="44.310007814796606" lon="8.484882377739819"><ele>7.0</ele><time>2026-04-05T13:33:15.999Z</time></trkpt><trkpt lat="44.309953072762895" lon="8.48482201564113"><ele>7.000000000000001</ele><time>2026-04-05T13:33:16.999Z</time></trkpt><trkpt lat="44.309890909065196" lon="8.484765824063519"><ele>7.0</ele><time>2026-04-05T13:33:17.999Z</time></trkpt><trkpt lat="44.30983090087483" lon="8.484724399373683"><ele>7.0</ele><time>2026-04-05T13:33:18.999Z</time></trkpt><trkpt lat="44.309776228482185" lon="8.48468011007683"><ele>7.0</ele><time>2026-04-05T13:33:19.999Z</time></trkpt><trkpt lat="44.309699447569244" lon="8.484554863498467"><ele>7.000000000000001</ele><time>2026-04-05T13:33:21.999Z</time></trkpt><trkpt lat="44.309665278300685" lon="8.484393719702897"><ele>7.0</ele><time>2026-04-05T13:33:23.999Z</time></trkpt><trkpt lat="44.30962623184855" lon="8.48422681389264"><ele>8.714285714285715</ele><time>2026-04-05T13:33:25.999Z</time></trkpt><trkpt lat="44.309603292538505" lon="8.484138769621987"><ele>10.428571428571429</ele><time>2026-04-05T13:33:27Z</time></trkpt><trkpt lat="44.30957834616434" lon="8.484049556133245"><ele>12.142857142857142</ele><time>2026-04-05T13:33:28Z</time></trkpt><trkpt lat="44.30955930312326" lon="8.483952136782325"><ele>13.857142857142858</ele><time>2026-04-05T13:33:29Z</time></trkpt><trkpt lat="44.30953662173836" lon="8.483860664187988"><ele>15.571428571428573</ele><time>2026-04-05T13:33:30Z</time></trkpt><trkpt lat="44.30950900348312" lon="8.483773232534599"><ele>17.285714285714285</ele><time>2026-04-05T13:33:31Z</time></trkpt><trkpt lat="44.309497583791874" lon="8.48368103667855"><ele>19.0</ele><time>2026-04-05T13:33:32Z</time></trkpt><trkpt lat="44.30947950880342" lon="8.483589886139544"><ele>19.799999999999997</ele><time>2026-04-05T13:33:33Z</time></trkpt><trkpt lat="44.30945186182254" lon="8.483479160856676"><ele>20.599999999999998</ele><time>2026-04-05T13:33:35Z</time></trkpt><trkpt lat="44.30943173024949" lon="8.483343467826312"><ele>21.4</ele><time>2026-04-05T13:33:38Z</time></trkpt><trkpt lat="44.30940160153717" lon="8.483231065277504"><ele>22.2</ele><time>2026-04-05T13:33:40Z</time></trkpt><trkpt lat="44.30939918599539" lon="8.48310649788815"><ele>23.0</ele><time>2026-04-05T13:33:42Z</time></trkpt><trkpt lat="44.30936109090956" lon="8.48297669934437"><ele>22.2</ele><time>2026-04-05T13:33:44Z</time></trkpt><trkpt lat="44.30932412412172" lon="8.482847723709382"><ele>21.4</ele><time>2026-04-05T13:33:46Z</time></trkpt><trkpt lat="44.3092986735981" lon="8.482688990583618"><ele>20.599999999999998</ele><time>2026-04-05T13:33:48Z</time></trkpt><trkpt lat="44.30925662461927" lon="8.482530888270912"><ele>19.799999999999997</ele><time>2026-04-05T13:33:50Z</time></trkpt><trkpt lat="44.3092365144944" lon="8.482438272788775"><ele>19.0</ele><time>2026-04-05T13:33:51Z</time></trkpt><trkpt lat="44.309220923936095" lon="8.482341476643688"><ele>19.0</ele><time>2026-04-05T13:33:52Z</time></trkpt><trkpt lat="44.309204487277555" lon="8.482240833412042"><ele>19.0</ele><time>2026-04-05T13:33:53Z</time></trkpt><trkpt lat="44.30918596192616" lon="8.482129267083275"><ele>19.0</ele><time>2026-04-05T13:33:54Z</time></trkpt><trkpt lat="44.30916063533409" lon="8.482026828457979"><ele>19.0</ele><time>2026-04-05T13:33:55Z</time></trkpt><trkpt lat="44.309143474744346" lon="8.481928082006647"><ele>19.0</ele><time>2026-04-05T13:33:56Z</time></trkpt><trkpt lat="44.30912059169013" lon="8.481826394272684"><ele>19.0</ele><time>2026-04-05T13:33:57Z</time></trkpt><trkpt lat="44.30910351625328" lon="8.481723271662688"><ele>18.833333333333332</ele><time>2026-04-05T13:33:58Z</time></trkpt><trkpt lat="44.309082501458406" lon="8.481610140102706"><ele>18.666666666666664</ele><time>2026-04-05T13:33:59Z</time></trkpt><trkpt lat="44.30905924109479" lon="8.48149165953376"><ele>18.5</ele><time>2026-04-05T13:34:00Z</time></trkpt><trkpt lat="44.30904331366353" lon="8.481376246169683"><ele>18.333333333333332</ele><time>2026-04-05T13:34:01Z</time></trkpt><trkpt lat="44.30901293229768" lon="8.481261617035527"><ele>18.166666666666668</ele><time>2026-04-05T13:34:02Z</time></trkpt><trkpt lat="44.308991532650275" lon="8.481146469585982"><ele>18.0</ele><time>2026-04-05T13:34:03Z</time></trkpt><trkpt lat="44.308970868752425" lon="8.481040962122414"><ele>17.833333333333332</ele><time>2026-04-05T13:34:04Z</time></trkpt><trkpt lat="44.30893959208541" lon="8.4809315795784"><ele>17.666666666666668</ele><time>2026-04-05T13:34:05Z</time></trkpt><trkpt lat="44.308914354322994" lon="8.480821142133399"><ele>17.5</ele><time>2026-04-05T13:34:06Z</time></trkpt><trkpt lat="44.30891166505505" lon="8.480724866902484"><ele>17.333333333333336</ele><time>2026-04-05T13:34:07Z</time></trkpt><trkpt lat="44.30888359893283" lon="8.480585158386782"><ele>17.166666666666668</ele><time>2026-04-05T13:34:09Z</time></trkpt><trkpt lat="44.30886139615627" lon="8.480487008407383"><ele>17.0</ele><time>2026-04-05T13:34:11Z</time></trkpt><trkpt lat="44.30883128621522" lon="8.480369039252166"><ele>18.0</ele><time>2026-04-05T13:34:13Z</time></trkpt><trkpt lat="44.30880698157427" lon="8.480241915520054"><ele>19.0</ele><time>2026-04-05T13:34:15Z</time></trkpt><trkpt lat="44.308780601444774" lon="8.480114788886608"><ele>20.0</ele><time>2026-04-05T13:34:17Z</time></trkpt><trkpt lat="44.30875922557763" lon="8.479965953744985"><ele>21.0</ele><time>2026-04-05T13:34:19Z</time></trkpt><trkpt lat="44.30872309103784" lon="8.479809324985897"><ele>22.0</ele><time>2026-04-05T13:34:21Z</time></trkpt><trkpt lat="44.30869431454209" lon="8.47966459785956"><ele>20.833333333333332</ele><time>2026-04-05T13:34:23Z</time></trkpt><trkpt lat="44.308661669885204" lon="8.479553398630033"><ele>19.666666666666664</ele><time>2026-04-05T13:34:25Z</time></trkpt><trkpt lat="44.308628900769435" lon="8.479466400134806"><ele>18.5</ele><time>2026-04-05T13:34:28Z</time></trkpt><trkpt lat="44.308608129514774" lon="8.479338141802268"><ele>17.333333333333332</ele><time>2026-04-05T13:34:31Z</time></trkpt><trkpt lat="44.30862022628048" lon="8.479244843241544"><ele>16.166666666666668</ele><time>2026-04-05T13:34:31.999Z</time></trkpt><trkpt lat="44.30859693809929" lon="8.479142755409132"><ele>15.0</ele><time>2026-04-05T13:34:32.999Z</time></trkpt><trkpt lat="44.30858349758875" lon="8.479045559822454"><ele>15.0</ele><time>2026-04-05T13:34:33.999Z</time></trkpt><trkpt lat="44.3085682335663" lon="8.478956122559659"><ele>15.0</ele><time>2026-04-05T13:34:34.999Z</time></trkpt><trkpt lat="44.308549193935974" lon="8.47886682149602"><ele>15.0</ele><time>2026-04-05T13:34:35.999Z</time></trkpt><trkpt lat="44.30852789875089" lon="8.47877970536077"><ele>15.0</ele><time>2026-04-05T13:34:36.999Z</time></trkpt><trkpt lat="44.30850466380399" lon="8.478696218579918"><ele>15.0</ele><time>2026-04-05T13:34:37.999Z</time></trkpt><trkpt lat="44.308484077119886" lon="8.478602041900166"><ele>15.0</ele><time>2026-04-05T13:34:38.999Z</time></trkpt><trkpt lat="44.30846558143937" lon="8.478502514730689"><ele>15.0</ele><time>2026-04-05T13:34:39.999Z</time></trkpt><trkpt lat="44.30845110703688" lon="8.478411217080069"><ele>15.0</ele><time>2026-04-05T13:34:40.999Z</time></trkpt><trkpt lat="44.30842824672854" lon="8.478305765405109"><ele>15.0</ele><time>2026-04-05T13:34:41.999Z</time></trkpt><trkpt lat="44.308408884133534" lon="8.47821602279251"><ele>15.0</ele><time>2026-04-05T13:34:42.999Z</time></trkpt><trkpt lat="44.30838987755892" lon="8.478123393893929"><ele>15.0</ele><time>2026-04-05T13:34:43.999Z</time></trkpt><trkpt lat="44.308369569136005" lon="8.478038126081035"><ele>15.0</ele><time>2026-04-05T13:34:44.999Z</time></trkpt><trkpt lat="44.30834421060676" lon="8.477884077899953"><ele>15.0</ele><time>2026-04-05T13:34:46.999Z</time></trkpt><trkpt lat="44.308328336227056" lon="8.477787692737802"><ele>14.2</ele><time>2026-04-05T13:34:48.999Z</time></trkpt><trkpt lat="44.308305370384176" lon="8.47768253724747"><ele>13.4</ele><time>2026-04-05T13:34:50.999Z</time></trkpt><trkpt lat="44.308271391039455" lon="8.477510604712585"><ele>12.600000000000001</ele><time>2026-04-05T13:34:52.999Z</time></trkpt><trkpt lat="44.3082494475954" lon="8.477413878032355"><ele>11.8</ele><time>2026-04-05T13:34:53.999Z</time></trkpt><trkpt lat="44.308232746823734" lon="8.477319509533046"><ele>11.0</ele><time>2026-04-05T13:34:54.999Z</time></trkpt><trkpt lat="44.30821162605089" lon="8.477165458213626"><ele>10.4</ele><time>2026-04-05T13:34:57Z</time></trkpt><trkpt lat="44.308207987008" lon="8.477053995925443"><ele>9.8</ele><time>2026-04-05T13:34:59Z</time></trkpt><trkpt lat="44.308314429987" lon="8.476996335448845"><ele>9.200000000000001</ele><time>2026-04-05T13:35:00Z</time></trkpt><trkpt lat="44.30839835337081" lon="8.476975288221743"><ele>8.600000000000001</ele><time>2026-04-05T13:35:01Z</time></trkpt><trkpt lat="44.30848925468096" lon="8.476943088958386"><ele>8.0</ele><time>2026-04-05T13:35:02Z</time></trkpt><trkpt lat="44.30857867882519" lon="8.476910501621425"><ele>8.0</ele><time>2026-04-05T13:35:03Z</time></trkpt><trkpt lat="44.308670579615125" lon="8.47687105630794"><ele>8.0</ele><time>2026-04-05T13:35:04Z</time></trkpt><trkpt lat="44.308768833123274" lon="8.476828680784328"><ele>8.0</ele><time>2026-04-05T13:35:05Z</time></trkpt><trkpt lat="44.30887442723776" lon="8.47681215366759"><ele>8.0</ele><time>2026-04-05T13:35:06Z</time></trkpt><trkpt lat="44.308982070665984" lon="8.47677120405936"><ele>8.0</ele><time>2026-04-05T13:35:07Z</time></trkpt><trkpt lat="44.309088989514265" lon="8.476725686516614"><ele>9.0</ele><time>2026-04-05T13:35:08Z</time></trkpt><trkpt lat="44.309198960815074" lon="8.476679323149"><ele>10.0</ele><time>2026-04-05T13:35:09Z</time></trkpt><trkpt lat="44.30930482556058" lon="8.476637867824147"><ele>11.0</ele><time>2026-04-05T13:35:10Z</time></trkpt><trkpt lat="44.30939383912185" lon="8.476581998462443"><ele>12.0</ele><time>2026-04-05T13:35:11Z</time></trkpt><trkpt lat="44.309479654567106" lon="8.476570014993184"><ele>13.0</ele><time>2026-04-05T13:35:12Z</time></trkpt><trkpt lat="44.3095425682639" lon="8.476522466918109"><ele>13.0</ele><time>2026-04-05T13:35:13Z</time></trkpt><trkpt lat="44.30964478727868" lon="8.476507918318516"><ele>13.0</ele><time>2026-04-05T13:35:15Z</time></trkpt><trkpt lat="44.3096559546844" lon="8.476252988356322"><ele>13.0</ele><time>2026-04-05T13:35:17Z</time></trkpt><trkpt lat="44.30964501582946" lon="8.476161522629486"><ele>13.0</ele><time>2026-04-05T13:35:18Z</time></trkpt><trkpt lat="44.30962513554606" lon="8.476064098723008"><ele>13.0</ele><time>2026-04-05T13:35:19Z</time></trkpt><trkpt lat="44.30959330705381" lon="8.475974593331314"><ele>12.666666666666666</ele><time>2026-04-05T13:35:20Z</time></trkpt><trkpt lat="44.309586948554674" lon="8.475856433786356"><ele>12.333333333333332</ele><time>2026-04-05T13:35:21Z</time></trkpt><trkpt lat="44.309558727312314" lon="8.475747518714394"><ele>12.0</ele><time>2026-04-05T13:35:22Z</time></trkpt><trkpt lat="44.3095309201702" lon="8.475630537192433"><ele>11.666666666666666</ele><time>2026-04-05T13:35:23Z</time></trkpt><trkpt lat="44.30950072545509" lon="8.475511371552324"><ele>11.333333333333332</ele><time>2026-04-05T13:35:24Z</time></trkpt><trkpt lat="44.30947668281297" lon="8.475394497365352"><ele>11.0</ele><time>2026-04-05T13:35:25Z</time></trkpt><trkpt lat="44.30945167370471" lon="8.47527763057765"><ele>11.0</ele><time>2026-04-05T13:35:26Z</time></trkpt><trkpt lat="44.30942968905638" lon="8.47517172354937"><ele>11.0</ele><time>2026-04-05T13:35:27Z</time></trkpt><trkpt lat="44.30939121761735" lon="8.475098909126746"><ele>11.0</ele><time>2026-04-05T13:35:28Z</time></trkpt><trkpt lat="44.30935237127406" lon="8.474968598983036"><ele>11.0</ele><time>2026-04-05T13:35:30Z</time></trkpt><trkpt lat="44.309324390957144" lon="8.474874738870117"><ele>11.0</ele><time>2026-04-05T13:35:32Z</time></trkpt><trkpt lat="44.30937634546963" lon="8.474803065667023"><ele>11.0</ele><time>2026-04-05T13:35:33Z</time></trkpt><trkpt lat="44.30937069845756" lon="8.474672564352113"><ele>12.75</ele><time>2026-04-05T13:36:31Z</time></trkpt><trkpt lat="44.30935352360797" lon="8.474556163433629"><ele>14.5</ele><time>2026-04-05T13:36:33Z</time></trkpt><trkpt lat="44.309308535282035" lon="8.474439116454526"><ele>16.25</ele><time>2026-04-05T13:36:35Z</time></trkpt><trkpt lat="44.30953929626325" lon="8.474350765366054"><ele>18.0</ele><time>2026-04-05T13:36:39Z</time></trkpt><trkpt lat="44.30961172491834" lon="8.47432527935417"><ele>18.0</ele><time>2026-04-05T13:36:40Z</time></trkpt><trkpt lat="44.30968832438909" lon="8.474305173369771"><ele>18.0</ele><time>2026-04-05T13:36:41Z</time></trkpt><trkpt lat="44.30976186000472" lon="8.474289638799947"><ele>18.0</ele><time>2026-04-05T13:36:42Z</time></trkpt><trkpt lat="44.30988806427806" lon="8.474223744244457"><ele>18.0</ele><time>2026-04-05T13:36:44Z</time></trkpt><trkpt lat="44.309967917742355" lon="8.4741997039713"><ele>18.0</ele><time>2026-04-05T13:36:45Z</time></trkpt><trkpt lat="44.310078059997714" lon="8.474181026085182"><ele>16.8</ele><time>2026-04-05T13:36:47Z</time></trkpt><trkpt lat="44.310168324709046" lon="8.474151796674478"><ele>15.600000000000001</ele><time>2026-04-05T13:37:27Z</time></trkpt><trkpt lat="44.310272007176835" lon="8.474118062043177"><ele>14.399999999999999</ele><time>2026-04-05T13:37:29Z</time></trkpt><trkpt lat="44.31034674755939" lon="8.474070689461476"><ele>13.2</ele><time>2026-04-05T13:37:30Z</time></trkpt><trkpt lat="44.310432808014234" lon="8.474019741828652"><ele>12.0</ele><time>2026-04-05T13:37:31Z</time></trkpt><trkpt lat="44.31052263913207" lon="8.474004668631713"><ele>11.8</ele><time>2026-04-05T13:37:32Z</time></trkpt><trkpt lat="44.31061897297706" lon="8.473981792607063"><ele>11.6</ele><time>2026-04-05T13:37:33Z</time></trkpt><trkpt lat="44.3107201583386" lon="8.47394328087178"><ele>11.4</ele><time>2026-04-05T13:37:34Z</time></trkpt><trkpt lat="44.310827533524716" lon="8.473905311933889"><ele>11.200000000000001</ele><time>2026-04-05T13:37:35Z</time></trkpt><trkpt lat="44.310938724707974" lon="8.473858669128807"><ele>11.0</ele><time>2026-04-05T13:37:36Z</time></trkpt><trkpt lat="44.31104891894394" lon="8.47382362059916"><ele>11.0</ele><time>2026-04-05T13:37:37Z</time></trkpt><trkpt lat="44.31116100443898" lon="8.473786558830353"><ele>11.0</ele><time>2026-04-05T13:37:38Z</time></trkpt><trkpt lat="44.3112754459462" lon="8.47375082300477"><ele>11.0</ele><time>2026-04-05T13:37:39Z</time></trkpt><trkpt lat="44.31139094230453" lon="8.473711219811298"><ele>11.0</ele><time>2026-04-05T13:37:40Z</time></trkpt><trkpt lat="44.31150071971651" lon="8.47367731603091"><ele>11.0</ele><time>2026-04-05T13:37:41Z</time></trkpt><trkpt lat="44.3116079060341" lon="8.473634122800007"><ele>11.0</ele><time>2026-04-05T13:37:42Z</time></trkpt><trkpt lat="44.31172737014274" lon="8.47359386207496"><ele>11.0</ele><time>2026-04-05T13:37:43Z</time></trkpt><trkpt lat="44.31184572424563" lon="8.473554291331249"><ele>11.0</ele><time>2026-04-05T13:37:44Z</time></trkpt><trkpt lat="44.31196151649341" lon="8.473507172596682"><ele>11.0</ele><time>2026-04-05T13:37:45Z</time></trkpt><trkpt lat="44.312062850922956" lon="8.473469652361244"><ele>11.0</ele><time>2026-04-05T13:37:46Z</time></trkpt><trkpt lat="44.31216431385082" lon="8.473426727666206"><ele>11.0</ele><time>2026-04-05T13:37:47Z</time></trkpt><trkpt lat="44.31226348718636" lon="8.473397469656046"><ele>11.0</ele><time>2026-04-05T13:37:48Z</time></trkpt><trkpt lat="44.31236458558679" lon="8.473362729864865"><ele>11.0</ele><time>2026-04-05T13:37:49Z</time></trkpt><trkpt lat="44.31246982578966" lon="8.473329181992527"><ele>11.200000000000001</ele><time>2026-04-05T13:37:50Z</time></trkpt><trkpt lat="44.31258463862019" lon="8.473288620006391"><ele>11.4</ele><time>2026-04-05T13:37:51Z</time></trkpt><trkpt lat="44.312694068135215" lon="8.473239381259013"><ele>11.6</ele><time>2026-04-05T13:37:52Z</time></trkpt><trkpt lat="44.312796407086964" lon="8.473173140514849"><ele>11.8</ele><time>2026-04-05T13:37:53Z</time></trkpt><trkpt lat="44.31289062675508" lon="8.473117860090149"><ele>12.0</ele><time>2026-04-05T13:37:54Z</time></trkpt><trkpt lat="44.31297504312018" lon="8.473064363804026"><ele>12.0</ele><time>2026-04-05T13:37:55Z</time></trkpt><trkpt lat="44.31305804303405" lon="8.473016152464343"><ele>12.0</ele><time>2026-04-05T13:37:56Z</time></trkpt><trkpt lat="44.31313706090856" lon="8.472973503676267"><ele>12.0</ele><time>2026-04-05T13:37:57Z</time></trkpt><trkpt lat="44.31321294254839" lon="8.472929884916898"><ele>12.0</ele><time>2026-04-05T13:37:58Z</time></trkpt><trkpt lat="44.31329100959005" lon="8.472884381740775"><ele>12.0</ele><time>2026-04-05T13:37:59Z</time></trkpt><trkpt lat="44.313369624674635" lon="8.472838980911678"><ele>12.0</ele><time>2026-04-05T13:38:00Z</time></trkpt><trkpt lat="44.31344365095057" lon="8.472802806945543"><ele>13.0</ele><time>2026-04-05T13:38:01Z</time></trkpt><trkpt lat="44.31350874417009" lon="8.472761553700021"><ele>14.0</ele><time>2026-04-05T13:38:02Z</time></trkpt><trkpt lat="44.31357216010133" lon="8.472725293701783"><ele>15.0</ele><time>2026-04-05T13:38:03Z</time></trkpt><trkpt lat="44.313644666302714" lon="8.472687564956729"><ele>16.0</ele><time>2026-04-05T13:38:04Z</time></trkpt><trkpt lat="44.313716822021654" lon="8.4726470567991"><ele>17.0</ele><time>2026-04-05T13:38:05Z</time></trkpt><trkpt lat="44.31378612591706" lon="8.47260736590394"><ele>18.0</ele><time>2026-04-05T13:38:06Z</time></trkpt><trkpt lat="44.31386350583539" lon="8.47256210332472"><ele>17.2</ele><time>2026-04-05T13:38:07Z</time></trkpt><trkpt lat="44.31394546625968" lon="8.472522296383556"><ele>16.4</ele><time>2026-04-05T13:38:08Z</time></trkpt><trkpt lat="44.3140281367409" lon="8.472464293451008"><ele>15.599999999999998</ele><time>2026-04-05T13:38:09Z</time></trkpt><trkpt lat="44.314114863074046" lon="8.47241092826945"><ele>14.799999999999999</ele><time>2026-04-05T13:38:10Z</time></trkpt><trkpt lat="44.31420605502768" lon="8.472358158350286"><ele>14.0</ele><time>2026-04-05T13:38:11Z</time></trkpt><trkpt lat="44.31430317239273" lon="8.472305680833834"><ele>14.0</ele><time>2026-04-05T13:38:12Z</time></trkpt><trkpt lat="44.31440303109487" lon="8.472251744303431"><ele>14.0</ele><time>2026-04-05T13:38:13Z</time></trkpt><trkpt lat="44.314508410999764" lon="8.472188768058517"><ele>14.0</ele><time>2026-04-05T13:38:14Z</time></trkpt><trkpt lat="44.31461474130864" lon="8.472119963560136"><ele>14.0</ele><time>2026-04-05T13:38:15Z</time></trkpt><trkpt lat="44.3147265052896" lon="8.472053033889498"><ele>14.75</ele><time>2026-04-05T13:38:16Z</time></trkpt><trkpt lat="44.31484491071225" lon="8.471987486371697"><ele>15.5</ele><time>2026-04-05T13:38:17Z</time></trkpt><trkpt lat="44.31497394102429" lon="8.471911100710756"><ele>16.25</ele><time>2026-04-05T13:38:18Z</time></trkpt><trkpt lat="44.31508408923986" lon="8.471837239264847"><ele>17.0</ele><time>2026-04-05T13:38:19Z</time></trkpt><trkpt lat="44.315206247286206" lon="8.471759785164508"><ele>17.0</ele><time>2026-04-05T13:38:20Z</time></trkpt><trkpt lat="44.315325872189405" lon="8.471688471275703"><ele>17.0</ele><time>2026-04-05T13:38:21Z</time></trkpt><trkpt lat="44.315435660498835" lon="8.471613435889505"><ele>17.0</ele><time>2026-04-05T13:38:22Z</time></trkpt><trkpt lat="44.31555652079385" lon="8.471537596562202"><ele>17.0</ele><time>2026-04-05T13:38:23Z</time></trkpt><trkpt lat="44.315670310759806" lon="8.47144984372199"><ele>17.0</ele><time>2026-04-05T13:38:24Z</time></trkpt><trkpt lat="44.31579110398676" lon="8.471386028851564"><ele>17.0</ele><time>2026-04-05T13:38:25Z</time></trkpt><trkpt lat="44.31589625300916" lon="8.471280542032606"><ele>17.0</ele><time>2026-04-05T13:38:26Z</time></trkpt><trkpt lat="44.316006959272954" lon="8.471195478005953"><ele>17.0</ele><time>2026-04-05T13:38:27Z</time></trkpt><trkpt lat="44.316120386848354" lon="8.471102592879205"><ele>17.75</ele><time>2026-04-05T13:38:28Z</time></trkpt><trkpt lat="44.31623464983918" lon="8.471013064362706"><ele>18.5</ele><time>2026-04-05T13:38:29Z</time></trkpt><trkpt lat="44.31635010216287" lon="8.470915374675071"><ele>19.25</ele><time>2026-04-05T13:38:30Z</time></trkpt><trkpt lat="44.31646341597225" lon="8.47083832100137"><ele>20.0</ele><time>2026-04-05T13:38:31Z</time></trkpt><trkpt lat="44.31657160748456" lon="8.470742490961685"><ele>20.0</ele><time>2026-04-05T13:38:32Z</time></trkpt><trkpt lat="44.316680411648306" lon="8.470644509764469"><ele>20.0</ele><time>2026-04-05T13:38:33Z</time></trkpt><trkpt lat="44.316794820485455" lon="8.470546169392435"><ele>20.0</ele><time>2026-04-05T13:38:34Z</time></trkpt><trkpt lat="44.31690784424781" lon="8.470455491232421"><ele>20.0</ele><time>2026-04-05T13:38:35Z</time></trkpt><trkpt lat="44.31701692167176" lon="8.470356371967064"><ele>19.5</ele><time>2026-04-05T13:38:36Z</time></trkpt><trkpt lat="44.31713514310405" lon="8.470261578355643"><ele>19.0</ele><time>2026-04-05T13:38:37Z</time></trkpt><trkpt lat="44.31724285511802" lon="8.470173293189879"><ele>18.5</ele><time>2026-04-05T13:38:38Z</time></trkpt><trkpt lat="44.31735139343784" lon="8.470078324471613"><ele>18.0</ele><time>2026-04-05T13:38:39Z</time></trkpt><trkpt lat="44.31746322671186" lon="8.469980804982953"><ele>18.0</ele><time>2026-04-05T13:38:40Z</time></trkpt><trkpt lat="44.31757409945256" lon="8.46988962963961"><ele>18.0</ele><time>2026-04-05T13:38:41Z</time></trkpt><trkpt lat="44.317696654147824" lon="8.469792343320067"><ele>18.0</ele><time>2026-04-05T13:38:42Z</time></trkpt><trkpt lat="44.317803110733166" lon="8.469705441711232"><ele>18.0</ele><time>2026-04-05T13:38:43Z</time></trkpt><trkpt lat="44.31792140912484" lon="8.469606379335604"><ele>17.75</ele><time>2026-04-05T13:38:44Z</time></trkpt><trkpt lat="44.3180405279953" lon="8.469509366887449"><ele>17.5</ele><time>2026-04-05T13:38:45Z</time></trkpt><trkpt lat="44.31815732899797" lon="8.469411191984678"><ele>17.25</ele><time>2026-04-05T13:38:46Z</time></trkpt><trkpt lat="44.31827478230789" lon="8.469315646373838"><ele>17.0</ele><time>2026-04-05T13:38:47Z</time></trkpt><trkpt lat="44.31838794613569" lon="8.469222774375288"><ele>17.0</ele><time>2026-04-05T13:38:48Z</time></trkpt><trkpt lat="44.318497473658546" lon="8.469133578310739"><ele>17.0</ele><time>2026-04-05T13:38:49Z</time></trkpt><trkpt lat="44.31860923610058" lon="8.469041596073573"><ele>17.0</ele><time>2026-04-05T13:38:50Z</time></trkpt><trkpt lat="44.31871809299902" lon="8.468956819805028"><ele>17.0</ele><time>2026-04-05T13:38:51Z</time></trkpt><trkpt lat="44.31883188371272" lon="8.468861813062656"><ele>17.25</ele><time>2026-04-05T13:38:52Z</time></trkpt><trkpt lat="44.31893850884433" lon="8.468762091442123"><ele>17.5</ele><time>2026-04-05T13:38:53Z</time></trkpt><trkpt lat="44.31905076732908" lon="8.468669497022795"><ele>17.75</ele><time>2026-04-05T13:38:54Z</time></trkpt><trkpt lat="44.319157431178695" lon="8.46857448705751"><ele>18.0</ele><time>2026-04-05T13:38:55Z</time></trkpt><trkpt lat="44.319260944190155" lon="8.468485003083908"><ele>18.0</ele><time>2026-04-05T13:38:56Z</time></trkpt><trkpt lat="44.31936695819487" lon="8.468391083927417"><ele>18.0</ele><time>2026-04-05T13:38:57Z</time></trkpt><trkpt lat="44.31947648938666" lon="8.468300211359612"><ele>18.0</ele><time>2026-04-05T13:38:58Z</time></trkpt><trkpt lat="44.31958238961195" lon="8.46821194743736"><ele>18.0</ele><time>2026-04-05T13:38:59Z</time></trkpt><trkpt lat="44.31968516149779" lon="8.468128134498995"><ele>18.25</ele><time>2026-04-05T13:39:00Z</time></trkpt><trkpt lat="44.31978813637712" lon="8.468037813203054"><ele>18.5</ele><time>2026-04-05T13:39:01Z</time></trkpt><trkpt lat="44.319890721478046" lon="8.467960592319084"><ele>18.75</ele><time>2026-04-05T13:39:02Z</time></trkpt><trkpt lat="44.31999026400983" lon="8.467872174752094"><ele>19.0</ele><time>2026-04-05T13:39:03Z</time></trkpt><trkpt lat="44.320085327924524" lon="8.46778966115009"><ele>19.4</ele><time>2026-04-05T13:39:04Z</time></trkpt><trkpt lat="44.32017394682294" lon="8.467713210320577"><ele>19.799999999999997</ele><time>2026-04-05T13:39:05Z</time></trkpt><trkpt lat="44.32026564333321" lon="8.46763535887562"><ele>20.200000000000003</ele><time>2026-04-05T13:39:06Z</time></trkpt><trkpt lat="44.320356514638334" lon="8.467559837750073"><ele>20.6</ele><time>2026-04-05T13:39:07Z</time></trkpt><trkpt lat="44.32043043316732" lon="8.467489902836455"><ele>21.0</ele><time>2026-04-05T13:39:08Z</time></trkpt><trkpt lat="44.32049495163635" lon="8.467426114034172"><ele>21.0</ele><time>2026-04-05T13:39:09Z</time></trkpt><trkpt lat="44.32056100774689" lon="8.467366848099903"><ele>21.0</ele><time>2026-04-05T13:39:10Z</time></trkpt><trkpt lat="44.32066957764745" lon="8.467284543678613"><ele>21.0</ele><time>2026-04-05T13:39:12Z</time></trkpt><trkpt lat="44.32073911658111" lon="8.467141400556422"><ele>21.0</ele><time>2026-04-05T13:39:14Z</time></trkpt><trkpt lat="44.32074477552481" lon="8.46705296921172"><ele>21.0</ele><time>2026-04-05T13:39:15Z</time></trkpt><trkpt lat="44.32071576517316" lon="8.466958395404054"><ele>21.8</ele><time>2026-04-05T13:39:16Z</time></trkpt><trkpt lat="44.32068574175453" lon="8.466867457138346"><ele>22.6</ele><time>2026-04-05T13:39:17Z</time></trkpt><trkpt lat="44.32067734329676" lon="8.466757422811972"><ele>23.4</ele><time>2026-04-05T13:39:18Z</time></trkpt><trkpt lat="44.32067841524799" lon="8.466628071416334"><ele>24.2</ele><time>2026-04-05T13:39:19Z</time></trkpt><trkpt lat="44.32069273405347" lon="8.466486647287505"><ele>25.0</ele><time>2026-04-05T13:39:20Z</time></trkpt><trkpt lat="44.320714287862415" lon="8.466336603432646"><ele>25.0</ele><time>2026-04-05T13:39:21Z</time></trkpt><trkpt lat="44.3207316848982" lon="8.466167081913209"><ele>25.0</ele><time>2026-04-05T13:39:22Z</time></trkpt><trkpt lat="44.320752235365994" lon="8.465994546296203"><ele>25.0</ele><time>2026-04-05T13:39:23Z</time></trkpt><trkpt lat="44.3207719681883" lon="8.465840740338843"><ele>25.0</ele><time>2026-04-05T13:39:24Z</time></trkpt><trkpt lat="44.32078755941206" lon="8.465707835165839"><ele>25.000000000000004</ele><time>2026-04-05T13:39:25Z</time></trkpt><trkpt lat="44.32080642698248" lon="8.465600766516268"><ele>25.0</ele><time>2026-04-05T13:39:26Z</time></trkpt><trkpt lat="44.320837192378946" lon="8.465510810397642"><ele>25.0</ele><time>2026-04-05T13:39:27Z</time></trkpt><trkpt lat="44.320869941615605" lon="8.46543028856139"><ele>25.0</ele><time>2026-04-05T13:39:28Z</time></trkpt><trkpt lat="44.32092230671737" lon="8.465285391817188"><ele>25.000000000000004</ele><time>2026-04-05T13:39:30Z</time></trkpt><trkpt lat="44.32093595050702" lon="8.465146386239763"><ele>25.0</ele><time>2026-04-05T13:39:32Z</time></trkpt><trkpt lat="44.32094578021754" lon="8.465048857611015"><ele>24.833333333333336</ele><time>2026-04-05T13:39:34Z</time></trkpt><trkpt lat="44.320958530631344" lon="8.464925643221182"><ele>24.666666666666668</ele><time>2026-04-05T13:39:37Z</time></trkpt><trkpt lat="44.32093859750421" lon="8.464837979798533"><ele>24.5</ele><time>2026-04-05T13:42:37Z</time></trkpt><trkpt lat="44.32095909577049" lon="8.464740534052918"><ele>24.333333333333336</ele><time>2026-04-05T13:42:41Z</time></trkpt><trkpt lat="44.32097684807968" lon="8.464625232839824"><ele>24.166666666666668</ele><time>2026-04-05T13:42:43Z</time></trkpt><trkpt lat="44.32099418517383" lon="8.464510249722359"><ele>24.0</ele><time>2026-04-05T13:42:45Z</time></trkpt><trkpt lat="44.32099419490324" lon="8.464395736118208"><ele>24.5</ele><time>2026-04-05T13:42:47Z</time></trkpt><trkpt lat="44.3209831949006" lon="8.464304268281712"><ele>25.0</ele><time>2026-04-05T13:42:51Z</time></trkpt><trkpt lat="44.32097127567291" lon="8.464183926073346"><ele>25.5</ele><time>2026-04-05T13:42:56Z</time></trkpt><trkpt lat="44.32098793040237" lon="8.464080027067002"><ele>26.0</ele><time>2026-04-05T13:42:57Z</time></trkpt><trkpt lat="44.32101086192437" lon="8.463954530822862"><ele>26.5</ele><time>2026-04-05T13:42:58Z</time></trkpt><trkpt lat="44.321028692378285" lon="8.463833790841019"><ele>27.0</ele><time>2026-04-05T13:42:59Z</time></trkpt><trkpt lat="44.32104509270024" lon="8.46370821089638"><ele>28.6</ele><time>2026-04-05T13:43:00Z</time></trkpt><trkpt lat="44.321061002008" lon="8.463575482638468"><ele>30.200000000000003</ele><time>2026-04-05T13:43:01Z</time></trkpt><trkpt lat="44.321069797853255" lon="8.463434201038076"><ele>31.8</ele><time>2026-04-05T13:43:02Z</time></trkpt><trkpt lat="44.321094575789395" lon="8.463294820040783"><ele>33.4</ele><time>2026-04-05T13:43:03Z</time></trkpt><trkpt lat="44.32111251428414" lon="8.463152897515048"><ele>35.0</ele><time>2026-04-05T13:43:04Z</time></trkpt><trkpt lat="44.32112984651954" lon="8.463014710355784"><ele>35.5</ele><time>2026-04-05T13:43:05Z</time></trkpt><trkpt lat="44.321150022583545" lon="8.46285180710316"><ele>36.0</ele><time>2026-04-05T13:43:06Z</time></trkpt><trkpt lat="44.32115454473412" lon="8.462692453546412"><ele>36.5</ele><time>2026-04-05T13:43:07Z</time></trkpt><trkpt lat="44.32117092420985" lon="8.462532916552554"><ele>37.0</ele><time>2026-04-05T13:43:08Z</time></trkpt><trkpt lat="44.321194849050485" lon="8.462370829651691"><ele>37.0</ele><time>2026-04-05T13:43:09Z</time></trkpt><trkpt lat="44.3212333662467" lon="8.462216038991643"><ele>37.0</ele><time>2026-04-05T13:43:10Z</time></trkpt><trkpt lat="44.321286271853" lon="8.462071449984197"><ele>37.0</ele><time>2026-04-05T13:43:11Z</time></trkpt><trkpt lat="44.32136792147206" lon="8.461950583264489"><ele>37.0</ele><time>2026-04-05T13:43:12Z</time></trkpt><trkpt lat="44.32147483732536" lon="8.461881995888294"><ele>38.5</ele><time>2026-04-05T13:43:13Z</time></trkpt><trkpt lat="44.321576420717705" lon="8.461781254524258"><ele>40.0</ele><time>2026-04-05T13:43:14Z</time></trkpt><trkpt lat="44.32169181463487" lon="8.461694386427906"><ele>41.5</ele><time>2026-04-05T13:43:15Z</time></trkpt><trkpt lat="44.32181335721492" lon="8.461600520371748"><ele>43.0</ele><time>2026-04-05T13:43:16Z</time></trkpt><trkpt lat="44.321931177537216" lon="8.461511616119438"><ele>43.0</ele><time>2026-04-05T13:43:17Z</time></trkpt><trkpt lat="44.32205039525707" lon="8.461422823157015"><ele>43.0</ele><time>2026-04-05T13:43:18Z</time></trkpt><trkpt lat="44.32216215654717" lon="8.461338147841149"><ele>43.0</ele><time>2026-04-05T13:43:19Z</time></trkpt><trkpt lat="44.322263790150686" lon="8.461256654595607"><ele>43.0</ele><time>2026-04-05T13:43:20Z</time></trkpt><trkpt lat="44.32236561108513" lon="8.461180714760488"><ele>42.199999999999996</ele><time>2026-04-05T13:43:21Z</time></trkpt><trkpt lat="44.322464435092094" lon="8.461108094799316"><ele>41.4</ele><time>2026-04-05T13:43:22Z</time></trkpt><trkpt lat="44.32255860502421" lon="8.461034826459127"><ele>40.599999999999994</ele><time>2026-04-05T13:43:23Z</time></trkpt><trkpt lat="44.322642697089094" lon="8.460941573114239"><ele>39.8</ele><time>2026-04-05T13:43:24Z</time></trkpt><trkpt lat="44.322700963731705" lon="8.460818114118831"><ele>39.0</ele><time>2026-04-05T13:43:25Z</time></trkpt><trkpt lat="44.32271911336534" lon="8.460665017358878"><ele>39.0</ele><time>2026-04-05T13:43:26Z</time></trkpt><trkpt lat="44.322696301688936" lon="8.460501233360098"><ele>39.0</ele><time>2026-04-05T13:43:27Z</time></trkpt><trkpt lat="44.322643865924846" lon="8.460350889811574"><ele>39.0</ele><time>2026-04-05T13:43:28Z</time></trkpt><trkpt lat="44.32258859380312" lon="8.460201172847235"><ele>39.0</ele><time>2026-04-05T13:43:29Z</time></trkpt><trkpt lat="44.32256083123541" lon="8.460050805507432"><ele>39.75</ele><time>2026-04-05T13:43:30Z</time></trkpt><trkpt lat="44.32256842996176" lon="8.459889883697825"><ele>40.5</ele><time>2026-04-05T13:43:31Z</time></trkpt><trkpt lat="44.32261914248293" lon="8.459743127128593"><ele>41.25</ele><time>2026-04-05T13:43:32Z</time></trkpt><trkpt lat="44.32267623718009" lon="8.459595958569485"><ele>42.0</ele><time>2026-04-05T13:43:33Z</time></trkpt><trkpt lat="44.322737761189416" lon="8.45945088566495"><ele>44.25</ele><time>2026-04-05T13:43:34Z</time></trkpt><trkpt lat="44.322794686014916" lon="8.459301009957652"><ele>46.5</ele><time>2026-04-05T13:43:35Z</time></trkpt><trkpt lat="44.32288477518694" lon="8.459188340390611"><ele>48.75</ele><time>2026-04-05T13:43:36Z</time></trkpt><trkpt lat="44.322990539235924" lon="8.459109844464281"><ele>51.0</ele><time>2026-04-05T13:43:37Z</time></trkpt><trkpt lat="44.32311178966862" lon="8.459076592088676"><ele>51.0</ele><time>2026-04-05T13:43:38Z</time></trkpt><trkpt lat="44.32323627016866" lon="8.45906135583065"><ele>51.0</ele><time>2026-04-05T13:43:39Z</time></trkpt><trkpt lat="44.32336405768055" lon="8.45905032878223"><ele>51.0</ele><time>2026-04-05T13:43:40Z</time></trkpt><trkpt lat="44.32349005811118" lon="8.4590391978355"><ele>51.0</ele><time>2026-04-05T13:43:41Z</time></trkpt><trkpt lat="44.32361731436699" lon="8.459024067095097"><ele>51.0</ele><time>2026-04-05T13:43:42Z</time></trkpt><trkpt lat="44.323741493000874" lon="8.459009754603628"><ele>51.0</ele><time>2026-04-05T13:43:43Z</time></trkpt><trkpt lat="44.32386425466001" lon="8.458995332961376"><ele>51.0</ele><time>2026-04-05T13:43:44Z</time></trkpt><trkpt lat="44.32398807966725" lon="8.458982273400864"><ele>51.0</ele><time>2026-04-05T13:43:45Z</time></trkpt><trkpt lat="44.324109741775295" lon="8.458970639387395"><ele>52.8</ele><time>2026-04-05T13:43:46Z</time></trkpt><trkpt lat="44.32421837268297" lon="8.458968382978899"><ele>54.599999999999994</ele><time>2026-04-05T13:43:47Z</time></trkpt><trkpt lat="44.324317954889224" lon="8.458950259207578"><ele>56.4</ele><time>2026-04-05T13:43:48Z</time></trkpt><trkpt lat="44.32442170667761" lon="8.458900297906062"><ele>58.2</ele><time>2026-04-05T13:43:49Z</time></trkpt><trkpt lat="44.32452803654703" lon="8.458815421550387"><ele>60.0</ele><time>2026-04-05T13:43:50Z</time></trkpt><trkpt lat="44.32458788835274" lon="8.458649559520817"><ele>61.0</ele><time>2026-04-05T13:43:51Z</time></trkpt><trkpt lat="44.324642699076456" lon="8.458474604419155"><ele>62.0</ele><time>2026-04-05T13:43:52Z</time></trkpt><trkpt lat="44.324699792434984" lon="8.458290181471812"><ele>63.0</ele><time>2026-04-05T13:43:53Z</time></trkpt><trkpt lat="44.32477091154032" lon="8.458096221541659"><ele>64.0</ele><time>2026-04-05T13:43:54Z</time></trkpt><trkpt lat="44.324849995791546" lon="8.457896596024018"><ele>65.75</ele><time>2026-04-05T13:43:55Z</time></trkpt><trkpt lat="44.32493170752385" lon="8.457695968073619"><ele>67.5</ele><time>2026-04-05T13:43:56Z</time></trkpt><trkpt lat="44.324934677096714" lon="8.457562085310265"><ele>69.25</ele><time>2026-04-05T13:43:57Z</time></trkpt><trkpt lat="44.32504677081569" lon="8.457419422366506"><ele>71.0</ele><time>2026-04-05T13:43:58Z</time></trkpt><trkpt lat="44.32514508540465" lon="8.457262095900337"><ele>74.0</ele><time>2026-04-05T13:43:59Z</time></trkpt><trkpt lat="44.32522224131045" lon="8.457084963586684"><ele>77.0</ele><time>2026-04-05T13:44:00Z</time></trkpt><trkpt lat="44.325276182491606" lon="8.456873619920197"><ele>80.0</ele><time>2026-04-05T13:44:01Z</time></trkpt><trkpt lat="44.32529058514422" lon="8.456642168069738"><ele>80.0</ele><time>2026-04-05T13:44:02Z</time></trkpt><trkpt lat="44.325304121187315" lon="8.456418341537471"><ele>80.0</ele><time>2026-04-05T13:44:03Z</time></trkpt><trkpt lat="44.32532457460584" lon="8.456210025307547"><ele>80.0</ele><time>2026-04-05T13:44:04Z</time></trkpt><trkpt lat="44.325375218715635" lon="8.456020678952497"><ele>80.75</ele><time>2026-04-05T13:44:05Z</time></trkpt><trkpt lat="44.325436584715725" lon="8.455839203506724"><ele>81.5</ele><time>2026-04-05T13:44:06Z</time></trkpt><trkpt lat="44.325513801336925" lon="8.455662041522471"><ele>82.25</ele><time>2026-04-05T13:44:07Z</time></trkpt><trkpt lat="44.32559013254227" lon="8.455481635095822"><ele>83.0</ele><time>2026-04-05T13:44:08Z</time></trkpt><trkpt lat="44.32566841491002" lon="8.455296617235257"><ele>83.0</ele><time>2026-04-05T13:44:09Z</time></trkpt><trkpt lat="44.325748732844595" lon="8.455106788354547"><ele>83.0</ele><time>2026-04-05T13:44:10Z</time></trkpt><trkpt lat="44.325830564773874" lon="8.454913676053897"><ele>83.0</ele><time>2026-04-05T13:44:11Z</time></trkpt><trkpt lat="44.3258985494784" lon="8.454713850932508"><ele>84.0</ele><time>2026-04-05T13:44:12Z</time></trkpt><trkpt lat="44.32598247494526" lon="8.454523915963517"><ele>85.0</ele><time>2026-04-05T13:44:13Z</time></trkpt><trkpt lat="44.32607868762419" lon="8.45434278368655"><ele>86.0</ele><time>2026-04-05T13:44:14Z</time></trkpt><trkpt lat="44.326138465592386" lon="8.454127460835382"><ele>86.0</ele><time>2026-04-05T13:44:15Z</time></trkpt><trkpt lat="44.326191811088634" lon="8.45390977194631"><ele>86.0</ele><time>2026-04-05T13:44:16Z</time></trkpt><trkpt lat="44.32622535136943" lon="8.453674830642985"><ele>86.0</ele><time>2026-04-05T13:44:17Z</time></trkpt><trkpt lat="44.326252861613746" lon="8.45343598694326"><ele>89.0</ele><time>2026-04-05T13:44:18Z</time></trkpt><trkpt lat="44.32628574734199" lon="8.45319345722892"><ele>92.0</ele><time>2026-04-05T13:44:19Z</time></trkpt><trkpt lat="44.326314136738894" lon="8.452955297832858"><ele>95.0</ele><time>2026-04-05T13:44:20Z</time></trkpt><trkpt lat="44.326342395647366" lon="8.452723185315534"><ele>94.33333333333334</ele><time>2026-04-05T13:44:21Z</time></trkpt><trkpt lat="44.326373831485164" lon="8.452494977436372"><ele>93.66666666666667</ele><time>2026-04-05T13:44:22Z</time></trkpt><trkpt lat="44.32640518836259" lon="8.452284774732275"><ele>93.0</ele><time>2026-04-05T13:44:23Z</time></trkpt><trkpt lat="44.32643485813039" lon="8.452073045180882"><ele>92.0</ele><time>2026-04-05T13:44:24Z</time></trkpt><trkpt lat="44.326464023538215" lon="8.45185236903712"><ele>91.0</ele><time>2026-04-05T13:44:25Z</time></trkpt><trkpt lat="44.326495316439654" lon="8.451630514253711"><ele>90.0</ele><time>2026-04-05T13:44:26Z</time></trkpt><trkpt lat="44.32652048099175" lon="8.451408643509218"><ele>90.66666666666667</ele><time>2026-04-05T13:44:27Z</time></trkpt><trkpt lat="44.32655425172693" lon="8.451199415937149"><ele>91.33333333333334</ele><time>2026-04-05T13:44:28Z</time></trkpt><trkpt lat="44.32657821153147" lon="8.450990338970268"><ele>92.0</ele><time>2026-04-05T13:44:29Z</time></trkpt><trkpt lat="44.326585301687935" lon="8.450781432206384"><ele>92.0</ele><time>2026-04-05T13:44:30Z</time></trkpt><trkpt lat="44.32656180764271" lon="8.450571659150652"><ele>92.0</ele><time>2026-04-05T13:44:31Z</time></trkpt><trkpt lat="44.32650721521519" lon="8.450372952546308"><ele>92.0</ele><time>2026-04-05T13:44:32Z</time></trkpt><trkpt lat="44.32643795678679" lon="8.450192185789207"><ele>98.0</ele><time>2026-04-05T13:44:33Z</time></trkpt><trkpt lat="44.32638033161183" lon="8.450019241325748"><ele>104.0</ele><time>2026-04-05T13:44:34Z</time></trkpt><trkpt lat="44.32634026105779" lon="8.449862883074895"><ele>110.0</ele><time>2026-04-05T13:44:35Z</time></trkpt><trkpt lat="44.326330026902966" lon="8.44970791431927"><ele>116.0</ele><time>2026-04-05T13:44:36Z</time></trkpt><trkpt lat="44.32635602195763" lon="8.449547212448065"><ele>111.5</ele><time>2026-04-05T13:44:37Z</time></trkpt><trkpt lat="44.3264207065107" lon="8.449398966418128"><ele>107.0</ele><time>2026-04-05T13:44:38Z</time></trkpt><trkpt lat="44.326495297191165" lon="8.44925407724959"><ele>102.5</ele><time>2026-04-05T13:44:39Z</time></trkpt><trkpt lat="44.32654720441629" lon="8.449096821142135"><ele>98.0</ele><time>2026-04-05T13:44:40Z</time></trkpt><trkpt lat="44.32660402410262" lon="8.44893594434574"><ele>98.0</ele><time>2026-04-05T13:44:41Z</time></trkpt><trkpt lat="44.326665372984976" lon="8.448769313056484"><ele>98.0</ele><time>2026-04-05T13:44:42Z</time></trkpt><trkpt lat="44.32674634229134" lon="8.448612900233801"><ele>98.0</ele><time>2026-04-05T13:44:43Z</time></trkpt><trkpt lat="44.32681638958479" lon="8.448435685789065"><ele>98.0</ele><time>2026-04-05T13:44:44Z</time></trkpt><trkpt lat="44.32686667233079" lon="8.44825479806596"><ele>98.0</ele><time>2026-04-05T13:44:45Z</time></trkpt><trkpt lat="44.3269304717967" lon="8.44808509360773"><ele>98.0</ele><time>2026-04-05T13:44:46Z</time></trkpt><trkpt lat="44.32697709771677" lon="8.447904943505728"><ele>98.0</ele><time>2026-04-05T13:44:47Z</time></trkpt><trkpt lat="44.32700367948305" lon="8.447707898259004"><ele>98.0</ele><time>2026-04-05T13:44:48Z</time></trkpt><trkpt lat="44.327008414257406" lon="8.447502012900433"><ele>100.0</ele><time>2026-04-05T13:44:49Z</time></trkpt><trkpt lat="44.32699697739752" lon="8.447287566542938"><ele>102.0</ele><time>2026-04-05T13:44:50Z</time></trkpt><trkpt lat="44.326980724649225" lon="8.447073992952355"><ele>104.0</ele><time>2026-04-05T13:44:51Z</time></trkpt><trkpt lat="44.32696953568055" lon="8.446859574469224"><ele>106.0</ele><time>2026-04-05T13:44:52Z</time></trkpt><trkpt lat="44.32696326384631" lon="8.446641837167073"><ele>108.0</ele><time>2026-04-05T13:44:53Z</time></trkpt><trkpt lat="44.32696231084623" lon="8.44643312500432"><ele>110.0</ele><time>2026-04-05T13:44:54Z</time></trkpt><trkpt lat="44.3269856290853" lon="8.446227732878041"><ele>113.0</ele><time>2026-04-05T13:44:55Z</time></trkpt><trkpt lat="44.327041812652766" lon="8.44603802832055"><ele>116.0</ele><time>2026-04-05T13:44:56Z</time></trkpt><trkpt lat="44.32710085069893" lon="8.445842862158537"><ele>119.0</ele><time>2026-04-05T13:44:57Z</time></trkpt><trkpt lat="44.32715320728194" lon="8.445632734793763"><ele>118.33333333333333</ele><time>2026-04-05T13:44:58Z</time></trkpt><trkpt lat="44.327222899134455" lon="8.445425612549206"><ele>117.66666666666666</ele><time>2026-04-05T13:44:59Z</time></trkpt><trkpt lat="44.32728343393656" lon="8.445225387600386"><ele>117.0</ele><time>2026-04-05T13:45:00Z</time></trkpt><trkpt lat="44.327345109509146" lon="8.445050768359101"><ele>117.0</ele><time>2026-04-05T13:45:01Z</time></trkpt><trkpt lat="44.32739172842244" lon="8.444891092931247"><ele>117.0</ele><time>2026-04-05T13:45:02Z</time></trkpt><trkpt lat="44.32741359941815" lon="8.444732593461248"><ele>117.0</ele><time>2026-04-05T13:45:03Z</time></trkpt><trkpt lat="44.32739739759696" lon="8.44455560540597"><ele>117.0</ele><time>2026-04-05T13:45:04Z</time></trkpt><trkpt lat="44.32735281941162" lon="8.444364580983956"><ele>118.0</ele><time>2026-04-05T13:45:05Z</time></trkpt><trkpt lat="44.32730241618278" lon="8.444164791388573"><ele>119.0</ele><time>2026-04-05T13:45:06Z</time></trkpt><trkpt lat="44.32726259935847" lon="8.443962369391917"><ele>120.0</ele><time>2026-04-05T13:45:07Z</time></trkpt><trkpt lat="44.327221370913925" lon="8.443754809889075"><ele>120.0</ele><time>2026-04-05T13:45:08Z</time></trkpt><trkpt lat="44.327178870057494" lon="8.44357806946984"><ele>120.0</ele><time>2026-04-05T13:45:09Z</time></trkpt><trkpt lat="44.327117932508536" lon="8.443432590901672"><ele>120.0</ele><time>2026-04-05T13:45:10Z</time></trkpt><trkpt lat="44.32700932499578" lon="8.443324144482176"><ele>120.0</ele><time>2026-04-05T13:45:11Z</time></trkpt><trkpt lat="44.32686942569896" lon="8.443253071665962"><ele>120.0</ele><time>2026-04-05T13:45:12Z</time></trkpt><trkpt lat="44.326742154841604" lon="8.443206622041275"><ele>120.0</ele><time>2026-04-05T13:45:13Z</time></trkpt><trkpt lat="44.326642425855184" lon="8.443160620369516"><ele>120.0</ele><time>2026-04-05T13:45:14Z</time></trkpt><trkpt lat="44.32656817412646" lon="8.443074601519433"><ele>120.0</ele><time>2026-04-05T13:45:15Z</time></trkpt><trkpt lat="44.3265250854711" lon="8.442930296399009"><ele>120.0</ele><time>2026-04-05T13:45:16Z</time></trkpt><trkpt lat="44.326497665449686" lon="8.442785504221586"><ele>121.25</ele><time>2026-04-05T13:45:17Z</time></trkpt><trkpt lat="44.32656452190019" lon="8.44264011649208"><ele>122.5</ele><time>2026-04-05T13:45:18Z</time></trkpt><trkpt lat="44.32661264609032" lon="8.44249320760581"><ele>123.75</ele><time>2026-04-05T13:45:19Z</time></trkpt><trkpt lat="44.32664845304762" lon="8.442336617316917"><ele>125.0</ele><time>2026-04-05T13:45:20Z</time></trkpt><trkpt lat="44.32668555295032" lon="8.442190206767068"><ele>125.0</ele><time>2026-04-05T13:45:21Z</time></trkpt><trkpt lat="44.32669446775679" lon="8.44201821611467"><ele>125.0</ele><time>2026-04-05T13:45:22Z</time></trkpt><trkpt lat="44.326672478565506" lon="8.441829350608781"><ele>125.0</ele><time>2026-04-05T13:45:23Z</time></trkpt><trkpt lat="44.326627104189654" lon="8.44164424494706"><ele>125.0</ele><time>2026-04-05T13:45:24Z</time></trkpt><trkpt lat="44.32656587511233" lon="8.441460958300238"><ele>126.0</ele><time>2026-04-05T13:45:25Z</time></trkpt><trkpt lat="44.326497724671334" lon="8.441280840872679"><ele>127.0</ele><time>2026-04-05T13:45:26Z</time></trkpt><trkpt lat="44.32643150806873" lon="8.441097644432542"><ele>128.0</ele><time>2026-04-05T13:45:27Z</time></trkpt><trkpt lat="44.326369098902525" lon="8.440912111125511"><ele>129.0</ele><time>2026-04-05T13:45:28Z</time></trkpt><trkpt lat="44.32630800662402" lon="8.440736466946303"><ele>130.75</ele><time>2026-04-05T13:45:29Z</time></trkpt><trkpt lat="44.32624968129546" lon="8.440566859255588"><ele>132.5</ele><time>2026-04-05T13:45:30Z</time></trkpt><trkpt lat="44.32618983862186" lon="8.44039866396061"><ele>134.25</ele><time>2026-04-05T13:45:31Z</time></trkpt><trkpt lat="44.32613344640003" lon="8.44022903519271"><ele>136.0</ele><time>2026-04-05T13:45:32Z</time></trkpt><trkpt lat="44.32608627262969" lon="8.44006068985239"><ele>136.0</ele><time>2026-04-05T13:45:33Z</time></trkpt><trkpt lat="44.32604740203417" lon="8.439888415387998"><ele>136.0</ele><time>2026-04-05T13:45:34Z</time></trkpt><trkpt lat="44.32600977624493" lon="8.439721585096297"><ele>136.0</ele><time>2026-04-05T13:45:35Z</time></trkpt><trkpt lat="44.32597419850162" lon="8.439562540483621"><ele>136.0</ele><time>2026-04-05T13:45:36Z</time></trkpt><trkpt lat="44.325936934191496" lon="8.439408998720532"><ele>136.5</ele><time>2026-04-05T13:45:37Z</time></trkpt><trkpt lat="44.32590518857295" lon="8.439254743761841"><ele>137.0</ele><time>2026-04-05T13:45:38Z</time></trkpt><trkpt lat="44.32586965224008" lon="8.439106001601086"><ele>137.5</ele><time>2026-04-05T13:45:39Z</time></trkpt><trkpt lat="44.32583586808158" lon="8.438955969825923"><ele>138.0</ele><time>2026-04-05T13:45:40Z</time></trkpt><trkpt lat="44.32580474718534" lon="8.438806831473544"><ele>138.4</ele><time>2026-04-05T13:45:41Z</time></trkpt><trkpt lat="44.32577110299819" lon="8.43865831033431"><ele>138.8</ele><time>2026-04-05T13:45:42Z</time></trkpt><trkpt lat="44.325736584085774" lon="8.438509342459453"><ele>139.2</ele><time>2026-04-05T13:45:43Z</time></trkpt><trkpt lat="44.32570419193658" lon="8.43836566837872"><ele>139.6</ele><time>2026-04-05T13:45:44Z</time></trkpt><trkpt lat="44.3256686970712" lon="8.438218595209253"><ele>140.0</ele><time>2026-04-05T13:45:45Z</time></trkpt><trkpt lat="44.325633284971815" lon="8.438068179887441"><ele>140.0</ele><time>2026-04-05T13:45:46Z</time></trkpt><trkpt lat="44.32559950951932" lon="8.437918094389213"><ele>140.0</ele><time>2026-04-05T13:45:47Z</time></trkpt><trkpt lat="44.32556331536898" lon="8.437765973060936"><ele>140.0</ele><time>2026-04-05T13:45:48Z</time></trkpt><trkpt lat="44.3255437593778" lon="8.43760634357063"><ele>140.0</ele><time>2026-04-05T13:45:49Z</time></trkpt><trkpt lat="44.32550947489249" lon="8.437452865823895"><ele>140.0</ele><time>2026-04-05T13:45:50Z</time></trkpt><trkpt lat="44.32545953431143" lon="8.437305557301842"><ele>140.0</ele><time>2026-04-05T13:45:51Z</time></trkpt><trkpt lat="44.325409509940414" lon="8.43715580197577"><ele>140.0</ele><time>2026-04-05T13:45:52Z</time></trkpt><trkpt lat="44.32532191398103" lon="8.437022960106352"><ele>140.0</ele><time>2026-04-05T13:45:53Z</time></trkpt><trkpt lat="44.32520948466964" lon="8.436910822678556"><ele>138.5</ele><time>2026-04-05T13:45:54Z</time></trkpt><trkpt lat="44.32509725679266" lon="8.436811278851845"><ele>137.0</ele><time>2026-04-05T13:45:55Z</time></trkpt><trkpt lat="44.32499531426887" lon="8.436717689978744"><ele>135.5</ele><time>2026-04-05T13:45:56Z</time></trkpt><trkpt lat="44.324930026819864" lon="8.436609252596888"><ele>134.0</ele><time>2026-04-05T13:45:57Z</time></trkpt><trkpt lat="44.32490139173432" lon="8.436478757676054"><ele>134.0</ele><time>2026-04-05T13:45:58Z</time></trkpt><trkpt lat="44.32491399008954" lon="8.43632594062242"><ele>134.0</ele><time>2026-04-05T13:45:59Z</time></trkpt><trkpt lat="44.32498462303932" lon="8.436181465728406"><ele>134.0</ele><time>2026-04-05T13:46:00Z</time></trkpt><trkpt lat="44.32503123168839" lon="8.436020736432473"><ele>134.0</ele><time>2026-04-05T13:46:01Z</time></trkpt><trkpt lat="44.3250887192752" lon="8.435867569067737"><ele>134.0</ele><time>2026-04-05T13:46:02Z</time></trkpt><trkpt lat="44.32514415592798" lon="8.435719114399419"><ele>134.0</ele><time>2026-04-05T13:46:03Z</time></trkpt><trkpt lat="44.32520012129821" lon="8.435561457201183"><ele>134.0</ele><time>2026-04-05T13:46:04Z</time></trkpt><trkpt lat="44.32522988456456" lon="8.435378197935078"><ele>134.0</ele><time>2026-04-05T13:46:05Z</time></trkpt><trkpt lat="44.325232604770385" lon="8.435188919566974"><ele>135.0</ele><time>2026-04-05T13:46:06Z</time></trkpt><trkpt lat="44.32519159060418" lon="8.435006985211182"><ele>136.0</ele><time>2026-04-05T13:46:07Z</time></trkpt><trkpt lat="44.325112432068046" lon="8.4348387076839"><ele>137.0</ele><time>2026-04-05T13:46:08Z</time></trkpt><trkpt lat="44.32501582880435" lon="8.434697594843483"><ele>138.0</ele><time>2026-04-05T13:46:09Z</time></trkpt><trkpt lat="44.32491429371705" lon="8.434564148286478"><ele>140.25</ele><time>2026-04-05T13:46:10Z</time></trkpt><trkpt lat="44.3248070264036" lon="8.434428923958356"><ele>142.5</ele><time>2026-04-05T13:46:11Z</time></trkpt><trkpt lat="44.324703260121574" lon="8.434289448000413"><ele>144.75</ele><time>2026-04-05T13:46:12Z</time></trkpt><trkpt lat="44.3246037020779" lon="8.434157934196328"><ele>147.0</ele><time>2026-04-05T13:46:13Z</time></trkpt><trkpt lat="44.32453079215611" lon="8.434029696289986"><ele>147.2</ele><time>2026-04-05T13:46:14Z</time></trkpt><trkpt lat="44.324468692046295" lon="8.433915120630731"><ele>147.39999999999998</ele><time>2026-04-05T13:46:15Z</time></trkpt><trkpt lat="44.324416549382086" lon="8.433801306352478"><ele>147.60000000000002</ele><time>2026-04-05T13:46:16Z</time></trkpt><trkpt lat="44.324445248521606" lon="8.433641909364205"><ele>147.8</ele><time>2026-04-05T13:46:17Z</time></trkpt><trkpt lat="44.324456974059636" lon="8.433483807365729"><ele>148.0</ele><time>2026-04-05T13:46:18Z</time></trkpt><trkpt lat="44.32449352653312" lon="8.433330785561305"><ele>147.5</ele><time>2026-04-05T13:46:19Z</time></trkpt><trkpt lat="44.32455589579123" lon="8.433191737602098"><ele>147.0</ele><time>2026-04-05T13:46:20Z</time></trkpt><trkpt lat="44.32463459596134" lon="8.433061673054095"><ele>146.5</ele><time>2026-04-05T13:46:21Z</time></trkpt><trkpt lat="44.32471965198384" lon="8.432933087282079"><ele>146.0</ele><time>2026-04-05T13:46:22Z</time></trkpt><trkpt lat="44.324805966606725" lon="8.432803594747694"><ele>144.75</ele><time>2026-04-05T13:46:23Z</time></trkpt><trkpt lat="44.32489381304035" lon="8.432671849454756"><ele>143.5</ele><time>2026-04-05T13:46:24Z</time></trkpt><trkpt lat="44.32498317451571" lon="8.432537920762831"><ele>142.25</ele><time>2026-04-05T13:46:25Z</time></trkpt><trkpt lat="44.32506766143431" lon="8.432393429822403"><ele>141.0</ele><time>2026-04-05T13:46:26Z</time></trkpt><trkpt lat="44.32513294452897" lon="8.432229842092882"><ele>141.75</ele><time>2026-04-05T13:46:27Z</time></trkpt><trkpt lat="44.32519334979371" lon="8.432062333556111"><ele>142.5</ele><time>2026-04-05T13:46:28Z</time></trkpt><trkpt lat="44.325237469100664" lon="8.431880491233677"><ele>143.25</ele><time>2026-04-05T13:46:29Z</time></trkpt><trkpt lat="44.325274816132314" lon="8.431696931270539"><ele>144.0</ele><time>2026-04-05T13:46:30Z</time></trkpt><trkpt lat="44.32530643566591" lon="8.431508439897037"><ele>144.0</ele><time>2026-04-05T13:46:31Z</time></trkpt><trkpt lat="44.325341730169164" lon="8.431320476988333"><ele>144.0</ele><time>2026-04-05T13:46:32Z</time></trkpt><trkpt lat="44.32537668346497" lon="8.431127249063467"><ele>144.0</ele><time>2026-04-05T13:46:33Z</time></trkpt><trkpt lat="44.32541490549373" lon="8.430938117496089"><ele>144.0</ele><time>2026-04-05T13:46:34Z</time></trkpt><trkpt lat="44.32544500024487" lon="8.430751206731681"><ele>143.75</ele><time>2026-04-05T13:46:35Z</time></trkpt><trkpt lat="44.325450402974965" lon="8.430561013918163"><ele>143.5</ele><time>2026-04-05T13:46:36Z</time></trkpt><trkpt lat="44.3254236705992" lon="8.430374538544017"><ele>143.25</ele><time>2026-04-05T13:46:37Z</time></trkpt><trkpt lat="44.325343592331684" lon="8.430214680940164"><ele>143.0</ele><time>2026-04-05T13:46:38Z</time></trkpt><trkpt lat="44.325258141990915" lon="8.430068851581753"><ele>143.0</ele><time>2026-04-05T13:46:39Z</time></trkpt><trkpt lat="44.32515957663479" lon="8.429948516363698"><ele>143.0</ele><time>2026-04-05T13:46:40Z</time></trkpt><trkpt lat="44.32505710467677" lon="8.429834313022575"><ele>143.0</ele><time>2026-04-05T13:46:41Z</time></trkpt><trkpt lat="44.32494898966758" lon="8.429749782579316"><ele>143.0</ele><time>2026-04-05T13:46:42Z</time></trkpt><trkpt lat="44.32483399019412" lon="8.429690822814992"><ele>143.5</ele><time>2026-04-05T13:46:43Z</time></trkpt><trkpt lat="44.32471808387191" lon="8.429638919367784"><ele>144.0</ele><time>2026-04-05T13:46:44Z</time></trkpt><trkpt lat="44.32460428303272" lon="8.429584855686668"><ele>144.5</ele><time>2026-04-05T13:46:45Z</time></trkpt><trkpt lat="44.32448664474174" lon="8.429525939036521"><ele>145.0</ele><time>2026-04-05T13:46:46Z</time></trkpt><trkpt lat="44.324365859081574" lon="8.429456419117093"><ele>145.0</ele><time>2026-04-05T13:46:47Z</time></trkpt><trkpt lat="44.32424673767122" lon="8.429374654257296"><ele>145.0</ele><time>2026-04-05T13:46:48Z</time></trkpt><trkpt lat="44.32415106507825" lon="8.429268533991928"><ele>145.0</ele><time>2026-04-05T13:46:49Z</time></trkpt><trkpt lat="44.32407252054699" lon="8.429164589330101"><ele>145.0</ele><time>2026-04-05T13:46:50Z</time></trkpt><trkpt lat="44.32399911763805" lon="8.42905314381168"><ele>145.0</ele><time>2026-04-05T13:46:51Z</time></trkpt><trkpt lat="44.323933271127245" lon="8.428947801598692"><ele>145.0</ele><time>2026-04-05T13:46:52Z</time></trkpt><trkpt lat="44.32380083599247" lon="8.428730792171178"><ele>145.0</ele><time>2026-04-05T13:46:53Z</time></trkpt><trkpt lat="44.32372178866333" lon="8.428600270160812"><ele>145.0</ele><time>2026-04-05T13:46:54Z</time></trkpt><trkpt lat="44.32363712228248" lon="8.428479526702562"><ele>147.0</ele><time>2026-04-05T13:46:55Z</time></trkpt><trkpt lat="44.323566661911855" lon="8.428338537606786"><ele>149.0</ele><time>2026-04-05T13:46:56Z</time></trkpt><trkpt lat="44.323514635962674" lon="8.428179519014462"><ele>151.0</ele><time>2026-04-05T13:46:57Z</time></trkpt><trkpt lat="44.32347319456412" lon="8.42801159171721"><ele>153.0</ele><time>2026-04-05T13:46:58Z</time></trkpt><trkpt lat="44.32344011585591" lon="8.427855149753048"><ele>153.20000000000002</ele><time>2026-04-05T13:46:59Z</time></trkpt><trkpt lat="44.323412316884806" lon="8.42771431275114"><ele>153.4</ele><time>2026-04-05T13:47:00Z</time></trkpt><trkpt lat="44.32339007551532" lon="8.427584028161766"><ele>153.60000000000002</ele><time>2026-04-05T13:47:01Z</time></trkpt><trkpt lat="44.32337995775456" lon="8.42744580541438"><ele>153.8</ele><time>2026-04-05T13:47:02Z</time></trkpt><trkpt lat="44.323392243880356" lon="8.427296288344106"><ele>154.0</ele><time>2026-04-05T13:47:03Z</time></trkpt><trkpt lat="44.32343186774647" lon="8.427139224258104"><ele>155.0</ele><time>2026-04-05T13:47:04Z</time></trkpt><trkpt lat="44.32349996580112" lon="8.426990380308807"><ele>156.0</ele><time>2026-04-05T13:47:05Z</time></trkpt><trkpt lat="44.32358378944233" lon="8.426857763274509"><ele>157.0</ele><time>2026-04-05T13:47:06Z</time></trkpt><trkpt lat="44.32367421717634" lon="8.426727501042313"><ele>158.0</ele><time>2026-04-05T13:47:07Z</time></trkpt><trkpt lat="44.323766776132736" lon="8.426586022455375"><ele>158.0</ele><time>2026-04-05T13:47:08Z</time></trkpt><trkpt lat="44.32385820446253" lon="8.426460216715817"><ele>158.0</ele><time>2026-04-05T13:47:09Z</time></trkpt><trkpt lat="44.3239514830646" lon="8.426317072381337"><ele>158.0</ele><time>2026-04-05T13:47:10Z</time></trkpt><trkpt lat="44.32404369961997" lon="8.426175482346906"><ele>158.0</ele><time>2026-04-05T13:47:11Z</time></trkpt><trkpt lat="44.32413273652737" lon="8.426036700564437"><ele>158.0</ele><time>2026-04-05T13:47:12Z</time></trkpt><trkpt lat="44.32421894800171" lon="8.425890731598438"><ele>158.0</ele><time>2026-04-05T13:47:13Z</time></trkpt><trkpt lat="44.32428573883548" lon="8.42572526538512"><ele>158.0</ele><time>2026-04-05T13:47:14Z</time></trkpt><trkpt lat="44.32435432468088" lon="8.42556293466514"><ele>158.0</ele><time>2026-04-05T13:47:15Z</time></trkpt><trkpt lat="44.32440184327844" lon="8.425389810963047"><ele>158.25</ele><time>2026-04-05T13:47:16Z</time></trkpt><trkpt lat="44.3244268791016" lon="8.425201626646139"><ele>158.5</ele><time>2026-04-05T13:47:17Z</time></trkpt><trkpt lat="44.32443293795958" lon="8.425014142141"><ele>158.75</ele><time>2026-04-05T13:47:18Z</time></trkpt><trkpt lat="44.32443772972013" lon="8.42483001016347"><ele>159.0</ele><time>2026-04-05T13:47:19Z</time></trkpt><trkpt lat="44.32444594254441" lon="8.424648185249678"><ele>159.0</ele><time>2026-04-05T13:47:20Z</time></trkpt><trkpt lat="44.32445458433258" lon="8.424486473230903"><ele>159.0</ele><time>2026-04-05T13:47:21Z</time></trkpt><trkpt lat="44.324465243794045" lon="8.424325256797845"><ele>159.0</ele><time>2026-04-05T13:47:22Z</time></trkpt><trkpt lat="44.32447032805372" lon="8.424164219371319"><ele>159.0</ele><time>2026-04-05T13:47:23Z</time></trkpt><trkpt lat="44.32448187219006" lon="8.424007672397567"><ele>159.0</ele><time>2026-04-05T13:47:24Z</time></trkpt><trkpt lat="44.324520770117864" lon="8.423850345589248"><ele>159.0</ele><time>2026-04-05T13:47:25Z</time></trkpt><trkpt lat="44.32455615085831" lon="8.423679931827019"><ele>159.0</ele><time>2026-04-05T13:47:26Z</time></trkpt><trkpt lat="44.324622007436936" lon="8.423513326562619"><ele>159.0</ele><time>2026-04-05T13:47:27Z</time></trkpt><trkpt lat="44.32469126193861" lon="8.423340600135399"><ele>159.75</ele><time>2026-04-05T13:47:28Z</time></trkpt><trkpt lat="44.324750087523114" lon="8.42315314320339"><ele>160.5</ele><time>2026-04-05T13:47:29Z</time></trkpt><trkpt lat="44.324826797399645" lon="8.422976556974923"><ele>161.25</ele><time>2026-04-05T13:47:30Z</time></trkpt><trkpt lat="44.32490486781033" lon="8.422793123727926"><ele>162.0</ele><time>2026-04-05T13:47:31Z</time></trkpt><trkpt lat="44.32498302496933" lon="8.422610931005586"><ele>162.0</ele><time>2026-04-05T13:47:32Z</time></trkpt><trkpt lat="44.32504888567128" lon="8.422445357741754"><ele>162.0</ele><time>2026-04-05T13:47:33Z</time></trkpt><trkpt lat="44.32511133397276" lon="8.42228770997686"><ele>162.0</ele><time>2026-04-05T13:47:34Z</time></trkpt><trkpt lat="44.32519094123906" lon="8.422130732106403"><ele>162.0</ele><time>2026-04-05T13:47:35Z</time></trkpt><trkpt lat="44.32523125861763" lon="8.421949286996803"><ele>162.75</ele><time>2026-04-05T13:47:36Z</time></trkpt><trkpt lat="44.32528071477013" lon="8.42176982310315"><ele>163.5</ele><time>2026-04-05T13:47:37Z</time></trkpt><trkpt lat="44.32533957008864" lon="8.421595695304108"><ele>164.25</ele><time>2026-04-05T13:47:38Z</time></trkpt><trkpt lat="44.325383012582975" lon="8.421423011131548"><ele>165.0</ele><time>2026-04-05T13:47:39Z</time></trkpt><trkpt lat="44.3254214464194" lon="8.421269791405598"><ele>166.25</ele><time>2026-04-05T13:47:40Z</time></trkpt><trkpt lat="44.32544415133445" lon="8.421114706648925"><ele>167.5</ele><time>2026-04-05T13:47:41Z</time></trkpt><trkpt lat="44.3254833711231" lon="8.420970148368957"><ele>168.75</ele><time>2026-04-05T13:47:42Z</time></trkpt><trkpt lat="44.325522543652454" lon="8.420810250063516"><ele>170.0</ele><time>2026-04-05T13:47:43Z</time></trkpt><trkpt lat="44.32556351768788" lon="8.420644558669249"><ele>173.25</ele><time>2026-04-05T13:47:44Z</time></trkpt><trkpt lat="44.325614512773086" lon="8.420483714011462"><ele>176.5</ele><time>2026-04-05T13:47:45Z</time></trkpt><trkpt lat="44.32561825073344" lon="8.420304764520026"><ele>179.75</ele><time>2026-04-05T13:47:45.999Z</time></trkpt><trkpt lat="44.325618090422594" lon="8.42013738445202"><ele>183.0</ele><time>2026-04-05T13:47:46.999Z</time></trkpt><trkpt lat="44.325607539973014" lon="8.41997521019447"><ele>183.8</ele><time>2026-04-05T13:47:47.999Z</time></trkpt><trkpt lat="44.32559470853847" lon="8.419822795117627"><ele>184.60000000000002</ele><time>2026-04-05T13:47:48.999Z</time></trkpt><trkpt lat="44.32558552968392" lon="8.419669394189329"><ele>185.39999999999998</ele><time>2026-04-05T13:47:49.999Z</time></trkpt><trkpt lat="44.32557919310758" lon="8.419518591223133"><ele>186.2</ele><time>2026-04-05T13:47:50.999Z</time></trkpt><trkpt lat="44.32556528333409" lon="8.41937190629863"><ele>187.0</ele><time>2026-04-05T13:47:51.999Z</time></trkpt><trkpt lat="44.32553919462427" lon="8.41922810997638"><ele>184.2</ele><time>2026-04-05T13:47:52.999Z</time></trkpt><trkpt lat="44.325493587326484" lon="8.419087146213169"><ele>181.39999999999998</ele><time>2026-04-05T13:47:53.999Z</time></trkpt><trkpt lat="44.32542480359642" lon="8.4189600258805"><ele>178.60000000000002</ele><time>2026-04-05T13:47:54.999Z</time></trkpt><trkpt lat="44.325357823727515" lon="8.418843504488542"><ele>175.8</ele><time>2026-04-05T13:47:55.999Z</time></trkpt><trkpt lat="44.32529558022305" lon="8.418726902461948"><ele>173.0</ele><time>2026-04-05T13:47:56.999Z</time></trkpt><trkpt lat="44.32524538122451" lon="8.418604983709983"><ele>173.0</ele><time>2026-04-05T13:47:57.999Z</time></trkpt><trkpt lat="44.32520766453834" lon="8.418464835988672"><ele>173.0</ele><time>2026-04-05T13:47:58.999Z</time></trkpt><trkpt lat="44.32518583626087" lon="8.418327060536175"><ele>173.0</ele><time>2026-04-05T13:47:59.999Z</time></trkpt><trkpt lat="44.325170683207205" lon="8.418187591716762"><ele>173.0</ele><time>2026-04-05T13:48:00.999Z</time></trkpt><trkpt lat="44.32515246461151" lon="8.418044354108309"><ele>173.0</ele><time>2026-04-05T13:48:01.999Z</time></trkpt><trkpt lat="44.325145735002124" lon="8.417903264294464"><ele>173.60000000000002</ele><time>2026-04-05T13:48:02.999Z</time></trkpt><trkpt lat="44.32515730704224" lon="8.417768752013968"><ele>174.20000000000002</ele><time>2026-04-05T13:48:03.999Z</time></trkpt><trkpt lat="44.325182422499246" lon="8.417640559213616"><ele>174.8</ele><time>2026-04-05T13:48:04.999Z</time></trkpt><trkpt lat="44.32524602930601" lon="8.417540841607716"><ele>175.4</ele><time>2026-04-05T13:48:05.999Z</time></trkpt><trkpt lat="44.32532490311442" lon="8.417477718900695"><ele>176.0</ele><time>2026-04-05T13:48:06.999Z</time></trkpt><trkpt lat="44.32543242289278" lon="8.417466029130928"><ele>176.0</ele><time>2026-04-05T13:48:07.999Z</time></trkpt><trkpt lat="44.32551798511002" lon="8.417415171115014"><ele>176.0</ele><time>2026-04-05T13:48:08.999Z</time></trkpt><trkpt lat="44.325596541686444" lon="8.417330000816696"><ele>176.0</ele><time>2026-04-05T13:48:09.999Z</time></trkpt><trkpt lat="44.32567486809193" lon="8.417244760591338"><ele>176.0</ele><time>2026-04-05T13:48:10.999Z</time></trkpt><trkpt lat="44.32574419945982" lon="8.417137761774914"><ele>176.0</ele><time>2026-04-05T13:48:11.999Z</time></trkpt><trkpt lat="44.32581359405832" lon="8.41702935738046"><ele>178.0</ele><time>2026-04-05T13:48:12.999Z</time></trkpt><trkpt lat="44.32582546637869" lon="8.416882695629427"><ele>180.0</ele><time>2026-04-05T13:48:13.999Z</time></trkpt><trkpt lat="44.32584181677056" lon="8.416741310619352"><ele>182.0</ele><time>2026-04-05T13:48:14.999Z</time></trkpt><trkpt lat="44.325879318855606" lon="8.416604396785768"><ele>184.0</ele><time>2026-04-05T13:48:15.999Z</time></trkpt><trkpt lat="44.32590132532237" lon="8.416469268733108"><ele>186.0</ele><time>2026-04-05T13:48:16.999Z</time></trkpt><trkpt lat="44.32592417417612" lon="8.416336243889518"><ele>184.75</ele><time>2026-04-05T13:48:17.999Z</time></trkpt><trkpt lat="44.32595107038533" lon="8.416179655585154"><ele>183.5</ele><time>2026-04-05T13:48:18.999Z</time></trkpt><trkpt lat="44.325982775070045" lon="8.415995072637655"><ele>182.25</ele><time>2026-04-05T13:48:19.999Z</time></trkpt><trkpt lat="44.32601653271978" lon="8.415798537392222"><ele>181.0</ele><time>2026-04-05T13:48:20.999Z</time></trkpt><trkpt lat="44.32605179945387" lon="8.415593218457857"><ele>180.66666666666669</ele><time>2026-04-05T13:48:21.999Z</time></trkpt><trkpt lat="44.3260723979843" lon="8.415370571614307"><ele>180.33333333333334</ele><time>2026-04-05T13:48:22.999Z</time></trkpt><trkpt lat="44.32612313817613" lon="8.41516263620592"><ele>180.0</ele><time>2026-04-05T13:48:23.999Z</time></trkpt><trkpt lat="44.32615809859562" lon="8.414952429264172"><ele>180.0</ele><time>2026-04-05T13:48:24.999Z</time></trkpt><trkpt lat="44.326192771810845" lon="8.414743950892149"><ele>180.0</ele><time>2026-04-05T13:48:25.999Z</time></trkpt><trkpt lat="44.32622440383832" lon="8.414543413796121"><ele>180.0</ele><time>2026-04-05T13:48:26.999Z</time></trkpt><trkpt lat="44.326242453699116" lon="8.414364218844751"><ele>180.0</ele><time>2026-04-05T13:48:27.999Z</time></trkpt><trkpt lat="44.326275035841064" lon="8.414196352433548"><ele>181.75</ele><time>2026-04-05T13:48:28.999Z</time></trkpt><trkpt lat="44.3263310375629" lon="8.414044458948638"><ele>183.5</ele><time>2026-04-05T13:48:29.999Z</time></trkpt><trkpt lat="44.32639252477829" lon="8.413901734449984"><ele>185.25</ele><time>2026-04-05T13:48:30.999Z</time></trkpt><trkpt lat="44.32647352243998" lon="8.413780468257507"><ele>187.0</ele><time>2026-04-05T13:48:31.999Z</time></trkpt><trkpt lat="44.32657142101534" lon="8.41367962631307"><ele>187.5</ele><time>2026-04-05T13:48:32.999Z</time></trkpt><trkpt lat="44.32666522943319" lon="8.413568178549616"><ele>188.0</ele><time>2026-04-05T13:48:33.999Z</time></trkpt><trkpt lat="44.32676454516923" lon="8.413477638333726"><ele>188.5</ele><time>2026-04-05T13:48:34.999Z</time></trkpt><trkpt lat="44.32685115822653" lon="8.41336788533032"><ele>189.0</ele><time>2026-04-05T13:48:35.999Z</time></trkpt><trkpt lat="44.3269215466936" lon="8.413227735281817"><ele>189.0</ele><time>2026-04-05T13:48:36.999Z</time></trkpt><trkpt lat="44.32696955213878" lon="8.413071372611654"><ele>189.0</ele><time>2026-04-05T13:48:37.999Z</time></trkpt><trkpt lat="44.32700201027825" lon="8.41293042064731"><ele>189.0</ele><time>2026-04-05T13:48:38.999Z</time></trkpt><trkpt lat="44.327055751001176" lon="8.412815438125277"><ele>189.0</ele><time>2026-04-05T13:48:39.999Z</time></trkpt><trkpt lat="44.32711919791648" lon="8.412712027133988"><ele>189.0</ele><time>2026-04-05T13:48:40.999Z</time></trkpt><trkpt lat="44.327211728798204" lon="8.41263529962276"><ele>190.2</ele><time>2026-04-05T13:48:41.999Z</time></trkpt><trkpt lat="44.32731218420526" lon="8.41259312394752"><ele>191.39999999999998</ele><time>2026-04-05T13:48:42.999Z</time></trkpt><trkpt lat="44.327414803981654" lon="8.412544624670993"><ele>192.6</ele><time>2026-04-05T13:48:43.999Z</time></trkpt><trkpt lat="44.32750371783515" lon="8.412473193098862"><ele>193.8</ele><time>2026-04-05T13:48:44.999Z</time></trkpt><trkpt lat="44.327593181641234" lon="8.412392556499213"><ele>195.0</ele><time>2026-04-05T13:48:45.999Z</time></trkpt><trkpt lat="44.32769061147385" lon="8.41231055192909"><ele>195.0</ele><time>2026-04-05T13:48:46.999Z</time></trkpt><trkpt lat="44.32777903555071" lon="8.412216416391415"><ele>195.0</ele><time>2026-04-05T13:48:47.999Z</time></trkpt><trkpt lat="44.327861068834856" lon="8.412100987209943"><ele>195.0</ele><time>2026-04-05T13:48:48.999Z</time></trkpt><trkpt lat="44.32795254379979" lon="8.412002805562945"><ele>195.0</ele><time>2026-04-05T13:48:49.999Z</time></trkpt><trkpt lat="44.328057044718484" lon="8.411924048557893"><ele>196.0</ele><time>2026-04-05T13:48:50.999Z</time></trkpt><trkpt lat="44.32815358089486" lon="8.4118306458012"><ele>197.0</ele><time>2026-04-05T13:48:51.999Z</time></trkpt><trkpt lat="44.32825157212473" lon="8.411741893075387"><ele>198.0</ele><time>2026-04-05T13:48:52.999Z</time></trkpt><trkpt lat="44.32835362681612" lon="8.411668223657424"><ele>199.0</ele><time>2026-04-05T13:48:53.999Z</time></trkpt><trkpt lat="44.3284624818383" lon="8.411620802522904"><ele>199.0</ele><time>2026-04-05T13:48:54.999Z</time></trkpt><trkpt lat="44.328572540961986" lon="8.411572994835193"><ele>199.0</ele><time>2026-04-05T13:48:55.999Z</time></trkpt><trkpt lat="44.3286758788569" lon="8.411514944058778"><ele>199.0</ele><time>2026-04-05T13:48:56.999Z</time></trkpt><trkpt lat="44.32877012987764" lon="8.411459098387805"><ele>199.0</ele><time>2026-04-05T13:48:57.999Z</time></trkpt><trkpt lat="44.32885134796315" lon="8.411378841157742"><ele>199.0</ele><time>2026-04-05T13:48:58.999Z</time></trkpt><trkpt lat="44.328919067833134" lon="8.411271514963158"><ele>199.0</ele><time>2026-04-05T13:48:59.999Z</time></trkpt><trkpt lat="44.32896255160514" lon="8.41114001083966"><ele>199.0</ele><time>2026-04-05T13:49:00.999Z</time></trkpt><trkpt lat="44.328964640442635" lon="8.410987676960744"><ele>199.0</ele><time>2026-04-05T13:49:01.999Z</time></trkpt><trkpt lat="44.3289226398924" lon="8.410833325008051"><ele>199.0</ele><time>2026-04-05T13:49:02.999Z</time></trkpt><trkpt lat="44.328843582858745" lon="8.410703564703976"><ele>199.0</ele><time>2026-04-05T13:49:03.999Z</time></trkpt><trkpt lat="44.32876288455302" lon="8.410595013417778"><ele>199.0</ele><time>2026-04-05T13:49:04.999Z</time></trkpt><trkpt lat="44.32869488831759" lon="8.410487580954996"><ele>199.0</ele><time>2026-04-05T13:49:05.999Z</time></trkpt><trkpt lat="44.32863408946974" lon="8.41037600342149"><ele>199.0</ele><time>2026-04-05T13:49:06.999Z</time></trkpt><trkpt lat="44.328578510030646" lon="8.410265213603566"><ele>199.0</ele><time>2026-04-05T13:49:07.999Z</time></trkpt><trkpt lat="44.328521959143984" lon="8.41014906280673"><ele>201.39999999999998</ele><time>2026-04-05T13:49:08.999Z</time></trkpt><trkpt lat="44.32846963799553" lon="8.410032438124702"><ele>203.8</ele><time>2026-04-05T13:49:09.999Z</time></trkpt><trkpt lat="44.32843551894524" lon="8.409913490104987"><ele>206.2</ele><time>2026-04-05T13:49:10.999Z</time></trkpt><trkpt lat="44.32842547415128" lon="8.40979378739897"><ele>208.60000000000002</ele><time>2026-04-05T13:49:11.999Z</time></trkpt><trkpt lat="44.328466670327586" lon="8.409683127018772"><ele>211.0</ele><time>2026-04-05T13:49:12.999Z</time></trkpt><trkpt lat="44.32849534628699" lon="8.409561262833233"><ele>212.0</ele><time>2026-04-05T13:49:13.999Z</time></trkpt><trkpt lat="44.32853115529663" lon="8.409439556044154"><ele>213.0</ele><time>2026-04-05T13:49:14.999Z</time></trkpt><trkpt lat="44.3285682311173" lon="8.409312127316905"><ele>214.0</ele><time>2026-04-05T13:49:15.999Z</time></trkpt><trkpt lat="44.32861681319892" lon="8.409112856138877"><ele>215.0</ele><time>2026-04-05T13:49:16.999Z</time></trkpt><trkpt lat="44.328616916779104" lon="8.408872117039062"><ele>215.5</ele><time>2026-04-05T13:49:17.999Z</time></trkpt><trkpt lat="44.328617791006096" lon="8.408631667681075"><ele>216.0</ele><time>2026-04-05T13:49:18.999Z</time></trkpt><trkpt lat="44.328598143412194" lon="8.408431841870952"><ele>216.5</ele><time>2026-04-05T13:49:19.999Z</time></trkpt><trkpt lat="44.328624856808005" lon="8.408262612546668"><ele>217.0</ele><time>2026-04-05T13:49:20.999Z</time></trkpt><trkpt lat="44.32864807631674" lon="8.408110258706897"><ele>220.33333333333331</ele><time>2026-04-05T13:49:21.999Z</time></trkpt><trkpt lat="44.328767365298454" lon="8.407983992769047"><ele>223.66666666666669</ele><time>2026-04-05T13:49:22.999Z</time></trkpt><trkpt lat="44.32888724093131" lon="8.40786895785489"><ele>227.0</ele><time>2026-04-05T13:49:23.999Z</time></trkpt><trkpt lat="44.32901194508329" lon="8.407739602949322"><ele>227.0</ele><time>2026-04-05T13:49:24.999Z</time></trkpt><trkpt lat="44.32913201702266" lon="8.407620699646046"><ele>227.0</ele><time>2026-04-05T13:49:25.999Z</time></trkpt><trkpt lat="44.329229929505544" lon="8.407454001363876"><ele>227.0</ele><time>2026-04-05T13:49:26.999Z</time></trkpt><trkpt lat="44.3293038872345" lon="8.407230073868423"><ele>228.75</ele><time>2026-04-05T13:49:27.999Z</time></trkpt><trkpt lat="44.329340432149834" lon="8.40699923607408"><ele>230.5</ele><time>2026-04-05T13:49:28.999Z</time></trkpt><trkpt lat="44.32936107273157" lon="8.40680006324244"><ele>232.25</ele><time>2026-04-05T13:49:30Z</time></trkpt><trkpt lat="44.32941356864515" lon="8.4066705301959"><ele>234.0</ele><time>2026-04-05T13:49:31Z</time></trkpt><trkpt lat="44.32950466459701" lon="8.40660085164534"><ele>234.0</ele><time>2026-04-05T13:49:32Z</time></trkpt><trkpt lat="44.32962241083534" lon="8.406589793353138"><ele>234.0</ele><time>2026-04-05T13:49:33Z</time></trkpt><trkpt lat="44.329761476256195" lon="8.406633149763941"><ele>234.0</ele><time>2026-04-05T13:49:34Z</time></trkpt><trkpt lat="44.329924513380774" lon="8.406683556173418"><ele>234.0</ele><time>2026-04-05T13:49:35Z</time></trkpt><trkpt lat="44.330058354930586" lon="8.406704535739536"><ele>235.0</ele><time>2026-04-05T13:49:36Z</time></trkpt><trkpt lat="44.330169381713496" lon="8.406663115781473"><ele>236.0</ele><time>2026-04-05T13:49:37Z</time></trkpt><trkpt lat="44.330274377196055" lon="8.406528065130791"><ele>237.0</ele><time>2026-04-05T13:49:38Z</time></trkpt><trkpt lat="44.33035650607489" lon="8.406319243962047"><ele>238.0</ele><time>2026-04-05T13:49:39Z</time></trkpt><trkpt lat="44.330432638871194" lon="8.40607836028767"><ele>238.0</ele><time>2026-04-05T13:49:40Z</time></trkpt><trkpt lat="44.330548900176986" lon="8.405850797982474"><ele>238.0</ele><time>2026-04-05T13:49:41Z</time></trkpt><trkpt lat="44.33065163326486" lon="8.405585594507276"><ele>238.0</ele><time>2026-04-05T13:49:42Z</time></trkpt><trkpt lat="44.330774337764474" lon="8.405314413149057"><ele>235.5</ele><time>2026-04-05T13:49:43Z</time></trkpt><trkpt lat="44.330907186559365" lon="8.40504933372986"><ele>233.0</ele><time>2026-04-05T13:49:44Z</time></trkpt><trkpt lat="44.331034561089794" lon="8.40476373637111"><ele>236.0</ele><time>2026-04-05T13:49:45Z</time></trkpt><trkpt lat="44.33116024436208" lon="8.404481911082275"><ele>239.0</ele><time>2026-04-05T13:49:46Z</time></trkpt><trkpt lat="44.33127997840785" lon="8.40421346590007"><ele>238.33333333333334</ele><time>2026-04-05T13:49:47Z</time></trkpt><trkpt lat="44.331394169738005" lon="8.403958644832846"><ele>237.66666666666669</ele><time>2026-04-05T13:49:48Z</time></trkpt><trkpt lat="44.33149896880524" lon="8.403682795562517"><ele>237.0</ele><time>2026-04-05T13:49:49Z</time></trkpt><trkpt lat="44.33163293512303" lon="8.403424881866684"><ele>236.0</ele><time>2026-04-05T13:49:50Z</time></trkpt><trkpt lat="44.331741957485164" lon="8.403179865396524"><ele>235.0</ele><time>2026-04-05T13:49:51Z</time></trkpt><trkpt lat="44.33182052789455" lon="8.402952913370438"><ele>234.0</ele><time>2026-04-05T13:49:52Z</time></trkpt><trkpt lat="44.33189573393012" lon="8.402749839409276"><ele>236.0</ele><time>2026-04-05T13:49:53Z</time></trkpt><trkpt lat="44.33194640774805" lon="8.402506043291588"><ele>238.0</ele><time>2026-04-05T13:49:54Z</time></trkpt><trkpt lat="44.33195192333712" lon="8.402229744878277"><ele>240.0</ele><time>2026-04-05T13:49:55Z</time></trkpt><trkpt lat="44.33191127018283" lon="8.401958824127497"><ele>240.66666666666669</ele><time>2026-04-05T13:49:56Z</time></trkpt><trkpt lat="44.331827068259585" lon="8.40169994175837"><ele>241.33333333333334</ele><time>2026-04-05T13:49:57Z</time></trkpt><trkpt lat="44.33169518117349" lon="8.401446645367763"><ele>242.0</ele><time>2026-04-05T13:49:58Z</time></trkpt><trkpt lat="44.331543376435924" lon="8.40119883781589"><ele>249.5</ele><time>2026-04-05T13:49:59Z</time></trkpt><trkpt lat="44.33138761374652" lon="8.400946691565915"><ele>257.0</ele><time>2026-04-05T13:50:00Z</time></trkpt><trkpt lat="44.33124357853915" lon="8.400716291772644"><ele>257.0</ele><time>2026-04-05T13:50:01Z</time></trkpt><trkpt lat="44.331114131636994" lon="8.400506375957438"><ele>257.0</ele><time>2026-04-05T13:50:02Z</time></trkpt><trkpt lat="44.33099677890528" lon="8.400311374784735"><ele>257.0</ele><time>2026-04-05T13:50:03Z</time></trkpt><trkpt lat="44.33089457860014" lon="8.400130518134695"><ele>256.75</ele><time>2026-04-05T13:50:04Z</time></trkpt><trkpt lat="44.33081637681677" lon="8.39996506952014"><ele>256.5</ele><time>2026-04-05T13:50:05Z</time></trkpt><trkpt lat="44.33077205362498" lon="8.399789700921772"><ele>256.25</ele><time>2026-04-05T13:50:06Z</time></trkpt><trkpt lat="44.330748247056626" lon="8.399576283161556"><ele>256.0</ele><time>2026-04-05T13:50:07Z</time></trkpt><trkpt lat="44.33072899959724" lon="8.399336347090795"><ele>256.0</ele><time>2026-04-05T13:50:08Z</time></trkpt><trkpt lat="44.33071649620968" lon="8.399079419149622"><ele>256.0</ele><time>2026-04-05T13:50:09Z</time></trkpt><trkpt lat="44.330732942484" lon="8.398811530359652"><ele>256.0</ele><time>2026-04-05T13:50:10Z</time></trkpt><trkpt lat="44.330787245237865" lon="8.39856792737379"><ele>257.0</ele><time>2026-04-05T13:50:11Z</time></trkpt><trkpt lat="44.330807021686724" lon="8.398359153153297"><ele>258.0</ele><time>2026-04-05T13:50:12Z</time></trkpt><trkpt lat="44.330851215813546" lon="8.398188008419837"><ele>259.0</ele><time>2026-04-05T13:50:13Z</time></trkpt><trkpt lat="44.33093533148993" lon="8.398032464044157"><ele>260.0</ele><time>2026-04-05T13:50:14Z</time></trkpt><trkpt lat="44.331078240059696" lon="8.397934321120129"><ele>262.0</ele><time>2026-04-05T13:50:15Z</time></trkpt><trkpt lat="44.33121504550398" lon="8.397802368424397"><ele>264.0</ele><time>2026-04-05T13:50:16Z</time></trkpt><trkpt lat="44.33133868866311" lon="8.397641936048014"><ele>266.0</ele><time>2026-04-05T13:50:17Z</time></trkpt><trkpt lat="44.331417907596325" lon="8.397414540037962"><ele>267.0</ele><time>2026-04-05T13:50:18Z</time></trkpt><trkpt lat="44.33146280950219" lon="8.397174048041146"><ele>268.0</ele><time>2026-04-05T13:50:19Z</time></trkpt><trkpt lat="44.331474421058495" lon="8.396929997870103"><ele>269.0</ele><time>2026-04-05T13:50:20Z</time></trkpt><trkpt lat="44.33143799836827" lon="8.396699268278882"><ele>268.6666666666667</ele><time>2026-04-05T13:50:21Z</time></trkpt><trkpt lat="44.33134637488481" lon="8.396503959540413"><ele>268.3333333333333</ele><time>2026-04-05T13:50:22Z</time></trkpt><trkpt lat="44.33120973269284" lon="8.396348926364338"><ele>268.0</ele><time>2026-04-05T13:50:23Z</time></trkpt><trkpt lat="44.3310536216102" lon="8.396238067552021"><ele>269.25</ele><time>2026-04-05T13:50:24Z</time></trkpt><trkpt lat="44.33093030000344" lon="8.396134397211508"><ele>270.5</ele><time>2026-04-05T13:50:25Z</time></trkpt><trkpt lat="44.33085023718893" lon="8.396000506416083"><ele>271.75</ele><time>2026-04-05T13:50:26Z</time></trkpt><trkpt lat="44.330797835223926" lon="8.395822077353563"><ele>273.0</ele><time>2026-04-05T13:50:27Z</time></trkpt><trkpt lat="44.33077594532388" lon="8.395602546190197"><ele>274.6666666666667</ele><time>2026-04-05T13:50:28Z</time></trkpt><trkpt lat="44.330788010357125" lon="8.395389425259427"><ele>276.33333333333337</ele><time>2026-04-05T13:50:29Z</time></trkpt><trkpt lat="44.33083725848491" lon="8.395167010814985"><ele>278.0</ele><time>2026-04-05T13:50:30Z</time></trkpt><trkpt lat="44.33093727783395" lon="8.394956694088854"><ele>278.0</ele><time>2026-04-05T13:50:31Z</time></trkpt><trkpt lat="44.33103755080106" lon="8.39473056017309"><ele>278.0</ele><time>2026-04-05T13:50:32Z</time></trkpt><trkpt lat="44.33113706722053" lon="8.394484920286766"><ele>278.0</ele><time>2026-04-05T13:50:33Z</time></trkpt><trkpt lat="44.33123991441334" lon="8.394231946175514"><ele>279.33333333333337</ele><time>2026-04-05T13:50:34Z</time></trkpt><trkpt lat="44.33132301132271" lon="8.39394866381432"><ele>280.6666666666667</ele><time>2026-04-05T13:50:35Z</time></trkpt><trkpt lat="44.33138647506306" lon="8.393663685373651"><ele>282.0</ele><time>2026-04-05T13:50:36Z</time></trkpt><trkpt lat="44.331445562459834" lon="8.393370125513723"><ele>282.0</ele><time>2026-04-05T13:50:37Z</time></trkpt><trkpt lat="44.33150178641618" lon="8.393069488915435"><ele>282.0</ele><time>2026-04-05T13:50:38Z</time></trkpt><trkpt lat="44.33156009747922" lon="8.3927646570161"><ele>282.0</ele><time>2026-04-05T13:50:39Z</time></trkpt><trkpt lat="44.33162093414132" lon="8.392461791317109"><ele>283.3333333333333</ele><time>2026-04-05T13:50:40Z</time></trkpt><trkpt lat="44.331677394349" lon="8.39215660240836"><ele>284.66666666666663</ele><time>2026-04-05T13:50:41Z</time></trkpt><trkpt lat="44.331739526634465" lon="8.391856807373491"><ele>286.0</ele><time>2026-04-05T13:50:42Z</time></trkpt><trkpt lat="44.33180456225345" lon="8.391555417665653"><ele>286.5</ele><time>2026-04-05T13:50:43Z</time></trkpt><trkpt lat="44.33186353149804" lon="8.391250682506262"><ele>287.0</ele><time>2026-04-05T13:50:44Z</time></trkpt><trkpt lat="44.331921356104594" lon="8.390945110242534"><ele>287.0</ele><time>2026-04-05T13:50:45Z</time></trkpt><trkpt lat="44.33197894309064" lon="8.390636917928868"><ele>287.0</ele><time>2026-04-05T13:50:46Z</time></trkpt><trkpt lat="44.33203623494536" lon="8.390333167047778"><ele>288.33333333333337</ele><time>2026-04-05T13:50:47Z</time></trkpt><trkpt lat="44.3320917041043" lon="8.39002824242985"><ele>289.6666666666667</ele><time>2026-04-05T13:50:48Z</time></trkpt><trkpt lat="44.332143395490505" lon="8.38972966233827"><ele>291.0</ele><time>2026-04-05T13:50:49Z</time></trkpt><trkpt lat="44.332189954424166" lon="8.389436609741074"><ele>295.6666666666667</ele><time>2026-04-05T13:50:50Z</time></trkpt><trkpt lat="44.33223184103177" lon="8.389136555473762"><ele>300.33333333333337</ele><time>2026-04-05T13:50:51Z</time></trkpt><trkpt lat="44.33226667893066" lon="8.388839268604354"><ele>305.0</ele><time>2026-04-05T13:50:52Z</time></trkpt><trkpt lat="44.33229793237877" lon="8.388535553816693"><ele>307.33333333333337</ele><time>2026-04-05T13:50:53Z</time></trkpt><trkpt lat="44.33232576928679" lon="8.388228666791186"><ele>309.6666666666667</ele><time>2026-04-05T13:50:54Z</time></trkpt><trkpt lat="44.332349887502495" lon="8.38792026188709"><ele>312.0</ele><time>2026-04-05T13:50:55Z</time></trkpt><trkpt lat="44.332370193431906" lon="8.387606991616696"><ele>313.3333333333333</ele><time>2026-04-05T13:50:56Z</time></trkpt><trkpt lat="44.33239960436111" lon="8.38729811233026"><ele>314.66666666666663</ele><time>2026-04-05T13:50:57Z</time></trkpt><trkpt lat="44.33242865775476" lon="8.386986846658596"><ele>316.0</ele><time>2026-04-05T13:50:58Z</time></trkpt><trkpt lat="44.332445831930585" lon="8.386671593128103"><ele>316.66666666666663</ele><time>2026-04-05T13:50:59Z</time></trkpt><trkpt lat="44.332449445927956" lon="8.386369508505558"><ele>317.3333333333333</ele><time>2026-04-05T13:51:00Z</time></trkpt><trkpt lat="44.33244930029478" lon="8.386097410077426"><ele>318.0</ele><time>2026-04-05T13:51:01Z</time></trkpt><trkpt lat="44.33244584003412" lon="8.385834698304414"><ele>319.0</ele><time>2026-04-05T13:51:02Z</time></trkpt><trkpt lat="44.332437416968446" lon="8.385595620433584"><ele>320.0</ele><time>2026-04-05T13:51:03Z</time></trkpt><trkpt lat="44.33241197081851" lon="8.385382276005338"><ele>321.0</ele><time>2026-04-05T13:51:04Z</time></trkpt><trkpt lat="44.332379067767825" lon="8.385192738601626"><ele>321.0</ele><time>2026-04-05T13:51:05Z</time></trkpt><trkpt lat="44.332333554384924" lon="8.385017801661984"><ele>321.0</ele><time>2026-04-05T13:51:06Z</time></trkpt><trkpt lat="44.33227963149544" lon="8.384861145180315"><ele>321.0</ele><time>2026-04-05T13:51:07Z</time></trkpt><trkpt lat="44.33222180032132" lon="8.384720935732522"><ele>321.0</ele><time>2026-04-05T13:51:08Z</time></trkpt><trkpt lat="44.33216720895988" lon="8.384578281399486"><ele>321.0</ele><time>2026-04-05T13:51:09Z</time></trkpt><trkpt lat="44.3321212507317" lon="8.384425046368577"><ele>321.0</ele><time>2026-04-05T13:51:10Z</time></trkpt><trkpt lat="44.33208404425517" lon="8.384269727991379"><ele>321.0</ele><time>2026-04-05T13:51:11Z</time></trkpt><trkpt lat="44.33205313092377" lon="8.38411452608273"><ele>321.0</ele><time>2026-04-05T13:51:12Z</time></trkpt><trkpt lat="44.33202937518304" lon="8.383954808901832"><ele>321.0</ele><time>2026-04-05T13:51:13Z</time></trkpt><trkpt lat="44.332010737059264" lon="8.383805328596003"><ele>321.0</ele><time>2026-04-05T13:51:14Z</time></trkpt><trkpt lat="44.331999900188606" lon="8.383669054863361"><ele>321.0</ele><time>2026-04-05T13:51:15Z</time></trkpt><trkpt lat="44.33199344807216" lon="8.383519191635331"><ele>321.0</ele><time>2026-04-05T13:51:16Z</time></trkpt><trkpt lat="44.332003070114965" lon="8.38336047584082"><ele>321.0</ele><time>2026-04-05T13:51:17Z</time></trkpt><trkpt lat="44.33204423467056" lon="8.383208903353395"><ele>321.0</ele><time>2026-04-05T13:51:18Z</time></trkpt><trkpt lat="44.33207362670542" lon="8.383044465364796"><ele>321.0</ele><time>2026-04-05T13:51:19Z</time></trkpt><trkpt lat="44.33212386574057" lon="8.382885340999636"><ele>321.0</ele><time>2026-04-05T13:51:20Z</time></trkpt><trkpt lat="44.33218304761027" lon="8.3827317266033"><ele>321.0</ele><time>2026-04-05T13:51:21Z</time></trkpt><trkpt lat="44.33221516370588" lon="8.382572070723525"><ele>320.75</ele><time>2026-04-05T13:51:22Z</time></trkpt><trkpt lat="44.33220649887696" lon="8.382408608026347"><ele>320.5</ele><time>2026-04-05T13:51:23Z</time></trkpt><trkpt lat="44.33218685435353" lon="8.382237113621795"><ele>320.25</ele><time>2026-04-05T13:51:24Z</time></trkpt><trkpt lat="44.33218076055672" lon="8.382075345674437"><ele>320.0</ele><time>2026-04-05T13:51:25Z</time></trkpt><trkpt lat="44.33219464912755" lon="8.38194274454487"><ele>325.5</ele><time>2026-04-05T13:51:26Z</time></trkpt><trkpt lat="44.33222963425329" lon="8.381822576147675"><ele>331.0</ele><time>2026-04-05T13:51:27Z</time></trkpt><trkpt lat="44.33230104522137" lon="8.381724750615732"><ele>336.5</ele><time>2026-04-05T13:51:28Z</time></trkpt><trkpt lat="44.3324276738406" lon="8.381684987738069"><ele>342.0</ele><time>2026-04-05T13:51:29Z</time></trkpt><trkpt lat="44.33254900870806" lon="8.381621899387666"><ele>342.0</ele><time>2026-04-05T13:51:30Z</time></trkpt><trkpt lat="44.332679245456994" lon="8.381610101196168"><ele>342.0</ele><time>2026-04-05T13:51:31Z</time></trkpt><trkpt lat="44.3328014516218" lon="8.381618224294687"><ele>342.0</ele><time>2026-04-05T13:51:32Z</time></trkpt><trkpt lat="44.33292173125952" lon="8.381621073487473"><ele>342.0</ele><time>2026-04-05T13:51:33Z</time></trkpt><trkpt lat="44.33304327876861" lon="8.381568085788047"><ele>341.75</ele><time>2026-04-05T13:51:34Z</time></trkpt><trkpt lat="44.33314938422142" lon="8.381460823478935"><ele>341.5</ele><time>2026-04-05T13:51:35Z</time></trkpt><trkpt lat="44.33322730611198" lon="8.381310985905367"><ele>341.25</ele><time>2026-04-05T13:51:36Z</time></trkpt><trkpt lat="44.333293726380504" lon="8.381140423947468"><ele>341.0</ele><time>2026-04-05T13:51:37Z</time></trkpt><trkpt lat="44.333360169256046" lon="8.380964635004455"><ele>341.0</ele><time>2026-04-05T13:51:38Z</time></trkpt><trkpt lat="44.33342918023045" lon="8.380775518752344"><ele>341.0</ele><time>2026-04-05T13:51:39Z</time></trkpt><trkpt lat="44.333493402086184" lon="8.380592587947877"><ele>341.0</ele><time>2026-04-05T13:51:40Z</time></trkpt><trkpt lat="44.3335481769339" lon="8.38042263611772"><ele>341.0</ele><time>2026-04-05T13:51:41Z</time></trkpt><trkpt lat="44.33359912834764" lon="8.380270348776863"><ele>337.75</ele><time>2026-04-05T13:51:42Z</time></trkpt><trkpt lat="44.33365243946528" lon="8.380126458685197"><ele>334.5</ele><time>2026-04-05T13:51:43Z</time></trkpt><trkpt lat="44.33370648569232" lon="8.379989324414327"><ele>331.25</ele><time>2026-04-05T13:51:44Z</time></trkpt><trkpt lat="44.33376884589746" lon="8.379866071930161"><ele>328.0</ele><time>2026-04-05T13:51:45Z</time></trkpt><trkpt lat="44.333855901542336" lon="8.379762534948561"><ele>330.25</ele><time>2026-04-05T13:51:46Z</time></trkpt><trkpt lat="44.33397138351851" lon="8.37971608655356"><ele>332.5</ele><time>2026-04-05T13:51:47Z</time></trkpt><trkpt lat="44.33407732594339" lon="8.379644835973872"><ele>334.75</ele><time>2026-04-05T13:51:48Z</time></trkpt><trkpt lat="44.33418570606706" lon="8.379595366692051"><ele>337.0</ele><time>2026-04-05T13:51:49Z</time></trkpt><trkpt lat="44.33428548999706" lon="8.3795112141135"><ele>337.0</ele><time>2026-04-05T13:51:50Z</time></trkpt><trkpt lat="44.33437448446845" lon="8.379398802826934"><ele>337.0</ele><time>2026-04-05T13:51:51Z</time></trkpt><trkpt lat="44.33444648742728" lon="8.37926421751167"><ele>337.0</ele><time>2026-04-05T13:51:52Z</time></trkpt><trkpt lat="44.33450673141696" lon="8.379120434310854"><ele>337.0</ele><time>2026-04-05T13:51:53Z</time></trkpt><trkpt lat="44.33456356328557" lon="8.378971332172616"><ele>334.6</ele><time>2026-04-05T13:51:54Z</time></trkpt><trkpt lat="44.33461631963454" lon="8.378824244808701"><ele>332.20000000000005</ele><time>2026-04-05T13:51:55Z</time></trkpt><trkpt lat="44.33466153791198" lon="8.378684575886515"><ele>329.8</ele><time>2026-04-05T13:51:56Z</time></trkpt><trkpt lat="44.334690881282526" lon="8.378543958955774"><ele>327.4</ele><time>2026-04-05T13:51:57Z</time></trkpt><trkpt lat="44.33469504391066" lon="8.378397221521242"><ele>325.0</ele><time>2026-04-05T13:51:58Z</time></trkpt><trkpt lat="44.3346852882785" lon="8.37824874404247"><ele>325.0</ele><time>2026-04-05T13:51:59Z</time></trkpt><trkpt lat="44.33467024806371" lon="8.3781008311886"><ele>325.0</ele><time>2026-04-05T13:52:00Z</time></trkpt><trkpt lat="44.33464899291024" lon="8.37795405182352"><ele>325.0</ele><time>2026-04-05T13:52:01Z</time></trkpt><trkpt lat="44.33462921147918" lon="8.377802772092164"><ele>325.0</ele><time>2026-04-05T13:52:02Z</time></trkpt><trkpt lat="44.334610303275426" lon="8.377649550585796"><ele>325.0</ele><time>2026-04-05T13:52:03Z</time></trkpt><trkpt lat="44.334593082562556" lon="8.377497468810436"><ele>326.6</ele><time>2026-04-05T13:52:04Z</time></trkpt><trkpt lat="44.3345774085894" lon="8.377349308952029"><ele>328.2</ele><time>2026-04-05T13:52:05Z</time></trkpt><trkpt lat="44.33456559808314" lon="8.377210463288941"><ele>329.79999999999995</ele><time>2026-04-05T13:52:06Z</time></trkpt><trkpt lat="44.334558007581" lon="8.377069517684529"><ele>331.4</ele><time>2026-04-05T13:52:07Z</time></trkpt><trkpt lat="44.334548592614354" lon="8.376930984015255"><ele>333.0</ele><time>2026-04-05T13:52:08Z</time></trkpt><trkpt lat="44.334547863332006" lon="8.376793845408239"><ele>334.2</ele><time>2026-04-05T13:52:09Z</time></trkpt><trkpt lat="44.33459341526777" lon="8.376665538804788"><ele>335.4</ele><time>2026-04-05T13:52:10Z</time></trkpt><trkpt lat="44.33463512552599" lon="8.3765341231706"><ele>336.59999999999997</ele><time>2026-04-05T13:52:11Z</time></trkpt><trkpt lat="44.33467998840681" lon="8.37640902222338"><ele>337.79999999999995</ele><time>2026-04-05T13:52:12Z</time></trkpt><trkpt lat="44.33472510844895" lon="8.376267585332203"><ele>339.0</ele><time>2026-04-05T13:52:13Z</time></trkpt><trkpt lat="44.33476318028458" lon="8.376125167422284"><ele>341.2</ele><time>2026-04-05T13:52:14Z</time></trkpt><trkpt lat="44.33479639183136" lon="8.375984413041774"><ele>343.4</ele><time>2026-04-05T13:52:15Z</time></trkpt><trkpt lat="44.33482058120173" lon="8.375842639105901"><ele>345.6</ele><time>2026-04-05T13:52:16Z</time></trkpt><trkpt lat="44.33485518249593" lon="8.37570162402075"><ele>347.8</ele><time>2026-04-05T13:52:17Z</time></trkpt><trkpt lat="44.33488573271922" lon="8.375557478321497"><ele>350.0</ele><time>2026-04-05T13:52:18Z</time></trkpt><trkpt lat="44.33491512402915" lon="8.375415536433303"><ele>350.0</ele><time>2026-04-05T13:52:19Z</time></trkpt><trkpt lat="44.334943388254736" lon="8.375276755353251"><ele>350.0</ele><time>2026-04-05T13:52:20Z</time></trkpt><trkpt lat="44.334976302713045" lon="8.37513787994594"><ele>350.0</ele><time>2026-04-05T13:52:21Z</time></trkpt><trkpt lat="44.3349907128617" lon="8.3749934232744"><ele>350.0</ele><time>2026-04-05T13:52:22Z</time></trkpt><trkpt lat="44.33497827958527" lon="8.374838819157722"><ele>350.0</ele><time>2026-04-05T13:52:23Z</time></trkpt><trkpt lat="44.3349600574791" lon="8.37469556805847"><ele>350.2</ele><time>2026-04-05T13:52:24Z</time></trkpt><trkpt lat="44.334950828426045" lon="8.374552323788977"><ele>350.4</ele><time>2026-04-05T13:52:25Z</time></trkpt><trkpt lat="44.334962086067605" lon="8.374405748379008"><ele>350.6</ele><time>2026-04-05T13:52:26Z</time></trkpt><trkpt lat="44.335021657236524" lon="8.374294195093945"><ele>350.8</ele><time>2026-04-05T13:52:27Z</time></trkpt><trkpt lat="44.33509873663508" lon="8.374217043852736"><ele>351.0</ele><time>2026-04-05T13:52:28Z</time></trkpt><trkpt lat="44.335193234817176" lon="8.374166980798844"><ele>351.0</ele><time>2026-04-05T13:52:29Z</time></trkpt><trkpt lat="44.33529852974555" lon="8.37410662457725"><ele>351.0</ele><time>2026-04-05T13:52:30Z</time></trkpt><trkpt lat="44.33541041383342" lon="8.374160309887303"><ele>351.0</ele><time>2026-04-05T13:52:31Z</time></trkpt><trkpt lat="44.33550872992148" lon="8.37415982394097"><ele>351.0</ele><time>2026-04-05T13:52:32Z</time></trkpt><trkpt lat="44.33559553253189" lon="8.374126071116088"><ele>351.0</ele><time>2026-04-05T13:52:33Z</time></trkpt><trkpt lat="44.335686244154076" lon="8.374071496632281"><ele>349.8</ele><time>2026-04-05T13:52:34Z</time></trkpt><trkpt lat="44.33576513562487" lon="8.373971934126034"><ele>348.6</ele><time>2026-04-05T13:52:35Z</time></trkpt><trkpt lat="44.335823578509654" lon="8.373843577635972"><ele>347.4</ele><time>2026-04-05T13:52:36Z</time></trkpt><trkpt lat="44.335861596163475" lon="8.37369277837834"><ele>346.2</ele><time>2026-04-05T13:52:37Z</time></trkpt><trkpt lat="44.335875558012305" lon="8.373540772522977"><ele>345.0</ele><time>2026-04-05T13:52:38Z</time></trkpt><trkpt lat="44.33587364761513" lon="8.373388117530851"><ele>345.0</ele><time>2026-04-05T13:52:39Z</time></trkpt><trkpt lat="44.33587619383503" lon="8.37323667931289"><ele>345.0</ele><time>2026-04-05T13:52:40Z</time></trkpt><trkpt lat="44.33588240168771" lon="8.373094095157837"><ele>345.0</ele><time>2026-04-05T13:52:41Z</time></trkpt><trkpt lat="44.335893030192295" lon="8.37295162374077"><ele>345.0</ele><time>2026-04-05T13:52:42Z</time></trkpt><trkpt lat="44.33590371560118" lon="8.372807500862715"><ele>345.0</ele><time>2026-04-05T13:52:43Z</time></trkpt><trkpt lat="44.33592253679854" lon="8.372663339455432"><ele>344.0</ele><time>2026-04-05T13:52:44Z</time></trkpt><trkpt lat="44.335939225035105" lon="8.372517492508722"><ele>343.0</ele><time>2026-04-05T13:52:45Z</time></trkpt><trkpt lat="44.33595781449207" lon="8.372367384219215"><ele>342.0</ele><time>2026-04-05T13:52:46Z</time></trkpt><trkpt lat="44.33598027074341" lon="8.372219478786265"><ele>341.0</ele><time>2026-04-05T13:52:47Z</time></trkpt><trkpt lat="44.33600054387639" lon="8.37206846158643"><ele>340.0</ele><time>2026-04-05T13:52:48Z</time></trkpt><trkpt lat="44.33602871935933" lon="8.37192146292934"><ele>339.2</ele><time>2026-04-05T13:52:49Z</time></trkpt><trkpt lat="44.33606365075188" lon="8.37177580323858"><ele>338.4</ele><time>2026-04-05T13:52:50Z</time></trkpt><trkpt lat="44.336100024543754" lon="8.371632366823041"><ele>337.6</ele><time>2026-04-05T13:52:51Z</time></trkpt><trkpt lat="44.33614044637358" lon="8.371488686058749"><ele>336.8</ele><time>2026-04-05T13:52:52Z</time></trkpt><trkpt lat="44.33618155083529" lon="8.371340987950765"><ele>336.0</ele><time>2026-04-05T13:52:53Z</time></trkpt><trkpt lat="44.33623446257234" lon="8.371198940021639"><ele>337.0</ele><time>2026-04-05T13:52:54Z</time></trkpt><trkpt lat="44.33629784792313" lon="8.37105685910304"><ele>338.0</ele><time>2026-04-05T13:52:55Z</time></trkpt><trkpt lat="44.33636409777079" lon="8.370916406388401"><ele>339.0</ele><time>2026-04-05T13:52:56Z</time></trkpt><trkpt lat="44.33643146963984" lon="8.370777905512796"><ele>340.0</ele><time>2026-04-05T13:52:57Z</time></trkpt><trkpt lat="44.33650117433343" lon="8.370638064250087"><ele>341.5</ele><time>2026-04-05T13:52:58Z</time></trkpt><trkpt lat="44.33657262365006" lon="8.370497945585958"><ele>343.0</ele><time>2026-04-05T13:52:59Z</time></trkpt><trkpt lat="44.33664612575628" lon="8.370361575166305"><ele>344.5</ele><time>2026-04-05T13:53:00Z</time></trkpt><trkpt lat="44.33671359580158" lon="8.37022361253024"><ele>346.0</ele><time>2026-04-05T13:53:01Z</time></trkpt><trkpt lat="44.336768399426404" lon="8.370084021369241"><ele>346.0</ele><time>2026-04-05T13:53:02Z</time></trkpt><trkpt lat="44.33680158011557" lon="8.369929751832654"><ele>346.0</ele><time>2026-04-05T13:53:03Z</time></trkpt><trkpt lat="44.33680986114394" lon="8.369765030448528"><ele>346.0</ele><time>2026-04-05T13:53:04Z</time></trkpt><trkpt lat="44.33679190389926" lon="8.369599538828567"><ele>346.0</ele><time>2026-04-05T13:53:05Z</time></trkpt><trkpt lat="44.336756275687584" lon="8.369438810218696"><ele>347.25</ele><time>2026-04-05T13:53:06Z</time></trkpt><trkpt lat="44.336703782924616" lon="8.369282092938459"><ele>348.5</ele><time>2026-04-05T13:53:07Z</time></trkpt><trkpt lat="44.336636428842425" lon="8.36913138924439"><ele>349.75</ele><time>2026-04-05T13:53:08Z</time></trkpt><trkpt lat="44.33656094738658" lon="8.368987132452881"><ele>351.0</ele><time>2026-04-05T13:53:09Z</time></trkpt><trkpt lat="44.336476280295244" lon="8.368860656144323"><ele>353.0</ele><time>2026-04-05T13:53:10Z</time></trkpt><trkpt lat="44.33637737702632" lon="8.368759854170163"><ele>355.0</ele><time>2026-04-05T13:53:11Z</time></trkpt><trkpt lat="44.336266287588124" lon="8.368684265706278"><ele>357.0</ele><time>2026-04-05T13:53:12Z</time></trkpt><trkpt lat="44.33615170783891" lon="8.368622280791632"><ele>359.0</ele><time>2026-04-05T13:53:13Z</time></trkpt><trkpt lat="44.336044466151925" lon="8.368552667369633"><ele>359.0</ele><time>2026-04-05T13:53:14Z</time></trkpt><trkpt lat="44.33594030319365" lon="8.368486477867084"><ele>359.0</ele><time>2026-04-05T13:53:15Z</time></trkpt><trkpt lat="44.335841889867744" lon="8.36840717557559"><ele>359.0</ele><time>2026-04-05T13:53:16Z</time></trkpt><trkpt lat="44.33575239197963" lon="8.36831701994509"><ele>359.0</ele><time>2026-04-05T13:53:17Z</time></trkpt><trkpt lat="44.33567039298195" lon="8.36820970997159"><ele>359.0</ele><time>2026-04-05T13:53:18Z</time></trkpt><trkpt lat="44.33559583472904" lon="8.368089477465622"><ele>359.0</ele><time>2026-04-05T13:53:19Z</time></trkpt><trkpt lat="44.33552486846628" lon="8.367959266041566"><ele>359.0</ele><time>2026-04-05T13:53:20Z</time></trkpt><trkpt lat="44.3354628150402" lon="8.367817759868975"><ele>359.0</ele><time>2026-04-05T13:53:21Z</time></trkpt><trkpt lat="44.335415587204324" lon="8.367665708376185"><ele>357.0</ele><time>2026-04-05T13:53:22Z</time></trkpt><trkpt lat="44.335381403708595" lon="8.36750181059911"><ele>355.0</ele><time>2026-04-05T13:53:23Z</time></trkpt><trkpt lat="44.33536078590834" lon="8.367331287204498"><ele>353.0</ele><time>2026-04-05T13:53:24Z</time></trkpt><trkpt lat="44.33535276363569" lon="8.36715564109525"><ele>351.0</ele><time>2026-04-05T13:53:25Z</time></trkpt><trkpt lat="44.33535475574331" lon="8.366977083762247"><ele>351.0</ele><time>2026-04-05T13:53:26Z</time></trkpt><trkpt lat="44.33536150535726" lon="8.366796717433338"><ele>351.0</ele><time>2026-04-05T13:53:27Z</time></trkpt><trkpt lat="44.33536406371937" lon="8.366615252354885"><ele>351.0</ele><time>2026-04-05T13:53:28Z</time></trkpt><trkpt lat="44.335366200049755" lon="8.366430034103217"><ele>351.0</ele><time>2026-04-05T13:53:29Z</time></trkpt><trkpt lat="44.335365523809415" lon="8.366245387299593"><ele>355.25</ele><time>2026-04-05T13:53:30Z</time></trkpt><trkpt lat="44.33534808155029" lon="8.366062384203248"><ele>359.5</ele><time>2026-04-05T13:53:31Z</time></trkpt><trkpt lat="44.33529697171527" lon="8.36588441776689"><ele>363.75</ele><time>2026-04-05T13:53:32Z</time></trkpt><trkpt lat="44.33521279787078" lon="8.365728215843488"><ele>368.0</ele><time>2026-04-05T13:53:33Z</time></trkpt><trkpt lat="44.33512299024791" lon="8.365578820869773"><ele>368.75</ele><time>2026-04-05T13:53:34Z</time></trkpt><trkpt lat="44.335047905114926" lon="8.365423109744704"><ele>369.5</ele><time>2026-04-05T13:53:35Z</time></trkpt><trkpt lat="44.33500797324606" lon="8.365250478287892"><ele>370.25</ele><time>2026-04-05T13:53:36Z</time></trkpt><trkpt lat="44.335005584189126" lon="8.36506146836743"><ele>371.0</ele><time>2026-04-05T13:53:37Z</time></trkpt><trkpt lat="44.335031618882454" lon="8.364862063237142"><ele>369.75</ele><time>2026-04-05T13:53:38Z</time></trkpt><trkpt lat="44.3350749159546" lon="8.36466403390441"><ele>368.5</ele><time>2026-04-05T13:53:39Z</time></trkpt><trkpt lat="44.335136485180165" lon="8.364472410042916"><ele>367.25</ele><time>2026-04-05T13:53:40Z</time></trkpt><trkpt lat="44.33519847944998" lon="8.3642845428121"><ele>366.0</ele><time>2026-04-05T13:53:41Z</time></trkpt><trkpt lat="44.33524839163491" lon="8.364102988790187"><ele>366.0</ele><time>2026-04-05T13:53:42Z</time></trkpt><trkpt lat="44.33529074836904" lon="8.363937301905585"><ele>366.0</ele><time>2026-04-05T13:53:43Z</time></trkpt><trkpt lat="44.335323198310746" lon="8.363779112161888"><ele>366.0</ele><time>2026-04-05T13:53:44Z</time></trkpt><trkpt lat="44.33531890086725" lon="8.363604548978364"><ele>366.0</ele><time>2026-04-05T13:53:45Z</time></trkpt><trkpt lat="44.33528038281347" lon="8.363417300767955"><ele>367.5</ele><time>2026-04-05T13:53:46Z</time></trkpt><trkpt lat="44.33523197431357" lon="8.363232614553183"><ele>369.0</ele><time>2026-04-05T13:53:47Z</time></trkpt><trkpt lat="44.33518474622423" lon="8.363051944416688"><ele>370.5</ele><time>2026-04-05T13:53:48Z</time></trkpt><trkpt lat="44.335135886643606" lon="8.362870606969526"><ele>372.0</ele><time>2026-04-05T13:53:49Z</time></trkpt><trkpt lat="44.33509011081183" lon="8.362691872799747"><ele>374.75</ele><time>2026-04-05T13:53:50Z</time></trkpt><trkpt lat="44.33504349817237" lon="8.362508945719068"><ele>377.5</ele><time>2026-04-05T13:53:51Z</time></trkpt><trkpt lat="44.33499803868857" lon="8.362325820374451"><ele>380.25</ele><time>2026-04-05T13:53:52Z</time></trkpt><trkpt lat="44.3349548570696" lon="8.362156421001869"><ele>383.0</ele><time>2026-04-05T13:53:53Z</time></trkpt><trkpt lat="44.33491432374989" lon="8.361993041361657"><ele>387.5</ele><time>2026-04-05T13:53:54Z</time></trkpt><trkpt lat="44.33487788904863" lon="8.361826269531345"><ele>392.0</ele><time>2026-04-05T13:53:55Z</time></trkpt><trkpt lat="44.33483274607851" lon="8.361660583981724"><ele>396.5</ele><time>2026-04-05T13:53:56Z</time></trkpt><trkpt lat="44.33478719158124" lon="8.36149327247401"><ele>401.0</ele><time>2026-04-05T13:53:57Z</time></trkpt><trkpt lat="44.33474275010157" lon="8.361324190259662"><ele>396.75</ele><time>2026-04-05T13:53:58Z</time></trkpt><trkpt lat="44.33470237115386" lon="8.361144412723108"><ele>392.5</ele><time>2026-04-05T13:53:59Z</time></trkpt><trkpt lat="44.33466295131148" lon="8.36096328710089"><ele>388.25</ele><time>2026-04-05T13:54:00Z</time></trkpt><trkpt lat="44.33463445827365" lon="8.360775322590285"><ele>384.0</ele><time>2026-04-05T13:54:01Z</time></trkpt><trkpt lat="44.33462546177385" lon="8.360583885043912"><ele>380.75</ele><time>2026-04-05T13:54:02Z</time></trkpt><trkpt lat="44.33463042367191" lon="8.360393287313004"><ele>377.5</ele><time>2026-04-05T13:54:03Z</time></trkpt><trkpt lat="44.33465015272201" lon="8.360205174457079"><ele>374.25</ele><time>2026-04-05T13:54:04Z</time></trkpt><trkpt lat="44.33468410682121" lon="8.360010749940972"><ele>371.0</ele><time>2026-04-05T13:54:05Z</time></trkpt><trkpt lat="44.334732270440284" lon="8.359822816905027"><ele>378.75</ele><time>2026-04-05T13:54:06Z</time></trkpt><trkpt lat="44.33478605326927" lon="8.359636957009402"><ele>386.5</ele><time>2026-04-05T13:54:07Z</time></trkpt><trkpt lat="44.33483913154267" lon="8.359451429326892"><ele>394.25</ele><time>2026-04-05T13:54:08Z</time></trkpt><trkpt lat="44.33489084652336" lon="8.359263509454957"><ele>402.0</ele><time>2026-04-05T13:54:09Z</time></trkpt><trkpt lat="44.33493757175185" lon="8.359074160183475"><ele>402.0</ele><time>2026-04-05T13:54:10Z</time></trkpt><trkpt lat="44.334984542819114" lon="8.358883039659029"><ele>402.0</ele><time>2026-04-05T13:54:11Z</time></trkpt><trkpt lat="44.33503101960625" lon="8.3586943665318"><ele>402.0</ele><time>2026-04-05T13:54:12Z</time></trkpt><trkpt lat="44.335079600947935" lon="8.358506669567074"><ele>402.0</ele><time>2026-04-05T13:54:13Z</time></trkpt><trkpt lat="44.33512702095801" lon="8.358313771604662"><ele>402.25</ele><time>2026-04-05T13:54:14Z</time></trkpt><trkpt lat="44.33517327037663" lon="8.358122289843429"><ele>402.5</ele><time>2026-04-05T13:54:15Z</time></trkpt><trkpt lat="44.33521622545155" lon="8.357933428255832"><ele>402.75</ele><time>2026-04-05T13:54:16Z</time></trkpt><trkpt lat="44.33525803558317" lon="8.357747046544457"><ele>403.0</ele><time>2026-04-05T13:54:17Z</time></trkpt><trkpt lat="44.33530314067272" lon="8.35756242848701"><ele>403.0</ele><time>2026-04-05T13:54:18Z</time></trkpt><trkpt lat="44.335345553966924" lon="8.357376905481726"><ele>403.0</ele><time>2026-04-05T13:54:19Z</time></trkpt><trkpt lat="44.33539058935921" lon="8.357198957158854"><ele>403.0</ele><time>2026-04-05T13:54:20Z</time></trkpt><trkpt lat="44.33543738358861" lon="8.35701151195269"><ele>403.0</ele><time>2026-04-05T13:54:21Z</time></trkpt><trkpt lat="44.33548682173041" lon="8.35682566855132"><ele>405.5</ele><time>2026-04-05T13:54:22Z</time></trkpt><trkpt lat="44.33553828482191" lon="8.356636662540081"><ele>408.0</ele><time>2026-04-05T13:54:23Z</time></trkpt><trkpt lat="44.33559266220192" lon="8.356441391074046"><ele>410.5</ele><time>2026-04-05T13:54:24Z</time></trkpt><trkpt lat="44.33564659442876" lon="8.35625335538739"><ele>413.0</ele><time>2026-04-05T13:54:25Z</time></trkpt><trkpt lat="44.33570416885391" lon="8.356059914211272"><ele>404.25</ele><time>2026-04-05T13:54:26Z</time></trkpt><trkpt lat="44.33576391535069" lon="8.355878004111643"><ele>395.5</ele><time>2026-04-05T13:54:27Z</time></trkpt><trkpt lat="44.335822981284956" lon="8.355690951174067"><ele>386.75</ele><time>2026-04-05T13:54:28Z</time></trkpt><trkpt lat="44.33588666337641" lon="8.355509866997616"><ele>378.0</ele><time>2026-04-05T13:54:29Z</time></trkpt><trkpt lat="44.3359493180387" lon="8.355325407135464"><ele>378.25</ele><time>2026-04-05T13:54:30Z</time></trkpt><trkpt lat="44.33601604672938" lon="8.35514541750962"><ele>378.5</ele><time>2026-04-05T13:54:31Z</time></trkpt><trkpt lat="44.33608356750018" lon="8.354968209202802"><ele>378.75</ele><time>2026-04-05T13:54:32Z</time></trkpt><trkpt lat="44.336154427259295" lon="8.354792615898635"><ele>379.0</ele><time>2026-04-05T13:54:33Z</time></trkpt><trkpt lat="44.336228453978535" lon="8.35461460207595"><ele>379.0</ele><time>2026-04-05T13:54:34Z</time></trkpt><trkpt lat="44.336304845570936" lon="8.354430662170664"><ele>379.0</ele><time>2026-04-05T13:54:35Z</time></trkpt><trkpt lat="44.33638604126468" lon="8.354246398593418"><ele>379.0</ele><time>2026-04-05T13:54:36Z</time></trkpt><trkpt lat="44.33646854179409" lon="8.35406634220191"><ele>383.3333333333333</ele><time>2026-04-05T13:54:37Z</time></trkpt><trkpt lat="44.33655873684498" lon="8.353881836514642"><ele>387.66666666666663</ele><time>2026-04-05T13:54:38Z</time></trkpt><trkpt lat="44.33664638770487" lon="8.353697813945205"><ele>392.0</ele><time>2026-04-05T13:54:39Z</time></trkpt><trkpt lat="44.33673311664589" lon="8.353514740731963"><ele>395.3333333333333</ele><time>2026-04-05T13:54:40Z</time></trkpt><trkpt lat="44.3368348522428" lon="8.35334846392005"><ele>398.66666666666663</ele><time>2026-04-05T13:54:41Z</time></trkpt><trkpt lat="44.336927323743076" lon="8.353170543695885"><ele>402.0</ele><time>2026-04-05T13:54:42Z</time></trkpt><trkpt lat="44.3370260614837" lon="8.353002956885497"><ele>406.0</ele><time>2026-04-05T13:54:43Z</time></trkpt><trkpt lat="44.33712347139373" lon="8.35283308954563"><ele>410.0</ele><time>2026-04-05T13:54:44Z</time></trkpt><trkpt lat="44.33721876855798" lon="8.35266987506583"><ele>414.0</ele><time>2026-04-05T13:54:45Z</time></trkpt><trkpt lat="44.33731898930105" lon="8.352505823450995"><ele>415.0</ele><time>2026-04-05T13:54:46Z</time></trkpt><trkpt lat="44.337425128955324" lon="8.352344422241073"><ele>416.0</ele><time>2026-04-05T13:54:47Z</time></trkpt><trkpt lat="44.33753106347209" lon="8.352187465662071"><ele>417.0</ele><time>2026-04-05T13:54:48Z</time></trkpt><trkpt lat="44.33763951557188" lon="8.352033260359823"><ele>420.0</ele><time>2026-04-05T13:54:49Z</time></trkpt><trkpt lat="44.33775094744887" lon="8.351877164977479"><ele>423.0</ele><time>2026-04-05T13:54:50Z</time></trkpt><trkpt lat="44.33786103300021" lon="8.351728514554885"><ele>426.0</ele><time>2026-04-05T13:54:51Z</time></trkpt><trkpt lat="44.3379749947956" lon="8.351571142290956"><ele>425.33333333333337</ele><time>2026-04-05T13:54:52Z</time></trkpt><trkpt lat="44.33809037137519" lon="8.351424023117021"><ele>424.6666666666667</ele><time>2026-04-05T13:54:53Z</time></trkpt><trkpt lat="44.338198337876015" lon="8.351269412116215"><ele>424.0</ele><time>2026-04-05T13:54:54Z</time></trkpt><trkpt lat="44.33831337174301" lon="8.351117027061758"><ele>424.0</ele><time>2026-04-05T13:54:55Z</time></trkpt><trkpt lat="44.33842670255398" lon="8.350968394004319"><ele>424.0</ele><time>2026-04-05T13:54:56Z</time></trkpt><trkpt lat="44.33853978655697" lon="8.350818880494561"><ele>424.0</ele><time>2026-04-05T13:54:57Z</time></trkpt><trkpt lat="44.33865531373912" lon="8.35066984557257"><ele>429.0</ele><time>2026-04-05T13:54:58Z</time></trkpt><trkpt lat="44.33876742388306" lon="8.350523447922189"><ele>434.0</ele><time>2026-04-05T13:54:59Z</time></trkpt><trkpt lat="44.338881373012825" lon="8.35037053605557"><ele>439.0</ele><time>2026-04-05T13:55:00Z</time></trkpt><trkpt lat="44.338993370201045" lon="8.350224839551126"><ele>439.6666666666667</ele><time>2026-04-05T13:55:01Z</time></trkpt><trkpt lat="44.339104754099615" lon="8.350077925933828"><ele>440.33333333333337</ele><time>2026-04-05T13:55:02Z</time></trkpt><trkpt lat="44.33921584433948" lon="8.349928806962478"><ele>441.0</ele><time>2026-04-05T13:55:03Z</time></trkpt><trkpt lat="44.339327347732635" lon="8.34978115251816"><ele>440.25</ele><time>2026-04-05T13:55:04Z</time></trkpt><trkpt lat="44.339434929852864" lon="8.349637802564565"><ele>439.5</ele><time>2026-04-05T13:55:05Z</time></trkpt><trkpt lat="44.33954271969385" lon="8.349495099682498"><ele>438.75</ele><time>2026-04-05T13:55:06Z</time></trkpt><trkpt lat="44.339661605090434" lon="8.34937003883186"><ele>438.0</ele><time>2026-04-05T13:55:07Z</time></trkpt><trkpt lat="44.3397677790223" lon="8.34923094079251"><ele>438.25</ele><time>2026-04-05T13:55:08Z</time></trkpt><trkpt lat="44.339868839608286" lon="8.34909854167956"><ele>438.5</ele><time>2026-04-05T13:55:09Z</time></trkpt><trkpt lat="44.33997670740739" lon="8.348957224763986"><ele>438.75</ele><time>2026-04-05T13:55:10.075Z</time></trkpt><trkpt lat="44.34007472695338" lon="8.34882903277038"><ele>439.0</ele><time>2026-04-05T13:55:11.07Z</time></trkpt><trkpt lat="44.34134751224774" lon="8.346645294511754"><ele>381.0</ele><time>2026-04-05T13:55:14.74Z</time></trkpt><trkpt lat="44.341581079054116" lon="8.326334635235654"><ele>381.0</ele><time>2026-04-05T13:56:50.746Z</time></trkpt><trkpt lat="44.34163060886275" lon="8.326075291990007"><ele>381.0</ele><time>2026-04-05T13:56:53.999Z</time></trkpt><trkpt lat="44.34163478781439" lon="8.325882653129682"><ele>381.0</ele><time>2026-04-05T13:56:54.999Z</time></trkpt><trkpt lat="44.341669272096816" lon="8.325695130393763"><ele>380.8</ele><time>2026-04-05T13:56:55.999Z</time></trkpt><trkpt lat="44.34170926142762" lon="8.325537390837951"><ele>380.6</ele><time>2026-04-05T13:56:56.999Z</time></trkpt><trkpt lat="44.341768611615244" lon="8.325384610785472"><ele>380.4</ele><time>2026-04-05T13:56:57.999Z</time></trkpt><trkpt lat="44.34182274097006" lon="8.325269863867298"><ele>380.2</ele><time>2026-04-05T13:56:59Z</time></trkpt><trkpt lat="44.34188848545507" lon="8.325174021614448"><ele>380.0</ele><time>2026-04-05T13:57:00Z</time></trkpt><trkpt lat="44.34196842100239" lon="8.325103589658031"><ele>380.0</ele><time>2026-04-05T13:57:01Z</time></trkpt><trkpt lat="44.34205561515581" lon="8.325041069953826"><ele>380.0</ele><time>2026-04-05T13:57:02Z</time></trkpt><trkpt lat="44.34215042693031" lon="8.325017284262591"><ele>380.0</ele><time>2026-04-05T13:57:03Z</time></trkpt><trkpt lat="44.34224657710874" lon="8.325006124140312"><ele>380.0</ele><time>2026-04-05T13:57:04Z</time></trkpt><trkpt lat="44.342325598151426" lon="8.3250137447588"><ele>380.0</ele><time>2026-04-05T13:57:05Z</time></trkpt><trkpt lat="44.34243102582379" lon="8.325024371571974"><ele>379.6</ele><time>2026-04-05T13:57:07Z</time></trkpt><trkpt lat="44.34253298727747" lon="8.325005540996141"><ele>379.2</ele><time>2026-04-05T13:57:10Z</time></trkpt><trkpt lat="44.342664557880894" lon="8.324970328469428"><ele>378.79999999999995</ele><time>2026-04-05T13:57:12Z</time></trkpt><trkpt lat="44.342758448098834" lon="8.324939908509528"><ele>378.4</ele><time>2026-04-05T13:57:13Z</time></trkpt><trkpt lat="44.34283707795664" lon="8.324909263189722"><ele>378.0</ele><time>2026-04-05T13:57:14Z</time></trkpt><trkpt lat="44.34292679720983" lon="8.324866272397044"><ele>378.0</ele><time>2026-04-05T13:57:15Z</time></trkpt><trkpt lat="44.34301840414343" lon="8.324827196836612"><ele>378.0</ele><time>2026-04-05T13:57:16Z</time></trkpt><trkpt lat="44.34310414902193" lon="8.32478613216571"><ele>378.0</ele><time>2026-04-05T13:57:17Z</time></trkpt><trkpt lat="44.34320009111615" lon="8.324750100204687"><ele>378.0</ele><time>2026-04-05T13:57:18Z</time></trkpt><trkpt lat="44.34329486230097" lon="8.32471671577845"><ele>378.0</ele><time>2026-04-05T13:57:19Z</time></trkpt><trkpt lat="44.34338215264344" lon="8.324676454763072"><ele>377.8333333333333</ele><time>2026-04-05T13:57:20Z</time></trkpt><trkpt lat="44.34346749483377" lon="8.324642840493006"><ele>377.6666666666667</ele><time>2026-04-05T13:57:21Z</time></trkpt><trkpt lat="44.34354186458621" lon="8.324587589174174"><ele>377.5</ele><time>2026-04-05T13:57:22Z</time></trkpt><trkpt lat="44.343608083716376" lon="8.32452743890364"><ele>377.33333333333337</ele><time>2026-04-05T13:57:23Z</time></trkpt><trkpt lat="44.34365345262642" lon="8.324464947225444"><ele>377.1666666666667</ele><time>2026-04-05T13:57:24Z</time></trkpt><trkpt lat="44.34369067009559" lon="8.324383670717257"><ele>377.0</ele><time>2026-04-05T13:57:25Z</time></trkpt><trkpt lat="44.34372180760554" lon="8.324303697985734"><ele>377.0</ele><time>2026-04-05T13:57:26Z</time></trkpt><trkpt lat="44.34375566957484" lon="8.324222580455816"><ele>377.0</ele><time>2026-04-05T13:57:27Z</time></trkpt><trkpt lat="44.34373954690885" lon="8.324099533039336"><ele>377.0</ele><time>2026-04-05T13:57:28Z</time></trkpt><trkpt lat="44.34372080148586" lon="8.323993153109052"><ele>377.0</ele><time>2026-04-05T13:57:29Z</time></trkpt><trkpt lat="44.34368716430807" lon="8.323882210861505"><ele>377.0</ele><time>2026-04-05T13:57:30Z</time></trkpt><trkpt lat="44.34363802551942" lon="8.32378555776615"><ele>377.0</ele><time>2026-04-05T13:57:31Z</time></trkpt><trkpt lat="44.34359023466356" lon="8.32369711613032"><ele>377.5</ele><time>2026-04-05T13:57:32Z</time></trkpt><trkpt lat="44.34354466930011" lon="8.323601788919806"><ele>378.0</ele><time>2026-04-05T13:57:33Z</time></trkpt><trkpt lat="44.34350874869634" lon="8.3235084736931"><ele>378.5</ele><time>2026-04-05T13:57:34Z</time></trkpt><trkpt lat="44.34349540818056" lon="8.323409531389876"><ele>379.0</ele><time>2026-04-05T13:57:35Z</time></trkpt><trkpt lat="44.343498562718494" lon="8.323310801843945"><ele>379.5</ele><time>2026-04-05T13:57:36Z</time></trkpt><trkpt lat="44.343545923983584" lon="8.323208035837505"><ele>380.0</ele><time>2026-04-05T13:57:37Z</time></trkpt><trkpt lat="44.34357149911021" lon="8.323103259401888"><ele>380.2</ele><time>2026-04-05T13:57:38Z</time></trkpt><trkpt lat="44.343659719165075" lon="8.323023173433256"><ele>380.4</ele><time>2026-04-05T13:57:39Z</time></trkpt><trkpt lat="44.34373283393491" lon="8.322947477276575"><ele>380.6</ele><time>2026-04-05T13:57:40Z</time></trkpt><trkpt lat="44.34381246667478" lon="8.32287241234169"><ele>380.8</ele><time>2026-04-05T13:57:41Z</time></trkpt><trkpt lat="44.34389337404515" lon="8.322797720233803"><ele>381.0</ele><time>2026-04-05T13:57:42Z</time></trkpt><trkpt lat="44.34397537073812" lon="8.322718680601232"><ele>381.0</ele><time>2026-04-05T13:57:43Z</time></trkpt><trkpt lat="44.34405835740619" lon="8.322636160559586"><ele>381.0</ele><time>2026-04-05T13:57:44Z</time></trkpt><trkpt lat="44.344151953655626" lon="8.322546825196852"><ele>381.0</ele><time>2026-04-05T13:57:45Z</time></trkpt><trkpt lat="44.344244400267804" lon="8.322455632669637"><ele>381.0</ele><time>2026-04-05T13:57:46Z</time></trkpt><trkpt lat="44.34433170904663" lon="8.322368672700627"><ele>381.0</ele><time>2026-04-05T13:57:47Z</time></trkpt><trkpt lat="44.344418120999926" lon="8.322283151760482"><ele>381.8</ele><time>2026-04-05T13:57:48Z</time></trkpt><trkpt lat="44.344501426287046" lon="8.322194978380343"><ele>382.6</ele><time>2026-04-05T13:57:49Z</time></trkpt><trkpt lat="44.34458864223961" lon="8.322111437637272"><ele>383.4</ele><time>2026-04-05T13:57:50Z</time></trkpt><trkpt lat="44.344676728790276" lon="8.322027825488261"><ele>384.2</ele><time>2026-04-05T13:57:51Z</time></trkpt><trkpt lat="44.34476484943322" lon="8.321943140805294"><ele>385.0</ele><time>2026-04-05T13:57:52Z</time></trkpt><trkpt lat="44.34485494611216" lon="8.321859754689166"><ele>385.0</ele><time>2026-04-05T13:57:53Z</time></trkpt><trkpt lat="44.34494815396933" lon="8.32177428492049"><ele>385.0</ele><time>2026-04-05T13:57:54Z</time></trkpt><trkpt lat="44.34504122733286" lon="8.32168803625847"><ele>385.0</ele><time>2026-04-05T13:57:55Z</time></trkpt><trkpt lat="44.34513481830619" lon="8.321590885777484"><ele>385.0</ele><time>2026-04-05T13:57:56Z</time></trkpt><trkpt lat="44.34522219411767" lon="8.321486977183401"><ele>384.4</ele><time>2026-04-05T13:57:57Z</time></trkpt><trkpt lat="44.34530228025774" lon="8.321374345580269"><ele>383.8</ele><time>2026-04-05T13:57:58Z</time></trkpt><trkpt lat="44.34537496834252" lon="8.32125553898591"><ele>383.20000000000005</ele><time>2026-04-05T13:57:59Z</time></trkpt><trkpt lat="44.34543881650604" lon="8.321147311017176"><ele>382.6</ele><time>2026-04-05T13:58:00Z</time></trkpt><trkpt lat="44.34548371321894" lon="8.321056117302552"><ele>382.0</ele><time>2026-04-05T13:58:01Z</time></trkpt><trkpt lat="44.3455580619968" lon="8.320937605681518"><ele>382.0</ele><time>2026-04-05T13:58:03Z</time></trkpt><trkpt lat="44.34565563507704" lon="8.320881146268997"><ele>382.0</ele><time>2026-04-05T13:58:05Z</time></trkpt><trkpt lat="44.34575449028221" lon="8.320808378348845"><ele>382.0</ele><time>2026-04-05T13:58:07Z</time></trkpt><trkpt lat="44.34577911613058" lon="8.320649633284303"><ele>382.0</ele><time>2026-04-05T13:58:09Z</time></trkpt><trkpt lat="44.34574288095696" lon="8.320565354964598"><ele>382.0</ele><time>2026-04-05T13:58:10Z</time></trkpt><trkpt lat="44.34568858404304" lon="8.320492962599948"><ele>382.0</ele><time>2026-04-05T13:58:11Z</time></trkpt><trkpt lat="44.3456298944216" lon="8.320425591096422"><ele>382.0</ele><time>2026-04-05T13:58:12Z</time></trkpt><trkpt lat="44.345573976085824" lon="8.320333508507108"><ele>382.0</ele><time>2026-04-05T13:58:13Z</time></trkpt><trkpt lat="44.34552696931644" lon="8.320215049341154"><ele>382.0</ele><time>2026-04-05T13:58:14Z</time></trkpt><trkpt lat="44.345478638448014" lon="8.320083033663886"><ele>382.0</ele><time>2026-04-05T13:58:15Z</time></trkpt><trkpt lat="44.345434826505354" lon="8.319937737342897"><ele>387.5</ele><time>2026-04-05T13:58:16Z</time></trkpt><trkpt lat="44.34538275469957" lon="8.319792125170245"><ele>393.0</ele><time>2026-04-05T13:58:17Z</time></trkpt><trkpt lat="44.345344803497724" lon="8.319648569693141"><ele>398.5</ele><time>2026-04-05T13:58:18Z</time></trkpt><trkpt lat="44.34531482291179" lon="8.319489814531394"><ele>404.0</ele><time>2026-04-05T13:58:19Z</time></trkpt><trkpt lat="44.345296533338164" lon="8.319313374589838"><ele>404.0</ele><time>2026-04-05T13:58:20Z</time></trkpt><trkpt lat="44.34529904260853" lon="8.319117669909748"><ele>404.0</ele><time>2026-04-05T13:58:21Z</time></trkpt><trkpt lat="44.345324950325875" lon="8.318916415115739"><ele>404.0</ele><time>2026-04-05T13:58:22Z</time></trkpt><trkpt lat="44.345367271825936" lon="8.31871142394825"><ele>404.0</ele><time>2026-04-05T13:58:23Z</time></trkpt><trkpt lat="44.345408338460935" lon="8.318499494908263"><ele>404.0</ele><time>2026-04-05T13:58:24Z</time></trkpt><trkpt lat="44.34544503512897" lon="8.318280520484661"><ele>404.0</ele><time>2026-04-05T13:58:25Z</time></trkpt><trkpt lat="44.34548525952675" lon="8.318046609864918"><ele>404.0</ele><time>2026-04-05T13:58:26Z</time></trkpt><trkpt lat="44.3455233848169" lon="8.317807284763933"><ele>396.0</ele><time>2026-04-05T13:58:27Z</time></trkpt><trkpt lat="44.345564713391795" lon="8.317558837294644"><ele>388.0</ele><time>2026-04-05T13:58:28Z</time></trkpt><trkpt lat="44.34560201268933" lon="8.317313233831932"><ele>380.0</ele><time>2026-04-05T13:58:29Z</time></trkpt><trkpt lat="44.34564035678652" lon="8.317073992506124"><ele>379.33333333333337</ele><time>2026-04-05T13:58:30Z</time></trkpt><trkpt lat="44.345678269316494" lon="8.316840111113702"><ele>378.6666666666667</ele><time>2026-04-05T13:58:31Z</time></trkpt><trkpt lat="44.345717163483656" lon="8.316605423021185"><ele>378.0</ele><time>2026-04-05T13:58:32Z</time></trkpt><trkpt lat="44.34575472402166" lon="8.31636946009685"><ele>379.6666666666667</ele><time>2026-04-05T13:58:33Z</time></trkpt><trkpt lat="44.34579354357359" lon="8.316135516303508"><ele>381.33333333333337</ele><time>2026-04-05T13:58:34Z</time></trkpt><trkpt lat="44.345829827817056" lon="8.315919311624208"><ele>383.0</ele><time>2026-04-05T13:58:35Z</time></trkpt><trkpt lat="44.34586630194744" lon="8.315703822042382"><ele>383.6666666666667</ele><time>2026-04-05T13:58:36Z</time></trkpt><trkpt lat="44.34590581878138" lon="8.315488194779942"><ele>384.33333333333337</ele><time>2026-04-05T13:58:37Z</time></trkpt><trkpt lat="44.345944238020124" lon="8.315274869282213"><ele>385.0</ele><time>2026-04-05T13:58:38Z</time></trkpt><trkpt lat="44.34598748285332" lon="8.315061635440799"><ele>385.0</ele><time>2026-04-05T13:58:39Z</time></trkpt><trkpt lat="44.34604677984196" lon="8.314853856041143"><ele>385.0</ele><time>2026-04-05T13:58:40Z</time></trkpt><trkpt lat="44.34611972706842" lon="8.314650188926818"><ele>385.0</ele><time>2026-04-05T13:58:41Z</time></trkpt><trkpt lat="44.34620429763686" lon="8.314456381275635"><ele>386.33333333333337</ele><time>2026-04-05T13:58:42Z</time></trkpt><trkpt lat="44.34628790179467" lon="8.31427102957211"><ele>387.66666666666663</ele><time>2026-04-05T13:58:43Z</time></trkpt><trkpt lat="44.34637145005728" lon="8.31409402398861"><ele>389.0</ele><time>2026-04-05T13:58:44Z</time></trkpt><trkpt lat="44.34645408026877" lon="8.313931412285314"><ele>387.0</ele><time>2026-04-05T13:58:45Z</time></trkpt><trkpt lat="44.346527666468894" lon="8.313775600642884"><ele>385.0</ele><time>2026-04-05T13:58:46Z</time></trkpt><trkpt lat="44.34661213441746" lon="8.313596876230578"><ele>383.0</ele><time>2026-04-05T13:58:47Z</time></trkpt><trkpt lat="44.346681975173816" lon="8.313417295359361"><ele>381.0</ele><time>2026-04-05T13:58:48Z</time></trkpt><trkpt lat="44.346741506066934" lon="8.313223402746637"><ele>382.5</ele><time>2026-04-05T13:58:49Z</time></trkpt><trkpt lat="44.34679525867462" lon="8.313024299049026"><ele>384.0</ele><time>2026-04-05T13:58:50Z</time></trkpt><trkpt lat="44.346839446780564" lon="8.312825214256417"><ele>385.5</ele><time>2026-04-05T13:58:51Z</time></trkpt><trkpt lat="44.34687472486107" lon="8.312626747875633"><ele>387.0</ele><time>2026-04-05T13:58:52Z</time></trkpt><trkpt lat="44.346897418438715" lon="8.312428283911746"><ele>387.0</ele><time>2026-04-05T13:58:53Z</time></trkpt><trkpt lat="44.34690664407426" lon="8.312244603829024"><ele>387.0</ele><time>2026-04-05T13:58:54Z</time></trkpt><trkpt lat="44.34690862721814" lon="8.312066303903611"><ele>387.0</ele><time>2026-04-05T13:58:55Z</time></trkpt><trkpt lat="44.3469105532068" lon="8.31188812801232"><ele>387.0</ele><time>2026-04-05T13:58:56Z</time></trkpt><trkpt lat="44.346911151598626" lon="8.3117145402345"><ele>387.5</ele><time>2026-04-05T13:58:57Z</time></trkpt><trkpt lat="44.34691146237867" lon="8.311544209182797"><ele>388.0</ele><time>2026-04-05T13:58:58Z</time></trkpt><trkpt lat="44.346909694741875" lon="8.311380028817137"><ele>388.5</ele><time>2026-04-05T13:58:59Z</time></trkpt><trkpt lat="44.346907648012255" lon="8.311216009094066"><ele>389.0</ele><time>2026-04-05T13:59:00Z</time></trkpt><trkpt lat="44.346899539593025" lon="8.311052369053067"><ele>389.0</ele><time>2026-04-05T13:59:01Z</time></trkpt><trkpt lat="44.346898923154164" lon="8.310875112933752"><ele>389.0</ele><time>2026-04-05T13:59:02Z</time></trkpt><trkpt lat="44.346894455247124" lon="8.310705536189342"><ele>389.0</ele><time>2026-04-05T13:59:03Z</time></trkpt><trkpt lat="44.34689143604362" lon="8.310538256084559"><ele>389.0</ele><time>2026-04-05T13:59:04Z</time></trkpt><trkpt lat="44.34689130831792" lon="8.310375877346125"><ele>389.5</ele><time>2026-04-05T13:59:05Z</time></trkpt><trkpt lat="44.34690531126398" lon="8.310220516050817"><ele>390.0</ele><time>2026-04-05T13:59:06Z</time></trkpt><trkpt lat="44.34690073670493" lon="8.310055870527734"><ele>390.5</ele><time>2026-04-05T13:59:07Z</time></trkpt><trkpt lat="44.34692276773355" lon="8.309882170505317"><ele>391.0</ele><time>2026-04-05T13:59:08Z</time></trkpt><trkpt lat="44.34695176925509" lon="8.309715644780107"><ele>391.0</ele><time>2026-04-05T13:59:09Z</time></trkpt><trkpt lat="44.347008038686084" lon="8.30955454050005"><ele>391.0</ele><time>2026-04-05T13:59:10Z</time></trkpt><trkpt lat="44.34705745398194" lon="8.309417120569789"><ele>391.0</ele><time>2026-04-05T13:59:11Z</time></trkpt><trkpt lat="44.347112373402034" lon="8.309299059553645"><ele>391.0</ele><time>2026-04-05T13:59:12Z</time></trkpt><trkpt lat="44.34717846321265" lon="8.309180010124026"><ele>391.0</ele><time>2026-04-05T13:59:13Z</time></trkpt><trkpt lat="44.34724495151089" lon="8.309047870340207"><ele>392.0</ele><time>2026-04-05T13:59:14Z</time></trkpt><trkpt lat="44.347322789036056" lon="8.308931318761829"><ele>393.0</ele><time>2026-04-05T13:59:15Z</time></trkpt><trkpt lat="44.34739160320921" lon="8.308799254184725"><ele>394.0</ele><time>2026-04-05T13:59:16Z</time></trkpt><trkpt lat="44.347443093734285" lon="8.308659561458784"><ele>395.0</ele><time>2026-04-05T13:59:17Z</time></trkpt><trkpt lat="44.34747256899157" lon="8.308505771272339"><ele>395.0</ele><time>2026-04-05T13:59:18Z</time></trkpt><trkpt lat="44.34748575231237" lon="8.308348711261356"><ele>395.0</ele><time>2026-04-05T13:59:19Z</time></trkpt><trkpt lat="44.347483911515624" lon="8.308199213773888"><ele>395.0</ele><time>2026-04-05T13:59:20Z</time></trkpt><trkpt lat="44.347470486791295" lon="8.308043411638344"><ele>395.0</ele><time>2026-04-05T13:59:21Z</time></trkpt><trkpt lat="44.34743966106829" lon="8.30789068486434"><ele>395.0</ele><time>2026-04-05T13:59:22Z</time></trkpt><trkpt lat="44.34738983327163" lon="8.30774603901659"><ele>395.0</ele><time>2026-04-05T13:59:23Z</time></trkpt><trkpt lat="44.34733198055686" lon="8.307607392897763"><ele>395.0</ele><time>2026-04-05T13:59:24Z</time></trkpt><trkpt lat="44.34727225505118" lon="8.307473219293179"><ele>395.0</ele><time>2026-04-05T13:59:25Z</time></trkpt><trkpt lat="44.3472183233677" lon="8.30734448619235"><ele>395.0</ele><time>2026-04-05T13:59:26Z</time></trkpt><trkpt lat="44.34716387305725" lon="8.307215743991868"><ele>395.0</ele><time>2026-04-05T13:59:27Z</time></trkpt><trkpt lat="44.34711143018077" lon="8.307083779041045"><ele>395.0</ele><time>2026-04-05T13:59:28Z</time></trkpt><trkpt lat="44.34706605636156" lon="8.306945013329342"><ele>395.0</ele><time>2026-04-05T13:59:29Z</time></trkpt><trkpt lat="44.34703086071482" lon="8.306791910300763"><ele>395.0</ele><time>2026-04-05T13:59:30Z</time></trkpt><trkpt lat="44.34700945781921" lon="8.30662781287181"><ele>395.0</ele><time>2026-04-05T13:59:31Z</time></trkpt><trkpt lat="44.34699528323983" lon="8.306461526452196"><ele>396.0</ele><time>2026-04-05T13:59:32Z</time></trkpt><trkpt lat="44.34697924299936" lon="8.306297905250073"><ele>397.0</ele><time>2026-04-05T13:59:33Z</time></trkpt><trkpt lat="44.346965100943265" lon="8.306134068504425"><ele>398.0</ele><time>2026-04-05T13:59:34Z</time></trkpt><trkpt lat="44.346952495926885" lon="8.305983366151812"><ele>399.0</ele><time>2026-04-05T13:59:35Z</time></trkpt><trkpt lat="44.346938081055235" lon="8.305830653781062"><ele>399.0</ele><time>2026-04-05T13:59:36Z</time></trkpt><trkpt lat="44.34692329335715" lon="8.305668541412036"><ele>399.0</ele><time>2026-04-05T13:59:37Z</time></trkpt><trkpt lat="44.346907367274625" lon="8.305508379974818"><ele>399.0</ele><time>2026-04-05T13:59:38Z</time></trkpt><trkpt lat="44.34688597747712" lon="8.30535303791603"><ele>399.0</ele><time>2026-04-05T13:59:39Z</time></trkpt><trkpt lat="44.3468788640599" lon="8.305195764159402"><ele>399.79999999999995</ele><time>2026-04-05T13:59:40Z</time></trkpt><trkpt lat="44.34686320367198" lon="8.305045370631811"><ele>400.59999999999997</ele><time>2026-04-05T13:59:41Z</time></trkpt><trkpt lat="44.34685062667147" lon="8.304899318798675"><ele>401.4</ele><time>2026-04-05T13:59:42Z</time></trkpt><trkpt lat="44.346837567627254" lon="8.304739273899994"><ele>402.2</ele><time>2026-04-05T13:59:43Z</time></trkpt><trkpt lat="44.34683999110061" lon="8.304581707780507"><ele>403.0</ele><time>2026-04-05T13:59:44Z</time></trkpt><trkpt lat="44.34685219120846" lon="8.304424826339876"><ele>403.25</ele><time>2026-04-05T13:59:45Z</time></trkpt><trkpt lat="44.34687736441987" lon="8.304261225584847"><ele>403.5</ele><time>2026-04-05T13:59:46Z</time></trkpt><trkpt lat="44.34690974588513" lon="8.30410016301102"><ele>403.75</ele><time>2026-04-05T13:59:47Z</time></trkpt><trkpt lat="44.346950073281825" lon="8.303949845807418"><ele>404.0</ele><time>2026-04-05T13:59:48Z</time></trkpt><trkpt lat="44.346986108481055" lon="8.303807128960788"><ele>404.4</ele><time>2026-04-05T13:59:49Z</time></trkpt><trkpt lat="44.34700685213759" lon="8.303657168316056"><ele>404.79999999999995</ele><time>2026-04-05T13:59:50Z</time></trkpt><trkpt lat="44.347055319046824" lon="8.30351764925475"><ele>405.20000000000005</ele><time>2026-04-05T13:59:51Z</time></trkpt><trkpt lat="44.34709814668945" lon="8.303367714012253"><ele>405.6</ele><time>2026-04-05T13:59:52Z</time></trkpt><trkpt lat="44.347134620009584" lon="8.303226513255172"><ele>406.0</ele><time>2026-04-05T13:59:53Z</time></trkpt><trkpt lat="44.34717132910259" lon="8.303085789487643"><ele>405.8</ele><time>2026-04-05T13:59:54Z</time></trkpt><trkpt lat="44.34720432479876" lon="8.302947032163733"><ele>405.6</ele><time>2026-04-05T13:59:55Z</time></trkpt><trkpt lat="44.347228837868" lon="8.30281462185946"><ele>405.4</ele><time>2026-04-05T13:59:56Z</time></trkpt><trkpt lat="44.34725226328858" lon="8.302695124589144"><ele>405.2</ele><time>2026-04-05T13:59:57Z</time></trkpt><trkpt lat="44.34728357418169" lon="8.302583573826162"><ele>405.0</ele><time>2026-04-05T13:59:58Z</time></trkpt><trkpt lat="44.347319299179276" lon="8.302473300930405"><ele>404.5</ele><time>2026-04-05T13:59:59Z</time></trkpt><trkpt lat="44.34733445142952" lon="8.302375133760673"><ele>404.0</ele><time>2026-04-05T14:00:00Z</time></trkpt><trkpt lat="44.347319171379404" lon="8.30228755277484"><ele>403.5</ele><time>2026-04-05T14:00:01Z</time></trkpt><trkpt lat="44.34721689961011" lon="8.302175037980474"><ele>403.0</ele><time>2026-04-05T14:00:03Z</time></trkpt><trkpt lat="44.34716221026737" lon="8.30210902002622"><ele>402.5</ele><time>2026-04-05T14:00:04Z</time></trkpt><trkpt lat="44.34711552462389" lon="8.30201763423312"><ele>402.0</ele><time>2026-04-05T14:00:05Z</time></trkpt><trkpt lat="44.347068776528715" lon="8.30189902472287"><ele>402.0</ele><time>2026-04-05T14:00:06Z</time></trkpt><trkpt lat="44.34701369926317" lon="8.301760462029023"><ele>402.0</ele><time>2026-04-05T14:00:07Z</time></trkpt><trkpt lat="44.346947219432614" lon="8.301602385363653"><ele>402.0</ele><time>2026-04-05T14:00:08Z</time></trkpt><trkpt lat="44.34687146936023" lon="8.301423880711782"><ele>402.0</ele><time>2026-04-05T14:00:09Z</time></trkpt><trkpt lat="44.346799639124725" lon="8.301242639287299"><ele>399.33333333333337</ele><time>2026-04-05T14:00:10Z</time></trkpt><trkpt lat="44.34672168758304" lon="8.301059923915112"><ele>396.6666666666667</ele><time>2026-04-05T14:00:11Z</time></trkpt><trkpt lat="44.346645594108615" lon="8.300864875920682"><ele>394.0</ele><time>2026-04-05T14:00:12Z</time></trkpt><trkpt lat="44.34657021805403" lon="8.300669342502287"><ele>394.5</ele><time>2026-04-05T14:00:13Z</time></trkpt><trkpt lat="44.3464960621257" lon="8.30048433962255"><ele>395.0</ele><time>2026-04-05T14:00:14Z</time></trkpt><trkpt lat="44.34642374762299" lon="8.300316295669385"><ele>395.5</ele><time>2026-04-05T14:00:15Z</time></trkpt><trkpt lat="44.3463326669409" lon="8.300171687281999"><ele>396.0</ele><time>2026-04-05T14:00:16Z</time></trkpt><trkpt lat="44.3462112431987" lon="8.30005496329195"><ele>396.0</ele><time>2026-04-05T14:00:17Z</time></trkpt><trkpt lat="44.34606552245651" lon="8.299975864154398"><ele>396.0</ele><time>2026-04-05T14:00:18Z</time></trkpt><trkpt lat="44.34591687413245" lon="8.299915046909828"><ele>396.0</ele><time>2026-04-05T14:00:19Z</time></trkpt><trkpt lat="44.34578262785576" lon="8.299837367070959"><ele>395.66666666666663</ele><time>2026-04-05T14:00:20Z</time></trkpt><trkpt lat="44.345668960043525" lon="8.299716708319563"><ele>395.3333333333333</ele><time>2026-04-05T14:00:21Z</time></trkpt><trkpt lat="44.34556327058108" lon="8.29955769035406"><ele>395.0</ele><time>2026-04-05T14:00:22Z</time></trkpt><trkpt lat="44.34546749099773" lon="8.29936664640022"><ele>395.0</ele><time>2026-04-05T14:00:23Z</time></trkpt><trkpt lat="44.34538934660092" lon="8.299154041292224"><ele>395.0</ele><time>2026-04-05T14:00:24Z</time></trkpt><trkpt lat="44.345328724840854" lon="8.298933682767805"><ele>395.0</ele><time>2026-04-05T14:00:25Z</time></trkpt><trkpt lat="44.345284392803904" lon="8.298716911878987"><ele>394.3333333333333</ele><time>2026-04-05T14:00:26Z</time></trkpt><trkpt lat="44.34526000793549" lon="8.29850523100926"><ele>393.66666666666663</ele><time>2026-04-05T14:00:27Z</time></trkpt><trkpt lat="44.34526469008491" lon="8.29829105364524"><ele>393.0</ele><time>2026-04-05T14:00:28Z</time></trkpt><trkpt lat="44.345310565649264" lon="8.29807838699181"><ele>393.0</ele><time>2026-04-05T14:00:29Z</time></trkpt><trkpt lat="44.34541500537416" lon="8.29790098336244"><ele>393.0</ele><time>2026-04-05T14:00:30Z</time></trkpt><trkpt lat="44.34554613742897" lon="8.297726446006404"><ele>393.0</ele><time>2026-04-05T14:00:31Z</time></trkpt><trkpt lat="44.34567029845483" lon="8.297540108890955"><ele>391.0</ele><time>2026-04-05T14:00:32Z</time></trkpt><trkpt lat="44.34579613012474" lon="8.297373825493137"><ele>389.0</ele><time>2026-04-05T14:00:33Z</time></trkpt><trkpt lat="44.34592066545562" lon="8.297223354432042"><ele>387.0</ele><time>2026-04-05T14:00:34Z</time></trkpt><trkpt lat="44.346055900911516" lon="8.297100377913528"><ele>387.0</ele><time>2026-04-05T14:00:35Z</time></trkpt><trkpt lat="44.34621941710554" lon="8.297005812844645"><ele>387.0</ele><time>2026-04-05T14:00:36Z</time></trkpt><trkpt lat="44.34640759086215" lon="8.296957507144343"><ele>387.0</ele><time>2026-04-05T14:00:37Z</time></trkpt><trkpt lat="44.346611130963915" lon="8.296930988438286"><ele>385.6666666666667</ele><time>2026-04-05T14:00:38Z</time></trkpt><trkpt lat="44.34681615952948" lon="8.296913059089261"><ele>384.33333333333337</ele><time>2026-04-05T14:00:39Z</time></trkpt><trkpt lat="44.34702686084632" lon="8.296884509417417"><ele>383.0</ele><time>2026-04-05T14:00:40Z</time></trkpt><trkpt lat="44.34725009640585" lon="8.296873843005613"><ele>381.5</ele><time>2026-04-05T14:00:41Z</time></trkpt><trkpt lat="44.34747742210235" lon="8.29684730348136"><ele>380.0</ele><time>2026-04-05T14:00:42Z</time></trkpt><trkpt lat="44.347705843878956" lon="8.296820457509252"><ele>380.0</ele><time>2026-04-05T14:00:43Z</time></trkpt><trkpt lat="44.34791650973208" lon="8.296794999332812"><ele>380.0</ele><time>2026-04-05T14:00:44Z</time></trkpt><trkpt lat="44.34811720576973" lon="8.296741596645214"><ele>380.0</ele><time>2026-04-05T14:00:45Z</time></trkpt><trkpt lat="44.348317867045765" lon="8.29668878417797"><ele>379.0</ele><time>2026-04-05T14:00:46Z</time></trkpt><trkpt lat="44.34852316738851" lon="8.296624381445069"><ele>378.0</ele><time>2026-04-05T14:00:47Z</time></trkpt><trkpt lat="44.34872944312353" lon="8.296524130501577"><ele>377.0</ele><time>2026-04-05T14:00:48Z</time></trkpt><trkpt lat="44.348932264460295" lon="8.296405102704542"><ele>377.0</ele><time>2026-04-05T14:00:49Z</time></trkpt><trkpt lat="44.34911750144558" lon="8.296270477287255"><ele>377.0</ele><time>2026-04-05T14:00:50Z</time></trkpt><trkpt lat="44.34928163165695" lon="8.29612023277654"><ele>377.0</ele><time>2026-04-05T14:00:51Z</time></trkpt><trkpt lat="44.34943164842603" lon="8.295961265255903"><ele>377.0</ele><time>2026-04-05T14:00:52Z</time></trkpt><trkpt lat="44.34957281040908" lon="8.295798751303243"><ele>377.0</ele><time>2026-04-05T14:00:53Z</time></trkpt><trkpt lat="44.349719971695606" lon="8.29563673464724"><ele>377.0</ele><time>2026-04-05T14:00:54Z</time></trkpt><trkpt lat="44.34987434789881" lon="8.295470585234678"><ele>374.33333333333337</ele><time>2026-04-05T14:00:55Z</time></trkpt><trkpt lat="44.35003262656208" lon="8.295311636169373"><ele>371.6666666666667</ele><time>2026-04-05T14:00:56Z</time></trkpt><trkpt lat="44.35019702910591" lon="8.29514586693295"><ele>369.0</ele><time>2026-04-05T14:00:57Z</time></trkpt><trkpt lat="44.35037095969774" lon="8.294971474745848"><ele>369.6666666666667</ele><time>2026-04-05T14:00:58Z</time></trkpt><trkpt lat="44.35054717205804" lon="8.294801468589766"><ele>370.33333333333337</ele><time>2026-04-05T14:00:59Z</time></trkpt><trkpt lat="44.3507263155383" lon="8.29463188662014"><ele>371.0</ele><time>2026-04-05T14:01:00Z</time></trkpt><trkpt lat="44.35090392436319" lon="8.29445629053034"><ele>371.0</ele><time>2026-04-05T14:01:01Z</time></trkpt><trkpt lat="44.35108061351357" lon="8.294279042756557"><ele>371.0</ele><time>2026-04-05T14:01:02Z</time></trkpt><trkpt lat="44.35127173003124" lon="8.29411607214421"><ele>371.0</ele><time>2026-04-05T14:01:03Z</time></trkpt><trkpt lat="44.35143288948299" lon="8.2939105998158"><ele>370.6666666666667</ele><time>2026-04-05T14:01:04Z</time></trkpt><trkpt lat="44.35159654605483" lon="8.293732548845595"><ele>370.3333333333333</ele><time>2026-04-05T14:01:05Z</time></trkpt><trkpt lat="44.35176907274746" lon="8.293561234406187"><ele>370.0</ele><time>2026-04-05T14:01:06Z</time></trkpt><trkpt lat="44.35193403965995" lon="8.29337574485199"><ele>370.0</ele><time>2026-04-05T14:01:07Z</time></trkpt><trkpt lat="44.35208848399997" lon="8.293178213926202"><ele>370.0</ele><time>2026-04-05T14:01:08Z</time></trkpt><trkpt lat="44.35223613682042" lon="8.292966317256226"><ele>370.0</ele><time>2026-04-05T14:01:09Z</time></trkpt><trkpt lat="44.35235968336665" lon="8.292743596252507"><ele>370.3333333333333</ele><time>2026-04-05T14:01:10Z</time></trkpt><trkpt lat="44.35249691917728" lon="8.292567166928437"><ele>370.6666666666667</ele><time>2026-04-05T14:01:11Z</time></trkpt><trkpt lat="44.352608627915934" lon="8.29239643844038"><ele>371.0</ele><time>2026-04-05T14:01:12Z</time></trkpt><trkpt lat="44.352705643408015" lon="8.292250561320857"><ele>371.0</ele><time>2026-04-05T14:01:13Z</time></trkpt><trkpt lat="44.35278760489257" lon="8.292145693764073"><ele>371.0</ele><time>2026-04-05T14:01:14Z</time></trkpt><trkpt lat="44.35287210148298" lon="8.292070552711527"><ele>371.0</ele><time>2026-04-05T14:01:15Z</time></trkpt><trkpt lat="44.3529499021315" lon="8.292024551428918"><ele>371.0</ele><time>2026-04-05T14:01:16Z</time></trkpt><trkpt lat="44.353022256755416" lon="8.29199356485204"><ele>371.0</ele><time>2026-04-05T14:01:17Z</time></trkpt><trkpt lat="44.35309834753815" lon="8.292008810789477"><ele>371.0</ele><time>2026-04-05T14:01:18Z</time></trkpt><trkpt lat="44.35316460754946" lon="8.291996680172387"><ele>369.0</ele><time>2026-04-05T14:01:19Z</time></trkpt><trkpt lat="44.35321237854415" lon="8.291933658166991"><ele>367.0</ele><time>2026-04-05T14:01:20Z</time></trkpt><trkpt lat="44.35326567757534" lon="8.291861042230082"><ele>365.0</ele><time>2026-04-05T14:01:21Z</time></trkpt><trkpt lat="44.35324833869191" lon="8.291724367618425"><ele>363.0</ele><time>2026-04-05T14:01:22Z</time></trkpt><trkpt lat="44.35325088449633" lon="8.291595210913869"><ele>361.0</ele><time>2026-04-05T14:01:23Z</time></trkpt><trkpt lat="44.35326714887564" lon="8.291455445682857"><ele>359.0</ele><time>2026-04-05T14:01:24Z</time></trkpt><trkpt lat="44.35328755553703" lon="8.291305804555172"><ele>359.0</ele><time>2026-04-05T14:01:25Z</time></trkpt><trkpt lat="44.35330488307191" lon="8.291136652109033"><ele>359.0</ele><time>2026-04-05T14:01:26Z</time></trkpt><trkpt lat="44.3533157251376" lon="8.290946214053855"><ele>359.0</ele><time>2026-04-05T14:01:27Z</time></trkpt><trkpt lat="44.3533235983986" lon="8.290727633726119"><ele>359.0</ele><time>2026-04-05T14:01:28Z</time></trkpt><trkpt lat="44.35332862926862" lon="8.290495045657593"><ele>360.6666666666667</ele><time>2026-04-05T14:01:29Z</time></trkpt><trkpt lat="44.353329320710436" lon="8.290269391291638"><ele>362.3333333333333</ele><time>2026-04-05T14:01:30Z</time></trkpt><trkpt lat="44.35333084798516" lon="8.290034509963254"><ele>364.0</ele><time>2026-04-05T14:01:31Z</time></trkpt><trkpt lat="44.35333340424985" lon="8.28979651314958"><ele>365.3333333333333</ele><time>2026-04-05T14:01:32Z</time></trkpt><trkpt lat="44.35333493763574" lon="8.289555539770959"><ele>366.6666666666667</ele><time>2026-04-05T14:01:33Z</time></trkpt><trkpt lat="44.35333373701259" lon="8.2893024771747"><ele>368.0</ele><time>2026-04-05T14:01:34Z</time></trkpt><trkpt lat="44.35333537090982" lon="8.289042816001064"><ele>366.33333333333337</ele><time>2026-04-05T14:01:35Z</time></trkpt><trkpt lat="44.35333745194213" lon="8.28877902883648"><ele>364.6666666666667</ele><time>2026-04-05T14:01:36Z</time></trkpt><trkpt lat="44.35333834977135" lon="8.288530618563765"><ele>363.0</ele><time>2026-04-05T14:01:37Z</time></trkpt><trkpt lat="44.35333921142166" lon="8.28829685917052"><ele>361.3333333333333</ele><time>2026-04-05T14:01:38Z</time></trkpt><trkpt lat="44.35333856099375" lon="8.288070665413231"><ele>359.66666666666663</ele><time>2026-04-05T14:01:39Z</time></trkpt><trkpt lat="44.35333277954077" lon="8.287848551942112"><ele>358.0</ele><time>2026-04-05T14:01:40Z</time></trkpt><trkpt lat="44.35332952469475" lon="8.28763529275231"><ele>358.0</ele><time>2026-04-05T14:01:41Z</time></trkpt><trkpt lat="44.35332891059071" lon="8.287438037664115"><ele>358.0</ele><time>2026-04-05T14:01:42Z</time></trkpt><trkpt lat="44.35333265453789" lon="8.287259957634353"><ele>358.0</ele><time>2026-04-05T14:01:43Z</time></trkpt><trkpt lat="44.35332488600377" lon="8.287101038884497"><ele>358.0</ele><time>2026-04-05T14:01:44Z</time></trkpt><trkpt lat="44.3533637842766" lon="8.286945463212344"><ele>357.0</ele><time>2026-04-05T14:01:45Z</time></trkpt><trkpt lat="44.35334827823983" lon="8.28680092419601"><ele>356.0</ele><time>2026-04-05T14:01:46Z</time></trkpt><trkpt lat="44.353299545425116" lon="8.286654269436239"><ele>355.0</ele><time>2026-04-05T14:01:47Z</time></trkpt><trkpt lat="44.353255396633536" lon="8.28649215260583"><ele>354.0</ele><time>2026-04-05T14:01:48Z</time></trkpt><trkpt lat="44.353260749799155" lon="8.286299789564557"><ele>354.0</ele><time>2026-04-05T14:01:49Z</time></trkpt><trkpt lat="44.35323799730023" lon="8.286093620914766"><ele>354.0</ele><time>2026-04-05T14:01:50Z</time></trkpt><trkpt lat="44.35323075049277" lon="8.285871596908622"><ele>354.0</ele><time>2026-04-05T14:01:51Z</time></trkpt><trkpt lat="44.35321543412305" lon="8.285636110550863"><ele>354.0</ele><time>2026-04-05T14:01:52Z</time></trkpt><trkpt lat="44.353199757217446" lon="8.285386743751165"><ele>354.0</ele><time>2026-04-05T14:01:53Z</time></trkpt><trkpt lat="44.35318855908615" lon="8.285134465669646"><ele>354.0</ele><time>2026-04-05T14:01:54Z</time></trkpt><trkpt lat="44.353176122488556" lon="8.284860528766247"><ele>354.0</ele><time>2026-04-05T14:01:55Z</time></trkpt><trkpt lat="44.35316133077981" lon="8.284586246386226"><ele>354.0</ele><time>2026-04-05T14:01:56Z</time></trkpt><trkpt lat="44.35314452445393" lon="8.28429958394411"><ele>354.0</ele><time>2026-04-05T14:01:57Z</time></trkpt><trkpt lat="44.3531288270435" lon="8.284024584751347"><ele>354.0</ele><time>2026-04-05T14:01:58Z</time></trkpt><trkpt lat="44.35311407553528" lon="8.283755105482733"><ele>354.0</ele><time>2026-04-05T14:01:59Z</time></trkpt><trkpt lat="44.35310222725108" lon="8.283486685052546"><ele>354.0</ele><time>2026-04-05T14:02:00Z</time></trkpt><trkpt lat="44.35309695745658" lon="8.28322708114819"><ele>353.6666666666667</ele><time>2026-04-05T14:02:01Z</time></trkpt><trkpt lat="44.35310069536625" lon="8.282966111253515"><ele>353.33333333333337</ele><time>2026-04-05T14:02:02Z</time></trkpt><trkpt lat="44.35311164297028" lon="8.282705372832071"><ele>353.0</ele><time>2026-04-05T14:02:03Z</time></trkpt><trkpt lat="44.35312799939746" lon="8.282440751356521"><ele>352.6666666666667</ele><time>2026-04-05T14:02:04Z</time></trkpt><trkpt lat="44.35314729069842" lon="8.28217867227924"><ele>352.3333333333333</ele><time>2026-04-05T14:02:05Z</time></trkpt><trkpt lat="44.35316747069702" lon="8.281906470271995"><ele>352.0</ele><time>2026-04-05T14:02:06Z</time></trkpt><trkpt lat="44.35319531564935" lon="8.28163675968086"><ele>352.3333333333333</ele><time>2026-04-05T14:02:07Z</time></trkpt><trkpt lat="44.3532230087763" lon="8.281364778973066"><ele>352.6666666666667</ele><time>2026-04-05T14:02:08Z</time></trkpt><trkpt lat="44.353246490798156" lon="8.281088617159918"><ele>353.0</ele><time>2026-04-05T14:02:09Z</time></trkpt><trkpt lat="44.35326881625744" lon="8.280808907153466"><ele>353.33333333333337</ele><time>2026-04-05T14:02:10Z</time></trkpt><trkpt lat="44.353291095544954" lon="8.280544485386311"><ele>353.6666666666667</ele><time>2026-04-05T14:02:11Z</time></trkpt><trkpt lat="44.35331274226505" lon="8.280293910438242"><ele>354.0</ele><time>2026-04-05T14:02:12Z</time></trkpt><trkpt lat="44.353331311625396" lon="8.280058218437933"><ele>354.0</ele><time>2026-04-05T14:02:13Z</time></trkpt><trkpt lat="44.3533483536001" lon="8.279832658067862"><ele>354.0</ele><time>2026-04-05T14:02:14Z</time></trkpt><trkpt lat="44.35336858122149" lon="8.27961659382682"><ele>354.0</ele><time>2026-04-05T14:02:15Z</time></trkpt><trkpt lat="44.353383338363244" lon="8.279410979199248"><ele>354.25</ele><time>2026-04-05T14:02:16Z</time></trkpt><trkpt lat="44.35340168405497" lon="8.279216477713856"><ele>354.5</ele><time>2026-04-05T14:02:17Z</time></trkpt><trkpt lat="44.35341679874881" lon="8.279044915245088"><ele>354.75</ele><time>2026-04-05T14:02:18Z</time></trkpt><trkpt lat="44.35343029381719" lon="8.27889723834801"><ele>355.0</ele><time>2026-04-05T14:02:19Z</time></trkpt><trkpt lat="44.3534460798167" lon="8.278775356005879"><ele>355.3333333333333</ele><time>2026-04-05T14:02:20Z</time></trkpt><trkpt lat="44.353476092618514" lon="8.278671115180908"><ele>355.66666666666663</ele><time>2026-04-05T14:02:21Z</time></trkpt><trkpt lat="44.35353076423261" lon="8.278592709814903"><ele>356.0</ele><time>2026-04-05T14:02:22Z</time></trkpt><trkpt lat="44.353600620367914" lon="8.278556241684704"><ele>356.3333333333333</ele><time>2026-04-05T14:02:23Z</time></trkpt><trkpt lat="44.35367858503855" lon="8.278563673426325"><ele>356.6666666666667</ele><time>2026-04-05T14:02:24Z</time></trkpt><trkpt lat="44.35376095866634" lon="8.278593987563127"><ele>357.0</ele><time>2026-04-05T14:02:25Z</time></trkpt><trkpt lat="44.35384104635369" lon="8.278656195726482"><ele>357.0</ele><time>2026-04-05T14:02:26Z</time></trkpt><trkpt lat="44.35392176364823" lon="8.278738005123964"><ele>357.0</ele><time>2026-04-05T14:02:27Z</time></trkpt><trkpt lat="44.3539965486836" lon="8.278843544250922"><ele>357.0</ele><time>2026-04-05T14:02:28Z</time></trkpt><trkpt lat="44.35408423473118" lon="8.278922714499634"><ele>357.0</ele><time>2026-04-05T14:02:29Z</time></trkpt><trkpt lat="44.35416559416376" lon="8.279007952468797"><ele>357.0</ele><time>2026-04-05T14:02:30Z</time></trkpt><trkpt lat="44.35424320133422" lon="8.279093709631324"><ele>357.0</ele><time>2026-04-05T14:02:31Z</time></trkpt><trkpt lat="44.354311318969984" lon="8.279194944219853"><ele>357.0</ele><time>2026-04-05T14:02:32Z</time></trkpt><trkpt lat="44.35437524607255" lon="8.279269153911677"><ele>357.0</ele><time>2026-04-05T14:02:33Z</time></trkpt><trkpt lat="44.35445899454491" lon="8.279375166264561"><ele>357.0</ele><time>2026-04-05T14:02:35Z</time></trkpt><trkpt lat="44.354509308380614" lon="8.27943713312539"><ele>357.0</ele><time>2026-04-05T14:02:37Z</time></trkpt><trkpt lat="44.354646968865374" lon="8.2792580348417"><ele>357.0</ele><time>2026-04-05T14:02:38Z</time></trkpt><trkpt lat="44.354687026053725" lon="8.279138817796246"><ele>357.0</ele><time>2026-04-05T14:02:39Z</time></trkpt><trkpt lat="44.35471746543039" lon="8.27898592407815"><ele>357.0</ele><time>2026-04-05T14:02:40Z</time></trkpt><trkpt lat="44.3547207395797" lon="8.278822381302184"><ele>357.0</ele><time>2026-04-05T14:02:41Z</time></trkpt><trkpt lat="44.354763059467665" lon="8.278664260536711"><ele>357.0</ele><time>2026-04-05T14:02:42Z</time></trkpt><trkpt lat="44.35483120926038" lon="8.278497139631488"><ele>358.25</ele><time>2026-04-05T14:02:43Z</time></trkpt><trkpt lat="44.35490846040885" lon="8.278340177842528"><ele>359.5</ele><time>2026-04-05T14:02:44Z</time></trkpt><trkpt lat="44.35499079486241" lon="8.278178635891074"><ele>360.75</ele><time>2026-04-05T14:02:45Z</time></trkpt><trkpt lat="44.35507623902746" lon="8.278006863293502"><ele>362.0</ele><time>2026-04-05T14:02:46Z</time></trkpt><trkpt lat="44.35516269771587" lon="8.27782998079461"><ele>362.0</ele><time>2026-04-05T14:02:47Z</time></trkpt><trkpt lat="44.35524433155702" lon="8.277654266414684"><ele>362.0</ele><time>2026-04-05T14:02:48Z</time></trkpt><trkpt lat="44.35531847718073" lon="8.277477102954835"><ele>362.0</ele><time>2026-04-05T14:02:49Z</time></trkpt><trkpt lat="44.35539142747223" lon="8.277307550702865"><ele>362.0</ele><time>2026-04-05T14:02:50Z</time></trkpt><trkpt lat="44.355456607521745" lon="8.27713232485665"><ele>363.25</ele><time>2026-04-05T14:02:51Z</time></trkpt><trkpt lat="44.35553053083347" lon="8.276970957591256"><ele>364.5</ele><time>2026-04-05T14:02:52Z</time></trkpt><trkpt lat="44.355617133991764" lon="8.276819798282807"><ele>365.75</ele><time>2026-04-05T14:02:53Z</time></trkpt><trkpt lat="44.355704018176965" lon="8.27668269269181"><ele>367.0</ele><time>2026-04-05T14:02:54Z</time></trkpt><trkpt lat="44.35578449427397" lon="8.276569221169918"><ele>367.0</ele><time>2026-04-05T14:02:55Z</time></trkpt><trkpt lat="44.355862665764725" lon="8.276465793532859"><ele>367.0</ele><time>2026-04-05T14:02:56Z</time></trkpt><trkpt lat="44.35593108553338" lon="8.276379641608486"><ele>367.0</ele><time>2026-04-05T14:02:57Z</time></trkpt><trkpt lat="44.35599761590557" lon="8.276323643037008"><ele>367.0</ele><time>2026-04-05T14:02:58Z</time></trkpt><trkpt lat="44.35606340346983" lon="8.276284288188668"><ele>367.0</ele><time>2026-04-05T14:02:59Z</time></trkpt><trkpt lat="44.35611448186691" lon="8.276206441922177"><ele>367.0</ele><time>2026-04-05T14:03:00Z</time></trkpt><trkpt lat="44.35614125580028" lon="8.276078113641368"><ele>367.40000000000003</ele><time>2026-04-05T14:03:01Z</time></trkpt><trkpt lat="44.35615518642938" lon="8.275927683617068"><ele>367.8</ele><time>2026-04-05T14:03:02Z</time></trkpt><trkpt lat="44.356188373091136" lon="8.275792039383086"><ele>368.2</ele><time>2026-04-05T14:03:03Z</time></trkpt><trkpt lat="44.356208657752646" lon="8.275638528248752"><ele>368.6</ele><time>2026-04-05T14:03:04Z</time></trkpt><trkpt lat="44.35623054046231" lon="8.27548268165047"><ele>369.0</ele><time>2026-04-05T14:03:05Z</time></trkpt><trkpt lat="44.35624325064252" lon="8.27531478005213"><ele>369.0</ele><time>2026-04-05T14:03:06Z</time></trkpt><trkpt lat="44.35625460911204" lon="8.275140213388081"><ele>369.0</ele><time>2026-04-05T14:03:07Z</time></trkpt><trkpt lat="44.356270145071086" lon="8.274767511467246"><ele>369.0</ele><time>2026-04-05T14:03:09Z</time></trkpt><trkpt lat="44.356275876923036" lon="8.274574459506503"><ele>368.6666666666667</ele><time>2026-04-05T14:03:10Z</time></trkpt><trkpt lat="44.356287842760885" lon="8.274357507698722"><ele>368.33333333333337</ele><time>2026-04-05T14:03:10.999Z</time></trkpt><trkpt lat="44.35630447502908" lon="8.274140428620106"><ele>368.0</ele><time>2026-04-05T14:03:11.999Z</time></trkpt><trkpt lat="44.35632738237137" lon="8.2739166569861"><ele>369.0</ele><time>2026-04-05T14:03:12.999Z</time></trkpt><trkpt lat="44.356340341099134" lon="8.27367994495537"><ele>370.0</ele><time>2026-04-05T14:03:13.999Z</time></trkpt><trkpt lat="44.356342530637825" lon="8.2734340575328"><ele>371.0</ele><time>2026-04-05T14:03:14.999Z</time></trkpt><trkpt lat="44.35633398687924" lon="8.273180230171961"><ele>371.6666666666667</ele><time>2026-04-05T14:03:16Z</time></trkpt><trkpt lat="44.356315224279385" lon="8.272926335411116"><ele>372.3333333333333</ele><time>2026-04-05T14:03:17Z</time></trkpt><trkpt lat="44.35628534554082" lon="8.272685623763076"><ele>373.0</ele><time>2026-04-05T14:03:18Z</time></trkpt><trkpt lat="44.356249949980636" lon="8.27246635463492"><ele>374.0</ele><time>2026-04-05T14:03:19Z</time></trkpt><trkpt lat="44.356184845972024" lon="8.272270265597086"><ele>375.0</ele><time>2026-04-05T14:03:20Z</time></trkpt><trkpt lat="44.35613722827231" lon="8.272069973620251"><ele>376.0</ele><time>2026-04-05T14:03:21Z</time></trkpt><trkpt lat="44.356086665033835" lon="8.27188827161905"><ele>377.0</ele><time>2026-04-05T14:03:22Z</time></trkpt><trkpt lat="44.35602291783585" lon="8.27170899099852"><ele>377.0</ele><time>2026-04-05T14:03:23Z</time></trkpt><trkpt lat="44.35592932760104" lon="8.271536173104089"><ele>377.0</ele><time>2026-04-05T14:03:24Z</time></trkpt><trkpt lat="44.35581218327848" lon="8.271375932286903"><ele>377.0</ele><time>2026-04-05T14:03:25Z</time></trkpt><trkpt lat="44.35568420338335" lon="8.271226551846842"><ele>378.33333333333337</ele><time>2026-04-05T14:03:26Z</time></trkpt><trkpt lat="44.35555614295246" lon="8.271076160278758"><ele>379.6666666666667</ele><time>2026-04-05T14:03:27Z</time></trkpt><trkpt lat="44.35543173537279" lon="8.270926707502682"><ele>381.0</ele><time>2026-04-05T14:03:28Z</time></trkpt><trkpt lat="44.355325815682896" lon="8.270795559629866"><ele>381.0</ele><time>2026-04-05T14:03:29Z</time></trkpt><trkpt lat="44.35523619083617" lon="8.270675271924247"><ele>381.0</ele><time>2026-04-05T14:03:30Z</time></trkpt><trkpt lat="44.355152385313644" lon="8.270561973165716"><ele>381.0</ele><time>2026-04-05T14:03:30.999Z</time></trkpt><trkpt lat="44.35506256286978" lon="8.270436239130952"><ele>381.0</ele><time>2026-04-05T14:03:31.999Z</time></trkpt><trkpt lat="44.35497040295193" lon="8.270297774174812"><ele>380.5</ele><time>2026-04-05T14:03:32.999Z</time></trkpt><trkpt lat="44.3548774993992" lon="8.270152938974629"><ele>380.0</ele><time>2026-04-05T14:03:33.999Z</time></trkpt><trkpt lat="44.35478604033049" lon="8.270007338871249"><ele>379.5</ele><time>2026-04-05T14:03:34.999Z</time></trkpt><trkpt lat="44.354691580645095" lon="8.269858297223067"><ele>379.0</ele><time>2026-04-05T14:03:35.998Z</time></trkpt><trkpt lat="44.35459228207496" lon="8.269704222920561"><ele>382.0</ele><time>2026-04-05T14:03:36.998Z</time></trkpt><trkpt lat="44.354492370596176" lon="8.269541991810565"><ele>385.0</ele><time>2026-04-05T14:03:37.998Z</time></trkpt><trkpt lat="44.354389111347736" lon="8.269369575499045"><ele>388.0</ele><time>2026-04-05T14:03:38.998Z</time></trkpt><trkpt lat="44.354284901656584" lon="8.269190697304259"><ele>388.0</ele><time>2026-04-05T14:03:39.998Z</time></trkpt><trkpt lat="44.35417664901871" lon="8.26901626678789"><ele>388.0</ele><time>2026-04-05T14:03:40.998Z</time></trkpt><trkpt lat="44.35405625291048" lon="8.268854699606486"><ele>388.0</ele><time>2026-04-05T14:03:41.998Z</time></trkpt><trkpt lat="44.35393601747912" lon="8.268699236667517"><ele>387.33333333333337</ele><time>2026-04-05T14:03:42.997Z</time></trkpt><trkpt lat="44.35382622337238" lon="8.268538194616733"><ele>386.66666666666663</ele><time>2026-04-05T14:03:43.997Z</time></trkpt><trkpt lat="44.353727765524944" lon="8.268371523062173"><ele>386.0</ele><time>2026-04-05T14:03:44.997Z</time></trkpt><trkpt lat="44.35363888702226" lon="8.268215466691776"><ele>388.25</ele><time>2026-04-05T14:03:45.997Z</time></trkpt><trkpt lat="44.3535582095587" lon="8.268069907447972"><ele>390.5</ele><time>2026-04-05T14:03:46.997Z</time></trkpt><trkpt lat="44.35348508151294" lon="8.267927629180024"><ele>392.75</ele><time>2026-04-05T14:03:47.997Z</time></trkpt><trkpt lat="44.35341792852588" lon="8.267792077314816"><ele>395.0</ele><time>2026-04-05T14:03:48.997Z</time></trkpt><trkpt lat="44.35334370035191" lon="8.267663525458115"><ele>395.0</ele><time>2026-04-05T14:03:49.997Z</time></trkpt><trkpt lat="44.35326627957319" lon="8.267539747206568"><ele>395.0</ele><time>2026-04-05T14:03:50.997Z</time></trkpt><trkpt lat="44.35320128647317" lon="8.267425608449383"><ele>395.0</ele><time>2026-04-05T14:03:51.997Z</time></trkpt><trkpt lat="44.35312260088047" lon="8.267303899624324"><ele>395.0</ele><time>2026-04-05T14:03:52.997Z</time></trkpt><trkpt lat="44.35304496893495" lon="8.26717974043603"><ele>394.5</ele><time>2026-04-05T14:03:53.997Z</time></trkpt><trkpt lat="44.35296231525531" lon="8.267060129973789"><ele>394.0</ele><time>2026-04-05T14:03:54.996Z</time></trkpt><trkpt lat="44.35287358094121" lon="8.266943102922141"><ele>393.5</ele><time>2026-04-05T14:03:55.996Z</time></trkpt><trkpt lat="44.35278461407399" lon="8.266824256952269"><ele>393.0</ele><time>2026-04-05T14:03:56.996Z</time></trkpt><trkpt lat="44.35269880472296" lon="8.266704295678409"><ele>393.0</ele><time>2026-04-05T14:03:57.996Z</time></trkpt><trkpt lat="44.35262593468892" lon="8.26657213808179"><ele>393.0</ele><time>2026-04-05T14:03:58.996Z</time></trkpt><trkpt lat="44.352574170086065" lon="8.266423702654244"><ele>393.0</ele><time>2026-04-05T14:03:59.996Z</time></trkpt><trkpt lat="44.352515313853075" lon="8.266271988846272"><ele>393.0</ele><time>2026-04-05T14:04:00.996Z</time></trkpt><trkpt lat="44.35245785874438" lon="8.266124362216642"><ele>392.25</ele><time>2026-04-05T14:04:01.996Z</time></trkpt><trkpt lat="44.352396371482975" lon="8.265982371772278"><ele>391.5</ele><time>2026-04-05T14:04:02.996Z</time></trkpt><trkpt lat="44.352317403661566" lon="8.265853737011957"><ele>390.75</ele><time>2026-04-05T14:04:03.996Z</time></trkpt><trkpt lat="44.352222579935464" lon="8.265741142533942"><ele>390.0</ele><time>2026-04-05T14:04:04.996Z</time></trkpt><trkpt lat="44.3521226051249" lon="8.26562963172982"><ele>390.75</ele><time>2026-04-05T14:04:05.996Z</time></trkpt><trkpt lat="44.352025854195325" lon="8.265500707642522"><ele>391.5</ele><time>2026-04-05T14:04:06.996Z</time></trkpt><trkpt lat="44.351935950058966" lon="8.265366160035292"><ele>392.25</ele><time>2026-04-05T14:04:07.996Z</time></trkpt><trkpt lat="44.35183984854022" lon="8.265222911411431"><ele>393.0</ele><time>2026-04-05T14:04:08.996Z</time></trkpt><trkpt lat="44.35174321452459" lon="8.265081999869503"><ele>393.0</ele><time>2026-04-05T14:04:09.996Z</time></trkpt><trkpt lat="44.35164816581242" lon="8.26494017877027"><ele>393.0</ele><time>2026-04-05T14:04:10.996Z</time></trkpt><trkpt lat="44.351562753004" lon="8.264812291185958"><ele>393.0</ele><time>2026-04-05T14:04:11.996Z</time></trkpt><trkpt lat="44.35148226338418" lon="8.264692752156934"><ele>393.0</ele><time>2026-04-05T14:04:12.996Z</time></trkpt><trkpt lat="44.351405546023216" lon="8.264574373036167"><ele>392.4</ele><time>2026-04-05T14:04:13.996Z</time></trkpt><trkpt lat="44.35133568931057" lon="8.264465020891897"><ele>391.79999999999995</ele><time>2026-04-05T14:04:14.996Z</time></trkpt><trkpt lat="44.351269139061706" lon="8.26435818532538"><ele>391.2</ele><time>2026-04-05T14:04:15.996Z</time></trkpt><trkpt lat="44.35119476518723" lon="8.264231774114323"><ele>390.6</ele><time>2026-04-05T14:04:16.996Z</time></trkpt><trkpt lat="44.35111255586549" lon="8.26410826092239"><ele>390.0</ele><time>2026-04-05T14:04:17.996Z</time></trkpt><trkpt lat="44.35103722212606" lon="8.26398508541371"><ele>390.75</ele><time>2026-04-05T14:04:18.996Z</time></trkpt><trkpt lat="44.35096720905301" lon="8.263850204645424"><ele>391.5</ele><time>2026-04-05T14:04:19.996Z</time></trkpt><trkpt lat="44.350918608825125" lon="8.263702119545353"><ele>392.25</ele><time>2026-04-05T14:04:20.996Z</time></trkpt><trkpt lat="44.35088015968439" lon="8.263547928248672"><ele>393.0</ele><time>2026-04-05T14:04:21.996Z</time></trkpt><trkpt lat="44.350852649291774" lon="8.263383745863601"><ele>393.0</ele><time>2026-04-05T14:04:22.996Z</time></trkpt><trkpt lat="44.35083919619715" lon="8.263215783641131"><ele>393.0</ele><time>2026-04-05T14:04:23.996Z</time></trkpt><trkpt lat="44.35083603922732" lon="8.26304108587386"><ele>393.0</ele><time>2026-04-05T14:04:24.996Z</time></trkpt><trkpt lat="44.35084814556435" lon="8.26286758648714"><ele>393.0</ele><time>2026-04-05T14:04:25.996Z</time></trkpt><trkpt lat="44.35086206677199" lon="8.262691028091021"><ele>392.75</ele><time>2026-04-05T14:04:26.996Z</time></trkpt><trkpt lat="44.35087395273051" lon="8.262504356613771"><ele>392.5</ele><time>2026-04-05T14:04:27.996Z</time></trkpt><trkpt lat="44.3508926989616" lon="8.2623167831303"><ele>392.25</ele><time>2026-04-05T14:04:28.996Z</time></trkpt><trkpt lat="44.35088894153526" lon="8.262131319514713"><ele>392.0</ele><time>2026-04-05T14:04:29.996Z</time></trkpt><trkpt lat="44.35087801771757" lon="8.261943230024151"><ele>393.25</ele><time>2026-04-05T14:04:30.996Z</time></trkpt><trkpt lat="44.35085447455229" lon="8.261752796716134"><ele>394.5</ele><time>2026-04-05T14:04:31.996Z</time></trkpt><trkpt lat="44.35082365587274" lon="8.261561932785018"><ele>395.75</ele><time>2026-04-05T14:04:32.996Z</time></trkpt><trkpt lat="44.350782218567986" lon="8.261370156091711"><ele>397.0</ele><time>2026-04-05T14:04:33.996Z</time></trkpt><trkpt lat="44.35072908794601" lon="8.26117981755732"><ele>397.33333333333337</ele><time>2026-04-05T14:04:34.996Z</time></trkpt><trkpt lat="44.35066605073295" lon="8.260992458673222"><ele>397.66666666666663</ele><time>2026-04-05T14:04:35.996Z</time></trkpt><trkpt lat="44.35059772655197" lon="8.26080001031997"><ele>398.0</ele><time>2026-04-05T14:04:36.996Z</time></trkpt><trkpt lat="44.35052875863958" lon="8.260608148103556"><ele>398.0</ele><time>2026-04-05T14:04:37.996Z</time></trkpt><trkpt lat="44.350464579349264" lon="8.2604161325418"><ele>398.0</ele><time>2026-04-05T14:04:38.996Z</time></trkpt><trkpt lat="44.350399808301255" lon="8.260221913031394"><ele>398.0</ele><time>2026-04-05T14:04:39.996Z</time></trkpt><trkpt lat="44.350337274259964" lon="8.260037023285891"><ele>398.0</ele><time>2026-04-05T14:04:40.996Z</time></trkpt><trkpt lat="44.350279183450546" lon="8.25986341080551"><ele>398.0</ele><time>2026-04-05T14:04:41.996Z</time></trkpt><trkpt lat="44.35022269788022" lon="8.25969428502987"><ele>398.0</ele><time>2026-04-05T14:04:42.996Z</time></trkpt><trkpt lat="44.35016943634397" lon="8.259523336233483"><ele>398.0</ele><time>2026-04-05T14:04:43.996Z</time></trkpt><trkpt lat="44.350129228080526" lon="8.259330699231164"><ele>398.25</ele><time>2026-04-05T14:04:44.996Z</time></trkpt><trkpt lat="44.35010153922795" lon="8.259138211167937"><ele>398.5</ele><time>2026-04-05T14:04:45.996Z</time></trkpt><trkpt lat="44.350082429928136" lon="8.258930545265496"><ele>398.75</ele><time>2026-04-05T14:04:46.996Z</time></trkpt><trkpt lat="44.35006956614779" lon="8.258722293613042"><ele>399.0</ele><time>2026-04-05T14:04:47.996Z</time></trkpt><trkpt lat="44.350062530685264" lon="8.258531575476955"><ele>399.75</ele><time>2026-04-05T14:04:48.996Z</time></trkpt><trkpt lat="44.350056677767874" lon="8.258360526553789"><ele>400.5</ele><time>2026-04-05T14:04:49.996Z</time></trkpt><trkpt lat="44.35004903236575" lon="8.258199842539042"><ele>401.25</ele><time>2026-04-05T14:04:50.996Z</time></trkpt><trkpt lat="44.35004303304007" lon="8.258032766718037"><ele>402.0</ele><time>2026-04-05T14:04:51.996Z</time></trkpt><trkpt lat="44.35003381428858" lon="8.257874820319094"><ele>403.0</ele><time>2026-04-05T14:04:52.996Z</time></trkpt><trkpt lat="44.35002252491008" lon="8.25771441194886"><ele>404.0</ele><time>2026-04-05T14:04:53.995Z</time></trkpt><trkpt lat="44.350015053518156" lon="8.257558609363816"><ele>405.0</ele><time>2026-04-05T14:04:54.995Z</time></trkpt><trkpt lat="44.35000679362554" lon="8.257400446520363"><ele>406.0</ele><time>2026-04-05T14:04:55.995Z</time></trkpt><trkpt lat="44.350000903410574" lon="8.257234806255175"><ele>406.5</ele><time>2026-04-05T14:04:56.995Z</time></trkpt><trkpt lat="44.349999288189984" lon="8.25706409479961"><ele>407.0</ele><time>2026-04-05T14:04:57.995Z</time></trkpt><trkpt lat="44.34999716489254" lon="8.256891654660146"><ele>407.5</ele><time>2026-04-05T14:04:58.995Z</time></trkpt><trkpt lat="44.35000431235459" lon="8.256713397493314"><ele>408.0</ele><time>2026-04-05T14:04:59.995Z</time></trkpt><trkpt lat="44.3500124158359" lon="8.2565339309298"><ele>408.75</ele><time>2026-04-05T14:05:00.995Z</time></trkpt><trkpt lat="44.35001444879832" lon="8.256354657047533"><ele>409.5</ele><time>2026-04-05T14:05:01.995Z</time></trkpt><trkpt lat="44.350014029660855" lon="8.256193590802976"><ele>410.25</ele><time>2026-04-05T14:05:02.995Z</time></trkpt><trkpt lat="44.35001740749378" lon="8.256028298917846"><ele>411.0</ele><time>2026-04-05T14:05:03.995Z</time></trkpt><trkpt lat="44.35001719993312" lon="8.255862485805308"><ele>411.0</ele><time>2026-04-05T14:05:04.995Z</time></trkpt><trkpt lat="44.35000658835177" lon="8.255693820252212"><ele>411.0</ele><time>2026-04-05T14:05:05.995Z</time></trkpt><trkpt lat="44.349982926219205" lon="8.2555292305861"><ele>411.0</ele><time>2026-04-05T14:05:06.995Z</time></trkpt><trkpt lat="44.349966177919775" lon="8.255362245727765"><ele>411.0</ele><time>2026-04-05T14:05:07.995Z</time></trkpt><trkpt lat="44.34995794542866" lon="8.255190518262328"><ele>411.5</ele><time>2026-04-05T14:05:08.995Z</time></trkpt><trkpt lat="44.34995302192863" lon="8.255023503113618"><ele>412.0</ele><time>2026-04-05T14:05:09.995Z</time></trkpt><trkpt lat="44.34996073799984" lon="8.254868365831822"><ele>412.5</ele><time>2026-04-05T14:05:10.995Z</time></trkpt><trkpt lat="44.34997712044886" lon="8.254714450403842"><ele>413.0</ele><time>2026-04-05T14:05:11.995Z</time></trkpt><trkpt lat="44.350004065559" lon="8.254552409036693"><ele>413.0</ele><time>2026-04-05T14:05:12.995Z</time></trkpt><trkpt lat="44.35004401351059" lon="8.254397709466987"><ele>413.0</ele><time>2026-04-05T14:05:13.995Z</time></trkpt><trkpt lat="44.35009190750524" lon="8.254233851051772"><ele>413.0</ele><time>2026-04-05T14:05:14.995Z</time></trkpt><trkpt lat="44.35014842667643" lon="8.25407723875385"><ele>413.0</ele><time>2026-04-05T14:05:15.995Z</time></trkpt><trkpt lat="44.35020842197899" lon="8.25391504758679"><ele>413.25</ele><time>2026-04-05T14:05:16.995Z</time></trkpt><trkpt lat="44.35027108765402" lon="8.253754156348393"><ele>413.5</ele><time>2026-04-05T14:05:17.995Z</time></trkpt><trkpt lat="44.3503347157904" lon="8.253588436400078"><ele>413.75</ele><time>2026-04-05T14:05:18.995Z</time></trkpt><trkpt lat="44.35039371471641" lon="8.253417315578861"><ele>414.0</ele><time>2026-04-05T14:05:19.995Z</time></trkpt><trkpt lat="44.35044736822382" lon="8.253242885241669"><ele>414.0</ele><time>2026-04-05T14:05:20.995Z</time></trkpt><trkpt lat="44.35049474792472" lon="8.253063125385538"><ele>414.0</ele><time>2026-04-05T14:05:21.996Z</time></trkpt><trkpt lat="44.350539684342635" lon="8.252879825681108"><ele>414.0</ele><time>2026-04-05T14:05:22.996Z</time></trkpt><trkpt lat="44.35058443845307" lon="8.25269100379187"><ele>414.0</ele><time>2026-04-05T14:05:23.996Z</time></trkpt><trkpt lat="44.35062929176888" lon="8.25250418396133"><ele>415.75</ele><time>2026-04-05T14:05:24.996Z</time></trkpt><trkpt lat="44.350673960669816" lon="8.252325118056552"><ele>417.5</ele><time>2026-04-05T14:05:25.996Z</time></trkpt><trkpt lat="44.35071447170101" lon="8.252149906663986"><ele>419.25</ele><time>2026-04-05T14:05:26.997Z</time></trkpt><trkpt lat="44.35075422530921" lon="8.251970410837146"><ele>421.0</ele><time>2026-04-05T14:05:27.997Z</time></trkpt><trkpt lat="44.35079388303529" lon="8.251789440454939"><ele>421.0</ele><time>2026-04-05T14:05:28.997Z</time></trkpt><trkpt lat="44.350835810774896" lon="8.251607220922825"><ele>421.0</ele><time>2026-04-05T14:05:29.997Z</time></trkpt><trkpt lat="44.35087681466631" lon="8.251428853469342"><ele>421.0</ele><time>2026-04-05T14:05:30.997Z</time></trkpt><trkpt lat="44.350915490011836" lon="8.251258467079746"><ele>421.0</ele><time>2026-04-05T14:05:31.998Z</time></trkpt><trkpt lat="44.35095108019801" lon="8.251109192416756"><ele>420.8</ele><time>2026-04-05T14:05:32.998Z</time></trkpt><trkpt lat="44.3509811536403" lon="8.250975724407121"><ele>420.6</ele><time>2026-04-05T14:05:33.998Z</time></trkpt><trkpt lat="44.351011502013186" lon="8.250854737072297"><ele>420.4</ele><time>2026-04-05T14:05:34.998Z</time></trkpt><trkpt lat="44.35103583035149" lon="8.250761966397317"><ele>420.2</ele><time>2026-04-05T14:05:35.998Z</time></trkpt><trkpt lat="44.351072955171645" lon="8.25059288618598"><ele>420.0</ele><time>2026-04-05T14:05:37.998Z</time></trkpt><trkpt lat="44.35109859604156" lon="8.250490839154377"><ele>420.0</ele><time>2026-04-05T14:05:38.998Z</time></trkpt><trkpt lat="44.35112741788437" lon="8.250368821560002"><ele>420.0</ele><time>2026-04-05T14:05:39.999Z</time></trkpt><trkpt lat="44.351159131159996" lon="8.25023329608189"><ele>420.0</ele><time>2026-04-05T14:05:40.999Z</time></trkpt><trkpt lat="44.35119325599552" lon="8.250088074774514"><ele>420.0</ele><time>2026-04-05T14:05:41.999Z</time></trkpt><trkpt lat="44.35122417164907" lon="8.249929915229002"><ele>420.0</ele><time>2026-04-05T14:05:42.999Z</time></trkpt><trkpt lat="44.351256128622566" lon="8.249782073208115"><ele>420.0</ele><time>2026-04-05T14:05:43.999Z</time></trkpt><trkpt lat="44.3512869485929" lon="8.24963657506511"><ele>420.0</ele><time>2026-04-05T14:05:44.999Z</time></trkpt><trkpt lat="44.35132093356669" lon="8.249484836974506"><ele>420.0</ele><time>2026-04-05T14:05:45.999Z</time></trkpt><trkpt lat="44.351369201783825" lon="8.249331754077929"><ele>420.0</ele><time>2026-04-05T14:05:46.999Z</time></trkpt><trkpt lat="44.351438727024075" lon="8.249190890895557"><ele>421.0</ele><time>2026-04-05T14:05:47.999Z</time></trkpt><trkpt lat="44.3515221422669" lon="8.24906849633501"><ele>422.0</ele><time>2026-04-05T14:05:48.999Z</time></trkpt><trkpt lat="44.351611583898745" lon="8.248970728255939"><ele>423.0</ele><time>2026-04-05T14:05:49.999Z</time></trkpt><trkpt lat="44.35170773279895" lon="8.248899421881049"><ele>424.0</ele><time>2026-04-05T14:05:50.999Z</time></trkpt><trkpt lat="44.35181971682708" lon="8.248872860629074"><ele>425.5</ele><time>2026-04-05T14:05:51.999Z</time></trkpt><trkpt lat="44.35193415088575" lon="8.248872416664744"><ele>427.0</ele><time>2026-04-05T14:05:52.999Z</time></trkpt><trkpt lat="44.352058201114296" lon="8.248868654270149"><ele>428.5</ele><time>2026-04-05T14:05:53.999Z</time></trkpt><trkpt lat="44.35218518507026" lon="8.248853681627802"><ele>430.0</ele><time>2026-04-05T14:05:54.999Z</time></trkpt><trkpt lat="44.35231995899047" lon="8.248856275496394"><ele>432.75</ele><time>2026-04-05T14:05:55.999Z</time></trkpt><trkpt lat="44.352448936806624" lon="8.248849915011236"><ele>435.5</ele><time>2026-04-05T14:05:56.999Z</time></trkpt><trkpt lat="44.35258248273134" lon="8.248844657931869"><ele>438.25</ele><time>2026-04-05T14:05:57.999Z</time></trkpt><trkpt lat="44.35270899191603" lon="8.248839448746457"><ele>441.0</ele><time>2026-04-05T14:05:58.999Z</time></trkpt><trkpt lat="44.352820586846484" lon="8.248838902492377"><ele>441.0</ele><time>2026-04-05T14:05:59.999Z</time></trkpt><trkpt lat="44.35291123504689" lon="8.248826839329176"><ele>441.0</ele><time>2026-04-05T14:06:00.999Z</time></trkpt><trkpt lat="44.35297300623805" lon="8.248784955557186"><ele>441.0</ele><time>2026-04-05T14:06:02Z</time></trkpt><trkpt lat="44.35300173170654" lon="8.248603328098453"><ele>441.0</ele><time>2026-04-05T14:06:04Z</time></trkpt><trkpt lat="44.35295479068122" lon="8.248508262027286"><ele>441.0</ele><time>2026-04-05T14:06:05Z</time></trkpt><trkpt lat="44.352868607089796" lon="8.248459690036299"><ele>441.0</ele><time>2026-04-05T14:06:06Z</time></trkpt><trkpt lat="44.35275884643338" lon="8.248449198529526"><ele>441.0</ele><time>2026-04-05T14:06:07Z</time></trkpt><trkpt lat="44.352638094237335" lon="8.248432367638413"><ele>441.0</ele><time>2026-04-05T14:06:08Z</time></trkpt><trkpt lat="44.35252405120664" lon="8.248402026182319"><ele>441.0</ele><time>2026-04-05T14:06:09Z</time></trkpt><trkpt lat="44.35241469071001" lon="8.248349868376947"><ele>441.0</ele><time>2026-04-05T14:06:10Z</time></trkpt><trkpt lat="44.35231790449367" lon="8.248253500802011"><ele>441.0</ele><time>2026-04-05T14:06:11Z</time></trkpt><trkpt lat="44.35224398438902" lon="8.24810966819308"><ele>441.0</ele><time>2026-04-05T14:06:12Z</time></trkpt><trkpt lat="44.352203943003474" lon="8.24794417827672"><ele>441.0</ele><time>2026-04-05T14:06:13Z</time></trkpt><trkpt lat="44.35221155259825" lon="8.247772054119546"><ele>441.5</ele><time>2026-04-05T14:06:14Z</time></trkpt><trkpt lat="44.352258493286485" lon="8.247607412773625"><ele>442.0</ele><time>2026-04-05T14:06:15Z</time></trkpt><trkpt lat="44.35235020670962" lon="8.247471318108285"><ele>442.5</ele><time>2026-04-05T14:06:16Z</time></trkpt><trkpt lat="44.35247361838723" lon="8.247348777815919"><ele>443.0</ele><time>2026-04-05T14:06:17Z</time></trkpt><trkpt lat="44.35260711902609" lon="8.247232936543847"><ele>443.0</ele><time>2026-04-05T14:06:18Z</time></trkpt><trkpt lat="44.352752374961824" lon="8.247124156084956"><ele>443.0</ele><time>2026-04-05T14:06:19Z</time></trkpt><trkpt lat="44.35289423887433" lon="8.247007269619038"><ele>443.0</ele><time>2026-04-05T14:06:20Z</time></trkpt><trkpt lat="44.353032845325224" lon="8.246881448038"><ele>448.0</ele><time>2026-04-05T14:06:21Z</time></trkpt><trkpt lat="44.35317423569195" lon="8.24675346014178"><ele>453.0</ele><time>2026-04-05T14:06:22Z</time></trkpt><trkpt lat="44.35331859690966" lon="8.246621894668964"><ele>458.0</ele><time>2026-04-05T14:06:23Z</time></trkpt><trkpt lat="44.353458564853355" lon="8.246474986390885"><ele>458.66666666666663</ele><time>2026-04-05T14:06:24Z</time></trkpt><trkpt lat="44.353600089815465" lon="8.246320222967094"><ele>459.33333333333337</ele><time>2026-04-05T14:06:25Z</time></trkpt><trkpt lat="44.35373654576399" lon="8.246175341810392"><ele>460.0</ele><time>2026-04-05T14:06:26Z</time></trkpt><trkpt lat="44.35387221245254" lon="8.24604684103964"><ele>460.0</ele><time>2026-04-05T14:06:27Z</time></trkpt><trkpt lat="44.35400935327347" lon="8.245931216541429"><ele>460.0</ele><time>2026-04-05T14:06:28Z</time></trkpt><trkpt lat="44.35415691178051" lon="8.245828938927852"><ele>460.0</ele><time>2026-04-05T14:06:29Z</time></trkpt><trkpt lat="44.354325350878334" lon="8.245752229304216"><ele>460.0</ele><time>2026-04-05T14:06:30Z</time></trkpt><trkpt lat="44.354500057862616" lon="8.245638713252394"><ele>460.0</ele><time>2026-04-05T14:06:31Z</time></trkpt><trkpt lat="44.35468774286134" lon="8.245502515557764"><ele>460.0</ele><time>2026-04-05T14:06:32Z</time></trkpt><trkpt lat="44.354866741469124" lon="8.245359431736397"><ele>463.33333333333337</ele><time>2026-04-05T14:06:33Z</time></trkpt><trkpt lat="44.355010351773295" lon="8.245216923752198"><ele>466.66666666666663</ele><time>2026-04-05T14:06:34Z</time></trkpt><trkpt lat="44.35513432338167" lon="8.24509306004768"><ele>470.0</ele><time>2026-04-05T14:06:35Z</time></trkpt><trkpt lat="44.35523637921426" lon="8.24497676968972"><ele>469.99999999999994</ele><time>2026-04-05T14:06:36Z</time></trkpt><trkpt lat="44.35530814200932" lon="8.244896562874473"><ele>470.0</ele><time>2026-04-05T14:06:37Z</time></trkpt><trkpt lat="44.35537053909336" lon="8.244849151959889"><ele>470.0</ele><time>2026-04-05T14:06:38Z</time></trkpt><trkpt lat="44.35543676077879" lon="8.244890944297849"><ele>470.0</ele><time>2026-04-05T14:06:39Z</time></trkpt><trkpt lat="44.35549370985126" lon="8.24498044024654"><ele>469.99999999999994</ele><time>2026-04-05T14:06:40Z</time></trkpt><trkpt lat="44.355503553424825" lon="8.245094967857947"><ele>470.0</ele><time>2026-04-05T14:06:41Z</time></trkpt><trkpt lat="44.35546359169698" lon="8.2452231892453"><ele>470.0</ele><time>2026-04-05T14:06:42Z</time></trkpt><trkpt lat="44.35538559346635" lon="8.245349999997657"><ele>470.0</ele><time>2026-04-05T14:06:43Z</time></trkpt><trkpt lat="44.3552826026776" lon="8.24548863716213"><ele>470.0</ele><time>2026-04-05T14:06:44Z</time></trkpt><trkpt lat="44.355170594676956" lon="8.245622777452754"><ele>470.0</ele><time>2026-04-05T14:06:45Z</time></trkpt><trkpt lat="44.355051144101765" lon="8.245758197911423"><ele>472.3333333333333</ele><time>2026-04-05T14:06:46Z</time></trkpt><trkpt lat="44.35491520326553" lon="8.24589196119525"><ele>474.66666666666663</ele><time>2026-04-05T14:06:47Z</time></trkpt><trkpt lat="44.35478277298601" lon="8.245994857986501"><ele>477.0</ele><time>2026-04-05T14:06:48Z</time></trkpt><trkpt lat="44.354666019793676" lon="8.24608270801504"><ele>476.6</ele><time>2026-04-05T14:06:49Z</time></trkpt><trkpt lat="44.35455803132892" lon="8.246166463188283"><ele>476.20000000000005</ele><time>2026-04-05T14:06:50Z</time></trkpt><trkpt lat="44.354460981335464" lon="8.24623428669101"><ele>475.8</ele><time>2026-04-05T14:06:51Z</time></trkpt><trkpt lat="44.354380060231776" lon="8.246302106972836"><ele>475.4</ele><time>2026-04-05T14:06:52Z</time></trkpt><trkpt lat="44.354317518723775" lon="8.246377257350499"><ele>475.0</ele><time>2026-04-05T14:06:53Z</time></trkpt><trkpt lat="44.35427397167514" lon="8.246462177705848"><ele>475.00000000000006</ele><time>2026-04-05T14:06:54Z</time></trkpt><trkpt lat="44.35425335599118" lon="8.246564571417238"><ele>475.0</ele><time>2026-04-05T14:06:55Z</time></trkpt><trkpt lat="44.35426777554234" lon="8.246659911440027"><ele>475.0</ele><time>2026-04-05T14:06:56Z</time></trkpt><trkpt lat="44.35432038595584" lon="8.246767676939832"><ele>475.0</ele><time>2026-04-05T14:06:58Z</time></trkpt><trkpt lat="44.3544029527897" lon="8.246817971444013"><ele>475.00000000000006</ele><time>2026-04-05T14:07:00Z</time></trkpt><trkpt lat="44.354472015132764" lon="8.246809922784369"><ele>475.0</ele><time>2026-04-05T14:07:01Z</time></trkpt><trkpt lat="44.35457048696264" lon="8.246786239975705"><ele>475.0</ele><time>2026-04-05T14:07:02Z</time></trkpt><trkpt lat="44.35468188052187" lon="8.2467305286615"><ele>475.0</ele><time>2026-04-05T14:07:03Z</time></trkpt><trkpt lat="44.35480938538929" lon="8.246657965271917"><ele>475.0</ele><time>2026-04-05T14:07:04Z</time></trkpt><trkpt lat="44.35493147257744" lon="8.246562201921693"><ele>475.0</ele><time>2026-04-05T14:07:05Z</time></trkpt><trkpt lat="44.35507384533568" lon="8.246471285521089"><ele>475.6666666666667</ele><time>2026-04-05T14:07:06Z</time></trkpt><trkpt lat="44.3552383709434" lon="8.246389060469179"><ele>476.33333333333337</ele><time>2026-04-05T14:07:07Z</time></trkpt><trkpt lat="44.35540931156417" lon="8.246257314051489"><ele>477.0</ele><time>2026-04-05T14:07:08Z</time></trkpt><trkpt lat="44.355590496405746" lon="8.246159776689236"><ele>481.0</ele><time>2026-04-05T14:07:09Z</time></trkpt><trkpt lat="44.35576978947041" lon="8.246020906883505"><ele>485.0</ele><time>2026-04-05T14:07:10Z</time></trkpt><trkpt lat="44.35591732766381" lon="8.24586104377408"><ele>489.0</ele><time>2026-04-05T14:07:11Z</time></trkpt><trkpt lat="44.35606159945947" lon="8.245754075891737"><ele>486.66666666666663</ele><time>2026-04-05T14:07:12Z</time></trkpt><trkpt lat="44.356187782793825" lon="8.245624543004118"><ele>484.3333333333333</ele><time>2026-04-05T14:07:13Z</time></trkpt><trkpt lat="44.356288864552475" lon="8.245464303861594"><ele>482.0</ele><time>2026-04-05T14:07:14Z</time></trkpt><trkpt lat="44.3563756074233" lon="8.245278710480642"><ele>487.66666666666663</ele><time>2026-04-05T14:07:15Z</time></trkpt><trkpt lat="44.35641842375148" lon="8.24507095945236"><ele>493.33333333333337</ele><time>2026-04-05T14:07:16Z</time></trkpt><trkpt lat="44.35642665487761" lon="8.244834133149697"><ele>499.0</ele><time>2026-04-05T14:07:17Z</time></trkpt><trkpt lat="44.35642274716012" lon="8.244577468516011"><ele>499.0</ele><time>2026-04-05T14:07:18Z</time></trkpt><trkpt lat="44.35639986122294" lon="8.24433189966376"><ele>499.0</ele><time>2026-04-05T14:07:19Z</time></trkpt><trkpt lat="44.356359979322775" lon="8.244105892801695"><ele>499.0</ele><time>2026-04-05T14:07:20Z</time></trkpt><trkpt lat="44.356321857030714" lon="8.243904773187593"><ele>498.75</ele><time>2026-04-05T14:07:21Z</time></trkpt><trkpt lat="44.356298778671814" lon="8.243729149458158"><ele>498.5</ele><time>2026-04-05T14:07:22Z</time></trkpt><trkpt lat="44.356310328165506" lon="8.2435651380811"><ele>498.25</ele><time>2026-04-05T14:07:23Z</time></trkpt><trkpt lat="44.356377952147305" lon="8.243419992448144"><ele>498.0</ele><time>2026-04-05T14:07:24Z</time></trkpt><trkpt lat="44.356482135541896" lon="8.24328813397511"><ele>498.0</ele><time>2026-04-05T14:07:25Z</time></trkpt><trkpt lat="44.356599016591105" lon="8.243145213244965"><ele>498.0</ele><time>2026-04-05T14:07:26Z</time></trkpt><trkpt lat="44.35669596037035" lon="8.242989233749514"><ele>498.0</ele><time>2026-04-05T14:07:27Z</time></trkpt><trkpt lat="44.35680678881102" lon="8.242843864210661"><ele>496.33333333333337</ele><time>2026-04-05T14:07:28Z</time></trkpt><trkpt lat="44.35690390902155" lon="8.24265120887649"><ele>494.6666666666667</ele><time>2026-04-05T14:07:29Z</time></trkpt><trkpt lat="44.356991662455066" lon="8.242447017922062"><ele>493.0</ele><time>2026-04-05T14:07:30Z</time></trkpt><trkpt lat="44.35708143175874" lon="8.24226540163059"><ele>493.0</ele><time>2026-04-05T14:07:31Z</time></trkpt><trkpt lat="44.357168951603285" lon="8.24209484235439"><ele>493.0</ele><time>2026-04-05T14:07:32Z</time></trkpt><trkpt lat="44.35725011055963" lon="8.24193325975154"><ele>493.0</ele><time>2026-04-05T14:07:33Z</time></trkpt><trkpt lat="44.35732510763276" lon="8.241796437720117"><ele>493.0</ele><time>2026-04-05T14:07:34Z</time></trkpt><trkpt lat="44.35740428324446" lon="8.241685783435328"><ele>493.0</ele><time>2026-04-05T14:07:35Z</time></trkpt><trkpt lat="44.35750090062647" lon="8.241606406292368"><ele>493.0</ele><time>2026-04-05T14:07:36Z</time></trkpt><trkpt lat="44.357647507408046" lon="8.241622322582877"><ele>493.0</ele><time>2026-04-05T14:07:37Z</time></trkpt><trkpt lat="44.35780954114457" lon="8.241572828674254"><ele>493.0</ele><time>2026-04-05T14:07:38Z</time></trkpt><trkpt lat="44.357969196363065" lon="8.241477805432512"><ele>493.0</ele><time>2026-04-05T14:07:39Z</time></trkpt><trkpt lat="44.35812510271813" lon="8.241329578059434"><ele>493.0</ele><time>2026-04-05T14:07:40Z</time></trkpt><trkpt lat="44.35830597303366" lon="8.241189076207311"><ele>493.0</ele><time>2026-04-05T14:07:41Z</time></trkpt><trkpt lat="44.3585027326582" lon="8.241022280726563"><ele>493.0</ele><time>2026-04-05T14:07:42Z</time></trkpt><trkpt lat="44.358720284270575" lon="8.2408053118366"><ele>493.0</ele><time>2026-04-05T14:07:43Z</time></trkpt><trkpt lat="44.35896083192657" lon="8.240604115065253"><ele>495.0</ele><time>2026-04-05T14:07:44Z</time></trkpt><trkpt lat="44.35916218677773" lon="8.24043110752946"><ele>497.0</ele><time>2026-04-05T14:07:45Z</time></trkpt><trkpt lat="44.35934375516944" lon="8.24027470402824"><ele>497.0</ele><time>2026-04-05T14:07:46Z</time></trkpt><trkpt lat="44.35949428398959" lon="8.240148431773132"><ele>497.0</ele><time>2026-04-05T14:07:47Z</time></trkpt><trkpt lat="44.35962789983223" lon="8.240101182380132"><ele>497.0</ele><time>2026-04-05T14:07:48Z</time></trkpt><trkpt lat="44.35974509416596" lon="8.240094260654546"><ele>497.0</ele><time>2026-04-05T14:07:49Z</time></trkpt><trkpt lat="44.35984987415457" lon="8.240184681593497"><ele>493.3333333333333</ele><time>2026-04-05T14:07:50Z</time></trkpt><trkpt lat="44.35999812502452" lon="8.240297642415658"><ele>489.66666666666663</ele><time>2026-04-05T14:07:51Z</time></trkpt><trkpt lat="44.3601681390746" lon="8.240410043782665"><ele>486.0</ele><time>2026-04-05T14:07:52Z</time></trkpt><trkpt lat="44.360331039828466" lon="8.240465296158419"><ele>486.0</ele><time>2026-04-05T14:07:53Z</time></trkpt><trkpt lat="44.360513927878344" lon="8.240478964098742"><ele>486.0</ele><time>2026-04-05T14:07:54Z</time></trkpt><trkpt lat="44.36073181175605" lon="8.240414227400505"><ele>486.0</ele><time>2026-04-05T14:07:55Z</time></trkpt><trkpt lat="44.36095746001986" lon="8.240337813315975"><ele>484.75</ele><time>2026-04-05T14:07:56Z</time></trkpt><trkpt lat="44.36114065031071" lon="8.240317419518622"><ele>483.5</ele><time>2026-04-05T14:07:57Z</time></trkpt><trkpt lat="44.36128191347432" lon="8.24031462062935"><ele>482.25</ele><time>2026-04-05T14:07:58Z</time></trkpt><trkpt lat="44.361391258875386" lon="8.240306831642712"><ele>481.0</ele><time>2026-04-05T14:07:59Z</time></trkpt><trkpt lat="44.361488082020095" lon="8.240245368651756"><ele>479.0</ele><time>2026-04-05T14:08:00Z</time></trkpt><trkpt lat="44.36155458583757" lon="8.240112676954864"><ele>477.0</ele><time>2026-04-05T14:08:01Z</time></trkpt><trkpt lat="44.36159403343592" lon="8.239906224431808"><ele>475.0</ele><time>2026-04-05T14:08:02Z</time></trkpt><trkpt lat="44.36159672417447" lon="8.239648291010113"><ele>475.0</ele><time>2026-04-05T14:08:03Z</time></trkpt><trkpt lat="44.36161294492583" lon="8.239431161603965"><ele>475.0</ele><time>2026-04-05T14:08:04Z</time></trkpt><trkpt lat="44.361656754412486" lon="8.239311339409566"><ele>475.0</ele><time>2026-04-05T14:08:05Z</time></trkpt><trkpt lat="44.36174124791053" lon="8.239277354642956"><ele>475.0</ele><time>2026-04-05T14:08:06Z</time></trkpt><trkpt lat="44.36182159989785" lon="8.239316717555367"><ele>475.0</ele><time>2026-04-05T14:08:07Z</time></trkpt><trkpt lat="44.36191080817156" lon="8.239380147479377"><ele>475.0</ele><time>2026-04-05T14:08:08Z</time></trkpt><trkpt lat="44.3620628061123" lon="8.239429782090534"><ele>475.0</ele><time>2026-04-05T14:08:09Z</time></trkpt><trkpt lat="44.36219364008063" lon="8.23947303608758"><ele>475.0</ele><time>2026-04-05T14:08:10Z</time></trkpt><trkpt lat="44.362297991622896" lon="8.2395249233435"><ele>475.0</ele><time>2026-04-05T14:08:11Z</time></trkpt><trkpt lat="44.3623614475572" lon="8.239595726531167"><ele>472.6</ele><time>2026-04-05T14:08:13Z</time></trkpt><trkpt lat="44.36238659569552" lon="8.239681768447795"><ele>470.2</ele><time>2026-04-05T14:08:14Z</time></trkpt><trkpt lat="44.362478166963434" lon="8.239762260361118"><ele>467.79999999999995</ele><time>2026-04-05T14:08:16Z</time></trkpt><trkpt lat="44.36256156186916" lon="8.23964616706519"><ele>465.4</ele><time>2026-04-05T14:08:18Z</time></trkpt><trkpt lat="44.362553659802536" lon="8.239535545244276"><ele>463.0</ele><time>2026-04-05T14:08:19Z</time></trkpt><trkpt lat="44.36252545127466" lon="8.239425075525602"><ele>463.00000000000006</ele><time>2026-04-05T14:08:20Z</time></trkpt><trkpt lat="44.36251519183726" lon="8.23931304269875"><ele>463.0</ele><time>2026-04-05T14:08:21Z</time></trkpt><trkpt lat="44.362519452086055" lon="8.239189503414739"><ele>463.0</ele><time>2026-04-05T14:08:22Z</time></trkpt><trkpt lat="44.36254614103213" lon="8.239096132056162"><ele>463.0</ele><time>2026-04-05T14:08:23Z</time></trkpt><trkpt lat="44.36256421979306" lon="8.238995346477433"><ele>463.00000000000006</ele><time>2026-04-05T14:08:24Z</time></trkpt><trkpt lat="44.36258318379999" lon="8.238904658209648"><ele>463.0</ele><time>2026-04-05T14:08:25Z</time></trkpt><trkpt lat="44.3625970765538" lon="8.238796510059146"><ele>463.2</ele><time>2026-04-05T14:08:26Z</time></trkpt><trkpt lat="44.36261740775023" lon="8.238682155862017"><ele>463.4</ele><time>2026-04-05T14:08:27Z</time></trkpt><trkpt lat="44.3626333055586" lon="8.238561901763905"><ele>463.59999999999997</ele><time>2026-04-05T14:08:28Z</time></trkpt><trkpt lat="44.36264508113486" lon="8.23842716776086"><ele>463.79999999999995</ele><time>2026-04-05T14:08:29Z</time></trkpt><trkpt lat="44.36267039328837" lon="8.238287524554853"><ele>464.0</ele><time>2026-04-05T14:08:30Z</time></trkpt><trkpt lat="44.36268833680482" lon="8.238123103629846"><ele>464.3333333333333</ele><time>2026-04-05T14:08:31Z</time></trkpt><trkpt lat="44.362688133244724" lon="8.23793027945821"><ele>464.66666666666663</ele><time>2026-04-05T14:08:32Z</time></trkpt><trkpt lat="44.362664785709214" lon="8.237710158369524"><ele>465.0</ele><time>2026-04-05T14:08:33Z</time></trkpt><trkpt lat="44.36260763961442" lon="8.2374290525039"><ele>467.5</ele><time>2026-04-05T14:08:34Z</time></trkpt><trkpt lat="44.362531193467234" lon="8.237094775984787"><ele>470.0</ele><time>2026-04-05T14:08:35Z</time></trkpt><trkpt lat="44.36244747408155" lon="8.23671302887813"><ele>473.5</ele><time>2026-04-05T14:08:36Z</time></trkpt><trkpt lat="44.36236153056846" lon="8.23629744767554"><ele>477.0</ele><time>2026-04-05T14:08:37Z</time></trkpt><trkpt lat="44.36227169634659" lon="8.235871121342525"><ele>474.5</ele><time>2026-04-05T14:08:38Z</time></trkpt><trkpt lat="44.36219191121856" lon="8.235503935670835"><ele>472.0</ele><time>2026-04-05T14:08:39Z</time></trkpt><trkpt lat="44.362120641587204" lon="8.235182727432814"><ele>472.0</ele><time>2026-04-05T14:08:40Z</time></trkpt><trkpt lat="44.36205749776114" lon="8.234880323567094"><ele>472.0</ele><time>2026-04-05T14:08:41Z</time></trkpt><trkpt lat="44.36200209622789" lon="8.234603888588063"><ele>472.0</ele><time>2026-04-05T14:08:42Z</time></trkpt><trkpt lat="44.36194472304247" lon="8.234333641821964"><ele>475.5</ele><time>2026-04-05T14:08:43Z</time></trkpt><trkpt lat="44.361862593134475" lon="8.234049604918232"><ele>479.0</ele><time>2026-04-05T14:08:44Z</time></trkpt><trkpt lat="44.36173729989174" lon="8.233763942488018"><ele>480.5</ele><time>2026-04-05T14:08:45Z</time></trkpt><trkpt lat="44.36156414318546" lon="8.233488660801248"><ele>482.0</ele><time>2026-04-05T14:08:46Z</time></trkpt><trkpt lat="44.3613647554749" lon="8.233203252245573"><ele>489.0</ele><time>2026-04-05T14:08:47Z</time></trkpt><trkpt lat="44.36117066915725" lon="8.232916833028488"><ele>496.0</ele><time>2026-04-05T14:08:48Z</time></trkpt><trkpt lat="44.36099825031196" lon="8.23264896433762"><ele>496.0</ele><time>2026-04-05T14:08:49Z</time></trkpt><trkpt lat="44.36085042835905" lon="8.23241288454523"><ele>496.0</ele><time>2026-04-05T14:08:50Z</time></trkpt><trkpt lat="44.36071211032565" lon="8.232165925880613"><ele>496.0</ele><time>2026-04-05T14:08:51Z</time></trkpt><trkpt lat="44.36058115541055" lon="8.23186031126724"><ele>497.0</ele><time>2026-04-05T14:08:52Z</time></trkpt><trkpt lat="44.36044678732195" lon="8.231514173213894"><ele>498.0</ele><time>2026-04-05T14:08:53Z</time></trkpt><trkpt lat="44.360301607184425" lon="8.231164843948903"><ele>502.0</ele><time>2026-04-05T14:08:54Z</time></trkpt><trkpt lat="44.36014870164434" lon="8.230813381323964"><ele>506.0</ele><time>2026-04-05T14:08:55Z</time></trkpt><trkpt lat="44.35998838838393" lon="8.230444506172583"><ele>509.5</ele><time>2026-04-05T14:08:56Z</time></trkpt><trkpt lat="44.35982890066861" lon="8.230082528881816"><ele>513.0</ele><time>2026-04-05T14:08:57Z</time></trkpt><trkpt lat="44.359685279770844" lon="8.22974807934525"><ele>513.5</ele><time>2026-04-05T14:08:58Z</time></trkpt><trkpt lat="44.35955483758093" lon="8.229444207070268"><ele>514.0</ele><time>2026-04-05T14:08:59Z</time></trkpt><trkpt lat="44.35942119717579" lon="8.229157996278586"><ele>518.0</ele><time>2026-04-05T14:09:00Z</time></trkpt><trkpt lat="44.359271087733276" lon="8.228864755803002"><ele>522.0</ele><time>2026-04-05T14:09:01Z</time></trkpt><trkpt lat="44.35911294048903" lon="8.22857968837672"><ele>522.0</ele><time>2026-04-05T14:09:02Z</time></trkpt><trkpt lat="44.35894930849768" lon="8.228291234775513"><ele>522.0</ele><time>2026-04-05T14:09:03Z</time></trkpt><trkpt lat="44.35879040474238" lon="8.228018527812901"><ele>524.0</ele><time>2026-04-05T14:09:04Z</time></trkpt><trkpt lat="44.35863795740615" lon="8.227768941751323"><ele>526.0</ele><time>2026-04-05T14:09:05Z</time></trkpt><trkpt lat="44.358499309476045" lon="8.227539700288556"><ele>528.0</ele><time>2026-04-05T14:09:06Z</time></trkpt><trkpt lat="44.35836788775792" lon="8.227331519162076"><ele>529.3333333333334</ele><time>2026-04-05T14:09:07Z</time></trkpt><trkpt lat="44.358247593322865" lon="8.227142855952927"><ele>530.6666666666667</ele><time>2026-04-05T14:09:08Z</time></trkpt><trkpt lat="44.35813959999647" lon="8.226962129808207"><ele>532.0</ele><time>2026-04-05T14:09:09Z</time></trkpt><trkpt lat="44.35805659980753" lon="8.226764713894845"><ele>531.3333333333334</ele><time>2026-04-05T14:09:09.999Z</time></trkpt><trkpt lat="44.358018802018705" lon="8.226527262528512"><ele>530.6666666666666</ele><time>2026-04-05T14:09:10.999Z</time></trkpt><trkpt lat="44.35797139297296" lon="8.226276021494185"><ele>530.0</ele><time>2026-04-05T14:09:11.999Z</time></trkpt><trkpt lat="44.35794832966322" lon="8.225989735286683"><ele>528.0</ele><time>2026-04-05T14:09:12.999Z</time></trkpt><trkpt lat="44.35791325714298" lon="8.225682241908707"><ele>526.0</ele><time>2026-04-05T14:09:13.999Z</time></trkpt><trkpt lat="44.35787298655665" lon="8.225356460987088"><ele>524.0</ele><time>2026-04-05T14:09:14.999Z</time></trkpt><trkpt lat="44.35782849831392" lon="8.225013941699919"><ele>522.0</ele><time>2026-04-05T14:09:15.999Z</time></trkpt><trkpt lat="44.35777176534282" lon="8.224658012894144"><ele>519.0</ele><time>2026-04-05T14:09:16.999Z</time></trkpt><trkpt lat="44.357697053795825" lon="8.224295833188274"><ele>516.0</ele><time>2026-04-05T14:09:17.999Z</time></trkpt><trkpt lat="44.3576117004169" lon="8.223935455815928"><ele>514.5</ele><time>2026-04-05T14:09:18.999Z</time></trkpt><trkpt lat="44.35752412218412" lon="8.223581848179672"><ele>513.0</ele><time>2026-04-05T14:09:19.999Z</time></trkpt><trkpt lat="44.35743965204701" lon="8.223239074898942"><ele>511.66666666666663</ele><time>2026-04-05T14:09:20.999Z</time></trkpt><trkpt lat="44.35736788419017" lon="8.222930729138671"><ele>510.3333333333333</ele><time>2026-04-05T14:09:21.999Z</time></trkpt><trkpt lat="44.357308984952375" lon="8.222641796982392"><ele>509.0</ele><time>2026-04-05T14:09:22.999Z</time></trkpt><trkpt lat="44.357294049958064" lon="8.222343972959521"><ele>504.5</ele><time>2026-04-05T14:09:23.999Z</time></trkpt><trkpt lat="44.357283047124255" lon="8.222016384996751"><ele>500.0</ele><time>2026-04-05T14:09:24.999Z</time></trkpt><trkpt lat="44.35726216109353" lon="8.221708005909628"><ele>496.3333333333333</ele><time>2026-04-05T14:09:25.999Z</time></trkpt><trkpt lat="44.357301234359774" lon="8.221443700211838"><ele>492.66666666666663</ele><time>2026-04-05T14:09:26.999Z</time></trkpt><trkpt lat="44.357350557720416" lon="8.221193986534919"><ele>489.0</ele><time>2026-04-05T14:09:27.999Z</time></trkpt><trkpt lat="44.35740771050255" lon="8.220991884946113"><ele>489.0</ele><time>2026-04-05T14:09:28.999Z</time></trkpt><trkpt lat="44.357469593653676" lon="8.220844896184296"><ele>489.0</ele><time>2026-04-05T14:09:29.999Z</time></trkpt><trkpt lat="44.35755573734271" lon="8.220737330177469"><ele>489.0</ele><time>2026-04-05T14:09:30.999Z</time></trkpt><trkpt lat="44.35769371187073" lon="8.220695633118874"><ele>489.0</ele><time>2026-04-05T14:09:31.999Z</time></trkpt><trkpt lat="44.357881174925325" lon="8.220643199351302"><ele>484.5</ele><time>2026-04-05T14:09:32.999Z</time></trkpt><trkpt lat="44.358109948869966" lon="8.220631063561036"><ele>480.0</ele><time>2026-04-05T14:09:34Z</time></trkpt><trkpt lat="44.35833073788575" lon="8.220594771105112"><ele>480.0</ele><time>2026-04-05T14:09:35Z</time></trkpt><trkpt lat="44.35848995522294" lon="8.220559546264552"><ele>480.0</ele><time>2026-04-05T14:09:36Z</time></trkpt><trkpt lat="44.35861629781327" lon="8.220494795870787"><ele>480.0</ele><time>2026-04-05T14:09:37Z</time></trkpt><trkpt lat="44.35872489440685" lon="8.220351798552253"><ele>480.0</ele><time>2026-04-05T14:09:38Z</time></trkpt><trkpt lat="44.35879879822405" lon="8.220126220022967"><ele>480.0</ele><time>2026-04-05T14:09:39Z</time></trkpt><trkpt lat="44.35881251162021" lon="8.219839678993129"><ele>480.0</ele><time>2026-04-05T14:09:40Z</time></trkpt><trkpt lat="44.35878977898497" lon="8.219506282629547"><ele>480.0</ele><time>2026-04-05T14:09:41Z</time></trkpt><trkpt lat="44.358811248766195" lon="8.219161931742736"><ele>478.66666666666663</ele><time>2026-04-05T14:09:42Z</time></trkpt><trkpt lat="44.35883734534336" lon="8.2188521331174"><ele>477.3333333333333</ele><time>2026-04-05T14:09:43Z</time></trkpt><trkpt lat="44.35885310642368" lon="8.218563322928809"><ele>476.0</ele><time>2026-04-05T14:09:44Z</time></trkpt><trkpt lat="44.35889012343481" lon="8.218299743165776"><ele>472.66666666666663</ele><time>2026-04-05T14:09:45Z</time></trkpt><trkpt lat="44.3589338316411" lon="8.218075596986036"><ele>469.33333333333337</ele><time>2026-04-05T14:09:46Z</time></trkpt><trkpt lat="44.35899748202014" lon="8.217867940489475"><ele>466.0</ele><time>2026-04-05T14:09:47Z</time></trkpt><trkpt lat="44.359082821577196" lon="8.217669327025915"><ele>466.0</ele><time>2026-04-05T14:09:48Z</time></trkpt><trkpt lat="44.35918025375403" lon="8.217452319747203"><ele>466.0</ele><time>2026-04-05T14:09:49Z</time></trkpt><trkpt lat="44.3592634170743" lon="8.217226607779299"><ele>466.0</ele><time>2026-04-05T14:09:50Z</time></trkpt><trkpt lat="44.359300658664935" lon="8.216977524951966"><ele>466.0</ele><time>2026-04-05T14:09:51Z</time></trkpt><trkpt lat="44.359271583555916" lon="8.216701022672323"><ele>466.0</ele><time>2026-04-05T14:09:52Z</time></trkpt><trkpt lat="44.35918411021745" lon="8.21640791129505"><ele>466.0</ele><time>2026-04-05T14:09:53Z</time></trkpt><trkpt lat="44.35907566380748" lon="8.21614701510931"><ele>466.0</ele><time>2026-04-05T14:09:54Z</time></trkpt><trkpt lat="44.358996342585314" lon="8.215929192733112"><ele>466.0</ele><time>2026-04-05T14:09:55Z</time></trkpt><trkpt lat="44.35894502962067" lon="8.215746740867992"><ele>466.0</ele><time>2026-04-05T14:09:56Z</time></trkpt><trkpt lat="44.35892291176513" lon="8.215585138565384"><ele>466.0</ele><time>2026-04-05T14:09:57Z</time></trkpt><trkpt lat="44.35893922242133" lon="8.215417040343382"><ele>464.25</ele><time>2026-04-05T14:09:58Z</time></trkpt><trkpt lat="44.35899474829234" lon="8.215240891271042"><ele>462.5</ele><time>2026-04-05T14:09:59Z</time></trkpt><trkpt lat="44.35907988650322" lon="8.215086364883433"><ele>460.75</ele><time>2026-04-05T14:10:00Z</time></trkpt><trkpt lat="44.35920148060725" lon="8.214956943343436"><ele>459.0</ele><time>2026-04-05T14:10:01Z</time></trkpt><trkpt lat="44.35934467410315" lon="8.214825896220523"><ele>460.33333333333337</ele><time>2026-04-05T14:10:02Z</time></trkpt><trkpt lat="44.359507321258356" lon="8.21469390931098"><ele>461.6666666666667</ele><time>2026-04-05T14:10:03Z</time></trkpt><trkpt lat="44.359673225425006" lon="8.214558857887589"><ele>463.0</ele><time>2026-04-05T14:10:04Z</time></trkpt><trkpt lat="44.35982426129382" lon="8.214437384880723"><ele>459.0</ele><time>2026-04-05T14:10:05Z</time></trkpt><trkpt lat="44.35996387755041" lon="8.21431363765133"><ele>455.0</ele><time>2026-04-05T14:10:06Z</time></trkpt><trkpt lat="44.360096433940875" lon="8.214183632527536"><ele>451.0</ele><time>2026-04-05T14:10:07Z</time></trkpt><trkpt lat="44.36023237132314" lon="8.2140396236162"><ele>450.33333333333337</ele><time>2026-04-05T14:10:08Z</time></trkpt><trkpt lat="44.360353403756704" lon="8.21385868792695"><ele>449.66666666666663</ele><time>2026-04-05T14:10:09Z</time></trkpt><trkpt lat="44.360458804167976" lon="8.213656062730408"><ele>449.0</ele><time>2026-04-05T14:10:10Z</time></trkpt><trkpt lat="44.360549126860825" lon="8.21343639900799"><ele>449.0</ele><time>2026-04-05T14:10:11Z</time></trkpt><trkpt lat="44.36061594243543" lon="8.21321266900829"><ele>449.0</ele><time>2026-04-05T14:10:12Z</time></trkpt><trkpt lat="44.36065876957345" lon="8.212993427274789"><ele>449.0</ele><time>2026-04-05T14:10:13Z</time></trkpt><trkpt lat="44.36068681549167" lon="8.212781461392897"><ele>448.25</ele><time>2026-04-05T14:10:14Z</time></trkpt><trkpt lat="44.36069716018506" lon="8.212582974923395"><ele>447.5</ele><time>2026-04-05T14:10:15Z</time></trkpt><trkpt lat="44.36070580587989" lon="8.212394799720224"><ele>446.75</ele><time>2026-04-05T14:10:16Z</time></trkpt><trkpt lat="44.36071598044399" lon="8.212218062957666"><ele>446.0</ele><time>2026-04-05T14:10:17Z</time></trkpt><trkpt lat="44.360730687848665" lon="8.212067333077155"><ele>446.0</ele><time>2026-04-05T14:10:18Z</time></trkpt><trkpt lat="44.36075064327272" lon="8.211950135080393"><ele>446.0</ele><time>2026-04-05T14:10:19Z</time></trkpt><trkpt lat="44.36076769403301" lon="8.211823759326661"><ele>446.0</ele><time>2026-04-05T14:10:20Z</time></trkpt><trkpt lat="44.36078816814377" lon="8.211702674563497"><ele>446.0</ele><time>2026-04-05T14:10:21Z</time></trkpt><trkpt lat="44.36074362781481" lon="8.211579708800103"><ele>446.0</ele><time>2026-04-05T14:10:22Z</time></trkpt><trkpt lat="44.3606986926438" lon="8.21148024926016"><ele>445.49999999999994</ele><time>2026-04-05T14:10:23Z</time></trkpt><trkpt lat="44.36064248460351" lon="8.211401455906909"><ele>445.0</ele><time>2026-04-05T14:10:24Z</time></trkpt><trkpt lat="44.36058028411201" lon="8.211333779146361"><ele>444.5</ele><time>2026-04-05T14:10:25Z</time></trkpt><trkpt lat="44.36051301002356" lon="8.21128766736719"><ele>444.0</ele><time>2026-04-05T14:10:26Z</time></trkpt><trkpt lat="44.360448461256844" lon="8.21124628848093"><ele>443.49999999999994</ele><time>2026-04-05T14:10:27Z</time></trkpt><trkpt lat="44.360338248973996" lon="8.211177177575518"><ele>443.0</ele><time>2026-04-05T14:10:29Z</time></trkpt><trkpt lat="44.360285690965114" lon="8.211126799300352"><ele>446.79999999999995</ele><time>2026-04-05T14:10:31Z</time></trkpt><trkpt lat="44.36023543624452" lon="8.211062801602864"><ele>450.59999999999997</ele><time>2026-04-05T14:10:34Z</time></trkpt><trkpt lat="44.36017719388686" lon="8.21099605378953"><ele>454.40000000000003</ele><time>2026-04-05T14:10:36Z</time></trkpt><trkpt lat="44.36013663133601" lon="8.210921811575819"><ele>458.20000000000005</ele><time>2026-04-05T14:10:38Z</time></trkpt><trkpt lat="44.36002580594651" lon="8.210754033600033"><ele>462.0</ele><time>2026-04-05T14:10:40.062Z</time></trkpt><trkpt lat="44.35964057031032" lon="8.211011666065177"><ele>454.0</ele><time>2026-04-05T14:10:41.05Z</time></trkpt><trkpt lat="44.359580376381246" lon="8.210923781262144"><ele>446.0</ele><time>2026-04-05T14:10:42.039Z</time></trkpt><trkpt lat="44.359869622481256" lon="8.210178337080821"><ele>439.5</ele><time>2026-04-05T14:10:47Z</time></trkpt><trkpt lat="44.35991705709088" lon="8.209668186755279"><ele>433.0</ele><time>2026-04-05T14:10:48Z</time></trkpt><trkpt lat="44.35971526387093" lon="8.2096748485601"><ele>437.79999999999995</ele><time>2026-04-05T14:10:49Z</time></trkpt><trkpt lat="44.359669041183125" lon="8.209593874550633"><ele>442.59999999999997</ele><time>2026-04-05T14:10:50Z</time></trkpt><trkpt lat="44.35960490133232" lon="8.209476879971769"><ele>447.40000000000003</ele><time>2026-04-05T14:10:51Z</time></trkpt><trkpt lat="44.35956018879979" lon="8.209364375098753"><ele>452.20000000000005</ele><time>2026-04-05T14:10:52Z</time></trkpt><trkpt lat="44.359521582517466" lon="8.209231961383697"><ele>457.0</ele><time>2026-04-05T14:10:53Z</time></trkpt><trkpt lat="44.359494204277986" lon="8.209088374819567"><ele>453.75</ele><time>2026-04-05T14:10:54Z</time></trkpt><trkpt lat="44.35946575953555" lon="8.208932850095572"><ele>450.5</ele><time>2026-04-05T14:10:55Z</time></trkpt><trkpt lat="44.35945189067346" lon="8.208760514115877"><ele>447.25</ele><time>2026-04-05T14:10:56Z</time></trkpt><trkpt lat="44.359450766274335" lon="8.208576683069326"><ele>444.0</ele><time>2026-04-05T14:10:57Z</time></trkpt><trkpt lat="44.35946690093499" lon="8.208389111031662"><ele>444.0</ele><time>2026-04-05T14:10:58Z</time></trkpt><trkpt lat="44.359501258310985" lon="8.208193509160708"><ele>444.0</ele><time>2026-04-05T14:10:59Z</time></trkpt><trkpt lat="44.359554346361705" lon="8.207993764379523"><ele>444.0</ele><time>2026-04-05T14:11:00Z</time></trkpt><trkpt lat="44.35961427531766" lon="8.20779555554553"><ele>442.5</ele><time>2026-04-05T14:11:01Z</time></trkpt><trkpt lat="44.359685168966884" lon="8.207619047204"><ele>441.0</ele><time>2026-04-05T14:11:02Z</time></trkpt><trkpt lat="44.35974931892398" lon="8.207427488890147"><ele>439.5</ele><time>2026-04-05T14:11:03Z</time></trkpt><trkpt lat="44.35981726856434" lon="8.207248608683582"><ele>438.0</ele><time>2026-04-05T14:11:04Z</time></trkpt><trkpt lat="44.359887047201234" lon="8.207075919799717"><ele>442.0</ele><time>2026-04-05T14:11:05Z</time></trkpt><trkpt lat="44.359962692190216" lon="8.206913294336651"><ele>446.0</ele><time>2026-04-05T14:11:06Z</time></trkpt><trkpt lat="44.36004838529845" lon="8.206753933206677"><ele>450.0</ele><time>2026-04-05T14:11:07Z</time></trkpt><trkpt lat="44.36013760504842" lon="8.20660672101983"><ele>454.0</ele><time>2026-04-05T14:11:08Z</time></trkpt><trkpt lat="44.36023657049605" lon="8.206464914347272"><ele>453.75</ele><time>2026-04-05T14:11:09Z</time></trkpt><trkpt lat="44.360332229160804" lon="8.206340322386511"><ele>453.5</ele><time>2026-04-05T14:11:10Z</time></trkpt><trkpt lat="44.360428556697514" lon="8.206222393704364"><ele>453.25</ele><time>2026-04-05T14:11:11Z</time></trkpt><trkpt lat="44.36052659040045" lon="8.206106555040208"><ele>453.0</ele><time>2026-04-05T14:11:12Z</time></trkpt><trkpt lat="44.36062715330849" lon="8.205994385971106"><ele>453.0</ele><time>2026-04-05T14:11:13Z</time></trkpt><trkpt lat="44.36070948537219" lon="8.205905388097708"><ele>452.99999999999994</ele><time>2026-04-05T14:11:15.075Z</time></trkpt><trkpt lat="44.360784297424026" lon="8.205826690819183"><ele>452.99999999999994</ele><time>2026-04-05T14:11:16.069Z</time></trkpt><trkpt lat="44.3608612503626" lon="8.205747088374407"><ele>453.0</ele><time>2026-04-05T14:11:17.071Z</time></trkpt><trkpt lat="44.36093840791769" lon="8.205667274842343"><ele>453.0</ele><time>2026-04-05T14:11:18.068Z</time></trkpt><trkpt lat="44.36101539732731" lon="8.20558763503404"><ele>453.5</ele><time>2026-04-05T14:11:19.07Z</time></trkpt><trkpt lat="44.36108158959344" lon="8.205490187666033"><ele>454.0</ele><time>2026-04-05T14:11:20.06Z</time></trkpt><trkpt lat="44.36269772784905" lon="8.203792712132728"><ele>445.0</ele><time>2026-04-05T14:11:23.739Z</time></trkpt><trkpt lat="44.36363119898636" lon="8.202624608400404"><ele>431.0</ele><time>2026-04-05T14:11:25.736Z</time></trkpt><trkpt lat="44.36390749128788" lon="8.202127030819288"><ele>431.0</ele><time>2026-04-05T14:11:26.739Z</time></trkpt><trkpt lat="44.364150719823414" lon="8.201503036639705"><ele>433.0</ele><time>2026-04-05T14:11:37.999Z</time></trkpt><trkpt lat="44.364242306065684" lon="8.201287519646087"><ele>435.0</ele><time>2026-04-05T14:11:38.999Z</time></trkpt><trkpt lat="44.364542387871246" lon="8.201237374030262"><ele>435.0</ele><time>2026-04-05T14:11:39.999Z</time></trkpt><trkpt lat="44.36447267139593" lon="8.200905222972557"><ele>435.0</ele><time>2026-04-05T14:11:40.999Z</time></trkpt><trkpt lat="44.364558275351754" lon="8.200650016749345"><ele>435.0</ele><time>2026-04-05T14:11:41.999Z</time></trkpt><trkpt lat="44.36460292603809" lon="8.200405084144869"><ele>435.0</ele><time>2026-04-05T14:11:42.999Z</time></trkpt><trkpt lat="44.36466544974011" lon="8.2001478334082"><ele>435.0</ele><time>2026-04-05T14:11:44Z</time></trkpt><trkpt lat="44.36473968411798" lon="8.199901326586435"><ele>435.0</ele><time>2026-04-05T14:11:45Z</time></trkpt><trkpt lat="44.36481551802298" lon="8.199676047788776"><ele>435.0</ele><time>2026-04-05T14:11:46Z</time></trkpt><trkpt lat="44.36489055251367" lon="8.199469217083386"><ele>435.0</ele><time>2026-04-05T14:11:47Z</time></trkpt><trkpt lat="44.36496406620842" lon="8.19927939146572"><ele>435.0</ele><time>2026-04-05T14:11:48Z</time></trkpt><trkpt lat="44.365043140149396" lon="8.19910791981825"><ele>437.33333333333337</ele><time>2026-04-05T14:11:49Z</time></trkpt><trkpt lat="44.36514190728547" lon="8.198947911950066"><ele>439.6666666666667</ele><time>2026-04-05T14:11:50Z</time></trkpt><trkpt lat="44.36524995569792" lon="8.198799824194928"><ele>442.0</ele><time>2026-04-05T14:11:51Z</time></trkpt><trkpt lat="44.36536437301607" lon="8.198655811360926"><ele>442.0</ele><time>2026-04-05T14:11:52Z</time></trkpt><trkpt lat="44.3654707754134" lon="8.198504981973546"><ele>442.0</ele><time>2026-04-05T14:11:53Z</time></trkpt><trkpt lat="44.36555631956405" lon="8.198358611164712"><ele>442.0</ele><time>2026-04-05T14:11:54Z</time></trkpt><trkpt lat="44.36562201107749" lon="8.198203253672276"><ele>442.0</ele><time>2026-04-05T14:11:55Z</time></trkpt><trkpt lat="44.365668170523705" lon="8.19802152298121"><ele>440.33333333333337</ele><time>2026-04-05T14:11:56Z</time></trkpt><trkpt lat="44.365690128783285" lon="8.197814072176863"><ele>438.66666666666663</ele><time>2026-04-05T14:11:57Z</time></trkpt><trkpt lat="44.365709798720026" lon="8.197600706065929"><ele>437.0</ele><time>2026-04-05T14:11:58Z</time></trkpt><trkpt lat="44.365738204207084" lon="8.197385821342962"><ele>436.66666666666663</ele><time>2026-04-05T14:11:59Z</time></trkpt><trkpt lat="44.36576325383613" lon="8.197166512080322"><ele>436.33333333333337</ele><time>2026-04-05T14:12:00Z</time></trkpt><trkpt lat="44.365778510590026" lon="8.196946689754975"><ele>436.0</ele><time>2026-04-05T14:12:01Z</time></trkpt><trkpt lat="44.365778001659315" lon="8.19673514040886"><ele>436.0</ele><time>2026-04-05T14:12:02Z</time></trkpt><trkpt lat="44.36575068139373" lon="8.19651746345654"><ele>436.0</ele><time>2026-04-05T14:12:03Z</time></trkpt><trkpt lat="44.365698776934515" lon="8.19629025104637"><ele>436.0</ele><time>2026-04-05T14:12:04Z</time></trkpt><trkpt lat="44.3656394215559" lon="8.196073350438866"><ele>434.33333333333337</ele><time>2026-04-05T14:12:05Z</time></trkpt><trkpt lat="44.36557816076054" lon="8.195865986700912"><ele>432.66666666666663</ele><time>2026-04-05T14:12:06Z</time></trkpt><trkpt lat="44.36551123554446" lon="8.195656645629606"><ele>431.0</ele><time>2026-04-05T14:12:07Z</time></trkpt><trkpt lat="44.365430205744936" lon="8.1954455920617"><ele>433.3333333333333</ele><time>2026-04-05T14:12:08Z</time></trkpt><trkpt lat="44.365327322626875" lon="8.195239614552108"><ele>435.66666666666663</ele><time>2026-04-05T14:12:09Z</time></trkpt><trkpt lat="44.36521141695176" lon="8.195039612996277"><ele>438.0</ele><time>2026-04-05T14:12:10Z</time></trkpt><trkpt lat="44.36509082289023" lon="8.194831459224526"><ele>438.0</ele><time>2026-04-05T14:12:11Z</time></trkpt><trkpt lat="44.364969192242334" lon="8.194617005655742"><ele>438.0</ele><time>2026-04-05T14:12:12Z</time></trkpt><trkpt lat="44.364843216651046" lon="8.194393552132789"><ele>438.0</ele><time>2026-04-05T14:12:13Z</time></trkpt><trkpt lat="44.3647079496705" lon="8.194169881624621"><ele>438.33333333333337</ele><time>2026-04-05T14:12:14Z</time></trkpt><trkpt lat="44.36457053839881" lon="8.193963249019296"><ele>438.6666666666667</ele><time>2026-04-05T14:12:15Z</time></trkpt><trkpt lat="44.36444611804084" lon="8.193770555916618"><ele>439.0</ele><time>2026-04-05T14:12:16Z</time></trkpt><trkpt lat="44.364338339483865" lon="8.19358845576664"><ele>439.0</ele><time>2026-04-05T14:12:17Z</time></trkpt><trkpt lat="44.36422036182679" lon="8.193437549897466"><ele>439.0</ele><time>2026-04-05T14:12:18Z</time></trkpt><trkpt lat="44.36406720138713" lon="8.19332461352613"><ele>439.0</ele><time>2026-04-05T14:12:19Z</time></trkpt><trkpt lat="44.36388691456679" lon="8.193242454420687"><ele>439.6666666666667</ele><time>2026-04-05T14:12:20Z</time></trkpt><trkpt lat="44.363694043925385" lon="8.19318693267619"><ele>440.33333333333337</ele><time>2026-04-05T14:12:21Z</time></trkpt><trkpt lat="44.36349137924514" lon="8.193139439011997"><ele>441.0</ele><time>2026-04-05T14:12:22Z</time></trkpt><trkpt lat="44.36329373660489" lon="8.193086737757552"><ele>441.0</ele><time>2026-04-05T14:12:23Z</time></trkpt><trkpt lat="44.363110803560545" lon="8.193043703337187"><ele>441.0</ele><time>2026-04-05T14:12:24Z</time></trkpt><trkpt lat="44.36294288725017" lon="8.193039687557574"><ele>441.0</ele><time>2026-04-05T14:12:25Z</time></trkpt><trkpt lat="44.3627858762547" lon="8.193060740661561"><ele>439.75</ele><time>2026-04-05T14:12:26Z</time></trkpt><trkpt lat="44.36263814079304" lon="8.193083882909518"><ele>438.5</ele><time>2026-04-05T14:12:27Z</time></trkpt><trkpt lat="44.36249831609514" lon="8.193103320743088"><ele>437.25</ele><time>2026-04-05T14:12:28Z</time></trkpt><trkpt lat="44.36236876931888" lon="8.193115786876854"><ele>436.0</ele><time>2026-04-05T14:12:29Z</time></trkpt><trkpt lat="44.362247525529405" lon="8.193126256132958"><ele>437.0</ele><time>2026-04-05T14:12:30Z</time></trkpt><trkpt lat="44.36213245867429" lon="8.193136940794258"><ele>438.0</ele><time>2026-04-05T14:12:31Z</time></trkpt><trkpt lat="44.36201504108957" lon="8.193138272466904"><ele>439.0</ele><time>2026-04-05T14:12:32Z</time></trkpt><trkpt lat="44.361895557289984" lon="8.193084241954356"><ele>440.0</ele><time>2026-04-05T14:12:33Z</time></trkpt><trkpt lat="44.36178143366127" lon="8.192989717723021"><ele>440.0</ele><time>2026-04-05T14:12:34Z</time></trkpt><trkpt lat="44.36168468268273" lon="8.19284501939698"><ele>440.0</ele><time>2026-04-05T14:12:35Z</time></trkpt><trkpt lat="44.36161525225281" lon="8.192667485663685"><ele>440.0</ele><time>2026-04-05T14:12:36Z</time></trkpt><trkpt lat="44.36158814587169" lon="8.192469823222186"><ele>440.0</ele><time>2026-04-05T14:12:37Z</time></trkpt><trkpt lat="44.361616005603196" lon="8.192279696434772"><ele>441.66666666666663</ele><time>2026-04-05T14:12:38Z</time></trkpt><trkpt lat="44.361641529337334" lon="8.192066101163524"><ele>443.33333333333337</ele><time>2026-04-05T14:12:39Z</time></trkpt><trkpt lat="44.36169982226908" lon="8.1918587717456"><ele>445.0</ele><time>2026-04-05T14:12:40Z</time></trkpt><trkpt lat="44.361740521113845" lon="8.19167550521636"><ele>445.0</ele><time>2026-04-05T14:12:41Z</time></trkpt><trkpt lat="44.36177408766024" lon="8.19151759537385"><ele>445.0</ele><time>2026-04-05T14:12:42Z</time></trkpt><trkpt lat="44.361802586154546" lon="8.191375440225768"><ele>445.0</ele><time>2026-04-05T14:12:43Z</time></trkpt><trkpt lat="44.36181166264804" lon="8.191237323543257"><ele>445.0</ele><time>2026-04-05T14:12:44Z</time></trkpt><trkpt lat="44.3617915808771" lon="8.19110552674079"><ele>445.0</ele><time>2026-04-05T14:12:45Z</time></trkpt><trkpt lat="44.36172955629762" lon="8.19096464919479"><ele>446.8</ele><time>2026-04-05T14:12:46Z</time></trkpt><trkpt lat="44.3616363534336" lon="8.190849789777022"><ele>448.6</ele><time>2026-04-05T14:12:47Z</time></trkpt><trkpt lat="44.36153763363415" lon="8.190751662469353"><ele>450.4</ele><time>2026-04-05T14:12:48Z</time></trkpt><trkpt lat="44.361455404033094" lon="8.190659590968693"><ele>452.2</ele><time>2026-04-05T14:12:49Z</time></trkpt><trkpt lat="44.36138658502109" lon="8.190592182940676"><ele>454.0</ele><time>2026-04-05T14:12:50Z</time></trkpt><trkpt lat="44.36130519620782" lon="8.190589996280025"><ele>453.4</ele><time>2026-04-05T14:12:51Z</time></trkpt><trkpt lat="44.36120741979661" lon="8.190651586619571"><ele>452.79999999999995</ele><time>2026-04-05T14:12:52Z</time></trkpt><trkpt lat="44.36112008543345" lon="8.19074763290385"><ele>452.20000000000005</ele><time>2026-04-05T14:12:53Z</time></trkpt><trkpt lat="44.361040043244586" lon="8.190809161149302"><ele>451.6</ele><time>2026-04-05T14:12:54Z</time></trkpt><trkpt lat="44.360948872174646" lon="8.190790114366639"><ele>451.0</ele><time>2026-04-05T14:12:55Z</time></trkpt><trkpt lat="44.36084727458543" lon="8.190719169861259"><ele>453.25</ele><time>2026-04-05T14:12:56Z</time></trkpt><trkpt lat="44.360763694250615" lon="8.190598406652063"><ele>455.5</ele><time>2026-04-05T14:12:57Z</time></trkpt><trkpt lat="44.36071922357724" lon="8.190457331714164"><ele>457.75</ele><time>2026-04-05T14:12:58Z</time></trkpt><trkpt lat="44.36071105309739" lon="8.190295133243145"><ele>460.0</ele><time>2026-04-05T14:12:59Z</time></trkpt><trkpt lat="44.36073244692698" lon="8.1901203149011"><ele>460.0</ele><time>2026-04-05T14:13:00Z</time></trkpt><trkpt lat="44.36075484330699" lon="8.189943163621598"><ele>460.0</ele><time>2026-04-05T14:13:01Z</time></trkpt><trkpt lat="44.360742867527804" lon="8.189754875736167"><ele>460.0</ele><time>2026-04-05T14:13:02Z</time></trkpt><trkpt lat="44.360688981944875" lon="8.189572309425706"><ele>460.0</ele><time>2026-04-05T14:13:03Z</time></trkpt><trkpt lat="44.360630566158605" lon="8.189392351046298"><ele>462.0</ele><time>2026-04-05T14:13:04Z</time></trkpt><trkpt lat="44.360602553746816" lon="8.18920176059965"><ele>464.0</ele><time>2026-04-05T14:13:05Z</time></trkpt><trkpt lat="44.36060469635217" lon="8.188999624142864"><ele>466.0</ele><time>2026-04-05T14:13:06Z</time></trkpt><trkpt lat="44.36060867510099" lon="8.188789310377643"><ele>468.0</ele><time>2026-04-05T14:13:07Z</time></trkpt><trkpt lat="44.360584013346035" lon="8.188579734777292"><ele>469.0</ele><time>2026-04-05T14:13:08Z</time></trkpt><trkpt lat="44.36055095617391" lon="8.188378656707474"><ele>470.0</ele><time>2026-04-05T14:13:09Z</time></trkpt><trkpt lat="44.360567920373654" lon="8.188187069040865"><ele>471.0</ele><time>2026-04-05T14:13:10Z</time></trkpt><trkpt lat="44.3606469281215" lon="8.188007412757255"><ele>472.0</ele><time>2026-04-05T14:13:11Z</time></trkpt><trkpt lat="44.36078629110903" lon="8.18787237688429"><ele>472.0</ele><time>2026-04-05T14:13:12Z</time></trkpt><trkpt lat="44.3609024077608" lon="8.187696113260065"><ele>472.0</ele><time>2026-04-05T14:13:13Z</time></trkpt><trkpt lat="44.36099557126319" lon="8.187492944228737"><ele>472.0</ele><time>2026-04-05T14:13:14Z</time></trkpt><trkpt lat="44.36103806319606" lon="8.187207174465879"><ele>473.0</ele><time>2026-04-05T14:13:15Z</time></trkpt><trkpt lat="44.36105697473528" lon="8.186899590504586"><ele>474.0</ele><time>2026-04-05T14:13:16Z</time></trkpt><trkpt lat="44.36105624503178" lon="8.186663835788268"><ele>475.0</ele><time>2026-04-05T14:13:17Z</time></trkpt><trkpt lat="44.36104364664352" lon="8.18642506265487"><ele>478.6666666666667</ele><time>2026-04-05T14:13:18Z</time></trkpt><trkpt lat="44.360987625268834" lon="8.186197218131364"><ele>482.33333333333337</ele><time>2026-04-05T14:13:19Z</time></trkpt><trkpt lat="44.36088818722472" lon="8.185989477933061"><ele>486.0</ele><time>2026-04-05T14:13:20Z</time></trkpt><trkpt lat="44.36074774560054" lon="8.185811316959237"><ele>484.66666666666663</ele><time>2026-04-05T14:13:21Z</time></trkpt><trkpt lat="44.36061368014644" lon="8.185655088575034"><ele>483.3333333333333</ele><time>2026-04-05T14:13:22Z</time></trkpt><trkpt lat="44.360529918815764" lon="8.18542776244155"><ele>482.0</ele><time>2026-04-05T14:13:23Z</time></trkpt><trkpt lat="44.36043316854746" lon="8.185166748484567"><ele>482.0</ele><time>2026-04-05T14:13:23.999Z</time></trkpt><trkpt lat="44.36036814217837" lon="8.18489789120844"><ele>482.0</ele><time>2026-04-05T14:13:24.999Z</time></trkpt><trkpt lat="44.36030281561244" lon="8.184707440980716"><ele>482.0</ele><time>2026-04-05T14:13:25.999Z</time></trkpt><trkpt lat="44.360276876999706" lon="8.184509368871446"><ele>482.0</ele><time>2026-04-05T14:13:26.999Z</time></trkpt><trkpt lat="44.360296147013955" lon="8.184320169845334"><ele>482.0</ele><time>2026-04-05T14:13:27.999Z</time></trkpt><trkpt lat="44.36037811275361" lon="8.184128843024055"><ele>482.0</ele><time>2026-04-05T14:13:28.999Z</time></trkpt><trkpt lat="44.360449628408524" lon="8.183878609707017"><ele>480.3333333333333</ele><time>2026-04-05T14:13:29.999Z</time></trkpt><trkpt lat="44.36052330351588" lon="8.183622489581373"><ele>478.66666666666663</ele><time>2026-04-05T14:13:30.999Z</time></trkpt><trkpt lat="44.36060231486767" lon="8.18336256213841"><ele>477.0</ele><time>2026-04-05T14:13:31.999Z</time></trkpt><trkpt lat="44.36066583984907" lon="8.183082829946022"><ele>488.33333333333337</ele><time>2026-04-05T14:13:32.999Z</time></trkpt><trkpt lat="44.36071294936445" lon="8.182794485157057"><ele>499.6666666666667</ele><time>2026-04-05T14:13:33.999Z</time></trkpt><trkpt lat="44.36073944927556" lon="8.182503330910336"><ele>511.0</ele><time>2026-04-05T14:13:34.999Z</time></trkpt><trkpt lat="44.36075865554439" lon="8.182232137527276"><ele>512.0</ele><time>2026-04-05T14:13:35.999Z</time></trkpt><trkpt lat="44.360773906005456" lon="8.181963037913887"><ele>513.0</ele><time>2026-04-05T14:13:36.999Z</time></trkpt><trkpt lat="44.36078539308417" lon="8.181712518759808"><ele>514.0</ele><time>2026-04-05T14:13:37.999Z</time></trkpt><trkpt lat="44.3607900719841" lon="8.181468588081769"><ele>517.3333333333334</ele><time>2026-04-05T14:13:38.999Z</time></trkpt><trkpt lat="44.36079044403011" lon="8.181229366175906"><ele>520.6666666666666</ele><time>2026-04-05T14:13:39.999Z</time></trkpt><trkpt lat="44.36075983419412" lon="8.180992434008198"><ele>524.0</ele><time>2026-04-05T14:13:40.999Z</time></trkpt><trkpt lat="44.360682049740056" lon="8.180760431521412"><ele>526.6666666666666</ele><time>2026-04-05T14:13:41.999Z</time></trkpt><trkpt lat="44.36059417901353" lon="8.180529477112382"><ele>529.3333333333334</ele><time>2026-04-05T14:13:42.999Z</time></trkpt><trkpt lat="44.36054476480934" lon="8.180284607917349"><ele>532.0</ele><time>2026-04-05T14:13:43.999Z</time></trkpt><trkpt lat="44.36052959986013" lon="8.180017003612692"><ele>532.0</ele><time>2026-04-05T14:13:44.999Z</time></trkpt><trkpt lat="44.36052349645964" lon="8.179740474007287"><ele>532.0</ele><time>2026-04-05T14:13:45.999Z</time></trkpt><trkpt lat="44.36052102454108" lon="8.1794734562996"><ele>532.0</ele><time>2026-04-05T14:13:46.999Z</time></trkpt><trkpt lat="44.36053459280092" lon="8.179214584333216"><ele>531.75</ele><time>2026-04-05T14:13:47.999Z</time></trkpt><trkpt lat="44.3605342159517" lon="8.178987645153217"><ele>531.5</ele><time>2026-04-05T14:13:49Z</time></trkpt><trkpt lat="44.36052717743466" lon="8.178777585037981"><ele>531.25</ele><time>2026-04-05T14:13:50Z</time></trkpt><trkpt lat="44.36052973047785" lon="8.178587068986834"><ele>531.0</ele><time>2026-04-05T14:13:51Z</time></trkpt><trkpt lat="44.36053409398581" lon="8.178415651055222"><ele>531.0</ele><time>2026-04-05T14:13:52Z</time></trkpt><trkpt lat="44.36053328266316" lon="8.178252924315863"><ele>531.0</ele><time>2026-04-05T14:13:53Z</time></trkpt><trkpt lat="44.36052293410477" lon="8.178098160594738"><ele>531.0</ele><time>2026-04-05T14:13:54Z</time></trkpt><trkpt lat="44.36050002855111" lon="8.177960795209842"><ele>531.0</ele><time>2026-04-05T14:13:55Z</time></trkpt><trkpt lat="44.36045620215467" lon="8.177820777019502"><ele>531.0</ele><time>2026-04-05T14:13:56Z</time></trkpt><trkpt lat="44.360402551819455" lon="8.177681404039431"><ele>525.0</ele><time>2026-04-05T14:13:57Z</time></trkpt><trkpt lat="44.36037197252132" lon="8.177520166562122"><ele>519.0</ele><time>2026-04-05T14:13:58Z</time></trkpt><trkpt lat="44.36037913001708" lon="8.177341096013159"><ele>513.0</ele><time>2026-04-05T14:13:59Z</time></trkpt><trkpt lat="44.360413278175336" lon="8.17716175424747"><ele>507.0</ele><time>2026-04-05T14:14:00Z</time></trkpt><trkpt lat="44.36046249451007" lon="8.176978413656204"><ele>507.0</ele><time>2026-04-05T14:14:01Z</time></trkpt><trkpt lat="44.36052814913749" lon="8.176796042016425"><ele>507.0</ele><time>2026-04-05T14:14:02Z</time></trkpt><trkpt lat="44.36060933891802" lon="8.17661491057369"><ele>507.0</ele><time>2026-04-05T14:14:03Z</time></trkpt><trkpt lat="44.36056475670627" lon="8.17648778996355"><ele>507.0</ele><time>2026-04-05T14:14:04Z</time></trkpt><trkpt lat="44.36062325774193" lon="8.176338374758656"><ele>514.25</ele><time>2026-04-05T14:14:05Z</time></trkpt><trkpt lat="44.360659247132936" lon="8.176161085442876"><ele>521.5</ele><time>2026-04-05T14:14:06Z</time></trkpt><trkpt lat="44.360669133199806" lon="8.175976998847922"><ele>528.75</ele><time>2026-04-05T14:14:07Z</time></trkpt><trkpt lat="44.36067585121847" lon="8.175803699725074"><ele>536.0</ele><time>2026-04-05T14:14:08Z</time></trkpt><trkpt lat="44.3606984498872" lon="8.175637889331911"><ele>536.0</ele><time>2026-04-05T14:14:09Z</time></trkpt><trkpt lat="44.36075397501543" lon="8.175477399306196"><ele>536.0</ele><time>2026-04-05T14:14:10Z</time></trkpt><trkpt lat="44.36082691672162" lon="8.17532904463989"><ele>536.0</ele><time>2026-04-05T14:14:11Z</time></trkpt><trkpt lat="44.36090420083458" lon="8.175187036588513"><ele>536.0</ele><time>2026-04-05T14:14:12Z</time></trkpt><trkpt lat="44.360973578665565" lon="8.17504577596001"><ele>536.0</ele><time>2026-04-05T14:14:13Z</time></trkpt><trkpt lat="44.36104273223171" lon="8.174890949993376"><ele>536.0</ele><time>2026-04-05T14:14:14Z</time></trkpt><trkpt lat="44.3611050191504" lon="8.174727727543265"><ele>536.0</ele><time>2026-04-05T14:14:15Z</time></trkpt><trkpt lat="44.36117664892941" lon="8.17456950380758"><ele>536.0</ele><time>2026-04-05T14:14:16Z</time></trkpt><trkpt lat="44.36125190952522" lon="8.174414849515001"><ele>536.5</ele><time>2026-04-05T14:14:17Z</time></trkpt><trkpt lat="44.36133124675197" lon="8.174261709382076"><ele>537.0</ele><time>2026-04-05T14:14:18Z</time></trkpt><trkpt lat="44.3614194653933" lon="8.174113207054761"><ele>537.5</ele><time>2026-04-05T14:14:19Z</time></trkpt><trkpt lat="44.361517137971525" lon="8.173981004981629"><ele>538.0</ele><time>2026-04-05T14:14:20Z</time></trkpt><trkpt lat="44.36161763206995" lon="8.173853404299486"><ele>538.0</ele><time>2026-04-05T14:14:21Z</time></trkpt><trkpt lat="44.36172951710284" lon="8.173740877004231"><ele>538.0</ele><time>2026-04-05T14:14:22Z</time></trkpt><trkpt lat="44.36184918899524" lon="8.173641801895004"><ele>538.0</ele><time>2026-04-05T14:14:23Z</time></trkpt><trkpt lat="44.36198052049245" lon="8.173544984276283"><ele>538.0</ele><time>2026-04-05T14:14:24Z</time></trkpt><trkpt lat="44.36212082030758" lon="8.173445434765915"><ele>539.6666666666667</ele><time>2026-04-05T14:14:25Z</time></trkpt><trkpt lat="44.36228172243197" lon="8.173335981589215"><ele>541.3333333333334</ele><time>2026-04-05T14:14:26Z</time></trkpt><trkpt lat="44.362442896366574" lon="8.173229619486094"><ele>543.0</ele><time>2026-04-05T14:14:27Z</time></trkpt><trkpt lat="44.36261040434291" lon="8.173113467815114"><ele>546.3333333333334</ele><time>2026-04-05T14:14:28Z</time></trkpt><trkpt lat="44.36277464011653" lon="8.172983320284894"><ele>549.6666666666667</ele><time>2026-04-05T14:14:29Z</time></trkpt><trkpt lat="44.362938046761755" lon="8.17283327601769"><ele>553.0</ele><time>2026-04-05T14:14:30Z</time></trkpt><trkpt lat="44.363095102383205" lon="8.172667785931614"><ele>557.0</ele><time>2026-04-05T14:14:31Z</time></trkpt><trkpt lat="44.36323600806666" lon="8.172508311989082"><ele>561.0</ele><time>2026-04-05T14:14:32Z</time></trkpt><trkpt lat="44.36335411217047" lon="8.172364167039168"><ele>565.0</ele><time>2026-04-05T14:14:33Z</time></trkpt><trkpt lat="44.36345147405662" lon="8.172218960126084"><ele>566.0</ele><time>2026-04-05T14:14:34Z</time></trkpt><trkpt lat="44.36353590686448" lon="8.172075742860162"><ele>567.0</ele><time>2026-04-05T14:14:35Z</time></trkpt><trkpt lat="44.363621982368315" lon="8.171937196472495"><ele>568.0</ele><time>2026-04-05T14:14:36Z</time></trkpt><trkpt lat="44.36370366548739" lon="8.171797645110049"><ele>569.0</ele><time>2026-04-05T14:14:37Z</time></trkpt><trkpt lat="44.36377879080773" lon="8.171645678516635"><ele>569.75</ele><time>2026-04-05T14:14:38Z</time></trkpt><trkpt lat="44.36385333930057" lon="8.171486358594622"><ele>570.5</ele><time>2026-04-05T14:14:39Z</time></trkpt><trkpt lat="44.36392255466467" lon="8.171325671860723"><ele>571.25</ele><time>2026-04-05T14:14:40Z</time></trkpt><trkpt lat="44.36398461853571" lon="8.171161949144052"><ele>572.0</ele><time>2026-04-05T14:14:41Z</time></trkpt><trkpt lat="44.36403874353734" lon="8.170996366050419"><ele>573.25</ele><time>2026-04-05T14:14:42Z</time></trkpt><trkpt lat="44.364090950694816" lon="8.170826452392712"><ele>574.5</ele><time>2026-04-05T14:14:43Z</time></trkpt><trkpt lat="44.364140771992155" lon="8.17065418096093"><ele>575.75</ele><time>2026-04-05T14:14:44Z</time></trkpt><trkpt lat="44.3641849969333" lon="8.170477114664962"><ele>577.0</ele><time>2026-04-05T14:14:45Z</time></trkpt><trkpt lat="44.36422079091119" lon="8.170299872591432"><ele>580.0</ele><time>2026-04-05T14:14:46Z</time></trkpt><trkpt lat="44.36425070382852" lon="8.170116913423016"><ele>583.0</ele><time>2026-04-05T14:14:47Z</time></trkpt><trkpt lat="44.364278354319566" lon="8.169931293961929"><ele>586.0</ele><time>2026-04-05T14:14:48Z</time></trkpt><trkpt lat="44.36429984386867" lon="8.169740138755282"><ele>589.0</ele><time>2026-04-05T14:14:49Z</time></trkpt><trkpt lat="44.3643185759082" lon="8.169544726436714"><ele>590.5</ele><time>2026-04-05T14:14:50Z</time></trkpt><trkpt lat="44.36432965712069" lon="8.16934656318436"><ele>592.0</ele><time>2026-04-05T14:14:51Z</time></trkpt><trkpt lat="44.36433477774485" lon="8.16915031474135"><ele>593.5</ele><time>2026-04-05T14:14:52Z</time></trkpt><trkpt lat="44.36433657025499" lon="8.168946227153931"><ele>595.0</ele><time>2026-04-05T14:14:53Z</time></trkpt><trkpt lat="44.36433589910829" lon="8.16874411499054"><ele>595.0</ele><time>2026-04-05T14:14:54Z</time></trkpt><trkpt lat="44.36432784759056" lon="8.168542720298321"><ele>595.0</ele><time>2026-04-05T14:14:55Z</time></trkpt><trkpt lat="44.364317180122725" lon="8.168337931393825"><ele>595.0</ele><time>2026-04-05T14:14:56Z</time></trkpt><trkpt lat="44.364301211452435" lon="8.168130193406057"><ele>595.0</ele><time>2026-04-05T14:14:57Z</time></trkpt><trkpt lat="44.3642884522671" lon="8.167917645694306"><ele>597.3333333333334</ele><time>2026-04-05T14:14:58Z</time></trkpt><trkpt lat="44.364273601656464" lon="8.167701776309404"><ele>599.6666666666666</ele><time>2026-04-05T14:14:59Z</time></trkpt><trkpt lat="44.36425869777809" lon="8.167483748377457"><ele>602.0</ele><time>2026-04-05T14:15:00Z</time></trkpt><trkpt lat="44.3642414482086" lon="8.167262941461601"><ele>604.3333333333333</ele><time>2026-04-05T14:15:01Z</time></trkpt><trkpt lat="44.364224064785155" lon="8.167044151080304"><ele>606.6666666666666</ele><time>2026-04-05T14:15:02Z</time></trkpt><trkpt lat="44.36420804849169" lon="8.16682697042081"><ele>609.0</ele><time>2026-04-05T14:15:03Z</time></trkpt><trkpt lat="44.364193790804656" lon="8.166612625984785"><ele>610.3333333333334</ele><time>2026-04-05T14:15:04Z</time></trkpt><trkpt lat="44.36417730295669" lon="8.166396119079264"><ele>611.6666666666667</ele><time>2026-04-05T14:15:05Z</time></trkpt><trkpt lat="44.364160140086646" lon="8.166176420459813"><ele>613.0</ele><time>2026-04-05T14:15:06Z</time></trkpt><trkpt lat="44.36414435065199" lon="8.165943569494278"><ele>613.0</ele><time>2026-04-05T14:15:07Z</time></trkpt><trkpt lat="44.36412729051736" lon="8.16570116850038"><ele>613.0</ele><time>2026-04-05T14:15:08Z</time></trkpt><trkpt lat="44.36410750444865" lon="8.165458329968455"><ele>613.0</ele><time>2026-04-05T14:15:09Z</time></trkpt><trkpt lat="44.36409330801949" lon="8.16521267413187"><ele>614.75</ele><time>2026-04-05T14:15:10Z</time></trkpt><trkpt lat="44.364078856739546" lon="8.164986263720953"><ele>616.5</ele><time>2026-04-05T14:15:11Z</time></trkpt><trkpt lat="44.3640663031254" lon="8.1647852998048"><ele>618.25</ele><time>2026-04-05T14:15:12Z</time></trkpt><trkpt lat="44.36405163193946" lon="8.164599071115765"><ele>620.0</ele><time>2026-04-05T14:15:13Z</time></trkpt><trkpt lat="44.36403519045181" lon="8.164408947955279"><ele>620.5</ele><time>2026-04-05T14:15:14Z</time></trkpt><trkpt lat="44.364021667182" lon="8.164210697110807"><ele>621.0</ele><time>2026-04-05T14:15:15Z</time></trkpt><trkpt lat="44.364009317512355" lon="8.164021130594548"><ele>621.5</ele><time>2026-04-05T14:15:16Z</time></trkpt><trkpt lat="44.36399345215339" lon="8.163825031722963"><ele>622.0</ele><time>2026-04-05T14:15:17Z</time></trkpt><trkpt lat="44.36398064171195" lon="8.163616621595319"><ele>624.6666666666667</ele><time>2026-04-05T14:15:17.999Z</time></trkpt><trkpt lat="44.3639672010087" lon="8.163395422521099"><ele>627.3333333333334</ele><time>2026-04-05T14:15:18.999Z</time></trkpt><trkpt lat="44.36394940804158" lon="8.163179271069302"><ele>630.0</ele><time>2026-04-05T14:15:19.999Z</time></trkpt><trkpt lat="44.36393162951507" lon="8.162962047282043"><ele>635.3333333333334</ele><time>2026-04-05T14:15:20.999Z</time></trkpt><trkpt lat="44.36392095220579" lon="8.162732020324857"><ele>640.6666666666667</ele><time>2026-04-05T14:15:21.999Z</time></trkpt><trkpt lat="44.36391607883786" lon="8.162539129049193"><ele>646.0</ele><time>2026-04-05T14:15:22.999Z</time></trkpt><trkpt lat="44.3639108280751" lon="8.162290084957649"><ele>649.6666666666667</ele><time>2026-04-05T14:15:23.999Z</time></trkpt><trkpt lat="44.36390947264405" lon="8.162068922229325"><ele>653.3333333333334</ele><time>2026-04-05T14:15:24.999Z</time></trkpt><trkpt lat="44.36391285782966" lon="8.16183380528658"><ele>657.0</ele><time>2026-04-05T14:15:26.07Z</time></trkpt><trkpt lat="44.36391922005681" lon="8.161615219089354"><ele>661.5</ele><time>2026-04-05T14:15:27.065Z</time></trkpt><trkpt lat="44.36392846782268" lon="8.161399452836342"><ele>666.0</ele><time>2026-04-05T14:15:28.063Z</time></trkpt><trkpt lat="44.364198997079065" lon="8.159141844997874"><ele>681.0</ele><time>2026-04-05T14:15:31.735Z</time></trkpt><trkpt lat="44.36433930243271" lon="8.158545876330978"><ele>696.0</ele><time>2026-04-05T14:15:32.735Z</time></trkpt><trkpt lat="44.36450262255492" lon="8.15796233818716"><ele>696.0</ele><time>2026-04-05T14:15:33.734Z</time></trkpt><trkpt lat="44.36469113581181" lon="8.157389959880561"><ele>699.0</ele><time>2026-04-05T14:15:34.739Z</time></trkpt><trkpt lat="44.3649019429058" lon="8.156836657315116"><ele>702.0</ele><time>2026-04-05T14:15:35.737Z</time></trkpt><trkpt lat="44.36513791517664" lon="8.156302443195328"><ele>702.0</ele><time>2026-04-05T14:15:36.738Z</time></trkpt><trkpt lat="44.36539490932481" lon="8.155788621638145"><ele>702.0</ele><time>2026-04-05T14:15:37.737Z</time></trkpt><trkpt lat="44.36567225324638" lon="8.155295638207372"><ele>699.5</ele><time>2026-04-05T14:15:38.736Z</time></trkpt><trkpt lat="44.365971783518745" lon="8.15482867439764"><ele>697.0</ele><time>2026-04-05T14:15:39.734Z</time></trkpt><trkpt lat="44.366290931892166" lon="8.154386705658865"><ele>694.0</ele><time>2026-04-05T14:15:40.734Z</time></trkpt><trkpt lat="44.36662595300052" lon="8.153968510613606"><ele>691.0</ele><time>2026-04-05T14:15:41.734Z</time></trkpt><trkpt lat="44.366980416080686" lon="8.153581395762467"><ele>673.0</ele><time>2026-04-05T14:15:42.735Z</time></trkpt><trkpt lat="44.36734852558267" lon="8.153220300674139"><ele>654.0</ele><time>2026-04-05T14:15:43.735Z</time></trkpt><trkpt lat="44.36773264912689" lon="8.152892926176726"><ele>637.0</ele><time>2026-04-05T14:15:44.736Z</time></trkpt><trkpt lat="44.36813057011181" lon="8.152598162695634"><ele>637.0</ele><time>2026-04-05T14:15:45.738Z</time></trkpt><trkpt lat="44.36842765819432" lon="8.152379754109043"><ele>637.0</ele><time>2026-04-05T14:16:10.999Z</time></trkpt><trkpt lat="44.36869271799967" lon="8.152212775985639"><ele>634.5</ele><time>2026-04-05T14:16:11.999Z</time></trkpt><trkpt lat="44.368923573326086" lon="8.152096279352783"><ele>632.0</ele><time>2026-04-05T14:16:12.999Z</time></trkpt><trkpt lat="44.3691906730289" lon="8.1518977762533"><ele>632.0</ele><time>2026-04-05T14:16:13.999Z</time></trkpt><trkpt lat="44.369511293689285" lon="8.151685810600318"><ele>632.0</ele><time>2026-04-05T14:16:14.999Z</time></trkpt><trkpt lat="44.36985076957819" lon="8.151452307953592"><ele>637.0</ele><time>2026-04-05T14:16:15.999Z</time></trkpt><trkpt lat="44.37020468098105" lon="8.151220229909876"><ele>642.0</ele><time>2026-04-05T14:16:17Z</time></trkpt><trkpt lat="44.370561892946775" lon="8.150980008200783"><ele>649.5</ele><time>2026-04-05T14:16:18Z</time></trkpt><trkpt lat="44.37092783566251" lon="8.150740453855478"><ele>657.0</ele><time>2026-04-05T14:16:19Z</time></trkpt><trkpt lat="44.37123032078823" lon="8.150547942338148"><ele>662.5</ele><time>2026-04-05T14:16:20Z</time></trkpt><trkpt lat="44.37151129117978" lon="8.15035789902843"><ele>668.0</ele><time>2026-04-05T14:16:21Z</time></trkpt><trkpt lat="44.371788272473076" lon="8.150177391142083"><ele>668.0</ele><time>2026-04-05T14:16:22Z</time></trkpt><trkpt lat="44.372054054435175" lon="8.149999717964898"><ele>668.0</ele><time>2026-04-05T14:16:23Z</time></trkpt><trkpt lat="44.37231557873806" lon="8.149827681730514"><ele>669.5</ele><time>2026-04-05T14:16:24Z</time></trkpt><trkpt lat="44.37255505624494" lon="8.14967211137536"><ele>671.0</ele><time>2026-04-05T14:16:25Z</time></trkpt><trkpt lat="44.37277734041645" lon="8.149525345717297"><ele>671.0</ele><time>2026-04-05T14:16:26Z</time></trkpt><trkpt lat="44.37298483867214" lon="8.149385763212228"><ele>671.0</ele><time>2026-04-05T14:16:27Z</time></trkpt><trkpt lat="44.37319865829154" lon="8.149245108131558"><ele>670.5</ele><time>2026-04-05T14:16:28Z</time></trkpt><trkpt lat="44.37342264961764" lon="8.149099089502037"><ele>670.0</ele><time>2026-04-05T14:16:29Z</time></trkpt><trkpt lat="44.37364710778734" lon="8.148952091464992"><ele>671.6666666666667</ele><time>2026-04-05T14:16:30Z</time></trkpt><trkpt lat="44.37384932767143" lon="8.148810651063064"><ele>673.3333333333334</ele><time>2026-04-05T14:16:31Z</time></trkpt><trkpt lat="44.37402440550595" lon="8.148676032950503"><ele>675.0</ele><time>2026-04-05T14:16:32Z</time></trkpt><trkpt lat="44.3741824160499" lon="8.14854505647125"><ele>675.0</ele><time>2026-04-05T14:16:33Z</time></trkpt><trkpt lat="44.37433112768869" lon="8.148410621356515"><ele>675.0</ele><time>2026-04-05T14:16:34Z</time></trkpt><trkpt lat="44.37448959443533" lon="8.148253315664093"><ele>675.0</ele><time>2026-04-05T14:16:35Z</time></trkpt><trkpt lat="44.3746562115445" lon="8.148063200422635"><ele>676.0</ele><time>2026-04-05T14:16:36Z</time></trkpt><trkpt lat="44.374824767142975" lon="8.147827827520256"><ele>677.0</ele><time>2026-04-05T14:16:37Z</time></trkpt><trkpt lat="44.37499120628837" lon="8.147562048328055"><ele>677.0</ele><time>2026-04-05T14:16:38Z</time></trkpt><trkpt lat="44.37516460712369" lon="8.147274022230569"><ele>677.0</ele><time>2026-04-05T14:16:39Z</time></trkpt><trkpt lat="44.375340505576986" lon="8.146945802294546"><ele>677.0</ele><time>2026-04-05T14:16:40Z</time></trkpt><trkpt lat="44.375499894724946" lon="8.14656253288049"><ele>677.0</ele><time>2026-04-05T14:16:41Z</time></trkpt><trkpt lat="44.375642466990435" lon="8.14613369135268"><ele>687.5</ele><time>2026-04-05T14:16:42Z</time></trkpt><trkpt lat="44.37575534408742" lon="8.145674308011879"><ele>698.0</ele><time>2026-04-05T14:16:43Z</time></trkpt><trkpt lat="44.375830902284896" lon="8.145204846855433"><ele>700.5</ele><time>2026-04-05T14:16:44Z</time></trkpt><trkpt lat="44.375869413987736" lon="8.14476513411472"><ele>703.0</ele><time>2026-04-05T14:16:45Z</time></trkpt><trkpt lat="44.375878094429815" lon="8.144338905303103"><ele>702.5</ele><time>2026-04-05T14:16:46Z</time></trkpt><trkpt lat="44.375869246517986" lon="8.143882227971668"><ele>702.0</ele><time>2026-04-05T14:16:47Z</time></trkpt><trkpt lat="44.37582907032903" lon="8.143422629617826"><ele>707.5</ele><time>2026-04-05T14:16:48Z</time></trkpt><trkpt lat="44.37575596905023" lon="8.142954461269618"><ele>713.0</ele><time>2026-04-05T14:16:49Z</time></trkpt><trkpt lat="44.37565056500514" lon="8.142494875761752"><ele>712.5</ele><time>2026-04-05T14:16:50Z</time></trkpt><trkpt lat="44.37550270960181" lon="8.142036955876094"><ele>712.0</ele><time>2026-04-05T14:16:51Z</time></trkpt><trkpt lat="44.375353939424684" lon="8.141655916016221"><ele>718.5</ele><time>2026-04-05T14:16:52Z</time></trkpt><trkpt lat="44.3752280743642" lon="8.141332774587184"><ele>725.0</ele><time>2026-04-05T14:16:53Z</time></trkpt><trkpt lat="44.37512420358682" lon="8.141046076203029"><ele>725.0</ele><time>2026-04-05T14:16:54Z</time></trkpt><trkpt lat="44.375037400593136" lon="8.140790803749914"><ele>725.0</ele><time>2026-04-05T14:16:55Z</time></trkpt><trkpt lat="44.37496877553593" lon="8.140562398052698"><ele>725.0</ele><time>2026-04-05T14:16:56Z</time></trkpt><trkpt lat="44.37491944694531" lon="8.14035268938811"><ele>725.4</ele><time>2026-04-05T14:16:57Z</time></trkpt><trkpt lat="44.37489067679905" lon="8.140173104818267"><ele>725.8</ele><time>2026-04-05T14:16:58Z</time></trkpt><trkpt lat="44.37489401422811" lon="8.140029546062141"><ele>726.2</ele><time>2026-04-05T14:16:59Z</time></trkpt><trkpt lat="44.37494197211565" lon="8.139892893900797"><ele>726.6</ele><time>2026-04-05T14:17:00Z</time></trkpt><trkpt lat="44.37500894534059" lon="8.139782240320628"><ele>727.0</ele><time>2026-04-05T14:17:01Z</time></trkpt><trkpt lat="44.375058000800784" lon="8.13969500341039"><ele>727.0</ele><time>2026-04-05T14:17:02Z</time></trkpt><trkpt lat="44.37508813082385" lon="8.139608754727101"><ele>727.0</ele><time>2026-04-05T14:17:03Z</time></trkpt><trkpt lat="44.37506830528023" lon="8.139464000116568"><ele>727.0</ele><time>2026-04-05T14:17:05Z</time></trkpt><trkpt lat="44.374998023500886" lon="8.139459123140362"><ele>727.0</ele><time>2026-04-05T14:17:06Z</time></trkpt><trkpt lat="44.374923809367104" lon="8.139536804873455"><ele>727.0</ele><time>2026-04-05T14:17:08Z</time></trkpt><trkpt lat="44.37487985621681" lon="8.139621121326607"><ele>727.0</ele><time>2026-04-05T14:17:10Z</time></trkpt><trkpt lat="44.374850597455186" lon="8.13970834531537"><ele>727.0</ele><time>2026-04-05T14:17:12Z</time></trkpt><trkpt lat="44.37482809253735" lon="8.13980742914109"><ele>727.0</ele><time>2026-04-05T14:17:15Z</time></trkpt><trkpt lat="44.37476511241209" lon="8.139712924251144"><ele>727.0</ele><time>2026-04-05T14:18:25Z</time></trkpt><trkpt lat="44.37483980828713" lon="8.139757313607644"><ele>727.0</ele><time>2026-04-05T14:18:31Z</time></trkpt><trkpt lat="44.3747417080538" lon="8.139703512921532"><ele>727.0</ele><time>2026-04-05T14:20:30Z</time></trkpt><trkpt lat="44.374800283091986" lon="8.139761868806064"><ele>727.0</ele><time>2026-04-05T14:23:24.999Z</time></trkpt><trkpt lat="44.37476769711594" lon="8.13984116655054"><ele>727.5714285714286</ele><time>2026-04-05T14:23:39Z</time></trkpt><trkpt lat="44.3747197088252" lon="8.139901465146744"><ele>728.1428571428572</ele><time>2026-04-05T14:35:01.999Z</time></trkpt><trkpt lat="44.37462730359202" lon="8.139896079697008"><ele>728.7142857142858</ele><time>2026-04-05T14:35:04.999Z</time></trkpt><trkpt lat="44.37455955835838" lon="8.139875417585612"><ele>729.2857142857142</ele><time>2026-04-05T14:35:06.999Z</time></trkpt><trkpt lat="44.374491463729804" lon="8.139860529846544"><ele>729.8571428571429</ele><time>2026-04-05T14:35:09.999Z</time></trkpt><trkpt lat="44.374545439815215" lon="8.139936339294241"><ele>730.4285714285714</ele><time>2026-04-05T14:35:14.999Z</time></trkpt><trkpt lat="44.374615255640464" lon="8.139957785992115"><ele>731.0</ele><time>2026-04-05T14:35:17.999Z</time></trkpt><trkpt lat="44.37472616934971" lon="8.139946324623077"><ele>731.0</ele><time>2026-04-05T14:36:58.999Z</time></trkpt><trkpt lat="44.3748301078176" lon="8.139953392834919"><ele>731.0</ele><time>2026-04-05T14:37:01.999Z</time></trkpt><trkpt lat="44.3749172350289" lon="8.139954669384045"><ele>731.0</ele><time>2026-04-05T14:37:03.999Z</time></trkpt><trkpt lat="44.374996941854945" lon="8.139884128894625"><ele>731.0</ele><time>2026-04-05T14:37:05.999Z</time></trkpt><trkpt lat="44.375124494930446" lon="8.139902828706923"><ele>731.0</ele><time>2026-04-05T14:37:07.999Z</time></trkpt><trkpt lat="44.37519208080757" lon="8.139955584044877"><ele>731.0</ele><time>2026-04-05T14:37:08.999Z</time></trkpt><trkpt lat="44.375273534299055" lon="8.140025555723984"><ele>731.0</ele><time>2026-04-05T14:37:09.999Z</time></trkpt><trkpt lat="44.37536656144211" lon="8.140120442467285"><ele>731.0</ele><time>2026-04-05T14:37:10.999Z</time></trkpt><trkpt lat="44.3754850218919" lon="8.140216109179068"><ele>731.0</ele><time>2026-04-05T14:37:11.999Z</time></trkpt><trkpt lat="44.37560362017228" lon="8.14031360605378"><ele>731.5</ele><time>2026-04-05T14:37:12.999Z</time></trkpt><trkpt lat="44.375735774733016" lon="8.140442103723124"><ele>732.0</ele><time>2026-04-05T14:37:13.999Z</time></trkpt><trkpt lat="44.375849535424265" lon="8.14055614766572"><ele>732.5</ele><time>2026-04-05T14:37:14.999Z</time></trkpt><trkpt lat="44.37595199814063" lon="8.140663453095465"><ele>733.0</ele><time>2026-04-05T14:37:15.999Z</time></trkpt><trkpt lat="44.3760454165216" lon="8.14075801557446"><ele>733.25</ele><time>2026-04-05T14:37:16.999Z</time></trkpt><trkpt lat="44.37614391958153" lon="8.140848401768965"><ele>733.5</ele><time>2026-04-05T14:37:17.999Z</time></trkpt><trkpt lat="44.3762473001143" lon="8.140936760637597"><ele>733.75</ele><time>2026-04-05T14:37:18.999Z</time></trkpt><trkpt lat="44.37635659901958" lon="8.141012682047107"><ele>734.0</ele><time>2026-04-05T14:37:19.999Z</time></trkpt><trkpt lat="44.37647076473437" lon="8.14107962057151"><ele>734.0</ele><time>2026-04-05T14:37:20.999Z</time></trkpt><trkpt lat="44.37658610345053" lon="8.141140900293761"><ele>734.0</ele><time>2026-04-05T14:37:21.999Z</time></trkpt><trkpt lat="44.376703164582096" lon="8.141203511073796"><ele>734.0</ele><time>2026-04-05T14:37:22.999Z</time></trkpt><trkpt lat="44.37681616163525" lon="8.141261825494345"><ele>734.0</ele><time>2026-04-05T14:37:23.999Z</time></trkpt><trkpt lat="44.376922259745704" lon="8.141312949378198"><ele>734.0</ele><time>2026-04-05T14:37:24.999Z</time></trkpt><trkpt lat="44.37702295739183" lon="8.1413650562132"><ele>734.0</ele><time>2026-04-05T14:37:25.999Z</time></trkpt><trkpt lat="44.37711860960206" lon="8.141417729682178"><ele>734.0</ele><time>2026-04-05T14:37:26.999Z</time></trkpt><trkpt lat="44.37721297041094" lon="8.141470898629121"><ele>734.0</ele><time>2026-04-05T14:37:27.999Z</time></trkpt><trkpt lat="44.37730761003734" lon="8.141514965663527"><ele>734.0</ele><time>2026-04-05T14:37:28.999Z</time></trkpt><trkpt lat="44.37740603846507" lon="8.14153443191784"><ele>733.8000000000001</ele><time>2026-04-05T14:37:29.999Z</time></trkpt><trkpt lat="44.377500341701754" lon="8.14153550625502"><ele>733.6</ele><time>2026-04-05T14:37:30.999Z</time></trkpt><trkpt lat="44.37760211760853" lon="8.141523604974426"><ele>733.4</ele><time>2026-04-05T14:37:31.999Z</time></trkpt><trkpt lat="44.37770543158911" lon="8.141492056668005"><ele>733.2</ele><time>2026-04-05T14:37:32.999Z</time></trkpt><trkpt lat="44.37779401075428" lon="8.14148107481053"><ele>733.0</ele><time>2026-04-05T14:37:33.999Z</time></trkpt><trkpt lat="44.377885084406856" lon="8.141487166024422"><ele>733.0</ele><time>2026-04-05T14:37:34.999Z</time></trkpt><trkpt lat="44.37797905015523" lon="8.141477161033716"><ele>733.0</ele><time>2026-04-05T14:37:35.999Z</time></trkpt><trkpt lat="44.378067648890784" lon="8.141467728036384"><ele>733.0</ele><time>2026-04-05T14:37:36.999Z</time></trkpt><trkpt lat="44.378152190908175" lon="8.141442050345013"><ele>733.0</ele><time>2026-04-05T14:37:37.999Z</time></trkpt><trkpt lat="44.37823655432292" lon="8.141396528088604"><ele>733.0</ele><time>2026-04-05T14:37:38.999Z</time></trkpt><trkpt lat="44.378311720223664" lon="8.141281025632313"><ele>732.25</ele><time>2026-04-05T14:37:39.999Z</time></trkpt><trkpt lat="44.37837190207692" lon="8.1411344478074"><ele>731.5</ele><time>2026-04-05T14:37:40.999Z</time></trkpt><trkpt lat="44.378442544487044" lon="8.140985029765059"><ele>730.75</ele><time>2026-04-05T14:37:41.999Z</time></trkpt><trkpt lat="44.37851665665975" lon="8.14084560795175"><ele>730.0</ele><time>2026-04-05T14:37:42.999Z</time></trkpt><trkpt lat="44.378586535349385" lon="8.140704029573957"><ele>730.0</ele><time>2026-04-05T14:37:43.999Z</time></trkpt><trkpt lat="44.37864417146577" lon="8.140539643644503"><ele>730.0</ele><time>2026-04-05T14:37:44.999Z</time></trkpt><trkpt lat="44.37868018049528" lon="8.140355424553697"><ele>730.0</ele><time>2026-04-05T14:37:45.999Z</time></trkpt><trkpt lat="44.378699127868074" lon="8.140151395841162"><ele>730.0</ele><time>2026-04-05T14:37:46.999Z</time></trkpt><trkpt lat="44.3787215644276" lon="8.139933402467285"><ele>728.3333333333334</ele><time>2026-04-05T14:37:47.999Z</time></trkpt><trkpt lat="44.37875032435194" lon="8.139710280621234"><ele>726.6666666666666</ele><time>2026-04-05T14:37:48.999Z</time></trkpt><trkpt lat="44.37880996999015" lon="8.13948953348319"><ele>725.0</ele><time>2026-04-05T14:37:49.999Z</time></trkpt><trkpt lat="44.378880397258534" lon="8.13927495367093"><ele>726.6666666666666</ele><time>2026-04-05T14:37:50.999Z</time></trkpt><trkpt lat="44.37896605467623" lon="8.139072041346626"><ele>728.3333333333334</ele><time>2026-04-05T14:37:51.999Z</time></trkpt><trkpt lat="44.379054818230735" lon="8.138897177695515"><ele>730.0</ele><time>2026-04-05T14:37:52.999Z</time></trkpt><trkpt lat="44.37915565071311" lon="8.13875785322827"><ele>730.0</ele><time>2026-04-05T14:37:53.999Z</time></trkpt><trkpt lat="44.37928199323768" lon="8.138653159891984"><ele>730.0</ele><time>2026-04-05T14:37:54.999Z</time></trkpt><trkpt lat="44.37943772170277" lon="8.138589026966853"><ele>730.0</ele><time>2026-04-05T14:37:55.999Z</time></trkpt><trkpt lat="44.37959995644973" lon="8.138504858804993"><ele>730.6666666666667</ele><time>2026-04-05T14:37:56.999Z</time></trkpt><trkpt lat="44.37975656646813" lon="8.13844186840877"><ele>731.3333333333334</ele><time>2026-04-05T14:37:57.999Z</time></trkpt><trkpt lat="44.37989013896618" lon="8.138349627680645"><ele>732.0</ele><time>2026-04-05T14:37:58.999Z</time></trkpt><trkpt lat="44.38000874851313" lon="8.138213787575102"><ele>732.0</ele><time>2026-04-05T14:37:59.999Z</time></trkpt><trkpt lat="44.38011176195159" lon="8.138031724484799"><ele>732.0</ele><time>2026-04-05T14:38:00.999Z</time></trkpt><trkpt lat="44.38019019783972" lon="8.137813203536183"><ele>732.0</ele><time>2026-04-05T14:38:01.999Z</time></trkpt><trkpt lat="44.38024867850261" lon="8.137585334793028"><ele>728.3333333333334</ele><time>2026-04-05T14:38:02.999Z</time></trkpt><trkpt lat="44.380299332048985" lon="8.137362720618972"><ele>724.6666666666667</ele><time>2026-04-05T14:38:03.999Z</time></trkpt><trkpt lat="44.38035605032738" lon="8.137145416005422"><ele>721.0</ele><time>2026-04-05T14:38:04.999Z</time></trkpt><trkpt lat="44.38045735924751" lon="8.136961860837788"><ele>727.6666666666667</ele><time>2026-04-05T14:38:05.999Z</time></trkpt><trkpt lat="44.38053477509176" lon="8.136751722274187"><ele>734.3333333333334</ele><time>2026-04-05T14:38:06.999Z</time></trkpt><trkpt lat="44.38060829673142" lon="8.136552082189992"><ele>741.0</ele><time>2026-04-05T14:38:07.999Z</time></trkpt><trkpt lat="44.38063993931673" lon="8.136347926497313"><ele>741.0</ele><time>2026-04-05T14:38:08.999Z</time></trkpt><trkpt lat="44.38064591794455" lon="8.136160214333287"><ele>741.0</ele><time>2026-04-05T14:38:09.999Z</time></trkpt><trkpt lat="44.38065715045865" lon="8.135966516950996"><ele>741.0</ele><time>2026-04-05T14:38:10.999Z</time></trkpt><trkpt lat="44.380665352664984" lon="8.13578425624929"><ele>741.0</ele><time>2026-04-05T14:38:11.999Z</time></trkpt><trkpt lat="44.380673982717425" lon="8.135613933887855"><ele>739.4</ele><time>2026-04-05T14:38:12.999Z</time></trkpt><trkpt lat="44.380681090801126" lon="8.135451432733065"><ele>737.8</ele><time>2026-04-05T14:38:13.999Z</time></trkpt><trkpt lat="44.380695848248315" lon="8.135297882287132"><ele>736.1999999999999</ele><time>2026-04-05T14:38:14.999Z</time></trkpt><trkpt lat="44.38071965838761" lon="8.135152266212408"><ele>734.5999999999999</ele><time>2026-04-05T14:38:15.999Z</time></trkpt><trkpt lat="44.38075997225952" lon="8.135018755972412"><ele>733.0</ele><time>2026-04-05T14:38:16.999Z</time></trkpt><trkpt lat="44.3808055925934" lon="8.134894451271316"><ele>731.0</ele><time>2026-04-05T14:38:17.999Z</time></trkpt><trkpt lat="44.38085622509709" lon="8.134782378990097"><ele>729.0</ele><time>2026-04-05T14:38:18.999Z</time></trkpt><trkpt lat="44.38090779715652" lon="8.1346738233379"><ele>727.0</ele><time>2026-04-05T14:38:19.999Z</time></trkpt><trkpt lat="44.38097761374441" lon="8.13459372789182"><ele>725.0</ele><time>2026-04-05T14:38:20.999Z</time></trkpt><trkpt lat="44.3810422832458" lon="8.134511320383096"><ele>723.0</ele><time>2026-04-05T14:38:21.999Z</time></trkpt><trkpt lat="44.381115349019424" lon="8.134430180428822"><ele>723.0</ele><time>2026-04-05T14:38:22.999Z</time></trkpt><trkpt lat="44.381184161159624" lon="8.134338743297706"><ele>723.0</ele><time>2026-04-05T14:38:23.999Z</time></trkpt><trkpt lat="44.38127339878488" lon="8.134279418141258"><ele>723.0</ele><time>2026-04-05T14:38:24.999Z</time></trkpt><trkpt lat="44.38136046577253" lon="8.134198693016652"><ele>723.0</ele><time>2026-04-05T14:38:25.999Z</time></trkpt><trkpt lat="44.3814426370983" lon="8.134097796559715"><ele>723.0</ele><time>2026-04-05T14:38:26.999Z</time></trkpt><trkpt lat="44.38153909202231" lon="8.134017725639172"><ele>723.25</ele><time>2026-04-05T14:38:27.999Z</time></trkpt><trkpt lat="44.381632668340295" lon="8.133928386050245"><ele>723.5</ele><time>2026-04-05T14:38:28.999Z</time></trkpt><trkpt lat="44.381732760896675" lon="8.133833831106251"><ele>723.75</ele><time>2026-04-05T14:38:29.999Z</time></trkpt><trkpt lat="44.381824776705194" lon="8.133716259790365"><ele>724.0</ele><time>2026-04-05T14:38:30.999Z</time></trkpt><trkpt lat="44.38190535834161" lon="8.133567268216533"><ele>724.0</ele><time>2026-04-05T14:38:31.999Z</time></trkpt><trkpt lat="44.381997756706554" lon="8.133427458140384"><ele>724.0</ele><time>2026-04-05T14:38:32.999Z</time></trkpt><trkpt lat="44.38209523984846" lon="8.133289399828486"><ele>724.0</ele><time>2026-04-05T14:38:33.999Z</time></trkpt><trkpt lat="44.3821964507868" lon="8.133163156611417"><ele>724.0</ele><time>2026-04-05T14:38:34.999Z</time></trkpt><trkpt lat="44.38229196017283" lon="8.133032112694552"><ele>725.25</ele><time>2026-04-05T14:38:35.999Z</time></trkpt><trkpt lat="44.3823758120399" lon="8.132892523615313"><ele>726.5</ele><time>2026-04-05T14:38:36.999Z</time></trkpt><trkpt lat="44.38245133733042" lon="8.13274702487428"><ele>727.75</ele><time>2026-04-05T14:38:37.999Z</time></trkpt><trkpt lat="44.3825253754031" lon="8.132597758980602"><ele>729.0</ele><time>2026-04-05T14:38:38.999Z</time></trkpt><trkpt lat="44.38260831733089" lon="8.132470338683781"><ele>725.75</ele><time>2026-04-05T14:38:39.999Z</time></trkpt><trkpt lat="44.382694920670986" lon="8.132369689684111"><ele>722.5</ele><time>2026-04-05T14:38:40.999Z</time></trkpt><trkpt lat="44.382788095224235" lon="8.132285809742852"><ele>719.25</ele><time>2026-04-05T14:38:41.999Z</time></trkpt><trkpt lat="44.382880400201714" lon="8.13219447142914"><ele>716.0</ele><time>2026-04-05T14:38:42.999Z</time></trkpt><trkpt lat="44.38298332569036" lon="8.132106692091245"><ele>719.25</ele><time>2026-04-05T14:38:43.999Z</time></trkpt><trkpt lat="44.383088102051055" lon="8.132024728546922"><ele>722.5</ele><time>2026-04-05T14:38:44.999Z</time></trkpt><trkpt lat="44.38320349413957" lon="8.131981104315354"><ele>725.75</ele><time>2026-04-05T14:38:45.999Z</time></trkpt><trkpt lat="44.38332728509609" lon="8.13194602876994"><ele>729.0</ele><time>2026-04-05T14:38:46.999Z</time></trkpt><trkpt lat="44.38345256477998" lon="8.131877778184052"><ele>729.0</ele><time>2026-04-05T14:38:47.999Z</time></trkpt><trkpt lat="44.383587458377235" lon="8.131821685932037"><ele>729.0</ele><time>2026-04-05T14:38:48.999Z</time></trkpt><trkpt lat="44.3837338288575" lon="8.13173906737187"><ele>729.0</ele><time>2026-04-05T14:38:49.999Z</time></trkpt><trkpt lat="44.383887123139985" lon="8.131644542920736"><ele>728.3333333333334</ele><time>2026-04-05T14:38:50.999Z</time></trkpt><trkpt lat="44.38404182211" lon="8.131563502969511"><ele>727.6666666666667</ele><time>2026-04-05T14:38:51.999Z</time></trkpt><trkpt lat="44.38421940910939" lon="8.131537212042234"><ele>727.0</ele><time>2026-04-05T14:38:52.999Z</time></trkpt><trkpt lat="44.384387843292494" lon="8.131478061731961"><ele>728.0</ele><time>2026-04-05T14:38:53.999Z</time></trkpt><trkpt lat="44.38454382217066" lon="8.131466593199788"><ele>729.0</ele><time>2026-04-05T14:38:54.999Z</time></trkpt><trkpt lat="44.3846868062536" lon="8.131415493347601"><ele>730.0</ele><time>2026-04-05T14:38:55.999Z</time></trkpt><trkpt lat="44.384827429027126" lon="8.13139529571794"><ele>731.0</ele><time>2026-04-05T14:38:56.999Z</time></trkpt><trkpt lat="44.384967285506896" lon="8.131368732959977"><ele>731.0</ele><time>2026-04-05T14:38:57.999Z</time></trkpt><trkpt lat="44.38511955471324" lon="8.131329473900067"><ele>731.0</ele><time>2026-04-05T14:38:58.999Z</time></trkpt><trkpt lat="44.385272909151944" lon="8.13130930150685"><ele>731.0</ele><time>2026-04-05T14:38:59.999Z</time></trkpt><trkpt lat="44.38543112511993" lon="8.131315990872821"><ele>727.6666666666666</ele><time>2026-04-05T14:39:00.999Z</time></trkpt><trkpt lat="44.38558732603233" lon="8.131287366291067"><ele>724.3333333333334</ele><time>2026-04-05T14:39:01.999Z</time></trkpt><trkpt lat="44.38575065870685" lon="8.131277526268414"><ele>721.0</ele><time>2026-04-05T14:39:02.999Z</time></trkpt><trkpt lat="44.38590786658789" lon="8.131282370677596"><ele>721.0</ele><time>2026-04-05T14:39:03.999Z</time></trkpt><trkpt lat="44.386069656429655" lon="8.13128252948388"><ele>721.0</ele><time>2026-04-05T14:39:04.999Z</time></trkpt><trkpt lat="44.38621367196902" lon="8.131463389492271"><ele>721.0</ele><time>2026-04-05T14:39:05.999Z</time></trkpt><trkpt lat="44.38639167538883" lon="8.13144817468533"><ele>719.6666666666667</ele><time>2026-04-05T14:39:06.999Z</time></trkpt><trkpt lat="44.386543958153034" lon="8.13159633560036"><ele>718.3333333333334</ele><time>2026-04-05T14:39:07.999Z</time></trkpt><trkpt lat="44.38669558009683" lon="8.131719506480959"><ele>717.0</ele><time>2026-04-05T14:39:08.999Z</time></trkpt><trkpt lat="44.38685901815451" lon="8.131809504171251"><ele>717.0</ele><time>2026-04-05T14:39:09.999Z</time></trkpt><trkpt lat="44.387062501248465" lon="8.131859861389716"><ele>717.0</ele><time>2026-04-05T14:39:10.999Z</time></trkpt><trkpt lat="44.38730047379919" lon="8.131891093858009"><ele>717.0</ele><time>2026-04-05T14:39:11.999Z</time></trkpt><trkpt lat="44.387546256698194" lon="8.131927299136965"><ele>718.5</ele><time>2026-04-05T14:39:12.999Z</time></trkpt><trkpt lat="44.38778066954804" lon="8.132027523343583"><ele>720.0</ele><time>2026-04-05T14:39:13.999Z</time></trkpt><trkpt lat="44.3880024290094" lon="8.13210765078704"><ele>719.0</ele><time>2026-04-05T14:39:14.999Z</time></trkpt><trkpt lat="44.38817847477452" lon="8.132190909853543"><ele>718.0</ele><time>2026-04-05T14:39:15.999Z</time></trkpt><trkpt lat="44.3883387277269" lon="8.132245854361953"><ele>717.0</ele><time>2026-04-05T14:39:16.999Z</time></trkpt><trkpt lat="44.388510177643866" lon="8.132243070445494"><ele>717.0</ele><time>2026-04-05T14:39:17.999Z</time></trkpt><trkpt lat="44.38871830980189" lon="8.132166674251323"><ele>717.0</ele><time>2026-04-05T14:39:18.999Z</time></trkpt><trkpt lat="44.388953178042826" lon="8.132014762137738"><ele>712.5</ele><time>2026-04-05T14:39:19.999Z</time></trkpt><trkpt lat="44.38921396835644" lon="8.1318839186229"><ele>708.0</ele><time>2026-04-05T14:39:20.999Z</time></trkpt><trkpt lat="44.38947979007773" lon="8.13174725021604"><ele>711.0</ele><time>2026-04-05T14:39:21.999Z</time></trkpt><trkpt lat="44.389717695817275" lon="8.131598621194174"><ele>714.0</ele><time>2026-04-05T14:39:22.999Z</time></trkpt><trkpt lat="44.38992287555553" lon="8.131460779613803"><ele>707.5</ele><time>2026-04-05T14:39:23.999Z</time></trkpt><trkpt lat="44.39012778718717" lon="8.131262757349706"><ele>701.0</ele><time>2026-04-05T14:39:24.999Z</time></trkpt><trkpt lat="44.390323057320145" lon="8.13103322748867"><ele>701.0</ele><time>2026-04-05T14:39:25.999Z</time></trkpt><trkpt lat="44.39048373216795" lon="8.130834222435055"><ele>701.0</ele><time>2026-04-05T14:39:26.999Z</time></trkpt><trkpt lat="44.39060726211152" lon="8.130647891280152"><ele>701.0</ele><time>2026-04-05T14:39:27.999Z</time></trkpt><trkpt lat="44.390696308651" lon="8.130450041285556"><ele>700.0</ele><time>2026-04-05T14:39:28.999Z</time></trkpt><trkpt lat="44.39076816859092" lon="8.130272423346995"><ele>699.0</ele><time>2026-04-05T14:39:29.999Z</time></trkpt><trkpt lat="44.39085452417368" lon="8.130129502218056"><ele>698.0</ele><time>2026-04-05T14:39:30.999Z</time></trkpt><trkpt lat="44.39097790315419" lon="8.130068094836123"><ele>697.0</ele><time>2026-04-05T14:39:31.999Z</time></trkpt><trkpt lat="44.3911050744989" lon="8.130003281780294"><ele>697.0</ele><time>2026-04-05T14:39:32.999Z</time></trkpt><trkpt lat="44.391265909530766" lon="8.130040695873804"><ele>697.0</ele><time>2026-04-05T14:39:33.999Z</time></trkpt><trkpt lat="44.39144556405898" lon="8.130161419504558"><ele>697.0</ele><time>2026-04-05T14:39:34.999Z</time></trkpt><trkpt lat="44.391633470409325" lon="8.130316315333937"><ele>695.6666666666667</ele><time>2026-04-05T14:39:35.999Z</time></trkpt><trkpt lat="44.391811380852815" lon="8.13044085318996"><ele>694.3333333333334</ele><time>2026-04-05T14:39:36.999Z</time></trkpt><trkpt lat="44.39200148495522" lon="8.130498201076527"><ele>693.0</ele><time>2026-04-05T14:39:37.999Z</time></trkpt><trkpt lat="44.39220561549125" lon="8.130472839401126"><ele>689.5</ele><time>2026-04-05T14:39:38.999Z</time></trkpt><trkpt lat="44.39243519689474" lon="8.130445971813067"><ele>686.0</ele><time>2026-04-05T14:39:39.999Z</time></trkpt><trkpt lat="44.39266881946474" lon="8.130155648826781"><ele>686.0</ele><time>2026-04-05T14:39:40.999Z</time></trkpt><trkpt lat="44.39290220941622" lon="8.129914051611706"><ele>686.0</ele><time>2026-04-05T14:39:41.999Z</time></trkpt><trkpt lat="44.39314185330664" lon="8.129660885983332"><ele>681.0</ele><time>2026-04-05T14:39:42.999Z</time></trkpt><trkpt lat="44.393333083319234" lon="8.129390538891105"><ele>676.0</ele><time>2026-04-05T14:39:43.999Z</time></trkpt><trkpt lat="44.393465501733786" lon="8.129158864694338"><ele>674.0</ele><time>2026-04-05T14:39:44.999Z</time></trkpt><trkpt lat="44.39363917702386" lon="8.129028234414672"><ele>672.0</ele><time>2026-04-05T14:39:45.999Z</time></trkpt><trkpt lat="44.3938128567802" lon="8.128894431626495"><ele>670.0</ele><time>2026-04-05T14:39:46.999Z</time></trkpt><trkpt lat="44.39398606915736" lon="8.12878938916738"><ele>670.0</ele><time>2026-04-05T14:39:47.999Z</time></trkpt><trkpt lat="44.39419935661124" lon="8.128739813117905"><ele>670.0</ele><time>2026-04-05T14:39:48.999Z</time></trkpt><trkpt lat="44.39444811392882" lon="8.12870684471663"><ele>668.5</ele><time>2026-04-05T14:39:49.999Z</time></trkpt><trkpt lat="44.394707046338276" lon="8.12866279302304"><ele>667.0</ele><time>2026-04-05T14:39:50.999Z</time></trkpt><trkpt lat="44.39497570591383" lon="8.128639929072554"><ele>667.0</ele><time>2026-04-05T14:39:51.999Z</time></trkpt><trkpt lat="44.39524744541025" lon="8.12859648230977"><ele>667.0</ele><time>2026-04-05T14:39:52.999Z</time></trkpt><trkpt lat="44.395499617097094" lon="8.128235084691493"><ele>672.5</ele><time>2026-04-05T14:39:53.999Z</time></trkpt><trkpt lat="44.39571399408886" lon="8.128066536886504"><ele>678.0</ele><time>2026-04-05T14:39:54.999Z</time></trkpt><trkpt lat="44.395894050872556" lon="8.1278458147055"><ele>678.0</ele><time>2026-04-05T14:39:55.999Z</time></trkpt><trkpt lat="44.39604226823515" lon="8.127603442998153"><ele>678.0</ele><time>2026-04-05T14:39:56.999Z</time></trkpt><trkpt lat="44.39614578220043" lon="8.127347989226497"><ele>678.0</ele><time>2026-04-05T14:39:57.999Z</time></trkpt><trkpt lat="44.39622339246077" lon="8.127039156388108"><ele>678.5</ele><time>2026-04-05T14:39:58.999Z</time></trkpt><trkpt lat="44.39628564262524" lon="8.126705213049329"><ele>679.0</ele><time>2026-04-05T14:39:59.999Z</time></trkpt><trkpt lat="44.396336053694014" lon="8.126374426096913"><ele>679.0</ele><time>2026-04-05T14:40:00.999Z</time></trkpt><trkpt lat="44.396383472771596" lon="8.126063698571228"><ele>679.0</ele><time>2026-04-05T14:40:01.999Z</time></trkpt><trkpt lat="44.396448737901906" lon="8.125846555551234"><ele>679.0</ele><time>2026-04-05T14:40:02.999Z</time></trkpt><trkpt lat="44.39652072064691" lon="8.125685445758137"><ele>680.0</ele><time>2026-04-05T14:40:03.999Z</time></trkpt><trkpt lat="44.396627853024235" lon="8.125484691035522"><ele>681.0</ele><time>2026-04-05T14:40:04.999Z</time></trkpt><trkpt lat="44.39676890585716" lon="8.12532616996832"><ele>682.0</ele><time>2026-04-05T14:40:05.999Z</time></trkpt><trkpt lat="44.396952208426825" lon="8.125199720874196"><ele>682.0</ele><time>2026-04-05T14:40:06.999Z</time></trkpt><trkpt lat="44.39714308547413" lon="8.12504391258126"><ele>682.0</ele><time>2026-04-05T14:40:07.999Z</time></trkpt><trkpt lat="44.397334988811195" lon="8.124883422679924"><ele>682.0</ele><time>2026-04-05T14:40:08.999Z</time></trkpt><trkpt lat="44.39749686580137" lon="8.124725833665082"><ele>684.0</ele><time>2026-04-05T14:40:09.999Z</time></trkpt><trkpt lat="44.39761918002786" lon="8.124543307903398"><ele>686.0</ele><time>2026-04-05T14:40:10.999Z</time></trkpt><trkpt lat="44.39770881600302" lon="8.124310191117207"><ele>688.0</ele><time>2026-04-05T14:40:11.999Z</time></trkpt><trkpt lat="44.3977393818319" lon="8.124037760679816"><ele>689.0</ele><time>2026-04-05T14:40:12.999Z</time></trkpt><trkpt lat="44.39771932530405" lon="8.123765041929381"><ele>690.0</ele><time>2026-04-05T14:40:13.999Z</time></trkpt><trkpt lat="44.39771743350861" lon="8.123555813050816"><ele>691.0</ele><time>2026-04-05T14:40:14.999Z</time></trkpt><trkpt lat="44.39774857576423" lon="8.123375910873097"><ele>688.3333333333334</ele><time>2026-04-05T14:40:15.999Z</time></trkpt><trkpt lat="44.39782516391305" lon="8.123185385414219"><ele>685.6666666666666</ele><time>2026-04-05T14:40:16.999Z</time></trkpt><trkpt lat="44.39796016052779" lon="8.123037420153427"><ele>683.0</ele><time>2026-04-05T14:40:17.999Z</time></trkpt><trkpt lat="44.39812605244368" lon="8.122877245369134"><ele>691.5</ele><time>2026-04-05T14:40:18.999Z</time></trkpt><trkpt lat="44.398322845736494" lon="8.122701454085156"><ele>700.0</ele><time>2026-04-05T14:40:19.999Z</time></trkpt><trkpt lat="44.39852195139456" lon="8.12250877715395"><ele>702.6666666666667</ele><time>2026-04-05T14:40:20.999Z</time></trkpt><trkpt lat="44.39871253008598" lon="8.122321707292716"><ele>705.3333333333334</ele><time>2026-04-05T14:40:21.999Z</time></trkpt><trkpt lat="44.39889191603921" lon="8.122158107571497"><ele>708.0</ele><time>2026-04-05T14:40:22.999Z</time></trkpt><trkpt lat="44.39906557227146" lon="8.122003830486374"><ele>708.0</ele><time>2026-04-05T14:40:23.999Z</time></trkpt><trkpt lat="44.39921957537474" lon="8.121858842891665"><ele>708.0</ele><time>2026-04-05T14:40:24.999Z</time></trkpt><trkpt lat="44.39936749758755" lon="8.121686490554085"><ele>708.0</ele><time>2026-04-05T14:40:25.999Z</time></trkpt><trkpt lat="44.39951147727628" lon="8.121477846743746"><ele>709.3333333333334</ele><time>2026-04-05T14:40:26.999Z</time></trkpt><trkpt lat="44.39966348910636" lon="8.1212612265468"><ele>710.6666666666667</ele><time>2026-04-05T14:40:27.999Z</time></trkpt><trkpt lat="44.39979983166822" lon="8.121070247008767"><ele>712.0</ele><time>2026-04-05T14:40:28.999Z</time></trkpt><trkpt lat="44.39992093878" lon="8.120897199514495"><ele>712.0</ele><time>2026-04-05T14:40:29.999Z</time></trkpt><trkpt lat="44.40002452780037" lon="8.120702686962503"><ele>712.0</ele><time>2026-04-05T14:40:30.999Z</time></trkpt><trkpt lat="44.40010695614484" lon="8.120444056023844"><ele>712.0</ele><time>2026-04-05T14:40:31.999Z</time></trkpt><trkpt lat="44.40016331554034" lon="8.1201629842144"><ele>713.3333333333334</ele><time>2026-04-05T14:40:32.999Z</time></trkpt><trkpt lat="44.400216627064545" lon="8.119897409267812"><ele>714.6666666666666</ele><time>2026-04-05T14:40:33.999Z</time></trkpt><trkpt lat="44.400272236500356" lon="8.119648139523218"><ele>716.0</ele><time>2026-04-05T14:40:34.999Z</time></trkpt><trkpt lat="44.40032457708922" lon="8.11941442488365"><ele>716.0</ele><time>2026-04-05T14:40:35.999Z</time></trkpt><trkpt lat="44.4003743788356" lon="8.119195450279182"><ele>716.0</ele><time>2026-04-05T14:40:36.999Z</time></trkpt><trkpt lat="44.40043079677605" lon="8.11899254430996"><ele>716.0</ele><time>2026-04-05T14:40:37.999Z</time></trkpt><trkpt lat="44.40050208361993" lon="8.118792196053416"><ele>711.0</ele><time>2026-04-05T14:40:38.999Z</time></trkpt><trkpt lat="44.40058368233401" lon="8.11860586637428"><ele>706.0</ele><time>2026-04-05T14:40:39.999Z</time></trkpt><trkpt lat="44.400677985598755" lon="8.118426034428845"><ele>701.0</ele><time>2026-04-05T14:40:40.999Z</time></trkpt><trkpt lat="44.40078310278714" lon="8.118257154229969"><ele>702.5</ele><time>2026-04-05T14:40:41.999Z</time></trkpt><trkpt lat="44.40089294446646" lon="8.118109660099353"><ele>704.0</ele><time>2026-04-05T14:40:42.999Z</time></trkpt><trkpt lat="44.40099830971883" lon="8.117987064034015"><ele>705.5</ele><time>2026-04-05T14:40:43.999Z</time></trkpt><trkpt lat="44.40109631703767" lon="8.117893025832538"><ele>707.0</ele><time>2026-04-05T14:40:44.999Z</time></trkpt><trkpt lat="44.401183392802345" lon="8.117820191791747"><ele>707.0</ele><time>2026-04-05T14:40:45.999Z</time></trkpt><trkpt lat="44.40126070399729" lon="8.117763964168203"><ele>707.0</ele><time>2026-04-05T14:40:46.999Z</time></trkpt><trkpt lat="44.40132219453474" lon="8.1177199507987"><ele>707.0</ele><time>2026-04-05T14:40:47.999Z</time></trkpt><trkpt lat="44.40142492710322" lon="8.117675186311086"><ele>707.0</ele><time>2026-04-05T14:40:49.999Z</time></trkpt><trkpt lat="44.40148895077965" lon="8.11765675376876"><ele>707.0</ele><time>2026-04-05T14:40:51.999Z</time></trkpt><trkpt lat="44.40157357659918" lon="8.117643298655675"><ele>707.0</ele><time>2026-04-05T14:40:53.999Z</time></trkpt><trkpt lat="44.401652620476256" lon="8.117671182458407"><ele>706.0</ele><time>2026-04-05T14:40:55.999Z</time></trkpt><trkpt lat="44.401692155036336" lon="8.1175317505431"><ele>705.0</ele><time>2026-04-05T14:40:56.999Z</time></trkpt><trkpt lat="44.401718702299725" lon="8.117398816840057"><ele>704.0</ele><time>2026-04-05T14:40:58.999Z</time></trkpt><trkpt lat="44.401798634361235" lon="8.11733716605533"><ele>703.0</ele><time>2026-04-05T14:40:59.999Z</time></trkpt><trkpt lat="44.40185918857077" lon="8.117249079898416"><ele>702.0</ele><time>2026-04-05T14:41:00.999Z</time></trkpt><trkpt lat="44.401917028173614" lon="8.11712789414966"><ele>701.25</ele><time>2026-04-05T14:41:01.999Z</time></trkpt><trkpt lat="44.40202405298933" lon="8.11704842503842"><ele>700.5</ele><time>2026-04-05T14:41:02.999Z</time></trkpt><trkpt lat="44.402110313580124" lon="8.116941488396781"><ele>699.75</ele><time>2026-04-05T14:41:03.999Z</time></trkpt><trkpt lat="44.40219703631144" lon="8.116825193839961"><ele>699.0</ele><time>2026-04-05T14:41:04.999Z</time></trkpt><trkpt lat="44.402285062631236" lon="8.116698572173522"><ele>698.5</ele><time>2026-04-05T14:41:05.999Z</time></trkpt><trkpt lat="44.40237153090397" lon="8.116566896916128"><ele>698.0</ele><time>2026-04-05T14:41:06.999Z</time></trkpt><trkpt lat="44.40245366071644" lon="8.116421851000112"><ele>697.5</ele><time>2026-04-05T14:41:07.999Z</time></trkpt><trkpt lat="44.40252677408488" lon="8.116272401139142"><ele>697.0</ele><time>2026-04-05T14:41:08.999Z</time></trkpt><trkpt lat="44.40259909264363" lon="8.116120873230342"><ele>697.0</ele><time>2026-04-05T14:41:09.999Z</time></trkpt><trkpt lat="44.402679065065485" lon="8.115978335021154"><ele>697.0</ele><time>2026-04-05T14:41:10.999Z</time></trkpt><trkpt lat="44.402771179360435" lon="8.11584653958471"><ele>697.0</ele><time>2026-04-05T14:41:11.999Z</time></trkpt><trkpt lat="44.40287159994792" lon="8.115722523001097"><ele>697.0</ele><time>2026-04-05T14:41:12.999Z</time></trkpt><trkpt lat="44.40297318240097" lon="8.115600558899176"><ele>697.6666666666667</ele><time>2026-04-05T14:41:13.999Z</time></trkpt><trkpt lat="44.40307510589311" lon="8.1154734865155"><ele>698.3333333333334</ele><time>2026-04-05T14:41:14.999Z</time></trkpt><trkpt lat="44.403191347819174" lon="8.115341749972856"><ele>699.0</ele><time>2026-04-05T14:41:15.999Z</time></trkpt><trkpt lat="44.403291609981785" lon="8.115157149047587"><ele>699.0</ele><time>2026-04-05T14:41:16.999Z</time></trkpt><trkpt lat="44.40335447038173" lon="8.114889587396764"><ele>699.0</ele><time>2026-04-05T14:41:17.999Z</time></trkpt><trkpt lat="44.403374491629656" lon="8.114546172050643"><ele>699.0</ele><time>2026-04-05T14:41:18.999Z</time></trkpt><trkpt lat="44.40341251037773" lon="8.114174542901361"><ele>700.0</ele><time>2026-04-05T14:41:19.999Z</time></trkpt><trkpt lat="44.40345660147868" lon="8.11378325154288"><ele>701.0</ele><time>2026-04-05T14:41:20.999Z</time></trkpt><trkpt lat="44.4035095433705" lon="8.113436803388652"><ele>699.0</ele><time>2026-04-05T14:41:21.999Z</time></trkpt><trkpt lat="44.403558279447005" lon="8.11314347983972"><ele>697.0</ele><time>2026-04-05T14:41:22.999Z</time></trkpt><trkpt lat="44.40363131450013" lon="8.11285340942084"><ele>695.0</ele><time>2026-04-05T14:41:23.999Z</time></trkpt><trkpt lat="44.403713084534076" lon="8.112645238293549"><ele>695.5</ele><time>2026-04-05T14:41:24.999Z</time></trkpt><trkpt lat="44.40385755739291" lon="8.11241067129039"><ele>696.0</ele><time>2026-04-05T14:41:25.999Z</time></trkpt><trkpt lat="44.40406372587161" lon="8.112155338871752"><ele>699.5</ele><time>2026-04-05T14:41:26.999Z</time></trkpt><trkpt lat="44.40423341978871" lon="8.111902841075835"><ele>703.0</ele><time>2026-04-05T14:41:27.999Z</time></trkpt><trkpt lat="44.40438316625885" lon="8.111662924449494"><ele>700.0</ele><time>2026-04-05T14:41:28.999Z</time></trkpt><trkpt lat="44.40450683654252" lon="8.111447117733343"><ele>697.0</ele><time>2026-04-05T14:41:29.999Z</time></trkpt><trkpt lat="44.404618497323014" lon="8.11125548627293"><ele>694.0</ele><time>2026-04-05T14:41:30.999Z</time></trkpt><trkpt lat="44.4047418582905" lon="8.111027946113355"><ele>698.6666666666667</ele><time>2026-04-05T14:41:31.999Z</time></trkpt><trkpt lat="44.40486291702973" lon="8.110806696067302"><ele>703.3333333333334</ele><time>2026-04-05T14:41:32.999Z</time></trkpt><trkpt lat="44.404938941687526" lon="8.11060639022235"><ele>708.0</ele><time>2026-04-05T14:41:33.999Z</time></trkpt><trkpt lat="44.405003722123226" lon="8.110415526214371"><ele>708.0</ele><time>2026-04-05T14:41:34.999Z</time></trkpt><trkpt lat="44.40506380075086" lon="8.11023579123991"><ele>708.0</ele><time>2026-04-05T14:41:35.999Z</time></trkpt><trkpt lat="44.405132801797876" lon="8.11008252394128"><ele>708.0</ele><time>2026-04-05T14:41:36.999Z</time></trkpt><trkpt lat="44.40521754899861" lon="8.109924531255604"><ele>708.0</ele><time>2026-04-05T14:41:37.999Z</time></trkpt><trkpt lat="44.40531205850355" lon="8.109794392923432"><ele>709.3333333333334</ele><time>2026-04-05T14:41:38.999Z</time></trkpt><trkpt lat="44.40543790626712" lon="8.10963302803398"><ele>710.6666666666667</ele><time>2026-04-05T14:41:39.999Z</time></trkpt><trkpt lat="44.40559015043552" lon="8.109456014673283"><ele>712.0</ele><time>2026-04-05T14:41:40.999Z</time></trkpt><trkpt lat="44.40575942064388" lon="8.109255159570646"><ele>706.5</ele><time>2026-04-05T14:41:41.999Z</time></trkpt><trkpt lat="44.40592818194544" lon="8.109017989635305"><ele>701.0</ele><time>2026-04-05T14:41:42.999Z</time></trkpt><trkpt lat="44.40610545524529" lon="8.108794735803015"><ele>701.0</ele><time>2026-04-05T14:41:43.999Z</time></trkpt><trkpt lat="44.40625639106154" lon="8.108577621000578"><ele>701.0</ele><time>2026-04-05T14:41:44.999Z</time></trkpt><trkpt lat="44.40637931664152" lon="8.108376590036036"><ele>701.0</ele><time>2026-04-05T14:41:45.999Z</time></trkpt><trkpt lat="44.40649093186367" lon="8.108194638542617"><ele>703.5</ele><time>2026-04-05T14:41:46.999Z</time></trkpt><trkpt lat="44.40658469565704" lon="8.10801970965963"><ele>706.0</ele><time>2026-04-05T14:41:47.999Z</time></trkpt><trkpt lat="44.40667006742109" lon="8.10785947118353"><ele>708.5</ele><time>2026-04-05T14:41:48.999Z</time></trkpt><trkpt lat="44.40675449350927" lon="8.107709199724972"><ele>711.0</ele><time>2026-04-05T14:41:49.999Z</time></trkpt><trkpt lat="44.406851676446664" lon="8.10755500721923"><ele>710.6666666666666</ele><time>2026-04-05T14:41:50.999Z</time></trkpt><trkpt lat="44.406961536295455" lon="8.107401690563293"><ele>710.3333333333333</ele><time>2026-04-05T14:41:51.999Z</time></trkpt><trkpt lat="44.40708047785202" lon="8.107268135704297"><ele>710.0</ele><time>2026-04-05T14:41:52.999Z</time></trkpt><trkpt lat="44.40722401516145" lon="8.10718061252136"><ele>710.0</ele><time>2026-04-05T14:41:53.999Z</time></trkpt><trkpt lat="44.40735856362924" lon="8.10706062371052"><ele>710.0</ele><time>2026-04-05T14:41:54.999Z</time></trkpt><trkpt lat="44.40749800945008" lon="8.106974451628714"><ele>710.0</ele><time>2026-04-05T14:41:55.999Z</time></trkpt><trkpt lat="44.407637062788396" lon="8.106893994709274"><ele>710.0</ele><time>2026-04-05T14:41:56.999Z</time></trkpt><trkpt lat="44.40776643804615" lon="8.10681394064749"><ele>710.0</ele><time>2026-04-05T14:41:57.999Z</time></trkpt><trkpt lat="44.40787972790415" lon="8.106725673797952"><ele>710.0</ele><time>2026-04-05T14:41:58.999Z</time></trkpt><trkpt lat="44.40798119935481" lon="8.10661532489544"><ele>710.0</ele><time>2026-04-05T14:41:59.999Z</time></trkpt><trkpt lat="44.40807493229961" lon="8.106476627301895"><ele>710.75</ele><time>2026-04-05T14:42:00.999Z</time></trkpt><trkpt lat="44.40816437294199" lon="8.106331216497619"><ele>711.5</ele><time>2026-04-05T14:42:01.999Z</time></trkpt><trkpt lat="44.40825345157161" lon="8.106205890808132"><ele>712.25</ele><time>2026-04-05T14:42:02.999Z</time></trkpt><trkpt lat="44.408352964366415" lon="8.106099883485022"><ele>713.0</ele><time>2026-04-05T14:42:03.999Z</time></trkpt><trkpt lat="44.4084663564696" lon="8.106027589924143"><ele>713.0</ele><time>2026-04-05T14:42:04.999Z</time></trkpt><trkpt lat="44.40858815331306" lon="8.105981476726285"><ele>713.0</ele><time>2026-04-05T14:42:05.999Z</time></trkpt><trkpt lat="44.40870740551458" lon="8.105958283711205"><ele>713.0</ele><time>2026-04-05T14:42:06.999Z</time></trkpt><trkpt lat="44.40881077491666" lon="8.105919150439753"><ele>713.0</ele><time>2026-04-05T14:42:07.999Z</time></trkpt><trkpt lat="44.40889565173329" lon="8.105834805868982"><ele>714.75</ele><time>2026-04-05T14:42:08.999Z</time></trkpt><trkpt lat="44.408970697220845" lon="8.10572269523295"><ele>716.5</ele><time>2026-04-05T14:42:09.999Z</time></trkpt><trkpt lat="44.40903179987256" lon="8.105587240968783"><ele>718.25</ele><time>2026-04-05T14:42:10.999Z</time></trkpt><trkpt lat="44.40908646780254" lon="8.105441627820626"><ele>720.0</ele><time>2026-04-05T14:42:11.999Z</time></trkpt><trkpt lat="44.40913518925108" lon="8.10529005764085"><ele>720.0</ele><time>2026-04-05T14:42:12.999Z</time></trkpt><trkpt lat="44.40919491867286" lon="8.10516122558684"><ele>720.0</ele><time>2026-04-05T14:42:13.999Z</time></trkpt><trkpt lat="44.409258009232694" lon="8.105047666770673"><ele>720.0</ele><time>2026-04-05T14:42:14.999Z</time></trkpt><trkpt lat="44.40932103678086" lon="8.10494348023791"><ele>720.0</ele><time>2026-04-05T14:42:15.999Z</time></trkpt><trkpt lat="44.40937233666785" lon="8.104833046751837"><ele>720.0</ele><time>2026-04-05T14:42:16.999Z</time></trkpt><trkpt lat="44.4093992163091" lon="8.1046877463458"><ele>719.2</ele><time>2026-04-05T14:42:17.999Z</time></trkpt><trkpt lat="44.40942505238376" lon="8.10454386805787"><ele>718.4</ele><time>2026-04-05T14:42:18.999Z</time></trkpt><trkpt lat="44.40944762282068" lon="8.104394966820939"><ele>717.5999999999999</ele><time>2026-04-05T14:42:19.999Z</time></trkpt><trkpt lat="44.40946488607796" lon="8.104247073755483"><ele>716.8</ele><time>2026-04-05T14:42:20.999Z</time></trkpt><trkpt lat="44.409467967501314" lon="8.104090164778633"><ele>716.0</ele><time>2026-04-05T14:42:21.999Z</time></trkpt><trkpt lat="44.409468651511524" lon="8.103926344846473"><ele>714.75</ele><time>2026-04-05T14:42:22.999Z</time></trkpt><trkpt lat="44.40947513574043" lon="8.103760851673766"><ele>713.5</ele><time>2026-04-05T14:42:23.999Z</time></trkpt><trkpt lat="44.40949694589645" lon="8.10357954868051"><ele>712.25</ele><time>2026-04-05T14:42:24.999Z</time></trkpt><trkpt lat="44.40952953127872" lon="8.103366122193922"><ele>711.0</ele><time>2026-04-05T14:42:25.999Z</time></trkpt><trkpt lat="44.40956587331649" lon="8.103109162116068"><ele>710.0</ele><time>2026-04-05T14:42:27Z</time></trkpt><trkpt lat="44.4096069994764" lon="8.102822882960115"><ele>709.0</ele><time>2026-04-05T14:42:28Z</time></trkpt><trkpt lat="44.409657725470936" lon="8.102511581980616"><ele>708.0</ele><time>2026-04-05T14:42:29Z</time></trkpt><trkpt lat="44.40971601326749" lon="8.102186858879168"><ele>715.0</ele><time>2026-04-05T14:42:30Z</time></trkpt><trkpt lat="44.40976930037689" lon="8.10186372901633"><ele>722.0</ele><time>2026-04-05T14:42:31Z</time></trkpt><trkpt lat="44.409830349301686" lon="8.101559940676742"><ele>722.0</ele><time>2026-04-05T14:42:32Z</time></trkpt><trkpt lat="44.4099239864892" lon="8.101273509098096"><ele>722.0</ele><time>2026-04-05T14:42:33Z</time></trkpt><trkpt lat="44.41005451367381" lon="8.101020339449343"><ele>722.0</ele><time>2026-04-05T14:42:34Z</time></trkpt><trkpt lat="44.41020197195109" lon="8.10078904460296"><ele>716.5</ele><time>2026-04-05T14:42:35Z</time></trkpt><trkpt lat="44.41034013250631" lon="8.100485180230587"><ele>711.0</ele><time>2026-04-05T14:42:36Z</time></trkpt><trkpt lat="44.41045265843842" lon="8.100114925514196"><ele>719.0</ele><time>2026-04-05T14:42:37Z</time></trkpt><trkpt lat="44.41055455759296" lon="8.099771981603281"><ele>727.0</ele><time>2026-04-05T14:42:38Z</time></trkpt><trkpt lat="44.41063401819847" lon="8.099526073942378"><ele>727.0</ele><time>2026-04-05T14:42:39Z</time></trkpt><trkpt lat="44.41068049662326" lon="8.09931053747012"><ele>727.0</ele><time>2026-04-05T14:42:40Z</time></trkpt><trkpt lat="44.410663756311564" lon="8.099062038755044"><ele>727.0</ele><time>2026-04-05T14:42:41Z</time></trkpt><trkpt lat="44.41058203482869" lon="8.098775881902245"><ele>726.0</ele><time>2026-04-05T14:42:41.999Z</time></trkpt><trkpt lat="44.41044624802888" lon="8.098480736873547"><ele>725.0</ele><time>2026-04-05T14:42:42.999Z</time></trkpt><trkpt lat="44.41029890841077" lon="8.098174443773011"><ele>725.0</ele><time>2026-04-05T14:42:43.999Z</time></trkpt><trkpt lat="44.410171637633134" lon="8.097826084932159"><ele>725.0</ele><time>2026-04-05T14:42:44.999Z</time></trkpt><trkpt lat="44.41006900554753" lon="8.0975085362626"><ele>723.6666666666666</ele><time>2026-04-05T14:42:45.999Z</time></trkpt><trkpt lat="44.409994788532394" lon="8.097219213130016"><ele>722.3333333333334</ele><time>2026-04-05T14:42:46.999Z</time></trkpt><trkpt lat="44.40994157818448" lon="8.096938080912203"><ele>721.0</ele><time>2026-04-05T14:42:47.999Z</time></trkpt><trkpt lat="44.40995930942352" lon="8.096659024636768"><ele>718.3333333333334</ele><time>2026-04-05T14:42:48.999Z</time></trkpt><trkpt lat="44.41001194270138" lon="8.096396011243307"><ele>715.6666666666666</ele><time>2026-04-05T14:42:49.999Z</time></trkpt><trkpt lat="44.410091268337595" lon="8.096093977665255"><ele>713.0</ele><time>2026-04-05T14:42:50.999Z</time></trkpt><trkpt lat="44.410181459800256" lon="8.09577488286137"><ele>707.5</ele><time>2026-04-05T14:42:51.999Z</time></trkpt><trkpt lat="44.41031804513005" lon="8.095443473876143"><ele>702.0</ele><time>2026-04-05T14:42:52.999Z</time></trkpt><trkpt lat="44.41049313144251" lon="8.09510684095267"><ele>701.0</ele><time>2026-04-05T14:42:53.999Z</time></trkpt><trkpt lat="44.410662694295596" lon="8.094775123251063"><ele>700.0</ele><time>2026-04-05T14:42:54.999Z</time></trkpt><trkpt lat="44.410825519532025" lon="8.09445910143668"><ele>700.0</ele><time>2026-04-05T14:42:55.999Z</time></trkpt><trkpt lat="44.41099061787015" lon="8.094136369843612"><ele>700.0</ele><time>2026-04-05T14:42:56.999Z</time></trkpt><trkpt lat="44.41114157707949" lon="8.093800527592052"><ele>703.0</ele><time>2026-04-05T14:42:57.999Z</time></trkpt><trkpt lat="44.411303726041034" lon="8.093510510275966"><ele>706.0</ele><time>2026-04-05T14:42:58.999Z</time></trkpt><trkpt lat="44.41144723254436" lon="8.09320553522556"><ele>706.0</ele><time>2026-04-05T14:42:59.999Z</time></trkpt><trkpt lat="44.41157273268369" lon="8.092875956450014"><ele>706.0</ele><time>2026-04-05T14:43:00.999Z</time></trkpt><trkpt lat="44.4116374041106" lon="8.092565105443542"><ele>701.3333333333334</ele><time>2026-04-05T14:43:01.999Z</time></trkpt><trkpt lat="44.41169437149462" lon="8.09232629864146"><ele>696.6666666666666</ele><time>2026-04-05T14:43:02.999Z</time></trkpt><trkpt lat="44.41179938952996" lon="8.092163469621877"><ele>692.0</ele><time>2026-04-05T14:43:03.999Z</time></trkpt><trkpt lat="44.411928696264006" lon="8.09203597222651"><ele>692.0</ele><time>2026-04-05T14:43:04.999Z</time></trkpt><trkpt lat="44.412116109255386" lon="8.091900891713673"><ele>692.0</ele><time>2026-04-05T14:43:05.999Z</time></trkpt><trkpt lat="44.41234470885215" lon="8.091792786945955"><ele>701.0</ele><time>2026-04-05T14:43:06.999Z</time></trkpt><trkpt lat="44.41258507642641" lon="8.091706741170572"><ele>710.0</ele><time>2026-04-05T14:43:07.999Z</time></trkpt><trkpt lat="44.412798617621455" lon="8.091614110956568"><ele>710.3333333333333</ele><time>2026-04-05T14:43:08.999Z</time></trkpt><trkpt lat="44.412985887170684" lon="8.091528004286124"><ele>710.6666666666666</ele><time>2026-04-05T14:43:09.999Z</time></trkpt><trkpt lat="44.41316571654734" lon="8.091359453517818"><ele>711.0</ele><time>2026-04-05T14:43:10.999Z</time></trkpt><trkpt lat="44.41333013524492" lon="8.0911190773242"><ele>711.0</ele><time>2026-04-05T14:43:11.999Z</time></trkpt><trkpt lat="44.41348089107706" lon="8.090894098102561"><ele>711.0</ele><time>2026-04-05T14:43:12.999Z</time></trkpt><trkpt lat="44.413677376059496" lon="8.090774474088796"><ele>711.0</ele><time>2026-04-05T14:43:13.999Z</time></trkpt><trkpt lat="44.41390528277654" lon="8.090649726583484"><ele>708.5</ele><time>2026-04-05T14:43:14.999Z</time></trkpt><trkpt lat="44.41413932157182" lon="8.090510802384934"><ele>706.0</ele><time>2026-04-05T14:43:15.999Z</time></trkpt><trkpt lat="44.41433743548349" lon="8.090367262903882"><ele>706.0</ele><time>2026-04-05T14:43:16.999Z</time></trkpt><trkpt lat="44.41449275614294" lon="8.090163480363952"><ele>706.0</ele><time>2026-04-05T14:43:17.999Z</time></trkpt><trkpt lat="44.41462989744039" lon="8.089932222003817"><ele>706.0</ele><time>2026-04-05T14:43:18.999Z</time></trkpt><trkpt lat="44.41479315842391" lon="8.08981621689474"><ele>703.0</ele><time>2026-04-05T14:43:19.999Z</time></trkpt><trkpt lat="44.414985398971275" lon="8.089763545938636"><ele>700.0</ele><time>2026-04-05T14:43:20.999Z</time></trkpt><trkpt lat="44.415248396187756" lon="8.089702896762901"><ele>708.0</ele><time>2026-04-05T14:43:21.999Z</time></trkpt><trkpt lat="44.4155277334542" lon="8.0896037035156"><ele>716.0</ele><time>2026-04-05T14:43:22.999Z</time></trkpt><trkpt lat="44.41575810791551" lon="8.089487751783148"><ele>716.0</ele><time>2026-04-05T14:43:23.999Z</time></trkpt><trkpt lat="44.41594313273742" lon="8.089318507100057"><ele>716.0</ele><time>2026-04-05T14:43:24.999Z</time></trkpt><trkpt lat="44.41611614815444" lon="8.089066638154152"><ele>716.0</ele><time>2026-04-05T14:43:25.999Z</time></trkpt><trkpt lat="44.416317637901095" lon="8.088852524426946"><ele>716.0</ele><time>2026-04-05T14:43:26.999Z</time></trkpt><trkpt lat="44.41649324839878" lon="8.088673751517984"><ele>716.0</ele><time>2026-04-05T14:43:27.999Z</time></trkpt><trkpt lat="44.41664268724245" lon="8.088538701105463"><ele>716.0</ele><time>2026-04-05T14:43:28.999Z</time></trkpt><trkpt lat="44.416753889661024" lon="8.088424580117668"><ele>716.0</ele><time>2026-04-05T14:43:29.999Z</time></trkpt><trkpt lat="44.41686524539485" lon="8.088373712608366"><ele>716.0</ele><time>2026-04-05T14:43:30.999Z</time></trkpt><trkpt lat="44.41699302413249" lon="8.088372325420698"><ele>716.0</ele><time>2026-04-05T14:43:31.999Z</time></trkpt><trkpt lat="44.4171405039084" lon="8.088448729158928"><ele>716.0</ele><time>2026-04-05T14:43:32.999Z</time></trkpt><trkpt lat="44.41728446083725" lon="8.088629325832672"><ele>716.0</ele><time>2026-04-05T14:43:33.999Z</time></trkpt><trkpt lat="44.41744282695428" lon="8.088869056081819"><ele>722.5</ele><time>2026-04-05T14:43:34.999Z</time></trkpt><trkpt lat="44.41762535936124" lon="8.089125259947108"><ele>729.0</ele><time>2026-04-05T14:43:35.999Z</time></trkpt><trkpt lat="44.41780938852035" lon="8.089329226254025"><ele>729.0</ele><time>2026-04-05T14:43:36.999Z</time></trkpt><trkpt lat="44.417968010551064" lon="8.089441040323974"><ele>729.0</ele><time>2026-04-05T14:43:37.999Z</time></trkpt><trkpt lat="44.41804956484226" lon="8.089603511338037"><ele>729.0</ele><time>2026-04-05T14:43:38.999Z</time></trkpt><trkpt lat="44.41809059996628" lon="8.089772435343795"><ele>729.0</ele><time>2026-04-05T14:43:39.999Z</time></trkpt><trkpt lat="44.41811046093152" lon="8.090087805666242"><ele>727.0</ele><time>2026-04-05T14:43:40.999Z</time></trkpt><trkpt lat="44.418098520971625" lon="8.090386573440716"><ele>725.0</ele><time>2026-04-05T14:43:41.999Z</time></trkpt><trkpt lat="44.4180989154826" lon="8.090650442507707"><ele>723.0</ele><time>2026-04-05T14:43:42.999Z</time></trkpt><trkpt lat="44.41811572100997" lon="8.09089485329534"><ele>723.0</ele><time>2026-04-05T14:43:43.999Z</time></trkpt><trkpt lat="44.418192853012904" lon="8.091111053665454"><ele>723.0</ele><time>2026-04-05T14:43:44.999Z</time></trkpt><trkpt lat="44.41832600652517" lon="8.091372360603977"><ele>723.0</ele><time>2026-04-05T14:43:45.999Z</time></trkpt><trkpt lat="44.41849223540351" lon="8.091621965229292"><ele>721.6666666666666</ele><time>2026-04-05T14:43:46.999Z</time></trkpt><trkpt lat="44.41862782077368" lon="8.09183489973741"><ele>720.3333333333333</ele><time>2026-04-05T14:43:47.999Z</time></trkpt><trkpt lat="44.418798038661095" lon="8.092006292061589"><ele>719.0</ele><time>2026-04-05T14:43:48.999Z</time></trkpt><trkpt lat="44.419005072514835" lon="8.092133495819917"><ele>719.0</ele><time>2026-04-05T14:43:49.999Z</time></trkpt><trkpt lat="44.41926781671171" lon="8.092246983575114"><ele>719.0</ele><time>2026-04-05T14:43:50.999Z</time></trkpt><trkpt lat="44.41948410156814" lon="8.092324797036735"><ele>719.0</ele><time>2026-04-05T14:43:51.999Z</time></trkpt><trkpt lat="44.419676072842094" lon="8.092311993100068"><ele>719.0</ele><time>2026-04-05T14:43:52.999Z</time></trkpt><trkpt lat="44.41990881675341" lon="8.092208025868683"><ele>719.0</ele><time>2026-04-05T14:43:53.999Z</time></trkpt><trkpt lat="44.42017509164887" lon="8.092076067814398"><ele>719.0</ele><time>2026-04-05T14:43:54.999Z</time></trkpt><trkpt lat="44.42044744259317" lon="8.091944565187605"><ele>719.0</ele><time>2026-04-05T14:43:55.999Z</time></trkpt><trkpt lat="44.42064132355631" lon="8.091847731969802"><ele>721.0</ele><time>2026-04-05T14:43:56.999Z</time></trkpt><trkpt lat="44.42079006609435" lon="8.091781666321328"><ele>723.0</ele><time>2026-04-05T14:43:57.999Z</time></trkpt><trkpt lat="44.42091882089626" lon="8.091811722999132"><ele>725.0</ele><time>2026-04-05T14:43:58.999Z</time></trkpt><trkpt lat="44.42103659094834" lon="8.091880178579881"><ele>727.0</ele><time>2026-04-05T14:43:59.999Z</time></trkpt><trkpt lat="44.421131546481526" lon="8.092024749724757"><ele>727.0</ele><time>2026-04-05T14:44:00.999Z</time></trkpt><trkpt lat="44.421184092700344" lon="8.09222534852719"><ele>727.0</ele><time>2026-04-05T14:44:01.999Z</time></trkpt><trkpt lat="44.42123403736332" lon="8.092515310899463"><ele>727.0</ele><time>2026-04-05T14:44:02.999Z</time></trkpt><trkpt lat="44.42130089360279" lon="8.09282280200299"><ele>726.0</ele><time>2026-04-05T14:44:03.999Z</time></trkpt><trkpt lat="44.42138262541822" lon="8.093062038168114"><ele>725.0</ele><time>2026-04-05T14:44:04.999Z</time></trkpt><trkpt lat="44.42150154961151" lon="8.093255511461184"><ele>724.0</ele><time>2026-04-05T14:44:05.999Z</time></trkpt><trkpt lat="44.421685014041834" lon="8.093430009575425"><ele>725.0</ele><time>2026-04-05T14:44:06.999Z</time></trkpt><trkpt lat="44.421904168366936" lon="8.093518304083338"><ele>726.0</ele><time>2026-04-05T14:44:07.999Z</time></trkpt><trkpt lat="44.42215317396972" lon="8.093530026663974"><ele>726.0</ele><time>2026-04-05T14:44:08.999Z</time></trkpt><trkpt lat="44.42239152283389" lon="8.093560002292934"><ele>726.0</ele><time>2026-04-05T14:44:09.999Z</time></trkpt><trkpt lat="44.422576156370255" lon="8.093612265145637"><ele>726.0</ele><time>2026-04-05T14:44:10.999Z</time></trkpt><trkpt lat="44.422706493535316" lon="8.09371635669999"><ele>726.0</ele><time>2026-04-05T14:44:11.999Z</time></trkpt><trkpt lat="44.42283511832369" lon="8.093871204339706"><ele>726.0</ele><time>2026-04-05T14:44:12.999Z</time></trkpt><trkpt lat="44.422971515146585" lon="8.094093763346043"><ele>726.0</ele><time>2026-04-05T14:44:13.999Z</time></trkpt><trkpt lat="44.42311897651343" lon="8.094342812507477"><ele>726.3333333333334</ele><time>2026-04-05T14:44:14.999Z</time></trkpt><trkpt lat="44.42325015719371" lon="8.094534015697336"><ele>726.6666666666667</ele><time>2026-04-05T14:44:15.999Z</time></trkpt><trkpt lat="44.42336032165705" lon="8.09470471831584"><ele>727.0</ele><time>2026-04-05T14:44:16.999Z</time></trkpt><trkpt lat="44.42347507309961" lon="8.09486496688203"><ele>727.3333333333334</ele><time>2026-04-05T14:44:17.999Z</time></trkpt><trkpt lat="44.42361426699491" lon="8.095010266653167"><ele>727.6666666666666</ele><time>2026-04-05T14:44:18.999Z</time></trkpt><trkpt lat="44.423768276940336" lon="8.09513483728676"><ele>728.0</ele><time>2026-04-05T14:44:19.999Z</time></trkpt><trkpt lat="44.423920250907685" lon="8.095249898920907"><ele>728.0</ele><time>2026-04-05T14:44:20.999Z</time></trkpt><trkpt lat="44.42405383076225" lon="8.09535849576752"><ele>728.0</ele><time>2026-04-05T14:44:21.999Z</time></trkpt><trkpt lat="44.42418432796787" lon="8.095462140943543"><ele>728.0</ele><time>2026-04-05T14:44:22.999Z</time></trkpt><trkpt lat="44.424310945332984" lon="8.095560939356611"><ele>728.0</ele><time>2026-04-05T14:44:23.999Z</time></trkpt><trkpt lat="44.42443299989811" lon="8.095641276272815"><ele>728.0</ele><time>2026-04-05T14:44:24.999Z</time></trkpt><trkpt lat="44.424552934654265" lon="8.095700312116374"><ele>728.0</ele><time>2026-04-05T14:44:25.999Z</time></trkpt><trkpt lat="44.424662828183315" lon="8.09574984319967"><ele>728.0</ele><time>2026-04-05T14:44:26.999Z</time></trkpt><trkpt lat="44.42475752295657" lon="8.09579444706976"><ele>728.0</ele><time>2026-04-05T14:44:27.999Z</time></trkpt><trkpt lat="44.42483942032034" lon="8.095836546887664"><ele>728.0</ele><time>2026-04-05T14:44:28.999Z</time></trkpt><trkpt lat="44.42491038403923" lon="8.09587370271871"><ele>728.8333333333333</ele><time>2026-04-05T14:44:29.999Z</time></trkpt><trkpt lat="44.42497139596633" lon="8.095908166101939"><ele>729.6666666666666</ele><time>2026-04-05T14:44:30.999Z</time></trkpt><trkpt lat="44.4250628922779" lon="8.095959014705175"><ele>730.5</ele><time>2026-04-05T14:44:33Z</time></trkpt><trkpt lat="44.42514633571967" lon="8.09600865837758"><ele>731.3333333333334</ele><time>2026-04-05T14:44:48.999Z</time></trkpt><trkpt lat="44.42523782438679" lon="8.096084716072012"><ele>732.1666666666667</ele><time>2026-04-05T14:44:50.999Z</time></trkpt><trkpt lat="44.425292775791135" lon="8.096150472852116"><ele>733.0</ele><time>2026-04-05T14:44:51.999Z</time></trkpt><trkpt lat="44.425360010554" lon="8.096218865643145"><ele>733.0</ele><time>2026-04-05T14:44:52.999Z</time></trkpt><trkpt lat="44.425432932500115" lon="8.096289931474494"><ele>733.0</ele><time>2026-04-05T14:44:53.999Z</time></trkpt><trkpt lat="44.425511997823506" lon="8.096356759346437"><ele>733.0</ele><time>2026-04-05T14:44:54.999Z</time></trkpt><trkpt lat="44.42560542675714" lon="8.096421741657908"><ele>733.0</ele><time>2026-04-05T14:44:55.999Z</time></trkpt><trkpt lat="44.42569524605352" lon="8.096496635878887"><ele>733.0</ele><time>2026-04-05T14:44:56.999Z</time></trkpt><trkpt lat="44.42579946927486" lon="8.096580654288324"><ele>733.25</ele><time>2026-04-05T14:44:57.999Z</time></trkpt><trkpt lat="44.425906823331964" lon="8.096671887526774"><ele>733.5</ele><time>2026-04-05T14:44:58.999Z</time></trkpt><trkpt lat="44.426023785357124" lon="8.096756203956256"><ele>733.75</ele><time>2026-04-05T14:44:59.999Z</time></trkpt><trkpt lat="44.42613781019" lon="8.096863931258376"><ele>734.0</ele><time>2026-04-05T14:45:00.999Z</time></trkpt><trkpt lat="44.42626970050034" lon="8.096946164568976"><ele>733.3333333333333</ele><time>2026-04-05T14:45:01.999Z</time></trkpt><trkpt lat="44.42641648155345" lon="8.09699488383759"><ele>732.6666666666666</ele><time>2026-04-05T14:45:02.999Z</time></trkpt><trkpt lat="44.426565978003225" lon="8.097050138084452"><ele>732.0</ele><time>2026-04-05T14:45:03.999Z</time></trkpt><trkpt lat="44.42672529810761" lon="8.097087297683858"><ele>732.0</ele><time>2026-04-05T14:45:04.999Z</time></trkpt><trkpt lat="44.42688870979186" lon="8.097110733296224"><ele>732.0</ele><time>2026-04-05T14:45:05.999Z</time></trkpt><trkpt lat="44.427052222801905" lon="8.097132863353048"><ele>732.0</ele><time>2026-04-05T14:45:06.999Z</time></trkpt><trkpt lat="44.42721832532615" lon="8.097158666128879"><ele>730.6666666666666</ele><time>2026-04-05T14:45:07.999Z</time></trkpt><trkpt lat="44.42739812065921" lon="8.097187619878595"><ele>729.3333333333333</ele><time>2026-04-05T14:45:08.999Z</time></trkpt><trkpt lat="44.427589419078835" lon="8.097260793155268"><ele>728.0</ele><time>2026-04-05T14:45:09.999Z</time></trkpt><trkpt lat="44.42777554421066" lon="8.097359969893404"><ele>728.0</ele><time>2026-04-05T14:45:10.999Z</time></trkpt><trkpt lat="44.42795239940284" lon="8.097504179668642"><ele>728.0</ele><time>2026-04-05T14:45:11.999Z</time></trkpt><trkpt lat="44.428126046949" lon="8.097701529218014"><ele>728.0</ele><time>2026-04-05T14:45:12.999Z</time></trkpt><trkpt lat="44.42831457303853" lon="8.097917156902144"><ele>728.0</ele><time>2026-04-05T14:45:13.999Z</time></trkpt><trkpt lat="44.42848706386995" lon="8.098130878306874"><ele>728.0</ele><time>2026-04-05T14:45:14.999Z</time></trkpt><trkpt lat="44.42873043729239" lon="8.098414434451561"><ele>727.5</ele><time>2026-04-05T14:45:15.999Z</time></trkpt><trkpt lat="44.4289519390721" lon="8.098610523837682"><ele>727.0</ele><time>2026-04-05T14:45:16.999Z</time></trkpt><trkpt lat="44.429127545674135" lon="8.098739416784106"><ele>727.0</ele><time>2026-04-05T14:45:17.999Z</time></trkpt><trkpt lat="44.4292787695329" lon="8.098833933453868"><ele>727.0</ele><time>2026-04-05T14:45:18.999Z</time></trkpt><trkpt lat="44.42946554891183" lon="8.098870866456227"><ele>727.0</ele><time>2026-04-05T14:45:19.999Z</time></trkpt><trkpt lat="44.42968725480274" lon="8.098829599405521"><ele>727.5</ele><time>2026-04-05T14:45:20.999Z</time></trkpt><trkpt lat="44.42990896395894" lon="8.098727296624967"><ele>728.0</ele><time>2026-04-05T14:45:21.999Z</time></trkpt><trkpt lat="44.43015100459145" lon="8.098731672556381"><ele>728.0</ele><time>2026-04-05T14:45:22.999Z</time></trkpt><trkpt lat="44.43038342916893" lon="8.098775494246281"><ele>728.0</ele><time>2026-04-05T14:45:23.999Z</time></trkpt><trkpt lat="44.43063944728175" lon="8.098841720005115"><ele>726.6666666666666</ele><time>2026-04-05T14:45:24.999Z</time></trkpt><trkpt lat="44.430847997318295" lon="8.098862204617554"><ele>725.3333333333334</ele><time>2026-04-05T14:45:25.999Z</time></trkpt><trkpt lat="44.431006012242676" lon="8.098846208960547"><ele>724.0</ele><time>2026-04-05T14:45:26.999Z</time></trkpt><trkpt lat="44.43120042750011" lon="8.098727952512151"><ele>726.5</ele><time>2026-04-05T14:45:27.999Z</time></trkpt><trkpt lat="44.43142549486288" lon="8.098509924336986"><ele>729.0</ele><time>2026-04-05T14:45:28.999Z</time></trkpt><trkpt lat="44.43164975108272" lon="8.098261495209444"><ele>720.0</ele><time>2026-04-05T14:45:29.999Z</time></trkpt><trkpt lat="44.43188661285107" lon="8.098030522171394"><ele>711.0</ele><time>2026-04-05T14:45:30.999Z</time></trkpt><trkpt lat="44.43210065732654" lon="8.097917530574424"><ele>714.6666666666666</ele><time>2026-04-05T14:45:31.999Z</time></trkpt><trkpt lat="44.432258016186864" lon="8.09780329103261"><ele>718.3333333333333</ele><time>2026-04-05T14:45:32.999Z</time></trkpt><trkpt lat="44.43244323316658" lon="8.097790639971144"><ele>722.0</ele><time>2026-04-05T14:45:33.999Z</time></trkpt><trkpt lat="44.43265294629117" lon="8.097837157134773"><ele>722.0</ele><time>2026-04-05T14:45:34.999Z</time></trkpt><trkpt lat="44.43286038330284" lon="8.097902965842678"><ele>722.0</ele><time>2026-04-05T14:45:35.999Z</time></trkpt><trkpt lat="44.43308420673388" lon="8.097926030372651"><ele>722.0</ele><time>2026-04-05T14:45:36.999Z</time></trkpt><trkpt lat="44.43331421264999" lon="8.097861982804423"><ele>723.0</ele><time>2026-04-05T14:45:37.999Z</time></trkpt><trkpt lat="44.43354118410828" lon="8.09774918799391"><ele>724.0</ele><time>2026-04-05T14:45:38.999Z</time></trkpt><trkpt lat="44.433708380006486" lon="8.097640114406039"><ele>725.0</ele><time>2026-04-05T14:45:39.999Z</time></trkpt><trkpt lat="44.43388348132936" lon="8.097436240748825"><ele>728.0</ele><time>2026-04-05T14:45:40.999Z</time></trkpt><trkpt lat="44.43404886880096" lon="8.097115469653842"><ele>731.0</ele><time>2026-04-05T14:45:41.999Z</time></trkpt><trkpt lat="44.43421003628698" lon="8.096750361155877"><ele>725.5</ele><time>2026-04-05T14:45:42.999Z</time></trkpt><trkpt lat="44.43438887114816" lon="8.096438701652009"><ele>720.0</ele><time>2026-04-05T14:45:43.999Z</time></trkpt><trkpt lat="44.434528946695266" lon="8.096171189158023"><ele>720.0</ele><time>2026-04-05T14:45:44.999Z</time></trkpt><trkpt lat="44.43464885151601" lon="8.095970858042474"><ele>720.0</ele><time>2026-04-05T14:45:45.999Z</time></trkpt><trkpt lat="44.43478178545298" lon="8.09584016292727"><ele>720.0</ele><time>2026-04-05T14:45:46.999Z</time></trkpt><trkpt lat="44.43495616910025" lon="8.095752189802596"><ele>720.0</ele><time>2026-04-05T14:45:47.999Z</time></trkpt><trkpt lat="44.43518750762474" lon="8.095674982212035"><ele>720.0</ele><time>2026-04-05T14:45:48.999Z</time></trkpt><trkpt lat="44.43541959567767" lon="8.095604356194496"><ele>725.3333333333334</ele><time>2026-04-05T14:45:49.999Z</time></trkpt><trkpt lat="44.43560455365477" lon="8.095514470420195"><ele>730.6666666666667</ele><time>2026-04-05T14:45:50.999Z</time></trkpt><trkpt lat="44.43575150880646" lon="8.095249131864845"><ele>736.0</ele><time>2026-04-05T14:45:51.999Z</time></trkpt><trkpt lat="44.43584487018675" lon="8.094961411334966"><ele>732.6666666666667</ele><time>2026-04-05T14:45:52.999Z</time></trkpt><trkpt lat="44.43591554026579" lon="8.094710232181518"><ele>729.3333333333334</ele><time>2026-04-05T14:45:53.999Z</time></trkpt><trkpt lat="44.436025710381905" lon="8.094555217108446"><ele>726.0</ele><time>2026-04-05T14:45:54.999Z</time></trkpt><trkpt lat="44.43615828945919" lon="8.094444024409295"><ele>727.3333333333334</ele><time>2026-04-05T14:45:55.999Z</time></trkpt><trkpt lat="44.43631265181936" lon="8.094398584563848"><ele>728.6666666666667</ele><time>2026-04-05T14:45:56.999Z</time></trkpt><trkpt lat="44.436483394370086" lon="8.09442254968126"><ele>730.0</ele><time>2026-04-05T14:45:57.999Z</time></trkpt><trkpt lat="44.436659979557454" lon="8.094500027869527"><ele>730.0</ele><time>2026-04-05T14:45:58.999Z</time></trkpt><trkpt lat="44.43689311109499" lon="8.094580736344719"><ele>730.0</ele><time>2026-04-05T14:45:59.999Z</time></trkpt><trkpt lat="44.43713640042715" lon="8.094636593346992"><ele>730.5</ele><time>2026-04-05T14:46:00.999Z</time></trkpt><trkpt lat="44.43741686935773" lon="8.094654120769306"><ele>731.0</ele><time>2026-04-05T14:46:01.999Z</time></trkpt><trkpt lat="44.43769419555601" lon="8.094660839556038"><ele>731.0</ele><time>2026-04-05T14:46:02.999Z</time></trkpt><trkpt lat="44.43794869126127" lon="8.094674794916727"><ele>731.0</ele><time>2026-04-05T14:46:03.999Z</time></trkpt><trkpt lat="44.43818119934398" lon="8.094680350057862"><ele>733.3333333333333</ele><time>2026-04-05T14:46:04.999Z</time></trkpt><trkpt lat="44.4383642842513" lon="8.094611912787327"><ele>735.6666666666666</ele><time>2026-04-05T14:46:05.999Z</time></trkpt><trkpt lat="44.4385506033357" lon="8.094427702185346"><ele>738.0</ele><time>2026-04-05T14:46:06.999Z</time></trkpt><trkpt lat="44.43877343855211" lon="8.094166609875098"><ele>737.5</ele><time>2026-04-05T14:46:07.999Z</time></trkpt><trkpt lat="44.438982503650585" lon="8.093913355225189"><ele>737.0</ele><time>2026-04-05T14:46:08.999Z</time></trkpt><trkpt lat="44.43924626600829" lon="8.093640541176947"><ele>737.0</ele><time>2026-04-05T14:46:09.999Z</time></trkpt><trkpt lat="44.43945731387248" lon="8.093404143593053"><ele>737.0</ele><time>2026-04-05T14:46:10.999Z</time></trkpt><trkpt lat="44.43962550264147" lon="8.093155779699316"><ele>741.5</ele><time>2026-04-05T14:46:11.999Z</time></trkpt><trkpt lat="44.43980309913771" lon="8.092814920725885"><ele>746.0</ele><time>2026-04-05T14:46:12.999Z</time></trkpt><trkpt lat="44.439929347218374" lon="8.092504582164347"><ele>747.0</ele><time>2026-04-05T14:46:13.999Z</time></trkpt><trkpt lat="44.43998896944782" lon="8.092226197642267"><ele>748.0</ele><time>2026-04-05T14:46:14.999Z</time></trkpt><trkpt lat="44.4400193161578" lon="8.091886853753282"><ele>750.5</ele><time>2026-04-05T14:46:15.999Z</time></trkpt><trkpt lat="44.44001130553731" lon="8.09148880984997"><ele>753.0</ele><time>2026-04-05T14:46:16.999Z</time></trkpt><trkpt lat="44.440018771126866" lon="8.09115005594096"><ele>753.0</ele><time>2026-04-05T14:46:17.999Z</time></trkpt><trkpt lat="44.440024281815575" lon="8.090912098584152"><ele>753.0</ele><time>2026-04-05T14:46:18.999Z</time></trkpt><trkpt lat="44.4400510949958" lon="8.090714037505427"><ele>753.0</ele><time>2026-04-05T14:46:19.999Z</time></trkpt><trkpt lat="44.440121242115445" lon="8.090545667566953"><ele>754.0</ele><time>2026-04-05T14:46:20.999Z</time></trkpt><trkpt lat="44.440243517222136" lon="8.090351759383072"><ele>755.0</ele><time>2026-04-05T14:46:21.999Z</time></trkpt><trkpt lat="44.440413374061414" lon="8.090115341490922"><ele>756.0</ele><time>2026-04-05T14:46:22.999Z</time></trkpt><trkpt lat="44.440566328985845" lon="8.089819563797375"><ele>756.0</ele><time>2026-04-05T14:46:23.999Z</time></trkpt><trkpt lat="44.440692678548395" lon="8.089465869603071"><ele>756.0</ele><time>2026-04-05T14:46:24.999Z</time></trkpt><trkpt lat="44.44078636101063" lon="8.08906076923323"><ele>754.0</ele><time>2026-04-05T14:46:25.999Z</time></trkpt><trkpt lat="44.44090609532714" lon="8.08866317096088"><ele>752.0</ele><time>2026-04-05T14:46:26.999Z</time></trkpt><trkpt lat="44.441004897617745" lon="8.088328222774933"><ele>749.0</ele><time>2026-04-05T14:46:27.999Z</time></trkpt><trkpt lat="44.44108872612102" lon="8.087976210296674"><ele>746.0</ele><time>2026-04-05T14:46:28.999Z</time></trkpt><trkpt lat="44.44120639356508" lon="8.08764089962132"><ele>756.5</ele><time>2026-04-05T14:46:29.999Z</time></trkpt><trkpt lat="44.4413223704665" lon="8.087304716091348"><ele>767.0</ele><time>2026-04-05T14:46:30.999Z</time></trkpt><trkpt lat="44.44143656928254" lon="8.087003192132013"><ele>767.0</ele><time>2026-04-05T14:46:31.999Z</time></trkpt><trkpt lat="44.44154606592778" lon="8.086688019164438"><ele>767.0</ele><time>2026-04-05T14:46:32.999Z</time></trkpt><trkpt lat="44.44165345696262" lon="8.08641601492983"><ele>763.6666666666666</ele><time>2026-04-05T14:46:33.999Z</time></trkpt><trkpt lat="44.44173473122491" lon="8.086202173075478"><ele>760.3333333333334</ele><time>2026-04-05T14:46:34.999Z</time></trkpt><trkpt lat="44.4418340539015" lon="8.086049003625346"><ele>757.0</ele><time>2026-04-05T14:46:35.999Z</time></trkpt><trkpt lat="44.44196159043228" lon="8.085923428218669"><ele>755.3333333333334</ele><time>2026-04-05T14:46:36.999Z</time></trkpt><trkpt lat="44.442144269673186" lon="8.085857384695307"><ele>753.6666666666666</ele><time>2026-04-05T14:46:37.999Z</time></trkpt><trkpt lat="44.442357560561554" lon="8.085742669826246"><ele>752.0</ele><time>2026-04-05T14:46:38.999Z</time></trkpt><trkpt lat="44.4425775367473" lon="8.085644681170603"><ele>752.0</ele><time>2026-04-05T14:46:39.999Z</time></trkpt><trkpt lat="44.442786247360516" lon="8.085531061296148"><ele>752.0</ele><time>2026-04-05T14:46:40.999Z</time></trkpt><trkpt lat="44.442991494642946" lon="8.085486471957703"><ele>752.0</ele><time>2026-04-05T14:46:41.999Z</time></trkpt><trkpt lat="44.44318363669745" lon="8.085460541778671"><ele>754.6666666666666</ele><time>2026-04-05T14:46:42.999Z</time></trkpt><trkpt lat="44.44338697553893" lon="8.085438919766755"><ele>757.3333333333334</ele><time>2026-04-05T14:46:43.999Z</time></trkpt><trkpt lat="44.44357952418437" lon="8.085404095735907"><ele>760.0</ele><time>2026-04-05T14:46:44.999Z</time></trkpt><trkpt lat="44.443749539564195" lon="8.085385344115739"><ele>765.0</ele><time>2026-04-05T14:46:45.999Z</time></trkpt><trkpt lat="44.443907960465125" lon="8.085328565671375"><ele>770.0</ele><time>2026-04-05T14:46:46.999Z</time></trkpt><trkpt lat="44.44406612067125" lon="8.08518999960846"><ele>775.0</ele><time>2026-04-05T14:46:47.999Z</time></trkpt><trkpt lat="44.44421841178707" lon="8.084954086747898"><ele>768.0</ele><time>2026-04-05T14:46:48.999Z</time></trkpt><trkpt lat="44.44437999819493" lon="8.08469138299132"><ele>761.0</ele><time>2026-04-05T14:46:49.999Z</time></trkpt><trkpt lat="44.444571078765655" lon="8.084486337733564"><ele>766.3333333333333</ele><time>2026-04-05T14:46:50.999Z</time></trkpt><trkpt lat="44.44474250359112" lon="8.084322817185896"><ele>771.6666666666666</ele><time>2026-04-05T14:46:51.999Z</time></trkpt><trkpt lat="44.4448704526806" lon="8.084160409935096"><ele>777.0</ele><time>2026-04-05T14:46:52.999Z</time></trkpt><trkpt lat="44.44497404782629" lon="8.083978054945389"><ele>777.0</ele><time>2026-04-05T14:46:53.999Z</time></trkpt><trkpt lat="44.44503322228381" lon="8.083697934215447"><ele>777.0</ele><time>2026-04-05T14:46:54.999Z</time></trkpt><trkpt lat="44.44504412272045" lon="8.083320852449281"><ele>775.5</ele><time>2026-04-05T14:46:55.999Z</time></trkpt><trkpt lat="44.44505585493614" lon="8.082898611131624"><ele>774.0</ele><time>2026-04-05T14:46:56.999Z</time></trkpt><trkpt lat="44.44510155498771" lon="8.082479227827852"><ele>771.5</ele><time>2026-04-05T14:46:57.999Z</time></trkpt><trkpt lat="44.44514584351879" lon="8.082086885974862"><ele>769.0</ele><time>2026-04-05T14:46:58.999Z</time></trkpt><trkpt lat="44.44517828555952" lon="8.08179970363843"><ele>766.3333333333333</ele><time>2026-04-05T14:46:59.999Z</time></trkpt><trkpt lat="44.44524274021277" lon="8.081575971032876"><ele>763.6666666666666</ele><time>2026-04-05T14:47:00.999Z</time></trkpt><trkpt lat="44.44534194491567" lon="8.081316101277293"><ele>761.0</ele><time>2026-04-05T14:47:01.999Z</time></trkpt><trkpt lat="44.445461372391385" lon="8.080992697669371"><ele>769.5</ele><time>2026-04-05T14:47:02.999Z</time></trkpt><trkpt lat="44.44561228368845" lon="8.080669265486403"><ele>778.0</ele><time>2026-04-05T14:47:03.999Z</time></trkpt><trkpt lat="44.44575449788928" lon="8.08032629922837"><ele>778.0</ele><time>2026-04-05T14:47:04.999Z</time></trkpt><trkpt lat="44.445901059019334" lon="8.079974996742951"><ele>778.0</ele><time>2026-04-05T14:47:05.999Z</time></trkpt><trkpt lat="44.44605765401227" lon="8.079610956259714"><ele>773.0</ele><time>2026-04-05T14:47:06.999Z</time></trkpt><trkpt lat="44.44619367350247" lon="8.079271158669373"><ele>768.0</ele><time>2026-04-05T14:47:07.999Z</time></trkpt><trkpt lat="44.446293056142814" lon="8.07900535375209"><ele>776.0</ele><time>2026-04-05T14:47:08.999Z</time></trkpt><trkpt lat="44.44637253154947" lon="8.078744997371423"><ele>784.0</ele><time>2026-04-05T14:47:09.999Z</time></trkpt><trkpt lat="44.446409988435114" lon="8.078414003858853"><ele>792.0</ele><time>2026-04-05T14:47:10.999Z</time></trkpt><trkpt lat="44.44642064013259" lon="8.078028550581642"><ele>792.0</ele><time>2026-04-05T14:47:11.999Z</time></trkpt><trkpt lat="44.44643269654005" lon="8.077618124642333"><ele>792.0</ele><time>2026-04-05T14:47:12.999Z</time></trkpt><trkpt lat="44.44646980939643" lon="8.077229150499448"><ele>787.5</ele><time>2026-04-05T14:47:13.999Z</time></trkpt><trkpt lat="44.446543377877866" lon="8.07689940540619"><ele>783.0</ele><time>2026-04-05T14:47:14.999Z</time></trkpt><trkpt lat="44.446582321911706" lon="8.076588560920106"><ele>780.3333333333333</ele><time>2026-04-05T14:47:15.999Z</time></trkpt><trkpt lat="44.44660837660709" lon="8.076314420489046"><ele>777.6666666666666</ele><time>2026-04-05T14:47:16.999Z</time></trkpt><trkpt lat="44.44664307600228" lon="8.076065978264927"><ele>775.0</ele><time>2026-04-05T14:47:17.999Z</time></trkpt><trkpt lat="44.44675801279858" lon="8.075824334568852"><ele>770.5</ele><time>2026-04-05T14:47:18.999Z</time></trkpt><trkpt lat="44.446890568178766" lon="8.075550606615366"><ele>766.0</ele><time>2026-04-05T14:47:19.999Z</time></trkpt><trkpt lat="44.44700182978071" lon="8.075288281404282"><ele>766.0</ele><time>2026-04-05T14:47:20.999Z</time></trkpt><trkpt lat="44.44709299884171" lon="8.075049291711492"><ele>766.0</ele><time>2026-04-05T14:47:21.999Z</time></trkpt><trkpt lat="44.44713431824834" lon="8.074785414671942"><ele>766.0</ele><time>2026-04-05T14:47:22.999Z</time></trkpt><trkpt lat="44.44717591899248" lon="8.074479878942535"><ele>767.0</ele><time>2026-04-05T14:47:23.999Z</time></trkpt><trkpt lat="44.44721912129915" lon="8.074142650439539"><ele>768.0</ele><time>2026-04-05T14:47:24.999Z</time></trkpt><trkpt lat="44.44699732042161" lon="8.07369672575676"><ele>768.0</ele><time>2026-04-05T14:47:25.999Z</time></trkpt><trkpt lat="44.44695013477064" lon="8.073305253869295"><ele>768.0</ele><time>2026-04-05T14:47:26.999Z</time></trkpt><trkpt lat="44.44690382843895" lon="8.072946090761999"><ele>771.5</ele><time>2026-04-05T14:47:27.999Z</time></trkpt><trkpt lat="44.4468540850672" lon="8.072616321915513"><ele>775.0</ele><time>2026-04-05T14:47:28.999Z</time></trkpt><trkpt lat="44.44678036636043" lon="8.072296752048874"><ele>776.5</ele><time>2026-04-05T14:47:29.999Z</time></trkpt><trkpt lat="44.44669310229733" lon="8.07196678957144"><ele>778.0</ele><time>2026-04-05T14:47:30.999Z</time></trkpt><trkpt lat="44.44661377628821" lon="8.07163534432226"><ele>780.0</ele><time>2026-04-05T14:47:31.999Z</time></trkpt><trkpt lat="44.44654789497793" lon="8.071300588966093"><ele>782.0</ele><time>2026-04-05T14:47:32.999Z</time></trkpt><trkpt lat="44.44650166844464" lon="8.070971900868"><ele>782.0</ele><time>2026-04-05T14:47:33.999Z</time></trkpt><trkpt lat="44.44646387432755" lon="8.070636655985602"><ele>782.0</ele><time>2026-04-05T14:47:34.999Z</time></trkpt><trkpt lat="44.44642410207833" lon="8.070300510642086"><ele>782.0</ele><time>2026-04-05T14:47:35.999Z</time></trkpt><trkpt lat="44.44637855649229" lon="8.069982672170855"><ele>782.0</ele><time>2026-04-05T14:47:36.999Z</time></trkpt><trkpt lat="44.446336078758605" lon="8.069693857191417"><ele>782.0</ele><time>2026-04-05T14:47:37.999Z</time></trkpt><trkpt lat="44.44629906962692" lon="8.069405881689248"><ele>776.6666666666667</ele><time>2026-04-05T14:47:38.999Z</time></trkpt><trkpt lat="44.44626327014534" lon="8.069108995654078"><ele>771.3333333333334</ele><time>2026-04-05T14:47:39.999Z</time></trkpt><trkpt lat="44.44624094941807" lon="8.068823870381824"><ele>766.0</ele><time>2026-04-05T14:47:40.999Z</time></trkpt><trkpt lat="44.44623772259099" lon="8.06855984521518"><ele>766.0</ele><time>2026-04-05T14:47:41.999Z</time></trkpt><trkpt lat="44.446264987230656" lon="8.068313954941173"><ele>766.0</ele><time>2026-04-05T14:47:42.999Z</time></trkpt><trkpt lat="44.446338687976656" lon="8.068064417311867"><ele>766.0</ele><time>2026-04-05T14:47:43.999Z</time></trkpt><trkpt lat="44.44646879333473" lon="8.067830464642984"><ele>769.6666666666667</ele><time>2026-04-05T14:47:44.999Z</time></trkpt><trkpt lat="44.446592540904234" lon="8.067591681475655"><ele>773.3333333333334</ele><time>2026-04-05T14:47:45.999Z</time></trkpt><trkpt lat="44.44666644883272" lon="8.067295967341776"><ele>777.0</ele><time>2026-04-05T14:47:46.999Z</time></trkpt><trkpt lat="44.44668908689998" lon="8.066941307949227"><ele>779.5</ele><time>2026-04-05T14:47:47.999Z</time></trkpt><trkpt lat="44.44667187187901" lon="8.066544955070798"><ele>782.0</ele><time>2026-04-05T14:47:48.999Z</time></trkpt><trkpt lat="44.446645942791676" lon="8.066145732790284"><ele>782.0</ele><time>2026-04-05T14:47:49.999Z</time></trkpt><trkpt lat="44.44663999600231" lon="8.06583339194951"><ele>782.0</ele><time>2026-04-05T14:47:50.999Z</time></trkpt><trkpt lat="44.44665159250033" lon="8.065567417783354"><ele>782.0</ele><time>2026-04-05T14:47:51.999Z</time></trkpt><trkpt lat="44.446699951505934" lon="8.065271293031627"><ele>780.5</ele><time>2026-04-05T14:47:52.999Z</time></trkpt><trkpt lat="44.446800469392606" lon="8.064946659579574"><ele>779.0</ele><time>2026-04-05T14:47:53.999Z</time></trkpt><trkpt lat="44.44693612318586" lon="8.064658370143976"><ele>776.6666666666667</ele><time>2026-04-05T14:47:54.999Z</time></trkpt><trkpt lat="44.44705515751616" lon="8.064414078606347"><ele>774.3333333333333</ele><time>2026-04-05T14:47:55.999Z</time></trkpt><trkpt lat="44.44710428411899" lon="8.064129916087632"><ele>772.0</ele><time>2026-04-05T14:47:56.999Z</time></trkpt><trkpt lat="44.44711763856318" lon="8.063750540997628"><ele>775.0</ele><time>2026-04-05T14:47:57.999Z</time></trkpt><trkpt lat="44.447127885525475" lon="8.063322951385908"><ele>778.0</ele><time>2026-04-05T14:47:58.999Z</time></trkpt><trkpt lat="44.447155188047205" lon="8.062885728154097"><ele>780.5</ele><time>2026-04-05T14:47:59.999Z</time></trkpt><trkpt lat="44.447182195339536" lon="8.062491425904186"><ele>783.0</ele><time>2026-04-05T14:48:00.999Z</time></trkpt><trkpt lat="44.44720630519052" lon="8.062137517336199"><ele>783.6666666666667</ele><time>2026-04-05T14:48:01.999Z</time></trkpt><trkpt lat="44.44723051757673" lon="8.06181643054133"><ele>784.3333333333334</ele><time>2026-04-05T14:48:02.999Z</time></trkpt><trkpt lat="44.44725140114375" lon="8.061545245251258"><ele>785.0</ele><time>2026-04-05T14:48:03.999Z</time></trkpt><trkpt lat="44.44725573880894" lon="8.061312610065997"><ele>785.6666666666667</ele><time>2026-04-05T14:48:04.999Z</time></trkpt><trkpt lat="44.44720802762312" lon="8.061085753532105"><ele>786.3333333333333</ele><time>2026-04-05T14:48:05.999Z</time></trkpt><trkpt lat="44.44709639159164" lon="8.060866171285229"><ele>787.0</ele><time>2026-04-05T14:48:06.999Z</time></trkpt><trkpt lat="44.44695240865032" lon="8.060683501022678"><ele>787.0</ele><time>2026-04-05T14:48:07.999Z</time></trkpt><trkpt lat="44.4468897819219" lon="8.060483686148991"><ele>787.0</ele><time>2026-04-05T14:48:08.999Z</time></trkpt><trkpt lat="44.44685595446489" lon="8.060301955108304"><ele>787.0</ele><time>2026-04-05T14:48:09.999Z</time></trkpt><trkpt lat="44.44681617894455" lon="8.060107581243525"><ele>787.0</ele><time>2026-04-05T14:48:10.999Z</time></trkpt><trkpt lat="44.44680056503772" lon="8.059898120317868"><ele>788.6666666666666</ele><time>2026-04-05T14:48:11.999Z</time></trkpt><trkpt lat="44.446784766815206" lon="8.0596834214363"><ele>790.3333333333333</ele><time>2026-04-05T14:48:12.999Z</time></trkpt><trkpt lat="44.446765736434216" lon="8.059465177097843"><ele>792.0</ele><time>2026-04-05T14:48:13.999Z</time></trkpt><trkpt lat="44.44674781014745" lon="8.059249278844394"><ele>791.5</ele><time>2026-04-05T14:48:14.999Z</time></trkpt><trkpt lat="44.44674753339131" lon="8.059048988806996"><ele>791.0</ele><time>2026-04-05T14:48:15.999Z</time></trkpt><trkpt lat="44.44677023443843" lon="8.058865569733449"><ele>790.5</ele><time>2026-04-05T14:48:16.999Z</time></trkpt><trkpt lat="44.44682618317924" lon="8.05870607734589"><ele>790.0</ele><time>2026-04-05T14:48:17.999Z</time></trkpt><trkpt lat="44.44689440248517" lon="8.058549575096384"><ele>790.0</ele><time>2026-04-05T14:48:18.999Z</time></trkpt><trkpt lat="44.446997267396334" lon="8.058409857696313"><ele>790.0</ele><time>2026-04-05T14:48:19.999Z</time></trkpt><trkpt lat="44.447120534929105" lon="8.058285740241736"><ele>790.0</ele><time>2026-04-05T14:48:20.999Z</time></trkpt><trkpt lat="44.44725697065336" lon="8.058150860858245"><ele>784.0</ele><time>2026-04-05T14:48:21.999Z</time></trkpt><trkpt lat="44.44754164514999" lon="8.057841677053354"><ele>778.0</ele><time>2026-04-05T14:48:23.999Z</time></trkpt><trkpt lat="44.44769405092284" lon="8.057678771887149"><ele>778.0</ele><time>2026-04-05T14:48:24.999Z</time></trkpt><trkpt lat="44.447849073127344" lon="8.057512934425013"><ele>778.0</ele><time>2026-04-05T14:48:25.999Z</time></trkpt><trkpt lat="44.447998255143325" lon="8.05733744457989"><ele>778.0</ele><time>2026-04-05T14:48:26.999Z</time></trkpt><trkpt lat="44.448149505777884" lon="8.057127220289523"><ele>773.0</ele><time>2026-04-05T14:48:27.999Z</time></trkpt><trkpt lat="44.44831697022762" lon="8.05690621081665"><ele>768.0</ele><time>2026-04-05T14:48:28.999Z</time></trkpt><trkpt lat="44.44851056134201" lon="8.056746257819526"><ele>764.3333333333334</ele><time>2026-04-05T14:48:29.999Z</time></trkpt><trkpt lat="44.448699005918314" lon="8.056604426136722"><ele>760.6666666666667</ele><time>2026-04-05T14:48:30.999Z</time></trkpt><trkpt lat="44.448885000132755" lon="8.056497911471704"><ele>757.0</ele><time>2026-04-05T14:48:31.999Z</time></trkpt><trkpt lat="44.449083801377306" lon="8.056428557912119"><ele>757.0</ele><time>2026-04-05T14:48:32.999Z</time></trkpt><trkpt lat="44.44932303784516" lon="8.056353938269048"><ele>757.0</ele><time>2026-04-05T14:48:33.999Z</time></trkpt><trkpt lat="44.44958011135552" lon="8.056203335144803"><ele>758.5</ele><time>2026-04-05T14:48:34.999Z</time></trkpt><trkpt lat="44.449854507672164" lon="8.056060287279625"><ele>760.0</ele><time>2026-04-05T14:48:35.999Z</time></trkpt><trkpt lat="44.45009656208428" lon="8.055904553260058"><ele>759.0</ele><time>2026-04-05T14:48:36.999Z</time></trkpt><trkpt lat="44.45031024622534" lon="8.05578312889369"><ele>758.0</ele><time>2026-04-05T14:48:37.999Z</time></trkpt><trkpt lat="44.45051541734055" lon="8.05562484642509"><ele>758.0</ele><time>2026-04-05T14:48:38.999Z</time></trkpt><trkpt lat="44.45072203236127" lon="8.055354223139046"><ele>758.0</ele><time>2026-04-05T14:48:39.999Z</time></trkpt><trkpt lat="44.4508899827182" lon="8.055054000582572"><ele>756.0</ele><time>2026-04-05T14:48:40.999Z</time></trkpt><trkpt lat="44.451029784532295" lon="8.054685967766861"><ele>754.0</ele><time>2026-04-05T14:48:41.999Z</time></trkpt><trkpt lat="44.45113350169836" lon="8.054272985685769"><ele>752.5</ele><time>2026-04-05T14:48:42.999Z</time></trkpt><trkpt lat="44.45119647360168" lon="8.053885373548251"><ele>751.0</ele><time>2026-04-05T14:48:43.999Z</time></trkpt><trkpt lat="44.45122224171131" lon="8.053560290985706"><ele>751.0</ele><time>2026-04-05T14:48:45Z</time></trkpt><trkpt lat="44.451260355662875" lon="8.053330384376407"><ele>751.0</ele><time>2026-04-05T14:48:46Z</time></trkpt><trkpt lat="44.451378654667856" lon="8.053110351377779"><ele>751.0</ele><time>2026-04-05T14:48:47Z</time></trkpt><trkpt lat="44.45152752945792" lon="8.052842551781819"><ele>754.5</ele><time>2026-04-05T14:48:48Z</time></trkpt><trkpt lat="44.45168123276731" lon="8.052553099549392"><ele>758.0</ele><time>2026-04-05T14:48:49Z</time></trkpt><trkpt lat="44.45182565508758" lon="8.052236576627022"><ele>758.0</ele><time>2026-04-05T14:48:50Z</time></trkpt><trkpt lat="44.45190597867503" lon="8.051935100116099"><ele>758.0</ele><time>2026-04-05T14:48:51Z</time></trkpt><trkpt lat="44.45194404884567" lon="8.051667246579287"><ele>758.0</ele><time>2026-04-05T14:48:52Z</time></trkpt><trkpt lat="44.45200131150953" lon="8.05144791288802"><ele>760.6666666666666</ele><time>2026-04-05T14:48:53Z</time></trkpt><trkpt lat="44.452112074867806" lon="8.051272620989263"><ele>763.3333333333334</ele><time>2026-04-05T14:48:54Z</time></trkpt><trkpt lat="44.45224007357181" lon="8.051144593570678"><ele>766.0</ele><time>2026-04-05T14:48:55Z</time></trkpt><trkpt lat="44.452389834210315" lon="8.051053440454806"><ele>766.0</ele><time>2026-04-05T14:48:56Z</time></trkpt><trkpt lat="44.45253479314692" lon="8.051002636850166"><ele>766.0</ele><time>2026-04-05T14:48:57Z</time></trkpt><trkpt lat="44.45266960231566" lon="8.050983375975187"><ele>766.0</ele><time>2026-04-05T14:48:58Z</time></trkpt><trkpt lat="44.45281726917393" lon="8.050973632793845"><ele>766.0</ele><time>2026-04-05T14:48:59Z</time></trkpt><trkpt lat="44.45297385001554" lon="8.050950172610046"><ele>764.25</ele><time>2026-04-05T14:49:00Z</time></trkpt><trkpt lat="44.453123305700814" lon="8.050932248612357"><ele>762.5</ele><time>2026-04-05T14:49:01Z</time></trkpt><trkpt lat="44.453262990165896" lon="8.050877230308085"><ele>760.75</ele><time>2026-04-05T14:49:02Z</time></trkpt><trkpt lat="44.45338892311723" lon="8.050793323925268"><ele>759.0</ele><time>2026-04-05T14:49:03Z</time></trkpt><trkpt lat="44.45351453228913" lon="8.05070124191862"><ele>759.0</ele><time>2026-04-05T14:49:04Z</time></trkpt><trkpt lat="44.453640834949944" lon="8.050604337140095"><ele>759.0</ele><time>2026-04-05T14:49:05Z</time></trkpt><trkpt lat="44.45376931809481" lon="8.050501652077573"><ele>759.0</ele><time>2026-04-05T14:49:06Z</time></trkpt><trkpt lat="44.45388134837968" lon="8.050370851363173"><ele>759.0</ele><time>2026-04-05T14:49:07Z</time></trkpt><trkpt lat="44.45396822821448" lon="8.05023439972189"><ele>760.25</ele><time>2026-04-05T14:49:08Z</time></trkpt><trkpt lat="44.45403996784473" lon="8.050104813250936"><ele>761.5</ele><time>2026-04-05T14:49:09Z</time></trkpt><trkpt lat="44.45410166251386" lon="8.049974813360759"><ele>762.75</ele><time>2026-04-05T14:49:10Z</time></trkpt><trkpt lat="44.4541554524653" lon="8.049833393996092"><ele>764.0</ele><time>2026-04-05T14:49:11Z</time></trkpt><trkpt lat="44.45421421199032" lon="8.049640203832247"><ele>764.0</ele><time>2026-04-05T14:49:12Z</time></trkpt><trkpt lat="44.45428701613532" lon="8.049413454415236"><ele>764.0</ele><time>2026-04-05T14:49:12.999Z</time></trkpt><trkpt lat="44.45437442113526" lon="8.049170567182076"><ele>764.0</ele><time>2026-04-05T14:49:13.999Z</time></trkpt><trkpt lat="44.45447215081111" lon="8.048916279157782"><ele>766.0</ele><time>2026-04-05T14:49:14.999Z</time></trkpt><trkpt lat="44.454586613587836" lon="8.048654087052956"><ele>768.0</ele><time>2026-04-05T14:49:15.999Z</time></trkpt><trkpt lat="44.45472397799772" lon="8.048392143526511"><ele>766.5</ele><time>2026-04-05T14:49:16.999Z</time></trkpt><trkpt lat="44.454854915716645" lon="8.048112794889835"><ele>765.0</ele><time>2026-04-05T14:49:17.999Z</time></trkpt><trkpt lat="44.454946003279325" lon="8.047781494704832"><ele>762.0</ele><time>2026-04-05T14:49:18.999Z</time></trkpt><trkpt lat="44.45500477975185" lon="8.047442539047553"><ele>759.0</ele><time>2026-04-05T14:49:19.999Z</time></trkpt><trkpt lat="44.45504637177403" lon="8.047140350539777"><ele>759.0</ele><time>2026-04-05T14:49:20.999Z</time></trkpt><trkpt lat="44.45508504387901" lon="8.046885452881575"><ele>759.0</ele><time>2026-04-05T14:49:21.999Z</time></trkpt><trkpt lat="44.45518889393637" lon="8.046699868986119"><ele>759.0</ele><time>2026-04-05T14:49:22.999Z</time></trkpt><trkpt lat="44.455338573535585" lon="8.04653975577526"><ele>759.0</ele><time>2026-04-05T14:49:23.999Z</time></trkpt><trkpt lat="44.45554605669248" lon="8.046384105541321"><ele>759.0</ele><time>2026-04-05T14:49:24.999Z</time></trkpt><trkpt lat="44.45574925457726" lon="8.04619321248837"><ele>759.0</ele><time>2026-04-05T14:49:25.999Z</time></trkpt><trkpt lat="44.45592698259985" lon="8.045920896090138"><ele>759.0</ele><time>2026-04-05T14:49:26.999Z</time></trkpt><trkpt lat="44.456068377352246" lon="8.045573130269545"><ele>760.5</ele><time>2026-04-05T14:49:27.999Z</time></trkpt><trkpt lat="44.456207095868024" lon="8.045204278427066"><ele>762.0</ele><time>2026-04-05T14:49:28.999Z</time></trkpt><trkpt lat="44.4563884671273" lon="8.044892531979539"><ele>762.0</ele><time>2026-04-05T14:49:29.999Z</time></trkpt><trkpt lat="44.45654627032415" lon="8.044607300648648"><ele>762.0</ele><time>2026-04-05T14:49:30.999Z</time></trkpt><trkpt lat="44.45669837756988" lon="8.044294331848587"><ele>758.5</ele><time>2026-04-05T14:49:31.999Z</time></trkpt><trkpt lat="44.45684879001228" lon="8.04403834661654"><ele>755.0</ele><time>2026-04-05T14:49:32.999Z</time></trkpt><trkpt lat="44.45693782385417" lon="8.043733421206722"><ele>755.0</ele><time>2026-04-05T14:49:33.999Z</time></trkpt><trkpt lat="44.45699894934993" lon="8.043427572605573"><ele>755.0</ele><time>2026-04-05T14:49:34.999Z</time></trkpt><trkpt lat="44.45707396232596" lon="8.043171024553793"><ele>755.0</ele><time>2026-04-05T14:49:35.999Z</time></trkpt><trkpt lat="44.45720655620756" lon="8.042929318972925"><ele>761.0</ele><time>2026-04-05T14:49:36.999Z</time></trkpt><trkpt lat="44.457378648426314" lon="8.042683476670083"><ele>767.0</ele><time>2026-04-05T14:49:37.999Z</time></trkpt><trkpt lat="44.45755134830664" lon="8.04247717440397"><ele>764.3333333333333</ele><time>2026-04-05T14:49:38.999Z</time></trkpt><trkpt lat="44.457692145668965" lon="8.042328608946647"><ele>761.6666666666666</ele><time>2026-04-05T14:49:39.999Z</time></trkpt><trkpt lat="44.45780610217912" lon="8.04219706667032"><ele>759.0</ele><time>2026-04-05T14:49:40.999Z</time></trkpt><trkpt lat="44.45791351442136" lon="8.042066463876413"><ele>764.0</ele><time>2026-04-05T14:49:41.999Z</time></trkpt><trkpt lat="44.45801451670901" lon="8.041913159758682"><ele>769.0</ele><time>2026-04-05T14:49:42.999Z</time></trkpt><trkpt lat="44.45810661116198" lon="8.041742058234378"><ele>774.0</ele><time>2026-04-05T14:49:43.999Z</time></trkpt><trkpt lat="44.4581889958088" lon="8.041550144239638"><ele>775.0</ele><time>2026-04-05T14:49:44.999Z</time></trkpt><trkpt lat="44.45826472994106" lon="8.04135239757424"><ele>776.0</ele><time>2026-04-05T14:49:45.999Z</time></trkpt><trkpt lat="44.45833075585156" lon="8.041151020386438"><ele>777.0</ele><time>2026-04-05T14:49:46.999Z</time></trkpt><trkpt lat="44.45837554023312" lon="8.04093509025199"><ele>778.0</ele><time>2026-04-05T14:49:47.999Z</time></trkpt><trkpt lat="44.45839995906897" lon="8.04071555540874"><ele>779.0</ele><time>2026-04-05T14:49:48.999Z</time></trkpt><trkpt lat="44.45841673287006" lon="8.040489957964382"><ele>780.0</ele><time>2026-04-05T14:49:49.999Z</time></trkpt><trkpt lat="44.458436386819685" lon="8.040265445503344"><ele>780.0</ele><time>2026-04-05T14:49:50.999Z</time></trkpt><trkpt lat="44.458445896106035" lon="8.040024520426416"><ele>780.0</ele><time>2026-04-05T14:49:51.999Z</time></trkpt><trkpt lat="44.45841310569838" lon="8.03974065838578"><ele>780.0</ele><time>2026-04-05T14:49:52.999Z</time></trkpt><trkpt lat="44.458329154955216" lon="8.03943776519512"><ele>784.5</ele><time>2026-04-05T14:49:53.999Z</time></trkpt><trkpt lat="44.458217815936756" lon="8.039138048582616"><ele>789.0</ele><time>2026-04-05T14:49:54.999Z</time></trkpt><trkpt lat="44.45811744608791" lon="8.038867515505665"><ele>789.5</ele><time>2026-04-05T14:49:55.999Z</time></trkpt><trkpt lat="44.458085441766876" lon="8.038662246272255"><ele>790.0</ele><time>2026-04-05T14:49:56.999Z</time></trkpt><trkpt lat="44.45809808023652" lon="8.038478918864595"><ele>790.5</ele><time>2026-04-05T14:49:57.999Z</time></trkpt><trkpt lat="44.458156641009296" lon="8.038293231886243"><ele>791.0</ele><time>2026-04-05T14:49:58.999Z</time></trkpt><trkpt lat="44.458284771959406" lon="8.038159250572914"><ele>787.3333333333334</ele><time>2026-04-05T14:49:59.999Z</time></trkpt><trkpt lat="44.45842656228829" lon="8.038056595063829"><ele>783.6666666666667</ele><time>2026-04-05T14:50:00.999Z</time></trkpt><trkpt lat="44.458613774314394" lon="8.038081441528428"><ele>780.0</ele><time>2026-04-05T14:50:01.999Z</time></trkpt><trkpt lat="44.45881526787822" lon="8.03813188176102"><ele>780.0</ele><time>2026-04-05T14:50:02.999Z</time></trkpt><trkpt lat="44.45903152749836" lon="8.038184717785006"><ele>780.0</ele><time>2026-04-05T14:50:03.999Z</time></trkpt><trkpt lat="44.45925900846924" lon="8.038200567186564"><ele>780.0</ele><time>2026-04-05T14:50:04.999Z</time></trkpt><trkpt lat="44.45948211605071" lon="8.038185776953831"><ele>783.0</ele><time>2026-04-05T14:50:05.999Z</time></trkpt><trkpt lat="44.45969962615699" lon="8.038113941099725"><ele>786.0</ele><time>2026-04-05T14:50:06.999Z</time></trkpt><trkpt lat="44.45990455817404" lon="8.038032384885302"><ele>789.0</ele><time>2026-04-05T14:50:07.999Z</time></trkpt><trkpt lat="44.460098923605656" lon="8.037918055146271"><ele>789.0</ele><time>2026-04-05T14:50:08.999Z</time></trkpt><trkpt lat="44.4602823169583" lon="8.03774864566216"><ele>789.0</ele><time>2026-04-05T14:50:09.999Z</time></trkpt><trkpt lat="44.46043837746813" lon="8.03756257687978"><ele>789.0</ele><time>2026-04-05T14:50:10.999Z</time></trkpt><trkpt lat="44.46056886284111" lon="8.037385333478696"><ele>790.5</ele><time>2026-04-05T14:50:11.999Z</time></trkpt><trkpt lat="44.460668967471" lon="8.037218203160164"><ele>792.0</ele><time>2026-04-05T14:50:12.999Z</time></trkpt><trkpt lat="44.46073863006654" lon="8.037059141649076"><ele>793.5</ele><time>2026-04-05T14:50:13.999Z</time></trkpt><trkpt lat="44.460787965466395" lon="8.036926264747075"><ele>795.0</ele><time>2026-04-05T14:50:14.999Z</time></trkpt><trkpt lat="44.46082640148565" lon="8.03681268119313"><ele>795.0</ele><time>2026-04-05T14:50:15.999Z</time></trkpt><trkpt lat="44.4608750167532" lon="8.036716212633788"><ele>795.0</ele><time>2026-04-05T14:50:16.999Z</time></trkpt><trkpt lat="44.46094169225442" lon="8.036641392009674"><ele>795.0</ele><time>2026-04-05T14:50:17.999Z</time></trkpt><trkpt lat="44.461021337044826" lon="8.036591398394124"><ele>795.0</ele><time>2026-04-05T14:50:18.999Z</time></trkpt><trkpt lat="44.46111469771474" lon="8.036549845388727"><ele>795.0</ele><time>2026-04-05T14:50:19.999Z</time></trkpt><trkpt lat="44.46120830638824" lon="8.036516302568915"><ele>791.75</ele><time>2026-04-05T14:50:20.999Z</time></trkpt><trkpt lat="44.461304575285865" lon="8.036488158853972"><ele>788.5</ele><time>2026-04-05T14:50:21.999Z</time></trkpt><trkpt lat="44.461414667311345" lon="8.036448022324878"><ele>785.25</ele><time>2026-04-05T14:50:22.999Z</time></trkpt><trkpt lat="44.46153232559316" lon="8.036402052447654"><ele>782.0</ele><time>2026-04-05T14:50:23.999Z</time></trkpt><trkpt lat="44.46165274610794" lon="8.036353561095568"><ele>782.0</ele><time>2026-04-05T14:50:24.999Z</time></trkpt><trkpt lat="44.46178046331152" lon="8.036300364033782"><ele>782.0</ele><time>2026-04-05T14:50:25.999Z</time></trkpt><trkpt lat="44.46192251239809" lon="8.036236316963107"><ele>782.0</ele><time>2026-04-05T14:50:26.999Z</time></trkpt><trkpt lat="44.462059671761" lon="8.036168493984565"><ele>782.0</ele><time>2026-04-05T14:50:27.999Z</time></trkpt><trkpt lat="44.46218248907688" lon="8.036102775251125"><ele>782.5</ele><time>2026-04-05T14:50:28.999Z</time></trkpt><trkpt lat="44.46229969817209" lon="8.03603852835751"><ele>783.0</ele><time>2026-04-05T14:50:29.999Z</time></trkpt><trkpt lat="44.462413664730526" lon="8.035978664983736"><ele>783.5</ele><time>2026-04-05T14:50:30.999Z</time></trkpt><trkpt lat="44.462527670051415" lon="8.035928199533165"><ele>784.0</ele><time>2026-04-05T14:50:31.999Z</time></trkpt><trkpt lat="44.462662602331925" lon="8.035876703559978"><ele>784.0</ele><time>2026-04-05T14:50:32.999Z</time></trkpt><trkpt lat="44.462813705591" lon="8.035824069148724"><ele>784.0</ele><time>2026-04-05T14:50:33.999Z</time></trkpt><trkpt lat="44.462982981578264" lon="8.035791022717166"><ele>784.0</ele><time>2026-04-05T14:50:34.999Z</time></trkpt><trkpt lat="44.46315054911284" lon="8.035780115476793"><ele>778.5</ele><time>2026-04-05T14:50:35.999Z</time></trkpt><trkpt lat="44.4633021721727" lon="8.0357714210087"><ele>773.0</ele><time>2026-04-05T14:50:36.999Z</time></trkpt><trkpt lat="44.46344258031231" lon="8.035744053771472"><ele>767.5</ele><time>2026-04-05T14:50:37.999Z</time></trkpt><trkpt lat="44.463564212810375" lon="8.035686651905602"><ele>762.0</ele><time>2026-04-05T14:50:38.999Z</time></trkpt><trkpt lat="44.46367400657561" lon="8.035607995404167"><ele>763.4000000000001</ele><time>2026-04-05T14:50:39.999Z</time></trkpt><trkpt lat="44.46378418012471" lon="8.035521805567168"><ele>764.8000000000001</ele><time>2026-04-05T14:50:40.999Z</time></trkpt><trkpt lat="44.46389878062821" lon="8.035446061207644"><ele>766.2</ele><time>2026-04-05T14:50:41.999Z</time></trkpt><trkpt lat="44.463987437268614" lon="8.035399770656078"><ele>767.6</ele><time>2026-04-05T14:50:42.999Z</time></trkpt><trkpt lat="44.464053675215176" lon="8.035364528631147"><ele>769.0</ele><time>2026-04-05T14:50:43.999Z</time></trkpt><trkpt lat="44.464156443801414" lon="8.035286195212567"><ele>769.0</ele><time>2026-04-05T14:50:45.999Z</time></trkpt><trkpt lat="44.464212575415395" lon="8.035242428136376"><ele>769.0</ele><time>2026-04-05T14:50:46.999Z</time></trkpt><trkpt lat="44.46429276779776" lon="8.035189834948383"><ele>769.0</ele><time>2026-04-05T14:50:47.999Z</time></trkpt><trkpt lat="44.46440468828076" lon="8.035112563774229"><ele>769.0</ele><time>2026-04-05T14:50:48.999Z</time></trkpt><trkpt lat="44.46454954815195" lon="8.035009358514037"><ele>769.0</ele><time>2026-04-05T14:50:49.999Z</time></trkpt><trkpt lat="44.464723214971904" lon="8.034893484896276"><ele>766.6666666666666</ele><time>2026-04-05T14:50:51Z</time></trkpt><trkpt lat="44.46490502501659" lon="8.034774868997102"><ele>764.3333333333333</ele><time>2026-04-05T14:50:52Z</time></trkpt><trkpt lat="44.465089179515985" lon="8.034650173031196"><ele>762.0</ele><time>2026-04-05T14:50:53Z</time></trkpt><trkpt lat="44.46527473171195" lon="8.034499263014089"><ele>762.5</ele><time>2026-04-05T14:50:54Z</time></trkpt><trkpt lat="44.4654597250878" lon="8.03430236675277"><ele>763.0</ele><time>2026-04-05T14:50:55Z</time></trkpt><trkpt lat="44.4656350566687" lon="8.034086464096156"><ele>763.0</ele><time>2026-04-05T14:50:56Z</time></trkpt><trkpt lat="44.46578709776998" lon="8.033900245516984"><ele>763.0</ele><time>2026-04-05T14:50:57Z</time></trkpt><trkpt lat="44.4659157873517" lon="8.03375132864239"><ele>763.0</ele><time>2026-04-05T14:50:58Z</time></trkpt><trkpt lat="44.466027575045615" lon="8.033629311123994"><ele>763.0</ele><time>2026-04-05T14:50:59Z</time></trkpt><trkpt lat="44.46613506063354" lon="8.033524018666002"><ele>763.0</ele><time>2026-04-05T14:51:00Z</time></trkpt><trkpt lat="44.46625350454406" lon="8.03344931608161"><ele>763.0</ele><time>2026-04-05T14:51:01Z</time></trkpt><trkpt lat="44.466414451272556" lon="8.033410382103805"><ele>763.0</ele><time>2026-04-05T14:51:02Z</time></trkpt><trkpt lat="44.46662826380121" lon="8.033333145564754"><ele>765.0</ele><time>2026-04-05T14:51:03Z</time></trkpt><trkpt lat="44.466859007436426" lon="8.033236501863776"><ele>767.0</ele><time>2026-04-05T14:51:04Z</time></trkpt><trkpt lat="44.46710986746191" lon="8.033141248582853"><ele>774.0</ele><time>2026-04-05T14:51:05Z</time></trkpt><trkpt lat="44.46737464132254" lon="8.032989106649415"><ele>781.0</ele><time>2026-04-05T14:51:06Z</time></trkpt><trkpt lat="44.4676420982783" lon="8.032815306842581"><ele>781.0</ele><time>2026-04-05T14:51:07Z</time></trkpt><trkpt lat="44.46787318261583" lon="8.032666675045048"><ele>781.0</ele><time>2026-04-05T14:51:08Z</time></trkpt><trkpt lat="44.468060382805774" lon="8.032604200778323"><ele>781.0</ele><time>2026-04-05T14:51:09Z</time></trkpt><trkpt lat="44.46820580034765" lon="8.032555162086641"><ele>779.75</ele><time>2026-04-05T14:51:10Z</time></trkpt><trkpt lat="44.46836652610828" lon="8.032573274928527"><ele>778.5</ele><time>2026-04-05T14:51:11Z</time></trkpt><trkpt lat="44.46848689240463" lon="8.032676808907379"><ele>777.25</ele><time>2026-04-05T14:51:12Z</time></trkpt><trkpt lat="44.468588768794746" lon="8.03282255556599"><ele>776.0</ele><time>2026-04-05T14:51:13Z</time></trkpt><trkpt lat="44.46863599205576" lon="8.033025577874708"><ele>776.0</ele><time>2026-04-05T14:51:14Z</time></trkpt><trkpt lat="44.468659443819234" lon="8.033267394992041"><ele>776.0</ele><time>2026-04-05T14:51:15Z</time></trkpt><trkpt lat="44.46867001680811" lon="8.033511371608803"><ele>776.0</ele><time>2026-04-05T14:51:16Z</time></trkpt><trkpt lat="44.46867836775852" lon="8.033724992670516"><ele>775.3333333333334</ele><time>2026-04-05T14:51:17Z</time></trkpt><trkpt lat="44.46872219174605" lon="8.033908762072217"><ele>774.6666666666667</ele><time>2026-04-05T14:51:18Z</time></trkpt><trkpt lat="44.46881772924613" lon="8.034050849014559"><ele>774.0</ele><time>2026-04-05T14:51:19Z</time></trkpt><trkpt lat="44.46896025569946" lon="8.034196731725254"><ele>773.0</ele><time>2026-04-05T14:51:20Z</time></trkpt><trkpt lat="44.46910410988394" lon="8.034342291425126"><ele>772.0</ele><time>2026-04-05T14:51:21Z</time></trkpt><trkpt lat="44.469225734232324" lon="8.03451873380506"><ele>771.0</ele><time>2026-04-05T14:51:22Z</time></trkpt><trkpt lat="44.46930021805065" lon="8.03473758213798"><ele>769.0</ele><time>2026-04-05T14:51:23Z</time></trkpt><trkpt lat="44.46934390936388" lon="8.034997588765252"><ele>767.0</ele><time>2026-04-05T14:51:24Z</time></trkpt><trkpt lat="44.46939803482452" lon="8.035289623590156"><ele>765.0</ele><time>2026-04-05T14:51:25Z</time></trkpt><trkpt lat="44.46944971546294" lon="8.035591741686211"><ele>763.6666666666666</ele><time>2026-04-05T14:51:26Z</time></trkpt><trkpt lat="44.469485715347815" lon="8.035881959016189"><ele>762.3333333333333</ele><time>2026-04-05T14:51:27Z</time></trkpt><trkpt lat="44.46958378461497" lon="8.036154687023988"><ele>761.0</ele><time>2026-04-05T14:51:28Z</time></trkpt><trkpt lat="44.469707749880854" lon="8.036445497224578"><ele>760.0</ele><time>2026-04-05T14:51:29Z</time></trkpt><trkpt lat="44.469862714308384" lon="8.036736054391772"><ele>759.0</ele><time>2026-04-05T14:51:30Z</time></trkpt><trkpt lat="44.470018687098374" lon="8.03705247770786"><ele>759.0</ele><time>2026-04-05T14:51:31Z</time></trkpt><trkpt lat="44.470187545159604" lon="8.037357944030392"><ele>759.0</ele><time>2026-04-05T14:51:32Z</time></trkpt><trkpt lat="44.470367462297126" lon="8.037653465206741"><ele>756.0</ele><time>2026-04-05T14:51:33Z</time></trkpt><trkpt lat="44.47052028124616" lon="8.037939417804477"><ele>753.0</ele><time>2026-04-05T14:51:34Z</time></trkpt><trkpt lat="44.47068476382354" lon="8.038194049198966"><ele>754.5</ele><time>2026-04-05T14:51:35Z</time></trkpt><trkpt lat="44.470884795424986" lon="8.038431005341288"><ele>756.0</ele><time>2026-04-05T14:51:36Z</time></trkpt><trkpt lat="44.471104808591306" lon="8.038622168703927"><ele>753.5</ele><time>2026-04-05T14:51:37Z</time></trkpt><trkpt lat="44.471314731268066" lon="8.03876983028247"><ele>751.0</ele><time>2026-04-05T14:51:37.999Z</time></trkpt><trkpt lat="44.47150735882924" lon="8.03890919340384"><ele>751.0</ele><time>2026-04-05T14:51:38.999Z</time></trkpt><trkpt lat="44.471680468791384" lon="8.039050328329285"><ele>751.0</ele><time>2026-04-05T14:51:39.999Z</time></trkpt><trkpt lat="44.47183739500434" lon="8.0391933150842"><ele>751.0</ele><time>2026-04-05T14:51:40.999Z</time></trkpt><trkpt lat="44.47195447133492" lon="8.039357264458"><ele>752.25</ele><time>2026-04-05T14:51:41.999Z</time></trkpt><trkpt lat="44.47207516507787" lon="8.039491973939395"><ele>753.5</ele><time>2026-04-05T14:51:42.999Z</time></trkpt><trkpt lat="44.472180409561446" lon="8.039634773988436"><ele>754.75</ele><time>2026-04-05T14:51:43.999Z</time></trkpt><trkpt lat="44.472264931546015" lon="8.039785239034245"><ele>756.0</ele><time>2026-04-05T14:51:44.999Z</time></trkpt><trkpt lat="44.47236913183727" lon="8.039930463617896"><ele>756.6666666666666</ele><time>2026-04-05T14:51:45.999Z</time></trkpt><trkpt lat="44.472481308589934" lon="8.040086805036035"><ele>757.3333333333333</ele><time>2026-04-05T14:51:46.999Z</time></trkpt><trkpt lat="44.47259557288708" lon="8.04024605596952"><ele>758.0</ele><time>2026-04-05T14:51:47.999Z</time></trkpt><trkpt lat="44.4727112790163" lon="8.040407316234655"><ele>758.0</ele><time>2026-04-05T14:51:48.999Z</time></trkpt><trkpt lat="44.47282899718491" lon="8.040571380754297"><ele>758.0</ele><time>2026-04-05T14:51:49.999Z</time></trkpt><trkpt lat="44.47295219042591" lon="8.040743076423473"><ele>758.0</ele><time>2026-04-05T14:51:50.999Z</time></trkpt><trkpt lat="44.47308050611222" lon="8.040911806891152"><ele>757.3333333333333</ele><time>2026-04-05T14:51:51.999Z</time></trkpt><trkpt lat="44.47321854544585" lon="8.041059524298582"><ele>756.6666666666666</ele><time>2026-04-05T14:51:52.999Z</time></trkpt><trkpt lat="44.47336018644604" lon="8.041206220316793"><ele>756.0</ele><time>2026-04-05T14:51:53.999Z</time></trkpt><trkpt lat="44.47352953828326" lon="8.041329527621647"><ele>756.0</ele><time>2026-04-05T14:51:54.999Z</time></trkpt><trkpt lat="44.47369273666732" lon="8.041465215527856"><ele>756.0</ele><time>2026-04-05T14:51:55.999Z</time></trkpt><trkpt lat="44.47385047257496" lon="8.04157435420552"><ele>756.0</ele><time>2026-04-05T14:51:56.999Z</time></trkpt><trkpt lat="44.473998209056056" lon="8.041676574256568"><ele>755.3333333333334</ele><time>2026-04-05T14:51:57.999Z</time></trkpt><trkpt lat="44.47414381505014" lon="8.041779505761907"><ele>754.6666666666667</ele><time>2026-04-05T14:51:58.999Z</time></trkpt><trkpt lat="44.47429235549361" lon="8.041895737754759"><ele>754.0</ele><time>2026-04-05T14:51:59.999Z</time></trkpt><trkpt lat="44.47443485466851" lon="8.042035523693714"><ele>754.0</ele><time>2026-04-05T14:52:00.999Z</time></trkpt><trkpt lat="44.474583639358144" lon="8.042211227406517"><ele>754.0</ele><time>2026-04-05T14:52:01.999Z</time></trkpt><trkpt lat="44.47474294439603" lon="8.04242582888911"><ele>754.0</ele><time>2026-04-05T14:52:02.999Z</time></trkpt><trkpt lat="44.474909382453376" lon="8.042655996621846"><ele>754.0</ele><time>2026-04-05T14:52:03.999Z</time></trkpt><trkpt lat="44.47508258588526" lon="8.042892200979807"><ele>754.0</ele><time>2026-04-05T14:52:04.999Z</time></trkpt><trkpt lat="44.47525077019522" lon="8.043121297696027"><ele>751.6666666666667</ele><time>2026-04-05T14:52:05.999Z</time></trkpt><trkpt lat="44.47541718302231" lon="8.043317036247592"><ele>749.3333333333334</ele><time>2026-04-05T14:52:06.999Z</time></trkpt><trkpt lat="44.47556018034604" lon="8.043511779205312"><ele>747.0</ele><time>2026-04-05T14:52:07.999Z</time></trkpt><trkpt lat="44.475699020714266" lon="8.043702480035645"><ele>747.0</ele><time>2026-04-05T14:52:08.999Z</time></trkpt><trkpt lat="44.475843461842366" lon="8.043897910228448"><ele>747.0</ele><time>2026-04-05T14:52:09.999Z</time></trkpt><trkpt lat="44.475986992489844" lon="8.044117597361842"><ele>747.0</ele><time>2026-04-05T14:52:10.999Z</time></trkpt><trkpt lat="44.476165797223004" lon="8.044331980342077"><ele>745.5</ele><time>2026-04-05T14:52:11.999Z</time></trkpt><trkpt lat="44.476373226492306" lon="8.044536294568212"><ele>744.0</ele><time>2026-04-05T14:52:12.999Z</time></trkpt><trkpt lat="44.476598203800144" lon="8.044751762467355"><ele>748.0</ele><time>2026-04-05T14:52:13.999Z</time></trkpt><trkpt lat="44.47684562579036" lon="8.044985683559517"><ele>752.0</ele><time>2026-04-05T14:52:14.999Z</time></trkpt><trkpt lat="44.47709339365603" lon="8.045206114414395"><ele>750.5</ele><time>2026-04-05T14:52:15.999Z</time></trkpt><trkpt lat="44.47733806918555" lon="8.045373994597568"><ele>749.0</ele><time>2026-04-05T14:52:16.999Z</time></trkpt><trkpt lat="44.47760510989932" lon="8.045533352655456"><ele>749.0</ele><time>2026-04-05T14:52:17.999Z</time></trkpt><trkpt lat="44.477867511319275" lon="8.045689502192072"><ele>749.0</ele><time>2026-04-05T14:52:18.999Z</time></trkpt><trkpt lat="44.478059595900106" lon="8.04579086218797"><ele>751.3333333333333</ele><time>2026-04-05T14:52:19.999Z</time></trkpt><trkpt lat="44.47827193863381" lon="8.045919453910933"><ele>753.6666666666666</ele><time>2026-04-05T14:52:20.999Z</time></trkpt><trkpt lat="44.47846445336724" lon="8.046040949529266"><ele>756.0</ele><time>2026-04-05T14:52:21.999Z</time></trkpt><trkpt lat="44.47864769110619" lon="8.046146743006133"><ele>754.6666666666666</ele><time>2026-04-05T14:52:22.999Z</time></trkpt><trkpt lat="44.478841654447024" lon="8.046221545388986"><ele>753.3333333333333</ele><time>2026-04-05T14:52:23.999Z</time></trkpt><trkpt lat="44.479076364259775" lon="8.046216192409295"><ele>752.0</ele><time>2026-04-05T14:52:24.999Z</time></trkpt><trkpt lat="44.47935200558929" lon="8.046159570327562"><ele>752.5</ele><time>2026-04-05T14:52:25.999Z</time></trkpt><trkpt lat="44.4796656719515" lon="8.0461145514136"><ele>753.0</ele><time>2026-04-05T14:52:26.999Z</time></trkpt><trkpt lat="44.47999975647348" lon="8.046092550652311"><ele>753.0</ele><time>2026-04-05T14:52:27.999Z</time></trkpt><trkpt lat="44.480282909396685" lon="8.046067345567229"><ele>753.0</ele><time>2026-04-05T14:52:28.999Z</time></trkpt><trkpt lat="44.48052501156594" lon="8.046044048753387"><ele>753.0</ele><time>2026-04-05T14:52:29.999Z</time></trkpt><trkpt lat="44.48072943597349" lon="8.046028950848989"><ele>753.0</ele><time>2026-04-05T14:52:30.999Z</time></trkpt><trkpt lat="44.48089954397449" lon="8.04606928055276"><ele>753.0</ele><time>2026-04-05T14:52:31.999Z</time></trkpt><trkpt lat="44.48103397827056" lon="8.04613283330046"><ele>753.0</ele><time>2026-04-05T14:52:32.999Z</time></trkpt><trkpt lat="44.48116515746808" lon="8.046218331335115"><ele>753.0</ele><time>2026-04-05T14:52:33.999Z</time></trkpt><trkpt lat="44.481313154394066" lon="8.04631195722857"><ele>753.0</ele><time>2026-04-05T14:52:34.999Z</time></trkpt><trkpt lat="44.48147844032224" lon="8.046416520680102"><ele>752.6666666666666</ele><time>2026-04-05T14:52:35.999Z</time></trkpt><trkpt lat="44.48165460819735" lon="8.046486461378855"><ele>752.3333333333333</ele><time>2026-04-05T14:52:36.999Z</time></trkpt><trkpt lat="44.48181302305804" lon="8.046537892134703"><ele>752.0</ele><time>2026-04-05T14:52:37.999Z</time></trkpt><trkpt lat="44.481968069530275" lon="8.0465169541461"><ele>753.3333333333333</ele><time>2026-04-05T14:52:38.999Z</time></trkpt><trkpt lat="44.48213728849498" lon="8.046402956793834"><ele>754.6666666666666</ele><time>2026-04-05T14:52:39.999Z</time></trkpt><trkpt lat="44.48231141683665" lon="8.046247300908215"><ele>756.0</ele><time>2026-04-05T14:52:40.999Z</time></trkpt><trkpt lat="44.48250369514359" lon="8.046051191401663"><ele>756.0</ele><time>2026-04-05T14:52:41.999Z</time></trkpt><trkpt lat="44.48270447685909" lon="8.045899583791178"><ele>756.0</ele><time>2026-04-05T14:52:42.999Z</time></trkpt><trkpt lat="44.482903657636975" lon="8.045746068845359"><ele>757.6666666666666</ele><time>2026-04-05T14:52:43.999Z</time></trkpt><trkpt lat="44.48309278595257" lon="8.045605760205497"><ele>759.3333333333333</ele><time>2026-04-05T14:52:44.999Z</time></trkpt><trkpt lat="44.48326168366425" lon="8.045488358598583"><ele>761.0</ele><time>2026-04-05T14:52:45.999Z</time></trkpt><trkpt lat="44.483420538724395" lon="8.045405252715717"><ele>761.0</ele><time>2026-04-05T14:52:46.999Z</time></trkpt><trkpt lat="44.48359936275821" lon="8.04543899280087"><ele>761.0</ele><time>2026-04-05T14:52:47.999Z</time></trkpt><trkpt lat="44.48379794356525" lon="8.045520174450495"><ele>761.0</ele><time>2026-04-05T14:52:48.999Z</time></trkpt><trkpt lat="44.48402322252513" lon="8.04565619284598"><ele>761.3333333333333</ele><time>2026-04-05T14:52:49.999Z</time></trkpt><trkpt lat="44.48422437039303" lon="8.045775791130769"><ele>761.6666666666666</ele><time>2026-04-05T14:52:50.999Z</time></trkpt><trkpt lat="44.484365568367664" lon="8.045831633905513"><ele>762.0</ele><time>2026-04-05T14:52:51.999Z</time></trkpt><trkpt lat="44.484473067066425" lon="8.045851198979246"><ele>762.3333333333334</ele><time>2026-04-05T14:52:52.999Z</time></trkpt><trkpt lat="44.48458687379365" lon="8.045788743403257"><ele>762.6666666666667</ele><time>2026-04-05T14:52:53.999Z</time></trkpt><trkpt lat="44.484702090669245" lon="8.045629525702607"><ele>763.0</ele><time>2026-04-05T14:52:54.999Z</time></trkpt><trkpt lat="44.48479490793342" lon="8.0453977636197"><ele>763.0</ele><time>2026-04-05T14:52:55.999Z</time></trkpt><trkpt lat="44.48487649391801" lon="8.045185410566347"><ele>763.0</ele><time>2026-04-05T14:52:57Z</time></trkpt><trkpt lat="44.48498044978261" lon="8.045051300567074"><ele>763.0</ele><time>2026-04-05T14:52:58Z</time></trkpt><trkpt lat="44.48511079825681" lon="8.04495421979266"><ele>765.6666666666667</ele><time>2026-04-05T14:52:59Z</time></trkpt><trkpt lat="44.485295435061296" lon="8.04491208905897"><ele>768.3333333333334</ele><time>2026-04-05T14:53:00Z</time></trkpt><trkpt lat="44.485501463443" lon="8.04485298824168"><ele>771.0</ele><time>2026-04-05T14:53:01Z</time></trkpt><trkpt lat="44.485682505627224" lon="8.04477956797624"><ele>772.0</ele><time>2026-04-05T14:53:02Z</time></trkpt><trkpt lat="44.4858556557649" lon="8.044793301930957"><ele>773.0</ele><time>2026-04-05T14:53:03Z</time></trkpt><trkpt lat="44.486043041827735" lon="8.044897522639456"><ele>774.0</ele><time>2026-04-05T14:53:04Z</time></trkpt><trkpt lat="44.48626396795479" lon="8.04493650071847"><ele>768.0</ele><time>2026-04-05T14:53:05Z</time></trkpt><trkpt lat="44.48645601973743" lon="8.044991075197233"><ele>762.0</ele><time>2026-04-05T14:53:06Z</time></trkpt><trkpt lat="44.48661765347405" lon="8.045010772522335"><ele>756.0</ele><time>2026-04-05T14:53:07Z</time></trkpt><trkpt lat="44.486776968689654" lon="8.04508331772626"><ele>756.0</ele><time>2026-04-05T14:53:08Z</time></trkpt><trkpt lat="44.48695593473734" lon="8.045121843782422"><ele>756.0</ele><time>2026-04-05T14:53:09Z</time></trkpt><trkpt lat="44.48712856017686" lon="8.045065831057409"><ele>756.0</ele><time>2026-04-05T14:53:10Z</time></trkpt><trkpt lat="44.48731363596707" lon="8.044936171431788"><ele>754.75</ele><time>2026-04-05T14:53:11Z</time></trkpt><trkpt lat="44.487458508269135" lon="8.04480559131488"><ele>753.5</ele><time>2026-04-05T14:53:12Z</time></trkpt><trkpt lat="44.487577997869025" lon="8.044788262857969"><ele>752.25</ele><time>2026-04-05T14:53:13Z</time></trkpt><trkpt lat="44.48770753189481" lon="8.044872038205781"><ele>751.0</ele><time>2026-04-05T14:53:14Z</time></trkpt><trkpt lat="44.48782428774048" lon="8.045013262433928"><ele>752.3333333333334</ele><time>2026-04-05T14:53:15Z</time></trkpt><trkpt lat="44.487935880866985" lon="8.045220557123448"><ele>753.6666666666666</ele><time>2026-04-05T14:53:16Z</time></trkpt><trkpt lat="44.4880393796525" lon="8.045431531455577"><ele>755.0</ele><time>2026-04-05T14:53:17Z</time></trkpt><trkpt lat="44.48813752710119" lon="8.045641668457266"><ele>755.0</ele><time>2026-04-05T14:53:18Z</time></trkpt><trkpt lat="44.488276771584346" lon="8.045727973166503"><ele>755.0</ele><time>2026-04-05T14:53:19Z</time></trkpt><trkpt lat="44.4884749584198" lon="8.045760160141699"><ele>755.0</ele><time>2026-04-05T14:53:20Z</time></trkpt><trkpt lat="44.48870731188805" lon="8.045739397353602"><ele>754.75</ele><time>2026-04-05T14:53:21Z</time></trkpt><trkpt lat="44.48884697106608" lon="8.04575820426897"><ele>754.5</ele><time>2026-04-05T14:53:22Z</time></trkpt><trkpt lat="44.48895755590638" lon="8.045815682836848"><ele>754.25</ele><time>2026-04-05T14:53:23Z</time></trkpt><trkpt lat="44.48906208626937" lon="8.045973893198816"><ele>754.0</ele><time>2026-04-05T14:53:24Z</time></trkpt><trkpt lat="44.4891604036788" lon="8.046175659873104"><ele>750.3333333333334</ele><time>2026-04-05T14:53:25Z</time></trkpt><trkpt lat="44.489304843787174" lon="8.046387303173333"><ele>746.6666666666666</ele><time>2026-04-05T14:53:25.999Z</time></trkpt><trkpt lat="44.489441676204216" lon="8.04654006941092"><ele>743.0</ele><time>2026-04-05T14:53:26.999Z</time></trkpt><trkpt lat="44.4895802797113" lon="8.046646482865123"><ele>745.3333333333333</ele><time>2026-04-05T14:53:27.999Z</time></trkpt><trkpt lat="44.48971278947681" lon="8.046668296705786"><ele>747.6666666666666</ele><time>2026-04-05T14:53:28.999Z</time></trkpt><trkpt lat="44.489854415867065" lon="8.046604592265178"><ele>750.0</ele><time>2026-04-05T14:53:29.999Z</time></trkpt><trkpt lat="44.49002315936536" lon="8.046485379089601"><ele>750.0</ele><time>2026-04-05T14:53:30.999Z</time></trkpt><trkpt lat="44.49019341197249" lon="8.04628261347706"><ele>750.0</ele><time>2026-04-05T14:53:31.999Z</time></trkpt><trkpt lat="44.49035711422516" lon="8.046045649790466"><ele>739.5</ele><time>2026-04-05T14:53:32.999Z</time></trkpt><trkpt lat="44.49050349329981" lon="8.045752733882281"><ele>729.0</ele><time>2026-04-05T14:53:33.999Z</time></trkpt><trkpt lat="44.49062248373785" lon="8.045424811386637"><ele>729.0</ele><time>2026-04-05T14:53:34.999Z</time></trkpt><trkpt lat="44.49073488891299" lon="8.045132104343702"><ele>729.0</ele><time>2026-04-05T14:53:35.999Z</time></trkpt><trkpt lat="44.49083257304519" lon="8.044911380333826"><ele>729.0</ele><time>2026-04-05T14:53:36.999Z</time></trkpt><trkpt lat="44.490963508209035" lon="8.044754362366529"><ele>729.3333333333334</ele><time>2026-04-05T14:53:37.999Z</time></trkpt><trkpt lat="44.491144408576034" lon="8.04464037952179"><ele>729.6666666666667</ele><time>2026-04-05T14:53:38.999Z</time></trkpt><trkpt lat="44.491372292319085" lon="8.044521765591295"><ele>730.0</ele><time>2026-04-05T14:53:39.999Z</time></trkpt><trkpt lat="44.49160412990681" lon="8.044370535763381"><ele>726.6666666666667</ele><time>2026-04-05T14:53:40.999Z</time></trkpt><trkpt lat="44.49182629076178" lon="8.044246741013923"><ele>723.3333333333334</ele><time>2026-04-05T14:53:41.999Z</time></trkpt><trkpt lat="44.491995160999906" lon="8.044141896883964"><ele>720.0</ele><time>2026-04-05T14:53:42.999Z</time></trkpt><trkpt lat="44.49213381026194" lon="8.04405311810373"><ele>717.6</ele><time>2026-04-05T14:53:43.999Z</time></trkpt><trkpt lat="44.49225069188397" lon="8.043989875238816"><ele>715.2</ele><time>2026-04-05T14:53:44.999Z</time></trkpt><trkpt lat="44.49236087527966" lon="8.043954331852289"><ele>712.8</ele><time>2026-04-05T14:53:45.999Z</time></trkpt><trkpt lat="44.4924602886207" lon="8.043943962090282"><ele>710.4</ele><time>2026-04-05T14:53:46.999Z</time></trkpt><trkpt lat="44.492555502486034" lon="8.043961273756578"><ele>708.0</ele><time>2026-04-05T14:53:47.999Z</time></trkpt><trkpt lat="44.49264706745062" lon="8.043986241570504"><ele>708.0</ele><time>2026-04-05T14:53:48.999Z</time></trkpt><trkpt lat="44.49273264166375" lon="8.043972833517328"><ele>708.0</ele><time>2026-04-05T14:53:49.999Z</time></trkpt><trkpt lat="44.49281658609909" lon="8.043908470660488"><ele>708.0</ele><time>2026-04-05T14:53:50.999Z</time></trkpt><trkpt lat="44.49290667613275" lon="8.043827663703293"><ele>708.0</ele><time>2026-04-05T14:53:51.999Z</time></trkpt><trkpt lat="44.49301298310478" lon="8.043785778133126"><ele>708.0</ele><time>2026-04-05T14:53:52.999Z</time></trkpt><trkpt lat="44.49312645114513" lon="8.043758592570324"><ele>707.25</ele><time>2026-04-05T14:53:53.999Z</time></trkpt><trkpt lat="44.49323858076075" lon="8.043703980051372"><ele>706.5</ele><time>2026-04-05T14:53:54.999Z</time></trkpt><trkpt lat="44.49334632137796" lon="8.04363314823173"><ele>705.75</ele><time>2026-04-05T14:53:55.999Z</time></trkpt><trkpt lat="44.49345552606089" lon="8.043566609736441"><ele>705.0</ele><time>2026-04-05T14:53:56.999Z</time></trkpt><trkpt lat="44.49356367686823" lon="8.043503859722412"><ele>705.0</ele><time>2026-04-05T14:53:57.999Z</time></trkpt><trkpt lat="44.493672162492686" lon="8.043440211123878"><ele>705.0</ele><time>2026-04-05T14:53:58.999Z</time></trkpt><trkpt lat="44.493790714266275" lon="8.043370785902452"><ele>705.0</ele><time>2026-04-05T14:53:59.999Z</time></trkpt><trkpt lat="44.493926247838175" lon="8.043287987763248"><ele>705.0</ele><time>2026-04-05T14:54:00.999Z</time></trkpt><trkpt lat="44.49408299203332" lon="8.043205245515717"><ele>703.6666666666666</ele><time>2026-04-05T14:54:01.999Z</time></trkpt><trkpt lat="44.49426444745823" lon="8.043084306095526"><ele>702.3333333333333</ele><time>2026-04-05T14:54:02.999Z</time></trkpt><trkpt lat="44.494457258440605" lon="8.042939925052472"><ele>701.0</ele><time>2026-04-05T14:54:03.999Z</time></trkpt><trkpt lat="44.49463340110446" lon="8.042726503154746"><ele>701.0</ele><time>2026-04-05T14:54:04.999Z</time></trkpt><trkpt lat="44.494798443852524" lon="8.042469613043632"><ele>701.0</ele><time>2026-04-05T14:54:05.999Z</time></trkpt><trkpt lat="44.49495099863769" lon="8.042193827298554"><ele>693.5</ele><time>2026-04-05T14:54:06.999Z</time></trkpt><trkpt lat="44.49511890518176" lon="8.04197780386142"><ele>686.0</ele><time>2026-04-05T14:54:07.999Z</time></trkpt><trkpt lat="44.495276099480435" lon="8.04172596539244"><ele>687.0</ele><time>2026-04-05T14:54:08.999Z</time></trkpt><trkpt lat="44.49545034242255" lon="8.041502774937713"><ele>688.0</ele><time>2026-04-05T14:54:09.999Z</time></trkpt><trkpt lat="44.495596300703596" lon="8.041266498211053"><ele>688.0</ele><time>2026-04-05T14:54:10.999Z</time></trkpt><trkpt lat="44.49572581115256" lon="8.04105986650933"><ele>688.0</ele><time>2026-04-05T14:54:11.999Z</time></trkpt><trkpt lat="44.495844274951054" lon="8.040892503698066"><ele>688.0</ele><time>2026-04-05T14:54:12.999Z</time></trkpt><trkpt lat="44.495962160219136" lon="8.04076480169194"><ele>685.2</ele><time>2026-04-05T14:54:13.999Z</time></trkpt><trkpt lat="44.4960992856436" lon="8.040738662821688"><ele>682.4</ele><time>2026-04-05T14:54:14.999Z</time></trkpt><trkpt lat="44.49619062004773" lon="8.040666344297227"><ele>679.6</ele><time>2026-04-05T14:54:15.999Z</time></trkpt><trkpt lat="44.49625061332898" lon="8.040620970766547"><ele>676.8000000000001</ele><time>2026-04-05T14:54:16.999Z</time></trkpt><trkpt lat="44.496274012959745" lon="8.040510954999924"><ele>674.0</ele><time>2026-04-05T14:54:17.999Z</time></trkpt><trkpt lat="44.496240183305936" lon="8.040379629618597"><ele>672.5</ele><time>2026-04-05T14:54:18.999Z</time></trkpt><trkpt lat="44.49615020039884" lon="8.04029204327867"><ele>671.0</ele><time>2026-04-05T14:54:19.999Z</time></trkpt><trkpt lat="44.496034700631064" lon="8.040293880546681"><ele>669.5</ele><time>2026-04-05T14:54:20.999Z</time></trkpt><trkpt lat="44.49590938727508" lon="8.040386408421837"><ele>668.0</ele><time>2026-04-05T14:54:21.999Z</time></trkpt><trkpt lat="44.49581661657809" lon="8.040553490655086"><ele>668.0</ele><time>2026-04-05T14:54:22.999Z</time></trkpt><trkpt lat="44.49571930346221" lon="8.040697126309848"><ele>668.0</ele><time>2026-04-05T14:54:23.999Z</time></trkpt><trkpt lat="44.49559939515575" lon="8.040818943797285"><ele>668.0</ele><time>2026-04-05T14:54:24.999Z</time></trkpt><trkpt lat="44.49545390897889" lon="8.040905319817668"><ele>668.0</ele><time>2026-04-05T14:54:25.999Z</time></trkpt><trkpt lat="44.49530644959976" lon="8.040964868601224"><ele>668.6666666666666</ele><time>2026-04-05T14:54:26.999Z</time></trkpt><trkpt lat="44.49515251232853" lon="8.040994751985316"><ele>669.3333333333334</ele><time>2026-04-05T14:54:27.999Z</time></trkpt><trkpt lat="44.49500083091688" lon="8.040995699044274"><ele>670.0</ele><time>2026-04-05T14:54:28.999Z</time></trkpt><trkpt lat="44.49485542186607" lon="8.040970585079132"><ele>670.0</ele><time>2026-04-05T14:54:29.999Z</time></trkpt><trkpt lat="44.494714587787406" lon="8.040938542048432"><ele>670.0</ele><time>2026-04-05T14:54:30.999Z</time></trkpt><trkpt lat="44.49458966780876" lon="8.040915391800969"><ele>670.0</ele><time>2026-04-05T14:54:31.999Z</time></trkpt><trkpt lat="44.494460829846865" lon="8.040905481698196"><ele>670.0</ele><time>2026-04-05T14:54:32.999Z</time></trkpt><trkpt lat="44.49433793532415" lon="8.040904092385613"><ele>668.0</ele><time>2026-04-05T14:54:33.999Z</time></trkpt><trkpt lat="44.49421988664979" lon="8.04093692214621"><ele>666.0</ele><time>2026-04-05T14:54:34.999Z</time></trkpt><trkpt lat="44.49410440156916" lon="8.040998203319512"><ele>664.0</ele><time>2026-04-05T14:54:35.999Z</time></trkpt><trkpt lat="44.493999307334136" lon="8.04110863474647"><ele>662.0</ele><time>2026-04-05T14:54:36.999Z</time></trkpt><trkpt lat="44.49389474324254" lon="8.041230628978424"><ele>662.0</ele><time>2026-04-05T14:54:37.999Z</time></trkpt><trkpt lat="44.493785403231485" lon="8.04134767352349"><ele>662.0</ele><time>2026-04-05T14:54:38.999Z</time></trkpt><trkpt lat="44.493681007962905" lon="8.041450460482261"><ele>662.0</ele><time>2026-04-05T14:54:39.999Z</time></trkpt><trkpt lat="44.49358765154551" lon="8.04155938733556"><ele>662.0</ele><time>2026-04-05T14:54:40.999Z</time></trkpt><trkpt lat="44.49348778076724" lon="8.041630314681827"><ele>662.4000000000001</ele><time>2026-04-05T14:54:41.999Z</time></trkpt><trkpt lat="44.49340289679084" lon="8.041671280207028"><ele>662.8000000000001</ele><time>2026-04-05T14:54:42.999Z</time></trkpt><trkpt lat="44.49332328192972" lon="8.04165550992105"><ele>663.2</ele><time>2026-04-05T14:54:43.999Z</time></trkpt><trkpt lat="44.49326850779726" lon="8.041549957229295"><ele>663.6</ele><time>2026-04-05T14:54:44.999Z</time></trkpt><trkpt lat="44.49326599082207" lon="8.041405789821075"><ele>664.0</ele><time>2026-04-05T14:54:45.999Z</time></trkpt><trkpt lat="44.49335323952889" lon="8.041273563289321"><ele>660.6666666666667</ele><time>2026-04-05T14:54:46.999Z</time></trkpt><trkpt lat="44.493427746648884" lon="8.041094295918679"><ele>657.3333333333334</ele><time>2026-04-05T14:54:47.999Z</time></trkpt><trkpt lat="44.493516901382755" lon="8.040923340428659"><ele>654.0</ele><time>2026-04-05T14:54:48.999Z</time></trkpt><trkpt lat="44.493600715321065" lon="8.040731161999371"><ele>652.3333333333334</ele><time>2026-04-05T14:54:49.999Z</time></trkpt><trkpt lat="44.49370323359878" lon="8.040527715529947"><ele>650.6666666666667</ele><time>2026-04-05T14:54:50.999Z</time></trkpt><trkpt lat="44.49380217310653" lon="8.040307040379824"><ele>649.0</ele><time>2026-04-05T14:54:51.999Z</time></trkpt><trkpt lat="44.49390629696441" lon="8.040098033574212"><ele>645.6666666666667</ele><time>2026-04-05T14:54:52.999Z</time></trkpt><trkpt lat="44.49402067007603" lon="8.039902369786686"><ele>642.3333333333334</ele><time>2026-04-05T14:54:53.999Z</time></trkpt><trkpt lat="44.49416246122278" lon="8.039783472345695"><ele>639.0</ele><time>2026-04-05T14:54:54.999Z</time></trkpt><trkpt lat="44.49427657689264" lon="8.039674516801401"><ele>639.0</ele><time>2026-04-05T14:54:55.999Z</time></trkpt><trkpt lat="44.49441577151487" lon="8.039696565522357"><ele>639.0</ele><time>2026-04-05T14:54:56.999Z</time></trkpt><trkpt lat="44.49454898752918" lon="8.039748340388769"><ele>639.0</ele><time>2026-04-05T14:54:57.999Z</time></trkpt><trkpt lat="44.49469290230151" lon="8.0398248370908"><ele>639.0</ele><time>2026-04-05T14:54:58.999Z</time></trkpt><trkpt lat="44.494825103668745" lon="8.039856317491346"><ele>639.0</ele><time>2026-04-05T14:54:59.999Z</time></trkpt><trkpt lat="44.49494983443756" lon="8.039846281282133"><ele>639.0</ele><time>2026-04-05T14:55:00.999Z</time></trkpt><trkpt lat="44.49506667003787" lon="8.039770595052262"><ele>639.0</ele><time>2026-04-05T14:55:01.999Z</time></trkpt><trkpt lat="44.49516892777799" lon="8.039613548646384"><ele>639.0</ele><time>2026-04-05T14:55:03Z</time></trkpt><trkpt lat="44.495263232638806" lon="8.039453085081472"><ele>639.0</ele><time>2026-04-05T14:55:04Z</time></trkpt><trkpt lat="44.4953663906851" lon="8.039271200824704"><ele>639.0</ele><time>2026-04-05T14:55:05Z</time></trkpt><trkpt lat="44.4954442866366" lon="8.039112953827939"><ele>639.0</ele><time>2026-04-05T14:55:06Z</time></trkpt><trkpt lat="44.49552753640578" lon="8.03896625660301"><ele>639.0</ele><time>2026-04-05T14:55:07Z</time></trkpt><trkpt lat="44.49560818705203" lon="8.038824189562668"><ele>637.25</ele><time>2026-04-05T14:55:08Z</time></trkpt><trkpt lat="44.495691044406236" lon="8.038692527955863"><ele>635.5</ele><time>2026-04-05T14:55:09Z</time></trkpt><trkpt lat="44.49578569990107" lon="8.03858188000548"><ele>633.75</ele><time>2026-04-05T14:55:10Z</time></trkpt><trkpt lat="44.49591139635908" lon="8.038519597693877"><ele>632.0</ele><time>2026-04-05T14:55:11Z</time></trkpt><trkpt lat="44.4960590543982" lon="8.038502870346624"><ele>632.0</ele><time>2026-04-05T14:55:12Z</time></trkpt><trkpt lat="44.49619850616804" lon="8.038485962219905"><ele>632.0</ele><time>2026-04-05T14:55:13Z</time></trkpt><trkpt lat="44.49631901271151" lon="8.038405457786473"><ele>632.0</ele><time>2026-04-05T14:55:14Z</time></trkpt><trkpt lat="44.49641577374427" lon="8.038243887001457"><ele>632.0</ele><time>2026-04-05T14:55:15Z</time></trkpt><trkpt lat="44.49646897140347" lon="8.038035180633578"><ele>631.6666666666666</ele><time>2026-04-05T14:55:16Z</time></trkpt><trkpt lat="44.496514623125115" lon="8.037827480919107"><ele>631.3333333333334</ele><time>2026-04-05T14:55:17Z</time></trkpt><trkpt lat="44.496578847976025" lon="8.03761616950011"><ele>631.0</ele><time>2026-04-05T14:55:18Z</time></trkpt><trkpt lat="44.49664782369226" lon="8.037399994345453"><ele>628.0</ele><time>2026-04-05T14:55:19Z</time></trkpt><trkpt lat="44.4967159897281" lon="8.03717599858143"><ele>625.0</ele><time>2026-04-05T14:55:20Z</time></trkpt><trkpt lat="44.49677784063151" lon="8.036963950782601"><ele>622.0</ele><time>2026-04-05T14:55:21Z</time></trkpt><trkpt lat="44.49683378144805" lon="8.036775598284077"><ele>621.25</ele><time>2026-04-05T14:55:22Z</time></trkpt><trkpt lat="44.496896373927" lon="8.036622426322214"><ele>620.5</ele><time>2026-04-05T14:55:23Z</time></trkpt><trkpt lat="44.49698899937799" lon="8.036497810072301"><ele>619.75</ele><time>2026-04-05T14:55:24Z</time></trkpt><trkpt lat="44.49710788666119" lon="8.03639722126415"><ele>619.0</ele><time>2026-04-05T14:55:25Z</time></trkpt><trkpt lat="44.49724652737424" lon="8.036302228036934"><ele>619.0</ele><time>2026-04-05T14:55:26Z</time></trkpt><trkpt lat="44.49738596261219" lon="8.036184841929128"><ele>619.0</ele><time>2026-04-05T14:55:27Z</time></trkpt><trkpt lat="44.49753611983042" lon="8.036053147933455"><ele>619.0</ele><time>2026-04-05T14:55:28Z</time></trkpt><trkpt lat="44.497697969609185" lon="8.035928932650656"><ele>619.0</ele><time>2026-04-05T14:55:29Z</time></trkpt><trkpt lat="44.49785932094795" lon="8.035809796884132"><ele>619.0</ele><time>2026-04-05T14:55:30Z</time></trkpt><trkpt lat="44.49799710036327" lon="8.035717013312869"><ele>619.0</ele><time>2026-04-05T14:55:31Z</time></trkpt><trkpt lat="44.49810797110195" lon="8.035631619691708"><ele>619.25</ele><time>2026-04-05T14:55:31.999Z</time></trkpt><trkpt lat="44.49818633128322" lon="8.035504117919652"><ele>619.5</ele><time>2026-04-05T14:55:32.999Z</time></trkpt><trkpt lat="44.49821986599506" lon="8.035305090525766"><ele>619.75</ele><time>2026-04-05T14:55:33.999Z</time></trkpt><trkpt lat="44.498216886797834" lon="8.035086792416621"><ele>620.0</ele><time>2026-04-05T14:55:34.999Z</time></trkpt><trkpt lat="44.498183968726735" lon="8.03490396219278"><ele>617.5</ele><time>2026-04-05T14:55:35.999Z</time></trkpt><trkpt lat="44.4981574655828" lon="8.034727172328207"><ele>615.0</ele><time>2026-04-05T14:55:36.999Z</time></trkpt><trkpt lat="44.49815310779446" lon="8.034552318575521"><ele>612.5</ele><time>2026-04-05T14:55:37.999Z</time></trkpt><trkpt lat="44.49818000272951" lon="8.034361678841513"><ele>610.0</ele><time>2026-04-05T14:55:38.999Z</time></trkpt><trkpt lat="44.49823279659806" lon="8.034187172829206"><ele>605.75</ele><time>2026-04-05T14:55:39.999Z</time></trkpt><trkpt lat="44.498295854813804" lon="8.034016626424346"><ele>601.5</ele><time>2026-04-05T14:55:40.999Z</time></trkpt><trkpt lat="44.498359768069115" lon="8.03385181502236"><ele>597.25</ele><time>2026-04-05T14:55:41.999Z</time></trkpt><trkpt lat="44.49843849023223" lon="8.033719453949333"><ele>593.0</ele><time>2026-04-05T14:55:42.999Z</time></trkpt><trkpt lat="44.49853943234514" lon="8.0336379594455"><ele>593.0</ele><time>2026-04-05T14:55:43.999Z</time></trkpt><trkpt lat="44.49866431014342" lon="8.033618999758247"><ele>593.0</ele><time>2026-04-05T14:55:44.999Z</time></trkpt><trkpt lat="44.49880082679809" lon="8.033564327240235"><ele>593.0</ele><time>2026-04-05T14:55:45.999Z</time></trkpt><trkpt lat="44.498946040508784" lon="8.033522539261279"><ele>593.0</ele><time>2026-04-05T14:55:46.999Z</time></trkpt><trkpt lat="44.499107754438185" lon="8.03350043660848"><ele>595.6666666666666</ele><time>2026-04-05T14:55:47.999Z</time></trkpt><trkpt lat="44.49928311590901" lon="8.033436614249185"><ele>598.3333333333334</ele><time>2026-04-05T14:55:48.999Z</time></trkpt><trkpt lat="44.49945354224629" lon="8.033396580174845"><ele>601.0</ele><time>2026-04-05T14:55:49.999Z</time></trkpt><trkpt lat="44.499606753917725" lon="8.033342284652203"><ele>602.0</ele><time>2026-04-05T14:55:50.999Z</time></trkpt><trkpt lat="44.49975875633277" lon="8.033332804497006"><ele>603.0</ele><time>2026-04-05T14:55:51.999Z</time></trkpt><trkpt lat="44.499909141441464" lon="8.033364302563525"><ele>604.0</ele><time>2026-04-05T14:55:52.999Z</time></trkpt><trkpt lat="44.5000452161425" lon="8.033466126993126"><ele>604.0</ele><time>2026-04-05T14:55:53.999Z</time></trkpt><trkpt lat="44.50015585824926" lon="8.033517993284974"><ele>604.0</ele><time>2026-04-05T14:55:54.999Z</time></trkpt><trkpt lat="44.500229223413854" lon="8.033567702468126"><ele>604.0</ele><time>2026-04-05T14:55:55.999Z</time></trkpt><trkpt lat="44.50029779521417" lon="8.033572870351296"><ele>604.0</ele><time>2026-04-05T14:55:56.999Z</time></trkpt><trkpt lat="44.50036054913576" lon="8.033517066743942"><ele>604.0</ele><time>2026-04-05T14:55:57.999Z</time></trkpt><trkpt lat="44.50038478503853" lon="8.03341929380206"><ele>604.0</ele><time>2026-04-05T14:55:58.999Z</time></trkpt><trkpt lat="44.500357971000994" lon="8.03330887765746"><ele>603.0</ele><time>2026-04-05T14:55:59.999Z</time></trkpt><trkpt lat="44.50036176014865" lon="8.03315526887461"><ele>602.0</ele><time>2026-04-05T14:56:00.999Z</time></trkpt><trkpt lat="44.50031450906787" lon="8.033021487339855"><ele>601.0</ele><time>2026-04-05T14:56:01.999Z</time></trkpt><trkpt lat="44.50012526747133" lon="8.032936249973444"><ele>600.0</ele><time>2026-04-05T14:56:02.999Z</time></trkpt><trkpt lat="44.5000283023653" lon="8.032754143376032"><ele>600.0</ele><time>2026-04-05T14:56:03.999Z</time></trkpt><trkpt lat="44.499919773983734" lon="8.032564307253795"><ele>600.0</ele><time>2026-04-05T14:56:04.999Z</time></trkpt><trkpt lat="44.499822842247184" lon="8.03239296285284"><ele>600.0</ele><time>2026-04-05T14:56:05.999Z</time></trkpt><trkpt lat="44.49973949419474" lon="8.032214553722302"><ele>600.6666666666666</ele><time>2026-04-05T14:56:06.999Z</time></trkpt><trkpt lat="44.49970104761506" lon="8.032010351539336"><ele>601.3333333333333</ele><time>2026-04-05T14:56:07.999Z</time></trkpt><trkpt lat="44.49964922302337" lon="8.031791961977701"><ele>602.0</ele><time>2026-04-05T14:56:08.999Z</time></trkpt><trkpt lat="44.49960869990397" lon="8.031569196619305"><ele>600.25</ele><time>2026-04-05T14:56:09.999Z</time></trkpt><trkpt lat="44.499588679070236" lon="8.031357931671817"><ele>598.5</ele><time>2026-04-05T14:56:10.999Z</time></trkpt><trkpt lat="44.49955938395331" lon="8.03117091488582"><ele>596.75</ele><time>2026-04-05T14:56:11.999Z</time></trkpt><trkpt lat="44.49954304367025" lon="8.030990621191801"><ele>595.0</ele><time>2026-04-05T14:56:12.999Z</time></trkpt><trkpt lat="44.49960712753592" lon="8.030820506974521"><ele>590.3333333333334</ele><time>2026-04-05T14:56:13.999Z</time></trkpt><trkpt lat="44.499661462722834" lon="8.030620086798331"><ele>585.6666666666666</ele><time>2026-04-05T14:56:14.999Z</time></trkpt><trkpt lat="44.49975326616488" lon="8.030411378911422"><ele>581.0</ele><time>2026-04-05T14:56:15.999Z</time></trkpt><trkpt lat="44.49984532152225" lon="8.030177979395802"><ele>575.6666666666666</ele><time>2026-04-05T14:56:16.999Z</time></trkpt><trkpt lat="44.49994678806739" lon="8.029934376005835"><ele>570.3333333333334</ele><time>2026-04-05T14:56:17.999Z</time></trkpt><trkpt lat="44.50005476526149" lon="8.02966639193732"><ele>565.0</ele><time>2026-04-05T14:56:18.999Z</time></trkpt><trkpt lat="44.50016284482802" lon="8.029397944392317"><ele>565.0</ele><time>2026-04-05T14:56:19.999Z</time></trkpt><trkpt lat="44.500267751885914" lon="8.029148543412346"><ele>565.0</ele><time>2026-04-05T14:56:20.999Z</time></trkpt><trkpt lat="44.50037654693554" lon="8.02888894249335"><ele>565.0</ele><time>2026-04-05T14:56:21.999Z</time></trkpt><trkpt lat="44.50049837397725" lon="8.028621004824144"><ele>565.0</ele><time>2026-04-05T14:56:22.999Z</time></trkpt><trkpt lat="44.5006299489799" lon="8.02835500998043"><ele>565.0</ele><time>2026-04-05T14:56:23.999Z</time></trkpt><trkpt lat="44.50075894275915" lon="8.028076627841392"><ele>565.0</ele><time>2026-04-05T14:56:24.999Z</time></trkpt><trkpt lat="44.500875167525614" lon="8.027781475723803"><ele>565.0</ele><time>2026-04-05T14:56:25.999Z</time></trkpt><trkpt lat="44.50097732547953" lon="8.027505644879854"><ele>567.0</ele><time>2026-04-05T14:56:26.999Z</time></trkpt><trkpt lat="44.501079195049876" lon="8.027247026660504"><ele>569.0</ele><time>2026-04-05T14:56:27.999Z</time></trkpt><trkpt lat="44.501178131762735" lon="8.027000820959262"><ele>571.0</ele><time>2026-04-05T14:56:28.999Z</time></trkpt><trkpt lat="44.50127026508395" lon="8.026757642019325"><ele>568.5</ele><time>2026-04-05T14:56:29.999Z</time></trkpt><trkpt lat="44.50135458167284" lon="8.026541395351124"><ele>566.0</ele><time>2026-04-05T14:56:30.999Z</time></trkpt><trkpt lat="44.501433731090394" lon="8.026372776911517"><ele>563.5</ele><time>2026-04-05T14:56:31.999Z</time></trkpt><trkpt lat="44.50151433854521" lon="8.026256975158105"><ele>561.0</ele><time>2026-04-05T14:56:32.999Z</time></trkpt><trkpt lat="44.50162492321602" lon="8.026206796587353"><ele>561.0</ele><time>2026-04-05T14:56:33.999Z</time></trkpt><trkpt lat="44.50172154206352" lon="8.026149313502424"><ele>561.0</ele><time>2026-04-05T14:56:34.999Z</time></trkpt><trkpt lat="44.50180031501919" lon="8.026091948465275"><ele>561.0</ele><time>2026-04-05T14:56:35.999Z</time></trkpt><trkpt lat="44.50185145533255" lon="8.025988249427732"><ele>561.0</ele><time>2026-04-05T14:56:36.999Z</time></trkpt><trkpt lat="44.50185173991812" lon="8.025863475171768"><ele>561.0</ele><time>2026-04-05T14:56:37.999Z</time></trkpt><trkpt lat="44.501820048121814" lon="8.02573052218946"><ele>558.75</ele><time>2026-04-05T14:56:38.999Z</time></trkpt><trkpt lat="44.50177902772847" lon="8.025596698666778"><ele>556.5</ele><time>2026-04-05T14:56:39.999Z</time></trkpt><trkpt lat="44.50174224025446" lon="8.02542854806631"><ele>554.25</ele><time>2026-04-05T14:56:40.999Z</time></trkpt><trkpt lat="44.50175101146674" lon="8.025223847026924"><ele>552.0</ele><time>2026-04-05T14:56:41.999Z</time></trkpt><trkpt lat="44.50180481005378" lon="8.024999264062961"><ele>548.0</ele><time>2026-04-05T14:56:42.999Z</time></trkpt><trkpt lat="44.501858086904804" lon="8.02473612798459"><ele>544.0</ele><time>2026-04-05T14:56:43.999Z</time></trkpt><trkpt lat="44.50193938178645" lon="8.024471618298488"><ele>540.0</ele><time>2026-04-05T14:56:44.999Z</time></trkpt><trkpt lat="44.502013187888394" lon="8.024222755519935"><ele>544.6666666666666</ele><time>2026-04-05T14:56:45.999Z</time></trkpt><trkpt lat="44.50212486567633" lon="8.023991056440334"><ele>549.3333333333333</ele><time>2026-04-05T14:56:46.999Z</time></trkpt><trkpt lat="44.50225824470702" lon="8.023753715090129"><ele>554.0</ele><time>2026-04-05T14:56:47.999Z</time></trkpt><trkpt lat="44.50236440030644" lon="8.023486583212687"><ele>547.6666666666666</ele><time>2026-04-05T14:56:48.999Z</time></trkpt><trkpt lat="44.502462588144056" lon="8.023249782046385"><ele>541.3333333333334</ele><time>2026-04-05T14:56:49.999Z</time></trkpt><trkpt lat="44.50253596119168" lon="8.023012287987319"><ele>535.0</ele><time>2026-04-05T14:56:50.999Z</time></trkpt><trkpt lat="44.50259926058502" lon="8.022798421077008"><ele>535.0</ele><time>2026-04-05T14:56:51.999Z</time></trkpt><trkpt lat="44.502661754481494" lon="8.022620766624044"><ele>535.0</ele><time>2026-04-05T14:56:52.999Z</time></trkpt><trkpt lat="44.50271333202781" lon="8.022475176895044"><ele>535.0</ele><time>2026-04-05T14:56:53.999Z</time></trkpt><trkpt lat="44.50278349651808" lon="8.022358498838258"><ele>535.0</ele><time>2026-04-05T14:56:54.999Z</time></trkpt><trkpt lat="44.50287655711112" lon="8.022302424380054"><ele>540.2</ele><time>2026-04-05T14:56:55.999Z</time></trkpt><trkpt lat="44.502990562926115" lon="8.022261283496846"><ele>545.4</ele><time>2026-04-05T14:56:56.999Z</time></trkpt><trkpt lat="44.50310108930793" lon="8.022215998592005"><ele>550.6</ele><time>2026-04-05T14:56:57.999Z</time></trkpt><trkpt lat="44.50317505337617" lon="8.02215498433646"><ele>555.8</ele><time>2026-04-05T14:56:58.999Z</time></trkpt><trkpt lat="44.50323298811505" lon="8.022092908961477"><ele>561.0</ele><time>2026-04-05T14:56:59.999Z</time></trkpt><trkpt lat="44.503260898797784" lon="8.022000255661665"><ele>561.0</ele><time>2026-04-05T14:57:00.999Z</time></trkpt><trkpt lat="44.50321664816615" lon="8.021884629532384"><ele>561.0</ele><time>2026-04-05T14:57:01.999Z</time></trkpt><trkpt lat="44.503134444041116" lon="8.021777944577346"><ele>561.0</ele><time>2026-04-05T14:57:02.999Z</time></trkpt><trkpt lat="44.50304323216193" lon="8.021678063470542"><ele>561.0</ele><time>2026-04-05T14:57:03.999Z</time></trkpt><trkpt lat="44.50292879592973" lon="8.021557175048214"><ele>549.25</ele><time>2026-04-05T14:57:04.999Z</time></trkpt><trkpt lat="44.502823838370574" lon="8.021421016205936"><ele>537.5</ele><time>2026-04-05T14:57:05.999Z</time></trkpt><trkpt lat="44.502726975322766" lon="8.021330590600977"><ele>525.75</ele><time>2026-04-05T14:57:06.999Z</time></trkpt><trkpt lat="44.50266781474043" lon="8.021210792191772"><ele>514.0</ele><time>2026-04-05T14:57:08Z</time></trkpt><trkpt lat="44.50267237919851" lon="8.021070855315765"><ele>514.0</ele><time>2026-04-05T14:57:09Z</time></trkpt><trkpt lat="44.50272116813848" lon="8.020928284484297"><ele>514.0</ele><time>2026-04-05T14:57:10Z</time></trkpt><trkpt lat="44.5027832533314" lon="8.02069770159213"><ele>514.0</ele><time>2026-04-05T14:57:11Z</time></trkpt><trkpt lat="44.50285233862927" lon="8.020439658635425"><ele>516.6666666666667</ele><time>2026-04-05T14:57:12Z</time></trkpt><trkpt lat="44.502912704263636" lon="8.020160014861249"><ele>519.3333333333334</ele><time>2026-04-05T14:57:13Z</time></trkpt><trkpt lat="44.50300014699266" lon="8.01988388334951"><ele>522.0</ele><time>2026-04-05T14:57:14Z</time></trkpt><trkpt lat="44.5030631963955" lon="8.019655399079655"><ele>522.0</ele><time>2026-04-05T14:57:15Z</time></trkpt><trkpt lat="44.503107570863335" lon="8.019437405061774"><ele>522.0</ele><time>2026-04-05T14:57:16Z</time></trkpt><trkpt lat="44.5031112643515" lon="8.019218930085232"><ele>522.0</ele><time>2026-04-05T14:57:17Z</time></trkpt><trkpt lat="44.50308402693486" lon="8.019011927287915"><ele>520.25</ele><time>2026-04-05T14:57:18Z</time></trkpt><trkpt lat="44.50305655828537" lon="8.018812314292106"><ele>518.5</ele><time>2026-04-05T14:57:19Z</time></trkpt><trkpt lat="44.503026997354716" lon="8.018599517985098"><ele>516.75</ele><time>2026-04-05T14:57:20Z</time></trkpt><trkpt lat="44.503012681724194" lon="8.018401889882"><ele>515.0</ele><time>2026-04-05T14:57:21Z</time></trkpt><trkpt lat="44.50299608727952" lon="8.018211545936994"><ele>512.75</ele><time>2026-04-05T14:57:22Z</time></trkpt><trkpt lat="44.502978997277914" lon="8.018027290676553"><ele>510.5</ele><time>2026-04-05T14:57:23Z</time></trkpt><trkpt lat="44.502961994978186" lon="8.017845242840652"><ele>508.25</ele><time>2026-04-05T14:57:24Z</time></trkpt><trkpt lat="44.502967642432885" lon="8.017677321246463"><ele>506.0</ele><time>2026-04-05T14:57:25Z</time></trkpt><trkpt lat="44.50304650264051" lon="8.017547235107827"><ele>502.3333333333333</ele><time>2026-04-05T14:57:26Z</time></trkpt><trkpt lat="44.503158616394735" lon="8.01739686652041"><ele>498.66666666666663</ele><time>2026-04-05T14:57:27Z</time></trkpt><trkpt lat="44.50328868223435" lon="8.017211803460409"><ele>495.0</ele><time>2026-04-05T14:57:28Z</time></trkpt><trkpt lat="44.50341973657977" lon="8.017036341062807"><ele>495.0</ele><time>2026-04-05T14:57:29Z</time></trkpt><trkpt lat="44.50352585972933" lon="8.016889801683762"><ele>495.0</ele><time>2026-04-05T14:57:30Z</time></trkpt><trkpt lat="44.50361076323679" lon="8.016753332806326"><ele>495.0</ele><time>2026-04-05T14:57:31Z</time></trkpt><trkpt lat="44.50367784050496" lon="8.016603403560383"><ele>495.0</ele><time>2026-04-05T14:57:32Z</time></trkpt><trkpt lat="44.50372210648935" lon="8.016441536054005"><ele>494.4</ele><time>2026-04-05T14:57:33Z</time></trkpt><trkpt lat="44.503747043839496" lon="8.016275822217288"><ele>493.8</ele><time>2026-04-05T14:57:34Z</time></trkpt><trkpt lat="44.50377035152733" lon="8.016121299578012"><ele>493.20000000000005</ele><time>2026-04-05T14:57:35Z</time></trkpt><trkpt lat="44.503797742470425" lon="8.015974731792124"><ele>492.6</ele><time>2026-04-05T14:57:36Z</time></trkpt><trkpt lat="44.50382353084237" lon="8.015843846451212"><ele>492.0</ele><time>2026-04-05T14:57:36.999Z</time></trkpt><trkpt lat="44.50385145236123" lon="8.015749963317303"><ele>492.0</ele><time>2026-04-05T14:57:37.999Z</time></trkpt><trkpt lat="44.50396941064724" lon="8.015696596216742"><ele>492.0</ele><time>2026-04-05T14:57:39.999Z</time></trkpt><trkpt lat="44.50403189820994" lon="8.015796257285876"><ele>492.0</ele><time>2026-04-05T14:57:40.999Z</time></trkpt><trkpt lat="44.50412711101068" lon="8.015874979904474"><ele>492.0</ele><time>2026-04-05T14:57:41.999Z</time></trkpt><trkpt lat="44.50422554558063" lon="8.015984611581468"><ele>492.0</ele><time>2026-04-05T14:57:42.999Z</time></trkpt><trkpt lat="44.5043220708968" lon="8.016063906198502"><ele>492.00000000000006</ele><time>2026-04-05T14:57:43.999Z</time></trkpt><trkpt lat="44.504409491680974" lon="8.016094379677982"><ele>492.00000000000006</ele><time>2026-04-05T14:57:44.999Z</time></trkpt><trkpt lat="44.50449332808868" lon="8.016094061015082"><ele>492.0</ele><time>2026-04-05T14:57:45.999Z</time></trkpt><trkpt lat="44.504560959654995" lon="8.01598106991053"><ele>492.0</ele><time>2026-04-05T14:57:46.999Z</time></trkpt><trkpt lat="44.504597312704185" lon="8.015860476847765"><ele>489.75</ele><time>2026-04-05T14:57:47.999Z</time></trkpt><trkpt lat="44.50458441313274" lon="8.015684906449865"><ele>487.5</ele><time>2026-04-05T14:57:48.999Z</time></trkpt><trkpt lat="44.50455224591268" lon="8.015518241553101"><ele>485.25</ele><time>2026-04-05T14:57:49.999Z</time></trkpt><trkpt lat="44.504548478374794" lon="8.015344880629891"><ele>483.0</ele><time>2026-04-05T14:57:50.999Z</time></trkpt><trkpt lat="44.50460662926777" lon="8.015193864262741"><ele>483.0</ele><time>2026-04-05T14:57:51.999Z</time></trkpt><trkpt lat="44.50467192031618" lon="8.015061381664284"><ele>483.0</ele><time>2026-04-05T14:57:52.999Z</time></trkpt><trkpt lat="44.504763151014004" lon="8.014927776816645"><ele>483.0</ele><time>2026-04-05T14:57:53.999Z</time></trkpt><trkpt lat="44.50488250490842" lon="8.014765709626264"><ele>483.0</ele><time>2026-04-05T14:57:54.999Z</time></trkpt><trkpt lat="44.505045696926814" lon="8.014622119970484"><ele>477.66666666666663</ele><time>2026-04-05T14:57:55.999Z</time></trkpt><trkpt lat="44.505197800101676" lon="8.014452970344738"><ele>472.3333333333333</ele><time>2026-04-05T14:57:56.999Z</time></trkpt><trkpt lat="44.505356520449645" lon="8.014284629966937"><ele>467.0</ele><time>2026-04-05T14:57:57.999Z</time></trkpt><trkpt lat="44.505498356809206" lon="8.0141068902837"><ele>465.3333333333333</ele><time>2026-04-05T14:57:58.999Z</time></trkpt><trkpt lat="44.505616813507366" lon="8.013923139965174"><ele>463.66666666666663</ele><time>2026-04-05T14:57:59.999Z</time></trkpt><trkpt lat="44.505716074083466" lon="8.013752159993716"><ele>462.0</ele><time>2026-04-05T14:58:00.999Z</time></trkpt><trkpt lat="44.505820694739064" lon="8.0136052120607"><ele>462.0</ele><time>2026-04-05T14:58:01.999Z</time></trkpt><trkpt lat="44.50594444331382" lon="8.013492915881988"><ele>462.0</ele><time>2026-04-05T14:58:02.999Z</time></trkpt><trkpt lat="44.50609196840358" lon="8.013419111422271"><ele>462.0</ele><time>2026-04-05T14:58:03.999Z</time></trkpt><trkpt lat="44.50625853155685" lon="8.01335747848704"><ele>456.0</ele><time>2026-04-05T14:58:04.999Z</time></trkpt><trkpt lat="44.50643449431045" lon="8.013304081606742"><ele>450.0</ele><time>2026-04-05T14:58:05.999Z</time></trkpt><trkpt lat="44.50660694997809" lon="8.013227506210693"><ele>444.0</ele><time>2026-04-05T14:58:06.999Z</time></trkpt><trkpt lat="44.506769646921285" lon="8.01311139145115"><ele>444.0</ele><time>2026-04-05T14:58:07.999Z</time></trkpt><trkpt lat="44.50693375159094" lon="8.01298695204211"><ele>444.0</ele><time>2026-04-05T14:58:08.999Z</time></trkpt><trkpt lat="44.50708972935905" lon="8.01285156524473"><ele>444.0</ele><time>2026-04-05T14:58:09.999Z</time></trkpt><trkpt lat="44.50724313141241" lon="8.012736512787606"><ele>450.0</ele><time>2026-04-05T14:58:10.999Z</time></trkpt><trkpt lat="44.50739582732647" lon="8.012677348147603"><ele>456.0</ele><time>2026-04-05T14:58:11.999Z</time></trkpt><trkpt lat="44.507536327863676" lon="8.01259621068772"><ele>462.0</ele><time>2026-04-05T14:58:12.999Z</time></trkpt><trkpt lat="44.50768145062645" lon="8.012549690002322"><ele>457.33333333333337</ele><time>2026-04-05T14:58:13.999Z</time></trkpt><trkpt lat="44.50781406675175" lon="8.012457756104075"><ele>452.6666666666667</ele><time>2026-04-05T14:58:14.999Z</time></trkpt><trkpt lat="44.507937822473615" lon="8.012312093992112"><ele>448.0</ele><time>2026-04-05T14:58:15.999Z</time></trkpt><trkpt lat="44.50803501872132" lon="8.01212933290311"><ele>448.0</ele><time>2026-04-05T14:58:16.999Z</time></trkpt><trkpt lat="44.50811681263747" lon="8.011973599770148"><ele>448.0</ele><time>2026-04-05T14:58:17.999Z</time></trkpt><trkpt lat="44.50822650887518" lon="8.01189420978919"><ele>448.0</ele><time>2026-04-05T14:58:18.999Z</time></trkpt><trkpt lat="44.50836077489323" lon="8.011812693729606"><ele>448.0</ele><time>2026-04-05T14:58:19.999Z</time></trkpt><trkpt lat="44.50851502420054" lon="8.011698464843096"><ele>445.6666666666667</ele><time>2026-04-05T14:58:20.999Z</time></trkpt><trkpt lat="44.50869155269047" lon="8.011573065255364"><ele>443.33333333333337</ele><time>2026-04-05T14:58:21.999Z</time></trkpt><trkpt lat="44.508875741726506" lon="8.011413602879593"><ele>441.0</ele><time>2026-04-05T14:58:22.999Z</time></trkpt><trkpt lat="44.50905324749795" lon="8.011215260191877"><ele>441.0</ele><time>2026-04-05T14:58:23.999Z</time></trkpt><trkpt lat="44.50922047188639" lon="8.010974460262801"><ele>441.0</ele><time>2026-04-05T14:58:24.999Z</time></trkpt><trkpt lat="44.50937823593993" lon="8.010724172109775"><ele>444.33333333333337</ele><time>2026-04-05T14:58:25.999Z</time></trkpt><trkpt lat="44.50951609456695" lon="8.010490211370506"><ele>447.6666666666667</ele><time>2026-04-05T14:58:26.999Z</time></trkpt><trkpt lat="44.50965579732615" lon="8.010237058313836"><ele>451.0</ele><time>2026-04-05T14:58:27.999Z</time></trkpt><trkpt lat="44.509784796537026" lon="8.009984502929804"><ele>441.0</ele><time>2026-04-05T14:58:28.999Z</time></trkpt><trkpt lat="44.50989145917578" lon="8.009771491369854"><ele>431.0</ele><time>2026-04-05T14:58:29.999Z</time></trkpt><trkpt lat="44.509989975008466" lon="8.00959472982797"><ele>421.0</ele><time>2026-04-05T14:58:30.999Z</time></trkpt><trkpt lat="44.51011525092117" lon="8.00946655367292"><ele>421.0</ele><time>2026-04-05T14:58:31.999Z</time></trkpt><trkpt lat="44.51026034461383" lon="8.009351815035878"><ele>421.0</ele><time>2026-04-05T14:58:32.999Z</time></trkpt><trkpt lat="44.510438407585795" lon="8.009213230128436"><ele>421.0</ele><time>2026-04-05T14:58:33.999Z</time></trkpt><trkpt lat="44.5106240431565" lon="8.009038563174725"><ele>420.6666666666667</ele><time>2026-04-05T14:58:34.999Z</time></trkpt><trkpt lat="44.51080186565322" lon="8.008872597651054"><ele>420.33333333333337</ele><time>2026-04-05T14:58:35.999Z</time></trkpt><trkpt lat="44.51095691382317" lon="8.00870992917202"><ele>420.0</ele><time>2026-04-05T14:58:36.999Z</time></trkpt><trkpt lat="44.511095774953475" lon="8.008520191941765"><ele>417.0</ele><time>2026-04-05T14:58:37.999Z</time></trkpt><trkpt lat="44.51120746303316" lon="8.00825466567741"><ele>414.0</ele><time>2026-04-05T14:58:38.999Z</time></trkpt><trkpt lat="44.51128124186818" lon="8.00791084842657"><ele>422.5</ele><time>2026-04-05T14:58:39.999Z</time></trkpt><trkpt lat="44.51137502995692" lon="8.007490031584673"><ele>431.0</ele><time>2026-04-05T14:58:40.999Z</time></trkpt><trkpt lat="44.51147336099073" lon="8.007052453709317"><ele>431.0</ele><time>2026-04-05T14:58:41.999Z</time></trkpt><trkpt lat="44.5115644539754" lon="8.006667588395263"><ele>431.0</ele><time>2026-04-05T14:58:42.999Z</time></trkpt><trkpt lat="44.5116484845571" lon="8.006354388281858"><ele>427.3333333333333</ele><time>2026-04-05T14:58:43.999Z</time></trkpt><trkpt lat="44.51176352833119" lon="8.006089014271792"><ele>423.66666666666663</ele><time>2026-04-05T14:58:44.999Z</time></trkpt><trkpt lat="44.51184330749865" lon="8.005793041748444"><ele>420.0</ele><time>2026-04-05T14:58:45.999Z</time></trkpt><trkpt lat="44.511918848862756" lon="8.005504356548274"><ele>419.5</ele><time>2026-04-05T14:58:46.999Z</time></trkpt><trkpt lat="44.51193766214106" lon="8.00520230828387"><ele>419.0</ele><time>2026-04-05T14:58:47.999Z</time></trkpt><trkpt lat="44.5120047931903" lon="8.004884243960205"><ele>426.0</ele><time>2026-04-05T14:58:48.999Z</time></trkpt><trkpt lat="44.51208650157971" lon="8.0045729012381"><ele>433.0</ele><time>2026-04-05T14:58:49.999Z</time></trkpt><trkpt lat="44.51217283496681" lon="8.004292148042467"><ele>428.0</ele><time>2026-04-05T14:58:50.999Z</time></trkpt><trkpt lat="44.51223940136169" lon="8.004018617566329"><ele>423.0</ele><time>2026-04-05T14:58:51.999Z</time></trkpt><trkpt lat="44.51227143678275" lon="8.003746704734692"><ele>418.0</ele><time>2026-04-05T14:58:52.999Z</time></trkpt><trkpt lat="44.5122718680193" lon="8.00351637090234"><ele>415.0</ele><time>2026-04-05T14:58:53.999Z</time></trkpt><trkpt lat="44.51228541606412" lon="8.003323527780582"><ele>412.0</ele><time>2026-04-05T14:58:54.999Z</time></trkpt><trkpt lat="44.51232932979296" lon="8.003147214613454"><ele>409.0</ele><time>2026-04-05T14:58:55.999Z</time></trkpt><trkpt lat="44.51244340349813" lon="8.003030006714056"><ele>406.0</ele><time>2026-04-05T14:58:56.999Z</time></trkpt><trkpt lat="44.51256357900326" lon="8.002915313517164"><ele>406.0</ele><time>2026-04-05T14:58:57.999Z</time></trkpt><trkpt lat="44.51266572513425" lon="8.002775945583648"><ele>406.0</ele><time>2026-04-05T14:58:58.999Z</time></trkpt><trkpt lat="44.51275627206294" lon="8.00260953410587"><ele>406.0</ele><time>2026-04-05T14:58:59.999Z</time></trkpt><trkpt lat="44.512819305787154" lon="8.002379323467723"><ele>405.6666666666667</ele><time>2026-04-05T14:59:00.999Z</time></trkpt><trkpt lat="44.512891458412426" lon="8.002145091819896"><ele>405.33333333333337</ele><time>2026-04-05T14:59:01.999Z</time></trkpt><trkpt lat="44.51295702757566" lon="8.00192798883197"><ele>405.0</ele><time>2026-04-05T14:59:02.999Z</time></trkpt><trkpt lat="44.51297992047549" lon="8.001697208514585"><ele>412.66666666666663</ele><time>2026-04-05T14:59:03.999Z</time></trkpt><trkpt lat="44.512960019957816" lon="8.001444940867867"><ele>420.3333333333333</ele><time>2026-04-05T14:59:04.999Z</time></trkpt><trkpt lat="44.512968065677526" lon="8.001181642304582"><ele>428.0</ele><time>2026-04-05T14:59:05.999Z</time></trkpt><trkpt lat="44.513049840643696" lon="8.000918120039277"><ele>425.66666666666663</ele><time>2026-04-05T14:59:06.999Z</time></trkpt><trkpt lat="44.5131348790242" lon="8.000630683245898"><ele>423.33333333333337</ele><time>2026-04-05T14:59:07.999Z</time></trkpt><trkpt lat="44.51320269759986" lon="8.000333372966645"><ele>421.0</ele><time>2026-04-05T14:59:08.999Z</time></trkpt><trkpt lat="44.513261308009284" lon="8.000094222260596"><ele>421.0</ele><time>2026-04-05T14:59:09.999Z</time></trkpt><trkpt lat="44.513283034840526" lon="7.999922369014183"><ele>421.0</ele><time>2026-04-05T14:59:10.999Z</time></trkpt><trkpt lat="44.51330404449783" lon="7.999714896868074"><ele>421.0</ele><time>2026-04-05T14:59:11.999Z</time></trkpt><trkpt lat="44.51327312241595" lon="7.999505720093522"><ele>421.0</ele><time>2026-04-05T14:59:12.999Z</time></trkpt><trkpt lat="44.513210523408944" lon="7.999297524469743"><ele>419.5</ele><time>2026-04-05T14:59:13.999Z</time></trkpt><trkpt lat="44.51314368026695" lon="7.999112220322607"><ele>418.0</ele><time>2026-04-05T14:59:14.999Z</time></trkpt><trkpt lat="44.51310187750509" lon="7.9989525275250095"><ele>416.5</ele><time>2026-04-05T14:59:15.999Z</time></trkpt><trkpt lat="44.51311051402418" lon="7.998771809209711"><ele>415.0</ele><time>2026-04-05T14:59:16.999Z</time></trkpt><trkpt lat="44.513128647286706" lon="7.998524651381915"><ele>412.33333333333337</ele><time>2026-04-05T14:59:17.999Z</time></trkpt><trkpt lat="44.51313456371292" lon="7.998230770653719"><ele>409.66666666666663</ele><time>2026-04-05T14:59:18.999Z</time></trkpt><trkpt lat="44.51315127779079" lon="7.997916966671236"><ele>407.0</ele><time>2026-04-05T14:59:19.999Z</time></trkpt><trkpt lat="44.51318402966701" lon="7.997594141935274"><ele>407.0</ele><time>2026-04-05T14:59:20.999Z</time></trkpt><trkpt lat="44.51318227594264" lon="7.997283974588335"><ele>407.0</ele><time>2026-04-05T14:59:21.999Z</time></trkpt><trkpt lat="44.513198734833196" lon="7.997006361771147"><ele>407.0</ele><time>2026-04-05T14:59:22.999Z</time></trkpt><trkpt lat="44.51319705808457" lon="7.996750620405897"><ele>407.3333333333333</ele><time>2026-04-05T14:59:23.999Z</time></trkpt><trkpt lat="44.513151938337515" lon="7.996480820501977"><ele>407.66666666666663</ele><time>2026-04-05T14:59:24.999Z</time></trkpt><trkpt lat="44.5131059491236" lon="7.99622680578562"><ele>408.0</ele><time>2026-04-05T14:59:25.999Z</time></trkpt><trkpt lat="44.51304867080354" lon="7.99599434273023"><ele>409.0</ele><time>2026-04-05T14:59:26.999Z</time></trkpt><trkpt lat="44.51298605088316" lon="7.995772096008855"><ele>410.0</ele><time>2026-04-05T14:59:27.999Z</time></trkpt><trkpt lat="44.512926621165235" lon="7.995549245505978"><ele>411.0</ele><time>2026-04-05T14:59:28.999Z</time></trkpt><trkpt lat="44.512871758304534" lon="7.995323560583757"><ele>403.33333333333337</ele><time>2026-04-05T14:59:29.999Z</time></trkpt><trkpt lat="44.51283193744063" lon="7.9951103752857975"><ele>395.6666666666667</ele><time>2026-04-05T14:59:30.999Z</time></trkpt><trkpt lat="44.51282011658845" lon="7.994908620202235"><ele>388.0</ele><time>2026-04-05T14:59:31.999Z</time></trkpt><trkpt lat="44.51283672202779" lon="7.994694915557027"><ele>388.0</ele><time>2026-04-05T14:59:32.999Z</time></trkpt><trkpt lat="44.512885059132685" lon="7.994462265498812"><ele>388.0</ele><time>2026-04-05T14:59:33.999Z</time></trkpt><trkpt lat="44.51292826073161" lon="7.994220150882626"><ele>388.0</ele><time>2026-04-05T14:59:34.999Z</time></trkpt><trkpt lat="44.51297063667313" lon="7.9939540804364295"><ele>392.33333333333337</ele><time>2026-04-05T14:59:35.999Z</time></trkpt><trkpt lat="44.513013958891214" lon="7.993695906156616"><ele>396.66666666666663</ele><time>2026-04-05T14:59:36.999Z</time></trkpt><trkpt lat="44.513071551097944" lon="7.993463573513585"><ele>401.0</ele><time>2026-04-05T14:59:37.999Z</time></trkpt><trkpt lat="44.51315059058294" lon="7.993247040344391"><ele>401.0</ele><time>2026-04-05T14:59:38.999Z</time></trkpt><trkpt lat="44.51326219365536" lon="7.99303080431457"><ele>401.0</ele><time>2026-04-05T14:59:39.999Z</time></trkpt><trkpt lat="44.51336880451579" lon="7.99283039706142"><ele>401.0</ele><time>2026-04-05T14:59:40.999Z</time></trkpt><trkpt lat="44.5134414262661" lon="7.992601542619752"><ele>398.66666666666663</ele><time>2026-04-05T14:59:41.999Z</time></trkpt><trkpt lat="44.51346644677983" lon="7.992334154473488"><ele>396.33333333333337</ele><time>2026-04-05T14:59:42.999Z</time></trkpt><trkpt lat="44.513443720709745" lon="7.9920939917976765"><ele>394.0</ele><time>2026-04-05T14:59:43.999Z</time></trkpt><trkpt lat="44.51341199759044" lon="7.991887755945085"><ele>394.0</ele><time>2026-04-05T14:59:44.999Z</time></trkpt><trkpt lat="44.51341051209029" lon="7.991680454503898"><ele>394.0</ele><time>2026-04-05T14:59:45.999Z</time></trkpt><trkpt lat="44.513445896814694" lon="7.991473365067501"><ele>394.0</ele><time>2026-04-05T14:59:46.999Z</time></trkpt><trkpt lat="44.51352378823876" lon="7.991278054948698"><ele>392.0</ele><time>2026-04-05T14:59:47.999Z</time></trkpt><trkpt lat="44.51362862527073" lon="7.991118814852226"><ele>390.0</ele><time>2026-04-05T14:59:48.999Z</time></trkpt><trkpt lat="44.51374108482855" lon="7.990979833943564"><ele>388.0</ele><time>2026-04-05T14:59:49.999Z</time></trkpt><trkpt lat="44.513860029653074" lon="7.990851336489345"><ele>392.6666666666667</ele><time>2026-04-05T14:59:50.999Z</time></trkpt><trkpt lat="44.5139913186122" lon="7.990737787628148"><ele>397.33333333333337</ele><time>2026-04-05T14:59:51.999Z</time></trkpt><trkpt lat="44.514140663815866" lon="7.990659564612775"><ele>402.0</ele><time>2026-04-05T14:59:52.999Z</time></trkpt><trkpt lat="44.51429164880508" lon="7.990630042471769"><ele>402.0</ele><time>2026-04-05T14:59:53.999Z</time></trkpt><trkpt lat="44.51443104882606" lon="7.99056852488463"><ele>402.0</ele><time>2026-04-05T14:59:54.999Z</time></trkpt><trkpt lat="44.51455277919443" lon="7.990439455747438"><ele>402.0</ele><time>2026-04-05T14:59:55.999Z</time></trkpt><trkpt lat="44.51465910116861" lon="7.990249600409136"><ele>402.0</ele><time>2026-04-05T14:59:56.999Z</time></trkpt><trkpt lat="44.51476703233177" lon="7.990047608195501"><ele>402.0</ele><time>2026-04-05T14:59:57.999Z</time></trkpt><trkpt lat="44.51487878184926" lon="7.9898436750192054"><ele>402.0</ele><time>2026-04-05T14:59:58.999Z</time></trkpt><trkpt lat="44.51499341804566" lon="7.989627599061212"><ele>402.0</ele><time>2026-04-05T14:59:59.999Z</time></trkpt><trkpt lat="44.51511939733517" lon="7.989391425837506"><ele>402.0</ele><time>2026-04-05T15:00:00.999Z</time></trkpt><trkpt lat="44.51525440973858" lon="7.98914261684032"><ele>402.0</ele><time>2026-04-05T15:00:01.999Z</time></trkpt><trkpt lat="44.515382212382825" lon="7.9888936083718445"><ele>399.66666666666663</ele><time>2026-04-05T15:00:02.999Z</time></trkpt><trkpt lat="44.51549723386091" lon="7.988658860982197"><ele>397.3333333333333</ele><time>2026-04-05T15:00:03.999Z</time></trkpt><trkpt lat="44.51560761412509" lon="7.988442916840788"><ele>395.0</ele><time>2026-04-05T15:00:04.999Z</time></trkpt><trkpt lat="44.51574236105596" lon="7.988244130290353"><ele>395.0</ele><time>2026-04-05T15:00:05.999Z</time></trkpt><trkpt lat="44.51592376658206" lon="7.98806220210681"><ele>395.0</ele><time>2026-04-05T15:00:06.999Z</time></trkpt><trkpt lat="44.516116725793005" lon="7.987877342238208"><ele>395.66666666666663</ele><time>2026-04-05T15:00:07.999Z</time></trkpt><trkpt lat="44.51629649568618" lon="7.987689329284376"><ele>396.33333333333337</ele><time>2026-04-05T15:00:08.999Z</time></trkpt><trkpt lat="44.51646281487842" lon="7.987515600991228"><ele>397.0</ele><time>2026-04-05T15:00:09.999Z</time></trkpt><trkpt lat="44.516618866561096" lon="7.987352052640697"><ele>397.0</ele><time>2026-04-05T15:00:10.999Z</time></trkpt><trkpt lat="44.51676617422224" lon="7.987197168933408"><ele>397.0</ele><time>2026-04-05T15:00:11.999Z</time></trkpt><trkpt lat="44.51690617130759" lon="7.987056119384332"><ele>397.0</ele><time>2026-04-05T15:00:12.999Z</time></trkpt><trkpt lat="44.517043014316066" lon="7.98692654320604"><ele>397.6666666666667</ele><time>2026-04-05T15:00:13.999Z</time></trkpt><trkpt lat="44.517172269998525" lon="7.986806048514821"><ele>398.33333333333337</ele><time>2026-04-05T15:00:14.999Z</time></trkpt><trkpt lat="44.5173031636956" lon="7.986703273225345"><ele>399.0</ele><time>2026-04-05T15:00:15.999Z</time></trkpt><trkpt lat="44.51743559831638" lon="7.986609882909174"><ele>399.0</ele><time>2026-04-05T15:00:16.999Z</time></trkpt><trkpt lat="44.51755869366579" lon="7.986525048681481"><ele>399.0</ele><time>2026-04-05T15:00:17.999Z</time></trkpt><trkpt lat="44.517666389480716" lon="7.9864265964865035"><ele>399.0</ele><time>2026-04-05T15:00:18.999Z</time></trkpt><trkpt lat="44.517752993875526" lon="7.9862724000374365"><ele>399.0</ele><time>2026-04-05T15:00:19.999Z</time></trkpt><trkpt lat="44.51778469031659" lon="7.986083125838209"><ele>399.0</ele><time>2026-04-05T15:00:20.999Z</time></trkpt><trkpt lat="44.51781506901824" lon="7.985878749940598"><ele>399.0</ele><time>2026-04-05T15:00:21.999Z</time></trkpt><trkpt lat="44.51791262957015" lon="7.985699825614096"><ele>399.0</ele><time>2026-04-05T15:00:22.999Z</time></trkpt><trkpt lat="44.518042816382156" lon="7.9855200292722515"><ele>401.66666666666663</ele><time>2026-04-05T15:00:23.999Z</time></trkpt><trkpt lat="44.518197123132715" lon="7.98537514411785"><ele>404.3333333333333</ele><time>2026-04-05T15:00:24.999Z</time></trkpt><trkpt lat="44.518357137093254" lon="7.9852766694025545"><ele>407.0</ele><time>2026-04-05T15:00:25.999Z</time></trkpt><trkpt lat="44.51850641828386" lon="7.985188222648206"><ele>407.0</ele><time>2026-04-05T15:00:26.999Z</time></trkpt><trkpt lat="44.518636476846936" lon="7.98508013927533"><ele>407.0</ele><time>2026-04-05T15:00:27.999Z</time></trkpt><trkpt lat="44.51874042794134" lon="7.984939060230525"><ele>407.0</ele><time>2026-04-05T15:00:28.999Z</time></trkpt><trkpt lat="44.518852771849005" lon="7.9847510011297835"><ele>408.0</ele><time>2026-04-05T15:00:29.999Z</time></trkpt><trkpt lat="44.518981024129424" lon="7.984524050981741"><ele>409.0</ele><time>2026-04-05T15:00:30.999Z</time></trkpt><trkpt lat="44.51910842871216" lon="7.984298973893487"><ele>410.0</ele><time>2026-04-05T15:00:31.999Z</time></trkpt><trkpt lat="44.519236441993314" lon="7.984042039707519"><ele>395.5</ele><time>2026-04-05T15:00:32.999Z</time></trkpt><trkpt lat="44.519366040846016" lon="7.983751940240629"><ele>381.0</ele><time>2026-04-05T15:00:33.999Z</time></trkpt><trkpt lat="44.51950720674917" lon="7.98343502260482"><ele>384.0</ele><time>2026-04-05T15:00:34.999Z</time></trkpt><trkpt lat="44.51964578359864" lon="7.983108631522175"><ele>387.0</ele><time>2026-04-05T15:00:35.999Z</time></trkpt><trkpt lat="44.51976733292611" lon="7.982806768674979"><ele>387.0</ele><time>2026-04-05T15:00:36.999Z</time></trkpt><trkpt lat="44.519882095227956" lon="7.98252174280195"><ele>387.0</ele><time>2026-04-05T15:00:37.999Z</time></trkpt><trkpt lat="44.5201048240451" lon="7.982390596765758"><ele>382.6666666666667</ele><time>2026-04-05T15:00:38.999Z</time></trkpt><trkpt lat="44.520239218910746" lon="7.982165524421032"><ele>378.33333333333337</ele><time>2026-04-05T15:00:39.999Z</time></trkpt><trkpt lat="44.52033938864553" lon="7.981918507162432"><ele>374.0</ele><time>2026-04-05T15:00:40.999Z</time></trkpt><trkpt lat="44.520425232121895" lon="7.981661880695411"><ele>374.0</ele><time>2026-04-05T15:00:41.999Z</time></trkpt><trkpt lat="44.52052084958025" lon="7.981411555893133"><ele>374.0</ele><time>2026-04-05T15:00:42.999Z</time></trkpt><trkpt lat="44.52062313032366" lon="7.981189109152647"><ele>374.0</ele><time>2026-04-05T15:00:43.999Z</time></trkpt><trkpt lat="44.52072627668844" lon="7.98100620320215"><ele>374.0</ele><time>2026-04-05T15:00:44.999Z</time></trkpt><trkpt lat="44.520841030812264" lon="7.980878036479526"><ele>374.0</ele><time>2026-04-05T15:00:45.999Z</time></trkpt><trkpt lat="44.520979002962285" lon="7.9807949229725805"><ele>374.0</ele><time>2026-04-05T15:00:46.999Z</time></trkpt><trkpt lat="44.52113966332581" lon="7.980738711982709"><ele>369.0</ele><time>2026-04-05T15:00:47.999Z</time></trkpt><trkpt lat="44.52130508677046" lon="7.980674125438261"><ele>364.0</ele><time>2026-04-05T15:00:48.999Z</time></trkpt><trkpt lat="44.52146247301151" lon="7.980643329838561"><ele>359.0</ele><time>2026-04-05T15:00:49.999Z</time></trkpt><trkpt lat="44.52161448689111" lon="7.980658639495412"><ele>359.0</ele><time>2026-04-05T15:00:50.999Z</time></trkpt><trkpt lat="44.52176566019057" lon="7.980728251683401"><ele>359.0</ele><time>2026-04-05T15:00:51.999Z</time></trkpt><trkpt lat="44.521902754076635" lon="7.980824121964003"><ele>359.0</ele><time>2026-04-05T15:00:52.999Z</time></trkpt><trkpt lat="44.522038805818205" lon="7.9809228338832385"><ele>367.0</ele><time>2026-04-05T15:00:53.999Z</time></trkpt><trkpt lat="44.52219321516649" lon="7.9810128436550185"><ele>375.0</ele><time>2026-04-05T15:00:54.999Z</time></trkpt><trkpt lat="44.522355385520626" lon="7.981055198158082"><ele>383.0</ele><time>2026-04-05T15:00:55.999Z</time></trkpt><trkpt lat="44.52252263420952" lon="7.981024572234928"><ele>383.0</ele><time>2026-04-05T15:00:56.999Z</time></trkpt><trkpt lat="44.52267331682507" lon="7.980934450860017"><ele>383.0</ele><time>2026-04-05T15:00:57.999Z</time></trkpt><trkpt lat="44.52281117620019" lon="7.980783738380452"><ele>383.0</ele><time>2026-04-05T15:00:58.999Z</time></trkpt><trkpt lat="44.52293357419188" lon="7.9805974749570785"><ele>381.75</ele><time>2026-04-05T15:00:59.999Z</time></trkpt><trkpt lat="44.52303132117576" lon="7.980418642495067"><ele>380.5</ele><time>2026-04-05T15:01:00.999Z</time></trkpt><trkpt lat="44.52311059093647" lon="7.980245417184032"><ele>379.25</ele><time>2026-04-05T15:01:01.999Z</time></trkpt><trkpt lat="44.52320475192548" lon="7.9801286387115455"><ele>378.0</ele><time>2026-04-05T15:01:02.999Z</time></trkpt><trkpt lat="44.523284836311134" lon="7.979930458603841"><ele>376.0</ele><time>2026-04-05T15:01:03.999Z</time></trkpt><trkpt lat="44.52340792258355" lon="7.9798049273279625"><ele>374.0</ele><time>2026-04-05T15:01:04.999Z</time></trkpt><trkpt lat="44.52356750970095" lon="7.979695451713491"><ele>372.0</ele><time>2026-04-05T15:01:05.999Z</time></trkpt><trkpt lat="44.523733546430186" lon="7.979608293785139"><ele>372.0</ele><time>2026-04-05T15:01:06.999Z</time></trkpt><trkpt lat="44.5238975743242" lon="7.979512647678597"><ele>372.0</ele><time>2026-04-05T15:01:07.999Z</time></trkpt><trkpt lat="44.52405483111705" lon="7.979410787414911"><ele>372.0</ele><time>2026-04-05T15:01:08.999Z</time></trkpt><trkpt lat="44.52419476821667" lon="7.979313762364546"><ele>372.0</ele><time>2026-04-05T15:01:09.999Z</time></trkpt><trkpt lat="44.5243272879942" lon="7.979242804065888"><ele>372.0</ele><time>2026-04-05T15:01:10.999Z</time></trkpt><trkpt lat="44.52445682179376" lon="7.979219064589938"><ele>372.0</ele><time>2026-04-05T15:01:11.999Z</time></trkpt><trkpt lat="44.52457862893779" lon="7.979273418970616"><ele>372.0</ele><time>2026-04-05T15:01:12.999Z</time></trkpt><trkpt lat="44.524712715005464" lon="7.979404374486735"><ele>363.6666666666667</ele><time>2026-04-05T15:01:13.999Z</time></trkpt><trkpt lat="44.52485148992695" lon="7.979556568173887"><ele>355.33333333333337</ele><time>2026-04-05T15:01:14.999Z</time></trkpt><trkpt lat="44.52500335939604" lon="7.979710065972105"><ele>347.0</ele><time>2026-04-05T15:01:15.999Z</time></trkpt><trkpt lat="44.52514772913538" lon="7.9798455827359005"><ele>347.0</ele><time>2026-04-05T15:01:16.999Z</time></trkpt><trkpt lat="44.525281269620905" lon="7.97995626395699"><ele>347.0</ele><time>2026-04-05T15:01:17.999Z</time></trkpt><trkpt lat="44.525396584486785" lon="7.980032771402131"><ele>347.0</ele><time>2026-04-05T15:01:18.999Z</time></trkpt><trkpt lat="44.52550690874037" lon="7.9800666430093985"><ele>347.0</ele><time>2026-04-05T15:01:19.999Z</time></trkpt><trkpt lat="44.525581913808445" lon="7.98004601901857"><ele>350.25</ele><time>2026-04-05T15:01:20.999Z</time></trkpt><trkpt lat="44.5256321094542" lon="7.979983212168294"><ele>353.5</ele><time>2026-04-05T15:01:22.999Z</time></trkpt><trkpt lat="44.5257321781702" lon="7.979947586206495"><ele>356.75</ele><time>2026-04-05T15:01:30.999Z</time></trkpt><trkpt lat="44.525696788318285" lon="7.97967764390317"><ele>360.0</ele><time>2026-04-05T15:01:31.999Z</time></trkpt><trkpt lat="44.52566334288179" lon="7.979509294466089"><ele>360.0</ele><time>2026-04-05T15:01:32.999Z</time></trkpt><trkpt lat="44.52563446241087" lon="7.979328343730542"><ele>360.0</ele><time>2026-04-05T15:01:33.999Z</time></trkpt><trkpt lat="44.52561780347413" lon="7.979125880305879"><ele>360.0</ele><time>2026-04-05T15:01:34.999Z</time></trkpt><trkpt lat="44.525601162325025" lon="7.978908618258177"><ele>360.0</ele><time>2026-04-05T15:01:35.999Z</time></trkpt><trkpt lat="44.52558513730786" lon="7.978693587549657"><ele>359.5</ele><time>2026-04-05T15:01:36.999Z</time></trkpt><trkpt lat="44.52557156567088" lon="7.9784884787064865"><ele>359.0</ele><time>2026-04-05T15:01:37.999Z</time></trkpt><trkpt lat="44.52556448546467" lon="7.978308675041959"><ele>358.5</ele><time>2026-04-05T15:01:38.999Z</time></trkpt><trkpt lat="44.52556161573961" lon="7.978139362022992"><ele>358.0</ele><time>2026-04-05T15:01:39.999Z</time></trkpt><trkpt lat="44.525611383771775" lon="7.9779789460739226"><ele>356.75</ele><time>2026-04-05T15:01:40.999Z</time></trkpt><trkpt lat="44.52565613832429" lon="7.977817879084315"><ele>355.5</ele><time>2026-04-05T15:01:41.999Z</time></trkpt><trkpt lat="44.525741832101744" lon="7.977687758040077"><ele>354.25</ele><time>2026-04-05T15:01:42.999Z</time></trkpt><trkpt lat="44.52584848541256" lon="7.977581379511469"><ele>353.0</ele><time>2026-04-05T15:01:43.999Z</time></trkpt><trkpt lat="44.525967768014" lon="7.977449971257648"><ele>354.33333333333337</ele><time>2026-04-05T15:01:44.999Z</time></trkpt><trkpt lat="44.526091801121936" lon="7.977294456445527"><ele>355.6666666666667</ele><time>2026-04-05T15:01:45.999Z</time></trkpt><trkpt lat="44.52625231788622" lon="7.977148586442578"><ele>357.0</ele><time>2026-04-05T15:01:46.999Z</time></trkpt><trkpt lat="44.526409697759675" lon="7.976971633462701"><ele>357.0</ele><time>2026-04-05T15:01:47.999Z</time></trkpt><trkpt lat="44.52659446181002" lon="7.9767666452739014"><ele>357.0</ele><time>2026-04-05T15:01:48.999Z</time></trkpt><trkpt lat="44.52681512284107" lon="7.9765229091842"><ele>358.5</ele><time>2026-04-05T15:01:49.999Z</time></trkpt><trkpt lat="44.52706239205959" lon="7.97624772927108"><ele>360.0</ele><time>2026-04-05T15:01:50.999Z</time></trkpt><trkpt lat="44.527319167141655" lon="7.97593541144945"><ele>363.0</ele><time>2026-04-05T15:01:51.999Z</time></trkpt><trkpt lat="44.527564299324055" lon="7.975648977497936"><ele>366.0</ele><time>2026-04-05T15:01:52.999Z</time></trkpt><trkpt lat="44.52793334440391" lon="7.975234261640598"><ele>366.0</ele><time>2026-04-05T15:01:54.999Z</time></trkpt><trkpt lat="44.52807390341172" lon="7.975039059651923"><ele>366.0</ele><time>2026-04-05T15:01:55.999Z</time></trkpt><trkpt lat="44.52819382505748" lon="7.974816049825344"><ele>366.0</ele><time>2026-04-05T15:01:56.999Z</time></trkpt><trkpt lat="44.52831385699434" lon="7.974548976046746"><ele>361.6666666666667</ele><time>2026-04-05T15:01:57.999Z</time></trkpt><trkpt lat="44.52843360714037" lon="7.974284694207743"><ele>357.33333333333337</ele><time>2026-04-05T15:01:58.999Z</time></trkpt><trkpt lat="44.528543835762655" lon="7.9740359496754625"><ele>353.0</ele><time>2026-04-05T15:02:00Z</time></trkpt><trkpt lat="44.5286560548213" lon="7.973783790951032"><ele>352.0</ele><time>2026-04-05T15:02:01Z</time></trkpt><trkpt lat="44.528779500077704" lon="7.973509422839961"><ele>351.0</ele><time>2026-04-05T15:02:02Z</time></trkpt><trkpt lat="44.528894155527276" lon="7.9732573529760495"><ele>350.0</ele><time>2026-04-05T15:02:03Z</time></trkpt><trkpt lat="44.528998927167706" lon="7.973029557248228"><ele>350.0</ele><time>2026-04-05T15:02:04Z</time></trkpt><trkpt lat="44.52909507730251" lon="7.972816790773266"><ele>350.0</ele><time>2026-04-05T15:02:05Z</time></trkpt><trkpt lat="44.52918802933539" lon="7.9726179758290785"><ele>350.0</ele><time>2026-04-05T15:02:06Z</time></trkpt><trkpt lat="44.52927786201392" lon="7.972420284046244"><ele>344.6666666666667</ele><time>2026-04-05T15:02:07Z</time></trkpt><trkpt lat="44.52936300527042" lon="7.972232247729233"><ele>339.3333333333333</ele><time>2026-04-05T15:02:08Z</time></trkpt><trkpt lat="44.52944462986499" lon="7.972049986815925"><ele>334.0</ele><time>2026-04-05T15:02:09Z</time></trkpt><trkpt lat="44.529522035979525" lon="7.9718759760607805"><ele>334.5</ele><time>2026-04-05T15:02:10Z</time></trkpt><trkpt lat="44.52959772910035" lon="7.971710634711508"><ele>335.0</ele><time>2026-04-05T15:02:11Z</time></trkpt><trkpt lat="44.52966940545292" lon="7.97154771895676"><ele>335.5</ele><time>2026-04-05T15:02:12Z</time></trkpt><trkpt lat="44.529737986378244" lon="7.971390863025106"><ele>336.0</ele><time>2026-04-05T15:02:13Z</time></trkpt><trkpt lat="44.52980716728602" lon="7.971238306508144"><ele>336.0</ele><time>2026-04-05T15:02:14Z</time></trkpt><trkpt lat="44.529873816939116" lon="7.971090669515444"><ele>336.0</ele><time>2026-04-05T15:02:15Z</time></trkpt><trkpt lat="44.52994064732317" lon="7.97093740863482"><ele>336.0</ele><time>2026-04-05T15:02:16Z</time></trkpt><trkpt lat="44.53001819591169" lon="7.970771550364822"><ele>336.0</ele><time>2026-04-05T15:02:17Z</time></trkpt><trkpt lat="44.53009449289579" lon="7.970606083440787"><ele>333.25</ele><time>2026-04-05T15:02:18Z</time></trkpt><trkpt lat="44.53016376016728" lon="7.970446558157102"><ele>330.5</ele><time>2026-04-05T15:02:19Z</time></trkpt><trkpt lat="44.53023226371583" lon="7.9702931017582825"><ele>327.75</ele><time>2026-04-05T15:02:20Z</time></trkpt><trkpt lat="44.53030130441732" lon="7.970134237294036"><ele>325.0</ele><time>2026-04-05T15:02:21Z</time></trkpt><trkpt lat="44.53037368412642" lon="7.969969439318866"><ele>326.0</ele><time>2026-04-05T15:02:22Z</time></trkpt><trkpt lat="44.53044630672042" lon="7.969806421124771"><ele>327.0</ele><time>2026-04-05T15:02:23Z</time></trkpt><trkpt lat="44.5305170447983" lon="7.969639133655589"><ele>328.0</ele><time>2026-04-05T15:02:24Z</time></trkpt><trkpt lat="44.53058770364393" lon="7.9694794902976795"><ele>329.0</ele><time>2026-04-05T15:02:25Z</time></trkpt><trkpt lat="44.53065465719817" lon="7.969319340118256"><ele>326.0</ele><time>2026-04-05T15:02:26Z</time></trkpt><trkpt lat="44.530718511252026" lon="7.9691656477645925"><ele>323.0</ele><time>2026-04-05T15:02:27Z</time></trkpt><trkpt lat="44.5307770370724" lon="7.969007991794175"><ele>320.0</ele><time>2026-04-05T15:02:28Z</time></trkpt><trkpt lat="44.53084554019005" lon="7.968858489481807"><ele>317.0</ele><time>2026-04-05T15:02:29Z</time></trkpt><trkpt lat="44.53091388892231" lon="7.968708740915505"><ele>317.0</ele><time>2026-04-05T15:02:30Z</time></trkpt><trkpt lat="44.530980248977656" lon="7.968551275678054"><ele>317.0</ele><time>2026-04-05T15:02:31Z</time></trkpt><trkpt lat="44.53105745163732" lon="7.968371321709437"><ele>317.0</ele><time>2026-04-05T15:02:32Z</time></trkpt><trkpt lat="44.53113390981775" lon="7.968195874480408"><ele>317.0</ele><time>2026-04-05T15:02:33Z</time></trkpt><trkpt lat="44.53121240756685" lon="7.968017589368729"><ele>316.25</ele><time>2026-04-05T15:02:34Z</time></trkpt><trkpt lat="44.531288453312015" lon="7.9678447013591915"><ele>315.5</ele><time>2026-04-05T15:02:35Z</time></trkpt><trkpt lat="44.53136576807887" lon="7.967674302359464"><ele>314.75</ele><time>2026-04-05T15:02:36Z</time></trkpt><trkpt lat="44.53143773569572" lon="7.967509398177848"><ele>314.0</ele><time>2026-04-05T15:02:37Z</time></trkpt><trkpt lat="44.53151053509262" lon="7.9673464366844335"><ele>314.0</ele><time>2026-04-05T15:02:38Z</time></trkpt><trkpt lat="44.53158620710244" lon="7.9671810181427745"><ele>314.0</ele><time>2026-04-05T15:02:39Z</time></trkpt><trkpt lat="44.53167290575253" lon="7.9670119341482994"><ele>314.0</ele><time>2026-04-05T15:02:40Z</time></trkpt><trkpt lat="44.531765908331046" lon="7.966853294628656"><ele>314.0</ele><time>2026-04-05T15:02:41Z</time></trkpt><trkpt lat="44.53187903879991" lon="7.966712871018922"><ele>312.5</ele><time>2026-04-05T15:02:42Z</time></trkpt><trkpt lat="44.53198517222992" lon="7.966569684220376"><ele>311.0</ele><time>2026-04-05T15:02:43Z</time></trkpt><trkpt lat="44.532084636628625" lon="7.96642208515203"><ele>309.5</ele><time>2026-04-05T15:02:44Z</time></trkpt><trkpt lat="44.532178513575865" lon="7.9662780804072995"><ele>308.0</ele><time>2026-04-05T15:02:45Z</time></trkpt><trkpt lat="44.53226120379606" lon="7.96614502556944"><ele>307.6</ele><time>2026-04-05T15:02:46Z</time></trkpt><trkpt lat="44.53233375507871" lon="7.966009073171774"><ele>307.20000000000005</ele><time>2026-04-05T15:02:47Z</time></trkpt><trkpt lat="44.532393684240645" lon="7.965877794346882"><ele>306.8</ele><time>2026-04-05T15:02:48Z</time></trkpt><trkpt lat="44.532443058502956" lon="7.965755809898202"><ele>306.40000000000003</ele><time>2026-04-05T15:02:49Z</time></trkpt><trkpt lat="44.53248837068172" lon="7.965639001889776"><ele>306.0</ele><time>2026-04-05T15:02:50Z</time></trkpt><trkpt lat="44.532534739741315" lon="7.9655215889184126"><ele>306.0</ele><time>2026-04-05T15:02:51Z</time></trkpt><trkpt lat="44.532580272309545" lon="7.965403024424644"><ele>306.0</ele><time>2026-04-05T15:02:52Z</time></trkpt><trkpt lat="44.532629865494854" lon="7.965278089538199"><ele>306.0</ele><time>2026-04-05T15:02:53Z</time></trkpt><trkpt lat="44.532684375535396" lon="7.965140007113447"><ele>306.0</ele><time>2026-04-05T15:02:54Z</time></trkpt><trkpt lat="44.53274016756695" lon="7.964998925362421"><ele>306.0</ele><time>2026-04-05T15:02:55Z</time></trkpt><trkpt lat="44.53279695762961" lon="7.964852728268334"><ele>306.0</ele><time>2026-04-05T15:02:56Z</time></trkpt><trkpt lat="44.532854966025525" lon="7.964703080834514"><ele>306.0</ele><time>2026-04-05T15:02:57Z</time></trkpt><trkpt lat="44.53290942538456" lon="7.964560860682224"><ele>306.0</ele><time>2026-04-05T15:02:58Z</time></trkpt><trkpt lat="44.5329555693977" lon="7.964423299906872"><ele>306.0</ele><time>2026-04-05T15:02:59Z</time></trkpt><trkpt lat="44.53300014391994" lon="7.964287314291397"><ele>306.8</ele><time>2026-04-05T15:03:00Z</time></trkpt><trkpt lat="44.53304170259271" lon="7.964148706018914"><ele>307.6</ele><time>2026-04-05T15:03:01Z</time></trkpt><trkpt lat="44.53308384714485" lon="7.964009704242396"><ele>308.4</ele><time>2026-04-05T15:03:02Z</time></trkpt><trkpt lat="44.53312517284626" lon="7.963872534650391"><ele>309.2</ele><time>2026-04-05T15:03:03Z</time></trkpt><trkpt lat="44.533166775605565" lon="7.9637351122156375"><ele>310.0</ele><time>2026-04-05T15:03:04Z</time></trkpt><trkpt lat="44.53320565173142" lon="7.963598324480328"><ele>310.0</ele><time>2026-04-05T15:03:05Z</time></trkpt><trkpt lat="44.53324495068357" lon="7.963461439677094"><ele>310.0</ele><time>2026-04-05T15:03:06Z</time></trkpt><trkpt lat="44.53328598742787" lon="7.9633270134434"><ele>310.0</ele><time>2026-04-05T15:03:07Z</time></trkpt><trkpt lat="44.53332713597378" lon="7.963191832079303"><ele>310.0</ele><time>2026-04-05T15:03:08Z</time></trkpt><trkpt lat="44.53336720757271" lon="7.963056207082707"><ele>310.0</ele><time>2026-04-05T15:03:09Z</time></trkpt><trkpt lat="44.533408207440544" lon="7.962924224857183"><ele>309.6</ele><time>2026-04-05T15:03:10Z</time></trkpt><trkpt lat="44.53344576301531" lon="7.962791163679582"><ele>309.2</ele><time>2026-04-05T15:03:11Z</time></trkpt><trkpt lat="44.53348076396287" lon="7.962649423865072"><ele>308.8</ele><time>2026-04-05T15:03:12Z</time></trkpt><trkpt lat="44.533509650708844" lon="7.962499484907855"><ele>308.4</ele><time>2026-04-05T15:03:13Z</time></trkpt><trkpt lat="44.53353264741594" lon="7.962344061200745"><ele>308.0</ele><time>2026-04-05T15:03:14Z</time></trkpt><trkpt lat="44.533550367343715" lon="7.962184354440011"><ele>307.5</ele><time>2026-04-05T15:03:15Z</time></trkpt><trkpt lat="44.5335604766222" lon="7.96201741125301"><ele>307.0</ele><time>2026-04-05T15:03:16Z</time></trkpt><trkpt lat="44.53357361278301" lon="7.961853817055782"><ele>306.5</ele><time>2026-04-05T15:03:17Z</time></trkpt><trkpt lat="44.53358419091915" lon="7.961685666834379"><ele>306.0</ele><time>2026-04-05T15:03:18Z</time></trkpt><trkpt lat="44.53359255239915" lon="7.961516146581905"><ele>305.5</ele><time>2026-04-05T15:03:19Z</time></trkpt><trkpt lat="44.53360024377763" lon="7.961346829521092"><ele>305.0</ele><time>2026-04-05T15:03:20Z</time></trkpt><trkpt lat="44.53361067507907" lon="7.961177959168053"><ele>304.5</ele><time>2026-04-05T15:03:21Z</time></trkpt><trkpt lat="44.53361773544718" lon="7.961002990302252"><ele>304.0</ele><time>2026-04-05T15:03:22Z</time></trkpt><trkpt lat="44.53362502088524" lon="7.960826086626219"><ele>303.5</ele><time>2026-04-05T15:03:23Z</time></trkpt><trkpt lat="44.533634933154765" lon="7.960662169178253"><ele>303.0</ele><time>2026-04-05T15:03:24Z</time></trkpt><trkpt lat="44.53364387007161" lon="7.960503004958723"><ele>302.5</ele><time>2026-04-05T15:03:25Z</time></trkpt><trkpt lat="44.53365126612931" lon="7.96034669912611"><ele>302.0</ele><time>2026-04-05T15:03:26Z</time></trkpt><trkpt lat="44.533659669192275" lon="7.960193371002312"><ele>302.0</ele><time>2026-04-05T15:03:27Z</time></trkpt><trkpt lat="44.53366688195289" lon="7.960040223192203"><ele>302.0</ele><time>2026-04-05T15:03:28Z</time></trkpt><trkpt lat="44.53367376760491" lon="7.9598878446942845"><ele>302.0</ele><time>2026-04-05T15:03:29Z</time></trkpt><trkpt lat="44.53367940389836" lon="7.959734245408922"><ele>302.0</ele><time>2026-04-05T15:03:30Z</time></trkpt><trkpt lat="44.53368181850261" lon="7.959580390141292"><ele>302.0</ele><time>2026-04-05T15:03:31Z</time></trkpt><trkpt lat="44.53367961076449" lon="7.959426950360809"><ele>301.0</ele><time>2026-04-05T15:03:32Z</time></trkpt><trkpt lat="44.53367651370467" lon="7.959263823475462"><ele>300.0</ele><time>2026-04-05T15:03:33Z</time></trkpt><trkpt lat="44.53367176292953" lon="7.959087342383014"><ele>299.0</ele><time>2026-04-05T15:03:34Z</time></trkpt><trkpt lat="44.53366099821118" lon="7.958895563045344"><ele>298.0</ele><time>2026-04-05T15:03:35Z</time></trkpt><trkpt lat="44.53365234445751" lon="7.958718608513809"><ele>298.0</ele><time>2026-04-05T15:03:36Z</time></trkpt><trkpt lat="44.533642742943385" lon="7.958560042508629"><ele>298.0</ele><time>2026-04-05T15:03:37Z</time></trkpt><trkpt lat="44.533630684639206" lon="7.958407433666509"><ele>298.0</ele><time>2026-04-05T15:03:38Z</time></trkpt><trkpt lat="44.53362018288837" lon="7.958263455926914"><ele>298.0</ele><time>2026-04-05T15:03:39Z</time></trkpt><trkpt lat="44.53361066057877" lon="7.958130582372043"><ele>298.0</ele><time>2026-04-05T15:03:40Z</time></trkpt><trkpt lat="44.53359773234298" lon="7.958001901307658"><ele>298.0</ele><time>2026-04-05T15:03:41Z</time></trkpt><trkpt lat="44.53358659050184" lon="7.957883488681346"><ele>298.0</ele><time>2026-04-05T15:03:42Z</time></trkpt><trkpt lat="44.533574553125604" lon="7.957773303706913"><ele>298.0</ele><time>2026-04-05T15:03:43Z</time></trkpt><trkpt lat="44.5335648689395" lon="7.957671164448514"><ele>298.0</ele><time>2026-04-05T15:03:44Z</time></trkpt><trkpt lat="44.53355758465207" lon="7.957580775130104"><ele>298.0</ele><time>2026-04-05T15:03:45Z</time></trkpt><trkpt lat="44.53354543212366" lon="7.95741633182446"><ele>298.0</ele><time>2026-04-05T15:03:47Z</time></trkpt><trkpt lat="44.53354722758251" lon="7.9572845940515355"><ele>298.6</ele><time>2026-04-05T15:03:49Z</time></trkpt><trkpt lat="44.533562552234805" lon="7.957176783800499"><ele>299.20000000000005</ele><time>2026-04-05T15:03:51Z</time></trkpt><trkpt lat="44.533542223380316" lon="7.957077110589561"><ele>299.8</ele><time>2026-04-05T15:03:53Z</time></trkpt><trkpt lat="44.53349388856029" lon="7.956994479048212"><ele>300.40000000000003</ele><time>2026-04-05T15:03:55Z</time></trkpt><trkpt lat="44.533451437318554" lon="7.956866836314889"><ele>301.0</ele><time>2026-04-05T15:03:57Z</time></trkpt><trkpt lat="44.53340995291054" lon="7.95669256244849"><ele>301.40000000000003</ele><time>2026-04-05T15:03:59Z</time></trkpt><trkpt lat="44.53338709404752" lon="7.956537224134716"><ele>301.8</ele><time>2026-04-05T15:04:01Z</time></trkpt><trkpt lat="44.53336305798902" lon="7.956384540583218"><ele>302.20000000000005</ele><time>2026-04-05T15:04:03Z</time></trkpt><trkpt lat="44.533338859736595" lon="7.9562399104317825"><ele>302.6</ele><time>2026-04-05T15:04:05Z</time></trkpt><trkpt lat="44.533305509264444" lon="7.956093066109521"><ele>303.0</ele><time>2026-04-05T15:04:07Z</time></trkpt><trkpt lat="44.533283700432044" lon="7.956009436805985"><ele>303.0</ele><time>2026-04-05T15:04:08Z</time></trkpt><trkpt lat="44.53325576334425" lon="7.955902656835511"><ele>303.0</ele><time>2026-04-05T15:04:09Z</time></trkpt><trkpt lat="44.53322576253651" lon="7.9557793456867705"><ele>303.0</ele><time>2026-04-05T15:04:10Z</time></trkpt><trkpt lat="44.53319936004663" lon="7.955655629890461"><ele>303.0</ele><time>2026-04-05T15:04:11Z</time></trkpt><trkpt lat="44.53316501503651" lon="7.955518665969763"><ele>303.0</ele><time>2026-04-05T15:04:12Z</time></trkpt><trkpt lat="44.533131781638524" lon="7.955367935544285"><ele>302.75</ele><time>2026-04-05T15:04:13Z</time></trkpt><trkpt lat="44.533098287511926" lon="7.955217773795216"><ele>302.5</ele><time>2026-04-05T15:04:14Z</time></trkpt><trkpt lat="44.53306364435166" lon="7.955071192753022"><ele>302.25</ele><time>2026-04-05T15:04:15Z</time></trkpt><trkpt lat="44.53302835441637" lon="7.954919693807482"><ele>302.0</ele><time>2026-04-05T15:04:16Z</time></trkpt><trkpt lat="44.532992820754735" lon="7.954765568085765"><ele>301.5</ele><time>2026-04-05T15:04:17Z</time></trkpt><trkpt lat="44.532954396819726" lon="7.954613945835593"><ele>301.0</ele><time>2026-04-05T15:04:18Z</time></trkpt><trkpt lat="44.5329176702457" lon="7.954456069560875"><ele>300.5</ele><time>2026-04-05T15:04:19Z</time></trkpt><trkpt lat="44.53287970659581" lon="7.954295162709096"><ele>300.0</ele><time>2026-04-05T15:04:20Z</time></trkpt><trkpt lat="44.53284223581712" lon="7.954130912738283"><ele>298.75</ele><time>2026-04-05T15:04:21Z</time></trkpt><trkpt lat="44.53280439888123" lon="7.953967284556401"><ele>297.5</ele><time>2026-04-05T15:04:22Z</time></trkpt><trkpt lat="44.532765170731295" lon="7.953802011033892"><ele>296.25</ele><time>2026-04-05T15:04:23Z</time></trkpt><trkpt lat="44.53273028365027" lon="7.953645090482663"><ele>295.0</ele><time>2026-04-05T15:04:24Z</time></trkpt><trkpt lat="44.53269840141262" lon="7.9534949936093575"><ele>295.3333333333333</ele><time>2026-04-05T15:04:25Z</time></trkpt><trkpt lat="44.53266959806737" lon="7.9533573934128885"><ele>295.66666666666663</ele><time>2026-04-05T15:04:26Z</time></trkpt><trkpt lat="44.5326421813014" lon="7.953229164640414"><ele>296.0</ele><time>2026-04-05T15:04:27Z</time></trkpt><trkpt lat="44.5326217192913" lon="7.953118318872849"><ele>296.3333333333333</ele><time>2026-04-05T15:04:28Z</time></trkpt><trkpt lat="44.53260964503217" lon="7.953015023339418"><ele>296.6666666666667</ele><time>2026-04-05T15:04:29Z</time></trkpt><trkpt lat="44.53259882449806" lon="7.952924191305724"><ele>297.0</ele><time>2026-04-05T15:04:30Z</time></trkpt><trkpt lat="44.53259872789814" lon="7.952834202770038"><ele>297.0</ele><time>2026-04-05T15:04:31Z</time></trkpt><trkpt lat="44.532545631850866" lon="7.9527841305959335"><ele>297.0</ele><time>2026-04-05T15:04:33Z</time></trkpt><trkpt lat="44.53261987719829" lon="7.9526361842269475"><ele>297.0</ele><time>2026-04-05T15:04:36Z</time></trkpt><trkpt lat="44.53259634119638" lon="7.952501125465701"><ele>297.0</ele><time>2026-04-05T15:04:39Z</time></trkpt><trkpt lat="44.532553756143955" lon="7.952363306847992"><ele>297.0</ele><time>2026-04-05T15:04:41Z</time></trkpt><trkpt lat="44.53260393863235" lon="7.952252214352244"><ele>297.0</ele><time>2026-04-05T15:04:43Z</time></trkpt><trkpt lat="44.532651561956136" lon="7.952310902480803"><ele>297.0</ele><time>2026-04-05T15:04:44Z</time></trkpt><trkpt lat="44.53273417299594" lon="7.952312282734446"><ele>297.0</ele><time>2026-04-05T15:04:46Z</time></trkpt><trkpt lat="44.53270214658009" lon="7.952446555052335"><ele>297.0</ele><time>2026-04-05T15:04:47Z</time></trkpt><trkpt lat="44.53274780129024" lon="7.952572070741683"><ele>297.0</ele><time>2026-04-05T15:04:49Z</time></trkpt><trkpt lat="44.532718381282756" lon="7.952668638173435"><ele>297.0</ele><time>2026-04-05T15:04:51Z</time></trkpt><trkpt lat="44.532673427420875" lon="7.952743829104927"><ele>297.0</ele><time>2026-04-05T15:04:53Z</time></trkpt><trkpt lat="44.5326228887753" lon="7.952806570129723"><ele>297.0</ele><time>2026-04-05T15:04:56Z</time></trkpt><trkpt lat="44.5325542208721" lon="7.952850540590618"><ele>297.0</ele><time>2026-04-05T15:05:11Z</time></trkpt><trkpt lat="44.53250932122156" lon="7.952939794920569"><ele>297.0</ele><time>2026-04-05T15:05:14Z</time></trkpt><trkpt lat="44.53252945562446" lon="7.953044588787925"><ele>297.0</ele><time>2026-04-05T15:05:15Z</time></trkpt><trkpt lat="44.532571157983064" lon="7.953174969615996"><ele>297.0</ele><time>2026-04-05T15:05:16Z</time></trkpt><trkpt lat="44.53260768720275" lon="7.9533171612015146"><ele>296.6</ele><time>2026-04-05T15:05:17Z</time></trkpt><trkpt lat="44.53264969384997" lon="7.95347170837557"><ele>296.2</ele><time>2026-04-05T15:05:18Z</time></trkpt><trkpt lat="44.532686646073365" lon="7.95362684483712"><ele>295.8</ele><time>2026-04-05T15:05:19Z</time></trkpt><trkpt lat="44.53270922372804" lon="7.95376822042037"><ele>295.4</ele><time>2026-04-05T15:05:20Z</time></trkpt><trkpt lat="44.53275327228149" lon="7.953887329220211"><ele>295.0</ele><time>2026-04-05T15:05:21Z</time></trkpt><trkpt lat="44.532776365464294" lon="7.953997973962625"><ele>295.0</ele><time>2026-04-05T15:05:22Z</time></trkpt><trkpt lat="44.532794466180405" lon="7.954113579426175"><ele>295.0</ele><time>2026-04-05T15:05:24Z</time></trkpt><trkpt lat="44.532822779829026" lon="7.954226175294461"><ele>295.0</ele><time>2026-04-05T15:05:28Z</time></trkpt><trkpt lat="44.53299704268914" lon="7.9541614229035185"><ele>295.0</ele><time>2026-04-05T15:05:30Z</time></trkpt><trkpt lat="44.53307996856168" lon="7.954116554011036"><ele>295.0</ele><time>2026-04-05T15:05:31Z</time></trkpt><trkpt lat="44.533173527922145" lon="7.954069910738042"><ele>295.6</ele><time>2026-04-05T15:05:32Z</time></trkpt><trkpt lat="44.53327798275342" lon="7.954031043332557"><ele>296.2</ele><time>2026-04-05T15:05:33Z</time></trkpt><trkpt lat="44.53337529245009" lon="7.9539798238870825"><ele>296.8</ele><time>2026-04-05T15:05:34Z</time></trkpt><trkpt lat="44.53347541046908" lon="7.953941890507122"><ele>297.4</ele><time>2026-04-05T15:05:35Z</time></trkpt><trkpt lat="44.533574900316594" lon="7.9539518594814345"><ele>298.0</ele><time>2026-04-05T15:05:36Z</time></trkpt><trkpt lat="44.53366723825755" lon="7.953976071795836"><ele>298.25</ele><time>2026-04-05T15:05:37Z</time></trkpt><trkpt lat="44.53375840860957" lon="7.95404956566369"><ele>298.5</ele><time>2026-04-05T15:05:38Z</time></trkpt><trkpt lat="44.53382738284932" lon="7.954179540201345"><ele>298.75</ele><time>2026-04-05T15:05:39Z</time></trkpt><trkpt lat="44.533900736486956" lon="7.954328370108878"><ele>299.0</ele><time>2026-04-05T15:05:40Z</time></trkpt><trkpt lat="44.53399190921543" lon="7.954481874971025"><ele>299.0</ele><time>2026-04-05T15:05:41Z</time></trkpt><trkpt lat="44.534076985243956" lon="7.954668592241842"><ele>299.0</ele><time>2026-04-05T15:05:42Z</time></trkpt><trkpt lat="44.534176617978005" lon="7.954873574192344"><ele>299.0</ele><time>2026-04-05T15:05:43Z</time></trkpt><trkpt lat="44.53427402033475" lon="7.955080526147516"><ele>299.0</ele><time>2026-04-05T15:05:44Z</time></trkpt><trkpt lat="44.53437592355115" lon="7.9552998227838545"><ele>299.0</ele><time>2026-04-05T15:05:45Z</time></trkpt><trkpt lat="44.534482059736945" lon="7.955519440286725"><ele>299.0</ele><time>2026-04-05T15:05:46Z</time></trkpt><trkpt lat="44.5345891235503" lon="7.955735521785872"><ele>301.0</ele><time>2026-04-05T15:05:47Z</time></trkpt><trkpt lat="44.534693699683295" lon="7.955931185537423"><ele>303.0</ele><time>2026-04-05T15:05:48Z</time></trkpt><trkpt lat="44.534797733825684" lon="7.956108845465134"><ele>305.0</ele><time>2026-04-05T15:05:49Z</time></trkpt><trkpt lat="44.5348970282196" lon="7.956253656311799"><ele>305.0</ele><time>2026-04-05T15:05:50Z</time></trkpt><trkpt lat="44.535009768010624" lon="7.956354184128916"><ele>305.0</ele><time>2026-04-05T15:05:51Z</time></trkpt><trkpt lat="44.53515179939647" lon="7.956420128470376"><ele>305.0</ele><time>2026-04-05T15:05:52Z</time></trkpt><trkpt lat="44.53528655608223" lon="7.956463679205548"><ele>305.0</ele><time>2026-04-05T15:05:53Z</time></trkpt><trkpt lat="44.53538065504247" lon="7.956571615209177"><ele>304.5</ele><time>2026-04-05T15:05:54Z</time></trkpt><trkpt lat="44.535454475925576" lon="7.956701648722996"><ele>304.0</ele><time>2026-04-05T15:05:55Z</time></trkpt><trkpt lat="44.535535085043165" lon="7.956863179798525"><ele>303.5</ele><time>2026-04-05T15:05:56Z</time></trkpt><trkpt lat="44.53562064051141" lon="7.957046810867606"><ele>303.0</ele><time>2026-04-05T15:05:57Z</time></trkpt><trkpt lat="44.53572716497548" lon="7.957229510271904"><ele>303.0</ele><time>2026-04-05T15:05:58Z</time></trkpt><trkpt lat="44.53582214643349" lon="7.957436620349869"><ele>303.0</ele><time>2026-04-05T15:05:59Z</time></trkpt><trkpt lat="44.53592581144862" lon="7.957654081601414"><ele>303.0</ele><time>2026-04-05T15:06:00Z</time></trkpt><trkpt lat="44.536039170828815" lon="7.957881998709336"><ele>305.3333333333333</ele><time>2026-04-05T15:06:01Z</time></trkpt><trkpt lat="44.5361508653162" lon="7.958108335649078"><ele>307.66666666666663</ele><time>2026-04-05T15:06:02Z</time></trkpt><trkpt lat="44.53626306809684" lon="7.9583403709943"><ele>310.0</ele><time>2026-04-05T15:06:03Z</time></trkpt><trkpt lat="44.536375353755645" lon="7.958575927287258"><ele>310.66666666666663</ele><time>2026-04-05T15:06:04Z</time></trkpt><trkpt lat="44.53648735568319" lon="7.958807545479799"><ele>311.3333333333333</ele><time>2026-04-05T15:06:05Z</time></trkpt><trkpt lat="44.53659935995245" lon="7.959036425856536"><ele>312.0</ele><time>2026-04-05T15:06:06Z</time></trkpt><trkpt lat="44.53669706844406" lon="7.959270559275136"><ele>313.0</ele><time>2026-04-05T15:06:07Z</time></trkpt><trkpt lat="44.536801154256196" lon="7.9594873742890995"><ele>314.0</ele><time>2026-04-05T15:06:08Z</time></trkpt><trkpt lat="44.536906908288316" lon="7.959670812494587"><ele>315.0</ele><time>2026-04-05T15:06:09Z</time></trkpt><trkpt lat="44.536990462272385" lon="7.959860644315816"><ele>314.5</ele><time>2026-04-05T15:06:10Z</time></trkpt><trkpt lat="44.5370778672983" lon="7.960032621467436"><ele>314.0</ele><time>2026-04-05T15:06:11Z</time></trkpt><trkpt lat="44.537164641993996" lon="7.96020533074811"><ele>313.5</ele><time>2026-04-05T15:06:12Z</time></trkpt><trkpt lat="44.53723773969046" lon="7.960370263258438"><ele>313.0</ele><time>2026-04-05T15:06:13Z</time></trkpt><trkpt lat="44.537309112875775" lon="7.96051196174355"><ele>313.0</ele><time>2026-04-05T15:06:14Z</time></trkpt><trkpt lat="44.53737517486615" lon="7.960648045785107"><ele>313.0</ele><time>2026-04-05T15:06:15Z</time></trkpt><trkpt lat="44.53744422036718" lon="7.960765284991148"><ele>313.0</ele><time>2026-04-05T15:06:16Z</time></trkpt><trkpt lat="44.53753339299451" lon="7.960858591800688"><ele>313.0</ele><time>2026-04-05T15:06:17Z</time></trkpt><trkpt lat="44.537645724277475" lon="7.960917680160731"><ele>313.0</ele><time>2026-04-05T15:06:18Z</time></trkpt><trkpt lat="44.53777655944611" lon="7.960941239800958"><ele>313.0</ele><time>2026-04-05T15:06:19Z</time></trkpt><trkpt lat="44.537918104639026" lon="7.96092856105531"><ele>313.0</ele><time>2026-04-05T15:06:20Z</time></trkpt><trkpt lat="44.53805451905135" lon="7.960906159369926"><ele>313.0</ele><time>2026-04-05T15:06:21Z</time></trkpt><trkpt lat="44.53817383313307" lon="7.960949068021645"><ele>313.0</ele><time>2026-04-05T15:06:22Z</time></trkpt><trkpt lat="44.53827475844349" lon="7.960990898931094"><ele>313.0</ele><time>2026-04-05T15:06:23Z</time></trkpt><trkpt lat="44.53836478071094" lon="7.9610525364005165"><ele>313.0</ele><time>2026-04-05T15:06:24Z</time></trkpt><trkpt lat="44.5384487629493" lon="7.96115838036238"><ele>313.0</ele><time>2026-04-05T15:06:25Z</time></trkpt><trkpt lat="44.53852047835278" lon="7.961306671808269"><ele>313.0</ele><time>2026-04-05T15:06:26Z</time></trkpt><trkpt lat="44.538607090625526" lon="7.961479360012297"><ele>313.0</ele><time>2026-04-05T15:06:27Z</time></trkpt><trkpt lat="44.538675476538494" lon="7.961682462690091"><ele>313.0</ele><time>2026-04-05T15:06:28Z</time></trkpt><trkpt lat="44.53874199079061" lon="7.961866593714747"><ele>313.0</ele><time>2026-04-05T15:06:29Z</time></trkpt><trkpt lat="44.538805685226386" lon="7.962034106473508"><ele>313.0</ele><time>2026-04-05T15:06:30Z</time></trkpt><trkpt lat="44.538874265826955" lon="7.96220366743149"><ele>314.0</ele><time>2026-04-05T15:06:31Z</time></trkpt><trkpt lat="44.538950789625126" lon="7.962360271546655"><ele>315.0</ele><time>2026-04-05T15:06:32Z</time></trkpt><trkpt lat="44.53905459282864" lon="7.962504483515609"><ele>316.0</ele><time>2026-04-05T15:06:33Z</time></trkpt><trkpt lat="44.5391908649993" lon="7.962621633968586"><ele>317.0</ele><time>2026-04-05T15:06:34Z</time></trkpt><trkpt lat="44.53934615626009" lon="7.962715301048742"><ele>320.33333333333337</ele><time>2026-04-05T15:06:35Z</time></trkpt><trkpt lat="44.53951289622151" lon="7.962765285873807"><ele>323.6666666666667</ele><time>2026-04-05T15:06:36Z</time></trkpt><trkpt lat="44.53967747214446" lon="7.96282124046324"><ele>327.0</ele><time>2026-04-05T15:06:37Z</time></trkpt><trkpt lat="44.53984057942569" lon="7.962867029615168"><ele>327.0</ele><time>2026-04-05T15:06:38Z</time></trkpt><trkpt lat="44.539987246980324" lon="7.962908087952503"><ele>327.0</ele><time>2026-04-05T15:06:39Z</time></trkpt><trkpt lat="44.540121924509315" lon="7.962960813951869"><ele>327.0</ele><time>2026-04-05T15:06:40Z</time></trkpt><trkpt lat="44.54024162951763" lon="7.96304047359897"><ele>327.0</ele><time>2026-04-05T15:06:41Z</time></trkpt><trkpt lat="44.54033466959039" lon="7.963192853244043"><ele>327.75</ele><time>2026-04-05T15:06:42Z</time></trkpt><trkpt lat="44.54043680547397" lon="7.963326631368046"><ele>328.5</ele><time>2026-04-05T15:06:43Z</time></trkpt><trkpt lat="44.540532091779845" lon="7.963456784703028"><ele>329.25</ele><time>2026-04-05T15:06:44Z</time></trkpt><trkpt lat="44.5406657504038" lon="7.963521225090811"><ele>330.0</ele><time>2026-04-05T15:06:45Z</time></trkpt><trkpt lat="44.54082816173544" lon="7.963532979285001"><ele>330.0</ele><time>2026-04-05T15:06:46Z</time></trkpt><trkpt lat="44.541000154637885" lon="7.963537826317887"><ele>330.0</ele><time>2026-04-05T15:06:47Z</time></trkpt><trkpt lat="44.54116421375973" lon="7.963551881343295"><ele>330.0</ele><time>2026-04-05T15:06:48Z</time></trkpt><trkpt lat="44.54131220113778" lon="7.963599368595489"><ele>329.5</ele><time>2026-04-05T15:06:49Z</time></trkpt><trkpt lat="44.54144293114085" lon="7.963640496305548"><ele>329.0</ele><time>2026-04-05T15:06:50Z</time></trkpt><trkpt lat="44.54156639399021" lon="7.963716347939558"><ele>328.5</ele><time>2026-04-05T15:06:51Z</time></trkpt><trkpt lat="44.541664155974786" lon="7.963820985108266"><ele>328.0</ele><time>2026-04-05T15:06:52Z</time></trkpt><trkpt lat="44.541737493909224" lon="7.963962573396457"><ele>328.0</ele><time>2026-04-05T15:06:53Z</time></trkpt><trkpt lat="44.54180852421847" lon="7.964136192280062"><ele>328.0</ele><time>2026-04-05T15:06:54Z</time></trkpt><trkpt lat="44.541884706447874" lon="7.964322757556056"><ele>328.0</ele><time>2026-04-05T15:06:55Z</time></trkpt><trkpt lat="44.54193497491926" lon="7.964515369149116"><ele>328.0</ele><time>2026-04-05T15:06:56Z</time></trkpt><trkpt lat="44.54198347330211" lon="7.964680205128761"><ele>329.0</ele><time>2026-04-05T15:06:57Z</time></trkpt><trkpt lat="44.542047364156716" lon="7.9648177698081755"><ele>330.0</ele><time>2026-04-05T15:06:58Z</time></trkpt><trkpt lat="44.54213422781615" lon="7.964936657206686"><ele>331.0</ele><time>2026-04-05T15:06:59Z</time></trkpt><trkpt lat="44.54225859582631" lon="7.965029478624463"><ele>332.0</ele><time>2026-04-05T15:07:00Z</time></trkpt><trkpt lat="44.5424100431556" lon="7.96508476177834"><ele>334.33333333333337</ele><time>2026-04-05T15:07:01Z</time></trkpt><trkpt lat="44.54257112036564" lon="7.965123351157896"><ele>336.6666666666667</ele><time>2026-04-05T15:07:02Z</time></trkpt><trkpt lat="44.542743246718636" lon="7.965175348795497"><ele>339.0</ele><time>2026-04-05T15:07:03Z</time></trkpt><trkpt lat="44.542920192876" lon="7.9652338289144415"><ele>339.0</ele><time>2026-04-05T15:07:04Z</time></trkpt><trkpt lat="44.54310224977039" lon="7.965296454384456"><ele>339.0</ele><time>2026-04-05T15:07:05Z</time></trkpt><trkpt lat="44.54328044694848" lon="7.965359418650104"><ele>339.0</ele><time>2026-04-05T15:07:06Z</time></trkpt><trkpt lat="44.54344177650555" lon="7.965418053952937"><ele>339.0</ele><time>2026-04-05T15:07:07Z</time></trkpt><trkpt lat="44.54359822868976" lon="7.965443863118016"><ele>339.0</ele><time>2026-04-05T15:07:08Z</time></trkpt><trkpt lat="44.5437701234457" lon="7.965399499191483"><ele>339.0</ele><time>2026-04-05T15:07:09Z</time></trkpt><trkpt lat="44.54394673067929" lon="7.965274278754762"><ele>336.6666666666667</ele><time>2026-04-05T15:07:10Z</time></trkpt><trkpt lat="44.54412532699243" lon="7.965112043866948"><ele>334.33333333333337</ele><time>2026-04-05T15:07:11Z</time></trkpt><trkpt lat="44.54431669142894" lon="7.964954914750058"><ele>332.0</ele><time>2026-04-05T15:07:12Z</time></trkpt><trkpt lat="44.54451394006014" lon="7.964811649400461"><ele>334.0</ele><time>2026-04-05T15:07:13Z</time></trkpt><trkpt lat="44.544709496178626" lon="7.964675073636524"><ele>336.0</ele><time>2026-04-05T15:07:14Z</time></trkpt><trkpt lat="44.544904130406024" lon="7.964538003969611"><ele>338.0</ele><time>2026-04-05T15:07:15Z</time></trkpt><trkpt lat="44.545097639976625" lon="7.964400286566708"><ele>338.0</ele><time>2026-04-05T15:07:16Z</time></trkpt><trkpt lat="44.54529096156416" lon="7.964258289256748"><ele>338.0</ele><time>2026-04-05T15:07:17Z</time></trkpt><trkpt lat="44.545473858144646" lon="7.964124733005161"><ele>338.0</ele><time>2026-04-05T15:07:18Z</time></trkpt><trkpt lat="44.54563796688415" lon="7.964003539310978"><ele>338.0</ele><time>2026-04-05T15:07:19Z</time></trkpt><trkpt lat="44.54580556229596" lon="7.963916689568715"><ele>338.0</ele><time>2026-04-05T15:07:20Z</time></trkpt><trkpt lat="44.54599961848065" lon="7.963877641408138"><ele>338.0</ele><time>2026-04-05T15:07:21Z</time></trkpt><trkpt lat="44.546202992601934" lon="7.963925443112814"><ele>337.6666666666667</ele><time>2026-04-05T15:07:22Z</time></trkpt><trkpt lat="44.54641763633097" lon="7.963962905399488"><ele>337.3333333333333</ele><time>2026-04-05T15:07:23Z</time></trkpt><trkpt lat="44.54663672727429" lon="7.963995757797732"><ele>337.0</ele><time>2026-04-05T15:07:24Z</time></trkpt><trkpt lat="44.5468594641821" lon="7.96404066202633"><ele>340.0</ele><time>2026-04-05T15:07:25Z</time></trkpt><trkpt lat="44.54708408892236" lon="7.964088363729715"><ele>343.0</ele><time>2026-04-05T15:07:26Z</time></trkpt><trkpt lat="44.54730899669195" lon="7.964139801401653"><ele>343.0</ele><time>2026-04-05T15:07:27Z</time></trkpt><trkpt lat="44.54753572651602" lon="7.964184759507062"><ele>343.0</ele><time>2026-04-05T15:07:28Z</time></trkpt><trkpt lat="44.547763294810615" lon="7.964222180014034"><ele>342.3333333333333</ele><time>2026-04-05T15:07:29Z</time></trkpt><trkpt lat="44.54797616044751" lon="7.964256656670564"><ele>341.6666666666667</ele><time>2026-04-05T15:07:30Z</time></trkpt><trkpt lat="44.54816812180396" lon="7.964316245209015"><ele>341.0</ele><time>2026-04-05T15:07:31Z</time></trkpt><trkpt lat="44.548362241061405" lon="7.964353465093083"><ele>341.0</ele><time>2026-04-05T15:07:32Z</time></trkpt><trkpt lat="44.5485597082903" lon="7.964390773372561"><ele>341.0</ele><time>2026-04-05T15:07:33Z</time></trkpt><trkpt lat="44.548753595755635" lon="7.964426136278711"><ele>341.0</ele><time>2026-04-05T15:07:34Z</time></trkpt><trkpt lat="44.54892765367115" lon="7.964457882481991"><ele>342.33333333333337</ele><time>2026-04-05T15:07:35Z</time></trkpt><trkpt lat="44.54909574492619" lon="7.964472847148285"><ele>343.6666666666667</ele><time>2026-04-05T15:07:36Z</time></trkpt><trkpt lat="44.549255873401904" lon="7.9645061563956485"><ele>345.0</ele><time>2026-04-05T15:07:37Z</time></trkpt><trkpt lat="44.549424342611296" lon="7.964531597383662"><ele>344.0</ele><time>2026-04-05T15:07:38Z</time></trkpt><trkpt lat="44.54960359940521" lon="7.9645669195280036"><ele>343.0</ele><time>2026-04-05T15:07:39Z</time></trkpt><trkpt lat="44.5497876262209" lon="7.964608993134515"><ele>342.0</ele><time>2026-04-05T15:07:40Z</time></trkpt><trkpt lat="44.54997871682149" lon="7.9646477139377"><ele>342.0</ele><time>2026-04-05T15:07:41Z</time></trkpt><trkpt lat="44.55016225040529" lon="7.96471118365374"><ele>342.0</ele><time>2026-04-05T15:07:42Z</time></trkpt><trkpt lat="44.550330675598815" lon="7.964726938142956"><ele>342.0</ele><time>2026-04-05T15:07:43Z</time></trkpt><trkpt lat="44.55046629309951" lon="7.964763329615072"><ele>342.5</ele><time>2026-04-05T15:07:44Z</time></trkpt><trkpt lat="44.5505701372481" lon="7.964845833937068"><ele>343.0</ele><time>2026-04-05T15:07:45Z</time></trkpt><trkpt lat="44.550661398492565" lon="7.964968502667573"><ele>343.5</ele><time>2026-04-05T15:07:46Z</time></trkpt><trkpt lat="44.55075791615464" lon="7.965133016026501"><ele>344.0</ele><time>2026-04-05T15:07:47Z</time></trkpt><trkpt lat="44.550873347639715" lon="7.965308898157984"><ele>344.33333333333337</ele><time>2026-04-05T15:07:48Z</time></trkpt><trkpt lat="44.551015232138866" lon="7.9654488407899535"><ele>344.6666666666667</ele><time>2026-04-05T15:07:49Z</time></trkpt><trkpt lat="44.55116994533982" lon="7.96556839275467"><ele>345.0</ele><time>2026-04-05T15:07:50Z</time></trkpt><trkpt lat="44.55133424712002" lon="7.965626273235412"><ele>345.75</ele><time>2026-04-05T15:07:51Z</time></trkpt><trkpt lat="44.551453189363706" lon="7.965710471262435"><ele>346.5</ele><time>2026-04-05T15:07:52Z</time></trkpt><trkpt lat="44.55153549571959" lon="7.965823533845729"><ele>347.25</ele><time>2026-04-05T15:07:53Z</time></trkpt><trkpt lat="44.551567899242734" lon="7.965987776169894"><ele>348.0</ele><time>2026-04-05T15:07:54Z</time></trkpt><trkpt lat="44.55159309046802" lon="7.966188593022548"><ele>348.0</ele><time>2026-04-05T15:07:55Z</time></trkpt><trkpt lat="44.55162604164729" lon="7.966418709017576"><ele>348.0</ele><time>2026-04-05T15:07:56Z</time></trkpt><trkpt lat="44.55168030891433" lon="7.966647911468962"><ele>348.0</ele><time>2026-04-05T15:07:57Z</time></trkpt><trkpt lat="44.551778671158175" lon="7.966846756454937"><ele>350.0</ele><time>2026-04-05T15:07:58Z</time></trkpt><trkpt lat="44.5519085409287" lon="7.967022710257581"><ele>352.0</ele><time>2026-04-05T15:07:59Z</time></trkpt><trkpt lat="44.55207507535696" lon="7.9671745407520875"><ele>354.0</ele><time>2026-04-05T15:08:00Z</time></trkpt><trkpt lat="44.55225217108174" lon="7.967342103790145"><ele>354.0</ele><time>2026-04-05T15:08:01Z</time></trkpt><trkpt lat="44.55242966092768" lon="7.967526528928187"><ele>354.0</ele><time>2026-04-05T15:08:02Z</time></trkpt><trkpt lat="44.5525981704141" lon="7.967706672543267"><ele>354.0</ele><time>2026-04-05T15:08:03Z</time></trkpt><trkpt lat="44.55276611184669" lon="7.967894661020973"><ele>356.0</ele><time>2026-04-05T15:08:04Z</time></trkpt><trkpt lat="44.55289922475598" lon="7.968086265028408"><ele>358.0</ele><time>2026-04-05T15:08:05Z</time></trkpt><trkpt lat="44.55303738215009" lon="7.968225063739572"><ele>360.0</ele><time>2026-04-05T15:08:06Z</time></trkpt><trkpt lat="44.55315623395175" lon="7.9683411198774605"><ele>361.3333333333333</ele><time>2026-04-05T15:08:07Z</time></trkpt><trkpt lat="44.5532997864742" lon="7.968407280887718"><ele>362.66666666666663</ele><time>2026-04-05T15:08:08Z</time></trkpt><trkpt lat="44.5534701977002" lon="7.968445277784778"><ele>364.0</ele><time>2026-04-05T15:08:09Z</time></trkpt><trkpt lat="44.55363775064542" lon="7.9685310252696215"><ele>362.0</ele><time>2026-04-05T15:08:10Z</time></trkpt><trkpt lat="44.55378319468118" lon="7.968676103525145"><ele>360.0</ele><time>2026-04-05T15:08:11Z</time></trkpt><trkpt lat="44.55392731779304" lon="7.968782887545594"><ele>358.0</ele><time>2026-04-05T15:08:12Z</time></trkpt><trkpt lat="44.554078996801046" lon="7.968860269249435"><ele>358.0</ele><time>2026-04-05T15:08:13Z</time></trkpt><trkpt lat="44.55426291743654" lon="7.968872787770985"><ele>358.0</ele><time>2026-04-05T15:08:14Z</time></trkpt><trkpt lat="44.554437848374" lon="7.968838348595925"><ele>358.0</ele><time>2026-04-05T15:08:15Z</time></trkpt><trkpt lat="44.554575608953286" lon="7.968826133197839"><ele>358.5</ele><time>2026-04-05T15:08:16Z</time></trkpt><trkpt lat="44.55469486416328" lon="7.9688698365754185"><ele>359.0</ele><time>2026-04-05T15:08:17Z</time></trkpt><trkpt lat="44.55477591897137" lon="7.969024093612709"><ele>359.5</ele><time>2026-04-05T15:08:18Z</time></trkpt><trkpt lat="44.55486722489346" lon="7.9692055690669985"><ele>360.0</ele><time>2026-04-05T15:08:19Z</time></trkpt><trkpt lat="44.5549929673669" lon="7.96936571148435"><ele>360.0</ele><time>2026-04-05T15:08:20Z</time></trkpt><trkpt lat="44.555120643927" lon="7.969507977220018"><ele>360.0</ele><time>2026-04-05T15:08:21Z</time></trkpt><trkpt lat="44.55528291438837" lon="7.969604663170426"><ele>360.0</ele><time>2026-04-05T15:08:22Z</time></trkpt><trkpt lat="44.55544158884367" lon="7.969698923639341"><ele>360.0</ele><time>2026-04-05T15:08:23Z</time></trkpt><trkpt lat="44.555584638372586" lon="7.969827026116726"><ele>360.0</ele><time>2026-04-05T15:08:24Z</time></trkpt><trkpt lat="44.55573147352441" lon="7.9699109883620896"><ele>360.0</ele><time>2026-04-05T15:08:25Z</time></trkpt><trkpt lat="44.555854828242566" lon="7.970005859653941"><ele>361.25</ele><time>2026-04-05T15:08:26Z</time></trkpt><trkpt lat="44.55596643920481" lon="7.970092431424083"><ele>362.5</ele><time>2026-04-05T15:08:27Z</time></trkpt><trkpt lat="44.55607498400785" lon="7.9701660775552305"><ele>363.75</ele><time>2026-04-05T15:08:28Z</time></trkpt><trkpt lat="44.55619453043457" lon="7.970203660657671"><ele>365.0</ele><time>2026-04-05T15:08:29Z</time></trkpt><trkpt lat="44.55633434276174" lon="7.970194902964425"><ele>365.0</ele><time>2026-04-05T15:08:30Z</time></trkpt><trkpt lat="44.55648053895027" lon="7.970201015203516"><ele>365.0</ele><time>2026-04-05T15:08:31Z</time></trkpt><trkpt lat="44.556630096403254" lon="7.9701880912667"><ele>365.0</ele><time>2026-04-05T15:08:32Z</time></trkpt><trkpt lat="44.556774038483226" lon="7.970152712055119"><ele>365.0</ele><time>2026-04-05T15:08:33Z</time></trkpt><trkpt lat="44.556920859854216" lon="7.9701468945915845"><ele>365.25</ele><time>2026-04-05T15:08:34Z</time></trkpt><trkpt lat="44.557069054515985" lon="7.970133001242903"><ele>365.5</ele><time>2026-04-05T15:08:35Z</time></trkpt><trkpt lat="44.55721801187916" lon="7.970119974193273"><ele>365.75</ele><time>2026-04-05T15:08:36Z</time></trkpt><trkpt lat="44.557361456239065" lon="7.9701118616771405"><ele>366.0</ele><time>2026-04-05T15:08:37Z</time></trkpt><trkpt lat="44.55749883324159" lon="7.9700920615304165"><ele>366.0</ele><time>2026-04-05T15:08:38Z</time></trkpt><trkpt lat="44.5576374964969" lon="7.970059878859723"><ele>366.0</ele><time>2026-04-05T15:08:39Z</time></trkpt><trkpt lat="44.5577755144418" lon="7.969999977294421"><ele>366.0</ele><time>2026-04-05T15:08:40Z</time></trkpt><trkpt lat="44.557915492522916" lon="7.969938545506341"><ele>366.0</ele><time>2026-04-05T15:08:41Z</time></trkpt><trkpt lat="44.558055610426024" lon="7.969952039574824"><ele>366.3333333333333</ele><time>2026-04-05T15:08:42Z</time></trkpt><trkpt lat="44.55818154645895" lon="7.970046708884204"><ele>366.66666666666663</ele><time>2026-04-05T15:08:43Z</time></trkpt><trkpt lat="44.55832214367284" lon="7.970161835140139"><ele>367.0</ele><time>2026-04-05T15:08:44Z</time></trkpt><trkpt lat="44.55846914188151" lon="7.9702770265310745"><ele>367.0</ele><time>2026-04-05T15:08:45Z</time></trkpt><trkpt lat="44.55861952981787" lon="7.970393809306559"><ele>367.0</ele><time>2026-04-05T15:08:46Z</time></trkpt><trkpt lat="44.55877286083918" lon="7.970489794129799"><ele>367.0</ele><time>2026-04-05T15:08:47Z</time></trkpt><trkpt lat="44.55889754138484" lon="7.970586028340716"><ele>367.25</ele><time>2026-04-05T15:08:48Z</time></trkpt><trkpt lat="44.55900340058449" lon="7.97067561671121"><ele>367.5</ele><time>2026-04-05T15:08:49Z</time></trkpt><trkpt lat="44.559126139092115" lon="7.970687075096487"><ele>367.75</ele><time>2026-04-05T15:08:50Z</time></trkpt><trkpt lat="44.55925302103745" lon="7.970661853542036"><ele>368.0</ele><time>2026-04-05T15:08:51Z</time></trkpt><trkpt lat="44.55938571408376" lon="7.9706609491319815"><ele>368.0</ele><time>2026-04-05T15:08:52Z</time></trkpt><trkpt lat="44.55951666501003" lon="7.970643253590413"><ele>368.0</ele><time>2026-04-05T15:08:53Z</time></trkpt><trkpt lat="44.55962602757034" lon="7.970268769394192"><ele>368.0</ele><time>2026-04-05T15:08:54Z</time></trkpt><trkpt lat="44.559752611619345" lon="7.970113973920114"><ele>371.33333333333337</ele><time>2026-04-05T15:08:55Z</time></trkpt><trkpt lat="44.55987872903191" lon="7.9699525688744774"><ele>374.6666666666667</ele><time>2026-04-05T15:08:56Z</time></trkpt><trkpt lat="44.55999022547601" lon="7.96977685911781"><ele>378.0</ele><time>2026-04-05T15:08:57Z</time></trkpt><trkpt lat="44.56009295377276" lon="7.969594170050387"><ele>378.0</ele><time>2026-04-05T15:08:58Z</time></trkpt><trkpt lat="44.560196265556215" lon="7.969417104414157"><ele>378.0</ele><time>2026-04-05T15:08:59Z</time></trkpt><trkpt lat="44.56029986085618" lon="7.969251493209984"><ele>378.0</ele><time>2026-04-05T15:09:00Z</time></trkpt><trkpt lat="44.56039711363426" lon="7.9690936952948475"><ele>381.5</ele><time>2026-04-05T15:09:01Z</time></trkpt><trkpt lat="44.56048609999126" lon="7.968942203401706"><ele>385.0</ele><time>2026-04-05T15:09:02Z</time></trkpt><trkpt lat="44.56056887096527" lon="7.968807686309489"><ele>388.5</ele><time>2026-04-05T15:09:03Z</time></trkpt><trkpt lat="44.56065082734958" lon="7.968674642122693"><ele>392.0</ele><time>2026-04-05T15:09:04Z</time></trkpt><trkpt lat="44.56073413762541" lon="7.96853085995279"><ele>392.0</ele><time>2026-04-05T15:09:05Z</time></trkpt><trkpt lat="44.560819791457476" lon="7.968385202478903"><ele>392.0</ele><time>2026-04-05T15:09:06Z</time></trkpt><trkpt lat="44.56090899360376" lon="7.968240009921108"><ele>392.0</ele><time>2026-04-05T15:09:07Z</time></trkpt><trkpt lat="44.56101822485787" lon="7.968123992911133"><ele>392.0</ele><time>2026-04-05T15:09:08Z</time></trkpt><trkpt lat="44.561106019605006" lon="7.967983081661049"><ele>391.25</ele><time>2026-04-05T15:09:09Z</time></trkpt><trkpt lat="44.56119854309656" lon="7.967867682023003"><ele>390.5</ele><time>2026-04-05T15:09:10Z</time></trkpt><trkpt lat="44.56129560003844" lon="7.967742051657586"><ele>389.75</ele><time>2026-04-05T15:09:11Z</time></trkpt><trkpt lat="44.5613994672181" lon="7.967610389154054"><ele>389.0</ele><time>2026-04-05T15:09:12Z</time></trkpt><trkpt lat="44.561505316558375" lon="7.967472809619842"><ele>391.0</ele><time>2026-04-05T15:09:13Z</time></trkpt><trkpt lat="44.56161580637806" lon="7.967331262666659"><ele>393.0</ele><time>2026-04-05T15:09:14Z</time></trkpt><trkpt lat="44.56173277755878" lon="7.967183629798145"><ele>395.0</ele><time>2026-04-05T15:09:15Z</time></trkpt><trkpt lat="44.5618558966588" lon="7.967022212206446"><ele>395.0</ele><time>2026-04-05T15:09:16Z</time></trkpt><trkpt lat="44.561987627877315" lon="7.966850923426428"><ele>395.0</ele><time>2026-04-05T15:09:17Z</time></trkpt><trkpt lat="44.56212036019592" lon="7.966682107276437"><ele>395.0</ele><time>2026-04-05T15:09:18Z</time></trkpt><trkpt lat="44.56224758773611" lon="7.966517359175308"><ele>396.3333333333333</ele><time>2026-04-05T15:09:19Z</time></trkpt><trkpt lat="44.56237529248713" lon="7.966350615249128"><ele>397.66666666666663</ele><time>2026-04-05T15:09:20Z</time></trkpt><trkpt lat="44.56250166391416" lon="7.966182847486808"><ele>399.0</ele><time>2026-04-05T15:09:21Z</time></trkpt><trkpt lat="44.56262887578536" lon="7.9660138567819665"><ele>399.66666666666663</ele><time>2026-04-05T15:09:22Z</time></trkpt><trkpt lat="44.56275307249119" lon="7.965848858657663"><ele>400.3333333333333</ele><time>2026-04-05T15:09:23Z</time></trkpt><trkpt lat="44.56287738035599" lon="7.965688588982815"><ele>401.0</ele><time>2026-04-05T15:09:24Z</time></trkpt><trkpt lat="44.56300447910841" lon="7.965531401466621"><ele>403.3333333333333</ele><time>2026-04-05T15:09:25Z</time></trkpt><trkpt lat="44.56312520054884" lon="7.965370421865286"><ele>405.66666666666663</ele><time>2026-04-05T15:09:26Z</time></trkpt><trkpt lat="44.56324167869805" lon="7.965207233376595"><ele>408.0</ele><time>2026-04-05T15:09:27Z</time></trkpt><trkpt lat="44.56335968873366" lon="7.965044202807945"><ele>408.66666666666663</ele><time>2026-04-05T15:09:28Z</time></trkpt><trkpt lat="44.56348069668721" lon="7.96489000980083"><ele>409.3333333333333</ele><time>2026-04-05T15:09:29Z</time></trkpt><trkpt lat="44.56360172160097" lon="7.964758626052239"><ele>410.0</ele><time>2026-04-05T15:09:30Z</time></trkpt><trkpt lat="44.563727384078405" lon="7.964665001001464"><ele>410.75</ele><time>2026-04-05T15:09:31Z</time></trkpt><trkpt lat="44.56386886393458" lon="7.964642399047869"><ele>411.5</ele><time>2026-04-05T15:09:32Z</time></trkpt><trkpt lat="44.5640055707542" lon="7.964665972385179"><ele>412.25</ele><time>2026-04-05T15:09:33Z</time></trkpt><trkpt lat="44.56413304072411" lon="7.964725415152291"><ele>413.0</ele><time>2026-04-05T15:09:34Z</time></trkpt><trkpt lat="44.564245925125086" lon="7.964831332003276"><ele>413.0</ele><time>2026-04-05T15:09:35Z</time></trkpt><trkpt lat="44.56432919370441" lon="7.9649620141401725"><ele>413.0</ele><time>2026-04-05T15:09:36Z</time></trkpt><trkpt lat="44.56439014677073" lon="7.965032193718634"><ele>413.0</ele><time>2026-04-05T15:09:37Z</time></trkpt><trkpt lat="44.56442426416154" lon="7.96512965517857"><ele>413.0</ele><time>2026-04-05T15:09:49Z</time></trkpt><trkpt lat="44.56451535601378" lon="7.965284976159717"><ele>413.0</ele><time>2026-04-05T15:09:51Z</time></trkpt><trkpt lat="44.56458336427817" lon="7.965383164947557"><ele>412.0</ele><time>2026-04-05T15:09:52Z</time></trkpt><trkpt lat="44.56466434986202" lon="7.965480961200686"><ele>411.0</ele><time>2026-04-05T15:09:53Z</time></trkpt><trkpt lat="44.564747489843164" lon="7.965570159618792"><ele>410.0</ele><time>2026-04-05T15:09:54Z</time></trkpt><trkpt lat="44.56482785268106" lon="7.96565319277945"><ele>409.0</ele><time>2026-04-05T15:09:55Z</time></trkpt><trkpt lat="44.564909777361855" lon="7.965749418649683"><ele>408.0</ele><time>2026-04-05T15:09:56Z</time></trkpt><trkpt lat="44.564981431824044" lon="7.965859818997925"><ele>408.59999999999997</ele><time>2026-04-05T15:09:57Z</time></trkpt><trkpt lat="44.56503127323196" lon="7.965988578246485"><ele>409.2</ele><time>2026-04-05T15:09:58Z</time></trkpt><trkpt lat="44.56504582695398" lon="7.966124178643689"><ele>409.8</ele><time>2026-04-05T15:09:59Z</time></trkpt><trkpt lat="44.565043370427034" lon="7.966276493037946"><ele>410.4</ele><time>2026-04-05T15:10:00Z</time></trkpt><trkpt lat="44.56503873849951" lon="7.9664318929956845"><ele>411.0</ele><time>2026-04-05T15:10:01Z</time></trkpt><trkpt lat="44.56503865118453" lon="7.96659294104782"><ele>411.6</ele><time>2026-04-05T15:10:02Z</time></trkpt><trkpt lat="44.565041358394744" lon="7.966751739446377"><ele>412.20000000000005</ele><time>2026-04-05T15:10:03Z</time></trkpt><trkpt lat="44.565041502257145" lon="7.96688883998089"><ele>412.79999999999995</ele><time>2026-04-05T15:10:04Z</time></trkpt><trkpt lat="44.5650414814341" lon="7.967011955825852"><ele>413.4</ele><time>2026-04-05T15:10:05Z</time></trkpt><trkpt lat="44.56504535904002" lon="7.967127216110122"><ele>414.0</ele><time>2026-04-05T15:10:06Z</time></trkpt><trkpt lat="44.56504961443518" lon="7.967245229664842"><ele>414.0</ele><time>2026-04-05T15:10:07Z</time></trkpt><trkpt lat="44.56505266587325" lon="7.967377484496503"><ele>414.0</ele><time>2026-04-05T15:10:08Z</time></trkpt><trkpt lat="44.56506714405034" lon="7.967511861548445"><ele>414.0</ele><time>2026-04-05T15:10:09Z</time></trkpt><trkpt lat="44.565101284418105" lon="7.967646332912306"><ele>414.0</ele><time>2026-04-05T15:10:10Z</time></trkpt><trkpt lat="44.565154572290524" lon="7.967774961885398"><ele>414.0</ele><time>2026-04-05T15:10:11Z</time></trkpt><trkpt lat="44.565227412964504" lon="7.967896605621662"><ele>413.0</ele><time>2026-04-05T15:10:12Z</time></trkpt><trkpt lat="44.565313860035396" lon="7.968002917490068"><ele>412.0</ele><time>2026-04-05T15:10:13Z</time></trkpt><trkpt lat="44.56541385829969" lon="7.968089799735208"><ele>411.0</ele><time>2026-04-05T15:10:14Z</time></trkpt><trkpt lat="44.56551869117415" lon="7.968161635424464"><ele>410.0</ele><time>2026-04-05T15:10:15Z</time></trkpt><trkpt lat="44.56562768869653" lon="7.9682313059711385"><ele>410.0</ele><time>2026-04-05T15:10:16Z</time></trkpt><trkpt lat="44.56573936355298" lon="7.968301623318826"><ele>410.0</ele><time>2026-04-05T15:10:17Z</time></trkpt><trkpt lat="44.56585430053644" lon="7.968368124236264"><ele>410.0</ele><time>2026-04-05T15:10:18Z</time></trkpt><trkpt lat="44.56597042773924" lon="7.96842957622883"><ele>410.0</ele><time>2026-04-05T15:10:19Z</time></trkpt><trkpt lat="44.56607463595674" lon="7.968481383759221"><ele>411.8333333333333</ele><time>2026-04-05T15:10:20Z</time></trkpt><trkpt lat="44.566168359578164" lon="7.96852827774821"><ele>413.66666666666663</ele><time>2026-04-05T15:10:21Z</time></trkpt><trkpt lat="44.56625903433739" lon="7.968560617071129"><ele>415.5</ele><time>2026-04-05T15:10:22Z</time></trkpt><trkpt lat="44.56634389905451" lon="7.968572813416292"><ele>417.33333333333337</ele><time>2026-04-05T15:10:23Z</time></trkpt><trkpt lat="44.566426126282614" lon="7.968562628819333"><ele>419.1666666666667</ele><time>2026-04-05T15:10:24Z</time></trkpt><trkpt lat="44.566505236868196" lon="7.9685432606777065"><ele>421.0</ele><time>2026-04-05T15:10:25Z</time></trkpt><trkpt lat="44.56659347030482" lon="7.968514550717846"><ele>421.0</ele><time>2026-04-05T15:10:26Z</time></trkpt><trkpt lat="44.566684143417525" lon="7.968497728123016"><ele>421.0</ele><time>2026-04-05T15:10:27Z</time></trkpt><trkpt lat="44.566774729032986" lon="7.968467803117347"><ele>421.0</ele><time>2026-04-05T15:10:28Z</time></trkpt><trkpt lat="44.56686691693588" lon="7.968425691304111"><ele>421.0</ele><time>2026-04-05T15:10:29Z</time></trkpt><trkpt lat="44.566963215694344" lon="7.968394557976594"><ele>421.0</ele><time>2026-04-05T15:10:30Z</time></trkpt><trkpt lat="44.56705813730525" lon="7.968365053608371"><ele>419.20000000000005</ele><time>2026-04-05T15:10:31Z</time></trkpt><trkpt lat="44.567151568309335" lon="7.968320050671699"><ele>417.40000000000003</ele><time>2026-04-05T15:10:32Z</time></trkpt><trkpt lat="44.56723886694472" lon="7.968273076380547"><ele>415.6</ele><time>2026-04-05T15:10:33Z</time></trkpt><trkpt lat="44.567315302400274" lon="7.96822915069168"><ele>413.8</ele><time>2026-04-05T15:10:34Z</time></trkpt><trkpt lat="44.56738673813707" lon="7.968190202128973"><ele>412.0</ele><time>2026-04-05T15:10:35Z</time></trkpt><trkpt lat="44.56749474715206" lon="7.968134658985915"><ele>412.0</ele><time>2026-04-05T15:10:37Z</time></trkpt><trkpt lat="44.56756455013201" lon="7.968079046990871"><ele>412.0</ele><time>2026-04-05T15:10:52Z</time></trkpt><trkpt lat="44.56765985448983" lon="7.967976893575122"><ele>412.0</ele><time>2026-04-05T15:10:54Z</time></trkpt><trkpt lat="44.567735144586734" lon="7.967924135637836"><ele>412.0</ele><time>2026-04-05T15:10:55Z</time></trkpt><trkpt lat="44.56782854815286" lon="7.967879981414391"><ele>412.0</ele><time>2026-04-05T15:10:56Z</time></trkpt><trkpt lat="44.56792352405579" lon="7.967849526358523"><ele>413.0</ele><time>2026-04-05T15:10:57Z</time></trkpt><trkpt lat="44.56802175292832" lon="7.967830134439511"><ele>414.0</ele><time>2026-04-05T15:10:58Z</time></trkpt><trkpt lat="44.568124501831235" lon="7.967821698028474"><ele>415.0</ele><time>2026-04-05T15:10:59Z</time></trkpt><trkpt lat="44.56822997452941" lon="7.967823826604958"><ele>416.0</ele><time>2026-04-05T15:11:00Z</time></trkpt><trkpt lat="44.56833647054025" lon="7.967841219817839"><ele>417.0</ele><time>2026-04-05T15:11:01Z</time></trkpt><trkpt lat="44.56844157864034" lon="7.967866013993188"><ele>417.0</ele><time>2026-04-05T15:11:02Z</time></trkpt><trkpt lat="44.568543850508355" lon="7.967900115382441"><ele>417.0</ele><time>2026-04-05T15:11:03Z</time></trkpt><trkpt lat="44.56864887334636" lon="7.9679324038285655"><ele>417.0</ele><time>2026-04-05T15:11:04Z</time></trkpt><trkpt lat="44.56875712079405" lon="7.967965306311021"><ele>417.0</ele><time>2026-04-05T15:11:05Z</time></trkpt><trkpt lat="44.56887065919467" lon="7.968004198299538"><ele>417.0</ele><time>2026-04-05T15:11:06Z</time></trkpt><trkpt lat="44.56897965808362" lon="7.968050260744715"><ele>415.0</ele><time>2026-04-05T15:11:07Z</time></trkpt><trkpt lat="44.569091064521054" lon="7.968090641404298"><ele>413.0</ele><time>2026-04-05T15:11:08Z</time></trkpt><trkpt lat="44.5692065599792" lon="7.968125819763404"><ele>411.0</ele><time>2026-04-05T15:11:09Z</time></trkpt><trkpt lat="44.569323087078295" lon="7.968162441058962"><ele>409.0</ele><time>2026-04-05T15:11:10Z</time></trkpt><trkpt lat="44.56944249148801" lon="7.968198604444526"><ele>409.0</ele><time>2026-04-05T15:11:11Z</time></trkpt><trkpt lat="44.56956172954402" lon="7.968236216704725"><ele>409.0</ele><time>2026-04-05T15:11:12Z</time></trkpt><trkpt lat="44.56968415563163" lon="7.968269380659401"><ele>409.0</ele><time>2026-04-05T15:11:13Z</time></trkpt><trkpt lat="44.56980851588722" lon="7.968286803329606"><ele>409.0</ele><time>2026-04-05T15:11:14Z</time></trkpt><trkpt lat="44.569933003554915" lon="7.968278265470826"><ele>409.0</ele><time>2026-04-05T15:11:15Z</time></trkpt><trkpt lat="44.57005759546703" lon="7.9682530024437614"><ele>409.0</ele><time>2026-04-05T15:11:16Z</time></trkpt><trkpt lat="44.57018120180035" lon="7.96822214270131"><ele>409.0</ele><time>2026-04-05T15:11:17Z</time></trkpt><trkpt lat="44.57030633699391" lon="7.968210800827951"><ele>409.0</ele><time>2026-04-05T15:11:18Z</time></trkpt><trkpt lat="44.570431322338386" lon="7.96822456469912"><ele>411.25</ele><time>2026-04-05T15:11:19Z</time></trkpt><trkpt lat="44.57055683668626" lon="7.9682485987779215"><ele>413.5</ele><time>2026-04-05T15:11:20Z</time></trkpt><trkpt lat="44.5706847765995" lon="7.968266985990781"><ele>415.75</ele><time>2026-04-05T15:11:21Z</time></trkpt><trkpt lat="44.570815925339176" lon="7.968267967444483"><ele>418.0</ele><time>2026-04-05T15:11:22Z</time></trkpt><trkpt lat="44.57094697178523" lon="7.968241821213327"><ele>418.0</ele><time>2026-04-05T15:11:23Z</time></trkpt><trkpt lat="44.57107605525275" lon="7.968193994638296"><ele>418.0</ele><time>2026-04-05T15:11:24Z</time></trkpt><trkpt lat="44.571195472453354" lon="7.968132416553318"><ele>418.0</ele><time>2026-04-05T15:11:25Z</time></trkpt><trkpt lat="44.57129941166013" lon="7.968070097954194"><ele>418.0</ele><time>2026-04-05T15:11:26Z</time></trkpt><trkpt lat="44.57140763698247" lon="7.968028330676269"><ele>418.0</ele><time>2026-04-05T15:11:27Z</time></trkpt><trkpt lat="44.57151446746549" lon="7.9680377775476545"><ele>418.0</ele><time>2026-04-05T15:11:28Z</time></trkpt><trkpt lat="44.57161836032644" lon="7.968081920547003"><ele>418.0</ele><time>2026-04-05T15:11:29Z</time></trkpt><trkpt lat="44.57173018016478" lon="7.968152447044644"><ele>418.0</ele><time>2026-04-05T15:11:30Z</time></trkpt><trkpt lat="44.571845967797465" lon="7.968228764282456"><ele>418.0</ele><time>2026-04-05T15:11:31Z</time></trkpt><trkpt lat="44.57196773112052" lon="7.968300131536984"><ele>418.0</ele><time>2026-04-05T15:11:32Z</time></trkpt><trkpt lat="44.57209206586353" lon="7.9683803177563295"><ele>418.0</ele><time>2026-04-05T15:11:33Z</time></trkpt><trkpt lat="44.5722196729574" lon="7.968459547052049"><ele>418.0</ele><time>2026-04-05T15:11:34Z</time></trkpt><trkpt lat="44.572347981505125" lon="7.968530924134332"><ele>417.25</ele><time>2026-04-05T15:11:35Z</time></trkpt><trkpt lat="44.57247103236164" lon="7.968599189432208"><ele>416.5</ele><time>2026-04-05T15:11:36Z</time></trkpt><trkpt lat="44.57258932898464" lon="7.96867056896544"><ele>415.75</ele><time>2026-04-05T15:11:37Z</time></trkpt><trkpt lat="44.57270961692064" lon="7.968745206626603"><ele>415.0</ele><time>2026-04-05T15:11:38Z</time></trkpt><trkpt lat="44.57282651820401" lon="7.968827829461875"><ele>413.75</ele><time>2026-04-05T15:11:39Z</time></trkpt><trkpt lat="44.57293616787728" lon="7.968917814690561"><ele>412.5</ele><time>2026-04-05T15:11:40Z</time></trkpt><trkpt lat="44.573030934017694" lon="7.969031092243751"><ele>411.25</ele><time>2026-04-05T15:11:41Z</time></trkpt><trkpt lat="44.57310499885139" lon="7.969159573775736"><ele>410.0</ele><time>2026-04-05T15:11:42Z</time></trkpt><trkpt lat="44.573170567805725" lon="7.969289116210058"><ele>410.0</ele><time>2026-04-05T15:11:43Z</time></trkpt><trkpt lat="44.573238256526544" lon="7.969414085958753"><ele>410.0</ele><time>2026-04-05T15:11:44Z</time></trkpt><trkpt lat="44.573314083513914" lon="7.969529160387642"><ele>410.0</ele><time>2026-04-05T15:11:45Z</time></trkpt><trkpt lat="44.573403777543426" lon="7.969624252829115"><ele>410.0</ele><time>2026-04-05T15:11:46Z</time></trkpt><trkpt lat="44.57350425996895" lon="7.969700305026598"><ele>410.0</ele><time>2026-04-05T15:11:47Z</time></trkpt><trkpt lat="44.57361597821026" lon="7.969753575725173"><ele>410.0</ele><time>2026-04-05T15:11:48Z</time></trkpt><trkpt lat="44.573732717293" lon="7.969807422509932"><ele>410.0</ele><time>2026-04-05T15:11:49Z</time></trkpt><trkpt lat="44.57385307652258" lon="7.9698578510374976"><ele>410.0</ele><time>2026-04-05T15:11:50Z</time></trkpt><trkpt lat="44.573976031341516" lon="7.969902516512557"><ele>409.25</ele><time>2026-04-05T15:11:51Z</time></trkpt><trkpt lat="44.57410381777631" lon="7.969942621806864"><ele>408.5</ele><time>2026-04-05T15:11:52Z</time></trkpt><trkpt lat="44.57423020162521" lon="7.96998144082929"><ele>407.75</ele><time>2026-04-05T15:11:53Z</time></trkpt><trkpt lat="44.5743393994968" lon="7.970018522500518"><ele>407.0</ele><time>2026-04-05T15:11:54Z</time></trkpt><trkpt lat="44.574414915149724" lon="7.970041951595653"><ele>406.99999999999994</ele><time>2026-04-05T15:11:55Z</time></trkpt><trkpt lat="44.57448917235931" lon="7.9700741428864434"><ele>407.0</ele><time>2026-04-05T15:11:57Z</time></trkpt><trkpt lat="44.57455941573817" lon="7.970115225060877"><ele>407.0</ele><time>2026-04-05T15:12:00Z</time></trkpt><trkpt lat="44.574639430294376" lon="7.9700920745277815"><ele>407.0</ele><time>2026-04-05T15:13:25.001Z</time></trkpt><trkpt lat="44.57470595171812" lon="7.970090846394793"><ele>406.99999999999994</ele><time>2026-04-05T15:13:26.001Z</time></trkpt><trkpt lat="44.57478549419016" lon="7.970134030369123"><ele>407.0</ele><time>2026-04-05T15:13:27.001Z</time></trkpt><trkpt lat="44.574887256553986" lon="7.9701807379358405"><ele>408.8</ele><time>2026-04-05T15:13:28.001Z</time></trkpt><trkpt lat="44.574978459705406" lon="7.970229372407518"><ele>410.6</ele><time>2026-04-05T15:13:29.001Z</time></trkpt><trkpt lat="44.57508151911227" lon="7.970255741093714"><ele>412.40000000000003</ele><time>2026-04-05T15:13:30.001Z</time></trkpt><trkpt lat="44.5751838884298" lon="7.970303898052686"><ele>414.20000000000005</ele><time>2026-04-05T15:13:31.001Z</time></trkpt><trkpt lat="44.57528957682568" lon="7.97034386748295"><ele>416.0</ele><time>2026-04-05T15:13:32.001Z</time></trkpt><trkpt lat="44.57539741228496" lon="7.970381914263872"><ele>418.0</ele><time>2026-04-05T15:13:33.001Z</time></trkpt><trkpt lat="44.57550839017035" lon="7.970426941807975"><ele>420.0</ele><time>2026-04-05T15:13:34.001Z</time></trkpt><trkpt lat="44.575618998616385" lon="7.970473981041744"><ele>422.0</ele><time>2026-04-05T15:13:35.001Z</time></trkpt><trkpt lat="44.57572934517062" lon="7.97051716479167"><ele>424.0</ele><time>2026-04-05T15:13:36.001Z</time></trkpt><trkpt lat="44.5758415901895" lon="7.970546378565495"><ele>424.0</ele><time>2026-04-05T15:13:37.001Z</time></trkpt><trkpt lat="44.57596051933254" lon="7.970552726827272"><ele>424.0</ele><time>2026-04-05T15:13:38.001Z</time></trkpt><trkpt lat="44.57607357522589" lon="7.970524777737419"><ele>424.0</ele><time>2026-04-05T15:13:39.001Z</time></trkpt><trkpt lat="44.576186982191594" lon="7.970460886489872"><ele>424.0</ele><time>2026-04-05T15:13:40.001Z</time></trkpt><trkpt lat="44.57630035084896" lon="7.970381946511761"><ele>424.25</ele><time>2026-04-05T15:13:41.001Z</time></trkpt><trkpt lat="44.576412010002635" lon="7.970294758199195"><ele>424.5</ele><time>2026-04-05T15:13:42.001Z</time></trkpt><trkpt lat="44.57653407042483" lon="7.970222852332986"><ele>424.75</ele><time>2026-04-05T15:13:43.001Z</time></trkpt><trkpt lat="44.57666768011015" lon="7.97018025944332"><ele>425.0</ele><time>2026-04-05T15:13:44.001Z</time></trkpt><trkpt lat="44.57680019813477" lon="7.9701411867015555"><ele>425.0</ele><time>2026-04-05T15:13:45.001Z</time></trkpt><trkpt lat="44.576938515054714" lon="7.97012092235975"><ele>425.0</ele><time>2026-04-05T15:13:46.001Z</time></trkpt><trkpt lat="44.57707733084425" lon="7.970126844102363"><ele>425.0</ele><time>2026-04-05T15:13:47.001Z</time></trkpt><trkpt lat="44.5771891770125" lon="7.970097668477909"><ele>425.0</ele><time>2026-04-05T15:13:48.001Z</time></trkpt><trkpt lat="44.57730467236105" lon="7.970122124106892"><ele>426.2</ele><time>2026-04-05T15:13:49.001Z</time></trkpt><trkpt lat="44.577413883702306" lon="7.970165129284412"><ele>427.4</ele><time>2026-04-05T15:13:50.001Z</time></trkpt><trkpt lat="44.57750997539521" lon="7.970233433934798"><ele>428.6</ele><time>2026-04-05T15:13:51.001Z</time></trkpt><trkpt lat="44.57759731400156" lon="7.970312195943474"><ele>429.8</ele><time>2026-04-05T15:13:52.001Z</time></trkpt><trkpt lat="44.57768862076279" lon="7.970384762359538"><ele>431.0</ele><time>2026-04-05T15:13:53.001Z</time></trkpt><trkpt lat="44.57778375374303" lon="7.970430853818708"><ele>430.5</ele><time>2026-04-05T15:13:54.001Z</time></trkpt><trkpt lat="44.57788937332866" lon="7.970430021535082"><ele>430.0</ele><time>2026-04-05T15:13:55.001Z</time></trkpt><trkpt lat="44.57799358503118" lon="7.970375690897249"><ele>429.5</ele><time>2026-04-05T15:13:56.001Z</time></trkpt><trkpt lat="44.57808233773995" lon="7.970274179223355"><ele>429.0</ele><time>2026-04-05T15:13:57.001Z</time></trkpt><trkpt lat="44.57815074796471" lon="7.970132167796642"><ele>432.75</ele><time>2026-04-05T15:13:58.001Z</time></trkpt><trkpt lat="44.5782145739491" lon="7.969982851473274"><ele>436.5</ele><time>2026-04-05T15:13:59.001Z</time></trkpt><trkpt lat="44.57828446601722" lon="7.969837897430253"><ele>440.25</ele><time>2026-04-05T15:14:00.001Z</time></trkpt><trkpt lat="44.57835458963569" lon="7.969692429459953"><ele>444.0</ele><time>2026-04-05T15:14:01.001Z</time></trkpt><trkpt lat="44.57842349923152" lon="7.969544153120112"><ele>444.0</ele><time>2026-04-05T15:14:02.001Z</time></trkpt><trkpt lat="44.57848256822253" lon="7.96940774469216"><ele>444.0</ele><time>2026-04-05T15:14:03.001Z</time></trkpt><trkpt lat="44.578536579475156" lon="7.969289331539233"><ele>444.0</ele><time>2026-04-05T15:14:04.001Z</time></trkpt><trkpt lat="44.57859292285324" lon="7.969181549925236"><ele>444.0</ele><time>2026-04-05T15:14:05.001Z</time></trkpt><trkpt lat="44.578648240493415" lon="7.969071959094188"><ele>444.0</ele><time>2026-04-05T15:14:06.001Z</time></trkpt><trkpt lat="44.57870677210499" lon="7.968973854222051"><ele>444.79999999999995</ele><time>2026-04-05T15:14:07.001Z</time></trkpt><trkpt lat="44.578770666673634" lon="7.968888414654937"><ele>445.59999999999997</ele><time>2026-04-05T15:14:08.001Z</time></trkpt><trkpt lat="44.57884064152641" lon="7.968819587666957"><ele>446.4</ele><time>2026-04-05T15:14:09.001Z</time></trkpt><trkpt lat="44.57892022196411" lon="7.968759616979494"><ele>447.2</ele><time>2026-04-05T15:14:10.001Z</time></trkpt><trkpt lat="44.579011362062396" lon="7.968710420815374"><ele>448.0</ele><time>2026-04-05T15:14:11.001Z</time></trkpt><trkpt lat="44.5791073060487" lon="7.968673627771536"><ele>448.0</ele><time>2026-04-05T15:14:12.001Z</time></trkpt><trkpt lat="44.579209735123555" lon="7.96865442636917"><ele>447.99999999999994</ele><time>2026-04-05T15:14:13.001Z</time></trkpt><trkpt lat="44.57931981490569" lon="7.96865608343634"><ele>447.99999999999994</ele><time>2026-04-05T15:14:14.001Z</time></trkpt><trkpt lat="44.57943149864787" lon="7.968684218549551"><ele>448.0</ele><time>2026-04-05T15:14:15.001Z</time></trkpt><trkpt lat="44.57954070664653" lon="7.968717875544036"><ele>448.0</ele><time>2026-04-05T15:14:16.001Z</time></trkpt><trkpt lat="44.579649625259485" lon="7.968732488087135"><ele>449.75</ele><time>2026-04-05T15:14:17.001Z</time></trkpt><trkpt lat="44.57975142982636" lon="7.9687488664264166"><ele>451.5</ele><time>2026-04-05T15:14:18.001Z</time></trkpt><trkpt lat="44.57986401191947" lon="7.968774103013715"><ele>453.25</ele><time>2026-04-05T15:14:19.001Z</time></trkpt><trkpt lat="44.57997943417948" lon="7.968800862071877"><ele>455.0</ele><time>2026-04-05T15:14:20.001Z</time></trkpt><trkpt lat="44.58009656249186" lon="7.968827823592015"><ele>455.0</ele><time>2026-04-05T15:14:21.001Z</time></trkpt><trkpt lat="44.58021635913798" lon="7.9688559956448834"><ele>455.0</ele><time>2026-04-05T15:14:22.001Z</time></trkpt><trkpt lat="44.58033816087609" lon="7.968880104127246"><ele>455.0</ele><time>2026-04-05T15:14:23.001Z</time></trkpt><trkpt lat="44.58045767906457" lon="7.968871866856475"><ele>455.0</ele><time>2026-04-05T15:14:24.001Z</time></trkpt><trkpt lat="44.5805678753889" lon="7.968851762562951"><ele>456.0</ele><time>2026-04-05T15:14:25.001Z</time></trkpt><trkpt lat="44.580665290503276" lon="7.968825329605665"><ele>457.0</ele><time>2026-04-05T15:14:26.001Z</time></trkpt><trkpt lat="44.58075443375135" lon="7.968791595568168"><ele>458.0</ele><time>2026-04-05T15:14:27.001Z</time></trkpt><trkpt lat="44.580842112286604" lon="7.968764392125231"><ele>459.0</ele><time>2026-04-05T15:14:28.001Z</time></trkpt><trkpt lat="44.580929946167046" lon="7.968742946375976"><ele>460.0</ele><time>2026-04-05T15:14:29.001Z</time></trkpt><trkpt lat="44.581017374559806" lon="7.968687447782073"><ele>460.00000000000006</ele><time>2026-04-05T15:14:30.001Z</time></trkpt><trkpt lat="44.5811040536814" lon="7.968646681497602"><ele>460.0</ele><time>2026-04-05T15:14:31.001Z</time></trkpt><trkpt lat="44.58118556553157" lon="7.968613207333755"><ele>460.0</ele><time>2026-04-05T15:14:32.001Z</time></trkpt><trkpt lat="44.5812647712716" lon="7.968585287943086"><ele>460.0</ele><time>2026-04-05T15:14:33.001Z</time></trkpt><trkpt lat="44.581346590090256" lon="7.968543884553834"><ele>460.00000000000006</ele><time>2026-04-05T15:14:34.001Z</time></trkpt><trkpt lat="44.58143269973757" lon="7.968518827080928"><ele>460.0</ele><time>2026-04-05T15:14:35.001Z</time></trkpt><trkpt lat="44.58151070937046" lon="7.968478696242961"><ele>461.2</ele><time>2026-04-05T15:14:36.001Z</time></trkpt><trkpt lat="44.58160529548803" lon="7.968461761957972"><ele>462.4</ele><time>2026-04-05T15:14:37.001Z</time></trkpt><trkpt lat="44.58169864788141" lon="7.968425492525506"><ele>463.6</ele><time>2026-04-05T15:14:38.001Z</time></trkpt><trkpt lat="44.581777353013855" lon="7.968394913761779"><ele>464.8</ele><time>2026-04-05T15:14:39.001Z</time></trkpt><trkpt lat="44.581839903259386" lon="7.96837061157239"><ele>466.0</ele><time>2026-04-05T15:14:40.001Z</time></trkpt><trkpt lat="44.58195433940798" lon="7.9683261506466"><ele>466.8</ele><time>2026-04-05T15:14:42.001Z</time></trkpt><trkpt lat="44.58206925698019" lon="7.968280956734648"><ele>467.6</ele><time>2026-04-05T15:14:44.001Z</time></trkpt><trkpt lat="44.582172654947456" lon="7.968254582816777"><ele>468.4</ele><time>2026-04-05T15:14:46.001Z</time></trkpt><trkpt lat="44.58225600472536" lon="7.96836813968604"><ele>469.2</ele><time>2026-04-05T15:14:48.001Z</time></trkpt><trkpt lat="44.582247770008266" lon="7.968508873351574"><ele>470.0</ele><time>2026-04-05T15:14:50.001Z</time></trkpt><trkpt lat="44.582296494848165" lon="7.96860200026446"><ele>469.99999999999994</ele><time>2026-04-05T15:14:52.001Z</time></trkpt><trkpt lat="44.58230324413889" lon="7.968695247666383"><ele>470.0</ele><time>2026-04-05T15:14:54.001Z</time></trkpt><trkpt lat="44.582312550074995" lon="7.968803990233058"><ele>470.0</ele><time>2026-04-05T15:14:56.001Z</time></trkpt><trkpt lat="44.58234198885414" lon="7.96889553018279"><ele>470.0</ele><time>2026-04-05T15:14:58.001Z</time></trkpt><trkpt lat="44.58237131272137" lon="7.968987126631657"><ele>469.99999999999994</ele><time>2026-04-05T15:15:00.001Z</time></trkpt><trkpt lat="44.58239761218201" lon="7.969075352122063"><ele>470.0</ele><time>2026-04-05T15:15:03.001Z</time></trkpt><trkpt lat="44.58250981682204" lon="7.9690171895661495"><ele>470.0</ele><time>2026-04-05T15:15:05.001Z</time></trkpt><trkpt lat="44.58260055681363" lon="7.968904621208955"><ele>470.0</ele><time>2026-04-05T15:15:07.001Z</time></trkpt><trkpt lat="44.58265414545909" lon="7.968847268916584"><ele>470.0</ele><time>2026-04-05T15:15:08.001Z</time></trkpt><trkpt lat="44.58270817410329" lon="7.968792990815075"><ele>470.0</ele><time>2026-04-05T15:15:09.001Z</time></trkpt><trkpt lat="44.58276281055908" lon="7.968726775269016"><ele>470.0</ele><time>2026-04-05T15:15:10.001Z</time></trkpt><trkpt lat="44.58284563283385" lon="7.9685840202904705"><ele>471.66666666666663</ele><time>2026-04-05T15:15:12.001Z</time></trkpt><trkpt lat="44.5828756121576" lon="7.968492275360478"><ele>473.3333333333333</ele><time>2026-04-05T15:15:13.001Z</time></trkpt><trkpt lat="44.58288121552455" lon="7.968389134101211"><ele>475.0</ele><time>2026-04-05T15:15:14.001Z</time></trkpt><trkpt lat="44.58288702537127" lon="7.968291571332155"><ele>476.66666666666663</ele><time>2026-04-05T15:15:15.001Z</time></trkpt><trkpt lat="44.58289229709655" lon="7.9681961668117856"><ele>478.3333333333333</ele><time>2026-04-05T15:15:16.001Z</time></trkpt><trkpt lat="44.58290273320342" lon="7.96806174917016"><ele>480.0</ele><time>2026-04-05T15:15:18.001Z</time></trkpt><trkpt lat="44.58291706858676" lon="7.967936554334151"><ele>480.0</ele><time>2026-04-05T15:15:20.001Z</time></trkpt><trkpt lat="44.582915924795856" lon="7.967830293183215"><ele>480.0</ele><time>2026-04-05T15:15:22.001Z</time></trkpt><trkpt lat="44.58306106622819" lon="7.9678251890574385"><ele>480.0</ele><time>2026-04-05T15:15:23.001Z</time></trkpt><trkpt lat="44.58316421604178" lon="7.967718952719329"><ele>480.0</ele><time>2026-04-05T15:15:25.001Z</time></trkpt><trkpt lat="44.58325737494841" lon="7.9675902258703175"><ele>479.14285714285717</ele><time>2026-04-05T15:15:27.001Z</time></trkpt><trkpt lat="44.58331470659622" lon="7.967524915176963"><ele>478.2857142857142</ele><time>2026-04-05T15:15:28.001Z</time></trkpt><trkpt lat="44.583374707955244" lon="7.967446227009441"><ele>477.4285714285714</ele><time>2026-04-05T15:15:29.001Z</time></trkpt><trkpt lat="44.58343296733693" lon="7.9673780950906545"><ele>476.57142857142856</ele><time>2026-04-05T15:15:30.001Z</time></trkpt><trkpt lat="44.58349257864317" lon="7.967332260934596"><ele>475.71428571428567</ele><time>2026-04-05T15:15:31.001Z</time></trkpt><trkpt lat="44.583543541855626" lon="7.967269090054297"><ele>474.8571428571428</ele><time>2026-04-05T15:15:32.001Z</time></trkpt><trkpt lat="44.58359671071731" lon="7.967204240888838"><ele>473.99999999999994</ele><time>2026-04-05T15:15:33.001Z</time></trkpt><trkpt lat="44.5836578794368" lon="7.9671296343736415"><ele>472.79999999999995</ele><time>2026-04-05T15:15:34.001Z</time></trkpt><trkpt lat="44.58372721294053" lon="7.96704444972901"><ele>471.59999999999997</ele><time>2026-04-05T15:15:35.001Z</time></trkpt><trkpt lat="44.58379474426907" lon="7.966930731499467"><ele>470.4</ele><time>2026-04-05T15:15:36.001Z</time></trkpt><trkpt lat="44.583882344191956" lon="7.966851720504391"><ele>469.2</ele><time>2026-04-05T15:15:37.001Z</time></trkpt><trkpt lat="44.58394738355783" lon="7.966749137387709"><ele>468.0</ele><time>2026-04-05T15:15:38.001Z</time></trkpt><trkpt lat="44.58402230946025" lon="7.9666549319029745"><ele>468.0</ele><time>2026-04-05T15:15:39.001Z</time></trkpt><trkpt lat="44.5840988246545" lon="7.966560532693322"><ele>467.99999999999994</ele><time>2026-04-05T15:15:40.001Z</time></trkpt><trkpt lat="44.584179695747885" lon="7.966496003606628"><ele>467.99999999999994</ele><time>2026-04-05T15:15:41.001Z</time></trkpt><trkpt lat="44.58425630649056" lon="7.96640270014611"><ele>468.0</ele><time>2026-04-05T15:15:42.001Z</time></trkpt><trkpt lat="44.584329726990504" lon="7.966310908294225"><ele>468.0</ele><time>2026-04-05T15:15:43.001Z</time></trkpt><trkpt lat="44.58440279554738" lon="7.96622689130984"><ele>468.0</ele><time>2026-04-05T15:15:44.001Z</time></trkpt><trkpt lat="44.5844804226187" lon="7.966144703928552"><ele>467.99999999999994</ele><time>2026-04-05T15:15:45.001Z</time></trkpt><trkpt lat="44.58457019035208" lon="7.966061224928454"><ele>467.99999999999994</ele><time>2026-04-05T15:15:46.001Z</time></trkpt><trkpt lat="44.58466675559915" lon="7.965994518611713"><ele>468.0</ele><time>2026-04-05T15:15:47.001Z</time></trkpt><trkpt lat="44.58476336010431" lon="7.965901508584729"><ele>468.0</ele><time>2026-04-05T15:15:48.001Z</time></trkpt><trkpt lat="44.584880252740625" lon="7.965852680414733"><ele>466.25</ele><time>2026-04-05T15:15:49.001Z</time></trkpt><trkpt lat="44.58499949428721" lon="7.965794854090373"><ele>464.5</ele><time>2026-04-05T15:15:50.001Z</time></trkpt><trkpt lat="44.585118921244046" lon="7.965711743724263"><ele>462.75</ele><time>2026-04-05T15:15:51.001Z</time></trkpt><trkpt lat="44.585226574165866" lon="7.965613794430943"><ele>461.0</ele><time>2026-04-05T15:15:52.001Z</time></trkpt><trkpt lat="44.58531864957729" lon="7.965489800921598"><ele>459.75</ele><time>2026-04-05T15:15:53.001Z</time></trkpt><trkpt lat="44.5854037876626" lon="7.965334008537539"><ele>458.5</ele><time>2026-04-05T15:15:54.001Z</time></trkpt><trkpt lat="44.585477470902404" lon="7.965156754266207"><ele>457.25</ele><time>2026-04-05T15:15:55.001Z</time></trkpt><trkpt lat="44.58553525313556" lon="7.96495461209745"><ele>456.0</ele><time>2026-04-05T15:15:56.001Z</time></trkpt><trkpt lat="44.58558756476067" lon="7.964756674146819"><ele>456.0</ele><time>2026-04-05T15:15:57.001Z</time></trkpt><trkpt lat="44.58564820706229" lon="7.964564570897871"><ele>456.0</ele><time>2026-04-05T15:15:58.001Z</time></trkpt><trkpt lat="44.5857114825517" lon="7.964366674872199"><ele>456.0</ele><time>2026-04-05T15:15:59.001Z</time></trkpt><trkpt lat="44.58577421441154" lon="7.964169543343617"><ele>451.33333333333337</ele><time>2026-04-05T15:16:00.001Z</time></trkpt><trkpt lat="44.58584272491712" lon="7.963975154992876"><ele>446.6666666666667</ele><time>2026-04-05T15:16:01.001Z</time></trkpt><trkpt lat="44.5859142643009" lon="7.963788932484966"><ele>442.0</ele><time>2026-04-05T15:16:02.001Z</time></trkpt><trkpt lat="44.58598865180251" lon="7.963612029493694"><ele>442.0</ele><time>2026-04-05T15:16:03.001Z</time></trkpt><trkpt lat="44.586060123338775" lon="7.963439753265313"><ele>442.0</ele><time>2026-04-05T15:16:04.001Z</time></trkpt><trkpt lat="44.58612111119761" lon="7.963266953334208"><ele>442.0</ele><time>2026-04-05T15:16:05.001Z</time></trkpt><trkpt lat="44.58616328683511" lon="7.963086000602681"><ele>442.0</ele><time>2026-04-05T15:16:06.001Z</time></trkpt><trkpt lat="44.58619040088236" lon="7.962895412125299"><ele>441.75</ele><time>2026-04-05T15:16:07.001Z</time></trkpt><trkpt lat="44.58619705810023" lon="7.962706305309766"><ele>441.5</ele><time>2026-04-05T15:16:08.001Z</time></trkpt><trkpt lat="44.58619013895325" lon="7.962520891294006"><ele>441.25</ele><time>2026-04-05T15:16:09.001Z</time></trkpt><trkpt lat="44.586164175662695" lon="7.962336491733435"><ele>441.0</ele><time>2026-04-05T15:16:10.001Z</time></trkpt><trkpt lat="44.58610526199766" lon="7.962162538844896"><ele>440.25</ele><time>2026-04-05T15:16:11.001Z</time></trkpt><trkpt lat="44.5860184776405" lon="7.961998177715283"><ele>439.5</ele><time>2026-04-05T15:16:12.001Z</time></trkpt><trkpt lat="44.58591123071634" lon="7.961852894520281"><ele>438.75</ele><time>2026-04-05T15:16:13.001Z</time></trkpt><trkpt lat="44.58579144193178" lon="7.961725073509176"><ele>438.0</ele><time>2026-04-05T15:16:14.001Z</time></trkpt><trkpt lat="44.585674141999995" lon="7.961604983013154"><ele>438.0</ele><time>2026-04-05T15:16:15.001Z</time></trkpt><trkpt lat="44.585568176617905" lon="7.96147577960193"><ele>438.0</ele><time>2026-04-05T15:16:16.001Z</time></trkpt><trkpt lat="44.58547166468478" lon="7.961329303707073"><ele>438.0</ele><time>2026-04-05T15:16:17.001Z</time></trkpt><trkpt lat="44.585377943661896" lon="7.961170124830098"><ele>438.0</ele><time>2026-04-05T15:16:18.001Z</time></trkpt><trkpt lat="44.58529208711251" lon="7.9610004291747805"><ele>436.0</ele><time>2026-04-05T15:16:19.001Z</time></trkpt><trkpt lat="44.58520875588151" lon="7.9608189485775345"><ele>434.0</ele><time>2026-04-05T15:16:20.001Z</time></trkpt><trkpt lat="44.58513235769404" lon="7.960637237051226"><ele>432.0</ele><time>2026-04-05T15:16:21.001Z</time></trkpt><trkpt lat="44.585064921455825" lon="7.960456774182443"><ele>430.0</ele><time>2026-04-05T15:16:22.001Z</time></trkpt><trkpt lat="44.585007186942214" lon="7.96027905628496"><ele>430.0</ele><time>2026-04-05T15:16:23.001Z</time></trkpt><trkpt lat="44.58496908670019" lon="7.9600938628137765"><ele>430.0</ele><time>2026-04-05T15:16:24.001Z</time></trkpt><trkpt lat="44.584961057975335" lon="7.959895119741856"><ele>430.0</ele><time>2026-04-05T15:16:25.001Z</time></trkpt><trkpt lat="44.58497778768262" lon="7.959682026839971"><ele>430.0</ele><time>2026-04-05T15:16:26.001Z</time></trkpt><trkpt lat="44.585026099504184" lon="7.9594642482070155"><ele>431.0</ele><time>2026-04-05T15:16:27.001Z</time></trkpt><trkpt lat="44.58507618811821" lon="7.959246513203806"><ele>432.0</ele><time>2026-04-05T15:16:28.001Z</time></trkpt><trkpt lat="44.58512145784504" lon="7.959030697313033"><ele>433.0</ele><time>2026-04-05T15:16:29.001Z</time></trkpt><trkpt lat="44.585160411241546" lon="7.958828918205462"><ele>433.0</ele><time>2026-04-05T15:16:30.001Z</time></trkpt><trkpt lat="44.58518639600062" lon="7.958632152991837"><ele>433.0</ele><time>2026-04-05T15:16:31.001Z</time></trkpt><trkpt lat="44.58517630444171" lon="7.958428753427663"><ele>433.0</ele><time>2026-04-05T15:16:32.001Z</time></trkpt><trkpt lat="44.58511441455236" lon="7.958216090746864"><ele>431.6666666666667</ele><time>2026-04-05T15:16:33.001Z</time></trkpt><trkpt lat="44.58502412754197" lon="7.958016171974247"><ele>430.33333333333337</ele><time>2026-04-05T15:16:34.001Z</time></trkpt><trkpt lat="44.58489271008807" lon="7.957846398526641"><ele>429.0</ele><time>2026-04-05T15:16:35.001Z</time></trkpt><trkpt lat="44.58474887403394" lon="7.957685467650941"><ele>428.66666666666663</ele><time>2026-04-05T15:16:36.001Z</time></trkpt><trkpt lat="44.58460884747421" lon="7.957531145697675"><ele>428.3333333333333</ele><time>2026-04-05T15:16:37.001Z</time></trkpt><trkpt lat="44.58446642687967" lon="7.957398218944071"><ele>428.0</ele><time>2026-04-05T15:16:38.001Z</time></trkpt><trkpt lat="44.584304220849056" lon="7.957319370911522"><ele>428.0</ele><time>2026-04-05T15:16:39.001Z</time></trkpt><trkpt lat="44.58412381432746" lon="7.9572847760049905"><ele>428.0</ele><time>2026-04-05T15:16:40.001Z</time></trkpt><trkpt lat="44.583950702894796" lon="7.957173909233606"><ele>428.0</ele><time>2026-04-05T15:16:41.001Z</time></trkpt><trkpt lat="44.58376739392005" lon="7.957337756540934"><ele>424.66666666666663</ele><time>2026-04-05T15:16:42.001Z</time></trkpt><trkpt lat="44.58360906975748" lon="7.95737568769224"><ele>421.33333333333337</ele><time>2026-04-05T15:16:43.001Z</time></trkpt><trkpt lat="44.583459494951846" lon="7.957357476304848"><ele>418.0</ele><time>2026-04-05T15:16:44.001Z</time></trkpt><trkpt lat="44.58331617024707" lon="7.957283448538912"><ele>418.0</ele><time>2026-04-05T15:16:45.001Z</time></trkpt><trkpt lat="44.58318410366334" lon="7.957196912957856"><ele>418.0</ele><time>2026-04-05T15:16:46.001Z</time></trkpt><trkpt lat="44.58308595727592" lon="7.957107344746286"><ele>418.0</ele><time>2026-04-05T15:16:47.001Z</time></trkpt><trkpt lat="44.58300294589658" lon="7.956989468344191"><ele>418.0</ele><time>2026-04-05T15:16:48.001Z</time></trkpt><trkpt lat="44.582961235213205" lon="7.956815675112604"><ele>415.5</ele><time>2026-04-05T15:16:49.001Z</time></trkpt><trkpt lat="44.58292326350523" lon="7.956622354612482"><ele>413.0</ele><time>2026-04-05T15:16:50.001Z</time></trkpt><trkpt lat="44.58289288872357" lon="7.9564177193773125"><ele>410.5</ele><time>2026-04-05T15:16:51.001Z</time></trkpt><trkpt lat="44.58285407437594" lon="7.956209958253126"><ele>408.0</ele><time>2026-04-05T15:16:52.001Z</time></trkpt><trkpt lat="44.582839576689906" lon="7.955998092278617"><ele>409.0</ele><time>2026-04-05T15:16:53.001Z</time></trkpt><trkpt lat="44.582817433235675" lon="7.955786769286852"><ele>410.0</ele><time>2026-04-05T15:16:54.001Z</time></trkpt><trkpt lat="44.58279066698145" lon="7.955569754995415"><ele>411.0</ele><time>2026-04-05T15:16:55.001Z</time></trkpt><trkpt lat="44.582764180428285" lon="7.955362041366862"><ele>411.0</ele><time>2026-04-05T15:16:56.001Z</time></trkpt><trkpt lat="44.5827411381802" lon="7.95517411230422"><ele>411.0</ele><time>2026-04-05T15:16:57.001Z</time></trkpt><trkpt lat="44.58272343563364" lon="7.955006231995962"><ele>411.0</ele><time>2026-04-05T15:16:58.001Z</time></trkpt><trkpt lat="44.58272383155954" lon="7.954853263309988"><ele>411.0</ele><time>2026-04-05T15:16:59.001Z</time></trkpt><trkpt lat="44.58276158982552" lon="7.95471838660953"><ele>411.75</ele><time>2026-04-05T15:17:00.001Z</time></trkpt><trkpt lat="44.58285581795121" lon="7.954641918303991"><ele>412.5</ele><time>2026-04-05T15:17:01.001Z</time></trkpt><trkpt lat="44.582963780159595" lon="7.954592674048183"><ele>413.25</ele><time>2026-04-05T15:17:02.001Z</time></trkpt><trkpt lat="44.58308958729582" lon="7.954554506900901"><ele>414.0</ele><time>2026-04-05T15:17:03.001Z</time></trkpt><trkpt lat="44.583214374821864" lon="7.954516504980172"><ele>414.0</ele><time>2026-04-05T15:17:04.001Z</time></trkpt><trkpt lat="44.583339592180245" lon="7.954468125779537"><ele>414.0</ele><time>2026-04-05T15:17:05.001Z</time></trkpt><trkpt lat="44.58346967017206" lon="7.954397046599788"><ele>414.0</ele><time>2026-04-05T15:17:06.001Z</time></trkpt><trkpt lat="44.58359453579998" lon="7.954297843904586"><ele>414.0</ele><time>2026-04-05T15:17:07.001Z</time></trkpt><trkpt lat="44.58372304930101" lon="7.954198888389809"><ele>411.0</ele><time>2026-04-05T15:17:08.001Z</time></trkpt><trkpt lat="44.583853177556065" lon="7.9540970413699466"><ele>408.0</ele><time>2026-04-05T15:17:09.001Z</time></trkpt><trkpt lat="44.58398698247372" lon="7.95399052499392"><ele>405.0</ele><time>2026-04-05T15:17:10.001Z</time></trkpt><trkpt lat="44.584118174847056" lon="7.95388758546012"><ele>405.0</ele><time>2026-04-05T15:17:11.001Z</time></trkpt><trkpt lat="44.58424695513817" lon="7.953790501569978"><ele>405.0</ele><time>2026-04-05T15:17:12.001Z</time></trkpt><trkpt lat="44.58437312464592" lon="7.953700437261975"><ele>405.0</ele><time>2026-04-05T15:17:13.001Z</time></trkpt><trkpt lat="44.58450242188432" lon="7.953615723437661"><ele>405.0</ele><time>2026-04-05T15:17:14.001Z</time></trkpt><trkpt lat="44.58463276527356" lon="7.953580901297733"><ele>407.0</ele><time>2026-04-05T15:17:15.001Z</time></trkpt><trkpt lat="44.58475508447382" lon="7.9535058362541315"><ele>409.0</ele><time>2026-04-05T15:17:16.001Z</time></trkpt><trkpt lat="44.58488650155031" lon="7.9534300014483374"><ele>411.0</ele><time>2026-04-05T15:17:17.001Z</time></trkpt><trkpt lat="44.585011770527714" lon="7.953332525161029"><ele>413.0</ele><time>2026-04-05T15:17:18.001Z</time></trkpt><trkpt lat="44.585126593805164" lon="7.953203114690241"><ele>407.0</ele><time>2026-04-05T15:17:19.001Z</time></trkpt><trkpt lat="44.585214680624844" lon="7.953038259738803"><ele>401.0</ele><time>2026-04-05T15:17:20.001Z</time></trkpt><trkpt lat="44.58527774731846" lon="7.952842216359028"><ele>395.0</ele><time>2026-04-05T15:17:21.001Z</time></trkpt><trkpt lat="44.58532128680974" lon="7.952636681373011"><ele>397.0</ele><time>2026-04-05T15:17:22.001Z</time></trkpt><trkpt lat="44.58536212451675" lon="7.952427802837059"><ele>399.0</ele><time>2026-04-05T15:17:23.001Z</time></trkpt><trkpt lat="44.58540611021283" lon="7.952228882851372"><ele>401.0</ele><time>2026-04-05T15:17:24.001Z</time></trkpt><trkpt lat="44.58545353498957" lon="7.952033918905618"><ele>403.0</ele><time>2026-04-05T15:17:25.001Z</time></trkpt><trkpt lat="44.585498105460985" lon="7.951834340588148"><ele>399.6666666666667</ele><time>2026-04-05T15:17:26.001Z</time></trkpt><trkpt lat="44.58551798811234" lon="7.951621744635546"><ele>396.33333333333337</ele><time>2026-04-05T15:17:27.001Z</time></trkpt><trkpt lat="44.585499887083806" lon="7.951397482929783"><ele>393.0</ele><time>2026-04-05T15:17:28.001Z</time></trkpt><trkpt lat="44.585452834979" lon="7.951173902508561"><ele>393.0</ele><time>2026-04-05T15:17:29.001Z</time></trkpt><trkpt lat="44.585382080507415" lon="7.950959589981414"><ele>393.0</ele><time>2026-04-05T15:17:30.001Z</time></trkpt><trkpt lat="44.58529876249932" lon="7.950747343421917"><ele>393.0</ele><time>2026-04-05T15:17:31.001Z</time></trkpt><trkpt lat="44.58522577028642" lon="7.950551688898244"><ele>386.59999999999997</ele><time>2026-04-05T15:17:32.001Z</time></trkpt><trkpt lat="44.5851678061363" lon="7.950382688900122"><ele>380.2</ele><time>2026-04-05T15:17:33.001Z</time></trkpt><trkpt lat="44.58514250497638" lon="7.950222967628204"><ele>373.8</ele><time>2026-04-05T15:17:34.001Z</time></trkpt><trkpt lat="44.58514626701081" lon="7.95007850464987"><ele>367.4</ele><time>2026-04-05T15:17:35.001Z</time></trkpt><trkpt lat="44.585168182805745" lon="7.949958103042531"><ele>361.0</ele><time>2026-04-05T15:17:36.001Z</time></trkpt><trkpt lat="44.58520867936579" lon="7.949867477409693"><ele>360.6</ele><time>2026-04-05T15:17:37.001Z</time></trkpt><trkpt lat="44.585281263838546" lon="7.949804047056769"><ele>360.20000000000005</ele><time>2026-04-05T15:17:38.001Z</time></trkpt><trkpt lat="44.58537766826332" lon="7.949774045623618"><ele>359.79999999999995</ele><time>2026-04-05T15:17:39.001Z</time></trkpt><trkpt lat="44.58549323684961" lon="7.949792073586458"><ele>359.4</ele><time>2026-04-05T15:17:40.001Z</time></trkpt><trkpt lat="44.58561601480552" lon="7.949814935428516"><ele>359.0</ele><time>2026-04-05T15:17:41.001Z</time></trkpt><trkpt lat="44.58574528839522" lon="7.949814324770079"><ele>361.75</ele><time>2026-04-05T15:17:42.001Z</time></trkpt><trkpt lat="44.58588420633138" lon="7.949800428347313"><ele>364.5</ele><time>2026-04-05T15:17:43.001Z</time></trkpt><trkpt lat="44.58602902074436" lon="7.949752580476382"><ele>367.25</ele><time>2026-04-05T15:17:44.001Z</time></trkpt><trkpt lat="44.586162011590964" lon="7.949671528187709"><ele>370.0</ele><time>2026-04-05T15:17:45.001Z</time></trkpt><trkpt lat="44.586290243680736" lon="7.949545893387319"><ele>373.0</ele><time>2026-04-05T15:17:46.001Z</time></trkpt><trkpt lat="44.58640050982867" lon="7.949441339135763"><ele>376.0</ele><time>2026-04-05T15:17:47.001Z</time></trkpt><trkpt lat="44.58651415749323" lon="7.949356328216105"><ele>379.0</ele><time>2026-04-05T15:17:48.001Z</time></trkpt><trkpt lat="44.58662814240995" lon="7.949302601882735"><ele>382.0</ele><time>2026-04-05T15:17:49.001Z</time></trkpt><trkpt lat="44.58674889675798" lon="7.949302835762923"><ele>382.0</ele><time>2026-04-05T15:17:50.001Z</time></trkpt><trkpt lat="44.58687967490772" lon="7.949367658241926"><ele>382.0</ele><time>2026-04-05T15:17:51.001Z</time></trkpt><trkpt lat="44.586997996006104" lon="7.9494815026418735"><ele>382.0</ele><time>2026-04-05T15:17:52.001Z</time></trkpt><trkpt lat="44.58709914205371" lon="7.949629945483918"><ele>382.0</ele><time>2026-04-05T15:17:53.001Z</time></trkpt><trkpt lat="44.58719110284536" lon="7.949800166749112"><ele>381.3333333333333</ele><time>2026-04-05T15:17:54.001Z</time></trkpt><trkpt lat="44.58728884899263" lon="7.949965057598049"><ele>380.6666666666667</ele><time>2026-04-05T15:17:55.001Z</time></trkpt><trkpt lat="44.58739327859742" lon="7.9501291851823686"><ele>380.0</ele><time>2026-04-05T15:17:56.001Z</time></trkpt><trkpt lat="44.58750075320161" lon="7.9502969236062455"><ele>380.0</ele><time>2026-04-05T15:17:57.001Z</time></trkpt><trkpt lat="44.58761247932928" lon="7.950464984365092"><ele>380.0</ele><time>2026-04-05T15:17:58.001Z</time></trkpt><trkpt lat="44.587725024296766" lon="7.9506359267944635"><ele>380.0</ele><time>2026-04-05T15:17:59.001Z</time></trkpt><trkpt lat="44.58783595193146" lon="7.950809633618515"><ele>380.0</ele><time>2026-04-05T15:18:00.001Z</time></trkpt><trkpt lat="44.58794708951222" lon="7.9509799940786765"><ele>380.0</ele><time>2026-04-05T15:18:01.001Z</time></trkpt><trkpt lat="44.58805804231729" lon="7.951148695741327"><ele>380.0</ele><time>2026-04-05T15:18:02.001Z</time></trkpt><trkpt lat="44.58816524466695" lon="7.951313296969675"><ele>380.0</ele><time>2026-04-05T15:18:03.001Z</time></trkpt><trkpt lat="44.58825900957438" lon="7.95146720175488"><ele>380.0</ele><time>2026-04-05T15:18:04.001Z</time></trkpt><trkpt lat="44.588342730169295" lon="7.951607214463593"><ele>380.0</ele><time>2026-04-05T15:18:05.001Z</time></trkpt><trkpt lat="44.58841875464901" lon="7.9517385897677215"><ele>380.0</ele><time>2026-04-05T15:18:06.001Z</time></trkpt><trkpt lat="44.58849767032402" lon="7.951845274299177"><ele>383.0</ele><time>2026-04-05T15:18:07.001Z</time></trkpt><trkpt lat="44.58859372443642" lon="7.951906729035345"><ele>386.0</ele><time>2026-04-05T15:18:08.001Z</time></trkpt><trkpt lat="44.58870995169227" lon="7.951914444663151"><ele>389.0</ele><time>2026-04-05T15:18:09.001Z</time></trkpt><trkpt lat="44.58883352122395" lon="7.95187359775099"><ele>392.0</ele><time>2026-04-05T15:18:10.001Z</time></trkpt><trkpt lat="44.588957968272844" lon="7.951812601655774"><ele>392.25</ele><time>2026-04-05T15:18:11.001Z</time></trkpt><trkpt lat="44.5890797731016" lon="7.951752928175241"><ele>392.5</ele><time>2026-04-05T15:18:12.001Z</time></trkpt><trkpt lat="44.58919648271508" lon="7.951688615029447"><ele>392.75</ele><time>2026-04-05T15:18:13.001Z</time></trkpt><trkpt lat="44.589310885167926" lon="7.951624394437807"><ele>393.0</ele><time>2026-04-05T15:18:14.001Z</time></trkpt><trkpt lat="44.58942980182674" lon="7.9515769963716405"><ele>389.25</ele><time>2026-04-05T15:18:15.001Z</time></trkpt><trkpt lat="44.58956163075986" lon="7.95154237750957"><ele>385.5</ele><time>2026-04-05T15:18:16.001Z</time></trkpt><trkpt lat="44.58970734590599" lon="7.951541248887571"><ele>381.75</ele><time>2026-04-05T15:18:17.001Z</time></trkpt><trkpt lat="44.58986324027493" lon="7.951572031565488"><ele>378.0</ele><time>2026-04-05T15:18:18.001Z</time></trkpt><trkpt lat="44.590023895590676" lon="7.951622122235267"><ele>378.0</ele><time>2026-04-05T15:18:19.001Z</time></trkpt><trkpt lat="44.59018285028123" lon="7.951683233224585"><ele>378.0</ele><time>2026-04-05T15:18:20.001Z</time></trkpt><trkpt lat="44.590331462371246" lon="7.951761219893232"><ele>378.0</ele><time>2026-04-05T15:18:21.001Z</time></trkpt><trkpt lat="44.59046944484089" lon="7.951857583380918"><ele>381.25</ele><time>2026-04-05T15:18:22.001Z</time></trkpt><trkpt lat="44.59059524729221" lon="7.951977097147873"><ele>384.5</ele><time>2026-04-05T15:18:23.001Z</time></trkpt><trkpt lat="44.590701789155304" lon="7.9521063213369505"><ele>387.75</ele><time>2026-04-05T15:18:24.001Z</time></trkpt><trkpt lat="44.590795894103515" lon="7.952221448628262"><ele>391.0</ele><time>2026-04-05T15:18:25.001Z</time></trkpt><trkpt lat="44.590905385887446" lon="7.952300018623035"><ele>391.0</ele><time>2026-04-05T15:18:26.001Z</time></trkpt><trkpt lat="44.59104008182303" lon="7.95233792268945"><ele>391.0</ele><time>2026-04-05T15:18:27.001Z</time></trkpt><trkpt lat="44.591178267160345" lon="7.952314218513207"><ele>391.0</ele><time>2026-04-05T15:18:28.001Z</time></trkpt><trkpt lat="44.59130820162096" lon="7.952224995648845"><ele>391.0</ele><time>2026-04-05T15:18:29.001Z</time></trkpt><trkpt lat="44.591416691856075" lon="7.95207779380697"><ele>391.0</ele><time>2026-04-05T15:18:30.001Z</time></trkpt><trkpt lat="44.59150738016984" lon="7.95189851232996"><ele>391.0</ele><time>2026-04-05T15:18:31.001Z</time></trkpt><trkpt lat="44.59161157421105" lon="7.951721092127461"><ele>391.0</ele><time>2026-04-05T15:18:32.001Z</time></trkpt><trkpt lat="44.59171751134556" lon="7.951539591403663"><ele>388.0</ele><time>2026-04-05T15:18:33.001Z</time></trkpt><trkpt lat="44.59181964875116" lon="7.951352466650919"><ele>385.0</ele><time>2026-04-05T15:18:34.001Z</time></trkpt><trkpt lat="44.5919243365188" lon="7.951165885679884"><ele>382.0</ele><time>2026-04-05T15:18:35.001Z</time></trkpt><trkpt lat="44.5920140567306" lon="7.950965160773982"><ele>379.0</ele><time>2026-04-05T15:18:36.001Z</time></trkpt><trkpt lat="44.592098491347116" lon="7.9507591187816145"><ele>376.0</ele><time>2026-04-05T15:18:37.001Z</time></trkpt><trkpt lat="44.592182167768556" lon="7.950549919252137"><ele>373.0</ele><time>2026-04-05T15:18:38.001Z</time></trkpt><trkpt lat="44.592266026731345" lon="7.95033746254808"><ele>373.0</ele><time>2026-04-05T15:18:39.001Z</time></trkpt><trkpt lat="44.59234856254207" lon="7.950129177761948"><ele>373.0</ele><time>2026-04-05T15:18:40.001Z</time></trkpt><trkpt lat="44.59243245344601" lon="7.949916020151719"><ele>373.0</ele><time>2026-04-05T15:18:41.001Z</time></trkpt><trkpt lat="44.592530860717886" lon="7.949716097568295"><ele>373.66666666666663</ele><time>2026-04-05T15:18:42.001Z</time></trkpt><trkpt lat="44.592597311901926" lon="7.949501772264405"><ele>374.3333333333333</ele><time>2026-04-05T15:18:43.001Z</time></trkpt><trkpt lat="44.592672687287916" lon="7.9493159810922505"><ele>375.0</ele><time>2026-04-05T15:18:44.001Z</time></trkpt><trkpt lat="44.59273996249588" lon="7.949143969227648"><ele>376.5</ele><time>2026-04-05T15:18:45.001Z</time></trkpt><trkpt lat="44.59280367481273" lon="7.948982302270865"><ele>378.0</ele><time>2026-04-05T15:18:46.001Z</time></trkpt><trkpt lat="44.5928650337439" lon="7.948827340796583"><ele>379.5</ele><time>2026-04-05T15:18:47.001Z</time></trkpt><trkpt lat="44.59292450517147" lon="7.948680266973931"><ele>381.0</ele><time>2026-04-05T15:18:48.001Z</time></trkpt><trkpt lat="44.59298483270806" lon="7.948532221182567"><ele>379.0</ele><time>2026-04-05T15:18:49.001Z</time></trkpt><trkpt lat="44.593043011494906" lon="7.9483743823918065"><ele>377.0</ele><time>2026-04-05T15:18:50.001Z</time></trkpt><trkpt lat="44.593104511615024" lon="7.948211196964872"><ele>375.0</ele><time>2026-04-05T15:18:51.001Z</time></trkpt><trkpt lat="44.59316544968533" lon="7.9480459112482436"><ele>373.0</ele><time>2026-04-05T15:18:52.001Z</time></trkpt><trkpt lat="44.59323243923899" lon="7.947881423034813"><ele>373.0</ele><time>2026-04-05T15:18:53.001Z</time></trkpt><trkpt lat="44.59329661128257" lon="7.947720258545072"><ele>373.0</ele><time>2026-04-05T15:18:54.001Z</time></trkpt><trkpt lat="44.59336499862282" lon="7.947573988076526"><ele>373.0</ele><time>2026-04-05T15:18:55.001Z</time></trkpt><trkpt lat="44.59343865450934" lon="7.947449870160224"><ele>373.0</ele><time>2026-04-05T15:18:56.001Z</time></trkpt><trkpt lat="44.593528506214696" lon="7.94734289482285"><ele>371.75</ele><time>2026-04-05T15:18:57.001Z</time></trkpt><trkpt lat="44.593641354558365" lon="7.947259974544514"><ele>370.5</ele><time>2026-04-05T15:18:58.001Z</time></trkpt><trkpt lat="44.59376686110855" lon="7.947215450305045"><ele>369.25</ele><time>2026-04-05T15:18:59.001Z</time></trkpt><trkpt lat="44.593895015494866" lon="7.9471963235739125"><ele>368.0</ele><time>2026-04-05T15:19:00.001Z</time></trkpt><trkpt lat="44.59402803013536" lon="7.947191187500427"><ele>368.0</ele><time>2026-04-05T15:19:01.001Z</time></trkpt><trkpt lat="44.59415784197807" lon="7.947203020146329"><ele>368.0</ele><time>2026-04-05T15:19:02.001Z</time></trkpt><trkpt lat="44.594280313169506" lon="7.94722026401072"><ele>368.0</ele><time>2026-04-05T15:19:03.001Z</time></trkpt><trkpt lat="44.59439131378917" lon="7.947220829203025"><ele>368.0</ele><time>2026-04-05T15:19:04.001Z</time></trkpt><trkpt lat="44.59449691939369" lon="7.947186277887271"><ele>368.25</ele><time>2026-04-05T15:19:05.001Z</time></trkpt><trkpt lat="44.59459899470131" lon="7.947107372865115"><ele>368.5</ele><time>2026-04-05T15:19:06.001Z</time></trkpt><trkpt lat="44.594701582055606" lon="7.946989973957895"><ele>368.75</ele><time>2026-04-05T15:19:07.001Z</time></trkpt><trkpt lat="44.59479433166562" lon="7.94684810301045"><ele>369.0</ele><time>2026-04-05T15:19:08.001Z</time></trkpt><trkpt lat="44.59488528983161" lon="7.946702810657875"><ele>369.0</ele><time>2026-04-05T15:19:09.001Z</time></trkpt><trkpt lat="44.594995517012386" lon="7.946587444196064"><ele>369.0</ele><time>2026-04-05T15:19:10.001Z</time></trkpt><trkpt lat="44.5951105991552" lon="7.946457241449556"><ele>369.0</ele><time>2026-04-05T15:19:11.001Z</time></trkpt><trkpt lat="44.5952524231879" lon="7.946351896098046"><ele>369.0</ele><time>2026-04-05T15:19:12.001Z</time></trkpt><trkpt lat="44.59541452155153" lon="7.946268418364227"><ele>366.0</ele><time>2026-04-05T15:19:13.001Z</time></trkpt><trkpt lat="44.595589600976766" lon="7.946180650487263"><ele>363.0</ele><time>2026-04-05T15:19:14.001Z</time></trkpt><trkpt lat="44.59576547191445" lon="7.946078786948627"><ele>360.0</ele><time>2026-04-05T15:19:15.001Z</time></trkpt><trkpt lat="44.59595460006477" lon="7.945994238316481"><ele>360.0</ele><time>2026-04-05T15:19:16.001Z</time></trkpt><trkpt lat="44.59614071092761" lon="7.9459023717591295"><ele>360.0</ele><time>2026-04-05T15:19:17.001Z</time></trkpt><trkpt lat="44.59632706494512" lon="7.9458058289104025"><ele>360.0</ele><time>2026-04-05T15:19:18.001Z</time></trkpt><trkpt lat="44.59651636857009" lon="7.94571381650473"><ele>362.0</ele><time>2026-04-05T15:19:19.001Z</time></trkpt><trkpt lat="44.59670546154073" lon="7.945620171351195"><ele>364.0</ele><time>2026-04-05T15:19:20.001Z</time></trkpt><trkpt lat="44.59689750697035" lon="7.945524151295289"><ele>366.0</ele><time>2026-04-05T15:19:21.001Z</time></trkpt><trkpt lat="44.597084600222644" lon="7.945432093468712"><ele>361.6666666666667</ele><time>2026-04-05T15:19:22.001Z</time></trkpt><trkpt lat="44.59725755054826" lon="7.945349559481336"><ele>357.33333333333337</ele><time>2026-04-05T15:19:23.001Z</time></trkpt><trkpt lat="44.59741690241926" lon="7.945268717379071"><ele>353.0</ele><time>2026-04-05T15:19:24.001Z</time></trkpt><trkpt lat="44.597553948547066" lon="7.945170489712676"><ele>359.0</ele><time>2026-04-05T15:19:25.001Z</time></trkpt><trkpt lat="44.597667236604266" lon="7.9450206364926075"><ele>365.0</ele><time>2026-04-05T15:19:26.001Z</time></trkpt><trkpt lat="44.59775346584952" lon="7.944807466060617"><ele>371.0</ele><time>2026-04-05T15:19:27.001Z</time></trkpt><trkpt lat="44.59782134047042" lon="7.944562971530878"><ele>368.0</ele><time>2026-04-05T15:19:28.001Z</time></trkpt><trkpt lat="44.59788307343842" lon="7.944336836344234"><ele>365.0</ele><time>2026-04-05T15:19:29.001Z</time></trkpt><trkpt lat="44.59795535261168" lon="7.944151652842975"><ele>362.0</ele><time>2026-04-05T15:19:30.001Z</time></trkpt><trkpt lat="44.59805307770318" lon="7.9440059723894345"><ele>362.0</ele><time>2026-04-05T15:19:31.001Z</time></trkpt><trkpt lat="44.59818040828963" lon="7.943883687364454"><ele>362.0</ele><time>2026-04-05T15:19:32.001Z</time></trkpt><trkpt lat="44.59834031023692" lon="7.94382817172173"><ele>362.0</ele><time>2026-04-05T15:19:33.001Z</time></trkpt><trkpt lat="44.59850501061183" lon="7.943779675840015"><ele>361.5</ele><time>2026-04-05T15:19:34.001Z</time></trkpt><trkpt lat="44.59866894468423" lon="7.9437727912440845"><ele>361.0</ele><time>2026-04-05T15:19:35.001Z</time></trkpt><trkpt lat="44.59880928931739" lon="7.943761123869004"><ele>360.5</ele><time>2026-04-05T15:19:36.001Z</time></trkpt><trkpt lat="44.59892707197703" lon="7.943741529379693"><ele>360.0</ele><time>2026-04-05T15:19:37.001Z</time></trkpt><trkpt lat="44.59902266642484" lon="7.943691692324155"><ele>360.0</ele><time>2026-04-05T15:19:38.001Z</time></trkpt><trkpt lat="44.59909974744684" lon="7.943593086326868"><ele>360.0</ele><time>2026-04-05T15:19:39.001Z</time></trkpt><trkpt lat="44.599159427249724" lon="7.943438149893613"><ele>360.0</ele><time>2026-04-05T15:19:40.001Z</time></trkpt><trkpt lat="44.59917156637373" lon="7.943240395631899"><ele>360.0</ele><time>2026-04-05T15:19:41.001Z</time></trkpt><trkpt lat="44.59913979591814" lon="7.943022523810958"><ele>359.0</ele><time>2026-04-05T15:19:42.001Z</time></trkpt><trkpt lat="44.59910701178965" lon="7.942807594945917"><ele>358.0</ele><time>2026-04-05T15:19:43.001Z</time></trkpt><trkpt lat="44.59908597485389" lon="7.942593366244625"><ele>357.0</ele><time>2026-04-05T15:19:44.001Z</time></trkpt><trkpt lat="44.59906662967777" lon="7.942376314669215"><ele>357.0</ele><time>2026-04-05T15:19:45.001Z</time></trkpt><trkpt lat="44.59904732610137" lon="7.942156941940281"><ele>357.0</ele><time>2026-04-05T15:19:46.001Z</time></trkpt><trkpt lat="44.599031297529514" lon="7.941936258023497"><ele>357.0</ele><time>2026-04-05T15:19:47.001Z</time></trkpt><trkpt lat="44.599017361075134" lon="7.941722927296705"><ele>356.5</ele><time>2026-04-05T15:19:48.001Z</time></trkpt><trkpt lat="44.599006474355924" lon="7.9415137037271775"><ele>356.0</ele><time>2026-04-05T15:19:49.001Z</time></trkpt><trkpt lat="44.59900919755824" lon="7.941318570295326"><ele>355.5</ele><time>2026-04-05T15:19:50.001Z</time></trkpt><trkpt lat="44.599021799316915" lon="7.941129941489572"><ele>355.0</ele><time>2026-04-05T15:19:51.001Z</time></trkpt><trkpt lat="44.599064492332396" lon="7.940955926581565"><ele>355.66666666666663</ele><time>2026-04-05T15:19:52.001Z</time></trkpt><trkpt lat="44.59910442797946" lon="7.940769306860838"><ele>356.3333333333333</ele><time>2026-04-05T15:19:53.001Z</time></trkpt><trkpt lat="44.59915640661083" lon="7.940569922107711"><ele>357.0</ele><time>2026-04-05T15:19:54.001Z</time></trkpt><trkpt lat="44.59920294271542" lon="7.94035423474666"><ele>357.0</ele><time>2026-04-05T15:19:55.001Z</time></trkpt><trkpt lat="44.599285884214936" lon="7.940126301786617"><ele>357.0</ele><time>2026-04-05T15:19:56.001Z</time></trkpt><trkpt lat="44.5993588983538" lon="7.939878281272713"><ele>357.0</ele><time>2026-04-05T15:19:57.001Z</time></trkpt><trkpt lat="44.599428496350264" lon="7.939642494298699"><ele>354.3333333333333</ele><time>2026-04-05T15:19:58.001Z</time></trkpt><trkpt lat="44.59950739562981" lon="7.9394278917311745"><ele>351.66666666666663</ele><time>2026-04-05T15:19:59.001Z</time></trkpt><trkpt lat="44.59960515407747" lon="7.939236052728299"><ele>349.0</ele><time>2026-04-05T15:20:00.001Z</time></trkpt><trkpt lat="44.59973273232949" lon="7.93907846289002"><ele>349.0</ele><time>2026-04-05T15:20:01.001Z</time></trkpt><trkpt lat="44.59988488625822" lon="7.938976044205371"><ele>349.0</ele><time>2026-04-05T15:20:02.001Z</time></trkpt><trkpt lat="44.60005956776178" lon="7.938922227735627"><ele>349.0</ele><time>2026-04-05T15:20:03.001Z</time></trkpt><trkpt lat="44.6002469220439" lon="7.938938812994137"><ele>350.0</ele><time>2026-04-05T15:20:04.001Z</time></trkpt><trkpt lat="44.60042563439131" lon="7.939007684687088"><ele>351.0</ele><time>2026-04-05T15:20:05.001Z</time></trkpt><trkpt lat="44.600594619441594" lon="7.939138008871273"><ele>352.0</ele><time>2026-04-05T15:20:06.001Z</time></trkpt><trkpt lat="44.60076124281943" lon="7.939302138570936"><ele>349.66666666666663</ele><time>2026-04-05T15:20:07.001Z</time></trkpt><trkpt lat="44.600932717781966" lon="7.939473122723953"><ele>347.3333333333333</ele><time>2026-04-05T15:20:08.001Z</time></trkpt><trkpt lat="44.60110481854232" lon="7.939644090015081"><ele>345.0</ele><time>2026-04-05T15:20:09.001Z</time></trkpt><trkpt lat="44.601277778137344" lon="7.939817417881148"><ele>345.0</ele><time>2026-04-05T15:20:10.001Z</time></trkpt><trkpt lat="44.6014310392902" lon="7.939993407780711"><ele>345.0</ele><time>2026-04-05T15:20:11.001Z</time></trkpt><trkpt lat="44.60159116374589" lon="7.940140597117548"><ele>345.0</ele><time>2026-04-05T15:20:12.001Z</time></trkpt><trkpt lat="44.60174116867446" lon="7.940288489115507"><ele>343.3333333333333</ele><time>2026-04-05T15:20:13.001Z</time></trkpt><trkpt lat="44.60188101027463" lon="7.940437792263113"><ele>341.66666666666663</ele><time>2026-04-05T15:20:14.001Z</time></trkpt><trkpt lat="44.60201872127733" lon="7.940574383049252"><ele>340.0</ele><time>2026-04-05T15:20:15.001Z</time></trkpt><trkpt lat="44.60215141557157" lon="7.940701183189155"><ele>340.0</ele><time>2026-04-05T15:20:16.001Z</time></trkpt><trkpt lat="44.602298146401374" lon="7.940812053805454"><ele>340.0</ele><time>2026-04-05T15:20:17.001Z</time></trkpt><trkpt lat="44.602456848136406" lon="7.940893792672285"><ele>340.0</ele><time>2026-04-05T15:20:18.001Z</time></trkpt><trkpt lat="44.60262160324988" lon="7.940941378479429"><ele>335.3333333333333</ele><time>2026-04-05T15:20:19.001Z</time></trkpt><trkpt lat="44.602782606092404" lon="7.940963909943764"><ele>330.6666666666667</ele><time>2026-04-05T15:20:20.001Z</time></trkpt><trkpt lat="44.60292634200713" lon="7.940990365934608"><ele>326.0</ele><time>2026-04-05T15:20:21.001Z</time></trkpt><trkpt lat="44.60306834454626" lon="7.941019227701133"><ele>325.25</ele><time>2026-04-05T15:20:22.001Z</time></trkpt><trkpt lat="44.60320258415526" lon="7.941045851529675"><ele>324.5</ele><time>2026-04-05T15:20:23.001Z</time></trkpt><trkpt lat="44.60333197648679" lon="7.941071997609196"><ele>323.75</ele><time>2026-04-05T15:20:24.001Z</time></trkpt><trkpt lat="44.60345357472574" lon="7.9410992837358085"><ele>323.0</ele><time>2026-04-05T15:20:25.001Z</time></trkpt><trkpt lat="44.60357245820848" lon="7.941122662445742"><ele>322.25</ele><time>2026-04-05T15:20:26.001Z</time></trkpt><trkpt lat="44.6037011541781" lon="7.941141190733423"><ele>321.5</ele><time>2026-04-05T15:20:27.001Z</time></trkpt><trkpt lat="44.603826068886626" lon="7.941149554732199"><ele>320.75</ele><time>2026-04-05T15:20:28.001Z</time></trkpt><trkpt lat="44.60394458824952" lon="7.941136763771804"><ele>320.0</ele><time>2026-04-05T15:20:29.001Z</time></trkpt><trkpt lat="44.60405367894975" lon="7.9411060947490615"><ele>320.0</ele><time>2026-04-05T15:20:30.001Z</time></trkpt><trkpt lat="44.604154118440405" lon="7.941061767025313"><ele>320.0</ele><time>2026-04-05T15:20:31.001Z</time></trkpt><trkpt lat="44.60424085121865" lon="7.940992502603213"><ele>320.0</ele><time>2026-04-05T15:20:32.001Z</time></trkpt><trkpt lat="44.604333080107565" lon="7.940912021128029"><ele>320.0</ele><time>2026-04-05T15:20:33.001Z</time></trkpt><trkpt lat="44.60442876572399" lon="7.940810517063442"><ele>320.0</ele><time>2026-04-05T15:20:34.001Z</time></trkpt><trkpt lat="44.60452145571472" lon="7.940707990856309"><ele>320.2</ele><time>2026-04-05T15:20:35.001Z</time></trkpt><trkpt lat="44.60460332134944" lon="7.94061054422913"><ele>320.4</ele><time>2026-04-05T15:20:36.001Z</time></trkpt><trkpt lat="44.60468526175177" lon="7.940509098363081"><ele>320.6</ele><time>2026-04-05T15:20:37.001Z</time></trkpt><trkpt lat="44.60477408038224" lon="7.940410150049417"><ele>320.8</ele><time>2026-04-05T15:20:38.001Z</time></trkpt><trkpt lat="44.60486528520313" lon="7.940305783440997"><ele>321.0</ele><time>2026-04-05T15:20:39.001Z</time></trkpt><trkpt lat="44.60496241160448" lon="7.940196989336626"><ele>321.0</ele><time>2026-04-05T15:20:40.001Z</time></trkpt><trkpt lat="44.60506313247045" lon="7.940084380589294"><ele>321.0</ele><time>2026-04-05T15:20:41.001Z</time></trkpt><trkpt lat="44.605166892333386" lon="7.939964754752232"><ele>321.0</ele><time>2026-04-05T15:20:42.001Z</time></trkpt><trkpt lat="44.60527106663621" lon="7.939827433682182"><ele>321.0</ele><time>2026-04-05T15:20:43.001Z</time></trkpt><trkpt lat="44.60539122975357" lon="7.939707695609431"><ele>319.25</ele><time>2026-04-05T15:20:44.001Z</time></trkpt><trkpt lat="44.60550045326411" lon="7.939583290832717"><ele>317.5</ele><time>2026-04-05T15:20:45.001Z</time></trkpt><trkpt lat="44.60562052389287" lon="7.939451321543719"><ele>315.75</ele><time>2026-04-05T15:20:46.001Z</time></trkpt><trkpt lat="44.6056864113454" lon="7.939369117957235"><ele>314.0</ele><time>2026-04-05T15:20:47.001Z</time></trkpt><trkpt lat="44.605802050351336" lon="7.939259843773318"><ele>314.0</ele><time>2026-04-05T15:20:48.001Z</time></trkpt><trkpt lat="44.60594580367515" lon="7.9392363020276395"><ele>314.0</ele><time>2026-04-05T15:20:49.001Z</time></trkpt><trkpt lat="44.60609298432117" lon="7.939208762761007"><ele>314.0</ele><time>2026-04-05T15:20:50.001Z</time></trkpt><trkpt lat="44.60624442618221" lon="7.939185320848993"><ele>314.0</ele><time>2026-04-05T15:20:51.001Z</time></trkpt><trkpt lat="44.60638684367104" lon="7.939151407286344"><ele>313.25</ele><time>2026-04-05T15:20:52.001Z</time></trkpt><trkpt lat="44.60652522989894" lon="7.939138989779138"><ele>312.5</ele><time>2026-04-05T15:20:53.001Z</time></trkpt><trkpt lat="44.60665720541286" lon="7.939148551649531"><ele>311.75</ele><time>2026-04-05T15:20:54.001Z</time></trkpt><trkpt lat="44.60678613422953" lon="7.939182536498431"><ele>311.0</ele><time>2026-04-05T15:20:55.001Z</time></trkpt><trkpt lat="44.60690863300856" lon="7.939255542768007"><ele>313.25</ele><time>2026-04-05T15:20:56.001Z</time></trkpt><trkpt lat="44.60703313539957" lon="7.939294833004565"><ele>315.5</ele><time>2026-04-05T15:20:57.001Z</time></trkpt><trkpt lat="44.60714949128236" lon="7.939349214784141"><ele>317.75</ele><time>2026-04-05T15:20:58.001Z</time></trkpt><trkpt lat="44.607255179892945" lon="7.939410326850276"><ele>320.0</ele><time>2026-04-05T15:20:59.001Z</time></trkpt><trkpt lat="44.60734897404721" lon="7.93949101409861"><ele>320.0</ele><time>2026-04-05T15:21:00.001Z</time></trkpt><trkpt lat="44.60743850070918" lon="7.939588645544676"><ele>320.0</ele><time>2026-04-05T15:21:01.001Z</time></trkpt><trkpt lat="44.60750012883733" lon="7.9397441392411405"><ele>320.0</ele><time>2026-04-05T15:21:02.001Z</time></trkpt><trkpt lat="44.60754742017892" lon="7.939902375234691"><ele>320.0</ele><time>2026-04-05T15:21:03.001Z</time></trkpt><trkpt lat="44.60759675451578" lon="7.940070951182479"><ele>317.0</ele><time>2026-04-05T15:21:04.001Z</time></trkpt><trkpt lat="44.60764746945676" lon="7.940230457796055"><ele>314.0</ele><time>2026-04-05T15:21:05.001Z</time></trkpt><trkpt lat="44.60769006483546" lon="7.940391465848209"><ele>311.0</ele><time>2026-04-05T15:21:06.001Z</time></trkpt><trkpt lat="44.60773562815233" lon="7.940551413103836"><ele>308.0</ele><time>2026-04-05T15:21:07.001Z</time></trkpt><trkpt lat="44.607781552583106" lon="7.940708500349682"><ele>308.0</ele><time>2026-04-05T15:21:08.001Z</time></trkpt><trkpt lat="44.60781580531534" lon="7.940854439541593"><ele>308.0</ele><time>2026-04-05T15:21:09.001Z</time></trkpt><trkpt lat="44.6078466081929" lon="7.940997423283171"><ele>308.0</ele><time>2026-04-05T15:21:10.001Z</time></trkpt><trkpt lat="44.607888318487355" lon="7.941143535277528"><ele>308.0</ele><time>2026-04-05T15:21:11.001Z</time></trkpt><trkpt lat="44.60794232769754" lon="7.941269340810988"><ele>308.0</ele><time>2026-04-05T15:21:12.001Z</time></trkpt><trkpt lat="44.60801453600227" lon="7.941379163092332"><ele>308.2</ele><time>2026-04-05T15:21:13.001Z</time></trkpt><trkpt lat="44.60810459678309" lon="7.9414313284639535"><ele>308.4</ele><time>2026-04-05T15:21:14.001Z</time></trkpt><trkpt lat="44.6081944177357" lon="7.941433307300502"><ele>308.59999999999997</ele><time>2026-04-05T15:21:15.001Z</time></trkpt><trkpt lat="44.60829139615934" lon="7.94136408614284"><ele>308.8</ele><time>2026-04-05T15:21:16.001Z</time></trkpt><trkpt lat="44.60836740921963" lon="7.941254065403013"><ele>309.0</ele><time>2026-04-05T15:21:17.001Z</time></trkpt><trkpt lat="44.60841776270918" lon="7.941113564969803"><ele>309.0</ele><time>2026-04-05T15:21:18.001Z</time></trkpt><trkpt lat="44.60844493918275" lon="7.940972079410156"><ele>309.0</ele><time>2026-04-05T15:21:19.001Z</time></trkpt><trkpt lat="44.60847205634502" lon="7.940843143400524"><ele>309.0</ele><time>2026-04-05T15:21:20.001Z</time></trkpt><trkpt lat="44.60851117894712" lon="7.940722729307398"><ele>309.0</ele><time>2026-04-05T15:21:21.001Z</time></trkpt><trkpt lat="44.608549592526124" lon="7.9406072884658565"><ele>309.0</ele><time>2026-04-05T15:21:22.001Z</time></trkpt><trkpt lat="44.60859975298328" lon="7.940506746497472"><ele>310.0</ele><time>2026-04-05T15:21:23.001Z</time></trkpt><trkpt lat="44.60865835767292" lon="7.940422565286482"><ele>311.0</ele><time>2026-04-05T15:21:24.001Z</time></trkpt><trkpt lat="44.60871490397567" lon="7.940360275961483"><ele>312.0</ele><time>2026-04-05T15:21:25.001Z</time></trkpt><trkpt lat="44.60877903601487" lon="7.940319053562156"><ele>313.0</ele><time>2026-04-05T15:21:27.001Z</time></trkpt><trkpt lat="44.608851064758504" lon="7.940286560774622"><ele>314.0</ele><time>2026-04-05T15:21:32.001Z</time></trkpt><trkpt lat="44.60892336183966" lon="7.940270506364855"><ele>315.0</ele><time>2026-04-05T15:21:39.001Z</time></trkpt><trkpt lat="44.60901755650395" lon="7.94026534095451"><ele>312.6</ele><time>2026-04-05T15:21:42.001Z</time></trkpt><trkpt lat="44.609099248027775" lon="7.9402584985106754"><ele>310.2</ele><time>2026-04-05T15:21:54.001Z</time></trkpt><trkpt lat="44.609191603687776" lon="7.940291324345723"><ele>307.8</ele><time>2026-04-05T15:21:56.001Z</time></trkpt><trkpt lat="44.60929465206219" lon="7.9403052950509885"><ele>305.4</ele><time>2026-04-05T15:21:58.001Z</time></trkpt><trkpt lat="44.609412173176025" lon="7.9403079526074825"><ele>303.0</ele><time>2026-04-05T15:22:00.001Z</time></trkpt><trkpt lat="44.60948313506586" lon="7.9403210613524635"><ele>303.6</ele><time>2026-04-05T15:22:01.001Z</time></trkpt><trkpt lat="44.60955891976911" lon="7.940329582203454"><ele>304.20000000000005</ele><time>2026-04-05T15:22:02.001Z</time></trkpt><trkpt lat="44.609629418976624" lon="7.940339375655054"><ele>304.8</ele><time>2026-04-05T15:22:03.001Z</time></trkpt><trkpt lat="44.609742463509335" lon="7.940345708226867"><ele>305.40000000000003</ele><time>2026-04-05T15:22:05.001Z</time></trkpt><trkpt lat="44.60984654852911" lon="7.940343723737311"><ele>306.0</ele><time>2026-04-05T15:22:07.001Z</time></trkpt><trkpt lat="44.6099567905232" lon="7.940330177321767"><ele>306.0</ele><time>2026-04-05T15:22:09.001Z</time></trkpt><trkpt lat="44.610054795776826" lon="7.94032165624055"><ele>306.0</ele><time>2026-04-05T15:22:11.001Z</time></trkpt><trkpt lat="44.61015254022039" lon="7.940340428975404"><ele>306.0</ele><time>2026-04-05T15:22:13.001Z</time></trkpt><trkpt lat="44.610243293520114" lon="7.940327358033608"><ele>306.0</ele><time>2026-04-05T15:22:15.001Z</time></trkpt><trkpt lat="44.610354693761266" lon="7.940324299615124"><ele>306.0</ele><time>2026-04-05T15:22:17.001Z</time></trkpt><trkpt lat="44.610424516440254" lon="7.940315840045376"><ele>306.0</ele><time>2026-04-05T15:22:18.001Z</time></trkpt><trkpt lat="44.610501881455825" lon="7.9403109764616495"><ele>306.0</ele><time>2026-04-05T15:22:19.001Z</time></trkpt><trkpt lat="44.61057825144029" lon="7.94030667974697"><ele>306.0</ele><time>2026-04-05T15:22:20.001Z</time></trkpt><trkpt lat="44.61066576128133" lon="7.940302238093383"><ele>306.0</ele><time>2026-04-05T15:22:21.001Z</time></trkpt><trkpt lat="44.610759108382354" lon="7.940294747063798"><ele>306.0</ele><time>2026-04-05T15:22:22.001Z</time></trkpt><trkpt lat="44.61084777228502" lon="7.940286999083623"><ele>306.0</ele><time>2026-04-05T15:22:23.001Z</time></trkpt><trkpt lat="44.61093792725237" lon="7.940270652396054"><ele>306.0</ele><time>2026-04-05T15:22:24.001Z</time></trkpt><trkpt lat="44.61103260397974" lon="7.940259563806444"><ele>306.0</ele><time>2026-04-05T15:22:25.001Z</time></trkpt><trkpt lat="44.61113074349459" lon="7.940271012422315"><ele>306.0</ele><time>2026-04-05T15:22:26.001Z</time></trkpt><trkpt lat="44.61122786110119" lon="7.940246055721243"><ele>306.0</ele><time>2026-04-05T15:22:27.001Z</time></trkpt><trkpt lat="44.61132425609589" lon="7.940258001441659"><ele>306.0</ele><time>2026-04-05T15:22:28.001Z</time></trkpt><trkpt lat="44.611421393348444" lon="7.940292829021262"><ele>306.40000000000003</ele><time>2026-04-05T15:22:29.001Z</time></trkpt><trkpt lat="44.61151702477956" lon="7.940325275046265"><ele>306.8</ele><time>2026-04-05T15:22:30.001Z</time></trkpt><trkpt lat="44.61160134329582" lon="7.940371840726435"><ele>307.20000000000005</ele><time>2026-04-05T15:22:31.001Z</time></trkpt><trkpt lat="44.61168350630013" lon="7.940417907226842"><ele>307.6</ele><time>2026-04-05T15:22:32.001Z</time></trkpt><trkpt lat="44.61176707519487" lon="7.940460428606918"><ele>308.0</ele><time>2026-04-05T15:22:33.001Z</time></trkpt><trkpt lat="44.6118560928797" lon="7.940503950447649"><ele>308.0</ele><time>2026-04-05T15:22:34.001Z</time></trkpt><trkpt lat="44.61195338321243" lon="7.940556752981825"><ele>308.0</ele><time>2026-04-05T15:22:35.001Z</time></trkpt><trkpt lat="44.612052102117595" lon="7.940611243874417"><ele>308.0</ele><time>2026-04-05T15:22:36.001Z</time></trkpt><trkpt lat="44.612155717321464" lon="7.940659362125819"><ele>308.0</ele><time>2026-04-05T15:22:37.001Z</time></trkpt><trkpt lat="44.61223909850563" lon="7.940694859186599"><ele>308.0</ele><time>2026-04-05T15:22:38.001Z</time></trkpt><trkpt lat="44.61230776075686" lon="7.940720269860082"><ele>308.0</ele><time>2026-04-05T15:22:39.001Z</time></trkpt><trkpt lat="44.61242556908553" lon="7.940762924385916"><ele>308.0</ele><time>2026-04-05T15:22:41.001Z</time></trkpt><trkpt lat="44.61249695187063" lon="7.940792007873395"><ele>308.0</ele><time>2026-04-05T15:22:42.001Z</time></trkpt><trkpt lat="44.61258182128847" lon="7.940818961027474"><ele>308.0</ele><time>2026-04-05T15:22:43.001Z</time></trkpt><trkpt lat="44.612683340465594" lon="7.940849553750963"><ele>308.0</ele><time>2026-04-05T15:22:44.001Z</time></trkpt><trkpt lat="44.61278849849302" lon="7.9408743951266585"><ele>307.0</ele><time>2026-04-05T15:22:45.001Z</time></trkpt><trkpt lat="44.61289190884315" lon="7.94089186268531"><ele>306.0</ele><time>2026-04-05T15:22:46.001Z</time></trkpt><trkpt lat="44.61298829718237" lon="7.94090503517514"><ele>305.0</ele><time>2026-04-05T15:22:47.001Z</time></trkpt><trkpt lat="44.613085069171824" lon="7.940918160999245"><ele>304.0</ele><time>2026-04-05T15:22:48.001Z</time></trkpt><trkpt lat="44.61318328682497" lon="7.940929216197066"><ele>303.0</ele><time>2026-04-05T15:22:49.001Z</time></trkpt><trkpt lat="44.61328274864157" lon="7.94093645535117"><ele>303.0</ele><time>2026-04-05T15:22:50.001Z</time></trkpt><trkpt lat="44.61338253641562" lon="7.940942232878761"><ele>303.0</ele><time>2026-04-05T15:22:51.001Z</time></trkpt><trkpt lat="44.613482841068056" lon="7.940943115548808"><ele>303.0</ele><time>2026-04-05T15:22:52.001Z</time></trkpt><trkpt lat="44.613586013238596" lon="7.9409531613714"><ele>303.0</ele><time>2026-04-05T15:22:53.001Z</time></trkpt><trkpt lat="44.61369386655952" lon="7.940960144681698"><ele>303.0</ele><time>2026-04-05T15:22:54.001Z</time></trkpt><trkpt lat="44.61380330645321" lon="7.940963823963848"><ele>305.6</ele><time>2026-04-05T15:22:55.001Z</time></trkpt><trkpt lat="44.61391644514175" lon="7.9409705315545445"><ele>308.20000000000005</ele><time>2026-04-05T15:22:56.001Z</time></trkpt><trkpt lat="44.614030798559945" lon="7.940979292573469"><ele>310.8</ele><time>2026-04-05T15:22:57.001Z</time></trkpt><trkpt lat="44.614138002821846" lon="7.940989424171894"><ele>313.40000000000003</ele><time>2026-04-05T15:22:58.001Z</time></trkpt><trkpt lat="44.61423555901549" lon="7.94100243470869"><ele>316.0</ele><time>2026-04-05T15:22:59.001Z</time></trkpt><trkpt lat="44.614304658138195" lon="7.941013811615224"><ele>316.0</ele><time>2026-04-05T15:23:00.001Z</time></trkpt><trkpt lat="44.614396247076606" lon="7.941023512125016"><ele>316.0</ele><time>2026-04-05T15:23:03.001Z</time></trkpt><trkpt lat="44.61448868259316" lon="7.940981863552365"><ele>316.0</ele><time>2026-04-05T15:23:05.001Z</time></trkpt><trkpt lat="44.61452571005032" lon="7.94089709212365"><ele>316.0</ele><time>2026-04-05T15:23:06.001Z</time></trkpt><trkpt lat="44.61456007350469" lon="7.940778588747242"><ele>316.0</ele><time>2026-04-05T15:23:07.001Z</time></trkpt><trkpt lat="44.61460667029612" lon="7.940642546785902"><ele>316.25</ele><time>2026-04-05T15:23:08.001Z</time></trkpt><trkpt lat="44.61466572436271" lon="7.940484198887818"><ele>316.5</ele><time>2026-04-05T15:23:09.001Z</time></trkpt><trkpt lat="44.61471977810197" lon="7.940323299358938"><ele>316.75</ele><time>2026-04-05T15:23:10.001Z</time></trkpt><trkpt lat="44.61477697672781" lon="7.9401349645602295"><ele>317.0</ele><time>2026-04-05T15:23:11.001Z</time></trkpt><trkpt lat="44.614831826246494" lon="7.939917994544529"><ele>317.33333333333337</ele><time>2026-04-05T15:23:12.001Z</time></trkpt><trkpt lat="44.614881258365706" lon="7.939686950893677"><ele>317.6666666666667</ele><time>2026-04-05T15:23:13.001Z</time></trkpt><trkpt lat="44.61495397093353" lon="7.939480960990287"><ele>318.0</ele><time>2026-04-05T15:23:14.001Z</time></trkpt><trkpt lat="44.61505674219949" lon="7.939292595271402"><ele>316.3333333333333</ele><time>2026-04-05T15:23:15.001Z</time></trkpt><trkpt lat="44.61518483392004" lon="7.939096603730711"><ele>314.66666666666663</ele><time>2026-04-05T15:23:16.001Z</time></trkpt><trkpt lat="44.6153106664019" lon="7.938876849072476"><ele>313.0</ele><time>2026-04-05T15:23:17.001Z</time></trkpt><trkpt lat="44.6154372731345" lon="7.938668593355674"><ele>313.0</ele><time>2026-04-05T15:23:18.001Z</time></trkpt><trkpt lat="44.61556419379017" lon="7.938465669681875"><ele>313.0</ele><time>2026-04-05T15:23:19.001Z</time></trkpt><trkpt lat="44.61569223408908" lon="7.938255808994686"><ele>313.0</ele><time>2026-04-05T15:23:20.001Z</time></trkpt><trkpt lat="44.615813646562046" lon="7.938032290674588"><ele>317.0</ele><time>2026-04-05T15:23:21.001Z</time></trkpt><trkpt lat="44.615925316736515" lon="7.9378306668304"><ele>321.0</ele><time>2026-04-05T15:23:22.001Z</time></trkpt><trkpt lat="44.61601762609223" lon="7.937649706508809"><ele>325.0</ele><time>2026-04-05T15:23:23.001Z</time></trkpt><trkpt lat="44.61609898138757" lon="7.937448776583256"><ele>324.3333333333333</ele><time>2026-04-05T15:23:24.001Z</time></trkpt><trkpt lat="44.61615304087121" lon="7.937231828786136"><ele>323.6666666666667</ele><time>2026-04-05T15:23:25.001Z</time></trkpt><trkpt lat="44.616187075519555" lon="7.937001003712286"><ele>323.0</ele><time>2026-04-05T15:23:26.001Z</time></trkpt><trkpt lat="44.616199032131625" lon="7.936798642997235"><ele>324.2</ele><time>2026-04-05T15:23:27.001Z</time></trkpt><trkpt lat="44.61621474579911" lon="7.936646216614294"><ele>325.4</ele><time>2026-04-05T15:23:28.001Z</time></trkpt><trkpt lat="44.61622445193711" lon="7.936532486134478"><ele>326.59999999999997</ele><time>2026-04-05T15:23:29.001Z</time></trkpt><trkpt lat="44.61618987400015" lon="7.936397574814401"><ele>327.79999999999995</ele><time>2026-04-05T15:23:31.001Z</time></trkpt><trkpt lat="44.61605038278931" lon="7.9363882458753"><ele>329.0</ele><time>2026-04-05T15:23:33.001Z</time></trkpt><trkpt lat="44.61600713652999" lon="7.936515819024759"><ele>332.75</ele><time>2026-04-05T15:23:34.001Z</time></trkpt><trkpt lat="44.61598307842943" lon="7.936661283212535"><ele>336.5</ele><time>2026-04-05T15:23:35.001Z</time></trkpt><trkpt lat="44.61595673781226" lon="7.93682846559437"><ele>340.25</ele><time>2026-04-05T15:23:36.001Z</time></trkpt><trkpt lat="44.61590367296145" lon="7.936977090730373"><ele>344.0</ele><time>2026-04-05T15:23:37.001Z</time></trkpt><trkpt lat="44.61580675291585" lon="7.937111640625429"><ele>344.0</ele><time>2026-04-05T15:23:38.001Z</time></trkpt><trkpt lat="44.61567924529302" lon="7.937227387171445"><ele>344.0</ele><time>2026-04-05T15:23:39.001Z</time></trkpt><trkpt lat="44.61556006974012" lon="7.9373200415050995"><ele>344.0</ele><time>2026-04-05T15:23:40.001Z</time></trkpt><trkpt lat="44.61549570912071" lon="7.937408923542043"><ele>344.0</ele><time>2026-04-05T15:23:41.001Z</time></trkpt><trkpt lat="44.61540682050069" lon="7.937482864348795"><ele>344.0</ele><time>2026-04-05T15:23:42.001Z</time></trkpt><trkpt lat="44.615327105660015" lon="7.937539591635505"><ele>344.0</ele><time>2026-04-05T15:23:43.001Z</time></trkpt><trkpt lat="44.6152598238098" lon="7.937590966903698"><ele>344.0</ele><time>2026-04-05T15:23:44.001Z</time></trkpt><trkpt lat="44.61518831832901" lon="7.937545136616185"><ele>344.0</ele><time>2026-04-05T15:23:45.001Z</time></trkpt><trkpt lat="44.6151393058648" lon="7.937444056539861"><ele>344.0</ele><time>2026-04-05T15:23:46.001Z</time></trkpt><trkpt lat="44.615145209518936" lon="7.937333106861255"><ele>344.0</ele><time>2026-04-05T15:23:47.001Z</time></trkpt><trkpt lat="44.615197419772244" lon="7.937246178761345"><ele>344.0</ele><time>2026-04-05T15:23:48.001Z</time></trkpt><trkpt lat="44.61528874079164" lon="7.937215298879694"><ele>344.0</ele><time>2026-04-05T15:23:49.001Z</time></trkpt><trkpt lat="44.61536283375827" lon="7.937129782612574"><ele>344.0</ele><time>2026-04-05T15:23:50.001Z</time></trkpt><trkpt lat="44.615453645256544" lon="7.937055506393927"><ele>344.0</ele><time>2026-04-05T15:23:51.001Z</time></trkpt><trkpt lat="44.615556273538" lon="7.936974979692976"><ele>344.0</ele><time>2026-04-05T15:23:52.001Z</time></trkpt><trkpt lat="44.6156564236162" lon="7.936878661280804"><ele>344.0</ele><time>2026-04-05T15:23:53.001Z</time></trkpt><trkpt lat="44.615735792498455" lon="7.936755508308049"><ele>344.0</ele><time>2026-04-05T15:23:54.001Z</time></trkpt><trkpt lat="44.615793277430384" lon="7.936636658388228"><ele>344.0</ele><time>2026-04-05T15:23:55.001Z</time></trkpt><trkpt lat="44.615831008033624" lon="7.936527284806958"><ele>344.0</ele><time>2026-04-05T15:23:56.001Z</time></trkpt><trkpt lat="44.61584694917458" lon="7.936418778635183"><ele>344.0</ele><time>2026-04-05T15:23:57.001Z</time></trkpt><trkpt lat="44.615846574231135" lon="7.936328318964093"><ele>346.6</ele><time>2026-04-05T15:23:58.001Z</time></trkpt><trkpt lat="44.61581464423532" lon="7.936237263328237"><ele>349.2</ele><time>2026-04-05T15:23:59.001Z</time></trkpt><trkpt lat="44.615738235866914" lon="7.936170328572377"><ele>351.8</ele><time>2026-04-05T15:24:00.001Z</time></trkpt><trkpt lat="44.61565529169234" lon="7.936151252531457"><ele>354.40000000000003</ele><time>2026-04-05T15:24:01.001Z</time></trkpt><trkpt lat="44.61557924158846" lon="7.936246059747836"><ele>357.0</ele><time>2026-04-05T15:24:02.001Z</time></trkpt><trkpt lat="44.61554418935136" lon="7.936425593023589"><ele>357.0</ele><time>2026-04-05T15:24:03.001Z</time></trkpt><trkpt lat="44.615528617922315" lon="7.936571041601294"><ele>357.0</ele><time>2026-04-05T15:24:04.001Z</time></trkpt><trkpt lat="44.61549474991754" lon="7.9367084073864085"><ele>357.0</ele><time>2026-04-05T15:24:05.001Z</time></trkpt><trkpt lat="44.61542638883899" lon="7.936801785819195"><ele>357.0</ele><time>2026-04-05T15:24:06.001Z</time></trkpt><trkpt lat="44.61532002277142" lon="7.936828316521358"><ele>357.0</ele><time>2026-04-05T15:24:07.001Z</time></trkpt><trkpt lat="44.615212602364146" lon="7.93687130118736"><ele>356.5</ele><time>2026-04-05T15:24:08.001Z</time></trkpt><trkpt lat="44.61509705480757" lon="7.936896003538087"><ele>356.0</ele><time>2026-04-05T15:24:09.001Z</time></trkpt><trkpt lat="44.614978727057235" lon="7.9369282188602845"><ele>355.5</ele><time>2026-04-05T15:24:10.001Z</time></trkpt><trkpt lat="44.614860984078696" lon="7.93698782170439"><ele>355.0</ele><time>2026-04-05T15:24:11.001Z</time></trkpt><trkpt lat="44.614745275100425" lon="7.9370565755944265"><ele>355.0</ele><time>2026-04-05T15:24:12.001Z</time></trkpt><trkpt lat="44.61462649155852" lon="7.937129718001886"><ele>355.0</ele><time>2026-04-05T15:24:13.001Z</time></trkpt><trkpt lat="44.61450214935839" lon="7.937196683695341"><ele>355.0</ele><time>2026-04-05T15:24:14.001Z</time></trkpt><trkpt lat="44.614378212469674" lon="7.937261946699423"><ele>355.0</ele><time>2026-04-05T15:24:15.001Z</time></trkpt><trkpt lat="44.61425846203149" lon="7.937327209111036"><ele>354.6</ele><time>2026-04-05T15:24:16.001Z</time></trkpt><trkpt lat="44.61414026566864" lon="7.9373971250236135"><ele>354.2</ele><time>2026-04-05T15:24:17.001Z</time></trkpt><trkpt lat="44.6140294187052" lon="7.937464366199744"><ele>353.79999999999995</ele><time>2026-04-05T15:24:18.001Z</time></trkpt><trkpt lat="44.613932391554705" lon="7.937525470494716"><ele>353.4</ele><time>2026-04-05T15:24:19.001Z</time></trkpt><trkpt lat="44.61385101680169" lon="7.93758334922414"><ele>353.0</ele><time>2026-04-05T15:24:20.001Z</time></trkpt><trkpt lat="44.61378122602079" lon="7.937633035404408"><ele>353.0</ele><time>2026-04-05T15:24:21.001Z</time></trkpt><trkpt lat="44.61371773920209" lon="7.937675694063111"><ele>353.0</ele><time>2026-04-05T15:24:22.001Z</time></trkpt><trkpt lat="44.613656640859354" lon="7.937720660297248"><ele>353.0</ele><time>2026-04-05T15:24:23.001Z</time></trkpt><trkpt lat="44.61359393773799" lon="7.9377746893531285"><ele>353.0</ele><time>2026-04-05T15:24:24.001Z</time></trkpt><trkpt lat="44.613525123832154" lon="7.937828055158765"><ele>353.0</ele><time>2026-04-05T15:24:25.001Z</time></trkpt><trkpt lat="44.61344699688612" lon="7.937879354666709"><ele>353.0</ele><time>2026-04-05T15:24:26.001Z</time></trkpt><trkpt lat="44.613367591326806" lon="7.937908491790357"><ele>354.5</ele><time>2026-04-05T15:24:27.001Z</time></trkpt><trkpt lat="44.61328843100771" lon="7.937888854994741"><ele>356.0</ele><time>2026-04-05T15:24:28.001Z</time></trkpt><trkpt lat="44.61322840358863" lon="7.937835813834452"><ele>357.5</ele><time>2026-04-05T15:24:29.001Z</time></trkpt><trkpt lat="44.61317260442164" lon="7.937676844730059"><ele>359.0</ele><time>2026-04-05T15:24:31.001Z</time></trkpt><trkpt lat="44.61316991327396" lon="7.937564296043449"><ele>360.5</ele><time>2026-04-05T15:24:32.001Z</time></trkpt><trkpt lat="44.61318105423437" lon="7.93744049504648"><ele>362.0</ele><time>2026-04-05T15:24:33.001Z</time></trkpt><trkpt lat="44.61317641797068" lon="7.9373059385529485"><ele>365.40000000000003</ele><time>2026-04-05T15:24:34.001Z</time></trkpt><trkpt lat="44.61314828825363" lon="7.937163225449617"><ele>368.8</ele><time>2026-04-05T15:24:35.001Z</time></trkpt><trkpt lat="44.613102270672286" lon="7.937017826487475"><ele>372.2</ele><time>2026-04-05T15:24:36.001Z</time></trkpt><trkpt lat="44.61304320844415" lon="7.9368862563416975"><ele>375.6</ele><time>2026-04-05T15:24:37.001Z</time></trkpt><trkpt lat="44.6129778443767" lon="7.936784814337752"><ele>379.0</ele><time>2026-04-05T15:24:38.001Z</time></trkpt><trkpt lat="44.61290329880431" lon="7.9367054385127505"><ele>379.5</ele><time>2026-04-05T15:24:39.001Z</time></trkpt><trkpt lat="44.61281698041262" lon="7.936630804779718"><ele>380.0</ele><time>2026-04-05T15:24:40.001Z</time></trkpt><trkpt lat="44.61272856774218" lon="7.936562523057489"><ele>380.5</ele><time>2026-04-05T15:24:41.001Z</time></trkpt><trkpt lat="44.612658022509635" lon="7.936513101894749"><ele>381.0</ele><time>2026-04-05T15:24:42.001Z</time></trkpt><trkpt lat="44.61259953501226" lon="7.936471793263863"><ele>381.5</ele><time>2026-04-05T15:24:43.001Z</time></trkpt><trkpt lat="44.61253825918599" lon="7.936421525211562"><ele>382.0</ele><time>2026-04-05T15:24:44.001Z</time></trkpt><trkpt lat="44.61247743055184" lon="7.936375013229222"><ele>382.0</ele><time>2026-04-05T15:24:45.001Z</time></trkpt><trkpt lat="44.61240563728106" lon="7.936315466735801"><ele>382.0</ele><time>2026-04-05T15:24:47.001Z</time></trkpt><trkpt lat="44.61234665864309" lon="7.936270206402481"><ele>382.0</ele><time>2026-04-05T15:24:49.001Z</time></trkpt><trkpt lat="44.61228118566318" lon="7.936176927788908"><ele>382.0</ele><time>2026-04-05T15:24:51.001Z</time></trkpt><trkpt lat="44.61234363047745" lon="7.936056298020771"><ele>382.0</ele><time>2026-04-05T15:24:53.001Z</time></trkpt><trkpt lat="44.61242122927617" lon="7.936063865340337"><ele>382.0</ele><time>2026-04-05T15:24:54.001Z</time></trkpt><trkpt lat="44.61249721765927" lon="7.936163897638807"><ele>382.0</ele><time>2026-04-05T15:24:55.001Z</time></trkpt><trkpt lat="44.61260699457543" lon="7.936218598291018"><ele>382.0</ele><time>2026-04-05T15:24:56.001Z</time></trkpt><trkpt lat="44.61270999645447" lon="7.936299100066557"><ele>382.0</ele><time>2026-04-05T15:24:57.001Z</time></trkpt><trkpt lat="44.61281611878921" lon="7.936374350883108"><ele>382.0</ele><time>2026-04-05T15:24:58.001Z</time></trkpt><trkpt lat="44.61291890928597" lon="7.9364407673255215"><ele>385.0</ele><time>2026-04-05T15:24:59.001Z</time></trkpt><trkpt lat="44.613022001496574" lon="7.936509596422868"><ele>388.0</ele><time>2026-04-05T15:25:00.001Z</time></trkpt><trkpt lat="44.613127608763676" lon="7.936580889044377"><ele>391.0</ele><time>2026-04-05T15:25:01.001Z</time></trkpt><trkpt lat="44.61323420242933" lon="7.936646782838221"><ele>394.0</ele><time>2026-04-05T15:25:02.001Z</time></trkpt><trkpt lat="44.61334343594522" lon="7.93669415320188"><ele>394.0</ele><time>2026-04-05T15:25:03.001Z</time></trkpt><trkpt lat="44.61346054509515" lon="7.9367125398935725"><ele>394.0</ele><time>2026-04-05T15:25:04.001Z</time></trkpt><trkpt lat="44.61358851755207" lon="7.936693873466235"><ele>394.0</ele><time>2026-04-05T15:25:05.001Z</time></trkpt><trkpt lat="44.613720428191904" lon="7.936642331756847"><ele>394.0</ele><time>2026-04-05T15:25:06.001Z</time></trkpt><trkpt lat="44.6138496370469" lon="7.936568519046579"><ele>393.25</ele><time>2026-04-05T15:25:07.001Z</time></trkpt><trkpt lat="44.61396939267403" lon="7.936474046520462"><ele>392.5</ele><time>2026-04-05T15:25:08.001Z</time></trkpt><trkpt lat="44.61407864919132" lon="7.936388231236515"><ele>391.75</ele><time>2026-04-05T15:25:09.001Z</time></trkpt><trkpt lat="44.61417769903268" lon="7.936317629218016"><ele>391.0</ele><time>2026-04-05T15:25:10.001Z</time></trkpt><trkpt lat="44.61426366884856" lon="7.936243865931301"><ele>391.0</ele><time>2026-04-05T15:25:11.001Z</time></trkpt><trkpt lat="44.61433924673442" lon="7.936132713855555"><ele>391.0</ele><time>2026-04-05T15:25:12.001Z</time></trkpt><trkpt lat="44.6143959128772" lon="7.935981231422519"><ele>391.0</ele><time>2026-04-05T15:25:13.001Z</time></trkpt><trkpt lat="44.61443055736486" lon="7.935808516143106"><ele>391.0</ele><time>2026-04-05T15:25:14.001Z</time></trkpt><trkpt lat="44.61444365924593" lon="7.935620056767783"><ele>394.75</ele><time>2026-04-05T15:25:15.001Z</time></trkpt><trkpt lat="44.61444321544776" lon="7.935420486344801"><ele>398.5</ele><time>2026-04-05T15:25:16.001Z</time></trkpt><trkpt lat="44.61444767305986" lon="7.9352166957952335"><ele>402.25</ele><time>2026-04-05T15:25:17.001Z</time></trkpt><trkpt lat="44.614460835445385" lon="7.935013530333071"><ele>406.0</ele><time>2026-04-05T15:25:18.001Z</time></trkpt><trkpt lat="44.61447329352448" lon="7.934816630093513"><ele>406.0</ele><time>2026-04-05T15:25:19.001Z</time></trkpt><trkpt lat="44.61448542943267" lon="7.934643361899962"><ele>406.0</ele><time>2026-04-05T15:25:20.001Z</time></trkpt><trkpt lat="44.61450142884961" lon="7.93449008168498"><ele>406.0</ele><time>2026-04-05T15:25:21.001Z</time></trkpt><trkpt lat="44.61452984222615" lon="7.934337298765578"><ele>406.0</ele><time>2026-04-05T15:25:22.001Z</time></trkpt><trkpt lat="44.614570286646895" lon="7.934179117381192"><ele>403.75</ele><time>2026-04-05T15:25:23.001Z</time></trkpt><trkpt lat="44.61462637667573" lon="7.93402235247358"><ele>401.5</ele><time>2026-04-05T15:25:24.001Z</time></trkpt><trkpt lat="44.61471733112277" lon="7.933896770649557"><ele>399.25</ele><time>2026-04-05T15:25:25.001Z</time></trkpt><trkpt lat="44.614799990654944" lon="7.933761983009406"><ele>397.0</ele><time>2026-04-05T15:25:26.001Z</time></trkpt><trkpt lat="44.614896522896736" lon="7.933640441581072"><ele>397.0</ele><time>2026-04-05T15:25:27.001Z</time></trkpt><trkpt lat="44.6149951202665" lon="7.933513438977653"><ele>397.0</ele><time>2026-04-05T15:25:28.001Z</time></trkpt><trkpt lat="44.61509816569612" lon="7.933375644977582"><ele>397.0</ele><time>2026-04-05T15:25:29.001Z</time></trkpt><trkpt lat="44.61520462277194" lon="7.93323276671886"><ele>397.0</ele><time>2026-04-05T15:25:30.001Z</time></trkpt><trkpt lat="44.61531053802658" lon="7.933092836003087"><ele>396.75</ele><time>2026-04-05T15:25:31.001Z</time></trkpt><trkpt lat="44.615412619137366" lon="7.932959025998013"><ele>396.5</ele><time>2026-04-05T15:25:32.001Z</time></trkpt><trkpt lat="44.61550434810333" lon="7.932835867269476"><ele>396.25</ele><time>2026-04-05T15:25:33.001Z</time></trkpt><trkpt lat="44.615592562781565" lon="7.932719789448299"><ele>396.0</ele><time>2026-04-05T15:25:34.001Z</time></trkpt><trkpt lat="44.61567390001481" lon="7.932614772791907"><ele>398.5</ele><time>2026-04-05T15:25:35.001Z</time></trkpt><trkpt lat="44.615769368293364" lon="7.932492402285406"><ele>401.0</ele><time>2026-04-05T15:25:36.001Z</time></trkpt><trkpt lat="44.615875961252385" lon="7.932355818449825"><ele>403.5</ele><time>2026-04-05T15:25:37.001Z</time></trkpt><trkpt lat="44.61598541368376" lon="7.9322093006038665"><ele>406.0</ele><time>2026-04-05T15:25:38.001Z</time></trkpt><trkpt lat="44.616094943501615" lon="7.932060799428085"><ele>406.75</ele><time>2026-04-05T15:25:39.001Z</time></trkpt><trkpt lat="44.61619986074425" lon="7.93191658900069"><ele>407.5</ele><time>2026-04-05T15:25:40.001Z</time></trkpt><trkpt lat="44.61630193172636" lon="7.93178559077353"><ele>408.25</ele><time>2026-04-05T15:25:41.001Z</time></trkpt><trkpt lat="44.61639878045059" lon="7.931666500674224"><ele>409.0</ele><time>2026-04-05T15:25:42.001Z</time></trkpt><trkpt lat="44.61649340360506" lon="7.931543948050702"><ele>409.0</ele><time>2026-04-05T15:25:43.001Z</time></trkpt><trkpt lat="44.61658079590176" lon="7.9314283111644395"><ele>409.0</ele><time>2026-04-05T15:25:44.001Z</time></trkpt><trkpt lat="44.61665424475729" lon="7.931287475445747"><ele>409.0</ele><time>2026-04-05T15:25:45.001Z</time></trkpt><trkpt lat="44.616695760580434" lon="7.931106189078309"><ele>409.0</ele><time>2026-04-05T15:25:46.001Z</time></trkpt><trkpt lat="44.616686617936395" lon="7.93089520320204"><ele>409.6666666666667</ele><time>2026-04-05T15:25:47.001Z</time></trkpt><trkpt lat="44.61663145317534" lon="7.930682215375943"><ele>410.33333333333337</ele><time>2026-04-05T15:25:48.001Z</time></trkpt><trkpt lat="44.61654266218" lon="7.93048220604247"><ele>411.0</ele><time>2026-04-05T15:25:49.001Z</time></trkpt><trkpt lat="44.61644532078631" lon="7.930296245046125"><ele>411.0</ele><time>2026-04-05T15:25:50.001Z</time></trkpt><trkpt lat="44.61635240313972" lon="7.930100948306852"><ele>411.0</ele><time>2026-04-05T15:25:51.001Z</time></trkpt><trkpt lat="44.61626676034791" lon="7.9298985419252945"><ele>411.0</ele><time>2026-04-05T15:25:52.001Z</time></trkpt><trkpt lat="44.61618217620285" lon="7.929700534169383"><ele>410.25</ele><time>2026-04-05T15:25:53.001Z</time></trkpt><trkpt lat="44.616104151812465" lon="7.929531328694549"><ele>409.5</ele><time>2026-04-05T15:25:54.001Z</time></trkpt><trkpt lat="44.616038265432636" lon="7.929380747951467"><ele>408.75</ele><time>2026-04-05T15:25:55.001Z</time></trkpt><trkpt lat="44.615977797120124" lon="7.929234470255248"><ele>408.0</ele><time>2026-04-05T15:25:56.001Z</time></trkpt><trkpt lat="44.6159127747943" lon="7.9290924270954"><ele>409.79999999999995</ele><time>2026-04-05T15:25:57.001Z</time></trkpt><trkpt lat="44.6158486683338" lon="7.928954198711203"><ele>411.6</ele><time>2026-04-05T15:25:58.001Z</time></trkpt><trkpt lat="44.6157931305218" lon="7.928822189477637"><ele>413.4</ele><time>2026-04-05T15:25:59.001Z</time></trkpt><trkpt lat="44.61574542968105" lon="7.928699992638142"><ele>415.20000000000005</ele><time>2026-04-05T15:26:00.001Z</time></trkpt><trkpt lat="44.615706261399346" lon="7.92858311915032"><ele>417.0</ele><time>2026-04-05T15:26:01.001Z</time></trkpt><trkpt lat="44.615666179978895" lon="7.928469377157585"><ele>418.5</ele><time>2026-04-05T15:26:02.001Z</time></trkpt><trkpt lat="44.61562839075052" lon="7.928357313766598"><ele>420.0</ele><time>2026-04-05T15:26:03.001Z</time></trkpt><trkpt lat="44.61559437034892" lon="7.928251543040692"><ele>421.5</ele><time>2026-04-05T15:26:04.001Z</time></trkpt><trkpt lat="44.61556638506819" lon="7.928153705892587"><ele>423.0</ele><time>2026-04-05T15:26:05.001Z</time></trkpt><trkpt lat="44.61553480306018" lon="7.9280342616424715"><ele>424.5</ele><time>2026-04-05T15:26:07.001Z</time></trkpt><trkpt lat="44.61553037135917" lon="7.927942265852929"><ele>426.0</ele><time>2026-04-05T15:26:09.001Z</time></trkpt><trkpt lat="44.61557943523934" lon="7.927867612373136"><ele>426.0</ele><time>2026-04-05T15:26:11.001Z</time></trkpt><trkpt lat="44.615644021182156" lon="7.928019064142378"><ele>426.0</ele><time>2026-04-05T15:26:14.001Z</time></trkpt><trkpt lat="44.61574363391026" lon="7.928147142428927"><ele>426.0</ele><time>2026-04-05T15:26:16.001Z</time></trkpt><trkpt lat="44.61579808420288" lon="7.928248466185312"><ele>426.0</ele><time>2026-04-05T15:26:17.001Z</time></trkpt><trkpt lat="44.61587713601918" lon="7.928311683462541"><ele>426.0</ele><time>2026-04-05T15:26:18.001Z</time></trkpt><trkpt lat="44.61597337348339" lon="7.928343858407317"><ele>426.0</ele><time>2026-04-05T15:26:19.001Z</time></trkpt><trkpt lat="44.61607448581753" lon="7.9283892767096615"><ele>426.0</ele><time>2026-04-05T15:26:20.001Z</time></trkpt><trkpt lat="44.61618201447103" lon="7.928421037967261"><ele>426.0</ele><time>2026-04-05T15:26:21.001Z</time></trkpt><trkpt lat="44.61629783493389" lon="7.928441591630419"><ele>426.0</ele><time>2026-04-05T15:26:22.001Z</time></trkpt><trkpt lat="44.616423031829655" lon="7.928470163450052"><ele>424.5</ele><time>2026-04-05T15:26:23.001Z</time></trkpt><trkpt lat="44.61654695972848" lon="7.9285029367869875"><ele>423.0</ele><time>2026-04-05T15:26:24.001Z</time></trkpt><trkpt lat="44.61667817337826" lon="7.928532100659732"><ele>421.5</ele><time>2026-04-05T15:26:25.001Z</time></trkpt><trkpt lat="44.61680939659263" lon="7.928581571196709"><ele>420.0</ele><time>2026-04-05T15:26:26.001Z</time></trkpt><trkpt lat="44.61694460525901" lon="7.928614350073729"><ele>421.0</ele><time>2026-04-05T15:26:27.001Z</time></trkpt><trkpt lat="44.61707879963445" lon="7.9286468830244985"><ele>422.0</ele><time>2026-04-05T15:26:28.001Z</time></trkpt><trkpt lat="44.61721078811805" lon="7.928682387221566"><ele>423.0</ele><time>2026-04-05T15:26:29.001Z</time></trkpt><trkpt lat="44.61737216412052" lon="7.928706124724557"><ele>424.0</ele><time>2026-04-05T15:26:30.001Z</time></trkpt><trkpt lat="44.61750211593806" lon="7.928738771796435"><ele>424.0</ele><time>2026-04-05T15:26:31.001Z</time></trkpt><trkpt lat="44.61761481127285" lon="7.928776532815867"><ele>424.0</ele><time>2026-04-05T15:26:32.001Z</time></trkpt><trkpt lat="44.61771868738321" lon="7.928805781181698"><ele>424.0</ele><time>2026-04-05T15:26:33.001Z</time></trkpt><trkpt lat="44.617821739830745" lon="7.928824591281387"><ele>424.0</ele><time>2026-04-05T15:26:34.001Z</time></trkpt><trkpt lat="44.61793892671817" lon="7.9288388541740265"><ele>424.0</ele><time>2026-04-05T15:26:35.001Z</time></trkpt><trkpt lat="44.61806554529985" lon="7.928831732669772"><ele>423.5</ele><time>2026-04-05T15:26:36.001Z</time></trkpt><trkpt lat="44.61819518282261" lon="7.928799875816531"><ele>423.0</ele><time>2026-04-05T15:26:37.001Z</time></trkpt><trkpt lat="44.61832303708965" lon="7.928741002404206"><ele>422.5</ele><time>2026-04-05T15:26:38.001Z</time></trkpt><trkpt lat="44.61845942069614" lon="7.928664632514198"><ele>422.0</ele><time>2026-04-05T15:26:39.001Z</time></trkpt><trkpt lat="44.61860520718882" lon="7.928580100314889"><ele>420.0</ele><time>2026-04-05T15:26:40.001Z</time></trkpt><trkpt lat="44.61874375158018" lon="7.928504869339903"><ele>418.0</ele><time>2026-04-05T15:26:41.001Z</time></trkpt><trkpt lat="44.618868932223265" lon="7.928443616544414"><ele>416.0</ele><time>2026-04-05T15:26:42.001Z</time></trkpt><trkpt lat="44.61899349839897" lon="7.928383054923406"><ele>414.0</ele><time>2026-04-05T15:26:43.001Z</time></trkpt><trkpt lat="44.619126662234265" lon="7.928322713532723"><ele>416.75</ele><time>2026-04-05T15:26:44.001Z</time></trkpt><trkpt lat="44.61925976962415" lon="7.928259883581646"><ele>419.5</ele><time>2026-04-05T15:26:45.001Z</time></trkpt><trkpt lat="44.619392328190216" lon="7.928198279403369"><ele>422.25</ele><time>2026-04-05T15:26:46.001Z</time></trkpt><trkpt lat="44.61953453271705" lon="7.928176096451342"><ele>425.0</ele><time>2026-04-05T15:26:47.001Z</time></trkpt><trkpt lat="44.61967347196455" lon="7.928157387273071"><ele>425.0</ele><time>2026-04-05T15:26:48.001Z</time></trkpt><trkpt lat="44.61981814381047" lon="7.928145113988284"><ele>425.0</ele><time>2026-04-05T15:26:49.001Z</time></trkpt><trkpt lat="44.619967509339574" lon="7.928120155604795"><ele>425.0</ele><time>2026-04-05T15:26:50.001Z</time></trkpt><trkpt lat="44.62012239534799" lon="7.928116272888999"><ele>425.0</ele><time>2026-04-05T15:26:51.001Z</time></trkpt><trkpt lat="44.620280427703804" lon="7.928106025429535"><ele>425.0</ele><time>2026-04-05T15:26:52.001Z</time></trkpt><trkpt lat="44.620437127874666" lon="7.928095729652387"><ele>425.0</ele><time>2026-04-05T15:26:53.001Z</time></trkpt><trkpt lat="44.620594249447294" lon="7.9280896228118545"><ele>425.0</ele><time>2026-04-05T15:26:54.001Z</time></trkpt><trkpt lat="44.62075068923406" lon="7.928086742880854"><ele>425.0</ele><time>2026-04-05T15:26:55.001Z</time></trkpt><trkpt lat="44.62090765032736" lon="7.928085411320265"><ele>425.0</ele><time>2026-04-05T15:26:56.001Z</time></trkpt><trkpt lat="44.621068484611115" lon="7.92809354809734"><ele>425.66666666666663</ele><time>2026-04-05T15:26:57.001Z</time></trkpt><trkpt lat="44.6212340021931" lon="7.928118321454312"><ele>426.33333333333337</ele><time>2026-04-05T15:26:58.001Z</time></trkpt><trkpt lat="44.6214005719593" lon="7.928156024829393"><ele>427.0</ele><time>2026-04-05T15:26:59.001Z</time></trkpt><trkpt lat="44.621568655290574" lon="7.928191638720664"><ele>427.0</ele><time>2026-04-05T15:27:00.001Z</time></trkpt><trkpt lat="44.62173969095748" lon="7.928220265770438"><ele>427.0</ele><time>2026-04-05T15:27:01.001Z</time></trkpt><trkpt lat="44.62191332515931" lon="7.928252724618158"><ele>427.0</ele><time>2026-04-05T15:27:02.001Z</time></trkpt><trkpt lat="44.62208368934092" lon="7.928297970113869"><ele>429.33333333333337</ele><time>2026-04-05T15:27:03.001Z</time></trkpt><trkpt lat="44.622251385681054" lon="7.928358792178527"><ele>431.66666666666663</ele><time>2026-04-05T15:27:04.001Z</time></trkpt><trkpt lat="44.622418339385966" lon="7.928426771575167"><ele>434.0</ele><time>2026-04-05T15:27:05.001Z</time></trkpt><trkpt lat="44.622586387521785" lon="7.9284978490121665"><ele>431.66666666666663</ele><time>2026-04-05T15:27:06.001Z</time></trkpt><trkpt lat="44.622750520847156" lon="7.9285741011165305"><ele>429.33333333333337</ele><time>2026-04-05T15:27:07.001Z</time></trkpt><trkpt lat="44.62291683885925" lon="7.928645377886256"><ele>427.0</ele><time>2026-04-05T15:27:08.001Z</time></trkpt><trkpt lat="44.623082512197925" lon="7.928717245892189"><ele>427.0</ele><time>2026-04-05T15:27:09.001Z</time></trkpt><trkpt lat="44.623249281540915" lon="7.928787520135634"><ele>427.0</ele><time>2026-04-05T15:27:10.001Z</time></trkpt><trkpt lat="44.623415704478596" lon="7.9288577887672895"><ele>427.0</ele><time>2026-04-05T15:27:11.001Z</time></trkpt><trkpt lat="44.62358086039266" lon="7.928930296458804"><ele>430.6666666666667</ele><time>2026-04-05T15:27:12.001Z</time></trkpt><trkpt lat="44.62374564471685" lon="7.929004432268448"><ele>434.33333333333337</ele><time>2026-04-05T15:27:13.001Z</time></trkpt><trkpt lat="44.6239098073842" lon="7.929074498407663"><ele>438.0</ele><time>2026-04-05T15:27:14.001Z</time></trkpt><trkpt lat="44.624078052979016" lon="7.929138959167818"><ele>436.0</ele><time>2026-04-05T15:27:15.001Z</time></trkpt><trkpt lat="44.6242357637083" lon="7.9292332019744665"><ele>434.0</ele><time>2026-04-05T15:27:16.001Z</time></trkpt><trkpt lat="44.62440078350859" lon="7.929294440242084"><ele>432.0</ele><time>2026-04-05T15:27:17.001Z</time></trkpt><trkpt lat="44.62455027161475" lon="7.929406160743417"><ele>432.0</ele><time>2026-04-05T15:27:18.001Z</time></trkpt><trkpt lat="44.62469461700041" lon="7.929532246002532"><ele>432.0</ele><time>2026-04-05T15:27:19.001Z</time></trkpt><trkpt lat="44.62483869129774" lon="7.929676919962438"><ele>432.0</ele><time>2026-04-05T15:27:20.001Z</time></trkpt><trkpt lat="44.62498281598376" lon="7.929835714964081"><ele>432.0</ele><time>2026-04-05T15:27:21.001Z</time></trkpt><trkpt lat="44.62512326029844" lon="7.929997397048183"><ele>432.0</ele><time>2026-04-05T15:27:22.001Z</time></trkpt><trkpt lat="44.62526618524315" lon="7.930151666357808"><ele>432.0</ele><time>2026-04-05T15:27:23.001Z</time></trkpt><trkpt lat="44.625418747034544" lon="7.930290036034"><ele>431.66666666666663</ele><time>2026-04-05T15:27:24.001Z</time></trkpt><trkpt lat="44.62559077992238" lon="7.930410663856577"><ele>431.3333333333333</ele><time>2026-04-05T15:27:25.001Z</time></trkpt><trkpt lat="44.62576789653931" lon="7.9305193392775815"><ele>431.0</ele><time>2026-04-05T15:27:26.001Z</time></trkpt><trkpt lat="44.62593850123319" lon="7.930624445614359"><ele>431.0</ele><time>2026-04-05T15:27:27.001Z</time></trkpt><trkpt lat="44.626108909029135" lon="7.930734405243735"><ele>431.0</ele><time>2026-04-05T15:27:28.001Z</time></trkpt><trkpt lat="44.62627886944387" lon="7.930844799426134"><ele>431.0</ele><time>2026-04-05T15:27:29.001Z</time></trkpt><trkpt lat="44.62644795511756" lon="7.930956646917556"><ele>432.0</ele><time>2026-04-05T15:27:30.001Z</time></trkpt><trkpt lat="44.626613242995234" lon="7.931070722473726"><ele>433.0</ele><time>2026-04-05T15:27:31.001Z</time></trkpt><trkpt lat="44.626775879375515" lon="7.931189158178723"><ele>434.0</ele><time>2026-04-05T15:27:32.001Z</time></trkpt><trkpt lat="44.62693371018378" lon="7.931301585409195"><ele>439.0</ele><time>2026-04-05T15:27:33.001Z</time></trkpt><trkpt lat="44.62709520255655" lon="7.931416116924204"><ele>444.0</ele><time>2026-04-05T15:27:34.001Z</time></trkpt><trkpt lat="44.627255338917514" lon="7.931532199870248"><ele>449.0</ele><time>2026-04-05T15:27:35.001Z</time></trkpt><trkpt lat="44.627411575942666" lon="7.931649723544011"><ele>445.66666666666663</ele><time>2026-04-05T15:27:36.001Z</time></trkpt><trkpt lat="44.62755660917859" lon="7.931769977514875"><ele>442.33333333333337</ele><time>2026-04-05T15:27:37.001Z</time></trkpt><trkpt lat="44.62768702743299" lon="7.931912834804713"><ele>439.0</ele><time>2026-04-05T15:27:38.001Z</time></trkpt><trkpt lat="44.62778374329483" lon="7.9321079690638"><ele>445.33333333333337</ele><time>2026-04-05T15:27:39.001Z</time></trkpt><trkpt lat="44.62786616074914" lon="7.932318631864661"><ele>451.66666666666663</ele><time>2026-04-05T15:27:40.001Z</time></trkpt><trkpt lat="44.62792342958903" lon="7.932550880525779"><ele>458.0</ele><time>2026-04-05T15:27:41.001Z</time></trkpt><trkpt lat="44.62799195082466" lon="7.932788556193275"><ele>458.0</ele><time>2026-04-05T15:27:42.001Z</time></trkpt><trkpt lat="44.62804269791159" lon="7.933029728676831"><ele>458.0</ele><time>2026-04-05T15:27:43.001Z</time></trkpt><trkpt lat="44.62809724990174" lon="7.933248210177561"><ele>458.0</ele><time>2026-04-05T15:27:44.001Z</time></trkpt><trkpt lat="44.62814545536052" lon="7.933446345810687"><ele>456.0</ele><time>2026-04-05T15:27:45.001Z</time></trkpt><trkpt lat="44.62819127547983" lon="7.933640283667467"><ele>454.0</ele><time>2026-04-05T15:27:46.001Z</time></trkpt><trkpt lat="44.62823473050037" lon="7.933834147434435"><ele>452.0</ele><time>2026-04-05T15:27:47.001Z</time></trkpt><trkpt lat="44.62827223665264" lon="7.934011588379446"><ele>450.0</ele><time>2026-04-05T15:27:48.001Z</time></trkpt><trkpt lat="44.62830718795414" lon="7.934175537609486"><ele>447.0</ele><time>2026-04-05T15:27:49.001Z</time></trkpt><trkpt lat="44.62835486359285" lon="7.934332484156603"><ele>444.0</ele><time>2026-04-05T15:27:50.001Z</time></trkpt><trkpt lat="44.62842176882299" lon="7.934470321350445"><ele>441.0</ele><time>2026-04-05T15:27:51.001Z</time></trkpt><trkpt lat="44.62851237304377" lon="7.934577121199979"><ele>438.0</ele><time>2026-04-05T15:27:52.001Z</time></trkpt><trkpt lat="44.62862558779215" lon="7.934644540575851"><ele>439.5</ele><time>2026-04-05T15:27:53.001Z</time></trkpt><trkpt lat="44.62875117977826" lon="7.934670072955336"><ele>441.0</ele><time>2026-04-05T15:27:54.001Z</time></trkpt><trkpt lat="44.6288799046584" lon="7.93465820165793"><ele>442.5</ele><time>2026-04-05T15:27:55.001Z</time></trkpt><trkpt lat="44.62899202532021" lon="7.93461786478064"><ele>444.0</ele><time>2026-04-05T15:27:56.001Z</time></trkpt><trkpt lat="44.629099932126714" lon="7.9345423286735715"><ele>444.0</ele><time>2026-04-05T15:27:57.001Z</time></trkpt><trkpt lat="44.62919674997172" lon="7.934424168886237"><ele>444.0</ele><time>2026-04-05T15:27:58.001Z</time></trkpt><trkpt lat="44.62928431561763" lon="7.934279837428594"><ele>444.0</ele><time>2026-04-05T15:27:59.001Z</time></trkpt><trkpt lat="44.62936487115613" lon="7.934130180283303"><ele>444.0</ele><time>2026-04-05T15:28:00.001Z</time></trkpt><trkpt lat="44.62944172548737" lon="7.933986666777938"><ele>443.0</ele><time>2026-04-05T15:28:01.001Z</time></trkpt><trkpt lat="44.62952101273516" lon="7.933859567146169"><ele>442.0</ele><time>2026-04-05T15:28:02.001Z</time></trkpt><trkpt lat="44.62961458926204" lon="7.933738898671611"><ele>441.0</ele><time>2026-04-05T15:28:03.001Z</time></trkpt><trkpt lat="44.62972046298658" lon="7.933622237993048"><ele>440.0</ele><time>2026-04-05T15:28:04.001Z</time></trkpt><trkpt lat="44.62983159191836" lon="7.93351769550714"><ele>440.0</ele><time>2026-04-05T15:28:05.001Z</time></trkpt><trkpt lat="44.62995203343052" lon="7.9334163142917244"><ele>440.0</ele><time>2026-04-05T15:28:06.001Z</time></trkpt><trkpt lat="44.63007199123204" lon="7.933332539226814"><ele>440.0</ele><time>2026-04-05T15:28:07.001Z</time></trkpt><trkpt lat="44.630185437230935" lon="7.9332715895672505"><ele>440.0</ele><time>2026-04-05T15:28:08.001Z</time></trkpt><trkpt lat="44.63029034638889" lon="7.93323457850799"><ele>443.0</ele><time>2026-04-05T15:28:09.001Z</time></trkpt><trkpt lat="44.630397914236646" lon="7.933199784571139"><ele>446.0</ele><time>2026-04-05T15:28:10.001Z</time></trkpt><trkpt lat="44.630512622534724" lon="7.933165419378558"><ele>449.0</ele><time>2026-04-05T15:28:11.001Z</time></trkpt><trkpt lat="44.630632817137815" lon="7.933123824675982"><ele>452.0</ele><time>2026-04-05T15:28:12.001Z</time></trkpt><trkpt lat="44.63075775842439" lon="7.933080978432839"><ele>452.0</ele><time>2026-04-05T15:28:13.001Z</time></trkpt><trkpt lat="44.63088679230653" lon="7.933043334869753"><ele>452.0</ele><time>2026-04-05T15:28:14.001Z</time></trkpt><trkpt lat="44.63101645973883" lon="7.932991951741706"><ele>452.0</ele><time>2026-04-05T15:28:15.001Z</time></trkpt><trkpt lat="44.63114702767481" lon="7.932939498901875"><ele>452.0</ele><time>2026-04-05T15:28:16.001Z</time></trkpt><trkpt lat="44.631277786708395" lon="7.932894108781237"><ele>451.25</ele><time>2026-04-05T15:28:17.001Z</time></trkpt><trkpt lat="44.63141352792806" lon="7.93285344730238"><ele>450.5</ele><time>2026-04-05T15:28:18.001Z</time></trkpt><trkpt lat="44.63154721422053" lon="7.932809902482439"><ele>449.75</ele><time>2026-04-05T15:28:19.001Z</time></trkpt><trkpt lat="44.63167979478972" lon="7.9327695024353915"><ele>449.0</ele><time>2026-04-05T15:28:20.001Z</time></trkpt><trkpt lat="44.63181164931771" lon="7.9327253022770945"><ele>449.0</ele><time>2026-04-05T15:28:21.001Z</time></trkpt><trkpt lat="44.63194300612182" lon="7.9326806736660345"><ele>449.0</ele><time>2026-04-05T15:28:22.001Z</time></trkpt><trkpt lat="44.632075495723775" lon="7.932634767037153"><ele>449.0</ele><time>2026-04-05T15:28:23.001Z</time></trkpt><trkpt lat="44.63220887155277" lon="7.932596898439418"><ele>449.0</ele><time>2026-04-05T15:28:24.001Z</time></trkpt><trkpt lat="44.632342259211946" lon="7.9325584388151835"><ele>452.0</ele><time>2026-04-05T15:28:25.001Z</time></trkpt><trkpt lat="44.632476003349126" lon="7.932527214780377"><ele>455.0</ele><time>2026-04-05T15:28:26.001Z</time></trkpt><trkpt lat="44.63260726392138" lon="7.932509692811522"><ele>458.0</ele><time>2026-04-05T15:28:27.001Z</time></trkpt><trkpt lat="44.632736985389116" lon="7.9324899090191465"><ele>461.0</ele><time>2026-04-05T15:28:28.001Z</time></trkpt><trkpt lat="44.63286754812357" lon="7.932451168216007"><ele>461.0</ele><time>2026-04-05T15:28:29.001Z</time></trkpt><trkpt lat="44.632993154169945" lon="7.932403261255247"><ele>461.0</ele><time>2026-04-05T15:28:30.001Z</time></trkpt><trkpt lat="44.633116575952535" lon="7.932346514209744"><ele>461.0</ele><time>2026-04-05T15:28:31.001Z</time></trkpt><trkpt lat="44.633237878795015" lon="7.932274983859266"><ele>461.0</ele><time>2026-04-05T15:28:32.001Z</time></trkpt><trkpt lat="44.633358254406126" lon="7.932210230061706"><ele>461.0</ele><time>2026-04-05T15:28:33.001Z</time></trkpt><trkpt lat="44.63347381888923" lon="7.932145596725528"><ele>461.0</ele><time>2026-04-05T15:28:34.001Z</time></trkpt><trkpt lat="44.63359785333419" lon="7.932095383493285"><ele>461.0</ele><time>2026-04-05T15:28:35.001Z</time></trkpt><trkpt lat="44.63372029164914" lon="7.932053630466862"><ele>461.0</ele><time>2026-04-05T15:28:36.001Z</time></trkpt><trkpt lat="44.63384021767091" lon="7.932015898864769"><ele>459.5</ele><time>2026-04-05T15:28:37.001Z</time></trkpt><trkpt lat="44.63395645484981" lon="7.9319762468618045"><ele>458.0</ele><time>2026-04-05T15:28:38.001Z</time></trkpt><trkpt lat="44.634071559917686" lon="7.931938708387959"><ele>456.5</ele><time>2026-04-05T15:28:39.001Z</time></trkpt><trkpt lat="44.634184882982694" lon="7.931911482010275"><ele>455.0</ele><time>2026-04-05T15:28:40.001Z</time></trkpt><trkpt lat="44.63429342164278" lon="7.931885620148341"><ele>455.0</ele><time>2026-04-05T15:28:41.001Z</time></trkpt><trkpt lat="44.63439909179462" lon="7.9318575009329875"><ele>455.0</ele><time>2026-04-05T15:28:42.001Z</time></trkpt><trkpt lat="44.634503827885396" lon="7.931830019629251"><ele>455.0</ele><time>2026-04-05T15:28:43.001Z</time></trkpt><trkpt lat="44.63460560597025" lon="7.931806051685019"><ele>455.0</ele><time>2026-04-05T15:28:44.001Z</time></trkpt><trkpt lat="44.63470766256198" lon="7.931772695738117"><ele>455.0</ele><time>2026-04-05T15:28:45.001Z</time></trkpt><trkpt lat="44.63480687853515" lon="7.931710598760193"><ele>457.3333333333333</ele><time>2026-04-05T15:28:46.001Z</time></trkpt><trkpt lat="44.63490089429376" lon="7.931634338599088"><ele>459.66666666666663</ele><time>2026-04-05T15:28:47.001Z</time></trkpt><trkpt lat="44.63497880376462" lon="7.931561685703037"><ele>462.0</ele><time>2026-04-05T15:28:48.001Z</time></trkpt><trkpt lat="44.63504398369304" lon="7.931503013334617"><ele>464.33333333333337</ele><time>2026-04-05T15:28:49.001Z</time></trkpt><trkpt lat="44.63510487751081" lon="7.9314505004842815"><ele>466.6666666666667</ele><time>2026-04-05T15:28:50.001Z</time></trkpt><trkpt lat="44.63516962455011" lon="7.93140077761954"><ele>469.0</ele><time>2026-04-05T15:28:51.001Z</time></trkpt><trkpt lat="44.63524430658134" lon="7.931367790938608"><ele>469.6666666666667</ele><time>2026-04-05T15:28:52.001Z</time></trkpt><trkpt lat="44.635325552127675" lon="7.931356456163683"><ele>470.33333333333337</ele><time>2026-04-05T15:28:53.001Z</time></trkpt><trkpt lat="44.63541262532613" lon="7.931373695095789"><ele>471.0</ele><time>2026-04-05T15:28:54.001Z</time></trkpt><trkpt lat="44.63549061997601" lon="7.931420436028185"><ele>471.66666666666663</ele><time>2026-04-05T15:28:55.001Z</time></trkpt><trkpt lat="44.635567528873345" lon="7.93147816085514"><ele>472.3333333333333</ele><time>2026-04-05T15:28:56.001Z</time></trkpt><trkpt lat="44.6356413218112" lon="7.931524178836294"><ele>473.0</ele><time>2026-04-05T15:28:57.001Z</time></trkpt><trkpt lat="44.63572130880549" lon="7.931575058416851"><ele>472.99999999999994</ele><time>2026-04-05T15:28:58.001Z</time></trkpt><trkpt lat="44.635800467495066" lon="7.931606311875016"><ele>473.0</ele><time>2026-04-05T15:28:59.001Z</time></trkpt><trkpt lat="44.635883313182454" lon="7.931626677842909"><ele>473.0</ele><time>2026-04-05T15:29:00.001Z</time></trkpt><trkpt lat="44.635959306690474" lon="7.93164554170335"><ele>473.0</ele><time>2026-04-05T15:29:01.001Z</time></trkpt><trkpt lat="44.63602385797524" lon="7.931659715156307"><ele>472.99999999999994</ele><time>2026-04-05T15:29:02.001Z</time></trkpt><trkpt lat="44.636098889774196" lon="7.931683426930456"><ele>473.0</ele><time>2026-04-05T15:29:03.001Z</time></trkpt><trkpt lat="44.63616360014665" lon="7.93167038206536"><ele>473.7142857142857</ele><time>2026-04-05T15:29:04.001Z</time></trkpt><trkpt lat="44.63623210515487" lon="7.931702533889619"><ele>474.42857142857144</ele><time>2026-04-05T15:29:05.001Z</time></trkpt><trkpt lat="44.636305022922144" lon="7.931698922012558"><ele>475.14285714285717</ele><time>2026-04-05T15:29:06.001Z</time></trkpt><trkpt lat="44.63637136740987" lon="7.931722219628928"><ele>475.8571428571429</ele><time>2026-04-05T15:29:07.001Z</time></trkpt><trkpt lat="44.63643105890804" lon="7.931763511486745"><ele>476.57142857142856</ele><time>2026-04-05T15:29:08.001Z</time></trkpt><trkpt lat="44.636492500886796" lon="7.931789775064306"><ele>477.28571428571433</ele><time>2026-04-05T15:29:09.001Z</time></trkpt><trkpt lat="44.63655745363282" lon="7.93181717794037"><ele>478.00000000000006</ele><time>2026-04-05T15:29:10.001Z</time></trkpt><trkpt lat="44.63662716211245" lon="7.9318201506395525"><ele>479.4285714285715</ele><time>2026-04-05T15:29:11.001Z</time></trkpt><trkpt lat="44.63668911303866" lon="7.931856061056381"><ele>480.8571428571429</ele><time>2026-04-05T15:29:12.001Z</time></trkpt><trkpt lat="44.63675450248915" lon="7.931871099773626"><ele>482.2857142857143</ele><time>2026-04-05T15:29:13.001Z</time></trkpt><trkpt lat="44.63682314084834" lon="7.931868265338871"><ele>483.7142857142857</ele><time>2026-04-05T15:29:14.001Z</time></trkpt><trkpt lat="44.63689321613984" lon="7.931845765698375"><ele>485.1428571428571</ele><time>2026-04-05T15:29:15.001Z</time></trkpt><trkpt lat="44.63696254930677" lon="7.931816292269166"><ele>486.5714285714285</ele><time>2026-04-05T15:29:16.001Z</time></trkpt><trkpt lat="44.63703131045663" lon="7.9317826884290215"><ele>487.99999999999994</ele><time>2026-04-05T15:29:17.001Z</time></trkpt><trkpt lat="44.63710389391211" lon="7.931784947959884"><ele>489.8333333333333</ele><time>2026-04-05T15:29:18.001Z</time></trkpt><trkpt lat="44.63717437954838" lon="7.931753886884866"><ele>491.66666666666663</ele><time>2026-04-05T15:29:19.001Z</time></trkpt><trkpt lat="44.63725289813076" lon="7.931755655092957"><ele>493.5</ele><time>2026-04-05T15:29:20.001Z</time></trkpt><trkpt lat="44.63733679606161" lon="7.931762060095898"><ele>495.33333333333337</ele><time>2026-04-05T15:29:21.001Z</time></trkpt><trkpt lat="44.63742079790158" lon="7.93177543233681"><ele>497.1666666666667</ele><time>2026-04-05T15:29:22.001Z</time></trkpt><trkpt lat="44.63749384211442" lon="7.931793736435313"><ele>499.0</ele><time>2026-04-05T15:29:23.001Z</time></trkpt><trkpt lat="44.637576339085456" lon="7.931838376362774"><ele>499.00000000000006</ele><time>2026-04-05T15:29:25.001Z</time></trkpt><trkpt lat="44.63767260652666" lon="7.931892421864402"><ele>499.0</ele><time>2026-04-05T15:29:28.001Z</time></trkpt><trkpt lat="44.637719000842615" lon="7.931958109481419"><ele>499.0</ele><time>2026-04-05T15:29:29.001Z</time></trkpt><trkpt lat="44.63777769244785" lon="7.932013696099729"><ele>499.0</ele><time>2026-04-05T15:29:30.001Z</time></trkpt><trkpt lat="44.6378374879328" lon="7.93204290609573"><ele>499.00000000000006</ele><time>2026-04-05T15:29:31.001Z</time></trkpt><trkpt lat="44.637897667940564" lon="7.932175427593077"><ele>499.0</ele><time>2026-04-05T15:29:33.001Z</time></trkpt><trkpt lat="44.637933234105084" lon="7.932261103763994"><ele>499.1666666666667</ele><time>2026-04-05T15:29:34.001Z</time></trkpt><trkpt lat="44.637972642602996" lon="7.932355505543569"><ele>499.33333333333337</ele><time>2026-04-05T15:29:35.001Z</time></trkpt><trkpt lat="44.63801644121982" lon="7.932454429085374"><ele>499.5</ele><time>2026-04-05T15:29:36.001Z</time></trkpt><trkpt lat="44.63806561739385" lon="7.932544422979862"><ele>499.66666666666663</ele><time>2026-04-05T15:29:37.001Z</time></trkpt><trkpt lat="44.63812134307381" lon="7.932619076010836"><ele>499.8333333333333</ele><time>2026-04-05T15:29:38.001Z</time></trkpt><trkpt lat="44.63817793954315" lon="7.932681985825426"><ele>500.0</ele><time>2026-04-05T15:29:39.001Z</time></trkpt><trkpt lat="44.638230001862134" lon="7.932738888915745"><ele>500.0</ele><time>2026-04-05T15:29:40.001Z</time></trkpt><trkpt lat="44.63832517044862" lon="7.932883634494653"><ele>500.0</ele><time>2026-04-05T15:29:42.001Z</time></trkpt><trkpt lat="44.638418499724146" lon="7.933001475319135"><ele>500.0</ele><time>2026-04-05T15:29:44.001Z</time></trkpt><trkpt lat="44.63850157681715" lon="7.933122380399669"><ele>500.0</ele><time>2026-04-05T15:29:46.001Z</time></trkpt><trkpt lat="44.63854995070642" lon="7.933189591549959"><ele>500.0</ele><time>2026-04-05T15:29:47.001Z</time></trkpt><trkpt lat="44.638597840110215" lon="7.933260595456295"><ele>500.0</ele><time>2026-04-05T15:29:48.001Z</time></trkpt><trkpt lat="44.63864468963014" lon="7.9333384035329315"><ele>500.0</ele><time>2026-04-05T15:29:49.001Z</time></trkpt><trkpt lat="44.638688571479804" lon="7.933403936210541"><ele>500.0</ele><time>2026-04-05T15:29:50.001Z</time></trkpt><trkpt lat="44.63873780506225" lon="7.933474173401049"><ele>500.0</ele><time>2026-04-05T15:29:51.001Z</time></trkpt><trkpt lat="44.638779677690806" lon="7.933548682705452"><ele>500.0</ele><time>2026-04-05T15:29:52.001Z</time></trkpt><trkpt lat="44.63882159092603" lon="7.933623436680304"><ele>500.0</ele><time>2026-04-05T15:29:53.001Z</time></trkpt><trkpt lat="44.63888802370691" lon="7.933746846731664"><ele>500.0</ele><time>2026-04-05T15:29:55.001Z</time></trkpt><trkpt lat="44.63894052214427" lon="7.933836005490375"><ele>500.0</ele><time>2026-04-05T15:29:57.001Z</time></trkpt><trkpt lat="44.639051857682695" lon="7.933733769656102"><ele>500.0</ele><time>2026-04-05T15:30:03.001Z</time></trkpt><trkpt lat="44.63911802601693" lon="7.933620102695083"><ele>500.0</ele><time>2026-04-05T15:30:05.001Z</time></trkpt><trkpt lat="44.639203781416136" lon="7.933512875259322"><ele>500.0</ele><time>2026-04-05T15:30:07.001Z</time></trkpt><trkpt lat="44.63925438386272" lon="7.933444789098981"><ele>499.66666666666663</ele><time>2026-04-05T15:30:08.001Z</time></trkpt><trkpt lat="44.6393103297544" lon="7.933375428925879"><ele>499.3333333333333</ele><time>2026-04-05T15:30:09.001Z</time></trkpt><trkpt lat="44.63937203951583" lon="7.933308698250489"><ele>499.0</ele><time>2026-04-05T15:30:10.001Z</time></trkpt><trkpt lat="44.639435510076446" lon="7.933235481453748"><ele>498.66666666666663</ele><time>2026-04-05T15:30:11.001Z</time></trkpt><trkpt lat="44.63949776375799" lon="7.933164277425966"><ele>498.3333333333333</ele><time>2026-04-05T15:30:12.001Z</time></trkpt><trkpt lat="44.639560614351446" lon="7.933091780943876"><ele>498.0</ele><time>2026-04-05T15:30:13.001Z</time></trkpt><trkpt lat="44.63961950779332" lon="7.933027036436705"><ele>498.0</ele><time>2026-04-05T15:30:14.001Z</time></trkpt><trkpt lat="44.63967239427046" lon="7.932973288320648"><ele>497.99999999999994</ele><time>2026-04-05T15:30:15.001Z</time></trkpt><trkpt lat="44.63975134079546" lon="7.932871684868407"><ele>497.99999999999994</ele><time>2026-04-05T15:30:17.001Z</time></trkpt><trkpt lat="44.63984617731228" lon="7.93277057118771"><ele>498.0</ele><time>2026-04-05T15:30:19.001Z</time></trkpt><trkpt lat="44.63993898516367" lon="7.932669377966964"><ele>498.0</ele><time>2026-04-05T15:30:21.001Z</time></trkpt><trkpt lat="44.63999020138616" lon="7.932615061461572"><ele>498.0</ele><time>2026-04-05T15:30:22.001Z</time></trkpt><trkpt lat="44.6400429160679" lon="7.932556659222919"><ele>498.0</ele><time>2026-04-05T15:30:23.001Z</time></trkpt><trkpt lat="44.64010322217855" lon="7.932498760546542"><ele>498.0</ele><time>2026-04-05T15:30:24.001Z</time></trkpt><trkpt lat="44.64017223572837" lon="7.93244645625661"><ele>498.0</ele><time>2026-04-05T15:30:25.001Z</time></trkpt><trkpt lat="44.64024691502165" lon="7.932397722967318"><ele>498.0</ele><time>2026-04-05T15:30:26.001Z</time></trkpt><trkpt lat="44.640329612812906" lon="7.9323638471614215"><ele>498.0</ele><time>2026-04-05T15:30:27.001Z</time></trkpt><trkpt lat="44.64041588921795" lon="7.932335364567101"><ele>497.6666666666667</ele><time>2026-04-05T15:30:28.001Z</time></trkpt><trkpt lat="44.640496467155764" lon="7.93229648157525"><ele>497.33333333333337</ele><time>2026-04-05T15:30:29.001Z</time></trkpt><trkpt lat="44.640570156986996" lon="7.932232542385835"><ele>497.0</ele><time>2026-04-05T15:30:30.001Z</time></trkpt><trkpt lat="44.64064656034274" lon="7.9321694061567465"><ele>496.6666666666667</ele><time>2026-04-05T15:30:31.001Z</time></trkpt><trkpt lat="44.64071442028754" lon="7.932092959811212"><ele>496.33333333333337</ele><time>2026-04-05T15:30:32.001Z</time></trkpt><trkpt lat="44.6407799353727" lon="7.93202420501332"><ele>496.0</ele><time>2026-04-05T15:30:33.001Z</time></trkpt><trkpt lat="44.6408369755269" lon="7.9319519335745134"><ele>496.00000000000006</ele><time>2026-04-05T15:30:34.001Z</time></trkpt><trkpt lat="44.6408963444218" lon="7.931872620134425"><ele>496.0</ele><time>2026-04-05T15:30:35.001Z</time></trkpt><trkpt lat="44.64094639640453" lon="7.9317854153835325"><ele>496.0</ele><time>2026-04-05T15:30:36.001Z</time></trkpt><trkpt lat="44.64099039067333" lon="7.93167782964665"><ele>496.0</ele><time>2026-04-05T15:30:37.001Z</time></trkpt><trkpt lat="44.641038161580674" lon="7.931570087296842"><ele>496.00000000000006</ele><time>2026-04-05T15:30:38.001Z</time></trkpt><trkpt lat="44.64108054944017" lon="7.9314575445537345"><ele>496.0</ele><time>2026-04-05T15:30:39.001Z</time></trkpt><trkpt lat="44.64111494269389" lon="7.9313559466266215"><ele>496.1666666666667</ele><time>2026-04-05T15:30:40.001Z</time></trkpt><trkpt lat="44.641155033413554" lon="7.931256725260959"><ele>496.33333333333337</ele><time>2026-04-05T15:30:41.001Z</time></trkpt><trkpt lat="44.641193130376365" lon="7.931153535560792"><ele>496.5</ele><time>2026-04-05T15:30:42.001Z</time></trkpt><trkpt lat="44.64122981799024" lon="7.931054917851187"><ele>496.66666666666663</ele><time>2026-04-05T15:30:43.001Z</time></trkpt><trkpt lat="44.641258368267806" lon="7.930970747076704"><ele>496.8333333333333</ele><time>2026-04-05T15:30:44.001Z</time></trkpt><trkpt lat="44.64131797560907" lon="7.930824578997914"><ele>497.0</ele><time>2026-04-05T15:30:46.001Z</time></trkpt><trkpt lat="44.64138439477344" lon="7.930690811469158"><ele>495.66666666666663</ele><time>2026-04-05T15:30:48.001Z</time></trkpt><trkpt lat="44.641425836717076" lon="7.9306184446205945"><ele>494.3333333333333</ele><time>2026-04-05T15:30:49.001Z</time></trkpt><trkpt lat="44.64146993143266" lon="7.930545895662184"><ele>493.0</ele><time>2026-04-05T15:30:50.001Z</time></trkpt><trkpt lat="44.64151837418952" lon="7.930465616462888"><ele>491.66666666666663</ele><time>2026-04-05T15:30:51.001Z</time></trkpt><trkpt lat="44.641576945757976" lon="7.930387862411398"><ele>490.3333333333333</ele><time>2026-04-05T15:30:52.001Z</time></trkpt><trkpt lat="44.641649422553954" lon="7.9303147092719035"><ele>489.0</ele><time>2026-04-05T15:30:53.001Z</time></trkpt><trkpt lat="44.6417210212104" lon="7.9302547580261"><ele>489.0</ele><time>2026-04-05T15:30:54.001Z</time></trkpt><trkpt lat="44.64178210556609" lon="7.9302186246752004"><ele>489.0</ele><time>2026-04-05T15:30:55.001Z</time></trkpt><trkpt lat="44.64186146593597" lon="7.930168923500319"><ele>489.0</ele><time>2026-04-05T15:30:57.001Z</time></trkpt><trkpt lat="44.64192750554684" lon="7.930135423662147"><ele>489.0</ele><time>2026-04-05T15:30:59.001Z</time></trkpt><trkpt lat="44.642008239371044" lon="7.93010160419461"><ele>489.0</ele><time>2026-04-05T15:31:01.001Z</time></trkpt><trkpt lat="44.64213678805617" lon="7.93006557912869"><ele>489.0</ele><time>2026-04-05T15:31:03.001Z</time></trkpt><trkpt lat="44.642221768778434" lon="7.930056567963324"><ele>488.0</ele><time>2026-04-05T15:31:04.001Z</time></trkpt><trkpt lat="44.64229794467859" lon="7.930046846024661"><ele>487.0</ele><time>2026-04-05T15:31:05.001Z</time></trkpt><trkpt lat="44.64237619713599" lon="7.930040852563649"><ele>486.0</ele><time>2026-04-05T15:31:06.001Z</time></trkpt><trkpt lat="44.64245642340673" lon="7.930038080390245"><ele>485.0</ele><time>2026-04-05T15:31:07.001Z</time></trkpt><trkpt lat="44.642538947960645" lon="7.930041330097199"><ele>484.0</ele><time>2026-04-05T15:31:08Z</time></trkpt><trkpt lat="44.642624621437456" lon="7.93004582440099"><ele>483.0</ele><time>2026-04-05T15:31:09Z</time></trkpt><trkpt lat="44.64270739902194" lon="7.930051191401084"><ele>483.0</ele><time>2026-04-05T15:31:10Z</time></trkpt><trkpt lat="44.642781786701065" lon="7.930050624469891"><ele>483.0</ele><time>2026-04-05T15:31:11Z</time></trkpt><trkpt lat="44.64284543438099" lon="7.930054357610189"><ele>483.0</ele><time>2026-04-05T15:31:12Z</time></trkpt><trkpt lat="44.64294722154969" lon="7.930059955583646"><ele>483.0</ele><time>2026-04-05T15:31:14Z</time></trkpt><trkpt lat="44.64302985786442" lon="7.930070170910582"><ele>483.0</ele><time>2026-04-05T15:31:16Z</time></trkpt><trkpt lat="44.64311221151741" lon="7.930072977290748"><ele>483.0</ele><time>2026-04-05T15:31:18Z</time></trkpt><trkpt lat="44.64319566491616" lon="7.93007288720362"><ele>483.1666666666667</ele><time>2026-04-05T15:31:20Z</time></trkpt><trkpt lat="44.643284653176806" lon="7.930076316330265"><ele>483.33333333333337</ele><time>2026-04-05T15:31:22Z</time></trkpt><trkpt lat="44.64337990844522" lon="7.930081795941026"><ele>483.5</ele><time>2026-04-05T15:31:24Z</time></trkpt><trkpt lat="44.64348505849961" lon="7.930083913793582"><ele>483.6666666666667</ele><time>2026-04-05T15:31:26Z</time></trkpt><trkpt lat="44.64354816112236" lon="7.93008544738358"><ele>483.83333333333337</ele><time>2026-04-05T15:31:27Z</time></trkpt><trkpt lat="44.64361525052799" lon="7.930086465143183"><ele>484.0</ele><time>2026-04-05T15:31:28Z</time></trkpt><trkpt lat="44.643681556041905" lon="7.930110712994718"><ele>483.6</ele><time>2026-04-05T15:31:29Z</time></trkpt><trkpt lat="44.64379612566332" lon="7.9301171734882665"><ele>483.2</ele><time>2026-04-05T15:31:31Z</time></trkpt><trkpt lat="44.64389103643683" lon="7.930113060459938"><ele>482.80000000000007</ele><time>2026-04-05T15:31:33Z</time></trkpt><trkpt lat="44.64397573851984" lon="7.930187001984493"><ele>482.40000000000003</ele><time>2026-04-05T15:31:35Z</time></trkpt><trkpt lat="44.64405468809865" lon="7.9302915221121335"><ele>482.0</ele><time>2026-04-05T15:31:37Z</time></trkpt><trkpt lat="44.64416235501688" lon="7.930344041871457"><ele>482.0</ele><time>2026-04-05T15:31:39Z</time></trkpt><trkpt lat="44.644222710559085" lon="7.930304001522329"><ele>482.00000000000006</ele><time>2026-04-05T15:31:40Z</time></trkpt><trkpt lat="44.64425285043038" lon="7.930193844265983"><ele>482.00000000000006</ele><time>2026-04-05T15:31:41Z</time></trkpt><trkpt lat="44.64428540470923" lon="7.9300986572305545"><ele>482.0</ele><time>2026-04-05T15:31:42Z</time></trkpt><trkpt lat="44.64438020006905" lon="7.930120938502975"><ele>482.0</ele><time>2026-04-05T15:31:43Z</time></trkpt><trkpt lat="44.64438408569372" lon="7.929938358355405"><ele>480.49999999999994</ele><time>2026-04-05T15:31:44Z</time></trkpt><trkpt lat="44.64444174567131" lon="7.9298689984166595"><ele>479.0</ele><time>2026-04-05T15:31:45Z</time></trkpt><trkpt lat="44.64450141340183" lon="7.929802655235894"><ele>477.5</ele><time>2026-04-05T15:31:46Z</time></trkpt><trkpt lat="44.644566728219964" lon="7.929721782552681"><ele>476.0</ele><time>2026-04-05T15:31:47Z</time></trkpt><trkpt lat="44.64463072264063" lon="7.929635654278501"><ele>474.49999999999994</ele><time>2026-04-05T15:31:48Z</time></trkpt><trkpt lat="44.64469433383631" lon="7.929541014587863"><ele>473.0</ele><time>2026-04-05T15:31:49Z</time></trkpt><trkpt lat="44.644764865703664" lon="7.929441384505119"><ele>472.2</ele><time>2026-04-05T15:31:50Z</time></trkpt><trkpt lat="44.64483829996488" lon="7.929344603384625"><ele>471.4</ele><time>2026-04-05T15:31:51Z</time></trkpt><trkpt lat="44.64491370401652" lon="7.929241628304207"><ele>470.59999999999997</ele><time>2026-04-05T15:31:52Z</time></trkpt><trkpt lat="44.64498717114713" lon="7.9291397768538205"><ele>469.79999999999995</ele><time>2026-04-05T15:31:53Z</time></trkpt><trkpt lat="44.645057436297606" lon="7.929043937509947"><ele>469.0</ele><time>2026-04-05T15:31:54Z</time></trkpt><trkpt lat="44.64512519901659" lon="7.928951307827473"><ele>469.0</ele><time>2026-04-05T15:31:55Z</time></trkpt><trkpt lat="44.64519408098386" lon="7.928858405361376"><ele>469.0</ele><time>2026-04-05T15:31:56Z</time></trkpt><trkpt lat="44.64526688207443" lon="7.928760744805219"><ele>469.0</ele><time>2026-04-05T15:31:57Z</time></trkpt><trkpt lat="44.64534042009294" lon="7.928661430995184"><ele>469.0</ele><time>2026-04-05T15:31:58Z</time></trkpt><trkpt lat="44.64541205131774" lon="7.928561317056049"><ele>469.0</ele><time>2026-04-05T15:31:59Z</time></trkpt><trkpt lat="44.6454796459587" lon="7.928468541082"><ele>468.2</ele><time>2026-04-05T15:32:00Z</time></trkpt><trkpt lat="44.64555065907014" lon="7.9283773079772"><ele>467.4</ele><time>2026-04-05T15:32:01Z</time></trkpt><trkpt lat="44.64562283917968" lon="7.928276400317436"><ele>466.6</ele><time>2026-04-05T15:32:02Z</time></trkpt><trkpt lat="44.64569934418355" lon="7.928173659969621"><ele>465.8</ele><time>2026-04-05T15:32:03Z</time></trkpt><trkpt lat="44.64577510584038" lon="7.9280758815664045"><ele>465.0</ele><time>2026-04-05T15:32:04Z</time></trkpt><trkpt lat="44.645849885415494" lon="7.927976864651196"><ele>465.0</ele><time>2026-04-05T15:32:05Z</time></trkpt><trkpt lat="44.64592538078894" lon="7.927875650870511"><ele>465.0</ele><time>2026-04-05T15:32:06Z</time></trkpt><trkpt lat="44.64599847135054" lon="7.927771696613406"><ele>465.0</ele><time>2026-04-05T15:32:07Z</time></trkpt><trkpt lat="44.6460726840549" lon="7.927672150477224"><ele>465.0</ele><time>2026-04-05T15:32:08Z</time></trkpt><trkpt lat="44.64614273235585" lon="7.927564928727649"><ele>465.0</ele><time>2026-04-05T15:32:09Z</time></trkpt><trkpt lat="44.646221648606705" lon="7.92746001630395"><ele>464.0</ele><time>2026-04-05T15:32:10Z</time></trkpt><trkpt lat="44.646296266605944" lon="7.927362692761192"><ele>463.0</ele><time>2026-04-05T15:32:11Z</time></trkpt><trkpt lat="44.646371640543805" lon="7.927259411460816"><ele>462.0</ele><time>2026-04-05T15:32:12Z</time></trkpt><trkpt lat="44.646442245810334" lon="7.927159733546148"><ele>461.0</ele><time>2026-04-05T15:32:13Z</time></trkpt><trkpt lat="44.64650782790717" lon="7.927063191991246"><ele>460.0</ele><time>2026-04-05T15:32:14Z</time></trkpt><trkpt lat="44.646569767865415" lon="7.926984563453326"><ele>460.00000000000006</ele><time>2026-04-05T15:32:15Z</time></trkpt><trkpt lat="44.64662781618127" lon="7.926901966145494"><ele>460.0</ele><time>2026-04-05T15:32:16Z</time></trkpt><trkpt lat="44.64667961925148" lon="7.926828026831056"><ele>460.0</ele><time>2026-04-05T15:32:17Z</time></trkpt><trkpt lat="44.64673133673095" lon="7.9267523420309605"><ele>460.0</ele><time>2026-04-05T15:32:18Z</time></trkpt><trkpt lat="44.64677811434702" lon="7.926686426112471"><ele>460.00000000000006</ele><time>2026-04-05T15:32:19Z</time></trkpt><trkpt lat="44.64682328552349" lon="7.926618900697718"><ele>460.0</ele><time>2026-04-05T15:32:20Z</time></trkpt><trkpt lat="44.64690771323377" lon="7.926487163897728"><ele>459.33333333333337</ele><time>2026-04-05T15:32:22Z</time></trkpt><trkpt lat="44.64694951099465" lon="7.926417856426226"><ele>458.6666666666667</ele><time>2026-04-05T15:32:23Z</time></trkpt><trkpt lat="44.646983282850776" lon="7.9263251833754405"><ele>458.0</ele><time>2026-04-05T15:32:24Z</time></trkpt><trkpt lat="44.64699843976661" lon="7.926223930759546"><ele>457.33333333333337</ele><time>2026-04-05T15:32:25Z</time></trkpt><trkpt lat="44.646988568972056" lon="7.926110494834633"><ele>456.6666666666667</ele><time>2026-04-05T15:32:26Z</time></trkpt><trkpt lat="44.646958421856255" lon="7.925995679160195"><ele>456.0</ele><time>2026-04-05T15:32:27Z</time></trkpt><trkpt lat="44.64692084742476" lon="7.925875068638779"><ele>455.0</ele><time>2026-04-05T15:32:28Z</time></trkpt><trkpt lat="44.646874842290984" lon="7.925759028990395"><ele>454.0</ele><time>2026-04-05T15:32:29Z</time></trkpt><trkpt lat="44.646824959856595" lon="7.925636502482556"><ele>453.0</ele><time>2026-04-05T15:32:30Z</time></trkpt><trkpt lat="44.64677371206308" lon="7.92551236066882"><ele>452.0</ele><time>2026-04-05T15:32:31Z</time></trkpt><trkpt lat="44.64671962726809" lon="7.925388256770617"><ele>451.0</ele><time>2026-04-05T15:32:32Z</time></trkpt><trkpt lat="44.64666641717144" lon="7.925266147480068"><ele>451.0</ele><time>2026-04-05T15:32:33Z</time></trkpt><trkpt lat="44.64661505093038" lon="7.925153386748167"><ele>451.0</ele><time>2026-04-05T15:32:34Z</time></trkpt><trkpt lat="44.646549596893394" lon="7.925059929908335"><ele>451.0</ele><time>2026-04-05T15:32:35Z</time></trkpt><trkpt lat="44.64647754365501" lon="7.924979215012452"><ele>451.0</ele><time>2026-04-05T15:32:36Z</time></trkpt><trkpt lat="44.6464008909154" lon="7.924917212707206"><ele>451.0</ele><time>2026-04-05T15:32:37Z</time></trkpt><trkpt lat="44.64632700665048" lon="7.924860090075284"><ele>449.20000000000005</ele><time>2026-04-05T15:32:38Z</time></trkpt><trkpt lat="44.64624924333341" lon="7.924805171750864"><ele>447.40000000000003</ele><time>2026-04-05T15:32:39Z</time></trkpt><trkpt lat="44.646163140075444" lon="7.9247502226887745"><ele>445.6</ele><time>2026-04-05T15:32:40Z</time></trkpt><trkpt lat="44.64607714407637" lon="7.924695230183096"><ele>443.8</ele><time>2026-04-05T15:32:41Z</time></trkpt><trkpt lat="44.6459922898951" lon="7.924632667960755"><ele>442.0</ele><time>2026-04-05T15:32:42Z</time></trkpt><trkpt lat="44.64590610094726" lon="7.924574458747161"><ele>442.0</ele><time>2026-04-05T15:32:43Z</time></trkpt><trkpt lat="44.64581649712594" lon="7.9245318283150565"><ele>442.00000000000006</ele><time>2026-04-05T15:32:44Z</time></trkpt><trkpt lat="44.645724142117125" lon="7.924511669496184"><ele>442.00000000000006</ele><time>2026-04-05T15:32:45Z</time></trkpt><trkpt lat="44.64563314303772" lon="7.924518137019215"><ele>442.0</ele><time>2026-04-05T15:32:46Z</time></trkpt><trkpt lat="44.64554647582235" lon="7.924540675053165"><ele>442.0</ele><time>2026-04-05T15:32:47Z</time></trkpt><trkpt lat="44.645463135975376" lon="7.924567185948291"><ele>442.00000000000006</ele><time>2026-04-05T15:32:48Z</time></trkpt><trkpt lat="44.64537705436874" lon="7.924584814742677"><ele>442.0</ele><time>2026-04-05T15:32:49.001Z</time></trkpt><trkpt lat="44.645289257010646" lon="7.924584055526554"><ele>442.0</ele><time>2026-04-05T15:32:50.001Z</time></trkpt><trkpt lat="44.64520073658564" lon="7.924560515406934"><ele>442.0</ele><time>2026-04-05T15:32:51.001Z</time></trkpt><trkpt lat="44.64512343564968" lon="7.924507006622292"><ele>442.00000000000006</ele><time>2026-04-05T15:32:52.001Z</time></trkpt><trkpt lat="44.645059334262555" lon="7.924427964781105"><ele>442.0</ele><time>2026-04-05T15:32:53.001Z</time></trkpt><trkpt lat="44.64500707368885" lon="7.924335319136819"><ele>441.8</ele><time>2026-04-05T15:32:54.001Z</time></trkpt><trkpt lat="44.644953200689855" lon="7.924233469523882"><ele>441.6</ele><time>2026-04-05T15:32:55.001Z</time></trkpt><trkpt lat="44.64489990346727" lon="7.924120203264441"><ele>441.40000000000003</ele><time>2026-04-05T15:32:56.001Z</time></trkpt><trkpt lat="44.64484430157508" lon="7.924003220840102"><ele>441.20000000000005</ele><time>2026-04-05T15:32:57.001Z</time></trkpt><trkpt lat="44.644779239355096" lon="7.923889263537818"><ele>441.0</ele><time>2026-04-05T15:32:58.001Z</time></trkpt><trkpt lat="44.64470609049956" lon="7.923772155312572"><ele>440.0</ele><time>2026-04-05T15:32:59.001Z</time></trkpt><trkpt lat="44.64462037659626" lon="7.923645705681096"><ele>439.0</ele><time>2026-04-05T15:33:00.001Z</time></trkpt><trkpt lat="44.64451222790806" lon="7.923518935469188"><ele>438.0</ele><time>2026-04-05T15:33:01.001Z</time></trkpt><trkpt lat="44.6443965551276" lon="7.923357112205353"><ele>437.0</ele><time>2026-04-05T15:33:02.001Z</time></trkpt><trkpt lat="44.64429982491288" lon="7.923240635112114"><ele>435.0</ele><time>2026-04-05T15:33:03.001Z</time></trkpt><trkpt lat="44.64414048282193" lon="7.923050080440676"><ele>433.0</ele><time>2026-04-05T15:33:04.001Z</time></trkpt><trkpt lat="44.64399608974273" lon="7.922867648297244"><ele>431.0</ele><time>2026-04-05T15:33:05Z</time></trkpt><trkpt lat="44.64390046287707" lon="7.922720012671027"><ele>431.0</ele><time>2026-04-05T15:33:06Z</time></trkpt><trkpt lat="44.64383110730011" lon="7.922596600832532"><ele>431.0</ele><time>2026-04-05T15:33:07Z</time></trkpt><trkpt lat="44.64379580036302" lon="7.922481181063691"><ele>431.0</ele><time>2026-04-05T15:33:08Z</time></trkpt><trkpt lat="44.64375108657487" lon="7.922403531055078"><ele>431.0</ele><time>2026-04-05T15:33:09Z</time></trkpt><trkpt lat="44.64394375755039" lon="7.922269518077195"><ele>431.0</ele><time>2026-04-05T15:33:10Z</time></trkpt><trkpt lat="44.64404186963362" lon="7.922151324552717"><ele>431.0</ele><time>2026-04-05T15:33:11Z</time></trkpt><trkpt lat="44.64411374421633" lon="7.9220254549428875"><ele>431.0</ele><time>2026-04-05T15:33:12Z</time></trkpt><trkpt lat="44.644177578854475" lon="7.921899583307119"><ele>431.0</ele><time>2026-04-05T15:33:13Z</time></trkpt><trkpt lat="44.644187583776365" lon="7.92172449460853"><ele>429.0</ele><time>2026-04-05T15:33:14Z</time></trkpt><trkpt lat="44.644157504439384" lon="7.921517792839765"><ele>427.0</ele><time>2026-04-05T15:33:15Z</time></trkpt><trkpt lat="44.644106373465796" lon="7.921275593576455"><ele>425.0</ele><time>2026-04-05T15:33:16Z</time></trkpt><trkpt lat="44.64407502925275" lon="7.920979532054836"><ele>423.0</ele><time>2026-04-05T15:33:17Z</time></trkpt><trkpt lat="44.64403437765183" lon="7.920644665951608"><ele>421.0</ele><time>2026-04-05T15:33:18Z</time></trkpt><trkpt lat="44.643983616526306" lon="7.920337933039777"><ele>420.33333333333337</ele><time>2026-04-05T15:33:19Z</time></trkpt><trkpt lat="44.64395298208266" lon="7.920060282089965"><ele>419.66666666666663</ele><time>2026-04-05T15:33:20Z</time></trkpt><trkpt lat="44.64391783469358" lon="7.9198248253778445"><ele>419.0</ele><time>2026-04-05T15:33:21Z</time></trkpt><trkpt lat="44.64392777303386" lon="7.919588651636789"><ele>419.0</ele><time>2026-04-05T15:33:22Z</time></trkpt><trkpt lat="44.64399017785934" lon="7.919318256361949"><ele>419.0</ele><time>2026-04-05T15:33:23Z</time></trkpt><trkpt lat="44.64406100427672" lon="7.918992789972459"><ele>419.0</ele><time>2026-04-05T15:33:24Z</time></trkpt><trkpt lat="44.64415144676984" lon="7.918663556556994"><ele>419.0</ele><time>2026-04-05T15:33:25Z</time></trkpt><trkpt lat="44.644238859791066" lon="7.918404764338899"><ele>419.0</ele><time>2026-04-05T15:33:26Z</time></trkpt><trkpt lat="44.644284540256784" lon="7.918183898347524"><ele>419.0</ele><time>2026-04-05T15:33:27Z</time></trkpt><trkpt lat="44.64433426379823" lon="7.917944648775485"><ele>418.0</ele><time>2026-04-05T15:33:28Z</time></trkpt><trkpt lat="44.64434266943459" lon="7.9176576269054735"><ele>417.0</ele><time>2026-04-05T15:33:29Z</time></trkpt><trkpt lat="44.644354381368686" lon="7.917430196833242"><ele>416.0</ele><time>2026-04-05T15:33:30Z</time></trkpt><trkpt lat="44.64442727901473" lon="7.917265518790461"><ele>413.0</ele><time>2026-04-05T15:33:31Z</time></trkpt><trkpt lat="44.64451009574676" lon="7.9171338877090305"><ele>410.0</ele><time>2026-04-05T15:33:32Z</time></trkpt><trkpt lat="44.644635356656465" lon="7.917100033272186"><ele>407.0</ele><time>2026-04-05T15:33:33Z</time></trkpt><trkpt lat="44.64477998954234" lon="7.91699031500372"><ele>404.0</ele><time>2026-04-05T15:33:34Z</time></trkpt><trkpt lat="44.644887329659134" lon="7.91685906450101"><ele>404.3333333333333</ele><time>2026-04-05T15:33:35Z</time></trkpt><trkpt lat="44.64499719642463" lon="7.916663083436776"><ele>404.66666666666663</ele><time>2026-04-05T15:33:36Z</time></trkpt><trkpt lat="44.64507683134171" lon="7.916438542222099"><ele>405.0</ele><time>2026-04-05T15:33:37Z</time></trkpt><trkpt lat="44.64513847941958" lon="7.916248678200207"><ele>405.0</ele><time>2026-04-05T15:33:38Z</time></trkpt><trkpt lat="44.64516327776666" lon="7.916052148171939"><ele>405.0</ele><time>2026-04-05T15:33:39Z</time></trkpt><trkpt lat="44.64514918411384" lon="7.915822794457765"><ele>405.0</ele><time>2026-04-05T15:33:40Z</time></trkpt><trkpt lat="44.64511522820407" lon="7.915561569931294"><ele>404.66666666666663</ele><time>2026-04-05T15:33:41Z</time></trkpt><trkpt lat="44.64512084688509" lon="7.9153135900023965"><ele>404.3333333333333</ele><time>2026-04-05T15:33:42Z</time></trkpt><trkpt lat="44.64513875841306" lon="7.915059598120157"><ele>404.0</ele><time>2026-04-05T15:33:43Z</time></trkpt><trkpt lat="44.64514863035707" lon="7.914808098625292"><ele>403.75</ele><time>2026-04-05T15:33:44Z</time></trkpt><trkpt lat="44.645165793215526" lon="7.914594707782137"><ele>403.5</ele><time>2026-04-05T15:33:45Z</time></trkpt><trkpt lat="44.645157838964955" lon="7.914415430464"><ele>403.25</ele><time>2026-04-05T15:33:46Z</time></trkpt><trkpt lat="44.645124410835365" lon="7.914248567775496"><ele>403.0</ele><time>2026-04-05T15:33:47Z</time></trkpt><trkpt lat="44.645063654481916" lon="7.914098615290106"><ele>402.0</ele><time>2026-04-05T15:33:48Z</time></trkpt><trkpt lat="44.64496856759693" lon="7.913967126955378"><ele>401.0</ele><time>2026-04-05T15:33:49Z</time></trkpt><trkpt lat="44.64483901671728" lon="7.913875385467834"><ele>400.0</ele><time>2026-04-05T15:33:50Z</time></trkpt><trkpt lat="44.644694118702404" lon="7.91385287317565"><ele>399.0</ele><time>2026-04-05T15:33:51Z</time></trkpt><trkpt lat="44.64459146050499" lon="7.913810789520012"><ele>399.0</ele><time>2026-04-05T15:33:52Z</time></trkpt><trkpt lat="44.64452074575822" lon="7.913723648200171"><ele>399.0</ele><time>2026-04-05T15:33:53Z</time></trkpt><trkpt lat="44.644467168855144" lon="7.91359070498625"><ele>399.0</ele><time>2026-04-05T15:33:54Z</time></trkpt><trkpt lat="44.64447678125986" lon="7.913382675830485"><ele>399.0</ele><time>2026-04-05T15:33:55Z</time></trkpt><trkpt lat="44.64444619611959" lon="7.913134933736585"><ele>397.66666666666663</ele><time>2026-04-05T15:33:56Z</time></trkpt><trkpt lat="44.64443072775572" lon="7.912875878898195"><ele>396.3333333333333</ele><time>2026-04-05T15:33:57Z</time></trkpt><trkpt lat="44.644411026090985" lon="7.91260247384295"><ele>395.0</ele><time>2026-04-05T15:33:58Z</time></trkpt><trkpt lat="44.64437722617684" lon="7.912321335214193"><ele>393.66666666666663</ele><time>2026-04-05T15:33:59Z</time></trkpt><trkpt lat="44.64431582270309" lon="7.912039317661409"><ele>392.33333333333337</ele><time>2026-04-05T15:34:00Z</time></trkpt><trkpt lat="44.64421326167449" lon="7.911814511685549"><ele>391.0</ele><time>2026-04-05T15:34:01Z</time></trkpt><trkpt lat="44.64411171858903" lon="7.911652176426515"><ele>389.75</ele><time>2026-04-05T15:34:02Z</time></trkpt><trkpt lat="44.644042594756506" lon="7.911508280016426"><ele>388.5</ele><time>2026-04-05T15:34:03Z</time></trkpt><trkpt lat="44.644020068957275" lon="7.9113315829527915"><ele>387.25</ele><time>2026-04-05T15:34:04Z</time></trkpt><trkpt lat="44.644054402547376" lon="7.911110613049345"><ele>386.0</ele><time>2026-04-05T15:34:05Z</time></trkpt><trkpt lat="44.64418612756953" lon="7.910894664352335"><ele>384.66666666666663</ele><time>2026-04-05T15:34:06Z</time></trkpt><trkpt lat="44.64427056577549" lon="7.910611117492031"><ele>383.3333333333333</ele><time>2026-04-05T15:34:07Z</time></trkpt><trkpt lat="44.644359134648255" lon="7.910359128732205"><ele>382.0</ele><time>2026-04-05T15:34:08Z</time></trkpt><trkpt lat="44.64441370431666" lon="7.910126045496693"><ele>378.3333333333333</ele><time>2026-04-05T15:34:09Z</time></trkpt><trkpt lat="44.64447441309789" lon="7.909901531472291"><ele>374.6666666666667</ele><time>2026-04-05T15:34:10Z</time></trkpt><trkpt lat="44.64454376395968" lon="7.90966618312053"><ele>371.0</ele><time>2026-04-05T15:34:11Z</time></trkpt><trkpt lat="44.644612512947404" lon="7.909433408159839"><ele>369.6666666666667</ele><time>2026-04-05T15:34:12Z</time></trkpt><trkpt lat="44.64465739839418" lon="7.909224909224719"><ele>368.3333333333333</ele><time>2026-04-05T15:34:13Z</time></trkpt><trkpt lat="44.644657294790505" lon="7.909021720123282"><ele>367.0</ele><time>2026-04-05T15:34:14Z</time></trkpt><trkpt lat="44.64461817057577" lon="7.908799492452209"><ele>367.0</ele><time>2026-04-05T15:34:15Z</time></trkpt><trkpt lat="44.64454836246686" lon="7.90854560587596"><ele>367.0</ele><time>2026-04-05T15:34:16Z</time></trkpt><trkpt lat="44.644473618036066" lon="7.908263211074289"><ele>367.0</ele><time>2026-04-05T15:34:17Z</time></trkpt><trkpt lat="44.64441264812836" lon="7.907977710169304"><ele>368.0</ele><time>2026-04-05T15:34:18Z</time></trkpt><trkpt lat="44.6443405309099" lon="7.907722446642806"><ele>369.0</ele><time>2026-04-05T15:34:19Z</time></trkpt><trkpt lat="44.64422699111536" lon="7.907479607759947"><ele>370.0</ele><time>2026-04-05T15:34:20Z</time></trkpt><trkpt lat="44.64409992553457" lon="7.9072750236239555"><ele>370.0</ele><time>2026-04-05T15:34:21Z</time></trkpt><trkpt lat="44.644018261862385" lon="7.907117718398021"><ele>370.0</ele><time>2026-04-05T15:34:22Z</time></trkpt><trkpt lat="44.644005325858856" lon="7.906947523120185"><ele>370.0</ele><time>2026-04-05T15:34:23Z</time></trkpt><trkpt lat="44.64401543040549" lon="7.906772975586156"><ele>370.0</ele><time>2026-04-05T15:34:24Z</time></trkpt><trkpt lat="44.644134104115395" lon="7.9066499891446975"><ele>367.66666666666663</ele><time>2026-04-05T15:34:25Z</time></trkpt><trkpt lat="44.64426104835601" lon="7.906499113142214"><ele>365.3333333333333</ele><time>2026-04-05T15:34:26Z</time></trkpt><trkpt lat="44.64439705932968" lon="7.906328331046545"><ele>363.0</ele><time>2026-04-05T15:34:27Z</time></trkpt><trkpt lat="44.64451020139822" lon="7.906196387724707"><ele>360.0</ele><time>2026-04-05T15:34:28Z</time></trkpt><trkpt lat="44.64457710964574" lon="7.906049917388021"><ele>357.0</ele><time>2026-04-05T15:34:29Z</time></trkpt><trkpt lat="44.644611205474746" lon="7.905852490358314"><ele>354.0</ele><time>2026-04-05T15:34:30Z</time></trkpt><trkpt lat="44.64460614713746" lon="7.905617056083524"><ele>351.0</ele><time>2026-04-05T15:34:31Z</time></trkpt><trkpt lat="44.64454998900034" lon="7.905367212638705"><ele>350.6666666666667</ele><time>2026-04-05T15:34:32Z</time></trkpt><trkpt lat="44.64456185046735" lon="7.905122185456328"><ele>350.33333333333337</ele><time>2026-04-05T15:34:33Z</time></trkpt><trkpt lat="44.644631705535645" lon="7.9048648979854885"><ele>350.0</ele><time>2026-04-05T15:34:34Z</time></trkpt><trkpt lat="44.64471016670785" lon="7.9045962005360355"><ele>351.0</ele><time>2026-04-05T15:34:35Z</time></trkpt><trkpt lat="44.64476926430226" lon="7.904346139321815"><ele>352.0</ele><time>2026-04-05T15:34:36Z</time></trkpt><trkpt lat="44.64483216314289" lon="7.904121272399591"><ele>353.0</ele><time>2026-04-05T15:34:37Z</time></trkpt><trkpt lat="44.64489158556549" lon="7.903907933571901"><ele>353.33333333333337</ele><time>2026-04-05T15:34:38Z</time></trkpt><trkpt lat="44.64494908600965" lon="7.903705457337862"><ele>353.6666666666667</ele><time>2026-04-05T15:34:39Z</time></trkpt><trkpt lat="44.64500210876874" lon="7.903503881468515"><ele>354.0</ele><time>2026-04-05T15:34:40Z</time></trkpt><trkpt lat="44.64503585060412" lon="7.9033005422687035"><ele>353.0</ele><time>2026-04-05T15:34:41Z</time></trkpt><trkpt lat="44.64506574509645" lon="7.9031011686546755"><ele>352.0</ele><time>2026-04-05T15:34:42Z</time></trkpt><trkpt lat="44.64509148979994" lon="7.902912307935284"><ele>351.0</ele><time>2026-04-05T15:34:43Z</time></trkpt><trkpt lat="44.645133645067936" lon="7.902733197298708"><ele>350.0</ele><time>2026-04-05T15:34:44Z</time></trkpt><trkpt lat="44.645250647347034" lon="7.9026072860005225"><ele>349.33333333333337</ele><time>2026-04-05T15:34:45Z</time></trkpt><trkpt lat="44.645379165501375" lon="7.902460982738859"><ele>348.6666666666667</ele><time>2026-04-05T15:34:46Z</time></trkpt><trkpt lat="44.6455076468208" lon="7.902300985166177"><ele>348.0</ele><time>2026-04-05T15:34:47Z</time></trkpt><trkpt lat="44.64560456758228" lon="7.902165015300632"><ele>348.0</ele><time>2026-04-05T15:34:48Z</time></trkpt><trkpt lat="44.6456670376398" lon="7.901976513863148"><ele>348.0</ele><time>2026-04-05T15:34:49Z</time></trkpt><trkpt lat="44.645693510181836" lon="7.901694200516022"><ele>348.0</ele><time>2026-04-05T15:34:50Z</time></trkpt><trkpt lat="44.645693369221405" lon="7.901386952439551"><ele>346.3333333333333</ele><time>2026-04-05T15:34:51Z</time></trkpt><trkpt lat="44.645702737301114" lon="7.901139796441567"><ele>344.66666666666663</ele><time>2026-04-05T15:34:52Z</time></trkpt><trkpt lat="44.64572006192763" lon="7.900940958955037"><ele>343.0</ele><time>2026-04-05T15:34:53Z</time></trkpt><trkpt lat="44.645772390350366" lon="7.900765516714458"><ele>342.3333333333333</ele><time>2026-04-05T15:34:54Z</time></trkpt><trkpt lat="44.64588846849966" lon="7.900639374537934"><ele>341.6666666666667</ele><time>2026-04-05T15:34:55Z</time></trkpt><trkpt lat="44.646017257703974" lon="7.900507295141047"><ele>341.0</ele><time>2026-04-05T15:34:56Z</time></trkpt><trkpt lat="44.646165562660165" lon="7.900391752544182"><ele>341.0</ele><time>2026-04-05T15:34:57Z</time></trkpt><trkpt lat="44.64631680740055" lon="7.900248838008445"><ele>341.0</ele><time>2026-04-05T15:34:58Z</time></trkpt><trkpt lat="44.64644057607363" lon="7.900090467936702"><ele>341.0</ele><time>2026-04-05T15:34:59Z</time></trkpt><trkpt lat="44.64656153489732" lon="7.899960127798673"><ele>338.75</ele><time>2026-04-05T15:35:00Z</time></trkpt><trkpt lat="44.64666853658403" lon="7.899825623869283"><ele>336.5</ele><time>2026-04-05T15:35:01Z</time></trkpt><trkpt lat="44.646777398021364" lon="7.899705980622523"><ele>334.25</ele><time>2026-04-05T15:35:02Z</time></trkpt><trkpt lat="44.64687693595386" lon="7.899582827736117"><ele>332.0</ele><time>2026-04-05T15:35:03Z</time></trkpt><trkpt lat="44.64696158017606" lon="7.899449958949873"><ele>332.0</ele><time>2026-04-05T15:35:04Z</time></trkpt><trkpt lat="44.64705599689854" lon="7.899345139444129"><ele>332.0</ele><time>2026-04-05T15:35:05Z</time></trkpt><trkpt lat="44.6471443036178" lon="7.8992327586443"><ele>332.0</ele><time>2026-04-05T15:35:06Z</time></trkpt><trkpt lat="44.64724023998141" lon="7.899118772216384"><ele>332.0</ele><time>2026-04-05T15:35:07Z</time></trkpt><trkpt lat="44.647347069123455" lon="7.8990509071103725"><ele>329.5</ele><time>2026-04-05T15:35:08Z</time></trkpt><trkpt lat="44.64744417305064" lon="7.898988316375432"><ele>327.0</ele><time>2026-04-05T15:35:09Z</time></trkpt><trkpt lat="44.64755200638215" lon="7.899014728698722"><ele>324.5</ele><time>2026-04-05T15:35:10Z</time></trkpt><trkpt lat="44.64765843711765" lon="7.899127757037699"><ele>322.0</ele><time>2026-04-05T15:35:11Z</time></trkpt><trkpt lat="44.64780103935028" lon="7.899250131688446"><ele>321.3333333333333</ele><time>2026-04-05T15:35:12.001Z</time></trkpt><trkpt lat="44.6479607591541" lon="7.899419910089033"><ele>320.6666666666667</ele><time>2026-04-05T15:35:13.001Z</time></trkpt><trkpt lat="44.648121797448916" lon="7.899580051945979"><ele>320.0</ele><time>2026-04-05T15:35:14.001Z</time></trkpt><trkpt lat="44.648250029935184" lon="7.899704018886617"><ele>320.0</ele><time>2026-04-05T15:35:15.001Z</time></trkpt><trkpt lat="44.6483608744727" lon="7.899783965528078"><ele>320.0</ele><time>2026-04-05T15:35:16.001Z</time></trkpt><trkpt lat="44.64848366176278" lon="7.8997880162040515"><ele>320.0</ele><time>2026-04-05T15:35:17.001Z</time></trkpt><trkpt lat="44.64863125010259" lon="7.8996962747728645"><ele>320.0</ele><time>2026-04-05T15:35:18.001Z</time></trkpt><trkpt lat="44.64878671500273" lon="7.899527088338218"><ele>318.25</ele><time>2026-04-05T15:35:19.001Z</time></trkpt><trkpt lat="44.64892934246982" lon="7.899412622905652"><ele>316.5</ele><time>2026-04-05T15:35:20.001Z</time></trkpt><trkpt lat="44.64904456195061" lon="7.899367069266362"><ele>314.75</ele><time>2026-04-05T15:35:21.001Z</time></trkpt><trkpt lat="44.649141252431704" lon="7.899353669045453"><ele>313.0</ele><time>2026-04-05T15:35:22.001Z</time></trkpt><trkpt lat="44.64924155330733" lon="7.899442628649204"><ele>313.0</ele><time>2026-04-05T15:35:23.001Z</time></trkpt><trkpt lat="44.649375296819414" lon="7.899548679367473"><ele>313.0</ele><time>2026-04-05T15:35:24.001Z</time></trkpt><trkpt lat="44.649524563898666" lon="7.89969398845012"><ele>313.0</ele><time>2026-04-05T15:35:25.001Z</time></trkpt><trkpt lat="44.649688275647286" lon="7.89983474364956"><ele>309.66666666666663</ele><time>2026-04-05T15:35:26.001Z</time></trkpt><trkpt lat="44.64984659800051" lon="7.899967184325324"><ele>306.3333333333333</ele><time>2026-04-05T15:35:27.001Z</time></trkpt><trkpt lat="44.64998024430177" lon="7.90008391340632"><ele>303.0</ele><time>2026-04-05T15:35:28.001Z</time></trkpt><trkpt lat="44.6500937185178" lon="7.900172984105635"><ele>303.0</ele><time>2026-04-05T15:35:29.001Z</time></trkpt><trkpt lat="44.65020005431247" lon="7.900228088495063"><ele>303.0</ele><time>2026-04-05T15:35:30.001Z</time></trkpt><trkpt lat="44.65031969414104" lon="7.900224881684009"><ele>303.0</ele><time>2026-04-05T15:35:31.001Z</time></trkpt><trkpt lat="44.65044546966537" lon="7.900103495368862"><ele>303.0</ele><time>2026-04-05T15:35:32.001Z</time></trkpt><trkpt lat="44.65054738670018" lon="7.899914618061054"><ele>301.0</ele><time>2026-04-05T15:35:33.001Z</time></trkpt><trkpt lat="44.650616554033135" lon="7.89967746920434"><ele>299.0</ele><time>2026-04-05T15:35:34.001Z</time></trkpt><trkpt lat="44.65066937976742" lon="7.899466677622463"><ele>297.0</ele><time>2026-04-05T15:35:35.001Z</time></trkpt><trkpt lat="44.65072722115428" lon="7.899318467913063"><ele>296.6666666666667</ele><time>2026-04-05T15:35:36.001Z</time></trkpt><trkpt lat="44.65069678629765" lon="7.899128888522828"><ele>296.33333333333337</ele><time>2026-04-05T15:35:37.001Z</time></trkpt><trkpt lat="44.65062456943493" lon="7.898913099859251"><ele>296.0</ele><time>2026-04-05T15:35:38.001Z</time></trkpt><trkpt lat="44.65049768890481" lon="7.898701765328698"><ele>296.0</ele><time>2026-04-05T15:35:39.001Z</time></trkpt><trkpt lat="44.65036062344738" lon="7.898494848540222"><ele>296.0</ele><time>2026-04-05T15:35:40.001Z</time></trkpt><trkpt lat="44.65024464439023" lon="7.898291744216835"><ele>296.0</ele><time>2026-04-05T15:35:41.001Z</time></trkpt><trkpt lat="44.65013794772133" lon="7.898127113178067"><ele>295.25</ele><time>2026-04-05T15:35:42.001Z</time></trkpt><trkpt lat="44.650025083193015" lon="7.897984043277196"><ele>294.5</ele><time>2026-04-05T15:35:43.001Z</time></trkpt><trkpt lat="44.649947489078144" lon="7.897814692308064"><ele>293.75</ele><time>2026-04-05T15:35:44.001Z</time></trkpt><trkpt lat="44.649895957248454" lon="7.897640108238416"><ele>293.0</ele><time>2026-04-05T15:35:45.001Z</time></trkpt><trkpt lat="44.64985609878687" lon="7.897455179065878"><ele>292.5</ele><time>2026-04-05T15:35:46.001Z</time></trkpt><trkpt lat="44.64981051341637" lon="7.897279541736974"><ele>292.0</ele><time>2026-04-05T15:35:47.001Z</time></trkpt><trkpt lat="44.64978806647165" lon="7.8971022362477585"><ele>291.5</ele><time>2026-04-05T15:35:48.001Z</time></trkpt><trkpt lat="44.649743411623675" lon="7.896938724621646"><ele>291.0</ele><time>2026-04-05T15:35:49.001Z</time></trkpt><trkpt lat="44.64971611471637" lon="7.8967757395701685"><ele>289.6</ele><time>2026-04-05T15:35:50.001Z</time></trkpt><trkpt lat="44.649685700567474" lon="7.896617927821714"><ele>288.20000000000005</ele><time>2026-04-05T15:35:51.001Z</time></trkpt><trkpt lat="44.649657655533325" lon="7.896466330030505"><ele>286.79999999999995</ele><time>2026-04-05T15:35:52.001Z</time></trkpt><trkpt lat="44.649628307805614" lon="7.8963160387083065"><ele>285.4</ele><time>2026-04-05T15:35:53.001Z</time></trkpt><trkpt lat="44.64959885346749" lon="7.896171683692479"><ele>284.0</ele><time>2026-04-05T15:35:54.001Z</time></trkpt><trkpt lat="44.64957632176246" lon="7.896027494158483"><ele>284.2</ele><time>2026-04-05T15:35:55.001Z</time></trkpt><trkpt lat="44.64955753718318" lon="7.895887460042224"><ele>284.4</ele><time>2026-04-05T15:35:56.001Z</time></trkpt><trkpt lat="44.64953342019277" lon="7.895750199563594"><ele>284.6</ele><time>2026-04-05T15:35:57.001Z</time></trkpt><trkpt lat="44.64948932640209" lon="7.895603274515795"><ele>284.8</ele><time>2026-04-05T15:35:58.001Z</time></trkpt><trkpt lat="44.649423433014576" lon="7.895477655692021"><ele>285.0</ele><time>2026-04-05T15:35:59.001Z</time></trkpt><trkpt lat="44.64934793336894" lon="7.895379967506019"><ele>285.0</ele><time>2026-04-05T15:36:00.001Z</time></trkpt><trkpt lat="44.6492889635414" lon="7.895275521005578"><ele>285.0</ele><time>2026-04-05T15:36:01.001Z</time></trkpt><trkpt lat="44.649256240468254" lon="7.895183938831218"><ele>285.0</ele><time>2026-04-05T15:36:02.001Z</time></trkpt><trkpt lat="44.64922466606974" lon="7.895086643082232"><ele>285.0</ele><time>2026-04-05T15:36:03.001Z</time></trkpt><trkpt lat="44.64922945262321" lon="7.8949806197871535"><ele>285.0</ele><time>2026-04-05T15:36:04.001Z</time></trkpt><trkpt lat="44.64925502434235" lon="7.8948662851476445"><ele>285.0</ele><time>2026-04-05T15:36:05.001Z</time></trkpt><trkpt lat="44.64931682821596" lon="7.8947561637846855"><ele>283.4</ele><time>2026-04-05T15:36:06.001Z</time></trkpt><trkpt lat="44.64937946029286" lon="7.894633375215523"><ele>281.8</ele><time>2026-04-05T15:36:07.001Z</time></trkpt><trkpt lat="44.64942689268216" lon="7.894493099022084"><ele>280.2</ele><time>2026-04-05T15:36:08.001Z</time></trkpt><trkpt lat="44.6494866615496" lon="7.894364559795589"><ele>278.6</ele><time>2026-04-05T15:36:09.001Z</time></trkpt><trkpt lat="44.6495406852153" lon="7.894233698754113"><ele>277.0</ele><time>2026-04-05T15:36:10.001Z</time></trkpt><trkpt lat="44.6495895094683" lon="7.894107582302711"><ele>275.4</ele><time>2026-04-05T15:36:11.001Z</time></trkpt><trkpt lat="44.64962136913962" lon="7.893975479090622"><ele>273.79999999999995</ele><time>2026-04-05T15:36:12.001Z</time></trkpt><trkpt lat="44.649642067095705" lon="7.893836364842715"><ele>272.2</ele><time>2026-04-05T15:36:13.001Z</time></trkpt><trkpt lat="44.649663362104775" lon="7.893696657766185"><ele>270.59999999999997</ele><time>2026-04-05T15:36:14.001Z</time></trkpt><trkpt lat="44.649689047729495" lon="7.8935518860624425"><ele>269.0</ele><time>2026-04-05T15:36:15.001Z</time></trkpt><trkpt lat="44.649710315634046" lon="7.893392207220808"><ele>267.25</ele><time>2026-04-05T15:36:16.001Z</time></trkpt><trkpt lat="44.649729131042726" lon="7.893223216374143"><ele>265.5</ele><time>2026-04-05T15:36:17.001Z</time></trkpt><trkpt lat="44.64974654354145" lon="7.893050617374129"><ele>263.75</ele><time>2026-04-05T15:36:18.001Z</time></trkpt><trkpt lat="44.64974739892224" lon="7.892867043013836"><ele>262.0</ele><time>2026-04-05T15:36:19.001Z</time></trkpt><trkpt lat="44.64973224246949" lon="7.892674817073549"><ele>261.0</ele><time>2026-04-05T15:36:20.001Z</time></trkpt><trkpt lat="44.64970537448449" lon="7.8924865698731"><ele>260.0</ele><time>2026-04-05T15:36:21.001Z</time></trkpt><trkpt lat="44.64967017898284" lon="7.892300617600011"><ele>259.0</ele><time>2026-04-05T15:36:22.001Z</time></trkpt><trkpt lat="44.64963787363515" lon="7.892124302312413"><ele>258.0</ele><time>2026-04-05T15:36:23.001Z</time></trkpt><trkpt lat="44.64961136397164" lon="7.891956622986078"><ele>258.0</ele><time>2026-04-05T15:36:24.001Z</time></trkpt><trkpt lat="44.6495660101343" lon="7.891797988166529"><ele>258.0</ele><time>2026-04-05T15:36:25.001Z</time></trkpt><trkpt lat="44.64949428257026" lon="7.891673322039722"><ele>258.0</ele><time>2026-04-05T15:36:26.001Z</time></trkpt><trkpt lat="44.64941126520103" lon="7.891541207566168"><ele>258.0</ele><time>2026-04-05T15:36:27.001Z</time></trkpt><trkpt lat="44.6493159806098" lon="7.89141121144417"><ele>257.5</ele><time>2026-04-05T15:36:28.001Z</time></trkpt><trkpt lat="44.64922043069676" lon="7.891270267619151"><ele>257.0</ele><time>2026-04-05T15:36:29.001Z</time></trkpt><trkpt lat="44.64912750031857" lon="7.891139758642062"><ele>256.5</ele><time>2026-04-05T15:36:30.001Z</time></trkpt><trkpt lat="44.649043013735366" lon="7.891019529052571"><ele>256.0</ele><time>2026-04-05T15:36:31.001Z</time></trkpt><trkpt lat="44.64895936602012" lon="7.890903379178262"><ele>255.0</ele><time>2026-04-05T15:36:32.001Z</time></trkpt><trkpt lat="44.64887596770649" lon="7.89079495357402"><ele>254.0</ele><time>2026-04-05T15:36:33.001Z</time></trkpt><trkpt lat="44.648797530802625" lon="7.890683663994351"><ele>253.0</ele><time>2026-04-05T15:36:34.001Z</time></trkpt><trkpt lat="44.648720628488086" lon="7.890562179637543"><ele>252.0</ele><time>2026-04-05T15:36:35.001Z</time></trkpt><trkpt lat="44.648659932288005" lon="7.890427816817708"><ele>252.6</ele><time>2026-04-05T15:36:36.001Z</time></trkpt><trkpt lat="44.6486201880933" lon="7.890278281745372"><ele>253.2</ele><time>2026-04-05T15:36:37.001Z</time></trkpt><trkpt lat="44.648595736694226" lon="7.890131291932035"><ele>253.8</ele><time>2026-04-05T15:36:38.001Z</time></trkpt><trkpt lat="44.648573539030075" lon="7.8899854254397646"><ele>254.4</ele><time>2026-04-05T15:36:39.001Z</time></trkpt><trkpt lat="44.648523939003965" lon="7.889848032725393"><ele>255.0</ele><time>2026-04-05T15:36:40.001Z</time></trkpt><trkpt lat="44.64844671435149" lon="7.889723945341179"><ele>253.6</ele><time>2026-04-05T15:36:41.001Z</time></trkpt><trkpt lat="44.64836707869062" lon="7.889620140894415"><ele>252.2</ele><time>2026-04-05T15:36:42.001Z</time></trkpt><trkpt lat="44.648288894479684" lon="7.889517136551013"><ele>250.8</ele><time>2026-04-05T15:36:43.001Z</time></trkpt><trkpt lat="44.64821367753644" lon="7.889415199730353"><ele>249.4</ele><time>2026-04-05T15:36:44.001Z</time></trkpt><trkpt lat="44.64814996607121" lon="7.889308398843086"><ele>248.0</ele><time>2026-04-05T15:36:45.001Z</time></trkpt><trkpt lat="44.64809736969795" lon="7.88917924566079"><ele>246.25</ele><time>2026-04-05T15:36:46.001Z</time></trkpt><trkpt lat="44.648058072011736" lon="7.889026229659188"><ele>244.5</ele><time>2026-04-05T15:36:47.001Z</time></trkpt><trkpt lat="44.64804920723778" lon="7.888858392019278"><ele>242.75</ele><time>2026-04-05T15:36:48.001Z</time></trkpt><trkpt lat="44.64806232561534" lon="7.8886935936671465"><ele>241.0</ele><time>2026-04-05T15:36:49.001Z</time></trkpt><trkpt lat="44.648080177121834" lon="7.888533509824258"><ele>240.4</ele><time>2026-04-05T15:36:50.001Z</time></trkpt><trkpt lat="44.64809545034513" lon="7.888377541324075"><ele>239.8</ele><time>2026-04-05T15:36:51.001Z</time></trkpt><trkpt lat="44.64810182492054" lon="7.888226705142682"><ele>239.20000000000002</ele><time>2026-04-05T15:36:52.001Z</time></trkpt><trkpt lat="44.64810712603737" lon="7.888085199650752"><ele>238.60000000000002</ele><time>2026-04-05T15:36:53.001Z</time></trkpt><trkpt lat="44.648115002665136" lon="7.8879402653460575"><ele>238.0</ele><time>2026-04-05T15:36:54.001Z</time></trkpt><trkpt lat="44.64812425654564" lon="7.887788708030069"><ele>237.99999999999997</ele><time>2026-04-05T15:36:55.001Z</time></trkpt><trkpt lat="44.64813085448787" lon="7.887651663385215"><ele>238.0</ele><time>2026-04-05T15:36:56.001Z</time></trkpt><trkpt lat="44.64812470174317" lon="7.887523463148435"><ele>238.0</ele><time>2026-04-05T15:36:57.001Z</time></trkpt><trkpt lat="44.64809560677866" lon="7.887402750238373"><ele>238.0</ele><time>2026-04-05T15:36:58.001Z</time></trkpt><trkpt lat="44.64804332485614" lon="7.8873114579537855"><ele>237.99999999999997</ele><time>2026-04-05T15:36:59.001Z</time></trkpt><trkpt lat="44.647973259668" lon="7.8872502164546985"><ele>238.0</ele><time>2026-04-05T15:37:00.001Z</time></trkpt><trkpt lat="44.6478950181069" lon="7.887194967507098"><ele>237.83333333333331</ele><time>2026-04-05T15:37:01.001Z</time></trkpt><trkpt lat="44.647816015604796" lon="7.88714539637681"><ele>237.66666666666666</ele><time>2026-04-05T15:37:02.001Z</time></trkpt><trkpt lat="44.647740372350974" lon="7.887085043255917"><ele>237.5</ele><time>2026-04-05T15:37:03.001Z</time></trkpt><trkpt lat="44.647674864560834" lon="7.887009384735852"><ele>237.33333333333331</ele><time>2026-04-05T15:37:04.001Z</time></trkpt><trkpt lat="44.647619550008365" lon="7.886917980072356"><ele>237.16666666666666</ele><time>2026-04-05T15:37:05.001Z</time></trkpt><trkpt lat="44.64757181954007" lon="7.88681178925599"><ele>237.0</ele><time>2026-04-05T15:37:06.001Z</time></trkpt><trkpt lat="44.64753748703565" lon="7.886688021240981"><ele>235.8</ele><time>2026-04-05T15:37:07.001Z</time></trkpt><trkpt lat="44.64751377206495" lon="7.886548537494167"><ele>234.6</ele><time>2026-04-05T15:37:08.001Z</time></trkpt><trkpt lat="44.64749421394878" lon="7.886419465135049"><ele>233.40000000000003</ele><time>2026-04-05T15:37:09.001Z</time></trkpt><trkpt lat="44.647476141296146" lon="7.886302016084352"><ele>232.20000000000002</ele><time>2026-04-05T15:37:10.001Z</time></trkpt><trkpt lat="44.64745943191551" lon="7.886182911995393"><ele>231.0</ele><time>2026-04-05T15:37:11.001Z</time></trkpt><trkpt lat="44.647434918015065" lon="7.886045673691025"><ele>231.75</ele><time>2026-04-05T15:37:12.001Z</time></trkpt><trkpt lat="44.64740497216687" lon="7.885901412974253"><ele>232.5</ele><time>2026-04-05T15:37:13.001Z</time></trkpt><trkpt lat="44.64736442240533" lon="7.885756459889892"><ele>233.25</ele><time>2026-04-05T15:37:14.001Z</time></trkpt><trkpt lat="44.64731239096417" lon="7.885616781424583"><ele>234.0</ele><time>2026-04-05T15:37:15.001Z</time></trkpt><trkpt lat="44.64725196732222" lon="7.885469006911683"><ele>234.0</ele><time>2026-04-05T15:37:16.001Z</time></trkpt><trkpt lat="44.64718877918171" lon="7.885315228906698"><ele>234.0</ele><time>2026-04-05T15:37:17.001Z</time></trkpt><trkpt lat="44.64713109764551" lon="7.8851635202818136"><ele>234.0</ele><time>2026-04-05T15:37:18.001Z</time></trkpt><trkpt lat="44.647072162224106" lon="7.885019603584367"><ele>234.0</ele><time>2026-04-05T15:37:19.001Z</time></trkpt><trkpt lat="44.64701459926408" lon="7.884878440675482"><ele>231.5</ele><time>2026-04-05T15:37:20.001Z</time></trkpt><trkpt lat="44.64695831646931" lon="7.884739220867955"><ele>229.0</ele><time>2026-04-05T15:37:21.001Z</time></trkpt><trkpt lat="44.64690507500022" lon="7.884601626177298"><ele>226.5</ele><time>2026-04-05T15:37:22.001Z</time></trkpt><trkpt lat="44.646849502179634" lon="7.884458286139637"><ele>224.0</ele><time>2026-04-05T15:37:23.001Z</time></trkpt><trkpt lat="44.64679057165475" lon="7.884308482698295"><ele>223.75</ele><time>2026-04-05T15:37:24.001Z</time></trkpt><trkpt lat="44.646727745347285" lon="7.884149090170976"><ele>223.5</ele><time>2026-04-05T15:37:25.001Z</time></trkpt><trkpt lat="44.64666155420701" lon="7.883979832860058"><ele>223.25</ele><time>2026-04-05T15:37:26.001Z</time></trkpt><trkpt lat="44.646595515456376" lon="7.883796069281138"><ele>223.0</ele><time>2026-04-05T15:37:27.001Z</time></trkpt><trkpt lat="44.64652991002179" lon="7.883605454158021"><ele>222.0</ele><time>2026-04-05T15:37:28.001Z</time></trkpt><trkpt lat="44.64647179464442" lon="7.883413939204774"><ele>221.0</ele><time>2026-04-05T15:37:29.001Z</time></trkpt><trkpt lat="44.64641812640909" lon="7.883218699260126"><ele>220.0</ele><time>2026-04-05T15:37:30.001Z</time></trkpt><trkpt lat="44.64637268973139" lon="7.8830163799985336"><ele>219.0</ele><time>2026-04-05T15:37:31.001Z</time></trkpt><trkpt lat="44.64633379972596" lon="7.882808377915929"><ele>217.66666666666669</ele><time>2026-04-05T15:37:32.001Z</time></trkpt><trkpt lat="44.64630298298093" lon="7.882595862649933"><ele>216.33333333333334</ele><time>2026-04-05T15:37:33.001Z</time></trkpt><trkpt lat="44.64627352679107" lon="7.882383364327613"><ele>215.0</ele><time>2026-04-05T15:37:34.001Z</time></trkpt><trkpt lat="44.64624533955874" lon="7.8821742505958365"><ele>215.0</ele><time>2026-04-05T15:37:35.001Z</time></trkpt><trkpt lat="44.646217578215435" lon="7.881970137190047"><ele>215.0</ele><time>2026-04-05T15:37:36.001Z</time></trkpt><trkpt lat="44.646192649093095" lon="7.881777727118724"><ele>215.0</ele><time>2026-04-05T15:37:37.001Z</time></trkpt><trkpt lat="44.646166175344895" lon="7.881590695047655"><ele>215.0</ele><time>2026-04-05T15:37:38Z</time></trkpt><trkpt lat="44.646141927804614" lon="7.881387552127737"><ele>213.66666666666669</ele><time>2026-04-05T15:37:39Z</time></trkpt><trkpt lat="44.64611448931067" lon="7.881178859181928"><ele>212.33333333333331</ele><time>2026-04-05T15:37:40Z</time></trkpt><trkpt lat="44.64608832349931" lon="7.880973154838573"><ele>211.0</ele><time>2026-04-05T15:37:41Z</time></trkpt><trkpt lat="44.646060856027134" lon="7.880759373091086"><ele>211.0</ele><time>2026-04-05T15:37:42Z</time></trkpt><trkpt lat="44.646033835609444" lon="7.880554102655157"><ele>211.0</ele><time>2026-04-05T15:37:43Z</time></trkpt><trkpt lat="44.64600891502448" lon="7.880361532494648"><ele>211.0</ele><time>2026-04-05T15:37:44Z</time></trkpt><trkpt lat="44.64598619749819" lon="7.880176303423422"><ele>211.0</ele><time>2026-04-05T15:37:45Z</time></trkpt><trkpt lat="44.645962748843196" lon="7.879996492777504"><ele>210.75</ele><time>2026-04-05T15:37:46Z</time></trkpt><trkpt lat="44.64593892779078" lon="7.879816015062382"><ele>210.5</ele><time>2026-04-05T15:37:47Z</time></trkpt><trkpt lat="44.645914492631285" lon="7.8796366426229705"><ele>210.25</ele><time>2026-04-05T15:37:48Z</time></trkpt><trkpt lat="44.645891484995644" lon="7.879464924978352"><ele>210.0</ele><time>2026-04-05T15:37:49Z</time></trkpt><trkpt lat="44.64586992277127" lon="7.879293330511377"><ele>210.0</ele><time>2026-04-05T15:37:50Z</time></trkpt><trkpt lat="44.64584704217758" lon="7.879129728349207"><ele>210.0</ele><time>2026-04-05T15:37:51Z</time></trkpt><trkpt lat="44.64582424456036" lon="7.87895809566219"><ele>210.0</ele><time>2026-04-05T15:37:52Z</time></trkpt><trkpt lat="44.64580276501304" lon="7.878781424709751"><ele>210.0</ele><time>2026-04-05T15:37:53Z</time></trkpt><trkpt lat="44.64578530816435" lon="7.878606897686499"><ele>209.75</ele><time>2026-04-05T15:37:54Z</time></trkpt><trkpt lat="44.645771634414665" lon="7.878428538355477"><ele>209.5</ele><time>2026-04-05T15:37:55Z</time></trkpt><trkpt lat="44.64576897700479" lon="7.878245455951899"><ele>209.25</ele><time>2026-04-05T15:37:56Z</time></trkpt><trkpt lat="44.64577652763128" lon="7.878055997952996"><ele>209.0</ele><time>2026-04-05T15:37:57Z</time></trkpt><trkpt lat="44.6457970057304" lon="7.877863697031195"><ele>209.0</ele><time>2026-04-05T15:37:58Z</time></trkpt><trkpt lat="44.64583009936242" lon="7.877672783529521"><ele>209.0</ele><time>2026-04-05T15:37:59Z</time></trkpt><trkpt lat="44.645871664713134" lon="7.877482264670938"><ele>209.0</ele><time>2026-04-05T15:38:00Z</time></trkpt><trkpt lat="44.64591579875519" lon="7.877291192909323"><ele>209.0</ele><time>2026-04-05T15:38:01Z</time></trkpt><trkpt lat="44.64596558669483" lon="7.877104767112623"><ele>208.75</ele><time>2026-04-05T15:38:02Z</time></trkpt><trkpt lat="44.64602113435753" lon="7.87693052332336"><ele>208.5</ele><time>2026-04-05T15:38:03Z</time></trkpt><trkpt lat="44.646082509766195" lon="7.876762830037341"><ele>208.25</ele><time>2026-04-05T15:38:04Z</time></trkpt><trkpt lat="44.646154294851414" lon="7.876598350855831"><ele>208.0</ele><time>2026-04-05T15:38:05Z</time></trkpt><trkpt lat="44.646235175047224" lon="7.876438267908843"><ele>207.25</ele><time>2026-04-05T15:38:06Z</time></trkpt><trkpt lat="44.6463188496136" lon="7.876290263548355"><ele>206.5</ele><time>2026-04-05T15:38:07Z</time></trkpt><trkpt lat="44.64640989698181" lon="7.876150451225409"><ele>205.75</ele><time>2026-04-05T15:38:08Z</time></trkpt><trkpt lat="44.646509692906285" lon="7.876016107322355"><ele>205.0</ele><time>2026-04-05T15:38:09Z</time></trkpt><trkpt lat="44.64661529457346" lon="7.8758825287286784"><ele>204.66666666666666</ele><time>2026-04-05T15:38:10Z</time></trkpt><trkpt lat="44.6467361317716" lon="7.875749391013982"><ele>204.33333333333331</ele><time>2026-04-05T15:38:11Z</time></trkpt><trkpt lat="44.64687393390674" lon="7.875631294352896"><ele>204.0</ele><time>2026-04-05T15:38:12Z</time></trkpt><trkpt lat="44.647024768114555" lon="7.875514485591291"><ele>203.0</ele><time>2026-04-05T15:38:13Z</time></trkpt><trkpt lat="44.64717618427556" lon="7.875410190344026"><ele>202.0</ele><time>2026-04-05T15:38:14Z</time></trkpt><trkpt lat="44.647325357243425" lon="7.875313298162724"><ele>201.0</ele><time>2026-04-05T15:38:15Z</time></trkpt><trkpt lat="44.647478749847714" lon="7.87521377129061"><ele>200.66666666666669</ele><time>2026-04-05T15:38:16Z</time></trkpt><trkpt lat="44.647645665234215" lon="7.875100283145179"><ele>200.33333333333334</ele><time>2026-04-05T15:38:17Z</time></trkpt><trkpt lat="44.6478296286079" lon="7.874982875398756"><ele>200.0</ele><time>2026-04-05T15:38:18Z</time></trkpt><trkpt lat="44.64804544665064" lon="7.874854612630831"><ele>198.5</ele><time>2026-04-05T15:38:19Z</time></trkpt><trkpt lat="44.648280389614484" lon="7.874749017272525"><ele>197.0</ele><time>2026-04-05T15:38:20Z</time></trkpt><trkpt lat="44.64851222622284" lon="7.874607653430535"><ele>195.5</ele><time>2026-04-05T15:38:21Z</time></trkpt><trkpt lat="44.64875291818231" lon="7.874460662715737"><ele>194.0</ele><time>2026-04-05T15:38:22Z</time></trkpt><trkpt lat="44.64900085316959" lon="7.874308658457439"><ele>194.5</ele><time>2026-04-05T15:38:23Z</time></trkpt><trkpt lat="44.64924684463026" lon="7.874149835295627"><ele>195.0</ele><time>2026-04-05T15:38:24Z</time></trkpt><trkpt lat="44.64948159003258" lon="7.874010388851165"><ele>197.0</ele><time>2026-04-05T15:38:25Z</time></trkpt><trkpt lat="44.64969316167017" lon="7.873876401580421"><ele>199.0</ele><time>2026-04-05T15:38:26Z</time></trkpt><trkpt lat="44.64989495404084" lon="7.873752947606371"><ele>199.0</ele><time>2026-04-05T15:38:27Z</time></trkpt><trkpt lat="44.6500956006973" lon="7.873625729780863"><ele>199.0</ele><time>2026-04-05T15:38:28Z</time></trkpt><trkpt lat="44.65028341589525" lon="7.873508064335087"><ele>199.0</ele><time>2026-04-05T15:38:29Z</time></trkpt><trkpt lat="44.65045262183628" lon="7.873401961234313"><ele>201.0</ele><time>2026-04-05T15:38:30Z</time></trkpt><trkpt lat="44.6506116552155" lon="7.873296734953346"><ele>203.0</ele><time>2026-04-05T15:38:31Z</time></trkpt><trkpt lat="44.650772473539654" lon="7.873161819058511"><ele>205.0</ele><time>2026-04-05T15:38:32Z</time></trkpt><trkpt lat="44.65091508099223" lon="7.8729815955369995"><ele>205.0</ele><time>2026-04-05T15:38:33Z</time></trkpt><trkpt lat="44.651025024193125" lon="7.8727583375861405"><ele>205.0</ele><time>2026-04-05T15:38:34Z</time></trkpt><trkpt lat="44.65109540253572" lon="7.872490408002741"><ele>205.0</ele><time>2026-04-05T15:38:35Z</time></trkpt><trkpt lat="44.65110654040092" lon="7.872194259969526"><ele>207.33333333333331</ele><time>2026-04-05T15:38:36Z</time></trkpt><trkpt lat="44.65111344350617" lon="7.871894069488704"><ele>209.66666666666669</ele><time>2026-04-05T15:38:37Z</time></trkpt><trkpt lat="44.651122463255" lon="7.871625990465465"><ele>212.0</ele><time>2026-04-05T15:38:38Z</time></trkpt><trkpt lat="44.651122969809414" lon="7.871391325057669"><ele>211.8</ele><time>2026-04-05T15:38:39Z</time></trkpt><trkpt lat="44.65112802386372" lon="7.871204842553732"><ele>211.6</ele><time>2026-04-05T15:38:40Z</time></trkpt><trkpt lat="44.65113097688547" lon="7.871058039809775"><ele>211.4</ele><time>2026-04-05T15:38:41Z</time></trkpt><trkpt lat="44.65113405602985" lon="7.870928966403464"><ele>211.20000000000002</ele><time>2026-04-05T15:38:42Z</time></trkpt><trkpt lat="44.65113535060827" lon="7.870830388519474"><ele>211.0</ele><time>2026-04-05T15:38:43Z</time></trkpt><trkpt lat="44.651164386067805" lon="7.870717919546445"><ele>210.83333333333331</ele><time>2026-04-05T15:38:45Z</time></trkpt><trkpt lat="44.651198304856955" lon="7.870618605684233"><ele>210.66666666666666</ele><time>2026-04-05T15:38:49Z</time></trkpt><trkpt lat="44.651249399164456" lon="7.870555249420369"><ele>210.5</ele><time>2026-04-05T15:38:52Z</time></trkpt><trkpt lat="44.651352070130464" lon="7.8704662187059125"><ele>210.33333333333331</ele><time>2026-04-05T15:38:54Z</time></trkpt><trkpt lat="44.6514100808349" lon="7.8703774921536604"><ele>210.16666666666666</ele><time>2026-04-05T15:38:55Z</time></trkpt><trkpt lat="44.65146113531163" lon="7.870280229969779"><ele>210.0</ele><time>2026-04-05T15:38:56Z</time></trkpt><trkpt lat="44.651496844868" lon="7.870149486059916"><ele>210.0</ele><time>2026-04-05T15:38:57Z</time></trkpt><trkpt lat="44.65149999640817" lon="7.869991925682187"><ele>210.0</ele><time>2026-04-05T15:38:58Z</time></trkpt><trkpt lat="44.65146253640717" lon="7.869839236957047"><ele>210.0</ele><time>2026-04-05T15:38:59Z</time></trkpt><trkpt lat="44.65140353583604" lon="7.869697962624547"><ele>210.0</ele><time>2026-04-05T15:39:00Z</time></trkpt><trkpt lat="44.65131815506188" lon="7.869573899703181"><ele>210.0</ele><time>2026-04-05T15:39:01Z</time></trkpt><trkpt lat="44.65124697503048" lon="7.869447364301139"><ele>210.0</ele><time>2026-04-05T15:39:02Z</time></trkpt><trkpt lat="44.651170919912445" lon="7.869309203565911"><ele>210.0</ele><time>2026-04-05T15:39:03Z</time></trkpt><trkpt lat="44.65108792199066" lon="7.869172966440452"><ele>210.0</ele><time>2026-04-05T15:39:04Z</time></trkpt><trkpt lat="44.65112510722836" lon="7.868945793219149"><ele>211.5</ele><time>2026-04-05T15:39:05Z</time></trkpt><trkpt lat="44.65112129037442" lon="7.868738790325762"><ele>213.0</ele><time>2026-04-05T15:39:06Z</time></trkpt><trkpt lat="44.651107066850564" lon="7.8685291374550586"><ele>214.5</ele><time>2026-04-05T15:39:07Z</time></trkpt><trkpt lat="44.651106409007056" lon="7.868329829265969"><ele>216.0</ele><time>2026-04-05T15:39:08Z</time></trkpt><trkpt lat="44.651085313052846" lon="7.868134103505824"><ele>216.0</ele><time>2026-04-05T15:39:09Z</time></trkpt><trkpt lat="44.65106253941936" lon="7.867917484965762"><ele>216.0</ele><time>2026-04-05T15:39:10Z</time></trkpt><trkpt lat="44.65102042693676" lon="7.867702713380277"><ele>216.0</ele><time>2026-04-05T15:39:11Z</time></trkpt><trkpt lat="44.650942175309346" lon="7.867492493293552"><ele>216.0</ele><time>2026-04-05T15:39:12Z</time></trkpt><trkpt lat="44.650841774867686" lon="7.867304058760646"><ele>216.0</ele><time>2026-04-05T15:39:13Z</time></trkpt><trkpt lat="44.6507502166859" lon="7.867139802823386"><ele>216.0</ele><time>2026-04-05T15:39:14Z</time></trkpt><trkpt lat="44.650684566900246" lon="7.8669869704071695"><ele>216.0</ele><time>2026-04-05T15:39:15Z</time></trkpt><trkpt lat="44.650633858425074" lon="7.866835293053518"><ele>216.4</ele><time>2026-04-05T15:39:16Z</time></trkpt><trkpt lat="44.65065444735144" lon="7.866693405346375"><ele>216.8</ele><time>2026-04-05T15:39:17Z</time></trkpt><trkpt lat="44.65067913881207" lon="7.866568955570043"><ele>217.20000000000002</ele><time>2026-04-05T15:39:18Z</time></trkpt><trkpt lat="44.650709475216054" lon="7.866414265134164"><ele>217.60000000000002</ele><time>2026-04-05T15:39:19Z</time></trkpt><trkpt lat="44.650758699430284" lon="7.866291040563828"><ele>218.0</ele><time>2026-04-05T15:39:20Z</time></trkpt><trkpt lat="44.65087059859137" lon="7.8662380747378515"><ele>218.0</ele><time>2026-04-05T15:39:21Z</time></trkpt><trkpt lat="44.650995991309244" lon="7.866174737118973"><ele>218.0</ele><time>2026-04-05T15:39:22Z</time></trkpt><trkpt lat="44.65114338159128" lon="7.866162566128939"><ele>218.0</ele><time>2026-04-05T15:39:23Z</time></trkpt><trkpt lat="44.6512953917829" lon="7.866156515767889"><ele>218.0</ele><time>2026-04-05T15:39:24Z</time></trkpt><trkpt lat="44.65147310793219" lon="7.866151368660334"><ele>216.33333333333334</ele><time>2026-04-05T15:39:25Z</time></trkpt><trkpt lat="44.65164574363788" lon="7.866138205482101"><ele>214.66666666666669</ele><time>2026-04-05T15:39:26Z</time></trkpt><trkpt lat="44.65182292877179" lon="7.866122339389645"><ele>213.0</ele><time>2026-04-05T15:39:27Z</time></trkpt><trkpt lat="44.651995071991614" lon="7.8661011131358745"><ele>212.66666666666669</ele><time>2026-04-05T15:39:28Z</time></trkpt><trkpt lat="44.65215688108507" lon="7.866083912368075"><ele>212.33333333333334</ele><time>2026-04-05T15:39:29Z</time></trkpt><trkpt lat="44.65231063182297" lon="7.866072054823617"><ele>212.0</ele><time>2026-04-05T15:39:30Z</time></trkpt><trkpt lat="44.6524626899624" lon="7.866055077796281"><ele>212.0</ele><time>2026-04-05T15:39:31Z</time></trkpt><trkpt lat="44.65261514346774" lon="7.866043637353586"><ele>212.0</ele><time>2026-04-05T15:39:32Z</time></trkpt><trkpt lat="44.65276676447017" lon="7.866031749666251"><ele>212.0</ele><time>2026-04-05T15:39:33Z</time></trkpt><trkpt lat="44.65291650943664" lon="7.866014538933716"><ele>211.66666666666669</ele><time>2026-04-05T15:39:34Z</time></trkpt><trkpt lat="44.65306691129902" lon="7.865996079667217"><ele>211.33333333333331</ele><time>2026-04-05T15:39:35Z</time></trkpt><trkpt lat="44.653221134651595" lon="7.865976729240437"><ele>211.0</ele><time>2026-04-05T15:39:36Z</time></trkpt><trkpt lat="44.653380897696714" lon="7.865956860637565"><ele>211.33333333333331</ele><time>2026-04-05T15:39:37Z</time></trkpt><trkpt lat="44.653544343672706" lon="7.865939451587523"><ele>211.66666666666669</ele><time>2026-04-05T15:39:38Z</time></trkpt><trkpt lat="44.65370658505" lon="7.865924958862145"><ele>212.0</ele><time>2026-04-05T15:39:39Z</time></trkpt><trkpt lat="44.653869413797246" lon="7.865909570711145"><ele>212.0</ele><time>2026-04-05T15:39:40Z</time></trkpt><trkpt lat="44.65402902445106" lon="7.865893630710911"><ele>212.0</ele><time>2026-04-05T15:39:41Z</time></trkpt><trkpt lat="44.6541893276469" lon="7.865872299545086"><ele>212.0</ele><time>2026-04-05T15:39:42Z</time></trkpt><trkpt lat="44.65435120106043" lon="7.865840924291911"><ele>210.66666666666669</ele><time>2026-04-05T15:39:43Z</time></trkpt><trkpt lat="44.65452111125833" lon="7.865797588173928"><ele>209.33333333333331</ele><time>2026-04-05T15:39:44Z</time></trkpt><trkpt lat="44.65469750814245" lon="7.865738619349706"><ele>208.0</ele><time>2026-04-05T15:39:45Z</time></trkpt><trkpt lat="44.65487281742382" lon="7.865661894020428"><ele>208.0</ele><time>2026-04-05T15:39:46Z</time></trkpt><trkpt lat="44.65504675605967" lon="7.865561257874557"><ele>208.0</ele><time>2026-04-05T15:39:47Z</time></trkpt><trkpt lat="44.65521839307307" lon="7.865438556862277"><ele>208.0</ele><time>2026-04-05T15:39:48Z</time></trkpt><trkpt lat="44.65538692747219" lon="7.8653030959540535"><ele>207.66666666666666</ele><time>2026-04-05T15:39:49Z</time></trkpt><trkpt lat="44.655548260883045" lon="7.8651517952923715"><ele>207.33333333333331</ele><time>2026-04-05T15:39:50Z</time></trkpt><trkpt lat="44.65570404566937" lon="7.864978747433582"><ele>207.0</ele><time>2026-04-05T15:39:51Z</time></trkpt><trkpt lat="44.65585378750863" lon="7.864784840769273"><ele>207.0</ele><time>2026-04-05T15:39:52Z</time></trkpt><trkpt lat="44.65599430661231" lon="7.864576705060007"><ele>207.0</ele><time>2026-04-05T15:39:53Z</time></trkpt><trkpt lat="44.65612419707325" lon="7.8643537329779365"><ele>207.0</ele><time>2026-04-05T15:39:54Z</time></trkpt><trkpt lat="44.656242348682724" lon="7.864120730581525"><ele>207.33333333333331</ele><time>2026-04-05T15:39:55Z</time></trkpt><trkpt lat="44.65634406504342" lon="7.863888523759771"><ele>207.66666666666666</ele><time>2026-04-05T15:39:56Z</time></trkpt><trkpt lat="44.656427392098394" lon="7.863651330214753"><ele>208.0</ele><time>2026-04-05T15:39:57Z</time></trkpt><trkpt lat="44.65649469903071" lon="7.8634047847967885"><ele>209.33333333333331</ele><time>2026-04-05T15:39:58Z</time></trkpt><trkpt lat="44.65655125705469" lon="7.863153177325573"><ele>210.66666666666669</ele><time>2026-04-05T15:39:59Z</time></trkpt><trkpt lat="44.65659431465806" lon="7.8629005742173055"><ele>212.0</ele><time>2026-04-05T15:40:00Z</time></trkpt><trkpt lat="44.65662776178903" lon="7.862642188369384"><ele>213.33333333333334</ele><time>2026-04-05T15:40:01Z</time></trkpt><trkpt lat="44.656649376905214" lon="7.862377668455419"><ele>214.66666666666669</ele><time>2026-04-05T15:40:02Z</time></trkpt><trkpt lat="44.65666268996846" lon="7.862113256111352"><ele>216.0</ele><time>2026-04-05T15:40:03Z</time></trkpt><trkpt lat="44.65667758916874" lon="7.861849330769271"><ele>216.33333333333331</ele><time>2026-04-05T15:40:04Z</time></trkpt><trkpt lat="44.656697070721144" lon="7.86159165668596"><ele>216.66666666666666</ele><time>2026-04-05T15:40:05Z</time></trkpt><trkpt lat="44.65671584333215" lon="7.861351966571491"><ele>217.0</ele><time>2026-04-05T15:40:06Z</time></trkpt><trkpt lat="44.656732705828915" lon="7.861129148469849"><ele>218.0</ele><time>2026-04-05T15:40:07Z</time></trkpt><trkpt lat="44.656748520123756" lon="7.860904115395381"><ele>219.0</ele><time>2026-04-05T15:40:08Z</time></trkpt><trkpt lat="44.65676233369331" lon="7.860667118943178"><ele>220.0</ele><time>2026-04-05T15:40:09Z</time></trkpt><trkpt lat="44.65678132472961" lon="7.86042444898184"><ele>220.0</ele><time>2026-04-05T15:40:10Z</time></trkpt><trkpt lat="44.65680043311841" lon="7.860186456810162"><ele>220.0</ele><time>2026-04-05T15:40:11Z</time></trkpt><trkpt lat="44.65681652548568" lon="7.85993555329881"><ele>220.0</ele><time>2026-04-05T15:40:12Z</time></trkpt><trkpt lat="44.656834879047" lon="7.859682361199878"><ele>220.0</ele><time>2026-04-05T15:40:13Z</time></trkpt><trkpt lat="44.65685095214177" lon="7.859447195325127"><ele>220.0</ele><time>2026-04-05T15:40:14Z</time></trkpt><trkpt lat="44.65686921498931" lon="7.859206902270057"><ele>220.0</ele><time>2026-04-05T15:40:15Z</time></trkpt><trkpt lat="44.65688501375789" lon="7.858981733767261"><ele>220.0</ele><time>2026-04-05T15:40:16Z</time></trkpt><trkpt lat="44.65690168781167" lon="7.858765298012053"><ele>220.0</ele><time>2026-04-05T15:40:17Z</time></trkpt><trkpt lat="44.656920782152014" lon="7.858554740267368"><ele>220.0</ele><time>2026-04-05T15:40:18Z</time></trkpt><trkpt lat="44.656933239313645" lon="7.858361711505119"><ele>220.0</ele><time>2026-04-05T15:40:19Z</time></trkpt><trkpt lat="44.656944830746035" lon="7.858177713652338"><ele>218.0</ele><time>2026-04-05T15:40:20Z</time></trkpt><trkpt lat="44.656958698091195" lon="7.857995437155135"><ele>216.0</ele><time>2026-04-05T15:40:21Z</time></trkpt><trkpt lat="44.65697411699302" lon="7.857802781239531"><ele>214.0</ele><time>2026-04-05T15:40:22Z</time></trkpt><trkpt lat="44.656986862209656" lon="7.857603092118726"><ele>212.0</ele><time>2026-04-05T15:40:23Z</time></trkpt><trkpt lat="44.65699975932784" lon="7.857400075753362"><ele>212.0</ele><time>2026-04-05T15:40:24Z</time></trkpt><trkpt lat="44.65701087713289" lon="7.857197665682642"><ele>212.0</ele><time>2026-04-05T15:40:25Z</time></trkpt><trkpt lat="44.65702368261785" lon="7.857001765086213"><ele>212.0</ele><time>2026-04-05T15:40:26Z</time></trkpt><trkpt lat="44.657041681102" lon="7.856815096907696"><ele>212.0</ele><time>2026-04-05T15:40:27Z</time></trkpt><trkpt lat="44.65706834809725" lon="7.856646790894531"><ele>212.0</ele><time>2026-04-05T15:40:28Z</time></trkpt><trkpt lat="44.65711365542493" lon="7.856489008088289"><ele>212.0</ele><time>2026-04-05T15:40:29Z</time></trkpt><trkpt lat="44.65717978802481" lon="7.856335625397143"><ele>212.0</ele><time>2026-04-05T15:40:30Z</time></trkpt><trkpt lat="44.65727124143199" lon="7.856199250944904"><ele>212.0</ele><time>2026-04-05T15:40:31Z</time></trkpt><trkpt lat="44.65738614440379" lon="7.856099918405918"><ele>212.0</ele><time>2026-04-05T15:40:32Z</time></trkpt><trkpt lat="44.65751744413188" lon="7.856056110798143"><ele>212.0</ele><time>2026-04-05T15:40:33Z</time></trkpt><trkpt lat="44.65764448445058" lon="7.856004942025625"><ele>212.0</ele><time>2026-04-05T15:40:34Z</time></trkpt><trkpt lat="44.65776828542168" lon="7.855935901467794"><ele>212.0</ele><time>2026-04-05T15:40:35Z</time></trkpt><trkpt lat="44.657898106158605" lon="7.855896878076105"><ele>211.5</ele><time>2026-04-05T15:40:36Z</time></trkpt><trkpt lat="44.65802843282308" lon="7.855842238806006"><ele>211.0</ele><time>2026-04-05T15:40:37Z</time></trkpt><trkpt lat="44.65816158674921" lon="7.855797353684125"><ele>210.5</ele><time>2026-04-05T15:40:38Z</time></trkpt><trkpt lat="44.65829015026087" lon="7.855746510333542"><ele>210.0</ele><time>2026-04-05T15:40:39Z</time></trkpt><trkpt lat="44.658415518547486" lon="7.855697484179533"><ele>210.0</ele><time>2026-04-05T15:40:40Z</time></trkpt><trkpt lat="44.65854020236924" lon="7.855652078372569"><ele>210.0</ele><time>2026-04-05T15:40:41Z</time></trkpt><trkpt lat="44.65866588203546" lon="7.855605452488719"><ele>210.0</ele><time>2026-04-05T15:40:42Z</time></trkpt><trkpt lat="44.6587871223248" lon="7.855556490272217"><ele>210.0</ele><time>2026-04-05T15:40:43Z</time></trkpt><trkpt lat="44.658906671674906" lon="7.855510252201708"><ele>208.25</ele><time>2026-04-05T15:40:44Z</time></trkpt><trkpt lat="44.6590346182516" lon="7.855463799572536"><ele>206.5</ele><time>2026-04-05T15:40:45Z</time></trkpt><trkpt lat="44.65916832611603" lon="7.855410232791678"><ele>204.75</ele><time>2026-04-05T15:40:46Z</time></trkpt><trkpt lat="44.659301293790996" lon="7.855358980559487"><ele>203.0</ele><time>2026-04-05T15:40:47Z</time></trkpt><trkpt lat="44.65943987587558" lon="7.855302118330099"><ele>203.66666666666669</ele><time>2026-04-05T15:40:48Z</time></trkpt><trkpt lat="44.65958174231657" lon="7.855247982861741"><ele>204.33333333333331</ele><time>2026-04-05T15:40:49Z</time></trkpt><trkpt lat="44.659726988242454" lon="7.8551904329770865"><ele>205.0</ele><time>2026-04-05T15:40:50Z</time></trkpt><trkpt lat="44.65987401325729" lon="7.855137615143227"><ele>205.75</ele><time>2026-04-05T15:40:51Z</time></trkpt><trkpt lat="44.660019017469004" lon="7.855083409461865"><ele>206.5</ele><time>2026-04-05T15:40:52Z</time></trkpt><trkpt lat="44.660150851587936" lon="7.855032675306129"><ele>207.25</ele><time>2026-04-05T15:40:53Z</time></trkpt><trkpt lat="44.66028079451569" lon="7.8549822919023295"><ele>208.0</ele><time>2026-04-05T15:40:54Z</time></trkpt><trkpt lat="44.66041444628212" lon="7.854930974840289"><ele>208.0</ele><time>2026-04-05T15:40:55Z</time></trkpt><trkpt lat="44.66055392521904" lon="7.854874331719963"><ele>208.0</ele><time>2026-04-05T15:40:56Z</time></trkpt><trkpt lat="44.66070308097854" lon="7.854814362708278"><ele>208.0</ele><time>2026-04-05T15:40:57Z</time></trkpt><trkpt lat="44.66085493164663" lon="7.85475908569043"><ele>208.0</ele><time>2026-04-05T15:40:58Z</time></trkpt><trkpt lat="44.66100897004996" lon="7.854710043291507"><ele>208.0</ele><time>2026-04-05T15:40:59Z</time></trkpt><trkpt lat="44.66115098131287" lon="7.854681505794303"><ele>208.0</ele><time>2026-04-05T15:41:00Z</time></trkpt><trkpt lat="44.66127029196455" lon="7.854665628308207"><ele>208.0</ele><time>2026-04-05T15:41:01Z</time></trkpt><trkpt lat="44.66138000184385" lon="7.854649401674483"><ele>210.0</ele><time>2026-04-05T15:41:02Z</time></trkpt><trkpt lat="44.66148692043049" lon="7.854636306100054"><ele>212.0</ele><time>2026-04-05T15:41:03Z</time></trkpt><trkpt lat="44.66159153651778" lon="7.8546255095879784"><ele>214.0</ele><time>2026-04-05T15:41:04Z</time></trkpt><trkpt lat="44.661694179509865" lon="7.854617570805018"><ele>216.0</ele><time>2026-04-05T15:41:05Z</time></trkpt><trkpt lat="44.66178788687165" lon="7.854608875160099"><ele>218.0</ele><time>2026-04-05T15:41:06Z</time></trkpt><trkpt lat="44.661874745233526" lon="7.854600308407879"><ele>217.8</ele><time>2026-04-05T15:41:07Z</time></trkpt><trkpt lat="44.661957676453824" lon="7.854604999858742"><ele>217.60000000000002</ele><time>2026-04-05T15:41:08Z</time></trkpt><trkpt lat="44.66204836172663" lon="7.854630525289384"><ele>217.39999999999998</ele><time>2026-04-05T15:41:09Z</time></trkpt><trkpt lat="44.66213496079773" lon="7.854685031298382"><ele>217.2</ele><time>2026-04-05T15:41:10Z</time></trkpt><trkpt lat="44.6622202994768" lon="7.85476871305953"><ele>217.0</ele><time>2026-04-05T15:41:11Z</time></trkpt><trkpt lat="44.662303968985135" lon="7.85483184387992"><ele>217.0</ele><time>2026-04-05T15:41:12Z</time></trkpt><trkpt lat="44.662396751159626" lon="7.854850328787697"><ele>217.0</ele><time>2026-04-05T15:41:13Z</time></trkpt><trkpt lat="44.66246187458416" lon="7.854827842871692"><ele>217.0</ele><time>2026-04-05T15:41:14Z</time></trkpt><trkpt lat="44.66254935435901" lon="7.854777405032639"><ele>217.0</ele><time>2026-04-05T15:41:15Z</time></trkpt><trkpt lat="44.66264562707473" lon="7.854642730582578"><ele>217.0</ele><time>2026-04-05T15:41:16Z</time></trkpt><trkpt lat="44.662708865635" lon="7.854541017849658"><ele>217.0</ele><time>2026-04-05T15:41:17Z</time></trkpt><trkpt lat="44.6628287487807" lon="7.854552649144587"><ele>217.0</ele><time>2026-04-05T15:41:18Z</time></trkpt><trkpt lat="44.66293088552777" lon="7.854557313636194"><ele>217.0</ele><time>2026-04-05T15:41:19Z</time></trkpt><trkpt lat="44.66303468020054" lon="7.854562043453119"><ele>217.0</ele><time>2026-04-05T15:41:20Z</time></trkpt><trkpt lat="44.663149904331675" lon="7.854563629249796"><ele>217.0</ele><time>2026-04-05T15:41:21Z</time></trkpt><trkpt lat="44.66327184093023" lon="7.854562109122559"><ele>217.0</ele><time>2026-04-05T15:41:22Z</time></trkpt><trkpt lat="44.663397891639626" lon="7.854560951236291"><ele>217.0</ele><time>2026-04-05T15:41:23Z</time></trkpt><trkpt lat="44.66352253731834" lon="7.854563920432012"><ele>217.0</ele><time>2026-04-05T15:41:24Z</time></trkpt><trkpt lat="44.66364803362849" lon="7.854562271956503"><ele>217.0</ele><time>2026-04-05T15:41:25Z</time></trkpt><trkpt lat="44.6637640226387" lon="7.854560824391472"><ele>217.6</ele><time>2026-04-05T15:41:26Z</time></trkpt><trkpt lat="44.66387503103109" lon="7.85455843076755"><ele>218.2</ele><time>2026-04-05T15:41:27Z</time></trkpt><trkpt lat="44.663983651101375" lon="7.854558220235417"><ele>218.8</ele><time>2026-04-05T15:41:28Z</time></trkpt><trkpt lat="44.664095636388716" lon="7.854560043714179"><ele>219.4</ele><time>2026-04-05T15:41:29Z</time></trkpt><trkpt lat="44.66420697052873" lon="7.8545619635404025"><ele>220.0</ele><time>2026-04-05T15:41:30Z</time></trkpt><trkpt lat="44.664318975556576" lon="7.854562925425037"><ele>220.0</ele><time>2026-04-05T15:41:31Z</time></trkpt><trkpt lat="44.6644311895203" lon="7.854563645242023"><ele>220.0</ele><time>2026-04-05T15:41:32Z</time></trkpt><trkpt lat="44.66454235435793" lon="7.854565579286261"><ele>220.0</ele><time>2026-04-05T15:41:33Z</time></trkpt><trkpt lat="44.66465473920242" lon="7.85456614112951"><ele>220.0</ele><time>2026-04-05T15:41:34Z</time></trkpt><trkpt lat="44.66477275188581" lon="7.8545701713310505"><ele>219.8</ele><time>2026-04-05T15:41:35Z</time></trkpt><trkpt lat="44.66488645482012" lon="7.854573653753084"><ele>219.6</ele><time>2026-04-05T15:41:36Z</time></trkpt><trkpt lat="44.66499939528359" lon="7.854575354888923"><ele>219.39999999999998</ele><time>2026-04-05T15:41:37Z</time></trkpt><trkpt lat="44.665113350707735" lon="7.854572638490673"><ele>219.2</ele><time>2026-04-05T15:41:38Z</time></trkpt><trkpt lat="44.66522124764255" lon="7.854574179953077"><ele>219.0</ele><time>2026-04-05T15:41:39Z</time></trkpt><trkpt lat="44.66532400191617" lon="7.854572846503017"><ele>219.0</ele><time>2026-04-05T15:41:40Z</time></trkpt><trkpt lat="44.6654275583744" lon="7.854570840715562"><ele>218.99999999999997</ele><time>2026-04-05T15:41:41Z</time></trkpt><trkpt lat="44.665527286169436" lon="7.854570450612475"><ele>218.99999999999997</ele><time>2026-04-05T15:41:42Z</time></trkpt><trkpt lat="44.66562768710991" lon="7.854570154153163"><ele>219.0</ele><time>2026-04-05T15:41:43Z</time></trkpt><trkpt lat="44.66572578724086" lon="7.85456773058761"><ele>219.0</ele><time>2026-04-05T15:41:44Z</time></trkpt><trkpt lat="44.665823441850215" lon="7.854566324194199"><ele>219.0</ele><time>2026-04-05T15:41:45Z</time></trkpt><trkpt lat="44.665918011712506" lon="7.854561587843511"><ele>219.0</ele><time>2026-04-05T15:41:46Z</time></trkpt><trkpt lat="44.66600705838075" lon="7.85455425146769"><ele>219.0</ele><time>2026-04-05T15:41:47Z</time></trkpt><trkpt lat="44.666085349786684" lon="7.854549492936507"><ele>219.0</ele><time>2026-04-05T15:41:48Z</time></trkpt><trkpt lat="44.66617173472011" lon="7.854553304387011"><ele>219.0</ele><time>2026-04-05T15:41:49Z</time></trkpt><trkpt lat="44.66623826046696" lon="7.854562015884254"><ele>219.0</ele><time>2026-04-05T15:41:50Z</time></trkpt><trkpt lat="44.666314438613576" lon="7.854572759041236"><ele>218.6</ele><time>2026-04-05T15:41:52Z</time></trkpt><trkpt lat="44.666378400761936" lon="7.854609607564564"><ele>218.2</ele><time>2026-04-05T15:41:54Z</time></trkpt><trkpt lat="44.6664902763449" lon="7.854649388807244"><ele>217.79999999999998</ele><time>2026-04-05T15:41:56Z</time></trkpt><trkpt lat="44.66656423134432" lon="7.854613145999898"><ele>217.39999999999998</ele><time>2026-04-05T15:41:57Z</time></trkpt><trkpt lat="44.66662256977946" lon="7.854576210550637"><ele>217.0</ele><time>2026-04-05T15:41:58Z</time></trkpt><trkpt lat="44.66667953868432" lon="7.854410610842575"><ele>217.0</ele><time>2026-04-05T15:42:00Z</time></trkpt><trkpt lat="44.6666976763431" lon="7.854297512713911"><ele>217.0</ele><time>2026-04-05T15:42:01Z</time></trkpt><trkpt lat="44.666618126278294" lon="7.854183206967722"><ele>217.0</ele><time>2026-04-05T15:42:02Z</time></trkpt><trkpt lat="44.666576382756496" lon="7.854040960674006"><ele>217.0</ele><time>2026-04-05T15:42:03Z</time></trkpt><trkpt lat="44.666546287495486" lon="7.853882824778708"><ele>217.0</ele><time>2026-04-05T15:42:04Z</time></trkpt><trkpt lat="44.66658434193354" lon="7.853665235694574"><ele>218.0</ele><time>2026-04-05T15:42:05Z</time></trkpt><trkpt lat="44.666630048928305" lon="7.853435497566337"><ele>219.0</ele><time>2026-04-05T15:42:06Z</time></trkpt><trkpt lat="44.66669187847094" lon="7.853186914796352"><ele>220.0</ele><time>2026-04-05T15:42:07Z</time></trkpt><trkpt lat="44.66676398825005" lon="7.852934467745168"><ele>220.0</ele><time>2026-04-05T15:42:08Z</time></trkpt><trkpt lat="44.66683407148702" lon="7.852679042575888"><ele>220.0</ele><time>2026-04-05T15:42:09Z</time></trkpt><trkpt lat="44.66690497566653" lon="7.852417647727649"><ele>220.0</ele><time>2026-04-05T15:42:10Z</time></trkpt><trkpt lat="44.66697857168054" lon="7.852148351281121"><ele>220.66666666666666</ele><time>2026-04-05T15:42:11Z</time></trkpt><trkpt lat="44.66705298156988" lon="7.851879301733527"><ele>221.33333333333331</ele><time>2026-04-05T15:42:12Z</time></trkpt><trkpt lat="44.667122276435336" lon="7.851636886693116"><ele>222.0</ele><time>2026-04-05T15:42:13Z</time></trkpt><trkpt lat="44.66719368378674" lon="7.851411148853213"><ele>222.0</ele><time>2026-04-05T15:42:14Z</time></trkpt><trkpt lat="44.667274719240744" lon="7.8511697455590035"><ele>222.0</ele><time>2026-04-05T15:42:15Z</time></trkpt><trkpt lat="44.667384003422974" lon="7.850908530495737"><ele>222.0</ele><time>2026-04-05T15:42:16Z</time></trkpt><trkpt lat="44.6674913248538" lon="7.850638897166825"><ele>222.0</ele><time>2026-04-05T15:42:17Z</time></trkpt><trkpt lat="44.66759441252122" lon="7.850357371129497"><ele>222.0</ele><time>2026-04-05T15:42:18Z</time></trkpt><trkpt lat="44.66773382855981" lon="7.850087030066703"><ele>221.5</ele><time>2026-04-05T15:42:19Z</time></trkpt><trkpt lat="44.66788456621453" lon="7.849810900126427"><ele>221.0</ele><time>2026-04-05T15:42:20Z</time></trkpt><trkpt lat="44.66804595786555" lon="7.849536170270148"><ele>222.0</ele><time>2026-04-05T15:42:21Z</time></trkpt><trkpt lat="44.66822095620951" lon="7.849261429463695"><ele>223.0</ele><time>2026-04-05T15:42:22Z</time></trkpt><trkpt lat="44.66840864268685" lon="7.848998925264608"><ele>223.0</ele><time>2026-04-05T15:42:23Z</time></trkpt><trkpt lat="44.66860743562266" lon="7.848756595475147"><ele>223.0</ele><time>2026-04-05T15:42:24Z</time></trkpt><trkpt lat="44.66881000754642" lon="7.8485305951947035"><ele>222.0</ele><time>2026-04-05T15:42:25Z</time></trkpt><trkpt lat="44.669000064341425" lon="7.848327758604172"><ele>221.0</ele><time>2026-04-05T15:42:26Z</time></trkpt><trkpt lat="44.669200918801934" lon="7.848118748612982"><ele>221.0</ele><time>2026-04-05T15:42:27Z</time></trkpt><trkpt lat="44.66941182058643" lon="7.8479161087310345"><ele>221.0</ele><time>2026-04-05T15:42:28Z</time></trkpt><trkpt lat="44.66962780247338" lon="7.84771627432336"><ele>225.5</ele><time>2026-04-05T15:42:29Z</time></trkpt><trkpt lat="44.669838335475696" lon="7.847521868574219"><ele>230.0</ele><time>2026-04-05T15:42:30Z</time></trkpt><trkpt lat="44.6700360660497" lon="7.847337235073311"><ele>230.0</ele><time>2026-04-05T15:42:31Z</time></trkpt><trkpt lat="44.67022062419633" lon="7.8471498336276015"><ele>230.0</ele><time>2026-04-05T15:42:32Z</time></trkpt><trkpt lat="44.67039660699014" lon="7.846948229126776"><ele>235.0</ele><time>2026-04-05T15:42:33Z</time></trkpt><trkpt lat="44.670558264862684" lon="7.846724532600929"><ele>240.0</ele><time>2026-04-05T15:42:34Z</time></trkpt><trkpt lat="44.67070508680449" lon="7.846483841618885"><ele>240.0</ele><time>2026-04-05T15:42:35Z</time></trkpt><trkpt lat="44.67083425962316" lon="7.846258102391293"><ele>240.0</ele><time>2026-04-05T15:42:36Z</time></trkpt><trkpt lat="44.67095526647674" lon="7.846054340256156"><ele>240.0</ele><time>2026-04-05T15:42:37Z</time></trkpt><trkpt lat="44.671069738188244" lon="7.845881602642426"><ele>241.5</ele><time>2026-04-05T15:42:38Z</time></trkpt><trkpt lat="44.6711944458734" lon="7.845760290944042"><ele>243.0</ele><time>2026-04-05T15:42:39Z</time></trkpt><trkpt lat="44.671327644317785" lon="7.845672486875184"><ele>244.5</ele><time>2026-04-05T15:42:40Z</time></trkpt><trkpt lat="44.67146151376531" lon="7.845602065018537"><ele>246.0</ele><time>2026-04-05T15:42:41Z</time></trkpt><trkpt lat="44.67157415829151" lon="7.845557999280478"><ele>246.0</ele><time>2026-04-05T15:42:42Z</time></trkpt><trkpt lat="44.671672265129025" lon="7.845509084515528"><ele>246.0</ele><time>2026-04-05T15:42:43Z</time></trkpt><trkpt lat="44.67174784548315" lon="7.845442127294871"><ele>246.0</ele><time>2026-04-05T15:42:44Z</time></trkpt><trkpt lat="44.67178730091341" lon="7.845336693334953"><ele>246.0</ele><time>2026-04-05T15:42:45Z</time></trkpt><trkpt lat="44.67179767569186" lon="7.845221044982492"><ele>246.0</ele><time>2026-04-05T15:42:46Z</time></trkpt><trkpt lat="44.671774613486626" lon="7.845118451060377"><ele>246.0</ele><time>2026-04-05T15:42:47Z</time></trkpt><trkpt lat="44.671718111301786" lon="7.845034044962303"><ele>248.0</ele><time>2026-04-05T15:42:48Z</time></trkpt><trkpt lat="44.67164376063762" lon="7.844971946427765"><ele>250.00000000000003</ele><time>2026-04-05T15:42:49Z</time></trkpt><trkpt lat="44.67157367832316" lon="7.844903204180498"><ele>252.00000000000003</ele><time>2026-04-05T15:42:50Z</time></trkpt><trkpt lat="44.67149358122793" lon="7.844847565683592"><ele>254.0</ele><time>2026-04-05T15:42:51Z</time></trkpt><trkpt lat="44.671401682848305" lon="7.844800146684744"><ele>256.0</ele><time>2026-04-05T15:42:52Z</time></trkpt><trkpt lat="44.67131129730196" lon="7.844765043989203"><ele>256.0</ele><time>2026-04-05T15:42:53Z</time></trkpt><trkpt lat="44.67122656520132" lon="7.844732588649319"><ele>256.0</ele><time>2026-04-05T15:42:54Z</time></trkpt><trkpt lat="44.67117773530671" lon="7.844648519965947"><ele>256.0</ele><time>2026-04-05T15:42:55Z</time></trkpt><trkpt lat="44.67117464794215" lon="7.844532521667978"><ele>256.0</ele><time>2026-04-05T15:42:56Z</time></trkpt><trkpt lat="44.67121234976529" lon="7.844456925131608"><ele>256.0</ele><time>2026-04-05T15:42:57Z</time></trkpt><trkpt lat="44.671349353813994" lon="7.844443768632296"><ele>256.0</ele><time>2026-04-05T15:42:59Z</time></trkpt><trkpt lat="44.67143411031942" lon="7.844513408261044"><ele>256.0</ele><time>2026-04-05T15:43:00Z</time></trkpt><trkpt lat="44.671528485759744" lon="7.844617054677771"><ele>256.0</ele><time>2026-04-05T15:43:01Z</time></trkpt><trkpt lat="44.67161646491465" lon="7.844719080553893"><ele>256.0</ele><time>2026-04-05T15:43:02Z</time></trkpt><trkpt lat="44.67170676735756" lon="7.844777689153775"><ele>256.0</ele><time>2026-04-05T15:43:03Z</time></trkpt><trkpt lat="44.67179741491031" lon="7.844785487929984"><ele>256.0</ele><time>2026-04-05T15:43:04Z</time></trkpt><trkpt lat="44.6718776035455" lon="7.844733721703808"><ele>256.0</ele><time>2026-04-05T15:43:05Z</time></trkpt><trkpt lat="44.6719144710208" lon="7.844647105477955"><ele>256.0</ele><time>2026-04-05T15:43:06Z</time></trkpt><trkpt lat="44.671921015545145" lon="7.844540606306905"><ele>256.0</ele><time>2026-04-05T15:43:07Z</time></trkpt><trkpt lat="44.671891516678556" lon="7.844416334791781"><ele>256.0</ele><time>2026-04-05T15:43:08Z</time></trkpt><trkpt lat="44.67180836656812" lon="7.844281231629463"><ele>259.0</ele><time>2026-04-05T15:43:09Z</time></trkpt><trkpt lat="44.67170516752028" lon="7.8441500182599935"><ele>262.0</ele><time>2026-04-05T15:43:10Z</time></trkpt><trkpt lat="44.67159488017236" lon="7.844003418153403"><ele>265.0</ele><time>2026-04-05T15:43:11Z</time></trkpt><trkpt lat="44.671498417724436" lon="7.843854754852085"><ele>268.0</ele><time>2026-04-05T15:43:12Z</time></trkpt><trkpt lat="44.671396599455974" lon="7.8436933270239955"><ele>268.0</ele><time>2026-04-05T15:43:13Z</time></trkpt><trkpt lat="44.67132559566319" lon="7.843582248350022"><ele>268.0</ele><time>2026-04-05T15:43:14Z</time></trkpt><trkpt lat="44.67124337185466" lon="7.843467959444212"><ele>268.0</ele><time>2026-04-05T15:43:15Z</time></trkpt><trkpt lat="44.671151153517684" lon="7.843360131017113"><ele>268.0</ele><time>2026-04-05T15:43:16Z</time></trkpt><trkpt lat="44.67104893638998" lon="7.843257603392446"><ele>270.75</ele><time>2026-04-05T15:43:17Z</time></trkpt><trkpt lat="44.6709416857439" lon="7.843160495706687"><ele>273.5</ele><time>2026-04-05T15:43:18Z</time></trkpt><trkpt lat="44.670830284229915" lon="7.843082064879724"><ele>276.25</ele><time>2026-04-05T15:43:19Z</time></trkpt><trkpt lat="44.67072216499588" lon="7.843018237863646"><ele>279.0</ele><time>2026-04-05T15:43:20Z</time></trkpt><trkpt lat="44.670621883177105" lon="7.8429620692714614"><ele>279.0</ele><time>2026-04-05T15:43:21Z</time></trkpt><trkpt lat="44.67052205261375" lon="7.84291355215083"><ele>279.0</ele><time>2026-04-05T15:43:22Z</time></trkpt><trkpt lat="44.67042038307465" lon="7.842865942968857"><ele>279.0</ele><time>2026-04-05T15:43:23Z</time></trkpt><trkpt lat="44.6703218940786" lon="7.8428066270590415"><ele>279.0</ele><time>2026-04-05T15:43:24Z</time></trkpt><trkpt lat="44.67023818353137" lon="7.842726833611075"><ele>279.0</ele><time>2026-04-05T15:43:25Z</time></trkpt><trkpt lat="44.67017068687953" lon="7.842625423187722"><ele>280.2</ele><time>2026-04-05T15:43:26Z</time></trkpt><trkpt lat="44.670121489565" lon="7.842495718100548"><ele>281.4</ele><time>2026-04-05T15:43:27Z</time></trkpt><trkpt lat="44.67008022365754" lon="7.842358029687358"><ele>282.6</ele><time>2026-04-05T15:43:28Z</time></trkpt><trkpt lat="44.67003588119307" lon="7.842227354788503"><ele>283.8</ele><time>2026-04-05T15:43:29Z</time></trkpt><trkpt lat="44.66999015930851" lon="7.842089275342095"><ele>285.0</ele><time>2026-04-05T15:43:30Z</time></trkpt><trkpt lat="44.66994128022316" lon="7.84195460896451"><ele>285.0</ele><time>2026-04-05T15:43:31Z</time></trkpt><trkpt lat="44.66989047263274" lon="7.841821409651649"><ele>285.0</ele><time>2026-04-05T15:43:32Z</time></trkpt><trkpt lat="44.6698401490633" lon="7.841686363999631"><ele>285.0</ele><time>2026-04-05T15:43:33Z</time></trkpt><trkpt lat="44.66979480798671" lon="7.841548847545562"><ele>285.0</ele><time>2026-04-05T15:43:34Z</time></trkpt><trkpt lat="44.669762272960746" lon="7.841400920525121"><ele>285.0</ele><time>2026-04-05T15:43:35Z</time></trkpt><trkpt lat="44.669749195149166" lon="7.841247756153061"><ele>285.0</ele><time>2026-04-05T15:43:36Z</time></trkpt><trkpt lat="44.66976425267006" lon="7.841121529614202"><ele>285.0</ele><time>2026-04-05T15:43:37Z</time></trkpt><trkpt lat="44.66980284645137" lon="7.84103591056383"><ele>285.0</ele><time>2026-04-05T15:43:38Z</time></trkpt><trkpt lat="44.66986451384753" lon="7.840968154312581"><ele>285.0</ele><time>2026-04-05T15:43:39Z</time></trkpt><trkpt lat="44.669941279360685" lon="7.84092025946248"><ele>285.0</ele><time>2026-04-05T15:43:40Z</time></trkpt><trkpt lat="44.67000635515571" lon="7.84086805749308"><ele>285.0</ele><time>2026-04-05T15:43:41Z</time></trkpt><trkpt lat="44.67006235890904" lon="7.840821433036936"><ele>285.2</ele><time>2026-04-05T15:43:42Z</time></trkpt><trkpt lat="44.6700864640096" lon="7.840723647593231"><ele>285.4</ele><time>2026-04-05T15:43:43Z</time></trkpt><trkpt lat="44.67006131015719" lon="7.840608036062013"><ele>285.6</ele><time>2026-04-05T15:43:44Z</time></trkpt><trkpt lat="44.670031725664494" lon="7.840491747329093"><ele>285.8</ele><time>2026-04-05T15:43:45Z</time></trkpt><trkpt lat="44.6699898573204" lon="7.840366733173792"><ele>286.0</ele><time>2026-04-05T15:43:46Z</time></trkpt><trkpt lat="44.66994356862099" lon="7.840233866802537"><ele>286.0</ele><time>2026-04-05T15:43:47Z</time></trkpt><trkpt lat="44.66988748887962" lon="7.840090425308179"><ele>286.0</ele><time>2026-04-05T15:43:48Z</time></trkpt><trkpt lat="44.669831786018214" lon="7.839948310011616"><ele>286.0</ele><time>2026-04-05T15:43:49Z</time></trkpt><trkpt lat="44.669780462898494" lon="7.839810113386099"><ele>286.0</ele><time>2026-04-05T15:43:50Z</time></trkpt><trkpt lat="44.669726141462284" lon="7.839667297476014"><ele>286.0</ele><time>2026-04-05T15:43:51Z</time></trkpt><trkpt lat="44.66967028047532" lon="7.839526679513151"><ele>286.0</ele><time>2026-04-05T15:43:52Z</time></trkpt><trkpt lat="44.66961772586917" lon="7.839387412421134"><ele>286.0</ele><time>2026-04-05T15:43:53Z</time></trkpt><trkpt lat="44.66956604674424" lon="7.8392483660273395"><ele>286.0</ele><time>2026-04-05T15:43:54Z</time></trkpt><trkpt lat="44.66951032405095" lon="7.839104319017964"><ele>286.0</ele><time>2026-04-05T15:43:55Z</time></trkpt><trkpt lat="44.669449706684965" lon="7.838957225802793"><ele>286.0</ele><time>2026-04-05T15:43:56Z</time></trkpt><trkpt lat="44.669388850475" lon="7.8388043383045085"><ele>286.0</ele><time>2026-04-05T15:43:57Z</time></trkpt><trkpt lat="44.66932809036452" lon="7.838650173004007"><ele>286.0</ele><time>2026-04-05T15:43:58Z</time></trkpt><trkpt lat="44.66926560671006" lon="7.838490377436785"><ele>285.75</ele><time>2026-04-05T15:43:59Z</time></trkpt><trkpt lat="44.66919967569298" lon="7.838324050965552"><ele>285.5</ele><time>2026-04-05T15:44:00Z</time></trkpt><trkpt lat="44.669130474894274" lon="7.8381454680313425"><ele>285.25</ele><time>2026-04-05T15:44:01Z</time></trkpt><trkpt lat="44.669058126164614" lon="7.8379594080021695"><ele>285.0</ele><time>2026-04-05T15:44:02Z</time></trkpt><trkpt lat="44.66898208135283" lon="7.837765789800846"><ele>285.0</ele><time>2026-04-05T15:44:03Z</time></trkpt><trkpt lat="44.66894314736604" lon="7.837666969829525"><ele>285.0</ele><time>2026-04-05T15:44:04Z</time></trkpt><trkpt lat="44.66888061645501" lon="7.837508020308014"><ele>285.0</ele><time>2026-04-05T15:44:05Z</time></trkpt><trkpt lat="44.6688158837064" lon="7.8373435368667925"><ele>285.0</ele><time>2026-04-05T15:44:06Z</time></trkpt><trkpt lat="44.66874965880515" lon="7.837175466569641"><ele>285.0</ele><time>2026-04-05T15:44:07Z</time></trkpt><trkpt lat="44.66868355527364" lon="7.837004114658865"><ele>285.0</ele><time>2026-04-05T15:44:08Z</time></trkpt><trkpt lat="44.668617498587366" lon="7.836832096521695"><ele>285.0</ele><time>2026-04-05T15:44:09Z</time></trkpt><trkpt lat="44.668549063019356" lon="7.836655917300884"><ele>285.0</ele><time>2026-04-05T15:44:10Z</time></trkpt><trkpt lat="44.66848040070136" lon="7.836479836811907"><ele>285.0</ele><time>2026-04-05T15:44:11Z</time></trkpt><trkpt lat="44.6684105233501" lon="7.8362996514619745"><ele>285.0</ele><time>2026-04-05T15:44:12Z</time></trkpt><trkpt lat="44.668341010858796" lon="7.836119946650739"><ele>285.0</ele><time>2026-04-05T15:44:13Z</time></trkpt><trkpt lat="44.668269835838075" lon="7.835938743766096"><ele>285.0</ele><time>2026-04-05T15:44:14Z</time></trkpt><trkpt lat="44.66820592606333" lon="7.835767963726465"><ele>285.2</ele><time>2026-04-05T15:44:15Z</time></trkpt><trkpt lat="44.66815244863505" lon="7.835622596687707"><ele>285.4</ele><time>2026-04-05T15:44:16Z</time></trkpt><trkpt lat="44.66810629310388" lon="7.835503041845848"><ele>285.6</ele><time>2026-04-05T15:44:17Z</time></trkpt><trkpt lat="44.66807191214288" lon="7.835411089271125"><ele>285.8</ele><time>2026-04-05T15:44:18Z</time></trkpt><trkpt lat="44.66801702192961" lon="7.835281713494314"><ele>286.0</ele><time>2026-04-05T15:44:20Z</time></trkpt><trkpt lat="44.66796525000149" lon="7.835200750845052"><ele>286.0</ele><time>2026-04-05T15:44:22Z</time></trkpt><trkpt lat="44.6679342505009" lon="7.835112580324496"><ele>286.0</ele><time>2026-04-05T15:44:40Z</time></trkpt><trkpt lat="44.66787575525719" lon="7.834958233282508"><ele>286.0</ele><time>2026-04-05T15:44:42Z</time></trkpt><trkpt lat="44.66782999879841" lon="7.8348334915910005"><ele>286.0</ele><time>2026-04-05T15:44:43Z</time></trkpt><trkpt lat="44.667772417003825" lon="7.8346828209458685"><ele>286.0</ele><time>2026-04-05T15:44:44Z</time></trkpt><trkpt lat="44.66769876653168" lon="7.834503158949467"><ele>286.3333333333333</ele><time>2026-04-05T15:44:45Z</time></trkpt><trkpt lat="44.667620727111654" lon="7.83430133430254"><ele>286.6666666666667</ele><time>2026-04-05T15:44:46Z</time></trkpt><trkpt lat="44.66754565967963" lon="7.83410814723466"><ele>287.0</ele><time>2026-04-05T15:44:47Z</time></trkpt><trkpt lat="44.667479406888006" lon="7.8339340275168485"><ele>287.0</ele><time>2026-04-05T15:44:48Z</time></trkpt><trkpt lat="44.667425030517634" lon="7.833768705019882"><ele>287.0</ele><time>2026-04-05T15:44:49Z</time></trkpt><trkpt lat="44.66738613766074" lon="7.833611544364002"><ele>287.0</ele><time>2026-04-05T15:44:50Z</time></trkpt><trkpt lat="44.667368322049214" lon="7.833464233652467"><ele>287.0</ele><time>2026-04-05T15:44:51Z</time></trkpt><trkpt lat="44.66736673269387" lon="7.83331937758733"><ele>287.75</ele><time>2026-04-05T15:44:52Z</time></trkpt><trkpt lat="44.66739106763126" lon="7.833150270035119"><ele>288.5</ele><time>2026-04-05T15:44:53Z</time></trkpt><trkpt lat="44.66742169760679" lon="7.832971489816653"><ele>289.25</ele><time>2026-04-05T15:44:54Z</time></trkpt><trkpt lat="44.66746710298983" lon="7.832756067645578"><ele>290.0</ele><time>2026-04-05T15:44:55Z</time></trkpt><trkpt lat="44.667525049567566" lon="7.832512694200566"><ele>290.0</ele><time>2026-04-05T15:44:56Z</time></trkpt><trkpt lat="44.66759228522816" lon="7.832250598067675"><ele>290.0</ele><time>2026-04-05T15:44:57Z</time></trkpt><trkpt lat="44.6676626195774" lon="7.831967519589634"><ele>290.0</ele><time>2026-04-05T15:44:58Z</time></trkpt><trkpt lat="44.66773019131771" lon="7.831681293865399"><ele>289.6666666666667</ele><time>2026-04-05T15:44:59Z</time></trkpt><trkpt lat="44.66778205601499" lon="7.831390342806751"><ele>289.3333333333333</ele><time>2026-04-05T15:45:00Z</time></trkpt><trkpt lat="44.66781794189295" lon="7.831089267533455"><ele>289.0</ele><time>2026-04-05T15:45:01Z</time></trkpt><trkpt lat="44.66783376282248" lon="7.830785198558656"><ele>289.0</ele><time>2026-04-05T15:45:02Z</time></trkpt><trkpt lat="44.667830034704714" lon="7.830467315153974"><ele>289.0</ele><time>2026-04-05T15:45:03Z</time></trkpt><trkpt lat="44.66781500123756" lon="7.830132848309124"><ele>289.0</ele><time>2026-04-05T15:45:04Z</time></trkpt><trkpt lat="44.667796229435496" lon="7.829815896620832"><ele>289.0</ele><time>2026-04-05T15:45:05Z</time></trkpt><trkpt lat="44.66778258167133" lon="7.829529948675321"><ele>289.0</ele><time>2026-04-05T15:45:06Z</time></trkpt><trkpt lat="44.66776701644346" lon="7.829248150021745"><ele>289.0</ele><time>2026-04-05T15:45:07Z</time></trkpt><trkpt lat="44.66774563651331" lon="7.828955552363019"><ele>289.0</ele><time>2026-04-05T15:45:08Z</time></trkpt><trkpt lat="44.66772545673419" lon="7.828666768269917"><ele>289.0</ele><time>2026-04-05T15:45:09Z</time></trkpt><trkpt lat="44.66770851238011" lon="7.828393601596629"><ele>289.0</ele><time>2026-04-05T15:45:10Z</time></trkpt><trkpt lat="44.667693065589596" lon="7.828126001889177"><ele>289.0</ele><time>2026-04-05T15:45:11Z</time></trkpt><trkpt lat="44.6676775627959" lon="7.827854947044602"><ele>289.0</ele><time>2026-04-05T15:45:12Z</time></trkpt><trkpt lat="44.66766792236345" lon="7.827580726487337"><ele>289.3333333333333</ele><time>2026-04-05T15:45:13Z</time></trkpt><trkpt lat="44.66766477515252" lon="7.827307544306741"><ele>289.6666666666667</ele><time>2026-04-05T15:45:14Z</time></trkpt><trkpt lat="44.66766476686975" lon="7.827024153542364"><ele>290.0</ele><time>2026-04-05T15:45:15Z</time></trkpt><trkpt lat="44.66767016188186" lon="7.826723608890552"><ele>290.0</ele><time>2026-04-05T15:45:16Z</time></trkpt><trkpt lat="44.667683528755326" lon="7.826407225410095"><ele>290.0</ele><time>2026-04-05T15:45:17Z</time></trkpt><trkpt lat="44.66770480466276" lon="7.826090556650522"><ele>290.0</ele><time>2026-04-05T15:45:18Z</time></trkpt><trkpt lat="44.667727862065476" lon="7.825799225403721"><ele>290.0</ele><time>2026-04-05T15:45:19Z</time></trkpt><trkpt lat="44.66774589269487" lon="7.825530746165229"><ele>290.0</ele><time>2026-04-05T15:45:20Z</time></trkpt><trkpt lat="44.66775962133786" lon="7.825280494548058"><ele>290.25</ele><time>2026-04-05T15:45:21Z</time></trkpt><trkpt lat="44.66777318377035" lon="7.825050505789868"><ele>290.5</ele><time>2026-04-05T15:45:22Z</time></trkpt><trkpt lat="44.66779058408539" lon="7.824855210331513"><ele>290.75</ele><time>2026-04-05T15:45:23Z</time></trkpt><trkpt lat="44.6678160544811" lon="7.824695639114196"><ele>291.0</ele><time>2026-04-05T15:45:24Z</time></trkpt><trkpt lat="44.66785159386708" lon="7.824567639975016"><ele>291.0</ele><time>2026-04-05T15:45:25Z</time></trkpt><trkpt lat="44.66785279935586" lon="7.824440487505978"><ele>291.0</ele><time>2026-04-05T15:45:26Z</time></trkpt><trkpt lat="44.66801707498056" lon="7.8243831599204805"><ele>291.0</ele><time>2026-04-05T15:45:27Z</time></trkpt><trkpt lat="44.66807991972535" lon="7.824219323823565"><ele>291.0</ele><time>2026-04-05T15:45:28Z</time></trkpt><trkpt lat="44.6681141157621" lon="7.824059410822254"><ele>291.25</ele><time>2026-04-05T15:45:29Z</time></trkpt><trkpt lat="44.66810538691284" lon="7.823898596983921"><ele>291.5</ele><time>2026-04-05T15:45:30Z</time></trkpt><trkpt lat="44.66806165292894" lon="7.823735103923889"><ele>291.75</ele><time>2026-04-05T15:45:31Z</time></trkpt><trkpt lat="44.66800426175947" lon="7.823560067001636"><ele>292.0</ele><time>2026-04-05T15:45:32Z</time></trkpt><trkpt lat="44.66795989137806" lon="7.823365448638584"><ele>292.0</ele><time>2026-04-05T15:45:33Z</time></trkpt><trkpt lat="44.667939124275534" lon="7.823145887773327"><ele>292.0</ele><time>2026-04-05T15:45:34Z</time></trkpt><trkpt lat="44.667934360012296" lon="7.822903572467382"><ele>292.0</ele><time>2026-04-05T15:45:35Z</time></trkpt><trkpt lat="44.6679415042567" lon="7.8226436367476415"><ele>292.0</ele><time>2026-04-05T15:45:36Z</time></trkpt><trkpt lat="44.6679421149645" lon="7.82237845716903"><ele>292.0</ele><time>2026-04-05T15:45:37Z</time></trkpt><trkpt lat="44.66793332779013" lon="7.822096788226514"><ele>292.0</ele><time>2026-04-05T15:45:38Z</time></trkpt><trkpt lat="44.66793267169854" lon="7.821804885628205"><ele>292.3333333333333</ele><time>2026-04-05T15:45:39Z</time></trkpt><trkpt lat="44.66793653805946" lon="7.821501290696636"><ele>292.6666666666667</ele><time>2026-04-05T15:45:40Z</time></trkpt><trkpt lat="44.667937529128956" lon="7.821180557772677"><ele>293.0</ele><time>2026-04-05T15:45:41Z</time></trkpt><trkpt lat="44.66793133060787" lon="7.8208408620253005"><ele>292.0</ele><time>2026-04-05T15:45:42Z</time></trkpt><trkpt lat="44.667923416357205" lon="7.820487556274562"><ele>291.0</ele><time>2026-04-05T15:45:43Z</time></trkpt><trkpt lat="44.667904971227976" lon="7.8201247304421875"><ele>291.0</ele><time>2026-04-05T15:45:44Z</time></trkpt><trkpt lat="44.66786960649588" lon="7.8197494397286995"><ele>291.0</ele><time>2026-04-05T15:45:45Z</time></trkpt><trkpt lat="44.66782174934493" lon="7.819357641995607"><ele>292.0</ele><time>2026-04-05T15:45:46Z</time></trkpt><trkpt lat="44.667824525791985" lon="7.8189641968186825"><ele>293.0</ele><time>2026-04-05T15:45:47Z</time></trkpt><trkpt lat="44.667784601265915" lon="7.818563623917991"><ele>294.0</ele><time>2026-04-05T15:45:48Z</time></trkpt><trkpt lat="44.66773920176983" lon="7.81815988912892"><ele>295.0</ele><time>2026-04-05T15:45:49Z</time></trkpt><trkpt lat="44.66769725078704" lon="7.8177602747698485"><ele>295.0</ele><time>2026-04-05T15:45:50Z</time></trkpt><trkpt lat="44.66765995954817" lon="7.817389478230187"><ele>295.0</ele><time>2026-04-05T15:45:51Z</time></trkpt><trkpt lat="44.66762666023174" lon="7.817050315297996"><ele>295.0</ele><time>2026-04-05T15:45:52Z</time></trkpt><trkpt lat="44.667592976890404" lon="7.816728228343051"><ele>295.0</ele><time>2026-04-05T15:45:53Z</time></trkpt><trkpt lat="44.66755569067109" lon="7.816403240466049"><ele>295.0</ele><time>2026-04-05T15:45:54Z</time></trkpt><trkpt lat="44.66751709198794" lon="7.816051289475456"><ele>295.0</ele><time>2026-04-05T15:45:55Z</time></trkpt><trkpt lat="44.66748256785718" lon="7.815674753797747"><ele>294.5</ele><time>2026-04-05T15:45:56Z</time></trkpt><trkpt lat="44.66744507169664" lon="7.815277089825656"><ele>294.0</ele><time>2026-04-05T15:45:57Z</time></trkpt><trkpt lat="44.66742477018223" lon="7.814866182531997"><ele>293.5</ele><time>2026-04-05T15:45:58Z</time></trkpt><trkpt lat="44.667374131428" lon="7.81445357836672"><ele>293.0</ele><time>2026-04-05T15:45:59Z</time></trkpt><trkpt lat="44.667344875988015" lon="7.814019906182847"><ele>293.0</ele><time>2026-04-05T15:46:00Z</time></trkpt><trkpt lat="44.66731530617786" lon="7.813584137151886"><ele>293.0</ele><time>2026-04-05T15:46:01Z</time></trkpt><trkpt lat="44.66728506316718" lon="7.813139182214312"><ele>294.5</ele><time>2026-04-05T15:46:02Z</time></trkpt><trkpt lat="44.66724967031938" lon="7.812684568167188"><ele>296.0</ele><time>2026-04-05T15:46:03Z</time></trkpt><trkpt lat="44.667213186603156" lon="7.812232110818675"><ele>295.0</ele><time>2026-04-05T15:46:04Z</time></trkpt><trkpt lat="44.66717757740588" lon="7.811768644715129"><ele>294.0</ele><time>2026-04-05T15:46:05Z</time></trkpt><trkpt lat="44.66714309120645" lon="7.811297313584312"><ele>294.5</ele><time>2026-04-05T15:46:06Z</time></trkpt><trkpt lat="44.66710547732499" lon="7.810821510532116"><ele>295.0</ele><time>2026-04-05T15:46:07Z</time></trkpt><trkpt lat="44.667068468557154" lon="7.810339103579216"><ele>294.5</ele><time>2026-04-05T15:46:08Z</time></trkpt><trkpt lat="44.66703182548949" lon="7.8098505540569585"><ele>294.0</ele><time>2026-04-05T15:46:09Z</time></trkpt><trkpt lat="44.666995681309785" lon="7.809360655703245"><ele>293.5</ele><time>2026-04-05T15:46:10Z</time></trkpt><trkpt lat="44.666956733551565" lon="7.808867317844946"><ele>293.0</ele><time>2026-04-05T15:46:11Z</time></trkpt><trkpt lat="44.66691242235182" lon="7.8083705529329555"><ele>293.0</ele><time>2026-04-05T15:46:12Z</time></trkpt><trkpt lat="44.66687318181655" lon="7.807869822861597"><ele>293.0</ele><time>2026-04-05T15:46:13Z</time></trkpt><trkpt lat="44.66683311943222" lon="7.8073685917766475"><ele>293.5</ele><time>2026-04-05T15:46:14Z</time></trkpt><trkpt lat="44.66679494666234" lon="7.80686651115408"><ele>294.0</ele><time>2026-04-05T15:46:15Z</time></trkpt><trkpt lat="44.666750199003445" lon="7.80637570518541"><ele>294.0</ele><time>2026-04-05T15:46:16Z</time></trkpt><trkpt lat="44.66671588083916" lon="7.805938300336611"><ele>294.0</ele><time>2026-04-05T15:46:17Z</time></trkpt><trkpt lat="44.66668384158468" lon="7.805528536702632"><ele>294.0</ele><time>2026-04-05T15:46:18Z</time></trkpt><trkpt lat="44.66665294062288" lon="7.805148344036866"><ele>294.0</ele><time>2026-04-05T15:46:19Z</time></trkpt><trkpt lat="44.6666250595292" lon="7.804783511971017"><ele>294.0</ele><time>2026-04-05T15:46:20Z</time></trkpt><trkpt lat="44.66660357580619" lon="7.804464179895574"><ele>294.0</ele><time>2026-04-05T15:46:21Z</time></trkpt><trkpt lat="44.66657734585854" lon="7.804146476255457"><ele>294.3333333333333</ele><time>2026-04-05T15:46:22Z</time></trkpt><trkpt lat="44.666550945857715" lon="7.803865942513538"><ele>294.66666666666663</ele><time>2026-04-05T15:46:23Z</time></trkpt><trkpt lat="44.666533686163426" lon="7.803608118491167"><ele>295.0</ele><time>2026-04-05T15:46:24Z</time></trkpt><trkpt lat="44.66651510548093" lon="7.803379075556933"><ele>295.0</ele><time>2026-04-05T15:46:25Z</time></trkpt><trkpt lat="44.66649666797315" lon="7.803157370074198"><ele>295.0</ele><time>2026-04-05T15:46:26Z</time></trkpt><trkpt lat="44.66649475261225" lon="7.802947381009815"><ele>295.0</ele><time>2026-04-05T15:46:27Z</time></trkpt><trkpt lat="44.666525736735295" lon="7.802761364854348"><ele>295.0</ele><time>2026-04-05T15:46:28Z</time></trkpt><trkpt lat="44.66651897481842" lon="7.802608107668428"><ele>295.0</ele><time>2026-04-05T15:46:29Z</time></trkpt><trkpt lat="44.66666407009915" lon="7.802462915915389"><ele>295.0</ele><time>2026-04-05T15:46:30Z</time></trkpt><trkpt lat="44.66672730050241" lon="7.802308715390251"><ele>295.0</ele><time>2026-04-05T15:46:31Z</time></trkpt><trkpt lat="44.66674831442835" lon="7.802135129023894"><ele>295.0</ele><time>2026-04-05T15:46:32Z</time></trkpt><trkpt lat="44.666745420543336" lon="7.801963919574194"><ele>294.75</ele><time>2026-04-05T15:46:33Z</time></trkpt><trkpt lat="44.66666426394519" lon="7.801808235677024"><ele>294.5</ele><time>2026-04-05T15:46:34Z</time></trkpt><trkpt lat="44.66657516748445" lon="7.801674017115581"><ele>294.25</ele><time>2026-04-05T15:46:35Z</time></trkpt><trkpt lat="44.666452859816566" lon="7.8016131084981915"><ele>294.0</ele><time>2026-04-05T15:46:36Z</time></trkpt><trkpt lat="44.66635413897326" lon="7.801597605686272"><ele>294.0</ele><time>2026-04-05T15:46:37Z</time></trkpt><trkpt lat="44.66633561821855" lon="7.801268624343346"><ele>294.0</ele><time>2026-04-05T15:46:38Z</time></trkpt><trkpt lat="44.666321118841054" lon="7.801085921715009"><ele>294.0</ele><time>2026-04-05T15:46:39Z</time></trkpt><trkpt lat="44.66630932862699" lon="7.800886388432649"><ele>293.3333333333333</ele><time>2026-04-05T15:46:40Z</time></trkpt><trkpt lat="44.66630210308475" lon="7.800679986862582"><ele>292.66666666666663</ele><time>2026-04-05T15:46:41Z</time></trkpt><trkpt lat="44.66629034652927" lon="7.8004634281968155"><ele>292.0</ele><time>2026-04-05T15:46:42Z</time></trkpt><trkpt lat="44.66626812488535" lon="7.800233612871109"><ele>292.66666666666663</ele><time>2026-04-05T15:46:43Z</time></trkpt><trkpt lat="44.66624314046987" lon="7.7999820337884165"><ele>293.3333333333333</ele><time>2026-04-05T15:46:44Z</time></trkpt><trkpt lat="44.66621772160121" lon="7.799709095365665"><ele>294.0</ele><time>2026-04-05T15:46:45Z</time></trkpt><trkpt lat="44.666192011927784" lon="7.799414485379464"><ele>294.0</ele><time>2026-04-05T15:46:46Z</time></trkpt><trkpt lat="44.666163456245684" lon="7.7991094528742"><ele>294.0</ele><time>2026-04-05T15:46:47Z</time></trkpt><trkpt lat="44.6661342385318" lon="7.798789895782353"><ele>294.0</ele><time>2026-04-05T15:46:48Z</time></trkpt><trkpt lat="44.66610596479652" lon="7.798460113695148"><ele>295.0</ele><time>2026-04-05T15:46:49Z</time></trkpt><trkpt lat="44.66607732398169" lon="7.798124406422831"><ele>296.0</ele><time>2026-04-05T15:46:50Z</time></trkpt><trkpt lat="44.666046394102864" lon="7.797774382710476"><ele>296.0</ele><time>2026-04-05T15:46:51Z</time></trkpt><trkpt lat="44.66601506870982" lon="7.797433507819394"><ele>296.0</ele><time>2026-04-05T15:46:52Z</time></trkpt><trkpt lat="44.66598392555614" lon="7.797106831788923"><ele>295.5</ele><time>2026-04-05T15:46:53Z</time></trkpt><trkpt lat="44.66595241185433" lon="7.796785906019383"><ele>295.0</ele><time>2026-04-05T15:46:54Z</time></trkpt><trkpt lat="44.66592000088892" lon="7.79645222750893"><ele>295.0</ele><time>2026-04-05T15:46:55Z</time></trkpt><trkpt lat="44.665887277863014" lon="7.796114233541012"><ele>295.0</ele><time>2026-04-05T15:46:56Z</time></trkpt><trkpt lat="44.66585092658693" lon="7.795776394447472"><ele>295.0</ele><time>2026-04-05T15:46:57Z</time></trkpt><trkpt lat="44.66581534995643" lon="7.795424662190673"><ele>295.0</ele><time>2026-04-05T15:46:58Z</time></trkpt><trkpt lat="44.66577989567847" lon="7.7950647667169894"><ele>294.5</ele><time>2026-04-05T15:46:59Z</time></trkpt><trkpt lat="44.66574024230115" lon="7.794682298519525"><ele>294.0</ele><time>2026-04-05T15:47:00Z</time></trkpt><trkpt lat="44.66570133765286" lon="7.794279104132974"><ele>294.5</ele><time>2026-04-05T15:47:01Z</time></trkpt><trkpt lat="44.66566871289801" lon="7.793857827743162"><ele>295.0</ele><time>2026-04-05T15:47:02Z</time></trkpt><trkpt lat="44.66563638656308" lon="7.793431979444016"><ele>295.0</ele><time>2026-04-05T15:47:03Z</time></trkpt><trkpt lat="44.66559937743701" lon="7.793001282414969"><ele>295.0</ele><time>2026-04-05T15:47:04Z</time></trkpt><trkpt lat="44.66555749914962" lon="7.792573883307789"><ele>295.5</ele><time>2026-04-05T15:47:05Z</time></trkpt><trkpt lat="44.66550994019334" lon="7.792146176782994"><ele>296.0</ele><time>2026-04-05T15:47:06Z</time></trkpt><trkpt lat="44.66547939474789" lon="7.791683005717981"><ele>296.0</ele><time>2026-04-05T15:47:07Z</time></trkpt><trkpt lat="44.66543610299318" lon="7.791208943895233"><ele>296.0</ele><time>2026-04-05T15:47:08Z</time></trkpt><trkpt lat="44.66538487568719" lon="7.790781512909958"><ele>295.5</ele><time>2026-04-05T15:47:09Z</time></trkpt><trkpt lat="44.66535703264885" lon="7.79039520228695"><ele>295.0</ele><time>2026-04-05T15:47:10Z</time></trkpt><trkpt lat="44.66532780065385" lon="7.790040893340085"><ele>295.0</ele><time>2026-04-05T15:47:11Z</time></trkpt><trkpt lat="44.665297089045154" lon="7.789711454042735"><ele>295.0</ele><time>2026-04-05T15:47:12Z</time></trkpt><trkpt lat="44.66526868032176" lon="7.789406997795263"><ele>295.3333333333333</ele><time>2026-04-05T15:47:13Z</time></trkpt><trkpt lat="44.66524128529044" lon="7.789127451850988"><ele>295.6666666666667</ele><time>2026-04-05T15:47:14Z</time></trkpt><trkpt lat="44.66521359288745" lon="7.788853011209163"><ele>296.0</ele><time>2026-04-05T15:47:15Z</time></trkpt><trkpt lat="44.6651839351709" lon="7.788552942499868"><ele>296.0</ele><time>2026-04-05T15:47:16Z</time></trkpt><trkpt lat="44.665152298725765" lon="7.788230716473241"><ele>296.0</ele><time>2026-04-05T15:47:17Z</time></trkpt><trkpt lat="44.66512421621084" lon="7.787899051918604"><ele>297.0</ele><time>2026-04-05T15:47:18Z</time></trkpt><trkpt lat="44.665099694573605" lon="7.787582501146516"><ele>298.0</ele><time>2026-04-05T15:47:19Z</time></trkpt><trkpt lat="44.6650733829754" lon="7.787290882175703"><ele>299.0</ele><time>2026-04-05T15:47:20Z</time></trkpt><trkpt lat="44.66504159795084" lon="7.786981483987251"><ele>299.5</ele><time>2026-04-05T15:47:21Z</time></trkpt><trkpt lat="44.66500435171747" lon="7.786628210333784"><ele>300.0</ele><time>2026-04-05T15:47:22Z</time></trkpt><trkpt lat="44.66498200040478" lon="7.7862207587091055"><ele>299.0</ele><time>2026-04-05T15:47:23Z</time></trkpt><trkpt lat="44.66494265738391" lon="7.785788818305355"><ele>298.0</ele><time>2026-04-05T15:47:24Z</time></trkpt><trkpt lat="44.664894314024664" lon="7.785340016352269"><ele>298.5</ele><time>2026-04-05T15:47:25Z</time></trkpt><trkpt lat="44.66485887044663" lon="7.784858995683827"><ele>299.0</ele><time>2026-04-05T15:47:26Z</time></trkpt><trkpt lat="44.66481434692256" lon="7.7843703986212756"><ele>298.0</ele><time>2026-04-05T15:47:27Z</time></trkpt><trkpt lat="44.664767443237935" lon="7.7838686106648085"><ele>297.0</ele><time>2026-04-05T15:47:28Z</time></trkpt><trkpt lat="44.664729915329765" lon="7.783389229416014"><ele>297.0</ele><time>2026-04-05T15:47:29Z</time></trkpt><trkpt lat="44.664703539940156" lon="7.7829570352520765"><ele>297.0</ele><time>2026-04-05T15:47:30Z</time></trkpt><trkpt lat="44.66467958734433" lon="7.7825382901145606"><ele>297.0</ele><time>2026-04-05T15:47:31Z</time></trkpt><trkpt lat="44.66465298297889" lon="7.782095186272573"><ele>297.0</ele><time>2026-04-05T15:47:32Z</time></trkpt><trkpt lat="44.66462576151641" lon="7.781638158377923"><ele>297.5</ele><time>2026-04-05T15:47:33Z</time></trkpt><trkpt lat="44.664600734649845" lon="7.781175811968242"><ele>298.0</ele><time>2026-04-05T15:47:34Z</time></trkpt><trkpt lat="44.664574571363694" lon="7.780697765854586"><ele>298.5</ele><time>2026-04-05T15:47:35Z</time></trkpt><trkpt lat="44.66454848767526" lon="7.780208331031605"><ele>299.0</ele><time>2026-04-05T15:47:36Z</time></trkpt><trkpt lat="44.66452161229628" lon="7.779703294349039"><ele>299.0</ele><time>2026-04-05T15:47:37Z</time></trkpt><trkpt lat="44.66449260179929" lon="7.7791855901295595"><ele>299.0</ele><time>2026-04-05T15:47:38Z</time></trkpt><trkpt lat="44.66447154737635" lon="7.778706341650124"><ele>299.0</ele><time>2026-04-05T15:47:39Z</time></trkpt><trkpt lat="44.66444896869952" lon="7.7782748189217505"><ele>299.0</ele><time>2026-04-05T15:47:40Z</time></trkpt><trkpt lat="44.66442350738765" lon="7.77783378427727"><ele>299.0</ele><time>2026-04-05T15:47:41Z</time></trkpt><trkpt lat="44.66439618034198" lon="7.777394973894382"><ele>299.0</ele><time>2026-04-05T15:47:42Z</time></trkpt><trkpt lat="44.66437544802409" lon="7.776991605473153"><ele>300.5</ele><time>2026-04-05T15:47:43Z</time></trkpt><trkpt lat="44.66435656576498" lon="7.776620210591184"><ele>302.0</ele><time>2026-04-05T15:47:44Z</time></trkpt><trkpt lat="44.66433615872017" lon="7.776257446228845"><ele>302.5</ele><time>2026-04-05T15:47:45Z</time></trkpt><trkpt lat="44.664317055460025" lon="7.775891095927766"><ele>303.0</ele><time>2026-04-05T15:47:46Z</time></trkpt><trkpt lat="44.66429839619424" lon="7.775548203202508"><ele>303.0</ele><time>2026-04-05T15:47:47Z</time></trkpt><trkpt lat="44.66428160321538" lon="7.775224532625895"><ele>303.0</ele><time>2026-04-05T15:47:48Z</time></trkpt><trkpt lat="44.66426416753328" lon="7.774907894822444"><ele>302.6666666666667</ele><time>2026-04-05T15:47:49Z</time></trkpt><trkpt lat="44.66424725668714" lon="7.774609018037008"><ele>302.33333333333337</ele><time>2026-04-05T15:47:50Z</time></trkpt><trkpt lat="44.66423262042487" lon="7.7743263649791725"><ele>302.0</ele><time>2026-04-05T15:47:51Z</time></trkpt><trkpt lat="44.664216647979856" lon="7.774064403273441"><ele>301.33333333333337</ele><time>2026-04-05T15:47:52Z</time></trkpt><trkpt lat="44.66420632243334" lon="7.773800321201053"><ele>300.6666666666667</ele><time>2026-04-05T15:47:53Z</time></trkpt><trkpt lat="44.664207205050644" lon="7.773518282271372"><ele>300.0</ele><time>2026-04-05T15:47:54Z</time></trkpt><trkpt lat="44.66421921250078" lon="7.773222696567906"><ele>300.0</ele><time>2026-04-05T15:47:55Z</time></trkpt><trkpt lat="44.66424366032234" lon="7.772921559375802"><ele>300.0</ele><time>2026-04-05T15:47:56Z</time></trkpt><trkpt lat="44.664281217614096" lon="7.772619093102865"><ele>300.0</ele><time>2026-04-05T15:47:57Z</time></trkpt><trkpt lat="44.66433489454577" lon="7.772316618742591"><ele>299.5</ele><time>2026-04-05T15:47:58Z</time></trkpt><trkpt lat="44.66440224013059" lon="7.772013531009086"><ele>299.0</ele><time>2026-04-05T15:47:59Z</time></trkpt><trkpt lat="44.6644828372011" lon="7.771713151574714"><ele>298.5</ele><time>2026-04-05T15:48:00Z</time></trkpt><trkpt lat="44.664575219888526" lon="7.771413707291927"><ele>298.0</ele><time>2026-04-05T15:48:01Z</time></trkpt><trkpt lat="44.66467394305387" lon="7.7711176101619"><ele>297.5</ele><time>2026-04-05T15:48:02Z</time></trkpt><trkpt lat="44.66477637024902" lon="7.770813774121995"><ele>297.0</ele><time>2026-04-05T15:48:03Z</time></trkpt><trkpt lat="44.66487621493404" lon="7.7705085312611955"><ele>297.0</ele><time>2026-04-05T15:48:04Z</time></trkpt><trkpt lat="44.66497890447463" lon="7.770205273020157"><ele>297.0</ele><time>2026-04-05T15:48:05Z</time></trkpt><trkpt lat="44.66507737008948" lon="7.76990570257074"><ele>297.0</ele><time>2026-04-05T15:48:06Z</time></trkpt><trkpt lat="44.66517248337467" lon="7.769619332999805"><ele>297.0</ele><time>2026-04-05T15:48:07Z</time></trkpt><trkpt lat="44.66526819768721" lon="7.769335964768802"><ele>297.0</ele><time>2026-04-05T15:48:08Z</time></trkpt><trkpt lat="44.66536309783388" lon="7.769051068834045"><ele>296.6666666666667</ele><time>2026-04-05T15:48:09Z</time></trkpt><trkpt lat="44.66545589944181" lon="7.768769728546663"><ele>296.33333333333337</ele><time>2026-04-05T15:48:10Z</time></trkpt><trkpt lat="44.66554916302178" lon="7.7684886922501875"><ele>296.0</ele><time>2026-04-05T15:48:11Z</time></trkpt><trkpt lat="44.66564499097315" lon="7.768203888758565"><ele>296.0</ele><time>2026-04-05T15:48:12Z</time></trkpt><trkpt lat="44.66574348885158" lon="7.767909797299399"><ele>296.0</ele><time>2026-04-05T15:48:13Z</time></trkpt><trkpt lat="44.665842477623706" lon="7.767606492779422"><ele>297.0</ele><time>2026-04-05T15:48:14Z</time></trkpt><trkpt lat="44.66594323487621" lon="7.767297655503224"><ele>298.0</ele><time>2026-04-05T15:48:15Z</time></trkpt><trkpt lat="44.666042845312504" lon="7.766992351132898"><ele>297.5</ele><time>2026-04-05T15:48:16Z</time></trkpt><trkpt lat="44.6661439267578" lon="7.76669281221855"><ele>297.0</ele><time>2026-04-05T15:48:17Z</time></trkpt><trkpt lat="44.666244301788744" lon="7.766389740677076"><ele>297.0</ele><time>2026-04-05T15:48:18Z</time></trkpt><trkpt lat="44.66634298082732" lon="7.766088543803091"><ele>297.0</ele><time>2026-04-05T15:48:19Z</time></trkpt><trkpt lat="44.66644094061853" lon="7.765789424658364"><ele>297.0</ele><time>2026-04-05T15:48:20Z</time></trkpt><trkpt lat="44.66654015602163" lon="7.765488901910421"><ele>297.0</ele><time>2026-04-05T15:48:21Z</time></trkpt><trkpt lat="44.66663952689761" lon="7.765186416667616"><ele>297.5</ele><time>2026-04-05T15:48:22Z</time></trkpt><trkpt lat="44.666738865634336" lon="7.764883002751374"><ele>298.0</ele><time>2026-04-05T15:48:23Z</time></trkpt><trkpt lat="44.666837854101736" lon="7.764581552006356"><ele>298.0</ele><time>2026-04-05T15:48:24Z</time></trkpt><trkpt lat="44.666935655594045" lon="7.764279892423336"><ele>298.0</ele><time>2026-04-05T15:48:25Z</time></trkpt><trkpt lat="44.6670250243071" lon="7.763978553399476"><ele>298.5</ele><time>2026-04-05T15:48:26Z</time></trkpt><trkpt lat="44.66709483484999" lon="7.763666138547707"><ele>299.0</ele><time>2026-04-05T15:48:27Z</time></trkpt><trkpt lat="44.66714965219908" lon="7.763333168140479"><ele>299.0</ele><time>2026-04-05T15:48:28Z</time></trkpt><trkpt lat="44.66719024528027" lon="7.76299615541195"><ele>299.0</ele><time>2026-04-05T15:48:29Z</time></trkpt><trkpt lat="44.66721272480823" lon="7.762657309506552"><ele>298.5</ele><time>2026-04-05T15:48:30Z</time></trkpt><trkpt lat="44.667207935676416" lon="7.762316366447124"><ele>298.0</ele><time>2026-04-05T15:48:31Z</time></trkpt><trkpt lat="44.667194754048815" lon="7.761979516965432"><ele>298.5</ele><time>2026-04-05T15:48:32Z</time></trkpt><trkpt lat="44.66717316549855" lon="7.761645566343109"><ele>299.0</ele><time>2026-04-05T15:48:33Z</time></trkpt><trkpt lat="44.667136373836506" lon="7.7613116456902285"><ele>298.0</ele><time>2026-04-05T15:48:34Z</time></trkpt><trkpt lat="44.667084155601145" lon="7.760982917244196"><ele>297.0</ele><time>2026-04-05T15:48:35Z</time></trkpt><trkpt lat="44.667026321428175" lon="7.760662180106684"><ele>297.0</ele><time>2026-04-05T15:48:36Z</time></trkpt><trkpt lat="44.66697180102323" lon="7.760363501280767"><ele>297.0</ele><time>2026-04-05T15:48:37Z</time></trkpt><trkpt lat="44.66692495708238" lon="7.760075415487166"><ele>297.0</ele><time>2026-04-05T15:48:38Z</time></trkpt><trkpt lat="44.66688111291185" lon="7.759808030609075"><ele>297.3333333333333</ele><time>2026-04-05T15:48:39Z</time></trkpt><trkpt lat="44.666835526162615" lon="7.759538497036876"><ele>297.66666666666663</ele><time>2026-04-05T15:48:40Z</time></trkpt><trkpt lat="44.666787438782606" lon="7.75925581127025"><ele>298.0</ele><time>2026-04-05T15:48:41Z</time></trkpt><trkpt lat="44.66673692154313" lon="7.758968630819451"><ele>298.0</ele><time>2026-04-05T15:48:42Z</time></trkpt><trkpt lat="44.666686282166964" lon="7.758678092393402"><ele>298.0</ele><time>2026-04-05T15:48:43Z</time></trkpt><trkpt lat="44.666638435496075" lon="7.758389308511978"><ele>298.0</ele><time>2026-04-05T15:48:44Z</time></trkpt><trkpt lat="44.66659177312229" lon="7.758122353398923"><ele>298.0</ele><time>2026-04-05T15:48:45Z</time></trkpt><trkpt lat="44.66654891496553" lon="7.757853827051102"><ele>298.0</ele><time>2026-04-05T15:48:46Z</time></trkpt><trkpt lat="44.66649495974952" lon="7.75757795966902"><ele>298.0</ele><time>2026-04-05T15:48:47Z</time></trkpt><trkpt lat="44.666443423289735" lon="7.757286582322511"><ele>297.66666666666663</ele><time>2026-04-05T15:48:48Z</time></trkpt><trkpt lat="44.66640080523847" lon="7.756985505544426"><ele>297.3333333333333</ele><time>2026-04-05T15:48:49Z</time></trkpt><trkpt lat="44.666350387174134" lon="7.756678182704018"><ele>297.0</ele><time>2026-04-05T15:48:50Z</time></trkpt><trkpt lat="44.666296629355145" lon="7.756372117575703"><ele>297.0</ele><time>2026-04-05T15:48:51Z</time></trkpt><trkpt lat="44.666241262688295" lon="7.756059176863686"><ele>297.0</ele><time>2026-04-05T15:48:52Z</time></trkpt><trkpt lat="44.66618817846814" lon="7.7557426233205495"><ele>297.0</ele><time>2026-04-05T15:48:53Z</time></trkpt><trkpt lat="44.666137316362104" lon="7.7554247450145075"><ele>297.0</ele><time>2026-04-05T15:48:54Z</time></trkpt><trkpt lat="44.666085019324484" lon="7.755109737520767"><ele>297.5</ele><time>2026-04-05T15:48:55Z</time></trkpt><trkpt lat="44.66602921070719" lon="7.754796761090021"><ele>298.0</ele><time>2026-04-05T15:48:56Z</time></trkpt><trkpt lat="44.665970996141446" lon="7.754479161363999"><ele>298.0</ele><time>2026-04-05T15:48:57Z</time></trkpt><trkpt lat="44.665914652004744" lon="7.754151011716651"><ele>298.0</ele><time>2026-04-05T15:48:58Z</time></trkpt><trkpt lat="44.665856441221095" lon="7.753816378089697"><ele>298.5</ele><time>2026-04-05T15:48:59Z</time></trkpt><trkpt lat="44.665789302867225" lon="7.753489295866921"><ele>299.0</ele><time>2026-04-05T15:49:00Z</time></trkpt><trkpt lat="44.665711350617265" lon="7.753181527612611"><ele>299.0</ele><time>2026-04-05T15:49:01Z</time></trkpt><trkpt lat="44.6656186132259" lon="7.752887738230938"><ele>299.0</ele><time>2026-04-05T15:49:02Z</time></trkpt><trkpt lat="44.66551823525987" lon="7.752610027128331"><ele>299.33333333333337</ele><time>2026-04-05T15:49:03Z</time></trkpt><trkpt lat="44.66540986498687" lon="7.752341871131368"><ele>299.6666666666667</ele><time>2026-04-05T15:49:04Z</time></trkpt><trkpt lat="44.66528965138649" lon="7.752087415242281"><ele>300.0</ele><time>2026-04-05T15:49:05Z</time></trkpt><trkpt lat="44.66516979681794" lon="7.7518380750781075"><ele>301.0</ele><time>2026-04-05T15:49:06Z</time></trkpt><trkpt lat="44.665040279806284" lon="7.751616208543032"><ele>302.0</ele><time>2026-04-05T15:49:07Z</time></trkpt><trkpt lat="44.664901359438026" lon="7.751406773266951"><ele>303.0</ele><time>2026-04-05T15:49:08Z</time></trkpt><trkpt lat="44.66475426770855" lon="7.751204148077648"><ele>303.3333333333333</ele><time>2026-04-05T15:49:09Z</time></trkpt><trkpt lat="44.66460319651454" lon="7.751009608660648"><ele>303.66666666666663</ele><time>2026-04-05T15:49:10Z</time></trkpt><trkpt lat="44.66445081346544" lon="7.7508199652836565"><ele>304.0</ele><time>2026-04-05T15:49:11Z</time></trkpt><trkpt lat="44.664300356009996" lon="7.750637807046302"><ele>304.0</ele><time>2026-04-05T15:49:12Z</time></trkpt><trkpt lat="44.66414694382485" lon="7.750466473520158"><ele>304.0</ele><time>2026-04-05T15:49:13Z</time></trkpt><trkpt lat="44.663993887559116" lon="7.750296723545726"><ele>304.0</ele><time>2026-04-05T15:49:14Z</time></trkpt><trkpt lat="44.66384591308" lon="7.750123398033765"><ele>305.3333333333333</ele><time>2026-04-05T15:49:15Z</time></trkpt><trkpt lat="44.66370293986544" lon="7.749946080278264"><ele>306.6666666666667</ele><time>2026-04-05T15:49:16Z</time></trkpt><trkpt lat="44.663554330647365" lon="7.749771191775319"><ele>308.0</ele><time>2026-04-05T15:49:17Z</time></trkpt><trkpt lat="44.66341313026319" lon="7.749608370691799"><ele>308.0</ele><time>2026-04-05T15:49:18Z</time></trkpt><trkpt lat="44.66328518732129" lon="7.749456675048588"><ele>308.0</ele><time>2026-04-05T15:49:19Z</time></trkpt><trkpt lat="44.66315879210956" lon="7.749301698818394"><ele>308.0</ele><time>2026-04-05T15:49:20Z</time></trkpt><trkpt lat="44.663031392667946" lon="7.749143331618042"><ele>309.6666666666667</ele><time>2026-04-05T15:49:21Z</time></trkpt><trkpt lat="44.66290889352642" lon="7.748987930310931"><ele>311.3333333333333</ele><time>2026-04-05T15:49:22Z</time></trkpt><trkpt lat="44.662791228764824" lon="7.748830715464343"><ele>313.0</ele><time>2026-04-05T15:49:23Z</time></trkpt><trkpt lat="44.662684704382386" lon="7.748669800955491"><ele>314.0</ele><time>2026-04-05T15:49:24Z</time></trkpt><trkpt lat="44.662564949895604" lon="7.748538135303227"><ele>315.0</ele><time>2026-04-05T15:49:25Z</time></trkpt><trkpt lat="44.662449556098174" lon="7.748400548254485"><ele>316.0</ele><time>2026-04-05T15:49:26Z</time></trkpt><trkpt lat="44.66232158972456" lon="7.748296875905706"><ele>316.0</ele><time>2026-04-05T15:49:27Z</time></trkpt><trkpt lat="44.662209931474905" lon="7.748163270808606"><ele>316.0</ele><time>2026-04-05T15:49:28Z</time></trkpt><trkpt lat="44.662091553170264" lon="7.748024118487015"><ele>316.0</ele><time>2026-04-05T15:49:29Z</time></trkpt><trkpt lat="44.66197552060758" lon="7.747884822282588"><ele>316.0</ele><time>2026-04-05T15:49:30Z</time></trkpt><trkpt lat="44.66185659609187" lon="7.747742388655526"><ele>316.0</ele><time>2026-04-05T15:49:31Z</time></trkpt><trkpt lat="44.6617372884978" lon="7.747599061973374"><ele>316.0</ele><time>2026-04-05T15:49:32Z</time></trkpt><trkpt lat="44.66161721722619" lon="7.747457303613636"><ele>316.0</ele><time>2026-04-05T15:49:33Z</time></trkpt><trkpt lat="44.6614943913158" lon="7.7473099162385415"><ele>316.0</ele><time>2026-04-05T15:49:34Z</time></trkpt><trkpt lat="44.66136360358735" lon="7.747154869653157"><ele>316.0</ele><time>2026-04-05T15:49:35Z</time></trkpt><trkpt lat="44.66123179933129" lon="7.746998306393573"><ele>316.66666666666663</ele><time>2026-04-05T15:49:36Z</time></trkpt><trkpt lat="44.661099792204794" lon="7.74683626938931"><ele>317.3333333333333</ele><time>2026-04-05T15:49:37Z</time></trkpt><trkpt lat="44.66096336034785" lon="7.746677717427091"><ele>318.0</ele><time>2026-04-05T15:49:38Z</time></trkpt><trkpt lat="44.660828436861046" lon="7.746518091064729"><ele>318.0</ele><time>2026-04-05T15:49:39Z</time></trkpt><trkpt lat="44.6606960922412" lon="7.746359176630781"><ele>318.0</ele><time>2026-04-05T15:49:40Z</time></trkpt><trkpt lat="44.66055828594644" lon="7.74619653411822"><ele>318.0</ele><time>2026-04-05T15:49:41Z</time></trkpt><trkpt lat="44.660421669057634" lon="7.746037744076659"><ele>318.3333333333333</ele><time>2026-04-05T15:49:42Z</time></trkpt><trkpt lat="44.66028766963816" lon="7.745871721923675"><ele>318.66666666666663</ele><time>2026-04-05T15:49:43Z</time></trkpt><trkpt lat="44.66014886896445" lon="7.7457079284077635"><ele>319.0</ele><time>2026-04-05T15:49:44Z</time></trkpt><trkpt lat="44.660013094429" lon="7.745548471907922"><ele>318.66666666666663</ele><time>2026-04-05T15:49:45Z</time></trkpt><trkpt lat="44.65987970755138" lon="7.745386743132284"><ele>318.3333333333333</ele><time>2026-04-05T15:49:46Z</time></trkpt><trkpt lat="44.65975543049417" lon="7.745209972477595"><ele>318.0</ele><time>2026-04-05T15:49:47Z</time></trkpt><trkpt lat="44.659635135878915" lon="7.745023137362531"><ele>318.0</ele><time>2026-04-05T15:49:48Z</time></trkpt><trkpt lat="44.65952415377983" lon="7.7448200753965795"><ele>318.0</ele><time>2026-04-05T15:49:49Z</time></trkpt><trkpt lat="44.65942389534482" lon="7.744592130605546"><ele>318.0</ele><time>2026-04-05T15:49:50Z</time></trkpt><trkpt lat="44.65933078592771" lon="7.744375406889334"><ele>319.5</ele><time>2026-04-05T15:49:51Z</time></trkpt><trkpt lat="44.659181668248934" lon="7.744063767501203"><ele>321.0</ele><time>2026-04-05T15:49:52Z</time></trkpt><trkpt lat="44.65910740431796" lon="7.74380939061502"><ele>320.6666666666667</ele><time>2026-04-05T15:49:53Z</time></trkpt><trkpt lat="44.65903057686083" lon="7.743537165582898"><ele>320.33333333333337</ele><time>2026-04-05T15:49:54Z</time></trkpt><trkpt lat="44.65896864280234" lon="7.74330565190162"><ele>320.0</ele><time>2026-04-05T15:49:55Z</time></trkpt><trkpt lat="44.65891109219895" lon="7.743081430046834"><ele>320.0</ele><time>2026-04-05T15:49:56Z</time></trkpt><trkpt lat="44.65885797238276" lon="7.742877242198491"><ele>320.0</ele><time>2026-04-05T15:49:57Z</time></trkpt><trkpt lat="44.65880089764276" lon="7.742675725505044"><ele>320.0</ele><time>2026-04-05T15:49:58Z</time></trkpt><trkpt lat="44.65874237476135" lon="7.7424725277521285"><ele>320.0</ele><time>2026-04-05T15:49:59Z</time></trkpt><trkpt lat="44.658687072768195" lon="7.7422656636688645"><ele>320.0</ele><time>2026-04-05T15:50:00Z</time></trkpt><trkpt lat="44.65862929656643" lon="7.742057573454482"><ele>320.0</ele><time>2026-04-05T15:50:01Z</time></trkpt><trkpt lat="44.65856711146482" lon="7.7418466541361255"><ele>320.0</ele><time>2026-04-05T15:50:02Z</time></trkpt><trkpt lat="44.65851029257297" lon="7.741636958622561"><ele>320.0</ele><time>2026-04-05T15:50:03Z</time></trkpt><trkpt lat="44.65845960672305" lon="7.741421800508541"><ele>320.0</ele><time>2026-04-05T15:50:04Z</time></trkpt><trkpt lat="44.658396460435654" lon="7.7412056212006854"><ele>319.75</ele><time>2026-04-05T15:50:05Z</time></trkpt><trkpt lat="44.658345397722094" lon="7.7410076101075465"><ele>319.5</ele><time>2026-04-05T15:50:06Z</time></trkpt><trkpt lat="44.65828963429741" lon="7.740830789093808"><ele>319.25</ele><time>2026-04-05T15:50:07Z</time></trkpt><trkpt lat="44.658242102475946" lon="7.740657356976544"><ele>319.0</ele><time>2026-04-05T15:50:08Z</time></trkpt><trkpt lat="44.658200610115436" lon="7.740487462736528"><ele>319.0</ele><time>2026-04-05T15:50:09Z</time></trkpt><trkpt lat="44.65816199936519" lon="7.74033125037393"><ele>319.0</ele><time>2026-04-05T15:50:10Z</time></trkpt><trkpt lat="44.65812523182259" lon="7.740185598160552"><ele>319.0</ele><time>2026-04-05T15:50:11Z</time></trkpt><trkpt lat="44.65809089162613" lon="7.740039572675217"><ele>319.0</ele><time>2026-04-05T15:50:12Z</time></trkpt><trkpt lat="44.65805928096178" lon="7.73989448787698"><ele>319.0</ele><time>2026-04-05T15:50:13Z</time></trkpt><trkpt lat="44.65802867445894" lon="7.739750509593742"><ele>318.8333333333333</ele><time>2026-04-05T15:50:14Z</time></trkpt><trkpt lat="44.658001831055785" lon="7.73962375462711"><ele>318.66666666666663</ele><time>2026-04-05T15:50:15Z</time></trkpt><trkpt lat="44.65797484611084" lon="7.739498585348588"><ele>318.5</ele><time>2026-04-05T15:50:16Z</time></trkpt><trkpt lat="44.657947599234305" lon="7.739377714310027"><ele>318.3333333333333</ele><time>2026-04-05T15:50:17Z</time></trkpt><trkpt lat="44.657933805150556" lon="7.739264114007063"><ele>318.1666666666667</ele><time>2026-04-05T15:50:18Z</time></trkpt><trkpt lat="44.65794156796295" lon="7.73915874544052"><ele>318.0</ele><time>2026-04-05T15:50:19Z</time></trkpt><trkpt lat="44.65795743454519" lon="7.739037147892705"><ele>317.8</ele><time>2026-04-05T15:50:20Z</time></trkpt><trkpt lat="44.658033749739936" lon="7.738916523114103"><ele>317.6</ele><time>2026-04-05T15:50:21Z</time></trkpt><trkpt lat="44.658097521294" lon="7.7387960873830615"><ele>317.4</ele><time>2026-04-05T15:50:22Z</time></trkpt><trkpt lat="44.65817649945535" lon="7.738685464969765"><ele>317.2</ele><time>2026-04-05T15:50:23Z</time></trkpt><trkpt lat="44.65827627902845" lon="7.73861307913547"><ele>317.0</ele><time>2026-04-05T15:50:24Z</time></trkpt><trkpt lat="44.65839990140831" lon="7.738572803185661"><ele>317.0</ele><time>2026-04-05T15:50:25Z</time></trkpt><trkpt lat="44.65854200160178" lon="7.738569225919697"><ele>317.0</ele><time>2026-04-05T15:50:26Z</time></trkpt><trkpt lat="44.65869726532987" lon="7.73860992548005"><ele>317.0</ele><time>2026-04-05T15:50:27Z</time></trkpt><trkpt lat="44.65886862327412" lon="7.738589255540295"><ele>317.0</ele><time>2026-04-05T15:50:28Z</time></trkpt><trkpt lat="44.65905766957438" lon="7.738593045959618"><ele>317.0</ele><time>2026-04-05T15:50:29Z</time></trkpt><trkpt lat="44.65924848220807" lon="7.738592184533008"><ele>317.0</ele><time>2026-04-05T15:50:30Z</time></trkpt><trkpt lat="44.65944195591493" lon="7.738585156239181"><ele>317.33333333333337</ele><time>2026-04-05T15:50:31Z</time></trkpt><trkpt lat="44.659635236680245" lon="7.7385811621782725"><ele>317.6666666666667</ele><time>2026-04-05T15:50:32Z</time></trkpt><trkpt lat="44.659822094015894" lon="7.738580845305727"><ele>318.0</ele><time>2026-04-05T15:50:33Z</time></trkpt><trkpt lat="44.6600035474628" lon="7.738581897796321"><ele>318.0</ele><time>2026-04-05T15:50:34Z</time></trkpt><trkpt lat="44.66018313320346" lon="7.73858076231665"><ele>318.0</ele><time>2026-04-05T15:50:35Z</time></trkpt><trkpt lat="44.6603567651785" lon="7.738578279739594"><ele>318.0</ele><time>2026-04-05T15:50:36Z</time></trkpt><trkpt lat="44.660515882930646" lon="7.738575055018347"><ele>318.25</ele><time>2026-04-05T15:50:37Z</time></trkpt><trkpt lat="44.66066294434124" lon="7.738574405477548"><ele>318.5</ele><time>2026-04-05T15:50:38Z</time></trkpt><trkpt lat="44.660809101639444" lon="7.738569866296117"><ele>318.75</ele><time>2026-04-05T15:50:39Z</time></trkpt><trkpt lat="44.66095475267267" lon="7.7385700195424345"><ele>319.0</ele><time>2026-04-05T15:50:40Z</time></trkpt><trkpt lat="44.66109030022163" lon="7.738571606435107"><ele>319.25</ele><time>2026-04-05T15:50:41Z</time></trkpt><trkpt lat="44.66121845175106" lon="7.738580121322657"><ele>319.5</ele><time>2026-04-05T15:50:42Z</time></trkpt><trkpt lat="44.66133680942175" lon="7.738608196081314"><ele>319.75</ele><time>2026-04-05T15:50:43Z</time></trkpt><trkpt lat="44.66144847809877" lon="7.738674024486444"><ele>320.0</ele><time>2026-04-05T15:50:44Z</time></trkpt><trkpt lat="44.661555871130474" lon="7.738741702177596"><ele>320.0</ele><time>2026-04-05T15:50:45Z</time></trkpt><trkpt lat="44.66166628903568" lon="7.7387827639219395"><ele>320.0</ele><time>2026-04-05T15:50:46Z</time></trkpt><trkpt lat="44.66178390266811" lon="7.738702627207889"><ele>320.0</ele><time>2026-04-05T15:50:47Z</time></trkpt><trkpt lat="44.66190317580032" lon="7.738614888050494"><ele>320.0</ele><time>2026-04-05T15:50:48Z</time></trkpt><trkpt lat="44.6620459425767" lon="7.738551278030278"><ele>319.33333333333337</ele><time>2026-04-05T15:50:49Z</time></trkpt><trkpt lat="44.6622070429933" lon="7.738541338206285"><ele>318.6666666666667</ele><time>2026-04-05T15:50:50Z</time></trkpt><trkpt lat="44.66238642915961" lon="7.7385547740683895"><ele>318.0</ele><time>2026-04-05T15:50:51Z</time></trkpt><trkpt lat="44.66257116148706" lon="7.7385534773217"><ele>318.0</ele><time>2026-04-05T15:50:52Z</time></trkpt><trkpt lat="44.662777945232314" lon="7.738552004750829"><ele>318.0</ele><time>2026-04-05T15:50:53Z</time></trkpt><trkpt lat="44.6629947233918" lon="7.738551746837319"><ele>318.0</ele><time>2026-04-05T15:50:54Z</time></trkpt><trkpt lat="44.66321980136795" lon="7.738550467519181"><ele>316.0</ele><time>2026-04-05T15:50:55Z</time></trkpt><trkpt lat="44.663455598095965" lon="7.738547546400248"><ele>314.0</ele><time>2026-04-05T15:50:56Z</time></trkpt><trkpt lat="44.66370341840003" lon="7.738546601310457"><ele>313.5</ele><time>2026-04-05T15:50:57Z</time></trkpt><trkpt lat="44.66398195739673" lon="7.738541395449045"><ele>313.0</ele><time>2026-04-05T15:50:58Z</time></trkpt><trkpt lat="44.66429639016894" lon="7.738538487619612"><ele>313.0</ele><time>2026-04-05T15:50:59Z</time></trkpt><trkpt lat="44.66464658627392" lon="7.7385542413289325"><ele>313.0</ele><time>2026-04-05T15:51:00Z</time></trkpt><trkpt lat="44.66501504558016" lon="7.738550294090802"><ele>313.0</ele><time>2026-04-05T15:51:01Z</time></trkpt><trkpt lat="44.66540022087352" lon="7.738546304828058"><ele>313.0</ele><time>2026-04-05T15:51:02Z</time></trkpt><trkpt lat="44.665802869982144" lon="7.738543493796201"><ele>312.5</ele><time>2026-04-05T15:51:03Z</time></trkpt><trkpt lat="44.6662148245677" lon="7.738540617796328"><ele>312.0</ele><time>2026-04-05T15:51:04Z</time></trkpt><trkpt lat="44.66661852921368" lon="7.738536812374604"><ele>311.0</ele><time>2026-04-05T15:51:05Z</time></trkpt><trkpt lat="44.66698179173734" lon="7.738533200634759"><ele>310.0</ele><time>2026-04-05T15:51:06Z</time></trkpt><trkpt lat="44.66733001281086" lon="7.738529737842867"><ele>310.0</ele><time>2026-04-05T15:51:07Z</time></trkpt><trkpt lat="44.66769144120872" lon="7.738515788005426"><ele>310.0</ele><time>2026-04-05T15:51:08Z</time></trkpt><trkpt lat="44.668065011864826" lon="7.738504248689723"><ele>309.5</ele><time>2026-04-05T15:51:09Z</time></trkpt><trkpt lat="44.66844134102141" lon="7.738497390785099"><ele>309.0</ele><time>2026-04-05T15:51:10Z</time></trkpt><trkpt lat="44.668813485713535" lon="7.738495742738916"><ele>308.5</ele><time>2026-04-05T15:51:11Z</time></trkpt><trkpt lat="44.66920719817146" lon="7.73849014234298"><ele>308.0</ele><time>2026-04-05T15:51:12Z</time></trkpt><trkpt lat="44.66963022688851" lon="7.738479835050515"><ele>307.0</ele><time>2026-04-05T15:51:13Z</time></trkpt><trkpt lat="44.670093651943816" lon="7.738467928960524"><ele>307.0</ele><time>2026-04-05T15:51:14Z</time></trkpt><trkpt lat="44.67056986562401" lon="7.738468576875492"><ele>307.0</ele><time>2026-04-05T15:51:15Z</time></trkpt><trkpt lat="44.67105694106711" lon="7.738474665297244"><ele>306.0</ele><time>2026-04-05T15:51:16Z</time></trkpt><trkpt lat="44.671559227135596" lon="7.738480704706252"><ele>305.0</ele><time>2026-04-05T15:51:17Z</time></trkpt><trkpt lat="44.672074054761076" lon="7.738478472723201"><ele>305.0</ele><time>2026-04-05T15:51:18Z</time></trkpt><trkpt lat="44.67260199296268" lon="7.738471919056275"><ele>307.0</ele><time>2026-04-05T15:51:19Z</time></trkpt><trkpt lat="44.67309374691261" lon="7.738461372700582"><ele>307.0</ele><time>2026-04-05T15:51:20Z</time></trkpt><trkpt lat="44.6735304711626" lon="7.7384547971891635"><ele>307.0</ele><time>2026-04-05T15:51:21Z</time></trkpt><trkpt lat="44.67393393569446" lon="7.738448799509653"><ele>306.5</ele><time>2026-04-05T15:51:22Z</time></trkpt><trkpt lat="44.67431440350701" lon="7.738449700771374"><ele>306.0</ele><time>2026-04-05T15:51:23Z</time></trkpt><trkpt lat="44.67466990168405" lon="7.738445878782634"><ele>306.0</ele><time>2026-04-05T15:51:24Z</time></trkpt><trkpt lat="44.67503317484419" lon="7.73844368679156"><ele>306.0</ele><time>2026-04-05T15:51:25Z</time></trkpt><trkpt lat="44.67541374459936" lon="7.738441496173736"><ele>305.5</ele><time>2026-04-05T15:51:26Z</time></trkpt><trkpt lat="44.67580590290264" lon="7.7384437389902345"><ele>305.0</ele><time>2026-04-05T15:51:27Z</time></trkpt><trkpt lat="44.676188538648475" lon="7.738451460155554"><ele>305.0</ele><time>2026-04-05T15:51:28Z</time></trkpt><trkpt lat="44.67657806837969" lon="7.738467531378091"><ele>305.0</ele><time>2026-04-05T15:51:29Z</time></trkpt><trkpt lat="44.67696817847101" lon="7.738487755743605"><ele>303.5</ele><time>2026-04-05T15:51:30Z</time></trkpt><trkpt lat="44.67732540504581" lon="7.738512729765755"><ele>302.0</ele><time>2026-04-05T15:51:31Z</time></trkpt><trkpt lat="44.67765309364185" lon="7.738530937241404"><ele>302.5</ele><time>2026-04-05T15:51:32Z</time></trkpt><trkpt lat="44.67796156215462" lon="7.738552574747989"><ele>303.0</ele><time>2026-04-05T15:51:33Z</time></trkpt><trkpt lat="44.678257387509554" lon="7.738571566490826"><ele>303.0</ele><time>2026-04-05T15:51:34Z</time></trkpt><trkpt lat="44.67853878324789" lon="7.738589793666078"><ele>303.0</ele><time>2026-04-05T15:51:35Z</time></trkpt><trkpt lat="44.67882208418321" lon="7.738602271055346"><ele>303.5</ele><time>2026-04-05T15:51:36Z</time></trkpt><trkpt lat="44.6791100591363" lon="7.738619089414658"><ele>304.0</ele><time>2026-04-05T15:51:37Z</time></trkpt><trkpt lat="44.6793943851611" lon="7.738642608932541"><ele>303.0</ele><time>2026-04-05T15:51:38Z</time></trkpt><trkpt lat="44.679678206194204" lon="7.738660814314916"><ele>302.0</ele><time>2026-04-05T15:51:39.001Z</time></trkpt><trkpt lat="44.679964623444036" lon="7.738678084299437"><ele>302.0</ele><time>2026-04-05T15:51:40.001Z</time></trkpt><trkpt lat="44.68025194143158" lon="7.738696171505825"><ele>302.0</ele><time>2026-04-05T15:51:41.001Z</time></trkpt><trkpt lat="44.68054120520387" lon="7.738714825063701"><ele>301.5</ele><time>2026-04-05T15:51:42.001Z</time></trkpt><trkpt lat="44.68081719284572" lon="7.738729670104764"><ele>301.0</ele><time>2026-04-05T15:51:43.001Z</time></trkpt><trkpt lat="44.681066113152795" lon="7.738743436936528"><ele>302.0</ele><time>2026-04-05T15:51:44.001Z</time></trkpt><trkpt lat="44.6813131369222" lon="7.738759048974619"><ele>303.0</ele><time>2026-04-05T15:51:45.001Z</time></trkpt><trkpt lat="44.68157562995982" lon="7.7387719824504755"><ele>303.0</ele><time>2026-04-05T15:51:46.001Z</time></trkpt><trkpt lat="44.68184851199587" lon="7.738789383214821"><ele>303.0</ele><time>2026-04-05T15:51:47.001Z</time></trkpt><trkpt lat="44.68212174360874" lon="7.738803054367626"><ele>304.0</ele><time>2026-04-05T15:51:48.001Z</time></trkpt><trkpt lat="44.68239963220167" lon="7.738818069204297"><ele>305.0</ele><time>2026-04-05T15:51:49.001Z</time></trkpt><trkpt lat="44.682672255629754" lon="7.738834332964396"><ele>304.5</ele><time>2026-04-05T15:51:50.001Z</time></trkpt><trkpt lat="44.6829437202607" lon="7.738852702293685"><ele>304.0</ele><time>2026-04-05T15:51:51.001Z</time></trkpt><trkpt lat="44.683196197929405" lon="7.738869328656661"><ele>304.0</ele><time>2026-04-05T15:51:52.001Z</time></trkpt><trkpt lat="44.68343381541063" lon="7.738883861306818"><ele>304.0</ele><time>2026-04-05T15:51:53.001Z</time></trkpt><trkpt lat="44.68366543708362" lon="7.738899410341692"><ele>303.5</ele><time>2026-04-05T15:51:54.001Z</time></trkpt><trkpt lat="44.683911326853966" lon="7.738911299799569"><ele>303.0</ele><time>2026-04-05T15:51:55.001Z</time></trkpt><trkpt lat="44.68419411344845" lon="7.738946599344081"><ele>302.5</ele><time>2026-04-05T15:51:56.001Z</time></trkpt><trkpt lat="44.68451907900381" lon="7.738966676769164"><ele>302.0</ele><time>2026-04-05T15:51:57.001Z</time></trkpt><trkpt lat="44.68484453066505" lon="7.738986500042331"><ele>302.0</ele><time>2026-04-05T15:51:58.001Z</time></trkpt><trkpt lat="44.6851355020397" lon="7.739004268442287"><ele>302.0</ele><time>2026-04-05T15:51:59.001Z</time></trkpt><trkpt lat="44.685397189329066" lon="7.739020758441537"><ele>301.5</ele><time>2026-04-05T15:52:00.001Z</time></trkpt><trkpt lat="44.685674590054006" lon="7.739038238579739"><ele>301.0</ele><time>2026-04-05T15:52:01.001Z</time></trkpt><trkpt lat="44.685970067462996" lon="7.739056199087189"><ele>301.5</ele><time>2026-04-05T15:52:02.001Z</time></trkpt><trkpt lat="44.68626764879692" lon="7.73907383261479"><ele>302.0</ele><time>2026-04-05T15:52:03Z</time></trkpt><trkpt lat="44.68655650865062" lon="7.739092976829349"><ele>302.0</ele><time>2026-04-05T15:52:04Z</time></trkpt><trkpt lat="44.68684867574924" lon="7.739112050227795"><ele>302.0</ele><time>2026-04-05T15:52:05Z</time></trkpt><trkpt lat="44.68717078094012" lon="7.739131546700907"><ele>302.0</ele><time>2026-04-05T15:52:06Z</time></trkpt><trkpt lat="44.68751731318163" lon="7.739152521699548"><ele>302.0</ele><time>2026-04-05T15:52:07Z</time></trkpt><trkpt lat="44.68788970345444" lon="7.739175061839998"><ele>302.0</ele><time>2026-04-05T15:52:08Z</time></trkpt><trkpt lat="44.68829416345897" lon="7.739199545027762"><ele>302.0</ele><time>2026-04-05T15:52:09Z</time></trkpt><trkpt lat="44.68871066170036" lon="7.73922475497707"><ele>302.0</ele><time>2026-04-05T15:52:10Z</time></trkpt><trkpt lat="44.68914230189413" lon="7.739241897676786"><ele>302.0</ele><time>2026-04-05T15:52:11Z</time></trkpt><trkpt lat="44.68957419343288" lon="7.739273318361313"><ele>302.0</ele><time>2026-04-05T15:52:12Z</time></trkpt><trkpt lat="44.68998037076113" lon="7.739286388855554"><ele>302.0</ele><time>2026-04-05T15:52:13Z</time></trkpt><trkpt lat="44.69035343776812" lon="7.7393086288357065"><ele>301.5</ele><time>2026-04-05T15:52:14Z</time></trkpt><trkpt lat="44.69071317739479" lon="7.73933016362396"><ele>301.0</ele><time>2026-04-05T15:52:15Z</time></trkpt><trkpt lat="44.69107766109031" lon="7.739353935376237"><ele>301.0</ele><time>2026-04-05T15:52:16Z</time></trkpt><trkpt lat="44.691445387842094" lon="7.739381048528269"><ele>301.0</ele><time>2026-04-05T15:52:17Z</time></trkpt><trkpt lat="44.691804727836356" lon="7.7394073950030755"><ele>301.0</ele><time>2026-04-05T15:52:18Z</time></trkpt><trkpt lat="44.692137069107545" lon="7.739422542482237"><ele>301.0</ele><time>2026-04-05T15:52:19Z</time></trkpt><trkpt lat="44.692467015744235" lon="7.739437122541146"><ele>300.5</ele><time>2026-04-05T15:52:20Z</time></trkpt><trkpt lat="44.69277073421647" lon="7.739453784186246"><ele>300.0</ele><time>2026-04-05T15:52:21Z</time></trkpt><trkpt lat="44.693055219325366" lon="7.739470482725373"><ele>300.0</ele><time>2026-04-05T15:52:22Z</time></trkpt><trkpt lat="44.69331981199246" lon="7.739485501724149"><ele>300.0</ele><time>2026-04-05T15:52:23Z</time></trkpt><trkpt lat="44.69356572659547" lon="7.739500916738634"><ele>299.0</ele><time>2026-04-05T15:52:24Z</time></trkpt><trkpt lat="44.693797584024935" lon="7.739514303106172"><ele>298.0</ele><time>2026-04-05T15:52:25Z</time></trkpt><trkpt lat="44.69402970619252" lon="7.739551003202631"><ele>298.0</ele><time>2026-04-05T15:52:26Z</time></trkpt><trkpt lat="44.694282485779624" lon="7.73956703077687"><ele>298.0</ele><time>2026-04-05T15:52:27Z</time></trkpt><trkpt lat="44.6945459946892" lon="7.739561469188493"><ele>298.5</ele><time>2026-04-05T15:52:28Z</time></trkpt><trkpt lat="44.694809673595785" lon="7.739576923711818"><ele>299.0</ele><time>2026-04-05T15:52:29Z</time></trkpt><trkpt lat="44.695091204387374" lon="7.739596128428382"><ele>298.0</ele><time>2026-04-05T15:52:30Z</time></trkpt><trkpt lat="44.69537550161731" lon="7.739616867351861"><ele>297.0</ele><time>2026-04-05T15:52:31Z</time></trkpt><trkpt lat="44.69567979689587" lon="7.739633280400706"><ele>297.0</ele><time>2026-04-05T15:52:32Z</time></trkpt><trkpt lat="44.6959875671989" lon="7.739651100737345"><ele>297.0</ele><time>2026-04-05T15:52:33Z</time></trkpt><trkpt lat="44.696302579891174" lon="7.739672522185118"><ele>297.0</ele><time>2026-04-05T15:52:34Z</time></trkpt><trkpt lat="44.69661863325499" lon="7.739691666988991"><ele>297.0</ele><time>2026-04-05T15:52:35Z</time></trkpt><trkpt lat="44.69694131103675" lon="7.739712481259277"><ele>297.0</ele><time>2026-04-05T15:52:36Z</time></trkpt><trkpt lat="44.69726775325356" lon="7.739729433617953"><ele>297.0</ele><time>2026-04-05T15:52:37Z</time></trkpt><trkpt lat="44.69759856652105" lon="7.739750512967161"><ele>296.5</ele><time>2026-04-05T15:52:38Z</time></trkpt><trkpt lat="44.6979258176966" lon="7.739770402304977"><ele>296.0</ele><time>2026-04-05T15:52:39Z</time></trkpt><trkpt lat="44.698233972327934" lon="7.7397880584329455"><ele>296.0</ele><time>2026-04-05T15:52:40Z</time></trkpt><trkpt lat="44.69854024618316" lon="7.739806296156729"><ele>296.0</ele><time>2026-04-05T15:52:41Z</time></trkpt><trkpt lat="44.69884710129806" lon="7.739825184051592"><ele>296.0</ele><time>2026-04-05T15:52:42Z</time></trkpt><trkpt lat="44.699154136438395" lon="7.739843941862055"><ele>296.0</ele><time>2026-04-05T15:52:43Z</time></trkpt><trkpt lat="44.699482712243274" lon="7.7398839709760345"><ele>296.0</ele><time>2026-04-05T15:52:44Z</time></trkpt><trkpt lat="44.69983660579723" lon="7.7399036574660585"><ele>296.0</ele><time>2026-04-05T15:52:45Z</time></trkpt><trkpt lat="44.70019167776305" lon="7.739921814768984"><ele>296.0</ele><time>2026-04-05T15:52:46Z</time></trkpt><trkpt lat="44.70053310659167" lon="7.739926709743618"><ele>296.0</ele><time>2026-04-05T15:52:47Z</time></trkpt><trkpt lat="44.70086230246381" lon="7.739960293542882"><ele>294.5</ele><time>2026-04-05T15:52:48Z</time></trkpt><trkpt lat="44.701183289534555" lon="7.739982162359707"><ele>293.0</ele><time>2026-04-05T15:52:49Z</time></trkpt><trkpt lat="44.701508271032985" lon="7.740000877819341"><ele>293.0</ele><time>2026-04-05T15:52:50Z</time></trkpt><trkpt lat="44.701828795206076" lon="7.740018868418758"><ele>293.0</ele><time>2026-04-05T15:52:51Z</time></trkpt><trkpt lat="44.70214362463451" lon="7.740038170642769"><ele>293.0</ele><time>2026-04-05T15:52:52Z</time></trkpt><trkpt lat="44.70245003654068" lon="7.740058729545053"><ele>293.0</ele><time>2026-04-05T15:52:53Z</time></trkpt><trkpt lat="44.70275886338648" lon="7.740083445781639"><ele>293.5</ele><time>2026-04-05T15:52:54Z</time></trkpt><trkpt lat="44.70307404240188" lon="7.740104411821582"><ele>294.0</ele><time>2026-04-05T15:52:55Z</time></trkpt><trkpt lat="44.70339441369341" lon="7.740118247363251"><ele>293.0</ele><time>2026-04-05T15:52:56Z</time></trkpt><trkpt lat="44.70371969834709" lon="7.740135801696729"><ele>292.0</ele><time>2026-04-05T15:52:57Z</time></trkpt><trkpt lat="44.704049921146606" lon="7.740158313018782"><ele>292.0</ele><time>2026-04-05T15:52:58Z</time></trkpt><trkpt lat="44.70437794194977" lon="7.740180270760574"><ele>292.0</ele><time>2026-04-05T15:52:59Z</time></trkpt><trkpt lat="44.70470100258234" lon="7.740199442051466"><ele>292.0</ele><time>2026-04-05T15:53:00Z</time></trkpt><trkpt lat="44.70499999005456" lon="7.740218479274433"><ele>292.0</ele><time>2026-04-05T15:53:01Z</time></trkpt><trkpt lat="44.70527857458904" lon="7.740233282082012"><ele>291.5</ele><time>2026-04-05T15:53:02Z</time></trkpt><trkpt lat="44.70554684260063" lon="7.740245716064854"><ele>291.0</ele><time>2026-04-05T15:53:03Z</time></trkpt><trkpt lat="44.70581147219053" lon="7.7402659832190555"><ele>289.5</ele><time>2026-04-05T15:53:04Z</time></trkpt><trkpt lat="44.706081437328386" lon="7.740290086910085"><ele>288.0</ele><time>2026-04-05T15:53:05Z</time></trkpt><trkpt lat="44.706341993346385" lon="7.740308200456771"><ele>288.0</ele><time>2026-04-05T15:53:06Z</time></trkpt><trkpt lat="44.706591333859635" lon="7.7403206160230935"><ele>288.0</ele><time>2026-04-05T15:53:07Z</time></trkpt><trkpt lat="44.70683446062369" lon="7.740331411307643"><ele>287.5</ele><time>2026-04-05T15:53:08Z</time></trkpt><trkpt lat="44.70708294872418" lon="7.740345628833129"><ele>287.0</ele><time>2026-04-05T15:53:09Z</time></trkpt><trkpt lat="44.707341092102986" lon="7.740359738583787"><ele>287.0</ele><time>2026-04-05T15:53:10Z</time></trkpt><trkpt lat="44.70759916675053" lon="7.740372643484009"><ele>287.0</ele><time>2026-04-05T15:53:11Z</time></trkpt><trkpt lat="44.70785706440551" lon="7.740388555837567"><ele>287.5</ele><time>2026-04-05T15:53:12Z</time></trkpt><trkpt lat="44.70811309431567" lon="7.7404010420797205"><ele>288.0</ele><time>2026-04-05T15:53:13Z</time></trkpt><trkpt lat="44.70837300453097" lon="7.740396930720472"><ele>288.5</ele><time>2026-04-05T15:53:14Z</time></trkpt><trkpt lat="44.70863999647311" lon="7.740369806118937"><ele>289.0</ele><time>2026-04-05T15:53:15Z</time></trkpt><trkpt lat="44.70890824347049" lon="7.740330450814366"><ele>289.0</ele><time>2026-04-05T15:53:16Z</time></trkpt><trkpt lat="44.70917984339875" lon="7.740282471739046"><ele>289.0</ele><time>2026-04-05T15:53:17Z</time></trkpt><trkpt lat="44.709438687078084" lon="7.740225911336127"><ele>284.5</ele><time>2026-04-05T15:53:18Z</time></trkpt><trkpt lat="44.709691277391755" lon="7.740157482389563"><ele>280.0</ele><time>2026-04-05T15:53:19Z</time></trkpt><trkpt lat="44.709937430737874" lon="7.740074659032387"><ele>280.0</ele><time>2026-04-05T15:53:20Z</time></trkpt><trkpt lat="44.71018058964435" lon="7.739977919167659"><ele>280.0</ele><time>2026-04-05T15:53:21Z</time></trkpt><trkpt lat="44.710418608269705" lon="7.739880570803419"><ele>278.5</ele><time>2026-04-05T15:53:22Z</time></trkpt><trkpt lat="44.71064381868198" lon="7.73978977407233"><ele>277.0</ele><time>2026-04-05T15:53:23Z</time></trkpt><trkpt lat="44.71086929747151" lon="7.739702597282216"><ele>277.5</ele><time>2026-04-05T15:53:24Z</time></trkpt><trkpt lat="44.71110103564319" lon="7.7396104370478165"><ele>278.0</ele><time>2026-04-05T15:53:25Z</time></trkpt><trkpt lat="44.71133343310161" lon="7.739515184756048"><ele>278.0</ele><time>2026-04-05T15:53:26Z</time></trkpt><trkpt lat="44.711565526404314" lon="7.73942436273854"><ele>278.0</ele><time>2026-04-05T15:53:27Z</time></trkpt><trkpt lat="44.71179400128538" lon="7.739332081329239"><ele>277.0</ele><time>2026-04-05T15:53:28Z</time></trkpt><trkpt lat="44.71202484311581" lon="7.739242808208839"><ele>276.0</ele><time>2026-04-05T15:53:29Z</time></trkpt><trkpt lat="44.712246171541615" lon="7.739158084458316"><ele>276.0</ele><time>2026-04-05T15:53:30Z</time></trkpt><trkpt lat="44.712469071652585" lon="7.739072138078701"><ele>276.0</ele><time>2026-04-05T15:53:31Z</time></trkpt><trkpt lat="44.71269108303831" lon="7.738984484775129"><ele>276.0</ele><time>2026-04-05T15:53:32Z</time></trkpt><trkpt lat="44.71291794853336" lon="7.738895478438155"><ele>276.0</ele><time>2026-04-05T15:53:33Z</time></trkpt><trkpt lat="44.7131465475215" lon="7.738808390115687"><ele>276.0</ele><time>2026-04-05T15:53:34Z</time></trkpt><trkpt lat="44.7133862091775" lon="7.738714054949223"><ele>276.0</ele><time>2026-04-05T15:53:35Z</time></trkpt><trkpt lat="44.71362961879674" lon="7.738618515976536"><ele>276.0</ele><time>2026-04-05T15:53:36Z</time></trkpt><trkpt lat="44.713883441417586" lon="7.738513700434585"><ele>276.0</ele><time>2026-04-05T15:53:37Z</time></trkpt><trkpt lat="44.71417363250146" lon="7.738422732775191"><ele>275.5</ele><time>2026-04-05T15:53:38Z</time></trkpt><trkpt lat="44.71448341716226" lon="7.738300954914073"><ele>275.0</ele><time>2026-04-05T15:53:39Z</time></trkpt><trkpt lat="44.71480150065506" lon="7.738175914734198"><ele>275.0</ele><time>2026-04-05T15:53:40Z</time></trkpt><trkpt lat="44.71512122492616" lon="7.738036621035381"><ele>275.0</ele><time>2026-04-05T15:53:41Z</time></trkpt><trkpt lat="44.71545689872438" lon="7.737919113515488"><ele>277.0</ele><time>2026-04-05T15:53:42Z</time></trkpt><trkpt lat="44.7157895944393" lon="7.7377824556124155"><ele>279.0</ele><time>2026-04-05T15:53:43Z</time></trkpt><trkpt lat="44.71613522869794" lon="7.7376425393480535"><ele>279.0</ele><time>2026-04-05T15:53:44Z</time></trkpt><trkpt lat="44.71648346414025" lon="7.737506265309861"><ele>279.0</ele><time>2026-04-05T15:53:45.001Z</time></trkpt><trkpt lat="44.71683674154132" lon="7.737365287340996"><ele>277.5</ele><time>2026-04-05T15:53:46.001Z</time></trkpt><trkpt lat="44.717193629911634" lon="7.737222966349801"><ele>276.0</ele><time>2026-04-05T15:53:47.001Z</time></trkpt><trkpt lat="44.71755584110126" lon="7.737087193758508"><ele>275.0</ele><time>2026-04-05T15:53:48.001Z</time></trkpt><trkpt lat="44.71791289622056" lon="7.736943950681301"><ele>274.0</ele><time>2026-04-05T15:53:49.001Z</time></trkpt><trkpt lat="44.71823559752268" lon="7.736823662673884"><ele>273.5</ele><time>2026-04-05T15:53:50.001Z</time></trkpt><trkpt lat="44.71853688324691" lon="7.736705556545549"><ele>273.0</ele><time>2026-04-05T15:53:51.001Z</time></trkpt><trkpt lat="44.71884548346383" lon="7.736580397765752"><ele>273.0</ele><time>2026-04-05T15:53:52.001Z</time></trkpt><trkpt lat="44.71916312402879" lon="7.736457988072344"><ele>273.0</ele><time>2026-04-05T15:53:53.001Z</time></trkpt><trkpt lat="44.71948186416037" lon="7.7363328496422445"><ele>272.5</ele><time>2026-04-05T15:53:54.001Z</time></trkpt><trkpt lat="44.71978132503638" lon="7.736212609129318"><ele>272.0</ele><time>2026-04-05T15:53:55.001Z</time></trkpt><trkpt lat="44.72005503740386" lon="7.736106652732845"><ele>272.5</ele><time>2026-04-05T15:53:56Z</time></trkpt><trkpt lat="44.72031041389074" lon="7.736007265416776"><ele>273.0</ele><time>2026-04-05T15:53:57Z</time></trkpt><trkpt lat="44.72055569987786" lon="7.735910999593529"><ele>273.0</ele><time>2026-04-05T15:53:58Z</time></trkpt><trkpt lat="44.72078779857717" lon="7.735817360910357"><ele>273.0</ele><time>2026-04-05T15:53:59Z</time></trkpt><trkpt lat="44.72101507003145" lon="7.735732384694747"><ele>273.0</ele><time>2026-04-05T15:54:00Z</time></trkpt><trkpt lat="44.721243040763795" lon="7.735644235452464"><ele>273.0</ele><time>2026-04-05T15:54:01Z</time></trkpt><trkpt lat="44.721466933520546" lon="7.735554886783034"><ele>273.0</ele><time>2026-04-05T15:54:02Z</time></trkpt><trkpt lat="44.72168532928849" lon="7.735462858431208"><ele>273.0</ele><time>2026-04-05T15:54:03Z</time></trkpt><trkpt lat="44.72188891986054" lon="7.735383467315193"><ele>273.0</ele><time>2026-04-05T15:54:04Z</time></trkpt><trkpt lat="44.72208099253208" lon="7.7353124840845435"><ele>272.6666666666667</ele><time>2026-04-05T15:54:05Z</time></trkpt><trkpt lat="44.72228717036177" lon="7.7352328619693225"><ele>272.33333333333337</ele><time>2026-04-05T15:54:06Z</time></trkpt><trkpt lat="44.72249671599019" lon="7.735158148637425"><ele>272.0</ele><time>2026-04-05T15:54:07Z</time></trkpt><trkpt lat="44.72269652069295" lon="7.7350880332026835"><ele>272.33333333333337</ele><time>2026-04-05T15:54:08Z</time></trkpt><trkpt lat="44.72289836074495" lon="7.735018091885575"><ele>272.6666666666667</ele><time>2026-04-05T15:54:09Z</time></trkpt><trkpt lat="44.723102559690325" lon="7.734954150301361"><ele>273.0</ele><time>2026-04-05T15:54:10Z</time></trkpt><trkpt lat="44.72331105639559" lon="7.734900010461827"><ele>273.0</ele><time>2026-04-05T15:54:11Z</time></trkpt><trkpt lat="44.72351762128571" lon="7.734846834070499"><ele>273.0</ele><time>2026-04-05T15:54:12Z</time></trkpt><trkpt lat="44.723710132410524" lon="7.734797635481655"><ele>273.0</ele><time>2026-04-05T15:54:13Z</time></trkpt><trkpt lat="44.723892298045" lon="7.734756193094951"><ele>273.0</ele><time>2026-04-05T15:54:14Z</time></trkpt><trkpt lat="44.72408043971656" lon="7.734714582547382"><ele>273.0</ele><time>2026-04-05T15:54:15Z</time></trkpt><trkpt lat="44.72426679459839" lon="7.734683222817455"><ele>273.0</ele><time>2026-04-05T15:54:16Z</time></trkpt><trkpt lat="44.72444449254323" lon="7.734654222302669"><ele>273.0</ele><time>2026-04-05T15:54:17Z</time></trkpt><trkpt lat="44.72461276296539" lon="7.7346281580355924"><ele>273.0</ele><time>2026-04-05T15:54:18Z</time></trkpt><trkpt lat="44.72477897208417" lon="7.7346047084834595"><ele>273.0</ele><time>2026-04-05T15:54:19Z</time></trkpt><trkpt lat="44.7249429717363" lon="7.734575893336454"><ele>273.0</ele><time>2026-04-05T15:54:20Z</time></trkpt><trkpt lat="44.72508941269851" lon="7.734548602555098"><ele>273.0</ele><time>2026-04-05T15:54:21Z</time></trkpt><trkpt lat="44.72522463529268" lon="7.734525556896573"><ele>273.0</ele><time>2026-04-05T15:54:22Z</time></trkpt><trkpt lat="44.72534746352344" lon="7.73450352185632"><ele>273.0</ele><time>2026-04-05T15:54:23Z</time></trkpt><trkpt lat="44.7254535935783" lon="7.7344836815167035"><ele>272.6</ele><time>2026-04-05T15:54:24Z</time></trkpt><trkpt lat="44.725549877025685" lon="7.734472618393858"><ele>272.20000000000005</ele><time>2026-04-05T15:54:25Z</time></trkpt><trkpt lat="44.72563705152254" lon="7.734476816269381"><ele>271.8</ele><time>2026-04-05T15:54:26Z</time></trkpt><trkpt lat="44.7257378989398" lon="7.73453505143354"><ele>271.40000000000003</ele><time>2026-04-05T15:54:28Z</time></trkpt><trkpt lat="44.72580250092496" lon="7.734541333352492"><ele>271.0</ele><time>2026-04-05T15:54:31Z</time></trkpt><trkpt lat="44.72591766815447" lon="7.734623160192886"><ele>271.0</ele><time>2026-04-05T15:54:33Z</time></trkpt><trkpt lat="44.72599283312479" lon="7.734652248038162"><ele>271.0</ele><time>2026-04-05T15:54:34Z</time></trkpt><trkpt lat="44.726060941261444" lon="7.7346369390350675"><ele>271.0</ele><time>2026-04-05T15:54:35Z</time></trkpt><trkpt lat="44.726135283063655" lon="7.7346413683620066"><ele>271.0</ele><time>2026-04-05T15:54:36Z</time></trkpt><trkpt lat="44.72620181709892" lon="7.73451645473403"><ele>271.0</ele><time>2026-04-05T15:54:37Z</time></trkpt><trkpt lat="44.72624870090409" lon="7.734398919920937"><ele>271.0</ele><time>2026-04-05T15:54:38Z</time></trkpt><trkpt lat="44.72635460566095" lon="7.734332835230985"><ele>271.25</ele><time>2026-04-05T15:54:39Z</time></trkpt><trkpt lat="44.72645882736398" lon="7.734290835194958"><ele>271.5</ele><time>2026-04-05T15:54:40Z</time></trkpt><trkpt lat="44.72657972273294" lon="7.734282182328152"><ele>271.75</ele><time>2026-04-05T15:54:41Z</time></trkpt><trkpt lat="44.7267116648036" lon="7.734273492853701"><ele>272.0</ele><time>2026-04-05T15:54:42Z</time></trkpt><trkpt lat="44.72686130259844" lon="7.734246910492886"><ele>271.0</ele><time>2026-04-05T15:54:43Z</time></trkpt><trkpt lat="44.72701731445676" lon="7.734221267074322"><ele>270.0</ele><time>2026-04-05T15:54:44Z</time></trkpt><trkpt lat="44.72716660944211" lon="7.734192959285798"><ele>269.0</ele><time>2026-04-05T15:54:45Z</time></trkpt><trkpt lat="44.72732621135552" lon="7.734167543935248"><ele>269.0</ele><time>2026-04-05T15:54:46Z</time></trkpt><trkpt lat="44.72749427905539" lon="7.734136735806209"><ele>269.0</ele><time>2026-04-05T15:54:47Z</time></trkpt><trkpt lat="44.7276693902466" lon="7.734103582070542"><ele>269.0</ele><time>2026-04-05T15:54:48Z</time></trkpt><trkpt lat="44.72785431250161" lon="7.734076523953774"><ele>269.33333333333337</ele><time>2026-04-05T15:54:49Z</time></trkpt><trkpt lat="44.72804977693447" lon="7.734039076388237"><ele>269.6666666666667</ele><time>2026-04-05T15:54:50Z</time></trkpt><trkpt lat="44.72825446455652" lon="7.733999228519173"><ele>270.0</ele><time>2026-04-05T15:54:51Z</time></trkpt><trkpt lat="44.72846653083622" lon="7.733962040854135"><ele>270.3333333333333</ele><time>2026-04-05T15:54:52Z</time></trkpt><trkpt lat="44.728683955455175" lon="7.733926835729449"><ele>270.66666666666663</ele><time>2026-04-05T15:54:53Z</time></trkpt><trkpt lat="44.728897686433974" lon="7.733883876196325"><ele>271.0</ele><time>2026-04-05T15:54:54Z</time></trkpt><trkpt lat="44.72911617570139" lon="7.733843824239277"><ele>271.0</ele><time>2026-04-05T15:54:55Z</time></trkpt><trkpt lat="44.72933773047045" lon="7.733805433570005"><ele>271.0</ele><time>2026-04-05T15:54:56Z</time></trkpt><trkpt lat="44.729560809068914" lon="7.733769509718661"><ele>271.0</ele><time>2026-04-05T15:54:57Z</time></trkpt><trkpt lat="44.72978249982526" lon="7.733732043531259"><ele>270.3333333333333</ele><time>2026-04-05T15:54:58Z</time></trkpt><trkpt lat="44.73000282094144" lon="7.733695383783729"><ele>269.6666666666667</ele><time>2026-04-05T15:54:59Z</time></trkpt><trkpt lat="44.730224610691295" lon="7.733655586768077"><ele>269.0</ele><time>2026-04-05T15:55:00Z</time></trkpt><trkpt lat="44.7304404210069" lon="7.7336180462628015"><ele>269.0</ele><time>2026-04-05T15:55:01Z</time></trkpt><trkpt lat="44.730643419134" lon="7.733588346693697"><ele>269.0</ele><time>2026-04-05T15:55:02Z</time></trkpt><trkpt lat="44.730853760315334" lon="7.7335453035748385"><ele>269.0</ele><time>2026-04-05T15:55:03Z</time></trkpt><trkpt lat="44.73107220515368" lon="7.733508549791042"><ele>270.0</ele><time>2026-04-05T15:55:04Z</time></trkpt><trkpt lat="44.73129088176832" lon="7.733472108081482"><ele>271.0</ele><time>2026-04-05T15:55:05Z</time></trkpt><trkpt lat="44.731508954451186" lon="7.733434806120705"><ele>272.0</ele><time>2026-04-05T15:55:06Z</time></trkpt><trkpt lat="44.73173190000774" lon="7.7333933002549955"><ele>271.6666666666667</ele><time>2026-04-05T15:55:07Z</time></trkpt><trkpt lat="44.73195452073385" lon="7.733355158091179"><ele>271.3333333333333</ele><time>2026-04-05T15:55:08Z</time></trkpt><trkpt lat="44.73217503793225" lon="7.733316538832371"><ele>271.0</ele><time>2026-04-05T15:55:09Z</time></trkpt><trkpt lat="44.73240733816567" lon="7.73327806788092"><ele>271.0</ele><time>2026-04-05T15:55:10Z</time></trkpt><trkpt lat="44.73263028552622" lon="7.733238499593932"><ele>271.0</ele><time>2026-04-05T15:55:11Z</time></trkpt><trkpt lat="44.73285376334647" lon="7.733222446788817"><ele>271.0</ele><time>2026-04-05T15:55:12Z</time></trkpt><trkpt lat="44.73307738091651" lon="7.733184089260428"><ele>269.5</ele><time>2026-04-05T15:55:13Z</time></trkpt><trkpt lat="44.73331056438738" lon="7.733122958771708"><ele>268.0</ele><time>2026-04-05T15:55:14Z</time></trkpt><trkpt lat="44.73354556141445" lon="7.733081699668634"><ele>268.5</ele><time>2026-04-05T15:55:15Z</time></trkpt><trkpt lat="44.73378358834674" lon="7.73303667328976"><ele>269.0</ele><time>2026-04-05T15:55:16Z</time></trkpt><trkpt lat="44.7340478888079" lon="7.733014850968071"><ele>269.0</ele><time>2026-04-05T15:55:17Z</time></trkpt><trkpt lat="44.73432754648865" lon="7.732967625307874"><ele>269.0</ele><time>2026-04-05T15:55:18Z</time></trkpt><trkpt lat="44.73462557637022" lon="7.732916867629452"><ele>269.5</ele><time>2026-04-05T15:55:19Z</time></trkpt><trkpt lat="44.734930856042546" lon="7.732846547554507"><ele>270.0</ele><time>2026-04-05T15:55:20Z</time></trkpt><trkpt lat="44.73527405710521" lon="7.732803087979739"><ele>269.0</ele><time>2026-04-05T15:55:21Z</time></trkpt><trkpt lat="44.73564774405648" lon="7.732736277363807"><ele>268.0</ele><time>2026-04-05T15:55:22Z</time></trkpt><trkpt lat="44.7360503091163" lon="7.732662483788999"><ele>268.0</ele><time>2026-04-05T15:55:23Z</time></trkpt><trkpt lat="44.73649966117821" lon="7.73258501147061"><ele>266.0</ele><time>2026-04-05T15:55:24Z</time></trkpt><trkpt lat="44.73695385259556" lon="7.732501996769704"><ele>266.0</ele><time>2026-04-05T15:55:25Z</time></trkpt><trkpt lat="44.737423331546935" lon="7.732420472385952"><ele>266.0</ele><time>2026-04-05T15:55:26Z</time></trkpt><trkpt lat="44.737901610418795" lon="7.732340774000222"><ele>266.0</ele><time>2026-04-05T15:55:27Z</time></trkpt><trkpt lat="44.73838402103877" lon="7.732256890810043"><ele>265.0</ele><time>2026-04-05T15:55:28Z</time></trkpt><trkpt lat="44.738861963406215" lon="7.732172215739754"><ele>265.0</ele><time>2026-04-05T15:55:29Z</time></trkpt><trkpt lat="44.739286079976765" lon="7.732093899244442"><ele>265.0</ele><time>2026-04-05T15:55:30Z</time></trkpt><trkpt lat="44.739673402072825" lon="7.732026475447459"><ele>265.0</ele><time>2026-04-05T15:55:31Z</time></trkpt><trkpt lat="44.74003494107099" lon="7.731967984395953"><ele>265.0</ele><time>2026-04-05T15:55:32Z</time></trkpt><trkpt lat="44.74038337389523" lon="7.731908113932735"><ele>265.5</ele><time>2026-04-05T15:55:33Z</time></trkpt><trkpt lat="44.74072463066289" lon="7.731846496383796"><ele>266.0</ele><time>2026-04-05T15:55:34Z</time></trkpt><trkpt lat="44.741045179860414" lon="7.731790271902606"><ele>266.0</ele><time>2026-04-05T15:55:35Z</time></trkpt><trkpt lat="44.7413419858974" lon="7.731743339446147"><ele>266.0</ele><time>2026-04-05T15:55:36Z</time></trkpt><trkpt lat="44.74162496290868" lon="7.731699928133814"><ele>267.0</ele><time>2026-04-05T15:55:37Z</time></trkpt><trkpt lat="44.74189626502561" lon="7.731663504505855"><ele>268.0</ele><time>2026-04-05T15:55:38Z</time></trkpt><trkpt lat="44.74216842611035" lon="7.731666608989395"><ele>268.0</ele><time>2026-04-05T15:55:39Z</time></trkpt><trkpt lat="44.74242712813815" lon="7.731667284875416"><ele>268.0</ele><time>2026-04-05T15:55:40Z</time></trkpt><trkpt lat="44.74266852509734" lon="7.731656459116495"><ele>267.0</ele><time>2026-04-05T15:55:41Z</time></trkpt><trkpt lat="44.74289070818616" lon="7.731700086350394"><ele>266.0</ele><time>2026-04-05T15:55:42Z</time></trkpt><trkpt lat="44.743122893632744" lon="7.731735041417452"><ele>266.0</ele><time>2026-04-05T15:55:43Z</time></trkpt><trkpt lat="44.743386432613704" lon="7.731785455878625"><ele>266.0</ele><time>2026-04-05T15:55:44Z</time></trkpt><trkpt lat="44.74366004550858" lon="7.731841081218424"><ele>266.5</ele><time>2026-04-05T15:55:45Z</time></trkpt><trkpt lat="44.7439356261721" lon="7.731898372933943"><ele>267.0</ele><time>2026-04-05T15:55:46Z</time></trkpt><trkpt lat="44.74421216305784" lon="7.731955863505642"><ele>266.5</ele><time>2026-04-05T15:55:47Z</time></trkpt><trkpt lat="44.74448729194897" lon="7.7320106996584546"><ele>266.0</ele><time>2026-04-05T15:55:48Z</time></trkpt><trkpt lat="44.744775434434644" lon="7.7320668230550265"><ele>266.0</ele><time>2026-04-05T15:55:49Z</time></trkpt><trkpt lat="44.745075618550175" lon="7.732105364086268"><ele>266.0</ele><time>2026-04-05T15:55:50.001Z</time></trkpt><trkpt lat="44.74537487321488" lon="7.732180252712583"><ele>265.5</ele><time>2026-04-05T15:55:51.001Z</time></trkpt><trkpt lat="44.74570529721948" lon="7.732246694375521"><ele>265.0</ele><time>2026-04-05T15:55:52.001Z</time></trkpt><trkpt lat="44.746067721251116" lon="7.732316349565802"><ele>265.0</ele><time>2026-04-05T15:55:53.001Z</time></trkpt><trkpt lat="44.74646272452724" lon="7.732398875981949"><ele>265.0</ele><time>2026-04-05T15:55:54.001Z</time></trkpt><trkpt lat="44.74688452593609" lon="7.73248549568414"><ele>265.0</ele><time>2026-04-05T15:55:55.001Z</time></trkpt><trkpt lat="44.74734349591207" lon="7.73257887362696"><ele>264.0</ele><time>2026-04-05T15:55:56.001Z</time></trkpt><trkpt lat="44.74782214132323" lon="7.732672300888612"><ele>264.0</ele><time>2026-04-05T15:55:57.001Z</time></trkpt><trkpt lat="44.748319402993225" lon="7.73276936303126"><ele>263.0</ele><time>2026-04-05T15:55:58.001Z</time></trkpt><trkpt lat="44.74882846640315" lon="7.732872325804173"><ele>263.0</ele><time>2026-04-05T15:55:59.001Z</time></trkpt><trkpt lat="44.74934945237139" lon="7.732977292701825"><ele>262.0</ele><time>2026-04-05T15:56:00.001Z</time></trkpt><trkpt lat="44.74987801948392" lon="7.733086226827258"><ele>263.0</ele><time>2026-04-05T15:56:01.001Z</time></trkpt><trkpt lat="44.750410667758196" lon="7.733199126401635"><ele>263.0</ele><time>2026-04-05T15:56:02.001Z</time></trkpt><trkpt lat="44.75091798972153" lon="7.7333029499836465"><ele>262.0</ele><time>2026-04-05T15:56:03.001Z</time></trkpt><trkpt lat="44.75137216640708" lon="7.733398338725345"><ele>262.0</ele><time>2026-04-05T15:56:04.001Z</time></trkpt><trkpt lat="44.75179108610919" lon="7.733482595432564"><ele>262.0</ele><time>2026-04-05T15:56:05.001Z</time></trkpt><trkpt lat="44.752198072460274" lon="7.733565307134759"><ele>262.5</ele><time>2026-04-05T15:56:06.001Z</time></trkpt><trkpt lat="44.75259167859715" lon="7.733652048701875"><ele>263.0</ele><time>2026-04-05T15:56:07.001Z</time></trkpt><trkpt lat="44.7529593848744" lon="7.733723183389821"><ele>263.0</ele><time>2026-04-05T15:56:08.001Z</time></trkpt><trkpt lat="44.75332743622859" lon="7.733796316029769"><ele>263.0</ele><time>2026-04-05T15:56:09.001Z</time></trkpt><trkpt lat="44.75369788665289" lon="7.733877550976954"><ele>263.0</ele><time>2026-04-05T15:56:10.001Z</time></trkpt><trkpt lat="44.75405668566501" lon="7.733970390328158"><ele>263.0</ele><time>2026-04-05T15:56:11.001Z</time></trkpt><trkpt lat="44.75438638530847" lon="7.734071673965945"><ele>262.0</ele><time>2026-04-05T15:56:12.001Z</time></trkpt><trkpt lat="44.75469428335092" lon="7.734171911314623"><ele>261.0</ele><time>2026-04-05T15:56:13.001Z</time></trkpt><trkpt lat="44.754986106158874" lon="7.73426434817217"><ele>261.0</ele><time>2026-04-05T15:56:14Z</time></trkpt><trkpt lat="44.75527987502172" lon="7.734347272233264"><ele>261.0</ele><time>2026-04-05T15:56:15Z</time></trkpt><trkpt lat="44.75559729133751" lon="7.734435645145965"><ele>260.5</ele><time>2026-04-05T15:56:16Z</time></trkpt><trkpt lat="44.75592429382798" lon="7.734534180516102"><ele>260.0</ele><time>2026-04-05T15:56:17Z</time></trkpt><trkpt lat="44.75623859249352" lon="7.734632308416545"><ele>260.0</ele><time>2026-04-05T15:56:18Z</time></trkpt><trkpt lat="44.75651943463366" lon="7.734719773438431"><ele>260.0</ele><time>2026-04-05T15:56:19Z</time></trkpt><trkpt lat="44.75678610066472" lon="7.734801158945064"><ele>260.5</ele><time>2026-04-05T15:56:20Z</time></trkpt><trkpt lat="44.757037961245864" lon="7.734877511064813"><ele>261.0</ele><time>2026-04-05T15:56:21Z</time></trkpt><trkpt lat="44.75729450839195" lon="7.734954646152842"><ele>261.0</ele><time>2026-04-05T15:56:22Z</time></trkpt><trkpt lat="44.757549919729385" lon="7.73503463319956"><ele>261.0</ele><time>2026-04-05T15:56:23Z</time></trkpt><trkpt lat="44.75779712366193" lon="7.73511241166647"><ele>260.5</ele><time>2026-04-05T15:56:24Z</time></trkpt><trkpt lat="44.758025255414395" lon="7.735183849725216"><ele>260.0</ele><time>2026-04-05T15:56:25Z</time></trkpt><trkpt lat="44.758242646829466" lon="7.73524909677788"><ele>260.0</ele><time>2026-04-05T15:56:26Z</time></trkpt><trkpt lat="44.75844648141408" lon="7.73530994240113"><ele>260.0</ele><time>2026-04-05T15:56:27Z</time></trkpt><trkpt lat="44.75864647108697" lon="7.735367044575883"><ele>260.0</ele><time>2026-04-05T15:56:28Z</time></trkpt><trkpt lat="44.758849602948644" lon="7.735426735917839"><ele>260.0</ele><time>2026-04-05T15:56:29Z</time></trkpt><trkpt lat="44.75903774750502" lon="7.735478474815448"><ele>260.0</ele><time>2026-04-05T15:56:30Z</time></trkpt><trkpt lat="44.75921143071477" lon="7.73552478529823"><ele>260.0</ele><time>2026-04-05T15:56:31Z</time></trkpt><trkpt lat="44.75937618219383" lon="7.735570093159645"><ele>260.25</ele><time>2026-04-05T15:56:32Z</time></trkpt><trkpt lat="44.75952609910777" lon="7.735604763373875"><ele>260.5</ele><time>2026-04-05T15:56:33Z</time></trkpt><trkpt lat="44.7596643979244" lon="7.73563246071751"><ele>260.75</ele><time>2026-04-05T15:56:34Z</time></trkpt><trkpt lat="44.75977878036086" lon="7.735662439096612"><ele>261.0</ele><time>2026-04-05T15:56:35Z</time></trkpt><trkpt lat="44.75988017226713" lon="7.735699972656057"><ele>261.0</ele><time>2026-04-05T15:56:36Z</time></trkpt><trkpt lat="44.759966594614134" lon="7.735749736781267"><ele>261.0</ele><time>2026-04-05T15:56:37Z</time></trkpt><trkpt lat="44.76004020775224" lon="7.735810626648228"><ele>261.0</ele><time>2026-04-05T15:56:38Z</time></trkpt><trkpt lat="44.76010301496134" lon="7.7358710862066395"><ele>261.0</ele><time>2026-04-05T15:56:39Z</time></trkpt><trkpt lat="44.76017561282222" lon="7.735910767996008"><ele>261.0</ele><time>2026-04-05T15:56:40Z</time></trkpt><trkpt lat="44.76026036622621" lon="7.735897367025988"><ele>261.0</ele><time>2026-04-05T15:56:41Z</time></trkpt><trkpt lat="44.76034469778606" lon="7.735834354455256"><ele>260.75</ele><time>2026-04-05T15:56:42Z</time></trkpt><trkpt lat="44.76042852181008" lon="7.735752214402107"><ele>260.5</ele><time>2026-04-05T15:56:43Z</time></trkpt><trkpt lat="44.760523616271605" lon="7.735694939634388"><ele>260.25</ele><time>2026-04-05T15:56:44Z</time></trkpt><trkpt lat="44.76063930608511" lon="7.735664233390693"><ele>260.0</ele><time>2026-04-05T15:56:45Z</time></trkpt><trkpt lat="44.76076787255202" lon="7.735644431191551"><ele>260.0</ele><time>2026-04-05T15:56:46Z</time></trkpt><trkpt lat="44.76091396604443" lon="7.735623271174465"><ele>260.0</ele><time>2026-04-05T15:56:47Z</time></trkpt><trkpt lat="44.761073987717445" lon="7.735596793009941"><ele>260.0</ele><time>2026-04-05T15:56:48Z</time></trkpt><trkpt lat="44.76123189954787" lon="7.735563270789599"><ele>259.33333333333337</ele><time>2026-04-05T15:56:49Z</time></trkpt><trkpt lat="44.76140480106765" lon="7.7355198824800935"><ele>258.6666666666667</ele><time>2026-04-05T15:56:50Z</time></trkpt><trkpt lat="44.76159563917378" lon="7.735472856749329"><ele>258.0</ele><time>2026-04-05T15:56:51Z</time></trkpt><trkpt lat="44.76180758881911" lon="7.735413180150976"><ele>258.5</ele><time>2026-04-05T15:56:52Z</time></trkpt><trkpt lat="44.76204559843497" lon="7.7353540288306375"><ele>259.0</ele><time>2026-04-05T15:56:53Z</time></trkpt><trkpt lat="44.76228828602081" lon="7.735263145250024"><ele>259.0</ele><time>2026-04-05T15:56:54Z</time></trkpt><trkpt lat="44.76253829052384" lon="7.735147339141989"><ele>259.0</ele><time>2026-04-05T15:56:55Z</time></trkpt><trkpt lat="44.762803799867555" lon="7.7350619264942635"><ele>259.0</ele><time>2026-04-05T15:56:56Z</time></trkpt><trkpt lat="44.76307902253925" lon="7.734947754922309"><ele>259.0</ele><time>2026-04-05T15:56:57Z</time></trkpt><trkpt lat="44.76337018799941" lon="7.734844037528871"><ele>259.5</ele><time>2026-04-05T15:56:58Z</time></trkpt><trkpt lat="44.763671162200154" lon="7.7347245343361966"><ele>260.0</ele><time>2026-04-05T15:56:59Z</time></trkpt><trkpt lat="44.763971047646244" lon="7.7346070528773145"><ele>260.0</ele><time>2026-04-05T15:57:00Z</time></trkpt><trkpt lat="44.76427804922783" lon="7.734479800428987"><ele>260.0</ele><time>2026-04-05T15:57:01Z</time></trkpt><trkpt lat="44.76459088809832" lon="7.734376282078123"><ele>259.5</ele><time>2026-04-05T15:57:02Z</time></trkpt><trkpt lat="44.76490787496251" lon="7.734248564929939"><ele>259.0</ele><time>2026-04-05T15:57:03Z</time></trkpt><trkpt lat="44.76522750390763" lon="7.734116491057221"><ele>258.0</ele><time>2026-04-05T15:57:04Z</time></trkpt><trkpt lat="44.76555204463196" lon="7.733988217857182"><ele>257.0</ele><time>2026-04-05T15:57:05Z</time></trkpt><trkpt lat="44.76587557619192" lon="7.733864237851063"><ele>257.0</ele><time>2026-04-05T15:57:06Z</time></trkpt><trkpt lat="44.766199153551135" lon="7.733740702998627"><ele>257.0</ele><time>2026-04-05T15:57:07Z</time></trkpt><trkpt lat="44.7665050934396" lon="7.733621619995757"><ele>257.5</ele><time>2026-04-05T15:57:08Z</time></trkpt><trkpt lat="44.76678755781836" lon="7.733509832539152"><ele>258.0</ele><time>2026-04-05T15:57:09Z</time></trkpt><trkpt lat="44.76705086244831" lon="7.73340361181816"><ele>257.0</ele><time>2026-04-05T15:57:10Z</time></trkpt><trkpt lat="44.76732257491349" lon="7.733301231408151"><ele>256.0</ele><time>2026-04-05T15:57:11Z</time></trkpt><trkpt lat="44.76760195431998" lon="7.733195656842672"><ele>255.5</ele><time>2026-04-05T15:57:12Z</time></trkpt><trkpt lat="44.767887916448096" lon="7.733082999486086"><ele>255.0</ele><time>2026-04-05T15:57:13Z</time></trkpt><trkpt lat="44.76817712320756" lon="7.732966643083269"><ele>255.0</ele><time>2026-04-05T15:57:14Z</time></trkpt><trkpt lat="44.76847579741989" lon="7.732844932365847"><ele>255.0</ele><time>2026-04-05T15:57:15Z</time></trkpt><trkpt lat="44.76878197674326" lon="7.7327218006237075"><ele>255.5</ele><time>2026-04-05T15:57:16Z</time></trkpt><trkpt lat="44.769091625091534" lon="7.7325970942554525"><ele>256.0</ele><time>2026-04-05T15:57:17Z</time></trkpt><trkpt lat="44.76940597250518" lon="7.732470929903362"><ele>256.0</ele><time>2026-04-05T15:57:18Z</time></trkpt><trkpt lat="44.769723658382894" lon="7.732348612983017"><ele>256.0</ele><time>2026-04-05T15:57:19Z</time></trkpt><trkpt lat="44.77004832407098" lon="7.732227026268022"><ele>256.0</ele><time>2026-04-05T15:57:20Z</time></trkpt><trkpt lat="44.77037867847983" lon="7.732101094686161"><ele>256.0</ele><time>2026-04-05T15:57:21Z</time></trkpt><trkpt lat="44.770706494028275" lon="7.731971758760453"><ele>255.5</ele><time>2026-04-05T15:57:22Z</time></trkpt><trkpt lat="44.77103884496849" lon="7.731843189194857"><ele>255.0</ele><time>2026-04-05T15:57:23Z</time></trkpt><trkpt lat="44.77137549036471" lon="7.73170593045678"><ele>255.0</ele><time>2026-04-05T15:57:24Z</time></trkpt><trkpt lat="44.7717109173721" lon="7.731570596173489"><ele>255.0</ele><time>2026-04-05T15:57:25Z</time></trkpt><trkpt lat="44.77205179231511" lon="7.731436912698032"><ele>255.5</ele><time>2026-04-05T15:57:26Z</time></trkpt><trkpt lat="44.77239438874106" lon="7.7313028980407825"><ele>256.0</ele><time>2026-04-05T15:57:27Z</time></trkpt><trkpt lat="44.77274171986404" lon="7.731165977068293"><ele>256.5</ele><time>2026-04-05T15:57:28Z</time></trkpt><trkpt lat="44.773091516897324" lon="7.731031823405793"><ele>257.0</ele><time>2026-04-05T15:57:29Z</time></trkpt><trkpt lat="44.77344127297205" lon="7.730898661666015"><ele>256.5</ele><time>2026-04-05T15:57:30Z</time></trkpt><trkpt lat="44.773794920414204" lon="7.730764889976507"><ele>256.0</ele><time>2026-04-05T15:57:31Z</time></trkpt><trkpt lat="44.77414762954493" lon="7.730621029188654"><ele>254.5</ele><time>2026-04-05T15:57:32Z</time></trkpt><trkpt lat="44.77449369270408" lon="7.730486853510016"><ele>253.0</ele><time>2026-04-05T15:57:33Z</time></trkpt><trkpt lat="44.774805911008144" lon="7.7303612028648505"><ele>253.0</ele><time>2026-04-05T15:57:34Z</time></trkpt><trkpt lat="44.77509392843657" lon="7.730244478462768"><ele>253.0</ele><time>2026-04-05T15:57:35Z</time></trkpt><trkpt lat="44.7753703532425" lon="7.73013535801393"><ele>254.0</ele><time>2026-04-05T15:57:36Z</time></trkpt><trkpt lat="44.77564832551169" lon="7.73002598840924"><ele>255.0</ele><time>2026-04-05T15:57:37Z</time></trkpt><trkpt lat="44.775929735880275" lon="7.729912796354152"><ele>254.0</ele><time>2026-04-05T15:57:38Z</time></trkpt><trkpt lat="44.77619712449614" lon="7.729808490923084"><ele>253.0</ele><time>2026-04-05T15:57:39Z</time></trkpt><trkpt lat="44.776443151140356" lon="7.72971083363698"><ele>253.0</ele><time>2026-04-05T15:57:40Z</time></trkpt><trkpt lat="44.77667500539455" lon="7.729620620847718"><ele>253.0</ele><time>2026-04-05T15:57:41Z</time></trkpt><trkpt lat="44.776917459702645" lon="7.729533422682721"><ele>252.5</ele><time>2026-04-05T15:57:42Z</time></trkpt><trkpt lat="44.77716643615797" lon="7.729460988275903"><ele>252.0</ele><time>2026-04-05T15:57:43Z</time></trkpt><trkpt lat="44.77739485076432" lon="7.729420007303729"><ele>252.0</ele><time>2026-04-05T15:57:44Z</time></trkpt><trkpt lat="44.77759222171214" lon="7.729400563155212"><ele>252.0</ele><time>2026-04-05T15:57:45Z</time></trkpt><trkpt lat="44.77777530096637" lon="7.7293881904461275"><ele>252.0</ele><time>2026-04-05T15:57:46Z</time></trkpt><trkpt lat="44.77794137608862" lon="7.729378431668011"><ele>252.39999999999998</ele><time>2026-04-05T15:57:47Z</time></trkpt><trkpt lat="44.7780953244067" lon="7.729376832423856"><ele>252.79999999999998</ele><time>2026-04-05T15:57:48Z</time></trkpt><trkpt lat="44.77820916578583" lon="7.7293888142564775"><ele>253.2</ele><time>2026-04-05T15:57:49Z</time></trkpt><trkpt lat="44.778291220127684" lon="7.729411044777231"><ele>253.6</ele><time>2026-04-05T15:57:50Z</time></trkpt><trkpt lat="44.7783726971164" lon="7.729455305728813"><ele>254.0</ele><time>2026-04-05T15:57:51Z</time></trkpt><trkpt lat="44.77845212339546" lon="7.729531965090907"><ele>254.39999999999998</ele><time>2026-04-05T15:57:52Z</time></trkpt><trkpt lat="44.778532829487624" lon="7.729589938450213"><ele>254.79999999999998</ele><time>2026-04-05T15:57:53Z</time></trkpt><trkpt lat="44.7786269952114" lon="7.729579613209947"><ele>255.20000000000002</ele><time>2026-04-05T15:57:54Z</time></trkpt><trkpt lat="44.77873664396088" lon="7.729517897836747"><ele>255.60000000000002</ele><time>2026-04-05T15:57:55Z</time></trkpt><trkpt lat="44.77885624054431" lon="7.7294529785694825"><ele>256.0</ele><time>2026-04-05T15:57:56.001Z</time></trkpt><trkpt lat="44.779005158727266" lon="7.729423555300871"><ele>256.0</ele><time>2026-04-05T15:57:57.001Z</time></trkpt><trkpt lat="44.77917461321556" lon="7.7294313115949755"><ele>256.0</ele><time>2026-04-05T15:57:58.001Z</time></trkpt><trkpt lat="44.779351250864885" lon="7.7294522003498285"><ele>256.0</ele><time>2026-04-05T15:57:59.001Z</time></trkpt><trkpt lat="44.77953152817675" lon="7.729465415930997"><ele>255.66666666666666</ele><time>2026-04-05T15:58:00.001Z</time></trkpt><trkpt lat="44.779716264861655" lon="7.729475398436492"><ele>255.33333333333331</ele><time>2026-04-05T15:58:01.001Z</time></trkpt><trkpt lat="44.779911174960255" lon="7.729485882830802"><ele>255.0</ele><time>2026-04-05T15:58:02.001Z</time></trkpt><trkpt lat="44.78011560739499" lon="7.729494205898342"><ele>254.66666666666669</ele><time>2026-04-05T15:58:03.001Z</time></trkpt><trkpt lat="44.780325597531494" lon="7.729500985982206"><ele>254.33333333333334</ele><time>2026-04-05T15:58:04.001Z</time></trkpt><trkpt lat="44.78054534475823" lon="7.729512831357108"><ele>254.0</ele><time>2026-04-05T15:58:05.001Z</time></trkpt><trkpt lat="44.78076724957962" lon="7.729527568451177"><ele>254.0</ele><time>2026-04-05T15:58:06.001Z</time></trkpt><trkpt lat="44.7809865463951" lon="7.7295442216587125"><ele>254.0</ele><time>2026-04-05T15:58:07.001Z</time></trkpt><trkpt lat="44.78120371403012" lon="7.729560369685031"><ele>254.0</ele><time>2026-04-05T15:58:08.001Z</time></trkpt><trkpt lat="44.781420089782976" lon="7.729577389409781"><ele>254.0</ele><time>2026-04-05T15:58:09.001Z</time></trkpt><trkpt lat="44.78163729421944" lon="7.729584501971838"><ele>254.0</ele><time>2026-04-05T15:58:10.001Z</time></trkpt><trkpt lat="44.78185421763511" lon="7.7295904673746945"><ele>254.0</ele><time>2026-04-05T15:58:11.001Z</time></trkpt><trkpt lat="44.782068778926906" lon="7.729604739688832"><ele>254.33333333333334</ele><time>2026-04-05T15:58:12.001Z</time></trkpt><trkpt lat="44.78227802942717" lon="7.729620956030363"><ele>254.66666666666669</ele><time>2026-04-05T15:58:13.001Z</time></trkpt><trkpt lat="44.782481793726824" lon="7.729631606107785"><ele>255.0</ele><time>2026-04-05T15:58:14.001Z</time></trkpt><trkpt lat="44.782674933083946" lon="7.72963640752234"><ele>254.66666666666669</ele><time>2026-04-05T15:58:15.001Z</time></trkpt><trkpt lat="44.782861786681" lon="7.729649914587741"><ele>254.33333333333334</ele><time>2026-04-05T15:58:16.001Z</time></trkpt><trkpt lat="44.78303345454724" lon="7.729659690239003"><ele>254.0</ele><time>2026-04-05T15:58:17.001Z</time></trkpt><trkpt lat="44.78320268164474" lon="7.729664177067669"><ele>254.0</ele><time>2026-04-05T15:58:18.001Z</time></trkpt><trkpt lat="44.783372121902374" lon="7.72967154343955"><ele>254.0</ele><time>2026-04-05T15:58:19.001Z</time></trkpt><trkpt lat="44.78354250167963" lon="7.729681350518902"><ele>254.0</ele><time>2026-04-05T15:58:20.001Z</time></trkpt><trkpt lat="44.78371852625932" lon="7.72969389274398"><ele>254.0</ele><time>2026-04-05T15:58:21.001Z</time></trkpt><trkpt lat="44.783902252728886" lon="7.729709006916237"><ele>254.0</ele><time>2026-04-05T15:58:22.001Z</time></trkpt><trkpt lat="44.7840933157232" lon="7.729720326343386"><ele>254.0</ele><time>2026-04-05T15:58:23Z</time></trkpt><trkpt lat="44.7842918676132" lon="7.729734669327309"><ele>253.66666666666669</ele><time>2026-04-05T15:58:24Z</time></trkpt><trkpt lat="44.784499205393615" lon="7.729751613996868"><ele>253.33333333333331</ele><time>2026-04-05T15:58:25Z</time></trkpt><trkpt lat="44.78471214427584" lon="7.729767160683449"><ele>253.0</ele><time>2026-04-05T15:58:26Z</time></trkpt><trkpt lat="44.78493350577907" lon="7.729781435179192"><ele>253.0</ele><time>2026-04-05T15:58:27Z</time></trkpt><trkpt lat="44.78515966505649" lon="7.729792169621812"><ele>253.0</ele><time>2026-04-05T15:58:28Z</time></trkpt><trkpt lat="44.78538559518142" lon="7.729806078096703"><ele>253.5</ele><time>2026-04-05T15:58:29Z</time></trkpt><trkpt lat="44.785609832290575" lon="7.7298237704843755"><ele>254.0</ele><time>2026-04-05T15:58:30Z</time></trkpt><trkpt lat="44.785836858223384" lon="7.729837169785909"><ele>253.33333333333334</ele><time>2026-04-05T15:58:31Z</time></trkpt><trkpt lat="44.7860630808785" lon="7.72985034044561"><ele>252.66666666666669</ele><time>2026-04-05T15:58:32Z</time></trkpt><trkpt lat="44.78628317017857" lon="7.729869228007225"><ele>252.0</ele><time>2026-04-05T15:58:33Z</time></trkpt><trkpt lat="44.78648608250391" lon="7.7298828396506485"><ele>252.0</ele><time>2026-04-05T15:58:34Z</time></trkpt><trkpt lat="44.786679480421526" lon="7.729891255014876"><ele>252.0</ele><time>2026-04-05T15:58:35Z</time></trkpt><trkpt lat="44.78687494289009" lon="7.729907203739771"><ele>252.0</ele><time>2026-04-05T15:58:36Z</time></trkpt><trkpt lat="44.78707319651951" lon="7.729926175038452"><ele>252.0</ele><time>2026-04-05T15:58:37Z</time></trkpt><trkpt lat="44.78727753128511" lon="7.729937542712687"><ele>252.0</ele><time>2026-04-05T15:58:38Z</time></trkpt><trkpt lat="44.7874908895838" lon="7.729948966091844"><ele>252.0</ele><time>2026-04-05T15:58:39Z</time></trkpt><trkpt lat="44.787713507350105" lon="7.729963909677366"><ele>253.0</ele><time>2026-04-05T15:58:40Z</time></trkpt><trkpt lat="44.78794498479752" lon="7.729978466801965"><ele>254.0</ele><time>2026-04-05T15:58:41Z</time></trkpt><trkpt lat="44.78818406090745" lon="7.729991525976804"><ele>254.0</ele><time>2026-04-05T15:58:42Z</time></trkpt><trkpt lat="44.78842852935831" lon="7.730005791543442"><ele>254.0</ele><time>2026-04-05T15:58:43Z</time></trkpt><trkpt lat="44.78867781989358" lon="7.7300233148126685"><ele>253.5</ele><time>2026-04-05T15:58:44Z</time></trkpt><trkpt lat="44.78893128060516" lon="7.730040335992758"><ele>253.0</ele><time>2026-04-05T15:58:45Z</time></trkpt><trkpt lat="44.78918030639768" lon="7.730057006120175"><ele>253.0</ele><time>2026-04-05T15:58:46Z</time></trkpt><trkpt lat="44.78943629276498" lon="7.730070950245629"><ele>253.0</ele><time>2026-04-05T15:58:47Z</time></trkpt><trkpt lat="44.789693845105575" lon="7.730087377957693"><ele>253.0</ele><time>2026-04-05T15:58:48Z</time></trkpt><trkpt lat="44.78995426225987" lon="7.730101601108069"><ele>253.0</ele><time>2026-04-05T15:58:49Z</time></trkpt><trkpt lat="44.7902160124397" lon="7.730118966390067"><ele>252.5</ele><time>2026-04-05T15:58:50Z</time></trkpt><trkpt lat="44.790477830361084" lon="7.730139130325967"><ele>252.0</ele><time>2026-04-05T15:58:51Z</time></trkpt><trkpt lat="44.7907437443349" lon="7.730156861963893"><ele>251.5</ele><time>2026-04-05T15:58:52Z</time></trkpt><trkpt lat="44.79101051454974" lon="7.730178027064248"><ele>251.0</ele><time>2026-04-05T15:58:53Z</time></trkpt><trkpt lat="44.79127944616958" lon="7.7302061617322755"><ele>251.0</ele><time>2026-04-05T15:58:54Z</time></trkpt><trkpt lat="44.79154737161815" lon="7.730224104486327"><ele>251.0</ele><time>2026-04-05T15:58:55Z</time></trkpt><trkpt lat="44.791819685768516" lon="7.73022404352381"><ele>252.0</ele><time>2026-04-05T15:58:56Z</time></trkpt><trkpt lat="44.79209333410024" lon="7.730235395854076"><ele>253.0</ele><time>2026-04-05T15:58:57Z</time></trkpt><trkpt lat="44.79236297529141" lon="7.730250662870195"><ele>253.0</ele><time>2026-04-05T15:58:58Z</time></trkpt><trkpt lat="44.79263253042367" lon="7.730269062752782"><ele>253.0</ele><time>2026-04-05T15:58:59Z</time></trkpt><trkpt lat="44.792902721840996" lon="7.730286709149833"><ele>253.0</ele><time>2026-04-05T15:59:00Z</time></trkpt><trkpt lat="44.79317471752687" lon="7.730306679357755"><ele>253.0</ele><time>2026-04-05T15:59:01Z</time></trkpt><trkpt lat="44.79344577884826" lon="7.730312904658333"><ele>253.0</ele><time>2026-04-05T15:59:02Z</time></trkpt><trkpt lat="44.79371387597665" lon="7.730293941235779"><ele>253.0</ele><time>2026-04-05T15:59:03Z</time></trkpt><trkpt lat="44.79398466673891" lon="7.730246424958311"><ele>253.0</ele><time>2026-04-05T15:59:04Z</time></trkpt><trkpt lat="44.79425321764699" lon="7.730173924074066"><ele>253.0</ele><time>2026-04-05T15:59:05Z</time></trkpt><trkpt lat="44.79451788846214" lon="7.730087851246919"><ele>253.0</ele><time>2026-04-05T15:59:06Z</time></trkpt><trkpt lat="44.794779735572696" lon="7.729969326093254"><ele>253.0</ele><time>2026-04-05T15:59:07Z</time></trkpt><trkpt lat="44.7950372412796" lon="7.729827513240396"><ele>253.0</ele><time>2026-04-05T15:59:08Z</time></trkpt><trkpt lat="44.79529618522495" lon="7.729676610926865"><ele>253.0</ele><time>2026-04-05T15:59:09Z</time></trkpt><trkpt lat="44.79555501673803" lon="7.7295273254999834"><ele>252.5</ele><time>2026-04-05T15:59:10Z</time></trkpt><trkpt lat="44.795815561842005" lon="7.729382621329466"><ele>252.0</ele><time>2026-04-05T15:59:11Z</time></trkpt><trkpt lat="44.79607640850611" lon="7.729236460332445"><ele>252.0</ele><time>2026-04-05T15:59:12Z</time></trkpt><trkpt lat="44.796340286092125" lon="7.729089348369301"><ele>252.0</ele><time>2026-04-05T15:59:13Z</time></trkpt><trkpt lat="44.796607888152835" lon="7.728940463975071"><ele>252.5</ele><time>2026-04-05T15:59:14Z</time></trkpt><trkpt lat="44.79687570995711" lon="7.72879183763117"><ele>253.0</ele><time>2026-04-05T15:59:15Z</time></trkpt><trkpt lat="44.797145227998264" lon="7.728641217819366"><ele>253.0</ele><time>2026-04-05T15:59:16Z</time></trkpt><trkpt lat="44.79741699979057" lon="7.728489092572422"><ele>253.0</ele><time>2026-04-05T15:59:17Z</time></trkpt><trkpt lat="44.797688899591904" lon="7.728337787893123"><ele>252.0</ele><time>2026-04-05T15:59:18Z</time></trkpt><trkpt lat="44.79796441352582" lon="7.728187603460004"><ele>251.0</ele><time>2026-04-05T15:59:19Z</time></trkpt><trkpt lat="44.79823873879164" lon="7.728033154954172"><ele>250.5</ele><time>2026-04-05T15:59:20Z</time></trkpt><trkpt lat="44.79851095472177" lon="7.727881302353389"><ele>250.0</ele><time>2026-04-05T15:59:21Z</time></trkpt><trkpt lat="44.79878395429712" lon="7.72773097634781"><ele>250.5</ele><time>2026-04-05T15:59:22Z</time></trkpt><trkpt lat="44.79905942470407" lon="7.72759046040669"><ele>251.0</ele><time>2026-04-05T15:59:23Z</time></trkpt><trkpt lat="44.79933206567709" lon="7.72745779959101"><ele>251.0</ele><time>2026-04-05T15:59:24Z</time></trkpt><trkpt lat="44.79961175599259" lon="7.72734411438527"><ele>251.0</ele><time>2026-04-05T15:59:25Z</time></trkpt><trkpt lat="44.79989395064034" lon="7.7272511197108935"><ele>250.5</ele><time>2026-04-05T15:59:26Z</time></trkpt><trkpt lat="44.80018313958403" lon="7.7271760012121415"><ele>250.0</ele><time>2026-04-05T15:59:27Z</time></trkpt><trkpt lat="44.80047343209522" lon="7.727108778264737"><ele>250.0</ele><time>2026-04-05T15:59:28Z</time></trkpt><trkpt lat="44.800764877375634" lon="7.727043912447799"><ele>250.0</ele><time>2026-04-05T15:59:29Z</time></trkpt><trkpt lat="44.80105688879218" lon="7.726979274919264"><ele>249.5</ele><time>2026-04-05T15:59:30Z</time></trkpt><trkpt lat="44.80134741145596" lon="7.726914010833583"><ele>249.0</ele><time>2026-04-05T15:59:31Z</time></trkpt><trkpt lat="44.80164038820524" lon="7.726845158552429"><ele>248.5</ele><time>2026-04-05T15:59:32Z</time></trkpt><trkpt lat="44.801930096853255" lon="7.726774572600999"><ele>248.0</ele><time>2026-04-05T15:59:33Z</time></trkpt><trkpt lat="44.80222062280881" lon="7.726704764588283"><ele>248.0</ele><time>2026-04-05T15:59:34Z</time></trkpt><trkpt lat="44.8025076408716" lon="7.7266406664465395"><ele>248.0</ele><time>2026-04-05T15:59:35Z</time></trkpt><trkpt lat="44.8027966398651" lon="7.726572822287071"><ele>246.5</ele><time>2026-04-05T15:59:36Z</time></trkpt><trkpt lat="44.803087076619846" lon="7.726504484381356"><ele>245.0</ele><time>2026-04-05T15:59:37Z</time></trkpt><trkpt lat="44.80337638680548" lon="7.72643839355598"><ele>245.5</ele><time>2026-04-05T15:59:38Z</time></trkpt><trkpt lat="44.80366809372221" lon="7.726370037794732"><ele>246.0</ele><time>2026-04-05T15:59:39Z</time></trkpt><trkpt lat="44.803960560256684" lon="7.726304104638268"><ele>246.0</ele><time>2026-04-05T15:59:40Z</time></trkpt><trkpt lat="44.804252292600594" lon="7.726234857817195"><ele>246.0</ele><time>2026-04-05T15:59:41Z</time></trkpt><trkpt lat="44.80454082254974" lon="7.726151734431518"><ele>245.5</ele><time>2026-04-05T15:59:42Z</time></trkpt><trkpt lat="44.804827498310516" lon="7.726049642997772"><ele>245.0</ele><time>2026-04-05T15:59:43Z</time></trkpt><trkpt lat="44.80511123355579" lon="7.725935316888581"><ele>246.0</ele><time>2026-04-05T15:59:44Z</time></trkpt><trkpt lat="44.805394495874" lon="7.725811846456474"><ele>247.0</ele><time>2026-04-05T15:59:45Z</time></trkpt><trkpt lat="44.80566937480027" lon="7.725673302572963"><ele>247.0</ele><time>2026-04-05T15:59:46Z</time></trkpt><trkpt lat="44.805947729122536" lon="7.7255206515499415"><ele>247.0</ele><time>2026-04-05T15:59:47Z</time></trkpt><trkpt lat="44.80622257844105" lon="7.725360471581208"><ele>246.5</ele><time>2026-04-05T15:59:48Z</time></trkpt><trkpt lat="44.806494398797895" lon="7.725187370219454"><ele>246.0</ele><time>2026-04-05T15:59:49Z</time></trkpt><trkpt lat="44.80676157082392" lon="7.724999840966822"><ele>246.5</ele><time>2026-04-05T15:59:50Z</time></trkpt><trkpt lat="44.80702918391227" lon="7.724806991171671"><ele>247.0</ele><time>2026-04-05T15:59:51Z</time></trkpt><trkpt lat="44.807299829078936" lon="7.72461168452917"><ele>247.0</ele><time>2026-04-05T15:59:52Z</time></trkpt><trkpt lat="44.80757311238908" lon="7.724419882810036"><ele>247.0</ele><time>2026-04-05T15:59:53Z</time></trkpt><trkpt lat="44.80784564988902" lon="7.724231884135455"><ele>246.5</ele><time>2026-04-05T15:59:54Z</time></trkpt><trkpt lat="44.808115532156926" lon="7.724041815920748"><ele>246.0</ele><time>2026-04-05T15:59:55Z</time></trkpt><trkpt lat="44.808383886915365" lon="7.723849057025566"><ele>246.0</ele><time>2026-04-05T15:59:56Z</time></trkpt><trkpt lat="44.80865327688408" lon="7.723656584804346"><ele>246.0</ele><time>2026-04-05T15:59:57Z</time></trkpt><trkpt lat="44.808923893889" lon="7.723462828690396"><ele>245.5</ele><time>2026-04-05T15:59:58Z</time></trkpt><trkpt lat="44.80919660500786" lon="7.7232688688669136"><ele>245.0</ele><time>2026-04-05T15:59:59Z</time></trkpt><trkpt lat="44.809467726270164" lon="7.723075377095356"><ele>245.0</ele><time>2026-04-05T16:00:00Z</time></trkpt><trkpt lat="44.809739008169096" lon="7.722883533230046"><ele>245.0</ele><time>2026-04-05T16:00:01.001Z</time></trkpt><trkpt lat="44.810014461048716" lon="7.722700074889772"><ele>245.0</ele><time>2026-04-05T16:00:02.001Z</time></trkpt><trkpt lat="44.81029166809754" lon="7.722533145578356"><ele>245.0</ele><time>2026-04-05T16:00:03.001Z</time></trkpt><trkpt lat="44.810567735777944" lon="7.722381578073046"><ele>245.0</ele><time>2026-04-05T16:00:04.001Z</time></trkpt><trkpt lat="44.81084905765959" lon="7.722240129245082"><ele>245.0</ele><time>2026-04-05T16:00:05.001Z</time></trkpt><trkpt lat="44.811130214371985" lon="7.7221057067262775"><ele>244.5</ele><time>2026-04-05T16:00:06.001Z</time></trkpt><trkpt lat="44.81141251682976" lon="7.721972705727811"><ele>244.0</ele><time>2026-04-05T16:00:07.001Z</time></trkpt><trkpt lat="44.81169267104193" lon="7.721843101704446"><ele>244.5</ele><time>2026-04-05T16:00:08.001Z</time></trkpt><trkpt lat="44.8119721997499" lon="7.7217226507387755"><ele>245.0</ele><time>2026-04-05T16:00:09.001Z</time></trkpt><trkpt lat="44.81224475167551" lon="7.7216087761343175"><ele>245.0</ele><time>2026-04-05T16:00:10Z</time></trkpt><trkpt lat="44.81249895729645" lon="7.721509155950749"><ele>245.0</ele><time>2026-04-05T16:00:11Z</time></trkpt><trkpt lat="44.81273640941648" lon="7.721415254818387"><ele>245.0</ele><time>2026-04-05T16:00:12Z</time></trkpt><trkpt lat="44.81296967928744" lon="7.7213201560863345"><ele>245.0</ele><time>2026-04-05T16:00:13Z</time></trkpt><trkpt lat="44.813208077772224" lon="7.721216542498956"><ele>245.0</ele><time>2026-04-05T16:00:14Z</time></trkpt><trkpt lat="44.813442791696644" lon="7.721086796855629"><ele>245.0</ele><time>2026-04-05T16:00:15Z</time></trkpt><trkpt lat="44.813670322219245" lon="7.720928541174512"><ele>245.0</ele><time>2026-04-05T16:00:16Z</time></trkpt><trkpt lat="44.81388906433717" lon="7.720751324941422"><ele>245.0</ele><time>2026-04-05T16:00:17Z</time></trkpt><trkpt lat="44.81409920784747" lon="7.72056605256781"><ele>245.0</ele><time>2026-04-05T16:00:18Z</time></trkpt><trkpt lat="44.814293810902136" lon="7.720392450626963"><ele>245.0</ele><time>2026-04-05T16:00:19Z</time></trkpt><trkpt lat="44.81447573751283" lon="7.720233565999775"><ele>245.0</ele><time>2026-04-05T16:00:20Z</time></trkpt><trkpt lat="44.81465762967211" lon="7.720070454919755"><ele>244.33333333333334</ele><time>2026-04-05T16:00:21Z</time></trkpt><trkpt lat="44.81483624210527" lon="7.719915339806949"><ele>243.66666666666669</ele><time>2026-04-05T16:00:22Z</time></trkpt><trkpt lat="44.81500264570562" lon="7.719770206956184"><ele>243.0</ele><time>2026-04-05T16:00:23Z</time></trkpt><trkpt lat="44.815159174948775" lon="7.719641864331557"><ele>243.0</ele><time>2026-04-05T16:00:24Z</time></trkpt><trkpt lat="44.8153027865925" lon="7.719523054880007"><ele>243.0</ele><time>2026-04-05T16:00:25Z</time></trkpt><trkpt lat="44.81542991111185" lon="7.71942622959859"><ele>243.0</ele><time>2026-04-05T16:00:26Z</time></trkpt><trkpt lat="44.81553434570009" lon="7.719351591281577"><ele>243.0</ele><time>2026-04-05T16:00:27Z</time></trkpt><trkpt lat="44.81561122665252" lon="7.719301318220399"><ele>243.0</ele><time>2026-04-05T16:00:28Z</time></trkpt><trkpt lat="44.81568755779814" lon="7.719253736355103"><ele>243.0</ele><time>2026-04-05T16:00:29Z</time></trkpt><trkpt lat="44.815755924353134" lon="7.719244204565962"><ele>243.0</ele><time>2026-04-05T16:00:30Z</time></trkpt><trkpt lat="44.815868730991006" lon="7.719269125920672"><ele>243.0</ele><time>2026-04-05T16:00:32Z</time></trkpt><trkpt lat="44.815990303830745" lon="7.71927380922899"><ele>243.0</ele><time>2026-04-05T16:00:34Z</time></trkpt><trkpt lat="44.81605387786489" lon="7.719243684574236"><ele>243.16666666666666</ele><time>2026-04-05T16:00:35Z</time></trkpt><trkpt lat="44.81611453552946" lon="7.719189742290462"><ele>243.33333333333331</ele><time>2026-04-05T16:00:36Z</time></trkpt><trkpt lat="44.816166537599415" lon="7.719110085128095"><ele>243.5</ele><time>2026-04-05T16:00:37Z</time></trkpt><trkpt lat="44.816204255090064" lon="7.719008091332841"><ele>243.66666666666666</ele><time>2026-04-05T16:00:38Z</time></trkpt><trkpt lat="44.81623037345473" lon="7.718891962775558"><ele>243.83333333333331</ele><time>2026-04-05T16:00:39Z</time></trkpt><trkpt lat="44.816269374832714" lon="7.718773989607585"><ele>244.0</ele><time>2026-04-05T16:00:40Z</time></trkpt><trkpt lat="44.81633207663828" lon="7.718668745831793"><ele>244.0</ele><time>2026-04-05T16:00:41Z</time></trkpt><trkpt lat="44.816412877175416" lon="7.718572037526324"><ele>244.0</ele><time>2026-04-05T16:00:42Z</time></trkpt><trkpt lat="44.8165083014054" lon="7.718463204546472"><ele>244.0</ele><time>2026-04-05T16:00:43Z</time></trkpt><trkpt lat="44.81662069112368" lon="7.718344925415524"><ele>244.0</ele><time>2026-04-05T16:00:44Z</time></trkpt><trkpt lat="44.81675575182678" lon="7.7182174260550935"><ele>243.66666666666666</ele><time>2026-04-05T16:00:45Z</time></trkpt><trkpt lat="44.81690380751082" lon="7.718076640498329"><ele>243.33333333333331</ele><time>2026-04-05T16:00:46Z</time></trkpt><trkpt lat="44.8170668720589" lon="7.717921869652367"><ele>243.0</ele><time>2026-04-05T16:00:47Z</time></trkpt><trkpt lat="44.817254384046635" lon="7.7177592946869265"><ele>243.5</ele><time>2026-04-05T16:00:48Z</time></trkpt><trkpt lat="44.8174473871909" lon="7.717584854513833"><ele>244.0</ele><time>2026-04-05T16:00:49Z</time></trkpt><trkpt lat="44.817655619386215" lon="7.717385372071646"><ele>244.0</ele><time>2026-04-05T16:00:50Z</time></trkpt><trkpt lat="44.81786292320764" lon="7.717167341775525"><ele>244.0</ele><time>2026-04-05T16:00:51Z</time></trkpt><trkpt lat="44.81808527003484" lon="7.716938409135575"><ele>244.0</ele><time>2026-04-05T16:00:52Z</time></trkpt><trkpt lat="44.81831926183436" lon="7.716712519502106"><ele>244.0</ele><time>2026-04-05T16:00:53Z</time></trkpt><trkpt lat="44.81855998408534" lon="7.716474464305025"><ele>244.0</ele><time>2026-04-05T16:00:54Z</time></trkpt><trkpt lat="44.81880665254677" lon="7.7162277229028255"><ele>244.0</ele><time>2026-04-05T16:00:55Z</time></trkpt><trkpt lat="44.81905874618227" lon="7.715976578860529"><ele>244.0</ele><time>2026-04-05T16:00:56Z</time></trkpt><trkpt lat="44.8193148206734" lon="7.7157197276985325"><ele>244.0</ele><time>2026-04-05T16:00:57Z</time></trkpt><trkpt lat="44.81957409734496" lon="7.715463246434585"><ele>244.0</ele><time>2026-04-05T16:00:58Z</time></trkpt><trkpt lat="44.81983154733749" lon="7.715212318788024"><ele>244.0</ele><time>2026-04-05T16:00:59Z</time></trkpt><trkpt lat="44.82009163007461" lon="7.714973412600367"><ele>244.5</ele><time>2026-04-05T16:01:00Z</time></trkpt><trkpt lat="44.82036148328033" lon="7.714748673498587"><ele>245.0</ele><time>2026-04-05T16:01:01Z</time></trkpt><trkpt lat="44.820639716341596" lon="7.714540897067817"><ele>245.5</ele><time>2026-04-05T16:01:02Z</time></trkpt><trkpt lat="44.82090451765897" lon="7.714351808136546"><ele>246.0</ele><time>2026-04-05T16:01:03Z</time></trkpt><trkpt lat="44.82115384263495" lon="7.714175591158657"><ele>245.0</ele><time>2026-04-05T16:01:04Z</time></trkpt><trkpt lat="44.821394743624495" lon="7.714003056640969"><ele>244.0</ele><time>2026-04-05T16:01:05Z</time></trkpt><trkpt lat="44.82161771487358" lon="7.713835477054551"><ele>243.5</ele><time>2026-04-05T16:01:06Z</time></trkpt><trkpt lat="44.821826303798765" lon="7.713678564765453"><ele>243.0</ele><time>2026-04-05T16:01:07Z</time></trkpt><trkpt lat="44.8220293156954" lon="7.71353734523423"><ele>243.0</ele><time>2026-04-05T16:01:08Z</time></trkpt><trkpt lat="44.82224571732608" lon="7.713375103013719"><ele>243.0</ele><time>2026-04-05T16:01:09Z</time></trkpt><trkpt lat="44.822464679170494" lon="7.713212494530936"><ele>243.5</ele><time>2026-04-05T16:01:10Z</time></trkpt><trkpt lat="44.82269297885947" lon="7.713047056166815"><ele>244.0</ele><time>2026-04-05T16:01:11Z</time></trkpt><trkpt lat="44.822919695584524" lon="7.712883569898474"><ele>244.0</ele><time>2026-04-05T16:01:12Z</time></trkpt><trkpt lat="44.82314893638366" lon="7.712717024883729"><ele>244.0</ele><time>2026-04-05T16:01:13Z</time></trkpt><trkpt lat="44.82336383650627" lon="7.712561285287743"><ele>244.33333333333331</ele><time>2026-04-05T16:01:14Z</time></trkpt><trkpt lat="44.823568960452214" lon="7.71241639936946"><ele>244.66666666666669</ele><time>2026-04-05T16:01:15Z</time></trkpt><trkpt lat="44.82376040333034" lon="7.712276490304974"><ele>245.0</ele><time>2026-04-05T16:01:16Z</time></trkpt><trkpt lat="44.823941472010915" lon="7.712143934577784"><ele>245.0</ele><time>2026-04-05T16:01:17Z</time></trkpt><trkpt lat="44.82411097447624" lon="7.7120147506274055"><ele>245.0</ele><time>2026-04-05T16:01:18Z</time></trkpt><trkpt lat="44.82427286232803" lon="7.711894109832542"><ele>245.0</ele><time>2026-04-05T16:01:19Z</time></trkpt><trkpt lat="44.82442474178746" lon="7.711779711247213"><ele>245.0</ele><time>2026-04-05T16:01:20Z</time></trkpt><trkpt lat="44.824565448675486" lon="7.711673724571849"><ele>245.0</ele><time>2026-04-05T16:01:21Z</time></trkpt><trkpt lat="44.82468701120593" lon="7.71158849477987"><ele>245.0</ele><time>2026-04-05T16:01:22Z</time></trkpt><trkpt lat="44.8248068128081" lon="7.711498789049662"><ele>245.0</ele><time>2026-04-05T16:01:23Z</time></trkpt><trkpt lat="44.824908674874884" lon="7.711427913131476"><ele>245.00000000000003</ele><time>2026-04-05T16:01:24Z</time></trkpt><trkpt lat="44.82500652279553" lon="7.711375690648814"><ele>245.0</ele><time>2026-04-05T16:01:25Z</time></trkpt><trkpt lat="44.82509686341305" lon="7.7113521314161115"><ele>245.0</ele><time>2026-04-05T16:01:26Z</time></trkpt><trkpt lat="44.82518061294133" lon="7.711326926912848"><ele>245.0</ele><time>2026-04-05T16:01:27Z</time></trkpt><trkpt lat="44.825270896170714" lon="7.711329804963563"><ele>245.00000000000003</ele><time>2026-04-05T16:01:28Z</time></trkpt><trkpt lat="44.8253477971572" lon="7.7113284450211586"><ele>245.0</ele><time>2026-04-05T16:01:29Z</time></trkpt><trkpt lat="44.82543002878507" lon="7.711278944513778"><ele>245.2</ele><time>2026-04-05T16:01:30Z</time></trkpt><trkpt lat="44.825486107157545" lon="7.711154856202877"><ele>245.4</ele><time>2026-04-05T16:01:31Z</time></trkpt><trkpt lat="44.82556197628829" lon="7.711060360065811"><ele>245.60000000000002</ele><time>2026-04-05T16:01:32Z</time></trkpt><trkpt lat="44.82564588178792" lon="7.710972197984195"><ele>245.8</ele><time>2026-04-05T16:01:33Z</time></trkpt><trkpt lat="44.825746203084606" lon="7.710912008203433"><ele>246.0</ele><time>2026-04-05T16:01:34Z</time></trkpt><trkpt lat="44.82585241087052" lon="7.7108815704073015"><ele>246.0</ele><time>2026-04-05T16:01:35Z</time></trkpt><trkpt lat="44.82596468485972" lon="7.710870021947224"><ele>246.00000000000003</ele><time>2026-04-05T16:01:36Z</time></trkpt><trkpt lat="44.82607016039244" lon="7.710870411146867"><ele>246.00000000000003</ele><time>2026-04-05T16:01:37Z</time></trkpt><trkpt lat="44.82617162703563" lon="7.710878891703049"><ele>246.0</ele><time>2026-04-05T16:01:38Z</time></trkpt><trkpt lat="44.82627264138963" lon="7.710887401304947"><ele>246.0</ele><time>2026-04-05T16:01:39Z</time></trkpt><trkpt lat="44.82638448183989" lon="7.710898064879294"><ele>245.75</ele><time>2026-04-05T16:01:40Z</time></trkpt><trkpt lat="44.826512331078135" lon="7.710918845811387"><ele>245.5</ele><time>2026-04-05T16:01:41Z</time></trkpt><trkpt lat="44.82664477176383" lon="7.710949926343839"><ele>245.25</ele><time>2026-04-05T16:01:42Z</time></trkpt><trkpt lat="44.82677627397737" lon="7.710983531565938"><ele>245.0</ele><time>2026-04-05T16:01:43Z</time></trkpt><trkpt lat="44.826924610348485" lon="7.711025231554101"><ele>245.0</ele><time>2026-04-05T16:01:44Z</time></trkpt><trkpt lat="44.827019472958845" lon="7.710994909960306"><ele>245.0</ele><time>2026-04-05T16:01:46Z</time></trkpt><trkpt lat="44.82712696923389" lon="7.711009891905994"><ele>245.0</ele><time>2026-04-05T16:01:47Z</time></trkpt><trkpt lat="44.82723341010489" lon="7.711030405048909"><ele>245.0</ele><time>2026-04-05T16:01:48Z</time></trkpt><trkpt lat="44.82734541564208" lon="7.711040474822125"><ele>245.0</ele><time>2026-04-05T16:01:49Z</time></trkpt><trkpt lat="44.82746007512071" lon="7.7110506816447675"><ele>244.75</ele><time>2026-04-05T16:01:50Z</time></trkpt><trkpt lat="44.82757891035966" lon="7.711074756088971"><ele>244.5</ele><time>2026-04-05T16:01:51Z</time></trkpt><trkpt lat="44.827692369360186" lon="7.711093436493157"><ele>244.25</ele><time>2026-04-05T16:01:52Z</time></trkpt><trkpt lat="44.827808381800736" lon="7.711119730876876"><ele>244.0</ele><time>2026-04-05T16:01:53Z</time></trkpt><trkpt lat="44.82792573761162" lon="7.7111403704896375"><ele>244.39999999999998</ele><time>2026-04-05T16:01:54Z</time></trkpt><trkpt lat="44.828036228537826" lon="7.711158207901379"><ele>244.79999999999998</ele><time>2026-04-05T16:01:55Z</time></trkpt><trkpt lat="44.82813251826772" lon="7.7111684097056"><ele>245.20000000000002</ele><time>2026-04-05T16:01:56Z</time></trkpt><trkpt lat="44.828226627502794" lon="7.711171201333551"><ele>245.60000000000002</ele><time>2026-04-05T16:01:57Z</time></trkpt><trkpt lat="44.82832740770902" lon="7.711186800078208"><ele>246.0</ele><time>2026-04-05T16:01:58Z</time></trkpt><trkpt lat="44.82843453488097" lon="7.71120611257719"><ele>245.8</ele><time>2026-04-05T16:01:59Z</time></trkpt><trkpt lat="44.82854006246225" lon="7.711227517629532"><ele>245.60000000000002</ele><time>2026-04-05T16:02:00Z</time></trkpt><trkpt lat="44.82864026067308" lon="7.7112576806924675"><ele>245.4</ele><time>2026-04-05T16:02:01Z</time></trkpt><trkpt lat="44.828752577986776" lon="7.711267989667642"><ele>245.2</ele><time>2026-04-05T16:02:02Z</time></trkpt><trkpt lat="44.82886244081793" lon="7.711280261563501"><ele>245.0</ele><time>2026-04-05T16:02:03Z</time></trkpt><trkpt lat="44.82897167438023" lon="7.7112901045306215"><ele>245.0</ele><time>2026-04-05T16:02:04Z</time></trkpt><trkpt lat="44.829080323078216" lon="7.7113089528022245"><ele>245.0</ele><time>2026-04-05T16:02:05Z</time></trkpt><trkpt lat="44.829188513173015" lon="7.711326388455776"><ele>245.0</ele><time>2026-04-05T16:02:06Z</time></trkpt><trkpt lat="44.82929238678312" lon="7.711347284628576"><ele>245.0</ele><time>2026-04-05T16:02:07Z</time></trkpt><trkpt lat="44.829392262077434" lon="7.711363604669936"><ele>245.0</ele><time>2026-04-05T16:02:08Z</time></trkpt><trkpt lat="44.82948650563446" lon="7.71137660282181"><ele>244.8</ele><time>2026-04-05T16:02:09Z</time></trkpt><trkpt lat="44.82957606531926" lon="7.711393526294293"><ele>244.6</ele><time>2026-04-05T16:02:10Z</time></trkpt><trkpt lat="44.82966829198091" lon="7.711406675674008"><ele>244.39999999999998</ele><time>2026-04-05T16:02:11Z</time></trkpt><trkpt lat="44.82976169913626" lon="7.711421419514828"><ele>244.2</ele><time>2026-04-05T16:02:12Z</time></trkpt><trkpt lat="44.829863341172874" lon="7.711435933111165"><ele>244.0</ele><time>2026-04-05T16:02:13Z</time></trkpt><trkpt lat="44.82996372659413" lon="7.711449368926003"><ele>244.0</ele><time>2026-04-05T16:02:14Z</time></trkpt><trkpt lat="44.83006823326432" lon="7.711464718140337"><ele>243.99999999999997</ele><time>2026-04-05T16:02:15Z</time></trkpt><trkpt lat="44.83017124873537" lon="7.71148215227841"><ele>243.99999999999997</ele><time>2026-04-05T16:02:16Z</time></trkpt><trkpt lat="44.83027133122981" lon="7.711502919446862"><ele>244.0</ele><time>2026-04-05T16:02:17Z</time></trkpt><trkpt lat="44.8303713733807" lon="7.711518707407477"><ele>244.0</ele><time>2026-04-05T16:02:18Z</time></trkpt><trkpt lat="44.83046825014286" lon="7.711534429074823"><ele>243.79999999999998</ele><time>2026-04-05T16:02:19Z</time></trkpt><trkpt lat="44.830569744331704" lon="7.711548029253278"><ele>243.59999999999997</ele><time>2026-04-05T16:02:20Z</time></trkpt><trkpt lat="44.830673229758204" lon="7.711564168454092"><ele>243.4</ele><time>2026-04-05T16:02:21Z</time></trkpt><trkpt lat="44.83077607721345" lon="7.711581083288329"><ele>243.2</ele><time>2026-04-05T16:02:22Z</time></trkpt><trkpt lat="44.83087781189648" lon="7.7115950625611545"><ele>243.0</ele><time>2026-04-05T16:02:23Z</time></trkpt><trkpt lat="44.830981389665006" lon="7.711610614987506"><ele>242.75</ele><time>2026-04-05T16:02:24Z</time></trkpt><trkpt lat="44.831090525497665" lon="7.711631235269185"><ele>242.5</ele><time>2026-04-05T16:02:25Z</time></trkpt><trkpt lat="44.831205314466274" lon="7.7116483254502"><ele>242.25</ele><time>2026-04-05T16:02:26Z</time></trkpt><trkpt lat="44.83132292981207" lon="7.711670073143134"><ele>242.0</ele><time>2026-04-05T16:02:27Z</time></trkpt><trkpt lat="44.83144350248537" lon="7.711691519191637"><ele>242.0</ele><time>2026-04-05T16:02:28Z</time></trkpt><trkpt lat="44.83157224907309" lon="7.7117115094228526"><ele>242.0</ele><time>2026-04-05T16:02:29Z</time></trkpt><trkpt lat="44.83171529412569" lon="7.711733655251497"><ele>242.0</ele><time>2026-04-05T16:02:30Z</time></trkpt><trkpt lat="44.83187863055339" lon="7.711758278608291"><ele>242.0</ele><time>2026-04-05T16:02:31Z</time></trkpt><trkpt lat="44.83203746666907" lon="7.71178783429628"><ele>242.66666666666669</ele><time>2026-04-05T16:02:32Z</time></trkpt><trkpt lat="44.83219027677962" lon="7.711811350104288"><ele>243.33333333333331</ele><time>2026-04-05T16:02:33Z</time></trkpt><trkpt lat="44.83234669190103" lon="7.711832719784322"><ele>244.0</ele><time>2026-04-05T16:02:34Z</time></trkpt><trkpt lat="44.83250505792559" lon="7.711857262349965"><ele>243.66666666666666</ele><time>2026-04-05T16:02:35Z</time></trkpt><trkpt lat="44.83266841639261" lon="7.711877725436912"><ele>243.33333333333331</ele><time>2026-04-05T16:02:36Z</time></trkpt><trkpt lat="44.83282596334248" lon="7.711903027587966"><ele>243.0</ele><time>2026-04-05T16:02:37Z</time></trkpt><trkpt lat="44.83298158659237" lon="7.711928357321706"><ele>242.33333333333331</ele><time>2026-04-05T16:02:38Z</time></trkpt><trkpt lat="44.83313020990143" lon="7.711954746509627"><ele>241.66666666666666</ele><time>2026-04-05T16:02:39Z</time></trkpt><trkpt lat="44.833291107259875" lon="7.711982910778715"><ele>241.0</ele><time>2026-04-05T16:02:40Z</time></trkpt><trkpt lat="44.83344308181847" lon="7.712005940933954"><ele>240.75</ele><time>2026-04-05T16:02:41Z</time></trkpt><trkpt lat="44.83359833977905" lon="7.712029077887466"><ele>240.5</ele><time>2026-04-05T16:02:42Z</time></trkpt><trkpt lat="44.83373674541881" lon="7.712071481269872"><ele>240.25</ele><time>2026-04-05T16:02:43Z</time></trkpt><trkpt lat="44.83387735376551" lon="7.712093713317697"><ele>240.0</ele><time>2026-04-05T16:02:44Z</time></trkpt><trkpt lat="44.83401897323163" lon="7.712093128780507"><ele>240.0</ele><time>2026-04-05T16:02:45Z</time></trkpt><trkpt lat="44.83415643332895" lon="7.71211538061514"><ele>240.0</ele><time>2026-04-05T16:02:46Z</time></trkpt><trkpt lat="44.83429106513934" lon="7.712137863377852"><ele>240.0</ele><time>2026-04-05T16:02:47Z</time></trkpt><trkpt lat="44.834426314555294" lon="7.712162596706879"><ele>240.0</ele><time>2026-04-05T16:02:48Z</time></trkpt><trkpt lat="44.83455587479702" lon="7.712205670796198"><ele>240.75</ele><time>2026-04-05T16:02:49Z</time></trkpt><trkpt lat="44.83468717547398" lon="7.712227757619497"><ele>241.5</ele><time>2026-04-05T16:02:50Z</time></trkpt><trkpt lat="44.8348182391126" lon="7.712249804566623"><ele>242.25</ele><time>2026-04-05T16:02:51Z</time></trkpt><trkpt lat="44.834947544405495" lon="7.7122716691682776"><ele>243.0</ele><time>2026-04-05T16:02:52Z</time></trkpt><trkpt lat="44.83507739568219" lon="7.712291239796155"><ele>243.25</ele><time>2026-04-05T16:02:53Z</time></trkpt><trkpt lat="44.835215182724674" lon="7.712312006510788"><ele>243.5</ele><time>2026-04-05T16:02:54Z</time></trkpt><trkpt lat="44.835355689979146" lon="7.712333183233094"><ele>243.75</ele><time>2026-04-05T16:02:55Z</time></trkpt><trkpt lat="44.835496411934635" lon="7.7123543923124265"><ele>244.0</ele><time>2026-04-05T16:02:56Z</time></trkpt><trkpt lat="44.83563311858271" lon="7.712374995746112"><ele>244.0</ele><time>2026-04-05T16:02:57Z</time></trkpt><trkpt lat="44.83577082876283" lon="7.71239559892235"><ele>244.0</ele><time>2026-04-05T16:02:58Z</time></trkpt><trkpt lat="44.83591596576843" lon="7.712418140855618"><ele>244.0</ele><time>2026-04-05T16:02:59Z</time></trkpt><trkpt lat="44.836062227299486" lon="7.712440332943145"><ele>244.0</ele><time>2026-04-05T16:03:00Z</time></trkpt><trkpt lat="44.836212265891646" lon="7.7124629484862295"><ele>243.66666666666666</ele><time>2026-04-05T16:03:01Z</time></trkpt><trkpt lat="44.836362788395554" lon="7.712485374421594"><ele>243.33333333333331</ele><time>2026-04-05T16:03:02Z</time></trkpt><trkpt lat="44.83651462029682" lon="7.712507879347268"><ele>243.0</ele><time>2026-04-05T16:03:03Z</time></trkpt><trkpt lat="44.836662678650995" lon="7.712529824935972"><ele>243.33333333333331</ele><time>2026-04-05T16:03:04Z</time></trkpt><trkpt lat="44.83681266898459" lon="7.712552056891785"><ele>243.66666666666666</ele><time>2026-04-05T16:03:05Z</time></trkpt><trkpt lat="44.83696207601382" lon="7.71257420239129"><ele>244.0</ele><time>2026-04-05T16:03:06Z</time></trkpt><trkpt lat="44.837109935201525" lon="7.712596120695296"><ele>244.0</ele><time>2026-04-05T16:03:07Z</time></trkpt><trkpt lat="44.83725764887053" lon="7.712617962179451"><ele>244.0</ele><time>2026-04-05T16:03:08Z</time></trkpt><trkpt lat="44.83740511799802" lon="7.712639782205608"><ele>244.0</ele><time>2026-04-05T16:03:09Z</time></trkpt><trkpt lat="44.83754257726808" lon="7.712660121136315"><ele>244.0</ele><time>2026-04-05T16:03:10Z</time></trkpt><trkpt lat="44.83766576445184" lon="7.712678348294397"><ele>244.0</ele><time>2026-04-05T16:03:11Z</time></trkpt><trkpt lat="44.83778528434037" lon="7.7126960328771474"><ele>244.0</ele><time>2026-04-05T16:03:12Z</time></trkpt><trkpt lat="44.837910424860056" lon="7.712714549089371"><ele>244.0</ele><time>2026-04-05T16:03:13Z</time></trkpt><trkpt lat="44.838042465600196" lon="7.7127342888248"><ele>244.0</ele><time>2026-04-05T16:03:14Z</time></trkpt><trkpt lat="44.83817907463198" lon="7.712754720643131"><ele>244.0</ele><time>2026-04-05T16:03:15Z</time></trkpt><trkpt lat="44.838312471697655" lon="7.71277467207697"><ele>244.0</ele><time>2026-04-05T16:03:16Z</time></trkpt><trkpt lat="44.838440833703665" lon="7.712793870447184"><ele>244.0</ele><time>2026-04-05T16:03:17Z</time></trkpt><trkpt lat="44.83856762278471" lon="7.7128128335551835"><ele>244.0</ele><time>2026-04-05T16:03:18Z</time></trkpt><trkpt lat="44.83868929202773" lon="7.7128310309268855"><ele>244.0</ele><time>2026-04-05T16:03:19Z</time></trkpt><trkpt lat="44.83881230302022" lon="7.712849428966385"><ele>244.0</ele><time>2026-04-05T16:03:20Z</time></trkpt><trkpt lat="44.83893202749064" lon="7.712867335466588"><ele>244.0</ele><time>2026-04-05T16:03:21Z</time></trkpt><trkpt lat="44.83904225762901" lon="7.7128845804109"><ele>244.0</ele><time>2026-04-05T16:03:22Z</time></trkpt><trkpt lat="44.83915071927431" lon="7.71290218973507"><ele>244.0</ele><time>2026-04-05T16:03:23Z</time></trkpt><trkpt lat="44.83926560216021" lon="7.712920545165479"><ele>244.0</ele><time>2026-04-05T16:03:24Z</time></trkpt><trkpt lat="44.83938228632875" lon="7.712904115577809"><ele>244.0</ele><time>2026-04-05T16:03:25Z</time></trkpt><trkpt lat="44.83949836669084" lon="7.712920936769007"><ele>244.0</ele><time>2026-04-05T16:03:26Z</time></trkpt><trkpt lat="44.839614104555494" lon="7.712938788981349"><ele>244.0</ele><time>2026-04-05T16:03:27Z</time></trkpt><trkpt lat="44.83972894853486" lon="7.7129581126352225"><ele>244.0</ele><time>2026-04-05T16:03:28Z</time></trkpt><trkpt lat="44.83983609205222" lon="7.713011117324951"><ele>244.0</ele><time>2026-04-05T16:03:29Z</time></trkpt><trkpt lat="44.839948844555444" lon="7.713031408097809"><ele>244.0</ele><time>2026-04-05T16:03:30Z</time></trkpt><trkpt lat="44.840058908544535" lon="7.71305125492936"><ele>244.2</ele><time>2026-04-05T16:03:31Z</time></trkpt><trkpt lat="44.84017446841794" lon="7.7130725783483305"><ele>244.39999999999998</ele><time>2026-04-05T16:03:32Z</time></trkpt><trkpt lat="44.84028499354464" lon="7.713092848080858"><ele>244.6</ele><time>2026-04-05T16:03:33Z</time></trkpt><trkpt lat="44.84039267601559" lon="7.713111205032743"><ele>244.8</ele><time>2026-04-05T16:03:34Z</time></trkpt><trkpt lat="44.84049778936397" lon="7.713129701879161"><ele>245.0</ele><time>2026-04-05T16:03:35Z</time></trkpt><trkpt lat="44.84060142781563" lon="7.713148508862685"><ele>245.0</ele><time>2026-04-05T16:03:36Z</time></trkpt><trkpt lat="44.84070370924696" lon="7.713169201111359"><ele>245.0</ele><time>2026-04-05T16:03:37Z</time></trkpt><trkpt lat="44.84080510820747" lon="7.713189714842766"><ele>245.0</ele><time>2026-04-05T16:03:38Z</time></trkpt><trkpt lat="44.84090344635831" lon="7.713184793939438"><ele>245.0</ele><time>2026-04-05T16:03:39Z</time></trkpt><trkpt lat="44.8409900947319" lon="7.713205552629132"><ele>245.0</ele><time>2026-04-05T16:03:40Z</time></trkpt><trkpt lat="44.84106888537617" lon="7.713244357720207"><ele>244.4</ele><time>2026-04-05T16:03:41Z</time></trkpt><trkpt lat="44.841141129716064" lon="7.713263440462696"><ele>243.8</ele><time>2026-04-05T16:03:42Z</time></trkpt><trkpt lat="44.84124977984932" lon="7.713259982127808"><ele>243.2</ele><time>2026-04-05T16:03:44Z</time></trkpt><trkpt lat="44.84135224676867" lon="7.713272023535121"><ele>242.6</ele><time>2026-04-05T16:03:46Z</time></trkpt><trkpt lat="44.841462170888796" lon="7.713306290739747"><ele>242.0</ele><time>2026-04-05T16:03:48Z</time></trkpt><trkpt lat="44.84157901799185" lon="7.713376700368949"><ele>242.00000000000003</ele><time>2026-04-05T16:03:50Z</time></trkpt><trkpt lat="44.84164376956014" lon="7.713409128237578"><ele>242.0</ele><time>2026-04-05T16:03:51Z</time></trkpt><trkpt lat="44.84171394995462" lon="7.71342783840579"><ele>242.0</ele><time>2026-04-05T16:03:52Z</time></trkpt><trkpt lat="44.84179513936667" lon="7.713467230021677"><ele>242.0</ele><time>2026-04-05T16:03:53Z</time></trkpt><trkpt lat="44.84187578752605" lon="7.713494254027461"><ele>242.00000000000003</ele><time>2026-04-05T16:03:54Z</time></trkpt><trkpt lat="44.841941151861484" lon="7.713513434123776"><ele>242.0</ele><time>2026-04-05T16:03:55Z</time></trkpt><trkpt lat="44.84205997964522" lon="7.713525653794604"><ele>242.00000000000003</ele><time>2026-04-05T16:03:57Z</time></trkpt><trkpt lat="44.8421267930633" lon="7.713546577752204"><ele>242.0</ele><time>2026-04-05T16:03:58Z</time></trkpt><trkpt lat="44.84220251590634" lon="7.713573542015887"><ele>242.0</ele><time>2026-04-05T16:03:59Z</time></trkpt><trkpt lat="44.842288752851175" lon="7.713602603937331"><ele>242.0</ele><time>2026-04-05T16:04:00Z</time></trkpt><trkpt lat="44.842379810104006" lon="7.7136300196823635"><ele>242.00000000000003</ele><time>2026-04-05T16:04:01Z</time></trkpt><trkpt lat="44.84247756133621" lon="7.713659367721512"><ele>242.0</ele><time>2026-04-05T16:04:02Z</time></trkpt><trkpt lat="44.84258292312043" lon="7.713691005505404"><ele>242.0</ele><time>2026-04-05T16:04:03Z</time></trkpt><trkpt lat="44.842689823561244" lon="7.71375703417692"><ele>242.0</ele><time>2026-04-05T16:04:04Z</time></trkpt><trkpt lat="44.84280224440503" lon="7.713794962585031"><ele>242.0</ele><time>2026-04-05T16:04:05Z</time></trkpt><trkpt lat="44.842913860485794" lon="7.71383243569477"><ele>242.0</ele><time>2026-04-05T16:04:06Z</time></trkpt><trkpt lat="44.843023669077674" lon="7.713850252005059"><ele>242.0</ele><time>2026-04-05T16:04:07Z</time></trkpt><trkpt lat="44.843139229981674" lon="7.713898163007039"><ele>242.0</ele><time>2026-04-05T16:04:08Z</time></trkpt><trkpt lat="44.84326389726219" lon="7.713982609618565"><ele>242.0</ele><time>2026-04-05T16:04:09Z</time></trkpt><trkpt lat="44.84340186484662" lon="7.714052125283563"><ele>242.0</ele><time>2026-04-05T16:04:10Z</time></trkpt><trkpt lat="44.84354310335423" lon="7.714119460766814"><ele>242.0</ele><time>2026-04-05T16:04:11Z</time></trkpt><trkpt lat="44.84368491765117" lon="7.714187599793056"><ele>242.0</ele><time>2026-04-05T16:04:12Z</time></trkpt><trkpt lat="44.8438273434865" lon="7.714256799089073"><ele>242.0</ele><time>2026-04-05T16:04:13Z</time></trkpt><trkpt lat="44.843970494552394" lon="7.714326350786795"><ele>242.0</ele><time>2026-04-05T16:04:14Z</time></trkpt><trkpt lat="44.84411034378773" lon="7.714394298216725"><ele>242.0</ele><time>2026-04-05T16:04:15Z</time></trkpt><trkpt lat="44.84423812950044" lon="7.714455762204176"><ele>242.0</ele><time>2026-04-05T16:04:16Z</time></trkpt><trkpt lat="44.844347857018136" lon="7.71450836656184"><ele>242.0</ele><time>2026-04-05T16:04:17Z</time></trkpt><trkpt lat="44.844448822355204" lon="7.714556770306087"><ele>242.2</ele><time>2026-04-05T16:04:18Z</time></trkpt><trkpt lat="44.84454850230599" lon="7.714604600718148"><ele>242.39999999999998</ele><time>2026-04-05T16:04:19Z</time></trkpt><trkpt lat="44.8446370495747" lon="7.71464788545284"><ele>242.60000000000002</ele><time>2026-04-05T16:04:20Z</time></trkpt><trkpt lat="44.84472149557621" lon="7.714691113680147"><ele>242.8</ele><time>2026-04-05T16:04:21Z</time></trkpt><trkpt lat="44.84480335994562" lon="7.714736323169851"><ele>243.0</ele><time>2026-04-05T16:04:22Z</time></trkpt><trkpt lat="44.84488380185605" lon="7.714783555116636"><ele>243.0</ele><time>2026-04-05T16:04:23Z</time></trkpt><trkpt lat="44.84496204347221" lon="7.714825063141509"><ele>243.0</ele><time>2026-04-05T16:04:24Z</time></trkpt><trkpt lat="44.84504015964322" lon="7.714857283724782"><ele>243.0</ele><time>2026-04-05T16:04:25Z</time></trkpt><trkpt lat="44.84512993667936" lon="7.714831823961115"><ele>243.0</ele><time>2026-04-05T16:04:26Z</time></trkpt><trkpt lat="44.845205390228074" lon="7.71475553487033"><ele>243.0</ele><time>2026-04-05T16:04:27Z</time></trkpt><trkpt lat="44.84526361987627" lon="7.714656166101489"><ele>243.0</ele><time>2026-04-05T16:04:28Z</time></trkpt><trkpt lat="44.845317357143074" lon="7.714553488116062"><ele>242.8</ele><time>2026-04-05T16:04:29Z</time></trkpt><trkpt lat="44.845379495486206" lon="7.714452724470309"><ele>242.60000000000002</ele><time>2026-04-05T16:04:30Z</time></trkpt><trkpt lat="44.845433219420904" lon="7.714330627758385"><ele>242.39999999999998</ele><time>2026-04-05T16:04:31Z</time></trkpt><trkpt lat="44.8455083576974" lon="7.714227356740827"><ele>242.2</ele><time>2026-04-05T16:04:32Z</time></trkpt><trkpt lat="44.84559109794193" lon="7.714141327234849"><ele>242.0</ele><time>2026-04-05T16:04:33Z</time></trkpt><trkpt lat="44.845651984083794" lon="7.714044747429762"><ele>242.00000000000003</ele><time>2026-04-05T16:04:34Z</time></trkpt><trkpt lat="44.84572833106465" lon="7.713988040490344"><ele>242.0</ele><time>2026-04-05T16:04:35Z</time></trkpt><trkpt lat="44.84581206141129" lon="7.713944876641773"><ele>242.0</ele><time>2026-04-05T16:04:36Z</time></trkpt><trkpt lat="44.845894613696274" lon="7.713912376043588"><ele>242.0</ele><time>2026-04-05T16:04:37Z</time></trkpt><trkpt lat="44.845978593606105" lon="7.713892826043891"><ele>242.00000000000003</ele><time>2026-04-05T16:04:38Z</time></trkpt><trkpt lat="44.8460652543792" lon="7.713879239582432"><ele>242.0</ele><time>2026-04-05T16:04:39Z</time></trkpt><trkpt lat="44.846154331011356" lon="7.71386735136075"><ele>241.6</ele><time>2026-04-05T16:04:40Z</time></trkpt><trkpt lat="44.84624542047063" lon="7.713858421575287"><ele>241.2</ele><time>2026-04-05T16:04:41Z</time></trkpt><trkpt lat="44.84633491605567" lon="7.713850671368316"><ele>240.8</ele><time>2026-04-05T16:04:42Z</time></trkpt><trkpt lat="44.84642462168972" lon="7.713841711327222"><ele>240.4</ele><time>2026-04-05T16:04:43Z</time></trkpt><trkpt lat="44.84651856663582" lon="7.713835353117774"><ele>240.0</ele><time>2026-04-05T16:04:44Z</time></trkpt><trkpt lat="44.846615468799364" lon="7.713830040312233"><ele>240.0</ele><time>2026-04-05T16:04:45Z</time></trkpt><trkpt lat="44.84671576539698" lon="7.7138249353134665"><ele>240.0</ele><time>2026-04-05T16:04:46Z</time></trkpt><trkpt lat="44.84681752036049" lon="7.713822402304721"><ele>240.0</ele><time>2026-04-05T16:04:47Z</time></trkpt><trkpt lat="44.846920709058175" lon="7.713826037268302"><ele>240.0</ele><time>2026-04-05T16:04:48Z</time></trkpt><trkpt lat="44.84702847548057" lon="7.713831975179853"><ele>240.0</ele><time>2026-04-05T16:04:49Z</time></trkpt><trkpt lat="44.84713931532502" lon="7.7138321664503104"><ele>240.0</ele><time>2026-04-05T16:04:50Z</time></trkpt><trkpt lat="44.847248612679074" lon="7.713835678089072"><ele>240.0</ele><time>2026-04-05T16:04:51Z</time></trkpt><trkpt lat="44.84735968043768" lon="7.713841376450794"><ele>240.0</ele><time>2026-04-05T16:04:52Z</time></trkpt><trkpt lat="44.847468436968484" lon="7.713847969805523"><ele>240.0</ele><time>2026-04-05T16:04:53Z</time></trkpt><trkpt lat="44.847575082699485" lon="7.7138530802921315"><ele>240.0</ele><time>2026-04-05T16:04:54Z</time></trkpt><trkpt lat="44.847680301626056" lon="7.713855705838407"><ele>240.0</ele><time>2026-04-05T16:04:55Z</time></trkpt><trkpt lat="44.8477783826325" lon="7.713861349435505"><ele>240.0</ele><time>2026-04-05T16:04:56Z</time></trkpt><trkpt lat="44.84786913307242" lon="7.7138641185275905"><ele>240.0</ele><time>2026-04-05T16:04:57Z</time></trkpt><trkpt lat="44.8479456972529" lon="7.713868842090575"><ele>240.0</ele><time>2026-04-05T16:04:58Z</time></trkpt><trkpt lat="44.848017495616475" lon="7.713872562976419"><ele>240.0</ele><time>2026-04-05T16:04:59Z</time></trkpt><trkpt lat="44.848119545430976" lon="7.713874069026593"><ele>240.0</ele><time>2026-04-05T16:05:01Z</time></trkpt><trkpt lat="44.84819313133934" lon="7.713878112954778"><ele>240.0</ele><time>2026-04-05T16:05:03Z</time></trkpt><trkpt lat="44.84827077293092" lon="7.713881882197994"><ele>240.0</ele><time>2026-04-05T16:05:05Z</time></trkpt><trkpt lat="44.84837331213017" lon="7.713886375020555"><ele>240.0</ele><time>2026-04-05T16:05:07Z</time></trkpt><trkpt lat="44.848459007614494" lon="7.71390580815485"><ele>240.0</ele><time>2026-04-05T16:05:09Z</time></trkpt><trkpt lat="44.84853651774581" lon="7.713946892667368"><ele>240.0</ele><time>2026-04-05T16:05:11Z</time></trkpt><trkpt lat="44.84863661938324" lon="7.713998572402419"><ele>239.85714285714286</ele><time>2026-04-05T16:05:13Z</time></trkpt><trkpt lat="44.84870087541656" lon="7.714041100848234"><ele>239.71428571428572</ele><time>2026-04-05T16:05:14Z</time></trkpt><trkpt lat="44.84875487218621" lon="7.714096742338512"><ele>239.57142857142858</ele><time>2026-04-05T16:05:15Z</time></trkpt><trkpt lat="44.84880406129608" lon="7.714158771834027"><ele>239.42857142857144</ele><time>2026-04-05T16:05:16Z</time></trkpt><trkpt lat="44.84885547913149" lon="7.714228583991522"><ele>239.28571428571428</ele><time>2026-04-05T16:05:17Z</time></trkpt><trkpt lat="44.84890046338341" lon="7.714318061089945"><ele>239.14285714285717</ele><time>2026-04-05T16:05:18Z</time></trkpt><trkpt lat="44.8489451162908" lon="7.714415008074698"><ele>239.00000000000003</ele><time>2026-04-05T16:05:19Z</time></trkpt><trkpt lat="44.84898794346494" lon="7.714512878038105"><ele>239.00000000000003</ele><time>2026-04-05T16:05:20Z</time></trkpt><trkpt lat="44.84902812723702" lon="7.714614470862423"><ele>239.0</ele><time>2026-04-05T16:05:21Z</time></trkpt><trkpt lat="44.8490667230126" lon="7.714718493890793"><ele>239.0</ele><time>2026-04-05T16:05:22Z</time></trkpt><trkpt lat="44.84910182268072" lon="7.714826550787013"><ele>239.0</ele><time>2026-04-05T16:05:23Z</time></trkpt><trkpt lat="44.849130583820646" lon="7.714928541440836"><ele>239.00000000000003</ele><time>2026-04-05T16:05:24Z</time></trkpt><trkpt lat="44.84916030756653" lon="7.715030159085227"><ele>239.0</ele><time>2026-04-05T16:05:25Z</time></trkpt><trkpt lat="44.849187308610404" lon="7.715125512494374"><ele>239.00000000000003</ele><time>2026-04-05T16:05:26Z</time></trkpt><trkpt lat="44.849210275322335" lon="7.715221417644837"><ele>239.0</ele><time>2026-04-05T16:05:27Z</time></trkpt><trkpt lat="44.849232396678744" lon="7.715316397048508"><ele>239.00000000000003</ele><time>2026-04-05T16:05:28Z</time></trkpt><trkpt lat="44.849252532524346" lon="7.715408144986938"><ele>239.00000000000003</ele><time>2026-04-05T16:05:29Z</time></trkpt><trkpt lat="44.84926657456782" lon="7.715496984547372"><ele>239.0</ele><time>2026-04-05T16:05:30Z</time></trkpt><trkpt lat="44.84927181539836" lon="7.715589104598485"><ele>239.00000000000003</ele><time>2026-04-05T16:05:31Z</time></trkpt><trkpt lat="44.849278740132384" lon="7.715683901632436"><ele>239.00000000000003</ele><time>2026-04-05T16:05:32Z</time></trkpt><trkpt lat="44.84929562184362" lon="7.715783618381599"><ele>239.2</ele><time>2026-04-05T16:05:33Z</time></trkpt><trkpt lat="44.849322846254964" lon="7.7158878240615"><ele>239.39999999999998</ele><time>2026-04-05T16:05:34Z</time></trkpt><trkpt lat="44.849356887856416" lon="7.716019110539661"><ele>239.6</ele><time>2026-04-05T16:05:35Z</time></trkpt><trkpt lat="44.8493974299187" lon="7.716172767072143"><ele>239.8</ele><time>2026-04-05T16:05:36Z</time></trkpt><trkpt lat="44.849432774757034" lon="7.716349191664452"><ele>240.0</ele><time>2026-04-05T16:05:37Z</time></trkpt><trkpt lat="44.84946545425067" lon="7.71654136888348"><ele>239.33333333333331</ele><time>2026-04-05T16:05:38Z</time></trkpt><trkpt lat="44.84949993767106" lon="7.716746875290118"><ele>238.66666666666666</ele><time>2026-04-05T16:05:39Z</time></trkpt><trkpt lat="44.849537709346954" lon="7.716951307495128"><ele>238.0</ele><time>2026-04-05T16:05:40Z</time></trkpt><trkpt lat="44.84957762462999" lon="7.717161916523692"><ele>238.0</ele><time>2026-04-05T16:05:41Z</time></trkpt><trkpt lat="44.849617678778735" lon="7.717374448225791"><ele>238.0</ele><time>2026-04-05T16:05:42Z</time></trkpt><trkpt lat="44.849658375371206" lon="7.717588998058172"><ele>238.0</ele><time>2026-04-05T16:05:43Z</time></trkpt><trkpt lat="44.84969716011677" lon="7.717798251787829"><ele>238.0</ele><time>2026-04-05T16:05:44Z</time></trkpt><trkpt lat="44.84973407144271" lon="7.717989577473349"><ele>238.0</ele><time>2026-04-05T16:05:45Z</time></trkpt><trkpt lat="44.84976728658337" lon="7.718171932074312"><ele>238.0</ele><time>2026-04-05T16:05:46Z</time></trkpt><trkpt lat="44.849801010968186" lon="7.718340598777992"><ele>238.0</ele><time>2026-04-05T16:05:47Z</time></trkpt><trkpt lat="44.84983118105635" lon="7.718494872824537"><ele>238.0</ele><time>2026-04-05T16:05:48Z</time></trkpt><trkpt lat="44.84986158119532" lon="7.718633352137984"><ele>238.0</ele><time>2026-04-05T16:05:49Z</time></trkpt><trkpt lat="44.84989643486358" lon="7.718767510798813"><ele>238.0</ele><time>2026-04-05T16:05:50Z</time></trkpt><trkpt lat="44.849924122670195" lon="7.7189133185029535"><ele>238.0</ele><time>2026-04-05T16:05:51Z</time></trkpt><trkpt lat="44.849951429893075" lon="7.71902948140935"><ele>238.0</ele><time>2026-04-05T16:05:52Z</time></trkpt><trkpt lat="44.84997524917478" lon="7.719154484053176"><ele>238.0</ele><time>2026-04-05T16:05:53Z</time></trkpt><trkpt lat="44.84999479315153" lon="7.719384290472605"><ele>238.0</ele><time>2026-04-05T16:05:54Z</time></trkpt><trkpt lat="44.850028325685685" lon="7.719548231573532"><ele>238.0</ele><time>2026-04-05T16:05:55Z</time></trkpt><trkpt lat="44.850058649485064" lon="7.7197127215851005"><ele>238.0</ele><time>2026-04-05T16:05:56Z</time></trkpt><trkpt lat="44.850088789716736" lon="7.71987280891939"><ele>238.25</ele><time>2026-04-05T16:05:57Z</time></trkpt><trkpt lat="44.8501187330508" lon="7.72003320456427"><ele>238.5</ele><time>2026-04-05T16:05:58Z</time></trkpt><trkpt lat="44.85014930709697" lon="7.720190445869659"><ele>238.75</ele><time>2026-04-05T16:05:59Z</time></trkpt><trkpt lat="44.85018149282547" lon="7.720343669383576"><ele>239.0</ele><time>2026-04-05T16:06:00Z</time></trkpt><trkpt lat="44.850210311873454" lon="7.7204969336951095"><ele>239.2</ele><time>2026-04-05T16:06:01Z</time></trkpt><trkpt lat="44.8502401255213" lon="7.720646380034748"><ele>239.39999999999998</ele><time>2026-04-05T16:06:02Z</time></trkpt><trkpt lat="44.85027079090915" lon="7.720795845417268"><ele>239.6</ele><time>2026-04-05T16:06:03Z</time></trkpt><trkpt lat="44.850299706385755" lon="7.720947775770499"><ele>239.8</ele><time>2026-04-05T16:06:04Z</time></trkpt><trkpt lat="44.85032964970452" lon="7.721101722968482"><ele>240.0</ele><time>2026-04-05T16:06:05Z</time></trkpt><trkpt lat="44.850361538441675" lon="7.721259673586167"><ele>240.0</ele><time>2026-04-05T16:06:06Z</time></trkpt><trkpt lat="44.850390581537035" lon="7.721420739262466"><ele>240.0</ele><time>2026-04-05T16:06:07Z</time></trkpt><trkpt lat="44.85042033360148" lon="7.7215851010805645"><ele>240.0</ele><time>2026-04-05T16:06:08Z</time></trkpt><trkpt lat="44.85045128671509" lon="7.721751399209251"><ele>240.0</ele><time>2026-04-05T16:06:09Z</time></trkpt><trkpt lat="44.85048408470944" lon="7.721918166876616"><ele>240.0</ele><time>2026-04-05T16:06:10Z</time></trkpt><trkpt lat="44.850515748284316" lon="7.722083958000932"><ele>240.0</ele><time>2026-04-05T16:06:11Z</time></trkpt><trkpt lat="44.85054508571664" lon="7.722250711059272"><ele>240.0</ele><time>2026-04-05T16:06:12Z</time></trkpt><trkpt lat="44.85057478787547" lon="7.722419696130719"><ele>240.0</ele><time>2026-04-05T16:06:13Z</time></trkpt><trkpt lat="44.85060703948119" lon="7.722588040112858"><ele>239.8</ele><time>2026-04-05T16:06:14Z</time></trkpt><trkpt lat="44.850638458597885" lon="7.722752578832255"><ele>239.6</ele><time>2026-04-05T16:06:15Z</time></trkpt><trkpt lat="44.85066531865326" lon="7.722901705986518"><ele>239.39999999999998</ele><time>2026-04-05T16:06:16Z</time></trkpt><trkpt lat="44.85069127515129" lon="7.723040497111803"><ele>239.2</ele><time>2026-04-05T16:06:17Z</time></trkpt><trkpt lat="44.850716481148275" lon="7.723166893655959"><ele>239.0</ele><time>2026-04-05T16:06:18Z</time></trkpt><trkpt lat="44.85073791035192" lon="7.72328379334598"><ele>239.00000000000003</ele><time>2026-04-05T16:06:19Z</time></trkpt><trkpt lat="44.85075900416111" lon="7.723394160214023"><ele>239.0</ele><time>2026-04-05T16:06:20Z</time></trkpt><trkpt lat="44.85077854137102" lon="7.723492191556592"><ele>239.0</ele><time>2026-04-05T16:06:21Z</time></trkpt><trkpt lat="44.850796701357794" lon="7.723582763068134"><ele>239.0</ele><time>2026-04-05T16:06:22Z</time></trkpt><trkpt lat="44.85082704440247" lon="7.723738015965856"><ele>239.00000000000003</ele><time>2026-04-05T16:06:24Z</time></trkpt><trkpt lat="44.85084042053905" lon="7.723828351103821"><ele>239.0</ele><time>2026-04-05T16:06:26Z</time></trkpt><trkpt lat="44.85085900234216" lon="7.723945026042381"><ele>239.0</ele><time>2026-04-05T16:06:29Z</time></trkpt><trkpt lat="44.850883965288695" lon="7.724056971710787"><ele>238.99999999999997</ele><time>2026-04-05T16:06:31Z</time></trkpt><trkpt lat="44.850910556546324" lon="7.724183822792376"><ele>238.99999999999997</ele><time>2026-04-05T16:06:33Z</time></trkpt><trkpt lat="44.85094477002694" lon="7.7243454267297125"><ele>239.0</ele><time>2026-04-05T16:06:35Z</time></trkpt><trkpt lat="44.85097766822608" lon="7.724508056122347"><ele>239.0</ele><time>2026-04-05T16:06:37Z</time></trkpt><trkpt lat="44.85100139566221" lon="7.724592867026188"><ele>239.16666666666669</ele><time>2026-04-05T16:06:38Z</time></trkpt><trkpt lat="44.8510188932559" lon="7.724683614392161"><ele>239.33333333333334</ele><time>2026-04-05T16:06:39Z</time></trkpt><trkpt lat="44.85109792683565" lon="7.72472345613792"><ele>239.5</ele><time>2026-04-05T16:06:40Z</time></trkpt><trkpt lat="44.85114855502159" lon="7.724784881821092"><ele>239.66666666666669</ele><time>2026-04-05T16:06:41Z</time></trkpt><trkpt lat="44.85119476772777" lon="7.724849062471707"><ele>239.83333333333334</ele><time>2026-04-05T16:06:42Z</time></trkpt><trkpt lat="44.851321646334995" lon="7.724884490407383"><ele>240.0</ele><time>2026-04-05T16:06:44Z</time></trkpt><trkpt lat="44.85139100146245" lon="7.724834270828115"><ele>240.0</ele><time>2026-04-05T16:06:45Z</time></trkpt><trkpt lat="44.851464452145784" lon="7.724767965030951"><ele>240.0</ele><time>2026-04-05T16:06:46Z</time></trkpt><trkpt lat="44.851539598053485" lon="7.724728793404817"><ele>240.0</ele><time>2026-04-05T16:06:47Z</time></trkpt><trkpt lat="44.851619450610386" lon="7.724703068516789"><ele>240.0</ele><time>2026-04-05T16:06:48Z</time></trkpt><trkpt lat="44.851708346758066" lon="7.724690721345034"><ele>240.0</ele><time>2026-04-05T16:06:49Z</time></trkpt><trkpt lat="44.85180364443609" lon="7.724678104005211"><ele>240.0</ele><time>2026-04-05T16:06:50Z</time></trkpt><trkpt lat="44.85189811713836" lon="7.7246594308387735"><ele>239.6</ele><time>2026-04-05T16:06:51Z</time></trkpt><trkpt lat="44.851994898204936" lon="7.72464538830454"><ele>239.2</ele><time>2026-04-05T16:06:52Z</time></trkpt><trkpt lat="44.852094179152516" lon="7.724634018960804"><ele>238.8</ele><time>2026-04-05T16:06:53Z</time></trkpt><trkpt lat="44.85219414859869" lon="7.724619296241827"><ele>238.4</ele><time>2026-04-05T16:06:54Z</time></trkpt><trkpt lat="44.85229190208137" lon="7.724605217207954"><ele>238.0</ele><time>2026-04-05T16:06:55Z</time></trkpt><trkpt lat="44.85238903150526" lon="7.724586665786698"><ele>238.0</ele><time>2026-04-05T16:06:56Z</time></trkpt><trkpt lat="44.85248401637955" lon="7.724567281319766"><ele>238.0</ele><time>2026-04-05T16:06:57Z</time></trkpt><trkpt lat="44.85257851520233" lon="7.7245486126604"><ele>238.0</ele><time>2026-04-05T16:06:58Z</time></trkpt><trkpt lat="44.85267395950495" lon="7.724529421183953"><ele>238.0</ele><time>2026-04-05T16:06:59Z</time></trkpt><trkpt lat="44.852759434944005" lon="7.724511769401824"><ele>238.0</ele><time>2026-04-05T16:07:00Z</time></trkpt><trkpt lat="44.852835716861755" lon="7.724498559639829"><ele>238.28571428571428</ele><time>2026-04-05T16:07:01Z</time></trkpt><trkpt lat="44.85290626401068" lon="7.724486615151994"><ele>238.57142857142856</ele><time>2026-04-05T16:07:02Z</time></trkpt><trkpt lat="44.85297263004738" lon="7.724471377263592"><ele>238.85714285714286</ele><time>2026-04-05T16:07:03Z</time></trkpt><trkpt lat="44.85303983423158" lon="7.7244560916581095"><ele>239.14285714285714</ele><time>2026-04-05T16:07:04Z</time></trkpt><trkpt lat="44.8531079577784" lon="7.724443539782323"><ele>239.42857142857142</ele><time>2026-04-05T16:07:05Z</time></trkpt><trkpt lat="44.85317667245122" lon="7.724429376643579"><ele>239.71428571428572</ele><time>2026-04-05T16:07:06Z</time></trkpt><trkpt lat="44.85325030241841" lon="7.7244123500788175"><ele>240.0</ele><time>2026-04-05T16:07:07Z</time></trkpt><trkpt lat="44.85333414796858" lon="7.724393888229515"><ele>240.0</ele><time>2026-04-05T16:07:08Z</time></trkpt><trkpt lat="44.853422294248446" lon="7.724377049829079"><ele>240.0</ele><time>2026-04-05T16:07:09Z</time></trkpt><trkpt lat="44.853518718481574" lon="7.724358148678503"><ele>240.0</ele><time>2026-04-05T16:07:10Z</time></trkpt><trkpt lat="44.85361974871853" lon="7.724336688696783"><ele>240.0</ele><time>2026-04-05T16:07:11Z</time></trkpt><trkpt lat="44.85372521085652" lon="7.724312724584149"><ele>240.0</ele><time>2026-04-05T16:07:12Z</time></trkpt><trkpt lat="44.85382826889935" lon="7.724287983860548"><ele>240.0</ele><time>2026-04-05T16:07:13Z</time></trkpt><trkpt lat="44.853941876234366" lon="7.724272654285936"><ele>240.0</ele><time>2026-04-05T16:07:14Z</time></trkpt><trkpt lat="44.854062870169045" lon="7.724248631153043"><ele>240.0</ele><time>2026-04-05T16:07:15Z</time></trkpt><trkpt lat="44.85418865022585" lon="7.724217436139576"><ele>240.0</ele><time>2026-04-05T16:07:16Z</time></trkpt><trkpt lat="44.854311046494324" lon="7.724188664373803"><ele>239.8</ele><time>2026-04-05T16:07:17Z</time></trkpt><trkpt lat="44.85442177546885" lon="7.724185659581793"><ele>239.6</ele><time>2026-04-05T16:07:18Z</time></trkpt><trkpt lat="44.854522615686804" lon="7.7241474204846705"><ele>239.39999999999998</ele><time>2026-04-05T16:07:19Z</time></trkpt><trkpt lat="44.85461720829982" lon="7.724131452731947"><ele>239.2</ele><time>2026-04-05T16:07:20Z</time></trkpt><trkpt lat="44.854716294548396" lon="7.724106848324567"><ele>239.0</ele><time>2026-04-05T16:07:21Z</time></trkpt><trkpt lat="44.85481441161184" lon="7.7240936471951755"><ele>239.0</ele><time>2026-04-05T16:07:22Z</time></trkpt><trkpt lat="44.85491272376113" lon="7.724084407469347"><ele>238.99999999999997</ele><time>2026-04-05T16:07:23Z</time></trkpt><trkpt lat="44.855019370913254" lon="7.724059058581112"><ele>238.99999999999997</ele><time>2026-04-05T16:07:24Z</time></trkpt><trkpt lat="44.85512971150131" lon="7.724040908634779"><ele>239.0</ele><time>2026-04-05T16:07:25Z</time></trkpt><trkpt lat="44.85523574135669" lon="7.724011837906039"><ele>239.0</ele><time>2026-04-05T16:07:26Z</time></trkpt><trkpt lat="44.85534102202609" lon="7.723988859982788"><ele>239.0</ele><time>2026-04-05T16:07:27Z</time></trkpt><trkpt lat="44.855446934039584" lon="7.723971466134665"><ele>238.99999999999997</ele><time>2026-04-05T16:07:28Z</time></trkpt><trkpt lat="44.85554837032522" lon="7.723950442026693"><ele>238.99999999999997</ele><time>2026-04-05T16:07:29Z</time></trkpt><trkpt lat="44.85565527986593" lon="7.723924027883819"><ele>239.0</ele><time>2026-04-05T16:07:30Z</time></trkpt><trkpt lat="44.85576248914948" lon="7.723905600616557"><ele>239.0</ele><time>2026-04-05T16:07:31Z</time></trkpt><trkpt lat="44.85586772611893" lon="7.723886723143165"><ele>239.6</ele><time>2026-04-05T16:07:32Z</time></trkpt><trkpt lat="44.855972908828406" lon="7.723866543932168"><ele>240.2</ele><time>2026-04-05T16:07:33Z</time></trkpt><trkpt lat="44.856078931992" lon="7.723846885241692"><ele>240.79999999999998</ele><time>2026-04-05T16:07:34Z</time></trkpt><trkpt lat="44.85618405125501" lon="7.7238285360350245"><ele>241.39999999999998</ele><time>2026-04-05T16:07:35Z</time></trkpt><trkpt lat="44.85628186108846" lon="7.723807622218012"><ele>242.0</ele><time>2026-04-05T16:07:36Z</time></trkpt><trkpt lat="44.856378639631764" lon="7.723788445086169"><ele>242.0</ele><time>2026-04-05T16:07:37Z</time></trkpt><trkpt lat="44.85646785254574" lon="7.7237721641529475"><ele>242.0</ele><time>2026-04-05T16:07:38Z</time></trkpt><trkpt lat="44.856560921123766" lon="7.723752125387347"><ele>242.0</ele><time>2026-04-05T16:07:39Z</time></trkpt><trkpt lat="44.856654427049136" lon="7.723736804763875"><ele>242.0</ele><time>2026-04-05T16:07:40Z</time></trkpt><trkpt lat="44.856735228999305" lon="7.72371770372228"><ele>242.0</ele><time>2026-04-05T16:07:41Z</time></trkpt><trkpt lat="44.85682416969472" lon="7.723701199151664"><ele>242.50000000000003</ele><time>2026-04-05T16:07:42Z</time></trkpt><trkpt lat="44.856914564508486" lon="7.723688258856518"><ele>243.0</ele><time>2026-04-05T16:07:43Z</time></trkpt><trkpt lat="44.857004582703134" lon="7.723681831072274"><ele>243.5</ele><time>2026-04-05T16:07:44Z</time></trkpt><trkpt lat="44.85711786893906" lon="7.723667078020973"><ele>244.0</ele><time>2026-04-05T16:07:46Z</time></trkpt><trkpt lat="44.85719114812273" lon="7.723664988723035"><ele>244.50000000000003</ele><time>2026-04-05T16:07:48Z</time></trkpt><trkpt lat="44.85718533023618" lon="7.723574360026582"><ele>245.0</ele><time>2026-04-05T16:18:01Z</time></trkpt><trkpt lat="44.85716882418344" lon="7.723485304697307"><ele>244.33333333333334</ele><time>2026-04-05T16:18:32Z</time></trkpt><trkpt lat="44.85726262920162" lon="7.723461061079541"><ele>243.66666666666669</ele><time>2026-04-05T16:18:37Z</time></trkpt><trkpt lat="44.85738267701932" lon="7.723443530738312"><ele>243.0</ele><time>2026-04-05T16:18:39Z</time></trkpt><trkpt lat="44.85745529067829" lon="7.723430320405625"><ele>242.33333333333331</ele><time>2026-04-05T16:18:40Z</time></trkpt><trkpt lat="44.85752275147062" lon="7.723412977792873"><ele>241.66666666666666</ele><time>2026-04-05T16:18:41Z</time></trkpt><trkpt lat="44.85758625643331" lon="7.72339678097312"><ele>241.0</ele><time>2026-04-05T16:18:42Z</time></trkpt><trkpt lat="44.857718700210036" lon="7.723390207235142"><ele>241.0</ele><time>2026-04-05T16:18:44Z</time></trkpt><trkpt lat="44.85778767100717" lon="7.723378971987778"><ele>241.00000000000003</ele><time>2026-04-05T16:18:45Z</time></trkpt><trkpt lat="44.8578579170857" lon="7.723369434940667"><ele>241.0</ele><time>2026-04-05T16:18:46Z</time></trkpt><trkpt lat="44.85793407914796" lon="7.723372467530506"><ele>241.0</ele><time>2026-04-05T16:18:47Z</time></trkpt><trkpt lat="44.85800486516841" lon="7.723387395328503"><ele>241.00000000000003</ele><time>2026-04-05T16:18:48Z</time></trkpt><trkpt lat="44.858074731162695" lon="7.723404952744449"><ele>241.0</ele><time>2026-04-05T16:18:49Z</time></trkpt><trkpt lat="44.85814794177715" lon="7.723401974867876"><ele>241.0</ele><time>2026-04-05T16:18:50Z</time></trkpt><trkpt lat="44.85822222180089" lon="7.723369338423569"><ele>240.99999999999997</ele><time>2026-04-05T16:18:51Z</time></trkpt><trkpt lat="44.85829155769456" lon="7.723321431079114"><ele>241.0</ele><time>2026-04-05T16:18:52Z</time></trkpt><trkpt lat="44.858366558289994" lon="7.7232676636788264"><ele>241.0</ele><time>2026-04-05T16:18:53Z</time></trkpt><trkpt lat="44.858443252215" lon="7.723221538695759"><ele>241.0</ele><time>2026-04-05T16:18:54Z</time></trkpt><trkpt lat="44.858519311005004" lon="7.723192020528035"><ele>240.99999999999997</ele><time>2026-04-05T16:18:55Z</time></trkpt><trkpt lat="44.858588821922275" lon="7.723179326239505"><ele>241.0</ele><time>2026-04-05T16:18:56Z</time></trkpt><trkpt lat="44.858662271990596" lon="7.723211279373553"><ele>241.0</ele><time>2026-04-05T16:18:57Z</time></trkpt><trkpt lat="44.858729491358424" lon="7.72319651971008"><ele>241.00000000000003</ele><time>2026-04-05T16:18:58Z</time></trkpt><trkpt lat="44.85879189414024" lon="7.723153849913781"><ele>241.00000000000003</ele><time>2026-04-05T16:18:59Z</time></trkpt><trkpt lat="44.8588222880667" lon="7.722903406099252"><ele>241.0</ele><time>2026-04-05T16:19:01Z</time></trkpt><trkpt lat="44.85886035375422" lon="7.722792370492578"><ele>241.0</ele><time>2026-04-05T16:19:02Z</time></trkpt><trkpt lat="44.858918263733365" lon="7.7226865746669775"><ele>241.0</ele><time>2026-04-05T16:19:03Z</time></trkpt><trkpt lat="44.85898875044704" lon="7.7225909245710085"><ele>241.0</ele><time>2026-04-05T16:19:04Z</time></trkpt><trkpt lat="44.859068531570585" lon="7.722501232218572"><ele>241.0</ele><time>2026-04-05T16:19:05Z</time></trkpt><trkpt lat="44.859249425875305" lon="7.722322739845279"><ele>241.0</ele><time>2026-04-05T16:19:07Z</time></trkpt><trkpt lat="44.85933656686881" lon="7.722222764468676"><ele>241.0</ele><time>2026-04-05T16:19:08Z</time></trkpt><trkpt lat="44.85942496199079" lon="7.722115316735804"><ele>241.0</ele><time>2026-04-05T16:19:09Z</time></trkpt><trkpt lat="44.8595198294161" lon="7.722009940338041"><ele>241.0</ele><time>2026-04-05T16:19:10Z</time></trkpt><trkpt lat="44.85962717212471" lon="7.721921262476869"><ele>241.0</ele><time>2026-04-05T16:19:11Z</time></trkpt><trkpt lat="44.85972764540049" lon="7.721812507671281"><ele>241.25</ele><time>2026-04-05T16:19:12Z</time></trkpt><trkpt lat="44.85981897054433" lon="7.721685064287584"><ele>241.5</ele><time>2026-04-05T16:19:13Z</time></trkpt><trkpt lat="44.859921779706" lon="7.72157575444243"><ele>241.75</ele><time>2026-04-05T16:19:14Z</time></trkpt><trkpt lat="44.86002329504931" lon="7.721465894579633"><ele>242.0</ele><time>2026-04-05T16:19:15Z</time></trkpt><trkpt lat="44.860128484859025" lon="7.721355871840216"><ele>241.5</ele><time>2026-04-05T16:19:16Z</time></trkpt><trkpt lat="44.86023694458301" lon="7.7212469562407735"><ele>241.0</ele><time>2026-04-05T16:19:17Z</time></trkpt><trkpt lat="44.86033979463586" lon="7.721123260690859"><ele>240.5</ele><time>2026-04-05T16:19:18Z</time></trkpt><trkpt lat="44.860440779714054" lon="7.720995665242252"><ele>240.0</ele><time>2026-04-05T16:19:19Z</time></trkpt><trkpt lat="44.86053908331073" lon="7.720866382221817"><ele>240.0</ele><time>2026-04-05T16:19:20Z</time></trkpt><trkpt lat="44.86063790045087" lon="7.7207368537657874"><ele>240.0</ele><time>2026-04-05T16:19:21Z</time></trkpt><trkpt lat="44.86073337498915" lon="7.720605221449942"><ele>240.0</ele><time>2026-04-05T16:19:22Z</time></trkpt><trkpt lat="44.860829365631574" lon="7.720479851831043"><ele>240.0</ele><time>2026-04-05T16:19:23Z</time></trkpt><trkpt lat="44.86091616401203" lon="7.7203668219801616"><ele>240.0</ele><time>2026-04-05T16:19:24Z</time></trkpt><trkpt lat="44.860994534618705" lon="7.720260789259987"><ele>240.0</ele><time>2026-04-05T16:19:25Z</time></trkpt><trkpt lat="44.86106658209917" lon="7.720164595925877"><ele>240.0</ele><time>2026-04-05T16:19:26Z</time></trkpt><trkpt lat="44.86113197839367" lon="7.72008126151474"><ele>240.0</ele><time>2026-04-05T16:19:27Z</time></trkpt><trkpt lat="44.861197051623584" lon="7.7199946462942775"><ele>240.0</ele><time>2026-04-05T16:19:28Z</time></trkpt><trkpt lat="44.86126690320492" lon="7.71990180016883"><ele>240.0</ele><time>2026-04-05T16:19:29Z</time></trkpt><trkpt lat="44.86134082443948" lon="7.719796817558994"><ele>240.0</ele><time>2026-04-05T16:19:30Z</time></trkpt><trkpt lat="44.86141922617399" lon="7.719684622115735"><ele>240.0</ele><time>2026-04-05T16:19:31Z</time></trkpt><trkpt lat="44.86150222790628" lon="7.719573755715706"><ele>240.0</ele><time>2026-04-05T16:19:32Z</time></trkpt><trkpt lat="44.86158775093183" lon="7.719458545765669"><ele>240.0</ele><time>2026-04-05T16:19:33Z</time></trkpt><trkpt lat="44.861675184612714" lon="7.719341865209053"><ele>240.25</ele><time>2026-04-05T16:19:34Z</time></trkpt><trkpt lat="44.86176276213189" lon="7.719222686720091"><ele>240.5</ele><time>2026-04-05T16:19:35Z</time></trkpt><trkpt lat="44.861853457090405" lon="7.719101618093594"><ele>240.75</ele><time>2026-04-05T16:19:36Z</time></trkpt><trkpt lat="44.8619437510688" lon="7.718978496111033"><ele>241.0</ele><time>2026-04-05T16:19:37Z</time></trkpt><trkpt lat="44.86203370978262" lon="7.718850823874633"><ele>241.0</ele><time>2026-04-05T16:19:38Z</time></trkpt><trkpt lat="44.86211772791741" lon="7.718714768877273"><ele>241.0</ele><time>2026-04-05T16:19:39Z</time></trkpt><trkpt lat="44.86221831761916" lon="7.718609104251497"><ele>241.0</ele><time>2026-04-05T16:19:40Z</time></trkpt><trkpt lat="44.86230429743341" lon="7.718490879768931"><ele>241.0</ele><time>2026-04-05T16:19:41Z</time></trkpt><trkpt lat="44.86239205826317" lon="7.718370237962277"><ele>241.25</ele><time>2026-04-05T16:19:42Z</time></trkpt><trkpt lat="44.862482963169384" lon="7.718245154705411"><ele>241.5</ele><time>2026-04-05T16:19:43Z</time></trkpt><trkpt lat="44.862568001015234" lon="7.7181281444068395"><ele>241.75</ele><time>2026-04-05T16:19:44Z</time></trkpt><trkpt lat="44.86270177656623" lon="7.7179423188757195"><ele>242.0</ele><time>2026-04-05T16:19:45Z</time></trkpt><trkpt lat="44.86279521333601" lon="7.717792506437333"><ele>241.75</ele><time>2026-04-05T16:19:46Z</time></trkpt><trkpt lat="44.862894741422586" lon="7.717653497779608"><ele>241.5</ele><time>2026-04-05T16:19:47Z</time></trkpt><trkpt lat="44.86299041838275" lon="7.717520200267308"><ele>241.25</ele><time>2026-04-05T16:19:48Z</time></trkpt><trkpt lat="44.86308757823796" lon="7.7173870440250605"><ele>241.0</ele><time>2026-04-05T16:19:49Z</time></trkpt><trkpt lat="44.863178787015734" lon="7.717249581842202"><ele>241.0</ele><time>2026-04-05T16:19:50Z</time></trkpt><trkpt lat="44.86327343773913" lon="7.717121046749174"><ele>241.0</ele><time>2026-04-05T16:19:51Z</time></trkpt><trkpt lat="44.863362673413704" lon="7.716992424535143"><ele>241.0</ele><time>2026-04-05T16:19:52Z</time></trkpt><trkpt lat="44.8634529883829" lon="7.716868518542629"><ele>241.0</ele><time>2026-04-05T16:19:53Z</time></trkpt><trkpt lat="44.86354088759459" lon="7.716747896772869"><ele>241.0</ele><time>2026-04-05T16:19:54Z</time></trkpt><trkpt lat="44.86363067609483" lon="7.7166281717739515"><ele>241.0</ele><time>2026-04-05T16:19:55Z</time></trkpt><trkpt lat="44.86371640305447" lon="7.716507179846965"><ele>241.0</ele><time>2026-04-05T16:19:56Z</time></trkpt><trkpt lat="44.8638010516737" lon="7.7163867340824535"><ele>241.0</ele><time>2026-04-05T16:19:57Z</time></trkpt><trkpt lat="44.86388050704823" lon="7.716261850744277"><ele>241.0</ele><time>2026-04-05T16:19:58Z</time></trkpt><trkpt lat="44.86396538962639" lon="7.7161424600690784"><ele>241.0</ele><time>2026-04-05T16:19:59Z</time></trkpt><trkpt lat="44.86404717108457" lon="7.716026729154002"><ele>241.0</ele><time>2026-04-05T16:20:00Z</time></trkpt><trkpt lat="44.864135914429035" lon="7.715917890899309"><ele>241.0</ele><time>2026-04-05T16:20:01Z</time></trkpt><trkpt lat="44.86423247930115" lon="7.7158235141324365"><ele>240.75</ele><time>2026-04-05T16:20:02Z</time></trkpt><trkpt lat="44.864350450845855" lon="7.715763456447349"><ele>240.5</ele><time>2026-04-05T16:20:03Z</time></trkpt><trkpt lat="44.86445879051066" lon="7.715675156121026"><ele>240.25</ele><time>2026-04-05T16:20:04Z</time></trkpt><trkpt lat="44.86457334245458" lon="7.715598809307727"><ele>240.0</ele><time>2026-04-05T16:20:05Z</time></trkpt><trkpt lat="44.86469027870153" lon="7.715507863392494"><ele>240.0</ele><time>2026-04-05T16:20:06Z</time></trkpt><trkpt lat="44.86481958526093" lon="7.715419414804996"><ele>240.0</ele><time>2026-04-05T16:20:07Z</time></trkpt><trkpt lat="44.86493946433299" lon="7.715324711899644"><ele>240.0</ele><time>2026-04-05T16:20:08Z</time></trkpt><trkpt lat="44.86506415011807" lon="7.715238462905845"><ele>240.0</ele><time>2026-04-05T16:20:09Z</time></trkpt><trkpt lat="44.86518990409804" lon="7.71514476651557"><ele>240.0</ele><time>2026-04-05T16:20:10Z</time></trkpt><trkpt lat="44.865317775047814" lon="7.715045735229417"><ele>240.0</ele><time>2026-04-05T16:20:11Z</time></trkpt><trkpt lat="44.86544647533199" lon="7.71495337899797"><ele>240.0</ele><time>2026-04-05T16:20:12Z</time></trkpt><trkpt lat="44.86557925053987" lon="7.71487060884573"><ele>240.0</ele><time>2026-04-05T16:20:13Z</time></trkpt><trkpt lat="44.86571902873085" lon="7.714782325387776"><ele>240.0</ele><time>2026-04-05T16:20:14Z</time></trkpt><trkpt lat="44.86585808275295" lon="7.71469645887898"><ele>240.0</ele><time>2026-04-05T16:20:15Z</time></trkpt><trkpt lat="44.86600017469689" lon="7.714615919020754"><ele>240.0</ele><time>2026-04-05T16:20:16Z</time></trkpt><trkpt lat="44.86614949920242" lon="7.714530929959409"><ele>239.66666666666669</ele><time>2026-04-05T16:20:17Z</time></trkpt><trkpt lat="44.8662976646937" lon="7.714440418457808"><ele>239.33333333333334</ele><time>2026-04-05T16:20:18Z</time></trkpt><trkpt lat="44.86644508662743" lon="7.7143571364199035"><ele>239.0</ele><time>2026-04-05T16:20:19Z</time></trkpt><trkpt lat="44.86659751200849" lon="7.714267039572345"><ele>239.33333333333334</ele><time>2026-04-05T16:20:20Z</time></trkpt><trkpt lat="44.866749522184726" lon="7.714178590873286"><ele>239.66666666666669</ele><time>2026-04-05T16:20:21Z</time></trkpt><trkpt lat="44.866900171783314" lon="7.714088074743108"><ele>240.0</ele><time>2026-04-05T16:20:22Z</time></trkpt><trkpt lat="44.867046914777376" lon="7.714000120955951"><ele>240.0</ele><time>2026-04-05T16:20:23Z</time></trkpt><trkpt lat="44.867181529570566" lon="7.713925467723266"><ele>240.0</ele><time>2026-04-05T16:20:24Z</time></trkpt><trkpt lat="44.86743796500167" lon="7.713791757636583"><ele>240.0</ele><time>2026-04-05T16:20:26Z</time></trkpt><trkpt lat="44.86756075427898" lon="7.713725502426309"><ele>239.75</ele><time>2026-04-05T16:20:27Z</time></trkpt><trkpt lat="44.867672684675256" lon="7.713655797376151"><ele>239.5</ele><time>2026-04-05T16:20:28Z</time></trkpt><trkpt lat="44.86778451695406" lon="7.713577292045784"><ele>239.25</ele><time>2026-04-05T16:20:29Z</time></trkpt><trkpt lat="44.86789610685618" lon="7.713496857387006"><ele>239.0</ele><time>2026-04-05T16:20:30Z</time></trkpt><trkpt lat="44.868001588213545" lon="7.713426901757807"><ele>239.0</ele><time>2026-04-05T16:20:31Z</time></trkpt><trkpt lat="44.86811377626145" lon="7.713355319269597"><ele>239.0</ele><time>2026-04-05T16:20:32Z</time></trkpt><trkpt lat="44.86823514175643" lon="7.713304935100156"><ele>239.0</ele><time>2026-04-05T16:20:33Z</time></trkpt><trkpt lat="44.868355748244255" lon="7.71325517291863"><ele>239.0</ele><time>2026-04-05T16:20:34Z</time></trkpt><trkpt lat="44.86847761342329" lon="7.7131854562207"><ele>239.0</ele><time>2026-04-05T16:20:35Z</time></trkpt><trkpt lat="44.86860434499238" lon="7.713099400849188"><ele>239.0</ele><time>2026-04-05T16:20:36Z</time></trkpt><trkpt lat="44.86873673150247" lon="7.713020365979182"><ele>239.0</ele><time>2026-04-05T16:20:37Z</time></trkpt><trkpt lat="44.868873154959836" lon="7.712944772599635"><ele>239.0</ele><time>2026-04-05T16:20:38Z</time></trkpt><trkpt lat="44.86901038548221" lon="7.712852656400082"><ele>239.0</ele><time>2026-04-05T16:20:39Z</time></trkpt><trkpt lat="44.869153184642386" lon="7.712746942152363"><ele>239.0</ele><time>2026-04-05T16:20:40Z</time></trkpt><trkpt lat="44.8692929648735" lon="7.712627382263111"><ele>239.0</ele><time>2026-04-05T16:20:41Z</time></trkpt><trkpt lat="44.86942469896375" lon="7.71248237797592"><ele>238.66666666666669</ele><time>2026-04-05T16:20:42Z</time></trkpt><trkpt lat="44.86954599828141" lon="7.712313805506681"><ele>238.33333333333331</ele><time>2026-04-05T16:20:43Z</time></trkpt><trkpt lat="44.86965586419975" lon="7.712123313215407"><ele>238.0</ele><time>2026-04-05T16:20:44Z</time></trkpt><trkpt lat="44.86975544366909" lon="7.711917410911421"><ele>237.33333333333331</ele><time>2026-04-05T16:20:45Z</time></trkpt><trkpt lat="44.86985593284695" lon="7.711705907312538"><ele>236.66666666666669</ele><time>2026-04-05T16:20:46Z</time></trkpt><trkpt lat="44.869958075195406" lon="7.711493746564948"><ele>236.0</ele><time>2026-04-05T16:20:47Z</time></trkpt><trkpt lat="44.87005886429112" lon="7.7112806571033605"><ele>237.33333333333334</ele><time>2026-04-05T16:20:48Z</time></trkpt><trkpt lat="44.87015912172026" lon="7.711068026137636"><ele>238.66666666666669</ele><time>2026-04-05T16:20:49Z</time></trkpt><trkpt lat="44.87026160139407" lon="7.710855242830651"><ele>240.0</ele><time>2026-04-05T16:20:50Z</time></trkpt><trkpt lat="44.87036158235202" lon="7.710644248658681"><ele>240.0</ele><time>2026-04-05T16:20:51Z</time></trkpt><trkpt lat="44.870456343814794" lon="7.7104490288054075"><ele>240.0</ele><time>2026-04-05T16:20:52Z</time></trkpt><trkpt lat="44.870546773000775" lon="7.710264208956401"><ele>240.0</ele><time>2026-04-05T16:20:53Z</time></trkpt><trkpt lat="44.870633716020535" lon="7.710077287778923"><ele>240.0</ele><time>2026-04-05T16:20:54Z</time></trkpt><trkpt lat="44.870722540742044" lon="7.7098877930736105"><ele>240.0</ele><time>2026-04-05T16:20:55Z</time></trkpt><trkpt lat="44.87081484230021" lon="7.70969716329395"><ele>240.0</ele><time>2026-04-05T16:20:56Z</time></trkpt><trkpt lat="44.87090579796073" lon="7.70950440147598"><ele>239.66666666666669</ele><time>2026-04-05T16:20:57Z</time></trkpt><trkpt lat="44.87099656955877" lon="7.709313777448588"><ele>239.33333333333334</ele><time>2026-04-05T16:20:58Z</time></trkpt><trkpt lat="44.87108718129118" lon="7.709130610215606"><ele>239.0</ele><time>2026-04-05T16:20:59Z</time></trkpt><trkpt lat="44.871179976086545" lon="7.708939231889356"><ele>239.0</ele><time>2026-04-05T16:21:00Z</time></trkpt><trkpt lat="44.87127012085891" lon="7.7087439512883"><ele>239.0</ele><time>2026-04-05T16:21:01Z</time></trkpt><trkpt lat="44.87136221157805" lon="7.708549487863228"><ele>239.0</ele><time>2026-04-05T16:21:02Z</time></trkpt><trkpt lat="44.87145673253188" lon="7.708352185907527"><ele>239.0</ele><time>2026-04-05T16:21:03Z</time></trkpt><trkpt lat="44.8715541073812" lon="7.708152297211972"><ele>239.0</ele><time>2026-04-05T16:21:04Z</time></trkpt><trkpt lat="44.87165509248566" lon="7.707945059950519"><ele>239.0</ele><time>2026-04-05T16:21:05Z</time></trkpt><trkpt lat="44.871752590394756" lon="7.70773999887577"><ele>238.0</ele><time>2026-04-05T16:21:06Z</time></trkpt><trkpt lat="44.871851079007854" lon="7.707529466571394"><ele>237.0</ele><time>2026-04-05T16:21:07Z</time></trkpt><trkpt lat="44.871951000873565" lon="7.7073185294261135"><ele>236.0</ele><time>2026-04-05T16:21:08Z</time></trkpt><trkpt lat="44.872052382568405" lon="7.707102514324802"><ele>234.66666666666669</ele><time>2026-04-05T16:21:09Z</time></trkpt><trkpt lat="44.872154660064986" lon="7.7068850286998565"><ele>233.33333333333331</ele><time>2026-04-05T16:21:10Z</time></trkpt><trkpt lat="44.87225811425939" lon="7.706664440697835"><ele>232.0</ele><time>2026-04-05T16:21:11Z</time></trkpt><trkpt lat="44.8723624373219" lon="7.706440296559782"><ele>232.0</ele><time>2026-04-05T16:21:12Z</time></trkpt><trkpt lat="44.87247032006427" lon="7.706215036869959"><ele>232.0</ele><time>2026-04-05T16:21:13Z</time></trkpt><trkpt lat="44.87257813656552" lon="7.705988256405902"><ele>232.0</ele><time>2026-04-05T16:21:14Z</time></trkpt><trkpt lat="44.87268850586872" lon="7.705761805128556"><ele>232.0</ele><time>2026-04-05T16:21:15Z</time></trkpt><trkpt lat="44.87278888704533" lon="7.705545076350054"><ele>232.0</ele><time>2026-04-05T16:21:16Z</time></trkpt><trkpt lat="44.872888706066924" lon="7.705333212606425"><ele>232.0</ele><time>2026-04-05T16:21:17Z</time></trkpt><trkpt lat="44.872987939945915" lon="7.705120944917565"><ele>232.0</ele><time>2026-04-05T16:21:18Z</time></trkpt><trkpt lat="44.873089618993646" lon="7.704907961651193"><ele>232.0</ele><time>2026-04-05T16:21:19Z</time></trkpt><trkpt lat="44.87318912986352" lon="7.704699269848143"><ele>232.0</ele><time>2026-04-05T16:21:20Z</time></trkpt><trkpt lat="44.87328959496649" lon="7.7044880303843675"><ele>231.33333333333331</ele><time>2026-04-05T16:21:21Z</time></trkpt><trkpt lat="44.8733916547423" lon="7.7042732983706035"><ele>230.66666666666669</ele><time>2026-04-05T16:21:22Z</time></trkpt><trkpt lat="44.87349235102093" lon="7.704055662797488"><ele>230.0</ele><time>2026-04-05T16:21:23Z</time></trkpt><trkpt lat="44.873594816950835" lon="7.703838136626614"><ele>230.0</ele><time>2026-04-05T16:21:24Z</time></trkpt><trkpt lat="44.87369363634892" lon="7.7036341888765705"><ele>230.0</ele><time>2026-04-05T16:21:25Z</time></trkpt><trkpt lat="44.87378833953471" lon="7.703427889421143"><ele>230.0</ele><time>2026-04-05T16:21:26Z</time></trkpt><trkpt lat="44.87388562872144" lon="7.703221543795558"><ele>230.66666666666669</ele><time>2026-04-05T16:21:27Z</time></trkpt><trkpt lat="44.873983161952545" lon="7.703014460086815"><ele>231.33333333333331</ele><time>2026-04-05T16:21:28Z</time></trkpt><trkpt lat="44.87407932598556" lon="7.70281049292629"><ele>232.0</ele><time>2026-04-05T16:21:29Z</time></trkpt><trkpt lat="44.87417339409811" lon="7.702613613344228"><ele>232.0</ele><time>2026-04-05T16:21:30Z</time></trkpt><trkpt lat="44.87426383504141" lon="7.702422995504904"><ele>232.0</ele><time>2026-04-05T16:21:31Z</time></trkpt><trkpt lat="44.874353611942695" lon="7.702232404626206"><ele>232.0</ele><time>2026-04-05T16:21:32Z</time></trkpt><trkpt lat="44.87444310211556" lon="7.702043600704999"><ele>232.33333333333331</ele><time>2026-04-05T16:21:33Z</time></trkpt><trkpt lat="44.87453121746274" lon="7.701856822284753"><ele>232.66666666666669</ele><time>2026-04-05T16:21:34Z</time></trkpt><trkpt lat="44.87462108142403" lon="7.70167213136627"><ele>233.0</ele><time>2026-04-05T16:21:35Z</time></trkpt><trkpt lat="44.87470576478567" lon="7.701489205554842"><ele>233.0</ele><time>2026-04-05T16:21:36Z</time></trkpt><trkpt lat="44.87479505587806" lon="7.701301612324814"><ele>233.0</ele><time>2026-04-05T16:21:37Z</time></trkpt><trkpt lat="44.87488277173294" lon="7.701117856342064"><ele>233.0</ele><time>2026-04-05T16:21:38Z</time></trkpt><trkpt lat="44.874975823429956" lon="7.700932480034241"><ele>233.0</ele><time>2026-04-05T16:21:39Z</time></trkpt><trkpt lat="44.87506540819547" lon="7.700741217494418"><ele>233.0</ele><time>2026-04-05T16:21:40Z</time></trkpt><trkpt lat="44.875155146589066" lon="7.70055005061423"><ele>233.0</ele><time>2026-04-05T16:21:41Z</time></trkpt><trkpt lat="44.87524462999308" lon="7.700360085385861"><ele>233.33333333333334</ele><time>2026-04-05T16:21:42Z</time></trkpt><trkpt lat="44.87533579230254" lon="7.700169662147867"><ele>233.66666666666669</ele><time>2026-04-05T16:21:43Z</time></trkpt><trkpt lat="44.87542901364955" lon="7.699977889220475"><ele>234.0</ele><time>2026-04-05T16:21:44Z</time></trkpt><trkpt lat="44.87552254756521" lon="7.699782842011355"><ele>234.0</ele><time>2026-04-05T16:21:45Z</time></trkpt><trkpt lat="44.87561323283843" lon="7.6995890800861915"><ele>234.0</ele><time>2026-04-05T16:21:46Z</time></trkpt><trkpt lat="44.875703252281944" lon="7.699394238997712"><ele>234.0</ele><time>2026-04-05T16:21:47Z</time></trkpt><trkpt lat="44.87579318732464" lon="7.699202400900993"><ele>233.66666666666669</ele><time>2026-04-05T16:21:48Z</time></trkpt><trkpt lat="44.87588516447108" lon="7.699007663318429"><ele>233.33333333333334</ele><time>2026-04-05T16:21:49Z</time></trkpt><trkpt lat="44.87597869506071" lon="7.698813259225627"><ele>233.0</ele><time>2026-04-05T16:21:50Z</time></trkpt><trkpt lat="44.87607097542328" lon="7.698621460993712"><ele>231.66666666666669</ele><time>2026-04-05T16:21:51Z</time></trkpt><trkpt lat="44.87616263486687" lon="7.698424475353408"><ele>230.33333333333331</ele><time>2026-04-05T16:21:52Z</time></trkpt><trkpt lat="44.87625537710418" lon="7.698231534066278"><ele>229.0</ele><time>2026-04-05T16:21:53Z</time></trkpt><trkpt lat="44.87634628463845" lon="7.698043196154578"><ele>229.0</ele><time>2026-04-05T16:21:54Z</time></trkpt><trkpt lat="44.87643562138284" lon="7.697855766922245"><ele>229.0</ele><time>2026-04-05T16:21:55Z</time></trkpt><trkpt lat="44.87652754920191" lon="7.6976645019242405"><ele>229.0</ele><time>2026-04-05T16:21:56Z</time></trkpt><trkpt lat="44.87662008073708" lon="7.697473981222842"><ele>229.0</ele><time>2026-04-05T16:21:57Z</time></trkpt><trkpt lat="44.87671024991172" lon="7.697288313722789"><ele>229.0</ele><time>2026-04-05T16:21:58Z</time></trkpt><trkpt lat="44.876800524029" lon="7.6970991184635995"><ele>229.0</ele><time>2026-04-05T16:21:59Z</time></trkpt><trkpt lat="44.87689228711548" lon="7.696907708493261"><ele>229.66666666666666</ele><time>2026-04-05T16:22:00Z</time></trkpt><trkpt lat="44.876981857575565" lon="7.6967177919391885"><ele>230.33333333333331</ele><time>2026-04-05T16:22:01Z</time></trkpt><trkpt lat="44.877073463880905" lon="7.696525941513585"><ele>231.0</ele><time>2026-04-05T16:22:02Z</time></trkpt><trkpt lat="44.87716656747152" lon="7.6963313132680895"><ele>231.0</ele><time>2026-04-05T16:22:03Z</time></trkpt><trkpt lat="44.87726062584289" lon="7.6961326668899455"><ele>231.0</ele><time>2026-04-05T16:22:04Z</time></trkpt><trkpt lat="44.87735701819059" lon="7.695933022811361"><ele>231.0</ele><time>2026-04-05T16:22:05Z</time></trkpt><trkpt lat="44.87745424121264" lon="7.695731260739552"><ele>230.33333333333331</ele><time>2026-04-05T16:22:06Z</time></trkpt><trkpt lat="44.877550621343104" lon="7.695526525699168"><ele>229.66666666666666</ele><time>2026-04-05T16:22:07Z</time></trkpt><trkpt lat="44.87764895154544" lon="7.695318592334343"><ele>229.0</ele><time>2026-04-05T16:22:08Z</time></trkpt><trkpt lat="44.87774684344529" lon="7.6951096147997395"><ele>228.66666666666666</ele><time>2026-04-05T16:22:09Z</time></trkpt><trkpt lat="44.87784496472562" lon="7.694903206411011"><ele>228.33333333333331</ele><time>2026-04-05T16:22:10Z</time></trkpt><trkpt lat="44.87794285691221" lon="7.694696553905307"><ele>228.0</ele><time>2026-04-05T16:22:11Z</time></trkpt><trkpt lat="44.878042009484105" lon="7.694486281057265"><ele>228.66666666666669</ele><time>2026-04-05T16:22:12Z</time></trkpt><trkpt lat="44.87814360017623" lon="7.694275010969704"><ele>229.33333333333334</ele><time>2026-04-05T16:22:13Z</time></trkpt><trkpt lat="44.87824175463025" lon="7.694061915084366"><ele>230.0</ele><time>2026-04-05T16:22:14Z</time></trkpt><trkpt lat="44.878341893250585" lon="7.693851000942539"><ele>230.0</ele><time>2026-04-05T16:22:15Z</time></trkpt><trkpt lat="44.87844079627147" lon="7.6936438917454"><ele>230.0</ele><time>2026-04-05T16:22:16Z</time></trkpt><trkpt lat="44.878540019855784" lon="7.693434408710782"><ele>230.0</ele><time>2026-04-05T16:22:17Z</time></trkpt><trkpt lat="44.87864115575835" lon="7.693223002122889"><ele>230.0</ele><time>2026-04-05T16:22:18Z</time></trkpt><trkpt lat="44.87873948743328" lon="7.693016612980559"><ele>230.0</ele><time>2026-04-05T16:22:19Z</time></trkpt><trkpt lat="44.87883685961477" lon="7.692807631833105"><ele>230.0</ele><time>2026-04-05T16:22:20Z</time></trkpt><trkpt lat="44.87893477162039" lon="7.692601133172938"><ele>230.0</ele><time>2026-04-05T16:22:21Z</time></trkpt><trkpt lat="44.8790352693065" lon="7.6923910869499945"><ele>230.0</ele><time>2026-04-05T16:22:22Z</time></trkpt><trkpt lat="44.87913295782073" lon="7.692184510062573"><ele>230.0</ele><time>2026-04-05T16:22:23Z</time></trkpt><trkpt lat="44.87922704593916" lon="7.691982752786217"><ele>229.66666666666669</ele><time>2026-04-05T16:22:24Z</time></trkpt><trkpt lat="44.879322214800865" lon="7.691781178413707"><ele>229.33333333333331</ele><time>2026-04-05T16:22:25Z</time></trkpt><trkpt lat="44.87941956138025" lon="7.691584664952995"><ele>229.0</ele><time>2026-04-05T16:22:26Z</time></trkpt><trkpt lat="44.87951374178232" lon="7.691384574454695"><ele>229.0</ele><time>2026-04-05T16:22:27Z</time></trkpt><trkpt lat="44.879609281987136" lon="7.691188357411879"><ele>229.0</ele><time>2026-04-05T16:22:28Z</time></trkpt><trkpt lat="44.879702567020935" lon="7.690999530449478"><ele>229.0</ele><time>2026-04-05T16:22:29Z</time></trkpt><trkpt lat="44.879796331168684" lon="7.690816498470484"><ele>229.33333333333331</ele><time>2026-04-05T16:22:30Z</time></trkpt><trkpt lat="44.87988858994545" lon="7.69064502283389"><ele>229.66666666666669</ele><time>2026-04-05T16:22:31Z</time></trkpt><trkpt lat="44.879980519071076" lon="7.690482753692746"><ele>230.0</ele><time>2026-04-05T16:22:32Z</time></trkpt><trkpt lat="44.88007762361576" lon="7.690321324680017"><ele>230.5</ele><time>2026-04-05T16:22:33Z</time></trkpt><trkpt lat="44.88017115336791" lon="7.690153405283198"><ele>231.0</ele><time>2026-04-05T16:22:34Z</time></trkpt><trkpt lat="44.88026906435473" lon="7.689995953860634"><ele>231.5</ele><time>2026-04-05T16:22:35Z</time></trkpt><trkpt lat="44.88036808063857" lon="7.689842943211918"><ele>232.0</ele><time>2026-04-05T16:22:36Z</time></trkpt><trkpt lat="44.88046733830247" lon="7.689696574743973"><ele>232.0</ele><time>2026-04-05T16:22:37Z</time></trkpt><trkpt lat="44.880565204765325" lon="7.689552101534934"><ele>232.0</ele><time>2026-04-05T16:22:38Z</time></trkpt><trkpt lat="44.88066476231505" lon="7.68941064911459"><ele>232.0</ele><time>2026-04-05T16:22:39Z</time></trkpt><trkpt lat="44.88076463491337" lon="7.689266424257847"><ele>232.0</ele><time>2026-04-05T16:22:40Z</time></trkpt><trkpt lat="44.88086677009043" lon="7.689120604507336"><ele>232.25</ele><time>2026-04-05T16:22:41Z</time></trkpt><trkpt lat="44.88096863863312" lon="7.688974878309463"><ele>232.5</ele><time>2026-04-05T16:22:42Z</time></trkpt><trkpt lat="44.881070559840744" lon="7.688826346537106"><ele>232.75</ele><time>2026-04-05T16:22:43Z</time></trkpt><trkpt lat="44.88117512760887" lon="7.688678453008928"><ele>233.0</ele><time>2026-04-05T16:22:44Z</time></trkpt><trkpt lat="44.881279030888415" lon="7.688529691925734"><ele>233.25</ele><time>2026-04-05T16:22:45Z</time></trkpt><trkpt lat="44.881383262858925" lon="7.688380188516026"><ele>233.5</ele><time>2026-04-05T16:22:46Z</time></trkpt><trkpt lat="44.88148780603366" lon="7.68823421615539"><ele>233.75</ele><time>2026-04-05T16:22:47Z</time></trkpt><trkpt lat="44.88159044462791" lon="7.6880894648285265"><ele>234.0</ele><time>2026-04-05T16:22:48Z</time></trkpt><trkpt lat="44.88169414794903" lon="7.687940737640088"><ele>232.33333333333331</ele><time>2026-04-05T16:22:49Z</time></trkpt><trkpt lat="44.88179942980743" lon="7.687790025894595"><ele>230.66666666666666</ele><time>2026-04-05T16:22:50Z</time></trkpt><trkpt lat="44.88190676033446" lon="7.68763854866283"><ele>229.0</ele><time>2026-04-05T16:22:51Z</time></trkpt><trkpt lat="44.88201531243102" lon="7.687480780863541"><ele>227.33333333333331</ele><time>2026-04-05T16:22:52Z</time></trkpt><trkpt lat="44.88212425841928" lon="7.68732191863685"><ele>225.66666666666669</ele><time>2026-04-05T16:22:53Z</time></trkpt><trkpt lat="44.88223506134546" lon="7.687163188586014"><ele>224.0</ele><time>2026-04-05T16:22:54Z</time></trkpt><trkpt lat="44.882344695449156" lon="7.68699891438285"><ele>226.33333333333334</ele><time>2026-04-05T16:22:55Z</time></trkpt><trkpt lat="44.882458934010266" lon="7.6868384471765365"><ele>228.66666666666669</ele><time>2026-04-05T16:22:56Z</time></trkpt><trkpt lat="44.88256828430026" lon="7.686678627520876"><ele>231.0</ele><time>2026-04-05T16:22:57Z</time></trkpt><trkpt lat="44.882674487028765" lon="7.686525415424195"><ele>231.33333333333331</ele><time>2026-04-05T16:22:58Z</time></trkpt><trkpt lat="44.88277826885857" lon="7.68637639378666"><ele>231.66666666666666</ele><time>2026-04-05T16:22:59Z</time></trkpt><trkpt lat="44.882902751296164" lon="7.686199374965414"><ele>232.0</ele><time>2026-04-05T16:23:00Z</time></trkpt><trkpt lat="44.88301627649468" lon="7.686032751035055"><ele>232.33333333333331</ele><time>2026-04-05T16:23:01Z</time></trkpt><trkpt lat="44.88313025270043" lon="7.6858680362230105"><ele>232.66666666666669</ele><time>2026-04-05T16:23:02Z</time></trkpt><trkpt lat="44.88324502325491" lon="7.685702094278865"><ele>233.0</ele><time>2026-04-05T16:23:03Z</time></trkpt><trkpt lat="44.883361753909846" lon="7.68552924539631"><ele>233.0</ele><time>2026-04-05T16:23:04Z</time></trkpt><trkpt lat="44.88348070834482" lon="7.685359254731048"><ele>233.0</ele><time>2026-04-05T16:23:05Z</time></trkpt><trkpt lat="44.883606048768684" lon="7.685184545918102"><ele>233.0</ele><time>2026-04-05T16:23:06Z</time></trkpt><trkpt lat="44.883731123207795" lon="7.685015695569229"><ele>233.0</ele><time>2026-04-05T16:23:07Z</time></trkpt><trkpt lat="44.88385697788913" lon="7.684844874670074"><ele>233.0</ele><time>2026-04-05T16:23:08Z</time></trkpt><trkpt lat="44.88398399839644" lon="7.684671461124954"><ele>233.0</ele><time>2026-04-05T16:23:09Z</time></trkpt><trkpt lat="44.884115316935166" lon="7.684502542047872"><ele>232.66666666666669</ele><time>2026-04-05T16:23:10Z</time></trkpt><trkpt lat="44.88424991592563" lon="7.68433745068423"><ele>232.33333333333331</ele><time>2026-04-05T16:23:11Z</time></trkpt><trkpt lat="44.88438493755966" lon="7.684176938077382"><ele>232.0</ele><time>2026-04-05T16:23:12Z</time></trkpt><trkpt lat="44.88451825220016" lon="7.684017502511069"><ele>231.66666666666666</ele><time>2026-04-05T16:23:13Z</time></trkpt><trkpt lat="44.884652569528924" lon="7.683858177355235"><ele>231.33333333333331</ele><time>2026-04-05T16:23:14Z</time></trkpt><trkpt lat="44.88478701576061" lon="7.68370143568243"><ele>231.0</ele><time>2026-04-05T16:23:15Z</time></trkpt><trkpt lat="44.88491568453189" lon="7.683544727274818"><ele>231.0</ele><time>2026-04-05T16:23:16Z</time></trkpt><trkpt lat="44.88505027852418" lon="7.683385948444814"><ele>231.0</ele><time>2026-04-05T16:23:17Z</time></trkpt><trkpt lat="44.885184398016484" lon="7.683223375869998"><ele>231.0</ele><time>2026-04-05T16:23:18Z</time></trkpt><trkpt lat="44.885317565664394" lon="7.683069199947463"><ele>230.66666666666669</ele><time>2026-04-05T16:23:19Z</time></trkpt><trkpt lat="44.88545473956042" lon="7.682907225452066"><ele>230.33333333333334</ele><time>2026-04-05T16:23:20Z</time></trkpt><trkpt lat="44.88558978780192" lon="7.682744265218799"><ele>230.0</ele><time>2026-04-05T16:23:21Z</time></trkpt><trkpt lat="44.885716572947935" lon="7.6825917577512515"><ele>230.0</ele><time>2026-04-05T16:23:22Z</time></trkpt><trkpt lat="44.885839499768394" lon="7.682443788453922"><ele>230.0</ele><time>2026-04-05T16:23:23Z</time></trkpt><trkpt lat="44.88595996167616" lon="7.682298829593645"><ele>230.0</ele><time>2026-04-05T16:23:24Z</time></trkpt><trkpt lat="44.88608065703137" lon="7.682155524401457"><ele>230.33333333333334</ele><time>2026-04-05T16:23:25Z</time></trkpt><trkpt lat="44.88620063640919" lon="7.682013368236216"><ele>230.66666666666669</ele><time>2026-04-05T16:23:26Z</time></trkpt><trkpt lat="44.88631829527307" lon="7.681870354591321"><ele>231.0</ele><time>2026-04-05T16:23:27Z</time></trkpt><trkpt lat="44.88643944009266" lon="7.681726796126856"><ele>231.33333333333331</ele><time>2026-04-05T16:23:28Z</time></trkpt><trkpt lat="44.886555277925396" lon="7.681587137333281"><ele>231.66666666666666</ele><time>2026-04-05T16:23:29Z</time></trkpt><trkpt lat="44.88667074776134" lon="7.681447616381271"><ele>232.0</ele><time>2026-04-05T16:23:30Z</time></trkpt><trkpt lat="44.886789834518986" lon="7.681306837821546"><ele>232.33333333333331</ele><time>2026-04-05T16:23:31Z</time></trkpt><trkpt lat="44.88690870401898" lon="7.681169147043399"><ele>232.66666666666669</ele><time>2026-04-05T16:23:32Z</time></trkpt><trkpt lat="44.88702322608613" lon="7.681031891020803"><ele>233.0</ele><time>2026-04-05T16:23:33Z</time></trkpt><trkpt lat="44.88713897447745" lon="7.680893207347098"><ele>233.0</ele><time>2026-04-05T16:23:34Z</time></trkpt><trkpt lat="44.887250582001165" lon="7.6807580722744495"><ele>233.0</ele><time>2026-04-05T16:23:35Z</time></trkpt><trkpt lat="44.88736333703311" lon="7.680626120070724"><ele>233.0</ele><time>2026-04-05T16:23:36Z</time></trkpt><trkpt lat="44.8874721690167" lon="7.680493300406668"><ele>233.0</ele><time>2026-04-05T16:23:37Z</time></trkpt><trkpt lat="44.88758301829142" lon="7.680360062563397"><ele>232.5</ele><time>2026-04-05T16:23:38Z</time></trkpt><trkpt lat="44.887690016465065" lon="7.6802332509181905"><ele>232.0</ele><time>2026-04-05T16:23:39Z</time></trkpt><trkpt lat="44.887799340371934" lon="7.680099933238289"><ele>231.5</ele><time>2026-04-05T16:23:40Z</time></trkpt><trkpt lat="44.88790717197777" lon="7.6799731289784265"><ele>231.0</ele><time>2026-04-05T16:23:41Z</time></trkpt><trkpt lat="44.88801773441185" lon="7.679842292152552"><ele>231.0</ele><time>2026-04-05T16:23:42Z</time></trkpt><trkpt lat="44.88812511350135" lon="7.679713736812981"><ele>231.0</ele><time>2026-04-05T16:23:43Z</time></trkpt><trkpt lat="44.88823419665358" lon="7.67958068886952"><ele>231.0</ele><time>2026-04-05T16:23:44Z</time></trkpt><trkpt lat="44.88833939398799" lon="7.679455307645361"><ele>231.0</ele><time>2026-04-05T16:23:45Z</time></trkpt><trkpt lat="44.888446755995304" lon="7.679320601618538"><ele>231.0</ele><time>2026-04-05T16:23:46Z</time></trkpt><trkpt lat="44.88855309723006" lon="7.679193658920831"><ele>231.0</ele><time>2026-04-05T16:23:47Z</time></trkpt><trkpt lat="44.88865868641732" lon="7.679066916801179"><ele>231.0</ele><time>2026-04-05T16:23:48Z</time></trkpt><trkpt lat="44.88876484345142" lon="7.678940825990003"><ele>231.0</ele><time>2026-04-05T16:23:49Z</time></trkpt><trkpt lat="44.88886786164783" lon="7.678818160860806"><ele>231.0</ele><time>2026-04-05T16:23:50Z</time></trkpt><trkpt lat="44.888969174955406" lon="7.678698941414962"><ele>231.0</ele><time>2026-04-05T16:23:51Z</time></trkpt><trkpt lat="44.88906632170824" lon="7.678579128680937"><ele>231.0</ele><time>2026-04-05T16:23:52Z</time></trkpt><trkpt lat="44.889168514355795" lon="7.678461103398695"><ele>231.0</ele><time>2026-04-05T16:23:53Z</time></trkpt><trkpt lat="44.889261318523" lon="7.67835132880928"><ele>230.8</ele><time>2026-04-05T16:23:54Z</time></trkpt><trkpt lat="44.889346082912" lon="7.678245824698749"><ele>230.60000000000002</ele><time>2026-04-05T16:23:55Z</time></trkpt><trkpt lat="44.889428801958275" lon="7.678144383812388"><ele>230.4</ele><time>2026-04-05T16:23:56Z</time></trkpt><trkpt lat="44.889515233934716" lon="7.678043059237715"><ele>230.2</ele><time>2026-04-05T16:23:57Z</time></trkpt><trkpt lat="44.88960022319212" lon="7.677947259735377"><ele>230.0</ele><time>2026-04-05T16:23:58Z</time></trkpt><trkpt lat="44.889681665292436" lon="7.677857682352795"><ele>230.0</ele><time>2026-04-05T16:23:59Z</time></trkpt><trkpt lat="44.88976364035975" lon="7.677777044403971"><ele>230.0</ele><time>2026-04-05T16:24:00Z</time></trkpt><trkpt lat="44.88984390172959" lon="7.677712071870198"><ele>230.0</ele><time>2026-04-05T16:24:01Z</time></trkpt><trkpt lat="44.889929026461026" lon="7.677674111174007"><ele>230.0</ele><time>2026-04-05T16:24:02Z</time></trkpt><trkpt lat="44.89001662330103" lon="7.677666492612171"><ele>230.0</ele><time>2026-04-05T16:24:03Z</time></trkpt><trkpt lat="44.8901017303559" lon="7.67767655252481"><ele>230.0</ele><time>2026-04-05T16:24:04Z</time></trkpt><trkpt lat="44.8901857136817" lon="7.677669881292086"><ele>230.0</ele><time>2026-04-05T16:24:05Z</time></trkpt><trkpt lat="44.89026500290027" lon="7.6776152474319455"><ele>230.0</ele><time>2026-04-05T16:24:06Z</time></trkpt><trkpt lat="44.890331128078294" lon="7.677503123389029"><ele>230.0</ele><time>2026-04-05T16:24:07Z</time></trkpt><trkpt lat="44.89037305771888" lon="7.6773596714773795"><ele>230.0</ele><time>2026-04-05T16:24:08Z</time></trkpt><trkpt lat="44.89039512928508" lon="7.677195644313201"><ele>230.0</ele><time>2026-04-05T16:24:09Z</time></trkpt><trkpt lat="44.890432549271196" lon="7.677029209214569"><ele>230.0</ele><time>2026-04-05T16:24:10Z</time></trkpt><trkpt lat="44.89051294248634" lon="7.676871860579198"><ele>230.0</ele><time>2026-04-05T16:24:11Z</time></trkpt><trkpt lat="44.89063399747848" lon="7.676736225213724"><ele>230.0</ele><time>2026-04-05T16:24:12Z</time></trkpt><trkpt lat="44.89076681572573" lon="7.676599656349419"><ele>230.0</ele><time>2026-04-05T16:24:13Z</time></trkpt><trkpt lat="44.890902967149046" lon="7.676440264306505"><ele>230.0</ele><time>2026-04-05T16:24:14Z</time></trkpt><trkpt lat="44.891046180520654" lon="7.676266645571694"><ele>230.0</ele><time>2026-04-05T16:24:15Z</time></trkpt><trkpt lat="44.89119176783338" lon="7.676096483534221"><ele>230.66666666666669</ele><time>2026-04-05T16:24:16Z</time></trkpt><trkpt lat="44.89134383533886" lon="7.67591872901883"><ele>231.33333333333331</ele><time>2026-04-05T16:24:17Z</time></trkpt><trkpt lat="44.891496170850004" lon="7.675733056370564"><ele>232.0</ele><time>2026-04-05T16:24:18Z</time></trkpt><trkpt lat="44.89164647661533" lon="7.6755505266328"><ele>232.0</ele><time>2026-04-05T16:24:19Z</time></trkpt><trkpt lat="44.891798412784766" lon="7.675368117337046"><ele>232.0</ele><time>2026-04-05T16:24:20Z</time></trkpt><trkpt lat="44.89195122527277" lon="7.675186429838509"><ele>232.0</ele><time>2026-04-05T16:24:21Z</time></trkpt><trkpt lat="44.892103473344065" lon="7.675005398519736"><ele>231.66666666666666</ele><time>2026-04-05T16:24:22Z</time></trkpt><trkpt lat="44.89225133829883" lon="7.674827828943807"><ele>231.33333333333331</ele><time>2026-04-05T16:24:23Z</time></trkpt><trkpt lat="44.89239660292913" lon="7.674653373331963"><ele>231.0</ele><time>2026-04-05T16:24:24Z</time></trkpt><trkpt lat="44.89254133406524" lon="7.674482001664123"><ele>230.66666666666669</ele><time>2026-04-05T16:24:25Z</time></trkpt><trkpt lat="44.892678774880025" lon="7.674318944098125"><ele>230.33333333333334</ele><time>2026-04-05T16:24:26Z</time></trkpt><trkpt lat="44.89281065930871" lon="7.674161818814996"><ele>230.0</ele><time>2026-04-05T16:24:27Z</time></trkpt><trkpt lat="44.89294437406858" lon="7.673999434885571"><ele>230.0</ele><time>2026-04-05T16:24:28Z</time></trkpt><trkpt lat="44.89307912669473" lon="7.673835458180129"><ele>230.0</ele><time>2026-04-05T16:24:29Z</time></trkpt><trkpt lat="44.893206857008984" lon="7.673684306823693"><ele>230.0</ele><time>2026-04-05T16:24:30Z</time></trkpt><trkpt lat="44.893330784264144" lon="7.673541601921665"><ele>231.0</ele><time>2026-04-05T16:24:31Z</time></trkpt><trkpt lat="44.89345834403448" lon="7.67340426455663"><ele>232.0</ele><time>2026-04-05T16:24:32Z</time></trkpt><trkpt lat="44.89359170048901" lon="7.673278972785736"><ele>233.0</ele><time>2026-04-05T16:24:33Z</time></trkpt><trkpt lat="44.893725339008796" lon="7.673171759612456"><ele>233.0</ele><time>2026-04-05T16:24:34Z</time></trkpt><trkpt lat="44.893853596610725" lon="7.673079922015639"><ele>233.0</ele><time>2026-04-05T16:24:35Z</time></trkpt><trkpt lat="44.8939769586623" lon="7.673002117137032"><ele>233.0</ele><time>2026-04-05T16:24:36Z</time></trkpt><trkpt lat="44.894076611749114" lon="7.672948784962913"><ele>233.0</ele><time>2026-04-05T16:24:37Z</time></trkpt><trkpt lat="44.89416003596368" lon="7.672910536403711"><ele>233.0</ele><time>2026-04-05T16:24:38Z</time></trkpt><trkpt lat="44.89424216459023" lon="7.672873960958772"><ele>233.0</ele><time>2026-04-05T16:24:39Z</time></trkpt><trkpt lat="44.89434549766818" lon="7.67283658521893"><ele>233.0</ele><time>2026-04-05T16:24:40Z</time></trkpt><trkpt lat="44.894460184672276" lon="7.672800082560059"><ele>233.0</ele><time>2026-04-05T16:24:41Z</time></trkpt><trkpt lat="44.89458158955896" lon="7.67275511354776"><ele>233.0</ele><time>2026-04-05T16:24:42Z</time></trkpt><trkpt lat="44.894711572269344" lon="7.67270847271777"><ele>233.0</ele><time>2026-04-05T16:24:43Z</time></trkpt><trkpt lat="44.89484737847935" lon="7.672682823716549"><ele>233.0</ele><time>2026-04-05T16:24:44Z</time></trkpt><trkpt lat="44.8949919335651" lon="7.672671646224272"><ele>233.0</ele><time>2026-04-05T16:24:45Z</time></trkpt><trkpt lat="44.89513787577322" lon="7.672670548033501"><ele>233.0</ele><time>2026-04-05T16:24:46Z</time></trkpt><trkpt lat="44.89528858695155" lon="7.672684092849752"><ele>233.5</ele><time>2026-04-05T16:24:47Z</time></trkpt><trkpt lat="44.89543907557778" lon="7.672709220796344"><ele>234.0</ele><time>2026-04-05T16:24:48Z</time></trkpt><trkpt lat="44.89573436766125" lon="7.672783620198254"><ele>233.5</ele><time>2026-04-05T16:24:50Z</time></trkpt><trkpt lat="44.89587290324835" lon="7.6728411349657435"><ele>233.0</ele><time>2026-04-05T16:24:51Z</time></trkpt><trkpt lat="44.896007288876845" lon="7.672910593446879"><ele>232.5</ele><time>2026-04-05T16:24:52Z</time></trkpt><trkpt lat="44.896144304524604" lon="7.672990094964152"><ele>232.0</ele><time>2026-04-05T16:24:53Z</time></trkpt><trkpt lat="44.896274913692416" lon="7.673078721478705"><ele>232.0</ele><time>2026-04-05T16:24:54Z</time></trkpt><trkpt lat="44.8964064339329" lon="7.673170133727304"><ele>232.0</ele><time>2026-04-05T16:24:55Z</time></trkpt><trkpt lat="44.89654282120499" lon="7.6732643227815585"><ele>232.0</ele><time>2026-04-05T16:24:56Z</time></trkpt><trkpt lat="44.89668469377819" lon="7.673364402379047"><ele>232.5</ele><time>2026-04-05T16:24:57Z</time></trkpt><trkpt lat="44.896821901458026" lon="7.673473317874159"><ele>233.0</ele><time>2026-04-05T16:24:58Z</time></trkpt><trkpt lat="44.89694671090783" lon="7.67357384621622"><ele>233.5</ele><time>2026-04-05T16:24:59Z</time></trkpt><trkpt lat="44.89706948784216" lon="7.6736770731505555"><ele>234.0</ele><time>2026-04-05T16:25:00Z</time></trkpt><trkpt lat="44.89719782801257" lon="7.673785758402682"><ele>234.0</ele><time>2026-04-05T16:25:01Z</time></trkpt><trkpt lat="44.8973325042085" lon="7.673895748015195"><ele>234.0</ele><time>2026-04-05T16:25:02Z</time></trkpt><trkpt lat="44.89746201552122" lon="7.674003499334905"><ele>234.0</ele><time>2026-04-05T16:25:03Z</time></trkpt><trkpt lat="44.89758647583599" lon="7.674103470574117"><ele>234.0</ele><time>2026-04-05T16:25:04Z</time></trkpt><trkpt lat="44.89770851056345" lon="7.674203253747913"><ele>234.25</ele><time>2026-04-05T16:25:05Z</time></trkpt><trkpt lat="44.897830536801486" lon="7.674299557074336"><ele>234.5</ele><time>2026-04-05T16:25:06Z</time></trkpt><trkpt lat="44.89795804372888" lon="7.67440667223039"><ele>234.75</ele><time>2026-04-05T16:25:07Z</time></trkpt><trkpt lat="44.898086199331" lon="7.674512157164395"><ele>235.0</ele><time>2026-04-05T16:25:08Z</time></trkpt><trkpt lat="44.898215821111236" lon="7.674613400452934"><ele>234.0</ele><time>2026-04-05T16:25:09Z</time></trkpt><trkpt lat="44.89835067899606" lon="7.674719717825376"><ele>233.0</ele><time>2026-04-05T16:25:10Z</time></trkpt><trkpt lat="44.89848227564836" lon="7.674823947732618"><ele>232.0</ele><time>2026-04-05T16:25:11Z</time></trkpt><trkpt lat="44.898616286659866" lon="7.674932021732265"><ele>232.0</ele><time>2026-04-05T16:25:12Z</time></trkpt><trkpt lat="44.898750907825956" lon="7.675039680613897"><ele>232.0</ele><time>2026-04-05T16:25:13Z</time></trkpt><trkpt lat="44.89888258971839" lon="7.675146120981167"><ele>232.0</ele><time>2026-04-05T16:25:14Z</time></trkpt><trkpt lat="44.89901652026154" lon="7.675245047853042"><ele>231.75</ele><time>2026-04-05T16:25:15Z</time></trkpt><trkpt lat="44.89914893837398" lon="7.675341183076569"><ele>231.5</ele><time>2026-04-05T16:25:16Z</time></trkpt><trkpt lat="44.8992816941541" lon="7.675437263974427"><ele>231.25</ele><time>2026-04-05T16:25:17Z</time></trkpt><trkpt lat="44.899417573916125" lon="7.675528319841451"><ele>231.0</ele><time>2026-04-05T16:25:18Z</time></trkpt><trkpt lat="44.89955563267988" lon="7.675617821554082"><ele>231.0</ele><time>2026-04-05T16:25:19Z</time></trkpt><trkpt lat="44.89969160723039" lon="7.675705497289541"><ele>231.0</ele><time>2026-04-05T16:25:20Z</time></trkpt><trkpt lat="44.899837475756556" lon="7.675793907901462"><ele>231.0</ele><time>2026-04-05T16:25:21Z</time></trkpt><trkpt lat="44.899978315071834" lon="7.6758779545178655"><ele>231.33333333333331</ele><time>2026-04-05T16:25:22Z</time></trkpt><trkpt lat="44.900127383012524" lon="7.6759550792257745"><ele>231.66666666666666</ele><time>2026-04-05T16:25:23Z</time></trkpt><trkpt lat="44.90027206687285" lon="7.676029197885075"><ele>232.0</ele><time>2026-04-05T16:25:24Z</time></trkpt><trkpt lat="44.900408319193474" lon="7.676098157334591"><ele>231.66666666666666</ele><time>2026-04-05T16:25:25Z</time></trkpt><trkpt lat="44.900543179193676" lon="7.676154925200554"><ele>231.33333333333331</ele><time>2026-04-05T16:25:26Z</time></trkpt><trkpt lat="44.90067804047196" lon="7.676208835249487"><ele>231.0</ele><time>2026-04-05T16:25:27Z</time></trkpt><trkpt lat="44.90095975743633" lon="7.6763356083436305"><ele>231.0</ele><time>2026-04-05T16:25:29Z</time></trkpt><trkpt lat="44.90110302958509" lon="7.676393282706095"><ele>231.0</ele><time>2026-04-05T16:25:30Z</time></trkpt><trkpt lat="44.90124823657254" lon="7.676452209628284"><ele>231.0</ele><time>2026-04-05T16:25:31Z</time></trkpt><trkpt lat="44.901388906252414" lon="7.67651710572414"><ele>231.0</ele><time>2026-04-05T16:25:32Z</time></trkpt><trkpt lat="44.90153007697717" lon="7.676582484811491"><ele>231.0</ele><time>2026-04-05T16:25:33Z</time></trkpt><trkpt lat="44.901672661432556" lon="7.676640552354719"><ele>231.0</ele><time>2026-04-05T16:25:34Z</time></trkpt><trkpt lat="44.90181282900957" lon="7.676698178143051"><ele>231.0</ele><time>2026-04-05T16:25:35Z</time></trkpt><trkpt lat="44.901951084693096" lon="7.676756880144297"><ele>231.0</ele><time>2026-04-05T16:25:36Z</time></trkpt><trkpt lat="44.90208267778264" lon="7.6768117193738545"><ele>231.5</ele><time>2026-04-05T16:25:37Z</time></trkpt><trkpt lat="44.90221245780369" lon="7.676868134302783"><ele>232.0</ele><time>2026-04-05T16:25:38Z</time></trkpt><trkpt lat="44.90234457355727" lon="7.67692827470825"><ele>232.5</ele><time>2026-04-05T16:25:39Z</time></trkpt><trkpt lat="44.90248118544341" lon="7.676988510124865"><ele>233.0</ele><time>2026-04-05T16:25:40Z</time></trkpt><trkpt lat="44.90261776598666" lon="7.6770468010804045"><ele>233.25</ele><time>2026-04-05T16:25:41Z</time></trkpt><trkpt lat="44.90275488801992" lon="7.67710330058896"><ele>233.5</ele><time>2026-04-05T16:25:42Z</time></trkpt><trkpt lat="44.90289577459532" lon="7.67716517058629"><ele>233.75</ele><time>2026-04-05T16:25:43Z</time></trkpt><trkpt lat="44.903035522313104" lon="7.677227316518111"><ele>234.0</ele><time>2026-04-05T16:25:44Z</time></trkpt><trkpt lat="44.90317567764262" lon="7.6772855815713985"><ele>234.0</ele><time>2026-04-05T16:25:45Z</time></trkpt><trkpt lat="44.9033158908649" lon="7.677344642599777"><ele>234.0</ele><time>2026-04-05T16:25:46Z</time></trkpt><trkpt lat="44.9034572801414" lon="7.6774047428237955"><ele>234.0</ele><time>2026-04-05T16:25:47Z</time></trkpt><trkpt lat="44.90360069378408" lon="7.677464234198706"><ele>234.0</ele><time>2026-04-05T16:25:48Z</time></trkpt><trkpt lat="44.90374470288839" lon="7.677525647321335"><ele>234.66666666666669</ele><time>2026-04-05T16:25:49Z</time></trkpt><trkpt lat="44.90389639664721" lon="7.677591576089105"><ele>235.33333333333334</ele><time>2026-04-05T16:25:50Z</time></trkpt><trkpt lat="44.90406010128647" lon="7.677659344834438"><ele>236.0</ele><time>2026-04-05T16:25:51Z</time></trkpt><trkpt lat="44.904232693022614" lon="7.677730980438258"><ele>235.0</ele><time>2026-04-05T16:25:52Z</time></trkpt><trkpt lat="44.90441054799274" lon="7.6778061308367676"><ele>234.0</ele><time>2026-04-05T16:25:53Z</time></trkpt><trkpt lat="44.904590809166336" lon="7.67788455488667"><ele>233.0</ele><time>2026-04-05T16:25:54Z</time></trkpt><trkpt lat="44.904783873038575" lon="7.677964761754849"><ele>233.0</ele><time>2026-04-05T16:25:55Z</time></trkpt><trkpt lat="44.904984925017935" lon="7.67807107451891"><ele>233.0</ele><time>2026-04-05T16:25:56Z</time></trkpt><trkpt lat="44.905199271005166" lon="7.678161260274598"><ele>233.0</ele><time>2026-04-05T16:25:57Z</time></trkpt><trkpt lat="44.90542150523484" lon="7.678254807017124"><ele>232.5</ele><time>2026-04-05T16:25:58Z</time></trkpt><trkpt lat="44.905652041846274" lon="7.6783390467816846"><ele>232.0</ele><time>2026-04-05T16:25:59Z</time></trkpt><trkpt lat="44.90588009209912" lon="7.678432371416254"><ele>230.5</ele><time>2026-04-05T16:26:00Z</time></trkpt><trkpt lat="44.90611616253493" lon="7.678531434146695"><ele>229.0</ele><time>2026-04-05T16:26:01Z</time></trkpt><trkpt lat="44.90635661174848" lon="7.678636178127767"><ele>228.5</ele><time>2026-04-05T16:26:02Z</time></trkpt><trkpt lat="44.90659558325517" lon="7.67875996473084"><ele>228.0</ele><time>2026-04-05T16:26:03Z</time></trkpt><trkpt lat="44.9068389970328" lon="7.678864284916023"><ele>229.5</ele><time>2026-04-05T16:26:04Z</time></trkpt><trkpt lat="44.90708915321341" lon="7.678947237466609"><ele>231.0</ele><time>2026-04-05T16:26:05Z</time></trkpt><trkpt lat="44.90733507477185" lon="7.679067918833144"><ele>231.0</ele><time>2026-04-05T16:26:06Z</time></trkpt><trkpt lat="44.90758321970571" lon="7.679183275443924"><ele>231.0</ele><time>2026-04-05T16:26:07Z</time></trkpt><trkpt lat="44.9078359968769" lon="7.679287199670118"><ele>231.0</ele><time>2026-04-05T16:26:08Z</time></trkpt><trkpt lat="44.90809019466564" lon="7.679393496664684"><ele>231.0</ele><time>2026-04-05T16:26:09Z</time></trkpt><trkpt lat="44.90834286714494" lon="7.679497433158985"><ele>230.0</ele><time>2026-04-05T16:26:10Z</time></trkpt><trkpt lat="44.90859740452408" lon="7.679600921650467"><ele>229.0</ele><time>2026-04-05T16:26:11Z</time></trkpt><trkpt lat="44.90885249146272" lon="7.67970571113578"><ele>229.0</ele><time>2026-04-05T16:26:12Z</time></trkpt><trkpt lat="44.90910651585995" lon="7.679814512696638"><ele>229.0</ele><time>2026-04-05T16:26:13Z</time></trkpt><trkpt lat="44.90936173995411" lon="7.679924261716808"><ele>229.0</ele><time>2026-04-05T16:26:14Z</time></trkpt><trkpt lat="44.90961518464838" lon="7.680034952570919"><ele>229.0</ele><time>2026-04-05T16:26:15Z</time></trkpt><trkpt lat="44.909866001666856" lon="7.680143555899807"><ele>229.5</ele><time>2026-04-05T16:26:16Z</time></trkpt><trkpt lat="44.9101154086193" lon="7.680248979723606"><ele>230.0</ele><time>2026-04-05T16:26:17Z</time></trkpt><trkpt lat="44.910365217091694" lon="7.680342292851444"><ele>230.0</ele><time>2026-04-05T16:26:18Z</time></trkpt><trkpt lat="44.91061899314781" lon="7.680416651254056"><ele>230.0</ele><time>2026-04-05T16:26:19Z</time></trkpt><trkpt lat="44.910882494057184" lon="7.680473933427896"><ele>230.0</ele><time>2026-04-05T16:26:20Z</time></trkpt><trkpt lat="44.91114291702802" lon="7.680509300408752"><ele>230.0</ele><time>2026-04-05T16:26:21Z</time></trkpt><trkpt lat="44.91140397120731" lon="7.680529203393413"><ele>230.0</ele><time>2026-04-05T16:26:22Z</time></trkpt><trkpt lat="44.91166858078976" lon="7.680532604351258"><ele>230.0</ele><time>2026-04-05T16:26:23Z</time></trkpt><trkpt lat="44.91193588718167" lon="7.680523032236424"><ele>230.0</ele><time>2026-04-05T16:26:24Z</time></trkpt><trkpt lat="44.91220310645539" lon="7.680493398112657"><ele>230.0</ele><time>2026-04-05T16:26:25Z</time></trkpt><trkpt lat="44.912466706550155" lon="7.680432886490519"><ele>230.5</ele><time>2026-04-05T16:26:26Z</time></trkpt><trkpt lat="44.91273053161192" lon="7.680352035579309"><ele>231.0</ele><time>2026-04-05T16:26:27Z</time></trkpt><trkpt lat="44.91299102546656" lon="7.680249996355217"><ele>230.0</ele><time>2026-04-05T16:26:28Z</time></trkpt><trkpt lat="44.91324853168241" lon="7.680126237787113"><ele>229.0</ele><time>2026-04-05T16:26:29Z</time></trkpt><trkpt lat="44.91350418233489" lon="7.679983250480188"><ele>227.0</ele><time>2026-04-05T16:26:30Z</time></trkpt><trkpt lat="44.91375353560491" lon="7.679823156923065"><ele>225.0</ele><time>2026-04-05T16:26:31Z</time></trkpt><trkpt lat="44.913998678790996" lon="7.6796472568285115"><ele>226.5</ele><time>2026-04-05T16:26:32Z</time></trkpt><trkpt lat="44.914238904710984" lon="7.679449112812019"><ele>228.0</ele><time>2026-04-05T16:26:33Z</time></trkpt><trkpt lat="44.914467015026375" lon="7.679231780200708"><ele>228.5</ele><time>2026-04-05T16:26:34Z</time></trkpt><trkpt lat="44.91468918305213" lon="7.678990729611123"><ele>229.0</ele><time>2026-04-05T16:26:35Z</time></trkpt><trkpt lat="44.91490236919706" lon="7.678731256540334"><ele>228.5</ele><time>2026-04-05T16:26:36Z</time></trkpt><trkpt lat="44.91510685998514" lon="7.678454297877197"><ele>228.0</ele><time>2026-04-05T16:26:37Z</time></trkpt><trkpt lat="44.91530185368581" lon="7.678164714523062"><ele>228.0</ele><time>2026-04-05T16:26:38Z</time></trkpt><trkpt lat="44.91549359723945" lon="7.6778683060608595"><ele>228.0</ele><time>2026-04-05T16:26:39Z</time></trkpt><trkpt lat="44.91568701836842" lon="7.677578596967003"><ele>228.0</ele><time>2026-04-05T16:26:40Z</time></trkpt><trkpt lat="44.915882349290236" lon="7.677295360657945"><ele>228.0</ele><time>2026-04-05T16:26:41Z</time></trkpt><trkpt lat="44.91608138140282" lon="7.677019700442506"><ele>229.5</ele><time>2026-04-05T16:26:42Z</time></trkpt><trkpt lat="44.91628872285129" lon="7.676752486461945"><ele>231.0</ele><time>2026-04-05T16:26:43Z</time></trkpt><trkpt lat="44.91650429762925" lon="7.676503014273964"><ele>231.0</ele><time>2026-04-05T16:26:44Z</time></trkpt><trkpt lat="44.916729483773636" lon="7.676270636592448"><ele>231.0</ele><time>2026-04-05T16:26:45Z</time></trkpt><trkpt lat="44.91696130287564" lon="7.676047814345956"><ele>231.0</ele><time>2026-04-05T16:26:46Z</time></trkpt><trkpt lat="44.91719813488891" lon="7.675835982850746"><ele>231.0</ele><time>2026-04-05T16:26:47Z</time></trkpt><trkpt lat="44.917437048183864" lon="7.6756406039646725"><ele>228.5</ele><time>2026-04-05T16:26:48Z</time></trkpt><trkpt lat="44.91768053525249" lon="7.675455830675799"><ele>226.0</ele><time>2026-04-05T16:26:49Z</time></trkpt><trkpt lat="44.91792837736639" lon="7.675289068568294"><ele>227.0</ele><time>2026-04-05T16:26:50Z</time></trkpt><trkpt lat="44.91817357628858" lon="7.6751333741588965"><ele>228.0</ele><time>2026-04-05T16:26:51Z</time></trkpt><trkpt lat="44.91841656834725" lon="7.674991299569303"><ele>228.0</ele><time>2026-04-05T16:26:52Z</time></trkpt><trkpt lat="44.91866751910947" lon="7.674860083042997"><ele>228.0</ele><time>2026-04-05T16:26:53Z</time></trkpt><trkpt lat="44.91893551799992" lon="7.674719153518134"><ele>228.0</ele><time>2026-04-05T16:26:54Z</time></trkpt><trkpt lat="44.919207315573196" lon="7.674569132253474"><ele>228.0</ele><time>2026-04-05T16:26:55Z</time></trkpt><trkpt lat="44.9194509403768" lon="7.674439711017526"><ele>230.5</ele><time>2026-04-05T16:26:56Z</time></trkpt><trkpt lat="44.919674440811214" lon="7.674328801722217"><ele>233.0</ele><time>2026-04-05T16:26:57Z</time></trkpt><trkpt lat="44.91988557586641" lon="7.67422249265606"><ele>231.66666666666669</ele><time>2026-04-05T16:26:58Z</time></trkpt><trkpt lat="44.920083310914414" lon="7.6741244536722295"><ele>230.33333333333331</ele><time>2026-04-05T16:26:59Z</time></trkpt><trkpt lat="44.92026992383096" lon="7.6740310818269215"><ele>229.0</ele><time>2026-04-05T16:27:00Z</time></trkpt><trkpt lat="44.9204452149197" lon="7.673946519554587"><ele>229.0</ele><time>2026-04-05T16:27:01Z</time></trkpt><trkpt lat="44.92062657323766" lon="7.6738677833455435"><ele>229.0</ele><time>2026-04-05T16:27:02Z</time></trkpt><trkpt lat="44.920818526154726" lon="7.673797195588582"><ele>229.0</ele><time>2026-04-05T16:27:03Z</time></trkpt><trkpt lat="44.92100376227288" lon="7.673744646680939"><ele>229.0</ele><time>2026-04-05T16:27:04Z</time></trkpt><trkpt lat="44.92119979035677" lon="7.673706312159821"><ele>229.0</ele><time>2026-04-05T16:27:05Z</time></trkpt><trkpt lat="44.9213931269753" lon="7.673670551650966"><ele>229.0</ele><time>2026-04-05T16:27:06Z</time></trkpt><trkpt lat="44.92158578806629" lon="7.6736424483143875"><ele>228.66666666666666</ele><time>2026-04-05T16:27:07Z</time></trkpt><trkpt lat="44.92178014526891" lon="7.673610736386003"><ele>228.33333333333331</ele><time>2026-04-05T16:27:08Z</time></trkpt><trkpt lat="44.92197711339926" lon="7.6735765762079575"><ele>228.0</ele><time>2026-04-05T16:27:09Z</time></trkpt><trkpt lat="44.922165348220496" lon="7.673545408463845"><ele>229.33333333333331</ele><time>2026-04-05T16:27:10Z</time></trkpt><trkpt lat="44.922352867661054" lon="7.673514071274122"><ele>230.66666666666666</ele><time>2026-04-05T16:27:11Z</time></trkpt><trkpt lat="44.922542826846716" lon="7.673483524299128"><ele>232.0</ele><time>2026-04-05T16:27:12Z</time></trkpt><trkpt lat="44.92272902144886" lon="7.673453355974312"><ele>232.33333333333331</ele><time>2026-04-05T16:27:13Z</time></trkpt><trkpt lat="44.922909740915586" lon="7.673423970356864"><ele>232.66666666666669</ele><time>2026-04-05T16:27:14Z</time></trkpt><trkpt lat="44.9230951163638" lon="7.673393327278143"><ele>233.0</ele><time>2026-04-05T16:27:15Z</time></trkpt><trkpt lat="44.92328610666098" lon="7.673361157384934"><ele>233.33333333333334</ele><time>2026-04-05T16:27:16Z</time></trkpt><trkpt lat="44.92348358274928" lon="7.673325311330526"><ele>233.66666666666669</ele><time>2026-04-05T16:27:17Z</time></trkpt><trkpt lat="44.92369366869595" lon="7.6732849497707365"><ele>234.0</ele><time>2026-04-05T16:27:18Z</time></trkpt><trkpt lat="44.92391852198326" lon="7.6732460346384075"><ele>234.0</ele><time>2026-04-05T16:27:19Z</time></trkpt><trkpt lat="44.92415277138093" lon="7.6732134506445435"><ele>234.0</ele><time>2026-04-05T16:27:20Z</time></trkpt><trkpt lat="44.924392636797045" lon="7.673179957736565"><ele>234.5</ele><time>2026-04-05T16:27:21Z</time></trkpt><trkpt lat="44.92464014767724" lon="7.673145904937772"><ele>235.0</ele><time>2026-04-05T16:27:22Z</time></trkpt><trkpt lat="44.92489203146858" lon="7.673108726922355"><ele>234.5</ele><time>2026-04-05T16:27:23Z</time></trkpt><trkpt lat="44.92515180417762" lon="7.673065936197407"><ele>234.0</ele><time>2026-04-05T16:27:24Z</time></trkpt><trkpt lat="44.92540627550309" lon="7.6730268669803445"><ele>234.0</ele><time>2026-04-05T16:27:25Z</time></trkpt><trkpt lat="44.92563879748376" lon="7.672990462560855"><ele>234.0</ele><time>2026-04-05T16:27:26Z</time></trkpt><trkpt lat="44.92585586970824" lon="7.672951980969938"><ele>233.66666666666669</ele><time>2026-04-05T16:27:27Z</time></trkpt><trkpt lat="44.92606125022488" lon="7.672917393275786"><ele>233.33333333333334</ele><time>2026-04-05T16:27:28Z</time></trkpt><trkpt lat="44.92626786939068" lon="7.672884562642651"><ele>233.0</ele><time>2026-04-05T16:27:29Z</time></trkpt><trkpt lat="44.92648145908026" lon="7.672851198355294"><ele>233.0</ele><time>2026-04-05T16:27:30Z</time></trkpt><trkpt lat="44.9266968054713" lon="7.672816132519407"><ele>233.0</ele><time>2026-04-05T16:27:31Z</time></trkpt><trkpt lat="44.926911058181766" lon="7.6727794316651625"><ele>233.0</ele><time>2026-04-05T16:27:32Z</time></trkpt><trkpt lat="44.927126346260415" lon="7.672743057462845"><ele>233.0</ele><time>2026-04-05T16:27:33Z</time></trkpt><trkpt lat="44.927335843718886" lon="7.672709569148296"><ele>233.0</ele><time>2026-04-05T16:27:34Z</time></trkpt><trkpt lat="44.92752937891326" lon="7.672677178284132"><ele>233.0</ele><time>2026-04-05T16:27:35Z</time></trkpt><trkpt lat="44.92771445373671" lon="7.672645460202409"><ele>233.0</ele><time>2026-04-05T16:27:36Z</time></trkpt><trkpt lat="44.927898397902354" lon="7.6726148174569"><ele>233.0</ele><time>2026-04-05T16:27:37Z</time></trkpt><trkpt lat="44.928090339323646" lon="7.672585258325304"><ele>233.0</ele><time>2026-04-05T16:27:38Z</time></trkpt><trkpt lat="44.928275660446985" lon="7.6725569747183044"><ele>232.66666666666669</ele><time>2026-04-05T16:27:39Z</time></trkpt><trkpt lat="44.92846739864219" lon="7.672527702577312"><ele>232.33333333333331</ele><time>2026-04-05T16:27:40Z</time></trkpt><trkpt lat="44.92866890960652" lon="7.672495807563144"><ele>232.0</ele><time>2026-04-05T16:27:41Z</time></trkpt><trkpt lat="44.92887355911893" lon="7.672462888868781"><ele>232.0</ele><time>2026-04-05T16:27:42Z</time></trkpt><trkpt lat="44.929062515370916" lon="7.672431094477344"><ele>232.0</ele><time>2026-04-05T16:27:43Z</time></trkpt><trkpt lat="44.92924143604525" lon="7.672401776510336"><ele>232.0</ele><time>2026-04-05T16:27:44Z</time></trkpt><trkpt lat="44.92941262093443" lon="7.672368881047452"><ele>231.33333333333331</ele><time>2026-04-05T16:27:45Z</time></trkpt><trkpt lat="44.92959136586179" lon="7.672339555985087"><ele>230.66666666666669</ele><time>2026-04-05T16:27:46Z</time></trkpt><trkpt lat="44.929773705251044" lon="7.67230984530961"><ele>230.0</ele><time>2026-04-05T16:27:47Z</time></trkpt><trkpt lat="44.92996164764828" lon="7.672280951963655"><ele>230.33333333333334</ele><time>2026-04-05T16:27:48Z</time></trkpt><trkpt lat="44.930158878347065" lon="7.672247951565249"><ele>230.66666666666669</ele><time>2026-04-05T16:27:49Z</time></trkpt><trkpt lat="44.93035776437306" lon="7.672219729709079"><ele>231.0</ele><time>2026-04-05T16:27:50Z</time></trkpt><trkpt lat="44.930560192825084" lon="7.672190052679381"><ele>231.0</ele><time>2026-04-05T16:27:51Z</time></trkpt><trkpt lat="44.930767498670455" lon="7.672155483488997"><ele>231.0</ele><time>2026-04-05T16:27:52Z</time></trkpt><trkpt lat="44.93097657933711" lon="7.672120640145962"><ele>231.0</ele><time>2026-04-05T16:27:53Z</time></trkpt><trkpt lat="44.93118299604263" lon="7.6720878254729055"><ele>231.33333333333331</ele><time>2026-04-05T16:27:54Z</time></trkpt><trkpt lat="44.931385304889396" lon="7.672053687311045"><ele>231.66666666666666</ele><time>2026-04-05T16:27:55Z</time></trkpt><trkpt lat="44.9315843434641" lon="7.672019151102924"><ele>232.0</ele><time>2026-04-05T16:27:56Z</time></trkpt><trkpt lat="44.931782097012665" lon="7.671986359987395"><ele>231.66666666666666</ele><time>2026-04-05T16:27:57Z</time></trkpt><trkpt lat="44.931976645122674" lon="7.671954004915602"><ele>231.33333333333331</ele><time>2026-04-05T16:27:58Z</time></trkpt><trkpt lat="44.93216898647303" lon="7.671921699848537"><ele>231.0</ele><time>2026-04-05T16:27:59Z</time></trkpt><trkpt lat="44.932360441783885" lon="7.6718901305809455"><ele>231.0</ele><time>2026-04-05T16:28:00Z</time></trkpt><trkpt lat="44.932552245112205" lon="7.671858455401807"><ele>231.0</ele><time>2026-04-05T16:28:01Z</time></trkpt><trkpt lat="44.932741425503394" lon="7.67182758511693"><ele>231.0</ele><time>2026-04-05T16:28:02Z</time></trkpt><trkpt lat="44.93293124922351" lon="7.671794682288132"><ele>231.33333333333331</ele><time>2026-04-05T16:28:03Z</time></trkpt><trkpt lat="44.93312000192357" lon="7.671762426278836"><ele>231.66666666666666</ele><time>2026-04-05T16:28:04Z</time></trkpt><trkpt lat="44.933309662452125" lon="7.671731432007309"><ele>232.0</ele><time>2026-04-05T16:28:05Z</time></trkpt><trkpt lat="44.93350170886363" lon="7.671700005656789"><ele>232.33333333333331</ele><time>2026-04-05T16:28:06Z</time></trkpt><trkpt lat="44.93369386258547" lon="7.671667827896383"><ele>232.66666666666669</ele><time>2026-04-05T16:28:07Z</time></trkpt><trkpt lat="44.93388705730628" lon="7.671636563759951"><ele>233.0</ele><time>2026-04-05T16:28:08Z</time></trkpt><trkpt lat="44.934080335211874" lon="7.671605243532408"><ele>234.0</ele><time>2026-04-05T16:28:09Z</time></trkpt><trkpt lat="44.934270183593036" lon="7.671574375545596"><ele>235.0</ele><time>2026-04-05T16:28:10Z</time></trkpt><trkpt lat="44.93445896248712" lon="7.671544417701849"><ele>236.0</ele><time>2026-04-05T16:28:11Z</time></trkpt><trkpt lat="44.93465024707637" lon="7.671514072692876"><ele>236.0</ele><time>2026-04-05T16:28:12Z</time></trkpt><trkpt lat="44.93484051556616" lon="7.6714845200133235"><ele>236.0</ele><time>2026-04-05T16:28:13Z</time></trkpt><trkpt lat="44.935031173430794" lon="7.6714538413909095"><ele>236.0</ele><time>2026-04-05T16:28:14Z</time></trkpt><trkpt lat="44.93522222865043" lon="7.67142286586409"><ele>236.33333333333334</ele><time>2026-04-05T16:28:15Z</time></trkpt><trkpt lat="44.9354141002888" lon="7.6713906804219585"><ele>236.66666666666669</ele><time>2026-04-05T16:28:16Z</time></trkpt><trkpt lat="44.935606409870644" lon="7.671359838486978"><ele>237.0</ele><time>2026-04-05T16:28:17Z</time></trkpt><trkpt lat="44.93579857264773" lon="7.671328307708444"><ele>236.33333333333331</ele><time>2026-04-05T16:28:18Z</time></trkpt><trkpt lat="44.93599083676034" lon="7.671294982807195"><ele>235.66666666666666</ele><time>2026-04-05T16:28:19Z</time></trkpt><trkpt lat="44.93618492839089" lon="7.671263329201521"><ele>235.0</ele><time>2026-04-05T16:28:20Z</time></trkpt><trkpt lat="44.93637625201641" lon="7.671233685737528"><ele>235.0</ele><time>2026-04-05T16:28:21Z</time></trkpt><trkpt lat="44.936570820182276" lon="7.671205134170818"><ele>235.0</ele><time>2026-04-05T16:28:22Z</time></trkpt><trkpt lat="44.936763120383304" lon="7.6711724727091335"><ele>235.0</ele><time>2026-04-05T16:28:23Z</time></trkpt><trkpt lat="44.936947709677824" lon="7.671143959320479"><ele>234.66666666666666</ele><time>2026-04-05T16:28:24Z</time></trkpt><trkpt lat="44.937117737043586" lon="7.671118665514849"><ele>234.33333333333331</ele><time>2026-04-05T16:28:25Z</time></trkpt><trkpt lat="44.937281850749585" lon="7.671095952497476"><ele>234.0</ele><time>2026-04-05T16:28:26Z</time></trkpt><trkpt lat="44.937448719500495" lon="7.671069394252567"><ele>234.66666666666669</ele><time>2026-04-05T16:28:27Z</time></trkpt><trkpt lat="44.93761720688675" lon="7.671044608836375"><ele>235.33333333333334</ele><time>2026-04-05T16:28:28Z</time></trkpt><trkpt lat="44.93778769334277" lon="7.671024574346998"><ele>236.0</ele><time>2026-04-05T16:28:29Z</time></trkpt><trkpt lat="44.93795397764488" lon="7.6710139995044715"><ele>236.0</ele><time>2026-04-05T16:28:30Z</time></trkpt><trkpt lat="44.93811973300477" lon="7.671003469290636"><ele>236.0</ele><time>2026-04-05T16:28:31Z</time></trkpt><trkpt lat="44.93828382837985" lon="7.670992901157126"><ele>236.0</ele><time>2026-04-05T16:28:32Z</time></trkpt><trkpt lat="44.93843930214551" lon="7.670982189236683"><ele>235.75</ele><time>2026-04-05T16:28:33Z</time></trkpt><trkpt lat="44.93858645503203" lon="7.670983343988989"><ele>235.5</ele><time>2026-04-05T16:28:34Z</time></trkpt><trkpt lat="44.93872806560874" lon="7.670976899937939"><ele>235.25</ele><time>2026-04-05T16:28:35Z</time></trkpt><trkpt lat="44.93885847333029" lon="7.670972009978341"><ele>235.0</ele><time>2026-04-05T16:28:36Z</time></trkpt><trkpt lat="44.93899697540766" lon="7.670966162588891"><ele>235.0</ele><time>2026-04-05T16:28:37Z</time></trkpt><trkpt lat="44.939145837383926" lon="7.670962928297745"><ele>235.0</ele><time>2026-04-05T16:28:38Z</time></trkpt><trkpt lat="44.939307487329486" lon="7.670961895000249"><ele>235.0</ele><time>2026-04-05T16:28:39Z</time></trkpt><trkpt lat="44.93949419174048" lon="7.6709583429385395"><ele>235.0</ele><time>2026-04-05T16:28:40Z</time></trkpt><trkpt lat="44.93969351856772" lon="7.670955415049732"><ele>235.0</ele><time>2026-04-05T16:28:41Z</time></trkpt><trkpt lat="44.93990160712906" lon="7.6709702195840395"><ele>235.0</ele><time>2026-04-05T16:28:42Z</time></trkpt><trkpt lat="44.94011065677901" lon="7.671006769360016"><ele>234.66666666666666</ele><time>2026-04-05T16:28:43Z</time></trkpt><trkpt lat="44.94031948749562" lon="7.671066201102506"><ele>234.33333333333331</ele><time>2026-04-05T16:28:44Z</time></trkpt><trkpt lat="44.94052648378259" lon="7.671146970726514"><ele>234.0</ele><time>2026-04-05T16:28:45Z</time></trkpt><trkpt lat="44.940726914223305" lon="7.6712365636090984"><ele>233.33333333333331</ele><time>2026-04-05T16:28:46Z</time></trkpt><trkpt lat="44.940925582553106" lon="7.671327371710531"><ele>232.66666666666666</ele><time>2026-04-05T16:28:47Z</time></trkpt><trkpt lat="44.941113375268245" lon="7.671424935129049"><ele>232.0</ele><time>2026-04-05T16:28:48Z</time></trkpt><trkpt lat="44.94129508357802" lon="7.671534221448284"><ele>232.0</ele><time>2026-04-05T16:28:49Z</time></trkpt><trkpt lat="44.941478886540246" lon="7.671662027613794"><ele>232.0</ele><time>2026-04-05T16:28:50Z</time></trkpt><trkpt lat="44.94165559604409" lon="7.671804549399051"><ele>232.0</ele><time>2026-04-05T16:28:51Z</time></trkpt><trkpt lat="44.94182594269384" lon="7.671958668944635"><ele>232.66666666666666</ele><time>2026-04-05T16:28:52Z</time></trkpt><trkpt lat="44.942006714801195" lon="7.672131077485417"><ele>233.33333333333331</ele><time>2026-04-05T16:28:53Z</time></trkpt><trkpt lat="44.94218447698644" lon="7.672327122817565"><ele>234.0</ele><time>2026-04-05T16:28:54Z</time></trkpt><trkpt lat="44.94235871086403" lon="7.672548210495272"><ele>234.0</ele><time>2026-04-05T16:28:55Z</time></trkpt><trkpt lat="44.94252650871851" lon="7.672779385508956"><ele>234.0</ele><time>2026-04-05T16:28:56Z</time></trkpt><trkpt lat="44.9426856733601" lon="7.673015543922526"><ele>234.0</ele><time>2026-04-05T16:28:57Z</time></trkpt><trkpt lat="44.94282749156371" lon="7.67325388663013"><ele>234.0</ele><time>2026-04-05T16:28:58Z</time></trkpt><trkpt lat="44.94296055209076" lon="7.673505656952812"><ele>234.0</ele><time>2026-04-05T16:28:59Z</time></trkpt><trkpt lat="44.94308111918224" lon="7.673756868394586"><ele>233.5</ele><time>2026-04-05T16:29:00Z</time></trkpt><trkpt lat="44.94319940832345" lon="7.674030450647038"><ele>233.0</ele><time>2026-04-05T16:29:01Z</time></trkpt><trkpt lat="44.943307199227604" lon="7.674318978003786"><ele>231.0</ele><time>2026-04-05T16:29:02Z</time></trkpt><trkpt lat="44.94339945022384" lon="7.6745940697724295"><ele>229.0</ele><time>2026-04-05T16:29:03Z</time></trkpt><trkpt lat="44.9434855033001" lon="7.674854567818279"><ele>227.0</ele><time>2026-04-05T16:29:04Z</time></trkpt><trkpt lat="44.9435596459429" lon="7.675141954370216"><ele>227.5</ele><time>2026-04-05T16:29:05Z</time></trkpt><trkpt lat="44.943656539742975" lon="7.675446087354964"><ele>228.0</ele><time>2026-04-05T16:29:06Z</time></trkpt><trkpt lat="44.943746706524095" lon="7.675737685279201"><ele>228.0</ele><time>2026-04-05T16:29:07Z</time></trkpt><trkpt lat="44.94383139680965" lon="7.675988008684317"><ele>228.0</ele><time>2026-04-05T16:29:08Z</time></trkpt><trkpt lat="44.943920725715266" lon="7.676220728193635"><ele>228.0</ele><time>2026-04-05T16:29:09Z</time></trkpt><trkpt lat="44.944021774797065" lon="7.676447109505171"><ele>228.33333333333331</ele><time>2026-04-05T16:29:10Z</time></trkpt><trkpt lat="44.94413773407642" lon="7.676680113676885"><ele>228.66666666666666</ele><time>2026-04-05T16:29:11Z</time></trkpt><trkpt lat="44.94426396501082" lon="7.676916795445889"><ele>229.0</ele><time>2026-04-05T16:29:12Z</time></trkpt><trkpt lat="44.94440171140366" lon="7.677148649622926"><ele>229.0</ele><time>2026-04-05T16:29:13Z</time></trkpt><trkpt lat="44.944538652228715" lon="7.677353047223263"><ele>229.0</ele><time>2026-04-05T16:29:14Z</time></trkpt><trkpt lat="44.944670176582505" lon="7.677534686153709"><ele>229.0</ele><time>2026-04-05T16:29:15Z</time></trkpt><trkpt lat="44.944801396355416" lon="7.677700964035173"><ele>229.66666666666666</ele><time>2026-04-05T16:29:16Z</time></trkpt><trkpt lat="44.944941140908185" lon="7.677862753980241"><ele>230.33333333333331</ele><time>2026-04-05T16:29:17Z</time></trkpt><trkpt lat="44.94508950365023" lon="7.677993037821016"><ele>231.0</ele><time>2026-04-05T16:29:18Z</time></trkpt><trkpt lat="44.94522399889936" lon="7.678129540174179"><ele>232.0</ele><time>2026-04-05T16:29:19Z</time></trkpt><trkpt lat="44.94535356248981" lon="7.678246350428874"><ele>233.0</ele><time>2026-04-05T16:29:20Z</time></trkpt><trkpt lat="44.945490895100285" lon="7.67835415872246"><ele>234.0</ele><time>2026-04-05T16:29:21Z</time></trkpt><trkpt lat="44.945628642282905" lon="7.678474971416218"><ele>234.0</ele><time>2026-04-05T16:29:22Z</time></trkpt><trkpt lat="44.94578596613031" lon="7.678581125807363"><ele>234.0</ele><time>2026-04-05T16:29:23Z</time></trkpt><trkpt lat="44.94595725194284" lon="7.678684642355457"><ele>234.0</ele><time>2026-04-05T16:29:24.001Z</time></trkpt><trkpt lat="44.94613859949586" lon="7.678780982962629"><ele>232.66666666666669</ele><time>2026-04-05T16:29:25.001Z</time></trkpt><trkpt lat="44.946317585605904" lon="7.6788369881058305"><ele>231.33333333333334</ele><time>2026-04-05T16:29:26.001Z</time></trkpt><trkpt lat="44.94648119162479" lon="7.678899572967581"><ele>230.0</ele><time>2026-04-05T16:29:27.001Z</time></trkpt><trkpt lat="44.94663557643225" lon="7.678952428256879"><ele>230.0</ele><time>2026-04-05T16:29:28.001Z</time></trkpt><trkpt lat="44.946784527741215" lon="7.67901730938021"><ele>230.0</ele><time>2026-04-05T16:29:29.001Z</time></trkpt><trkpt lat="44.94693719201836" lon="7.679048464548327"><ele>230.0</ele><time>2026-04-05T16:29:30.001Z</time></trkpt><trkpt lat="44.947092294046975" lon="7.679048595696505"><ele>230.0</ele><time>2026-04-05T16:29:31.001Z</time></trkpt><trkpt lat="44.947237679265704" lon="7.6790655742678045"><ele>230.0</ele><time>2026-04-05T16:29:32.001Z</time></trkpt><trkpt lat="44.947381570392515" lon="7.679072841920567"><ele>230.0</ele><time>2026-04-05T16:29:33.001Z</time></trkpt><trkpt lat="44.94753244147981" lon="7.6790768757649905"><ele>230.0</ele><time>2026-04-05T16:29:34.001Z</time></trkpt><trkpt lat="44.94769464314981" lon="7.6790801245087446"><ele>231.33333333333334</ele><time>2026-04-05T16:29:35.001Z</time></trkpt><trkpt lat="44.94786142140626" lon="7.679080889616154"><ele>232.66666666666669</ele><time>2026-04-05T16:29:36.001Z</time></trkpt><trkpt lat="44.948033621052694" lon="7.679084128161879"><ele>234.0</ele><time>2026-04-05T16:29:37.001Z</time></trkpt><trkpt lat="44.94821176682799" lon="7.679107549389258"><ele>232.66666666666669</ele><time>2026-04-05T16:29:38.001Z</time></trkpt><trkpt lat="44.948386390501675" lon="7.679088590015273"><ele>231.33333333333334</ele><time>2026-04-05T16:29:39.001Z</time></trkpt><trkpt lat="44.94856024329216" lon="7.6790948878057605"><ele>230.0</ele><time>2026-04-05T16:29:40.001Z</time></trkpt><trkpt lat="44.94873126301073" lon="7.679099283838351"><ele>230.0</ele><time>2026-04-05T16:29:41Z</time></trkpt><trkpt lat="44.948894000980154" lon="7.679103363810257"><ele>230.0</ele><time>2026-04-05T16:29:42Z</time></trkpt><trkpt lat="44.94906133144354" lon="7.679102098069514"><ele>230.0</ele><time>2026-04-05T16:29:43Z</time></trkpt><trkpt lat="44.94923760166525" lon="7.679127242202252"><ele>230.66666666666669</ele><time>2026-04-05T16:29:44Z</time></trkpt><trkpt lat="44.9494171068673" lon="7.679129919149721"><ele>231.33333333333331</ele><time>2026-04-05T16:29:45Z</time></trkpt><trkpt lat="44.9495966290259" lon="7.679110522409499"><ele>232.0</ele><time>2026-04-05T16:29:46Z</time></trkpt><trkpt lat="44.94977436872369" lon="7.679120339448042"><ele>232.0</ele><time>2026-04-05T16:29:47Z</time></trkpt><trkpt lat="44.94993985676428" lon="7.679128196751486"><ele>232.0</ele><time>2026-04-05T16:29:48Z</time></trkpt><trkpt lat="44.95009681524912" lon="7.679133069624958"><ele>232.0</ele><time>2026-04-05T16:29:49Z</time></trkpt><trkpt lat="44.95024595975272" lon="7.6791362745978535"><ele>231.75</ele><time>2026-04-05T16:29:50Z</time></trkpt><trkpt lat="44.950386950031195" lon="7.679137182156433"><ele>231.5</ele><time>2026-04-05T16:29:51Z</time></trkpt><trkpt lat="44.9505267047425" lon="7.67914221717673"><ele>231.25</ele><time>2026-04-05T16:29:52Z</time></trkpt><trkpt lat="44.950667588407626" lon="7.67914345990453"><ele>231.0</ele><time>2026-04-05T16:29:53Z</time></trkpt><trkpt lat="44.95081356025228" lon="7.679144930594912"><ele>230.5</ele><time>2026-04-05T16:29:54Z</time></trkpt><trkpt lat="44.95096173771533" lon="7.679150184821223"><ele>230.0</ele><time>2026-04-05T16:29:55Z</time></trkpt><trkpt lat="44.951110786658795" lon="7.679151236989762"><ele>229.5</ele><time>2026-04-05T16:29:56Z</time></trkpt><trkpt lat="44.95126191032361" lon="7.6791530888204065"><ele>229.0</ele><time>2026-04-05T16:29:57Z</time></trkpt><trkpt lat="44.95140954430428" lon="7.679155920322085"><ele>229.0</ele><time>2026-04-05T16:29:58Z</time></trkpt><trkpt lat="44.9515579825844" lon="7.679161204576016"><ele>229.0</ele><time>2026-04-05T16:29:59Z</time></trkpt><trkpt lat="44.951708297600504" lon="7.679164130955505"><ele>229.0</ele><time>2026-04-05T16:30:00Z</time></trkpt><trkpt lat="44.95185449843752" lon="7.679164611938478"><ele>229.0</ele><time>2026-04-05T16:30:01Z</time></trkpt><trkpt lat="44.95199210759408" lon="7.679167271661437"><ele>229.0</ele><time>2026-04-05T16:30:02Z</time></trkpt><trkpt lat="44.95212086653078" lon="7.679169387565778"><ele>229.0</ele><time>2026-04-05T16:30:03Z</time></trkpt><trkpt lat="44.952243830989545" lon="7.679166709062864"><ele>229.0</ele><time>2026-04-05T16:30:04Z</time></trkpt><trkpt lat="44.95236925136743" lon="7.67916485235837"><ele>229.0</ele><time>2026-04-05T16:30:05Z</time></trkpt><trkpt lat="44.95249536571527" lon="7.67915419201888"><ele>228.75</ele><time>2026-04-05T16:30:06Z</time></trkpt><trkpt lat="44.952621577284376" lon="7.6791790800018935"><ele>228.5</ele><time>2026-04-05T16:30:07Z</time></trkpt><trkpt lat="44.95273890609063" lon="7.6791910534912"><ele>228.25</ele><time>2026-04-05T16:30:08Z</time></trkpt><trkpt lat="44.952861999944176" lon="7.679194077341376"><ele>228.0</ele><time>2026-04-05T16:30:09Z</time></trkpt><trkpt lat="44.95298935284416" lon="7.679189494721288"><ele>228.0</ele><time>2026-04-05T16:30:10Z</time></trkpt><trkpt lat="44.953121432979025" lon="7.67918538328687"><ele>228.0</ele><time>2026-04-05T16:30:11Z</time></trkpt><trkpt lat="44.953257761317595" lon="7.679186088780163"><ele>228.0</ele><time>2026-04-05T16:30:12Z</time></trkpt><trkpt lat="44.95339627013394" lon="7.6791896047798"><ele>228.0</ele><time>2026-04-05T16:30:13Z</time></trkpt><trkpt lat="44.953539558417646" lon="7.679191291077164"><ele>228.0</ele><time>2026-04-05T16:30:14Z</time></trkpt><trkpt lat="44.95368369203121" lon="7.6791929702186605"><ele>228.0</ele><time>2026-04-05T16:30:15Z</time></trkpt><trkpt lat="44.953823943289656" lon="7.6791960603700264"><ele>228.0</ele><time>2026-04-05T16:30:16Z</time></trkpt><trkpt lat="44.953965802990766" lon="7.67920529389346"><ele>228.0</ele><time>2026-04-05T16:30:17Z</time></trkpt><trkpt lat="44.954108534237555" lon="7.679221308907112"><ele>228.25</ele><time>2026-04-05T16:30:18Z</time></trkpt><trkpt lat="44.95425008008893" lon="7.679251936566799"><ele>228.5</ele><time>2026-04-05T16:30:19Z</time></trkpt><trkpt lat="44.954389807000275" lon="7.679296763571973"><ele>228.75</ele><time>2026-04-05T16:30:20Z</time></trkpt><trkpt lat="44.95452719930388" lon="7.67934868836153"><ele>229.0</ele><time>2026-04-05T16:30:21Z</time></trkpt><trkpt lat="44.954666549500146" lon="7.679414479943063"><ele>229.0</ele><time>2026-04-05T16:30:22Z</time></trkpt><trkpt lat="44.954803842123574" lon="7.679489427960769"><ele>229.0</ele><time>2026-04-05T16:30:23Z</time></trkpt><trkpt lat="44.95494100537225" lon="7.679574048982373"><ele>229.0</ele><time>2026-04-05T16:30:24Z</time></trkpt><trkpt lat="44.95507365534193" lon="7.6796798367302745"><ele>229.0</ele><time>2026-04-05T16:30:25Z</time></trkpt><trkpt lat="44.95520254895066" lon="7.679797320830889"><ele>229.66666666666666</ele><time>2026-04-05T16:30:26Z</time></trkpt><trkpt lat="44.9553411613676" lon="7.679918564468907"><ele>230.33333333333331</ele><time>2026-04-05T16:30:27Z</time></trkpt><trkpt lat="44.95547623838657" lon="7.680050229892493"><ele>231.0</ele><time>2026-04-05T16:30:28Z</time></trkpt><trkpt lat="44.9556167940568" lon="7.680172469924034"><ele>230.0</ele><time>2026-04-05T16:30:29.001Z</time></trkpt><trkpt lat="44.95576341426825" lon="7.6802966336396175"><ele>229.0</ele><time>2026-04-05T16:30:30Z</time></trkpt><trkpt lat="44.95590849920187" lon="7.680411897285187"><ele>228.0</ele><time>2026-04-05T16:30:31Z</time></trkpt><trkpt lat="44.956054377504714" lon="7.680520454292553"><ele>227.66666666666669</ele><time>2026-04-05T16:30:32Z</time></trkpt><trkpt lat="44.95620579094934" lon="7.6806242194336924"><ele>227.33333333333334</ele><time>2026-04-05T16:30:33Z</time></trkpt><trkpt lat="44.9563624061515" lon="7.680718971759703"><ele>227.0</ele><time>2026-04-05T16:30:34Z</time></trkpt><trkpt lat="44.95652803865131" lon="7.680798893381968"><ele>227.0</ele><time>2026-04-05T16:30:35Z</time></trkpt><trkpt lat="44.95669822348009" lon="7.680871600016043"><ele>227.0</ele><time>2026-04-05T16:30:36Z</time></trkpt><trkpt lat="44.95687046358914" lon="7.680927335772896"><ele>227.0</ele><time>2026-04-05T16:30:37Z</time></trkpt><trkpt lat="44.957053355890075" lon="7.680963664083048"><ele>226.33333333333334</ele><time>2026-04-05T16:30:38Z</time></trkpt><trkpt lat="44.95724083579328" lon="7.680987908204663"><ele>225.66666666666669</ele><time>2026-04-05T16:30:39Z</time></trkpt><trkpt lat="44.957424537628796" lon="7.680998599477153"><ele>225.0</ele><time>2026-04-05T16:30:40Z</time></trkpt><trkpt lat="44.95761225187725" lon="7.680981323524406"><ele>224.66666666666669</ele><time>2026-04-05T16:30:41Z</time></trkpt><trkpt lat="44.95779772509426" lon="7.680959981156191"><ele>224.33333333333334</ele><time>2026-04-05T16:30:42Z</time></trkpt><trkpt lat="44.95798333493132" lon="7.680913847914303"><ele>224.0</ele><time>2026-04-05T16:30:43Z</time></trkpt><trkpt lat="44.95816177163873" lon="7.6808563328987045"><ele>224.0</ele><time>2026-04-05T16:30:44Z</time></trkpt><trkpt lat="44.95833245960884" lon="7.680791228428887"><ele>224.0</ele><time>2026-04-05T16:30:45Z</time></trkpt><trkpt lat="44.95850709981905" lon="7.680721326431994"><ele>224.0</ele><time>2026-04-05T16:30:46Z</time></trkpt><trkpt lat="44.95868730910518" lon="7.68065214204799"><ele>223.66666666666669</ele><time>2026-04-05T16:30:47Z</time></trkpt><trkpt lat="44.9588649743313" lon="7.6805868809217825"><ele>223.33333333333331</ele><time>2026-04-05T16:30:48Z</time></trkpt><trkpt lat="44.95903113918688" lon="7.6805254366759295"><ele>223.0</ele><time>2026-04-05T16:30:49Z</time></trkpt><trkpt lat="44.95918860341072" lon="7.680467422340954"><ele>222.66666666666666</ele><time>2026-04-05T16:30:50Z</time></trkpt><trkpt lat="44.95933649125071" lon="7.680411054817195"><ele>222.33333333333331</ele><time>2026-04-05T16:30:51Z</time></trkpt><trkpt lat="44.9594846885318" lon="7.680351793314052"><ele>222.0</ele><time>2026-04-05T16:30:52Z</time></trkpt><trkpt lat="44.95963318852865" lon="7.680293944337839"><ele>222.25</ele><time>2026-04-05T16:30:53Z</time></trkpt><trkpt lat="44.959778231509056" lon="7.680230676208972"><ele>222.5</ele><time>2026-04-05T16:30:54Z</time></trkpt><trkpt lat="44.95992003710749" lon="7.680167386744183"><ele>222.75</ele><time>2026-04-05T16:30:55Z</time></trkpt><trkpt lat="44.96005969783513" lon="7.680097539300928"><ele>223.0</ele><time>2026-04-05T16:30:56Z</time></trkpt><trkpt lat="44.960200681168295" lon="7.680025260546543"><ele>223.66666666666666</ele><time>2026-04-05T16:30:57Z</time></trkpt><trkpt lat="44.96034218730013" lon="7.679952591323164"><ele>224.33333333333331</ele><time>2026-04-05T16:30:58Z</time></trkpt><trkpt lat="44.96048474773617" lon="7.679871011293726"><ele>225.0</ele><time>2026-04-05T16:30:59Z</time></trkpt><trkpt lat="44.96063062470671" lon="7.679788534386226"><ele>225.0</ele><time>2026-04-05T16:31:00Z</time></trkpt><trkpt lat="44.96077594776005" lon="7.679704330055925"><ele>225.0</ele><time>2026-04-05T16:31:01Z</time></trkpt><trkpt lat="44.96091761382705" lon="7.679613554958003"><ele>225.0</ele><time>2026-04-05T16:31:02Z</time></trkpt><trkpt lat="44.9610607055054" lon="7.679519768286905"><ele>224.0</ele><time>2026-04-05T16:31:03Z</time></trkpt><trkpt lat="44.96120187000821" lon="7.679421934974476"><ele>223.0</ele><time>2026-04-05T16:31:04Z</time></trkpt><trkpt lat="44.961340922140195" lon="7.679309538039214"><ele>222.0</ele><time>2026-04-05T16:31:05Z</time></trkpt><trkpt lat="44.96148571362384" lon="7.679207679836814"><ele>222.0</ele><time>2026-04-05T16:31:06Z</time></trkpt><trkpt lat="44.96162878904997" lon="7.679099522207367"><ele>222.0</ele><time>2026-04-05T16:31:07Z</time></trkpt><trkpt lat="44.96175941722838" lon="7.6789934126165695"><ele>222.0</ele><time>2026-04-05T16:31:08Z</time></trkpt><trkpt lat="44.961892245814106" lon="7.678882502493032"><ele>221.66666666666669</ele><time>2026-04-05T16:31:09Z</time></trkpt><trkpt lat="44.96202738152763" lon="7.6787677566856845"><ele>221.33333333333334</ele><time>2026-04-05T16:31:10Z</time></trkpt><trkpt lat="44.962156926672634" lon="7.678658236873004"><ele>221.0</ele><time>2026-04-05T16:31:11Z</time></trkpt><trkpt lat="44.962281644852155" lon="7.678539334503362"><ele>222.0</ele><time>2026-04-05T16:31:12Z</time></trkpt><trkpt lat="44.96241613814725" lon="7.678408328745534"><ele>223.0</ele><time>2026-04-05T16:31:13Z</time></trkpt><trkpt lat="44.96256085465305" lon="7.678258653747043"><ele>224.0</ele><time>2026-04-05T16:31:14Z</time></trkpt><trkpt lat="44.96272125879621" lon="7.678094172166799"><ele>224.0</ele><time>2026-04-05T16:31:15Z</time></trkpt><trkpt lat="44.96288478543207" lon="7.677925030553037"><ele>224.0</ele><time>2026-04-05T16:31:16Z</time></trkpt><trkpt lat="44.96305026451414" lon="7.677758527249433"><ele>224.0</ele><time>2026-04-05T16:31:17Z</time></trkpt><trkpt lat="44.96321416532276" lon="7.677598641914896"><ele>224.0</ele><time>2026-04-05T16:31:18Z</time></trkpt><trkpt lat="44.96337575548844" lon="7.67743876878741"><ele>224.0</ele><time>2026-04-05T16:31:19Z</time></trkpt><trkpt lat="44.963539693872065" lon="7.677270015013878"><ele>224.0</ele><time>2026-04-05T16:31:20Z</time></trkpt><trkpt lat="44.96371498205426" lon="7.677086508690959"><ele>223.0</ele><time>2026-04-05T16:31:21Z</time></trkpt><trkpt lat="44.96389889286561" lon="7.676894474575395"><ele>222.0</ele><time>2026-04-05T16:31:22Z</time></trkpt><trkpt lat="44.96408750577654" lon="7.67669731533607"><ele>222.66666666666669</ele><time>2026-04-05T16:31:23Z</time></trkpt><trkpt lat="44.96427047475055" lon="7.676508585237032"><ele>223.33333333333334</ele><time>2026-04-05T16:31:24Z</time></trkpt><trkpt lat="44.96445668081335" lon="7.676347960395462"><ele>224.0</ele><time>2026-04-05T16:31:25Z</time></trkpt><trkpt lat="44.96461451075531" lon="7.6761616290007915"><ele>223.33333333333334</ele><time>2026-04-05T16:31:26Z</time></trkpt><trkpt lat="44.9647733735282" lon="7.676005823265171"><ele>222.66666666666669</ele><time>2026-04-05T16:31:27Z</time></trkpt><trkpt lat="44.96492469230224" lon="7.675855077415904"><ele>222.0</ele><time>2026-04-05T16:31:28Z</time></trkpt><trkpt lat="44.96507509886838" lon="7.675702686360435"><ele>222.0</ele><time>2026-04-05T16:31:29Z</time></trkpt><trkpt lat="44.96522575052461" lon="7.675537261770348"><ele>222.0</ele><time>2026-04-05T16:31:30Z</time></trkpt><trkpt lat="44.96537890282681" lon="7.6753429746525565"><ele>222.0</ele><time>2026-04-05T16:31:31Z</time></trkpt><trkpt lat="44.965527024420894" lon="7.675133071395827"><ele>222.33333333333331</ele><time>2026-04-05T16:31:32Z</time></trkpt><trkpt lat="44.965657101934426" lon="7.674930875792189"><ele>222.66666666666666</ele><time>2026-04-05T16:31:33Z</time></trkpt><trkpt lat="44.96577148293238" lon="7.67473436854188"><ele>223.0</ele><time>2026-04-05T16:31:34Z</time></trkpt><trkpt lat="44.96587390730043" lon="7.674538461881509"><ele>222.66666666666666</ele><time>2026-04-05T16:31:35Z</time></trkpt><trkpt lat="44.96597208244219" lon="7.674318941418555"><ele>222.33333333333331</ele><time>2026-04-05T16:31:36Z</time></trkpt><trkpt lat="44.96606956188906" lon="7.6740741527125955"><ele>222.0</ele><time>2026-04-05T16:31:37Z</time></trkpt><trkpt lat="44.966166270502114" lon="7.673823974794991"><ele>223.0</ele><time>2026-04-05T16:31:38Z</time></trkpt><trkpt lat="44.96624021137567" lon="7.673587208851099"><ele>224.0</ele><time>2026-04-05T16:31:39Z</time></trkpt><trkpt lat="44.96629576463515" lon="7.673384005027574"><ele>225.0</ele><time>2026-04-05T16:31:40Z</time></trkpt><trkpt lat="44.96635443633909" lon="7.673194561994196"><ele>225.0</ele><time>2026-04-05T16:31:41Z</time></trkpt><trkpt lat="44.96640922302763" lon="7.673016651837823"><ele>225.0</ele><time>2026-04-05T16:31:42Z</time></trkpt><trkpt lat="44.96646085796456" lon="7.672845803319446"><ele>225.0</ele><time>2026-04-05T16:31:43Z</time></trkpt><trkpt lat="44.96651016614822" lon="7.672684258981843"><ele>225.0</ele><time>2026-04-05T16:31:44Z</time></trkpt><trkpt lat="44.96655907586523" lon="7.672522742891335"><ele>225.0</ele><time>2026-04-05T16:31:45Z</time></trkpt><trkpt lat="44.966604288054604" lon="7.6723659412566745"><ele>225.0</ele><time>2026-04-05T16:31:46Z</time></trkpt><trkpt lat="44.96664921384929" lon="7.672209384593468"><ele>225.0</ele><time>2026-04-05T16:31:47Z</time></trkpt><trkpt lat="44.96670056472127" lon="7.672046647925883"><ele>225.0</ele><time>2026-04-05T16:31:48Z</time></trkpt><trkpt lat="44.96675436542912" lon="7.6718754375774525"><ele>224.75</ele><time>2026-04-05T16:31:49Z</time></trkpt><trkpt lat="44.96680979684551" lon="7.671703978000518"><ele>224.5</ele><time>2026-04-05T16:31:50Z</time></trkpt><trkpt lat="44.966863324890795" lon="7.671529778023642"><ele>224.25</ele><time>2026-04-05T16:31:51Z</time></trkpt><trkpt lat="44.96692107759507" lon="7.67135284561051"><ele>224.0</ele><time>2026-04-05T16:31:52Z</time></trkpt><trkpt lat="44.966985989522314" lon="7.671177395556069"><ele>224.5</ele><time>2026-04-05T16:31:53Z</time></trkpt><trkpt lat="44.96706290058" lon="7.6710008943866885"><ele>225.0</ele><time>2026-04-05T16:31:54Z</time></trkpt><trkpt lat="44.96714964855596" lon="7.670832997485851"><ele>225.5</ele><time>2026-04-05T16:31:55Z</time></trkpt><trkpt lat="44.96724488935741" lon="7.670675621565403"><ele>226.0</ele><time>2026-04-05T16:31:56Z</time></trkpt><trkpt lat="44.9673461089783" lon="7.670528945974237"><ele>226.0</ele><time>2026-04-05T16:31:57Z</time></trkpt><trkpt lat="44.96745389499286" lon="7.670393843778825"><ele>226.0</ele><time>2026-04-05T16:31:58Z</time></trkpt><trkpt lat="44.96756919847073" lon="7.670263170657145"><ele>226.0</ele><time>2026-04-05T16:31:59Z</time></trkpt><trkpt lat="44.967690753511164" lon="7.670137063684127"><ele>226.0</ele><time>2026-04-05T16:32:00Z</time></trkpt><trkpt lat="44.96781714172338" lon="7.670020930908011"><ele>225.66666666666666</ele><time>2026-04-05T16:32:01Z</time></trkpt><trkpt lat="44.96795045640412" lon="7.669921045004137"><ele>225.33333333333331</ele><time>2026-04-05T16:32:02Z</time></trkpt><trkpt lat="44.96808739610051" lon="7.6698352392927065"><ele>225.0</ele><time>2026-04-05T16:32:03Z</time></trkpt><trkpt lat="44.96822981967791" lon="7.669757093741281"><ele>224.66666666666669</ele><time>2026-04-05T16:32:04Z</time></trkpt><trkpt lat="44.96837963349728" lon="7.669692560438536"><ele>224.33333333333334</ele><time>2026-04-05T16:32:05Z</time></trkpt><trkpt lat="44.968540208860254" lon="7.669639498365046"><ele>224.0</ele><time>2026-04-05T16:32:06Z</time></trkpt><trkpt lat="44.96871134556058" lon="7.669602366007811"><ele>224.0</ele><time>2026-04-05T16:32:07Z</time></trkpt><trkpt lat="44.968884929137666" lon="7.669580480762633"><ele>224.0</ele><time>2026-04-05T16:32:08Z</time></trkpt><trkpt lat="44.969053980666615" lon="7.669568458127519"><ele>224.0</ele><time>2026-04-05T16:32:09Z</time></trkpt><trkpt lat="44.96922295443229" lon="7.669568693636873"><ele>224.33333333333334</ele><time>2026-04-05T16:32:10Z</time></trkpt><trkpt lat="44.969396057217025" lon="7.6695797507499766"><ele>224.66666666666669</ele><time>2026-04-05T16:32:11Z</time></trkpt><trkpt lat="44.969569524354384" lon="7.669589115702241"><ele>225.0</ele><time>2026-04-05T16:32:12Z</time></trkpt><trkpt lat="44.96974338940725" lon="7.669600900593438"><ele>225.0</ele><time>2026-04-05T16:32:13Z</time></trkpt><trkpt lat="44.96991745488773" lon="7.669608139083971"><ele>225.0</ele><time>2026-04-05T16:32:14Z</time></trkpt><trkpt lat="44.970097692216456" lon="7.669615973753977"><ele>225.0</ele><time>2026-04-05T16:32:15Z</time></trkpt><trkpt lat="44.970282499084966" lon="7.669623546588703"><ele>225.0</ele><time>2026-04-05T16:32:16Z</time></trkpt><trkpt lat="44.9704726760074" lon="7.669631754100963"><ele>225.0</ele><time>2026-04-05T16:32:17Z</time></trkpt><trkpt lat="44.97066461049786" lon="7.669638639945823"><ele>225.0</ele><time>2026-04-05T16:32:18Z</time></trkpt><trkpt lat="44.97085832221839" lon="7.669648902631671"><ele>225.0</ele><time>2026-04-05T16:32:19Z</time></trkpt><trkpt lat="44.9710500868293" lon="7.669660328560617"><ele>225.0</ele><time>2026-04-05T16:32:20Z</time></trkpt><trkpt lat="44.97124720220348" lon="7.669665841300107"><ele>225.0</ele><time>2026-04-05T16:32:21Z</time></trkpt><trkpt lat="44.97143871456864" lon="7.669672645710368"><ele>225.0</ele><time>2026-04-05T16:32:22Z</time></trkpt><trkpt lat="44.97164669290373" lon="7.669680465894005"><ele>225.0</ele><time>2026-04-05T16:32:23Z</time></trkpt><trkpt lat="44.97185437238633" lon="7.669686956127244"><ele>225.0</ele><time>2026-04-05T16:32:24Z</time></trkpt><trkpt lat="44.97204525791425" lon="7.669694917929767"><ele>225.0</ele><time>2026-04-05T16:32:25Z</time></trkpt><trkpt lat="44.972229440581415" lon="7.669703547804747"><ele>225.0</ele><time>2026-04-05T16:32:26Z</time></trkpt><trkpt lat="44.97239998438275" lon="7.66971011063825"><ele>225.0</ele><time>2026-04-05T16:32:27Z</time></trkpt><trkpt lat="44.97256875907534" lon="7.669717707211768"><ele>225.0</ele><time>2026-04-05T16:32:28Z</time></trkpt><trkpt lat="44.97273158350755" lon="7.669724317657308"><ele>225.0</ele><time>2026-04-05T16:32:29Z</time></trkpt><trkpt lat="44.972886501440534" lon="7.669725212901921"><ele>225.0</ele><time>2026-04-05T16:32:30Z</time></trkpt><trkpt lat="44.97304528344542" lon="7.669732656838143"><ele>225.0</ele><time>2026-04-05T16:32:31Z</time></trkpt><trkpt lat="44.97319995090084" lon="7.669741116809076"><ele>225.0</ele><time>2026-04-05T16:32:32Z</time></trkpt><trkpt lat="44.97335455828461" lon="7.6697752309960245"><ele>225.0</ele><time>2026-04-05T16:32:33Z</time></trkpt><trkpt lat="44.97350939178926" lon="7.669786035076086"><ele>224.75</ele><time>2026-04-05T16:32:34Z</time></trkpt><trkpt lat="44.97365891322715" lon="7.669796746779834"><ele>224.5</ele><time>2026-04-05T16:32:35Z</time></trkpt><trkpt lat="44.973801800599006" lon="7.669787121128375"><ele>224.25</ele><time>2026-04-05T16:32:36Z</time></trkpt><trkpt lat="44.973937980340054" lon="7.669803843939839"><ele>224.0</ele><time>2026-04-05T16:32:37Z</time></trkpt><trkpt lat="44.974066438181566" lon="7.669819641559454"><ele>224.2</ele><time>2026-04-05T16:32:38Z</time></trkpt><trkpt lat="44.97419026718973" lon="7.669835086038917"><ele>224.39999999999998</ele><time>2026-04-05T16:32:39Z</time></trkpt><trkpt lat="44.97430041839655" lon="7.669844809437845"><ele>224.6</ele><time>2026-04-05T16:32:40Z</time></trkpt><trkpt lat="44.97440641681884" lon="7.669853421794923"><ele>224.8</ele><time>2026-04-05T16:32:41Z</time></trkpt><trkpt lat="44.974508033324554" lon="7.669870085663249"><ele>225.0</ele><time>2026-04-05T16:32:42Z</time></trkpt><trkpt lat="44.97459243167264" lon="7.669888379544975"><ele>225.0</ele><time>2026-04-05T16:32:43Z</time></trkpt><trkpt lat="44.9746824332702" lon="7.669911127687054"><ele>225.0</ele><time>2026-04-05T16:32:45Z</time></trkpt><trkpt lat="44.97476744154345" lon="7.669936653496473"><ele>225.0</ele><time>2026-04-05T16:32:48Z</time></trkpt><trkpt lat="44.97485606132847" lon="7.66997432976872"><ele>225.0</ele><time>2026-04-05T16:32:50Z</time></trkpt><trkpt lat="44.974912524306134" lon="7.670026068962958"><ele>225.0</ele><time>2026-04-05T16:32:51Z</time></trkpt><trkpt lat="44.97497131456075" lon="7.670086833950705"><ele>225.0</ele><time>2026-04-05T16:32:52Z</time></trkpt><trkpt lat="44.975030011003966" lon="7.670121228507702"><ele>224.6</ele><time>2026-04-05T16:32:53Z</time></trkpt><trkpt lat="44.975092202970366" lon="7.670150055655248"><ele>224.2</ele><time>2026-04-05T16:32:54Z</time></trkpt><trkpt lat="44.975155650096866" lon="7.670111650504729"><ele>223.8</ele><time>2026-04-05T16:32:55Z</time></trkpt><trkpt lat="44.97526000381969" lon="7.670052429820179"><ele>223.4</ele><time>2026-04-05T16:32:57Z</time></trkpt><trkpt lat="44.97529563150208" lon="7.6698549705905235"><ele>223.0</ele><time>2026-04-05T16:32:59Z</time></trkpt><trkpt lat="44.97529143190068" lon="7.6697595638268945"><ele>223.0</ele><time>2026-04-05T16:33:00Z</time></trkpt><trkpt lat="44.97524961548844" lon="7.669596572440294"><ele>223.0</ele><time>2026-04-05T16:33:02Z</time></trkpt><trkpt lat="44.97515832923836" lon="7.66947483101147"><ele>223.0</ele><time>2026-04-05T16:33:04Z</time></trkpt><trkpt lat="44.975175324912016" lon="7.669299634659613"><ele>223.0</ele><time>2026-04-05T16:33:05Z</time></trkpt><trkpt lat="44.97517187578396" lon="7.669173486976833"><ele>222.8</ele><time>2026-04-05T16:33:06Z</time></trkpt><trkpt lat="44.97517042983369" lon="7.669046793483475"><ele>222.60000000000002</ele><time>2026-04-05T16:33:07Z</time></trkpt><trkpt lat="44.97516857767406" lon="7.668911531904494"><ele>222.39999999999998</ele><time>2026-04-05T16:33:08Z</time></trkpt><trkpt lat="44.975162825160275" lon="7.668767719048944"><ele>222.2</ele><time>2026-04-05T16:33:09Z</time></trkpt><trkpt lat="44.97516258170751" lon="7.6686206001089"><ele>222.0</ele><time>2026-04-05T16:33:10Z</time></trkpt><trkpt lat="44.97510838296317" lon="7.668481704442795"><ele>222.25</ele><time>2026-04-05T16:33:11Z</time></trkpt><trkpt lat="44.97505795881644" lon="7.668334097737991"><ele>222.5</ele><time>2026-04-05T16:33:12Z</time></trkpt><trkpt lat="44.975008155312835" lon="7.668181336793632"><ele>222.75</ele><time>2026-04-05T16:33:13Z</time></trkpt><trkpt lat="44.97491872472523" lon="7.6680632132418785"><ele>223.0</ele><time>2026-04-05T16:33:14Z</time></trkpt><trkpt lat="44.9748194585345" lon="7.667961669071907"><ele>223.0</ele><time>2026-04-05T16:33:15Z</time></trkpt><trkpt lat="44.97470416364132" lon="7.667853153388846"><ele>223.0</ele><time>2026-04-05T16:33:16Z</time></trkpt><trkpt lat="44.974569609024336" lon="7.667734221931518"><ele>223.0</ele><time>2026-04-05T16:33:17Z</time></trkpt><trkpt lat="44.97442964677564" lon="7.667606357454205"><ele>223.0</ele><time>2026-04-05T16:33:18Z</time></trkpt><trkpt lat="44.974285400069526" lon="7.6674653231370735"><ele>223.0</ele><time>2026-04-05T16:33:19Z</time></trkpt><trkpt lat="44.97412641990281" lon="7.667319232093799"><ele>223.0</ele><time>2026-04-05T16:33:20Z</time></trkpt><trkpt lat="44.973967768519486" lon="7.667170625958759"><ele>223.0</ele><time>2026-04-05T16:33:21Z</time></trkpt><trkpt lat="44.9738225583232" lon="7.667026657746336"><ele>223.0</ele><time>2026-04-05T16:33:22Z</time></trkpt><trkpt lat="44.97367705977475" lon="7.666866449749889"><ele>223.0</ele><time>2026-04-05T16:33:23Z</time></trkpt><trkpt lat="44.97353571855714" lon="7.666677381174792"><ele>223.0</ele><time>2026-04-05T16:33:24Z</time></trkpt><trkpt lat="44.97341298261757" lon="7.666456804708433"><ele>223.0</ele><time>2026-04-05T16:33:25Z</time></trkpt><trkpt lat="44.97331371679045" lon="7.666199252082495"><ele>223.0</ele><time>2026-04-05T16:33:26Z</time></trkpt><trkpt lat="44.97324710821849" lon="7.665904122197715"><ele>223.0</ele><time>2026-04-05T16:33:27Z</time></trkpt><trkpt lat="44.97321417684405" lon="7.665585304107153"><ele>223.0</ele><time>2026-04-05T16:33:28Z</time></trkpt><trkpt lat="44.973218555921996" lon="7.665257680473268"><ele>223.0</ele><time>2026-04-05T16:33:29Z</time></trkpt><trkpt lat="44.97326651401764" lon="7.664931742358462"><ele>223.0</ele><time>2026-04-05T16:33:30Z</time></trkpt><trkpt lat="44.97335315100277" lon="7.664595814007259"><ele>222.5</ele><time>2026-04-05T16:33:31Z</time></trkpt><trkpt lat="44.97343748762593" lon="7.6642478023242395"><ele>222.0</ele><time>2026-04-05T16:33:32Z</time></trkpt><trkpt lat="44.97351767850441" lon="7.663874831081678"><ele>222.5</ele><time>2026-04-05T16:33:33Z</time></trkpt><trkpt lat="44.97360001206113" lon="7.663491956213304"><ele>223.0</ele><time>2026-04-05T16:33:34Z</time></trkpt><trkpt lat="44.97369009714069" lon="7.663110589502237"><ele>222.0</ele><time>2026-04-05T16:33:35Z</time></trkpt><trkpt lat="44.97378704629961" lon="7.662729587095371"><ele>221.0</ele><time>2026-04-05T16:33:36Z</time></trkpt><trkpt lat="44.9738844931266" lon="7.662351907735286"><ele>221.0</ele><time>2026-04-05T16:33:37Z</time></trkpt><trkpt lat="44.973986824712554" lon="7.661982443551305"><ele>221.0</ele><time>2026-04-05T16:33:38Z</time></trkpt><trkpt lat="44.974096177953356" lon="7.661616308890414"><ele>222.0</ele><time>2026-04-05T16:33:39Z</time></trkpt><trkpt lat="44.97420422992801" lon="7.661255935741691"><ele>223.0</ele><time>2026-04-05T16:33:40Z</time></trkpt><trkpt lat="44.97431519448883" lon="7.660896779001148"><ele>223.5</ele><time>2026-04-05T16:33:41Z</time></trkpt><trkpt lat="44.974428496962375" lon="7.660535675239002"><ele>224.0</ele><time>2026-04-05T16:33:42Z</time></trkpt><trkpt lat="44.974542848119725" lon="7.6601717244482135"><ele>226.5</ele><time>2026-04-05T16:33:43Z</time></trkpt><trkpt lat="44.974661513920175" lon="7.659809708205143"><ele>229.0</ele><time>2026-04-05T16:33:44Z</time></trkpt><trkpt lat="44.974782759269196" lon="7.659451576241972"><ele>227.5</ele><time>2026-04-05T16:33:45Z</time></trkpt><trkpt lat="44.97490461223376" lon="7.6590910544454545"><ele>226.0</ele><time>2026-04-05T16:33:46Z</time></trkpt><trkpt lat="44.97502773890213" lon="7.6587316687844025"><ele>226.0</ele><time>2026-04-05T16:33:47Z</time></trkpt><trkpt lat="44.97515436938955" lon="7.6583721738184245"><ele>226.0</ele><time>2026-04-05T16:33:48Z</time></trkpt><trkpt lat="44.975282779721994" lon="7.65802103512138"><ele>227.5</ele><time>2026-04-05T16:33:49Z</time></trkpt><trkpt lat="44.97541406156879" lon="7.657670698177553"><ele>229.0</ele><time>2026-04-05T16:33:50Z</time></trkpt><trkpt lat="44.97554551602989" lon="7.657323971984602"><ele>229.0</ele><time>2026-04-05T16:33:51Z</time></trkpt><trkpt lat="44.97567775454433" lon="7.656979554242821"><ele>229.0</ele><time>2026-04-05T16:33:52Z</time></trkpt><trkpt lat="44.97581484613088" lon="7.656637366499575"><ele>227.5</ele><time>2026-04-05T16:33:53Z</time></trkpt><trkpt lat="44.975956216857476" lon="7.656297905104568"><ele>226.0</ele><time>2026-04-05T16:33:54Z</time></trkpt><trkpt lat="44.97609736096831" lon="7.655961685023107"><ele>225.5</ele><time>2026-04-05T16:33:55Z</time></trkpt><trkpt lat="44.97623893401648" lon="7.655624055065368"><ele>225.0</ele><time>2026-04-05T16:33:56Z</time></trkpt><trkpt lat="44.97638555641383" lon="7.655281090910682"><ele>225.0</ele><time>2026-04-05T16:33:57Z</time></trkpt><trkpt lat="44.976536005781654" lon="7.654941896648294"><ele>225.0</ele><time>2026-04-05T16:33:58Z</time></trkpt><trkpt lat="44.97668513868782" lon="7.654602984258076"><ele>225.0</ele><time>2026-04-05T16:33:59Z</time></trkpt><trkpt lat="44.976834962137985" lon="7.654269571821328"><ele>225.0</ele><time>2026-04-05T16:34:00Z</time></trkpt><trkpt lat="44.97699129478328" lon="7.653940206890863"><ele>226.0</ele><time>2026-04-05T16:34:01Z</time></trkpt><trkpt lat="44.97714686642223" lon="7.653614086623572"><ele>227.0</ele><time>2026-04-05T16:34:02Z</time></trkpt><trkpt lat="44.97730250201298" lon="7.653287296173016"><ele>227.0</ele><time>2026-04-05T16:34:03Z</time></trkpt><trkpt lat="44.97745834478679" lon="7.652958142896221"><ele>227.0</ele><time>2026-04-05T16:34:04Z</time></trkpt><trkpt lat="44.97761637765897" lon="7.652629868768839"><ele>224.0</ele><time>2026-04-05T16:34:05Z</time></trkpt><trkpt lat="44.977779414183765" lon="7.652297051459081"><ele>221.0</ele><time>2026-04-05T16:34:06Z</time></trkpt><trkpt lat="44.9779433286124" lon="7.651966418420414"><ele>223.5</ele><time>2026-04-05T16:34:07Z</time></trkpt><trkpt lat="44.97810756165821" lon="7.6516440418426255"><ele>226.0</ele><time>2026-04-05T16:34:08Z</time></trkpt><trkpt lat="44.978275368609246" lon="7.651332609186702"><ele>225.5</ele><time>2026-04-05T16:34:09Z</time></trkpt><trkpt lat="44.978448944792824" lon="7.651019034401885"><ele>225.0</ele><time>2026-04-05T16:34:10Z</time></trkpt><trkpt lat="44.97862205054405" lon="7.650711944238728"><ele>225.0</ele><time>2026-04-05T16:34:11Z</time></trkpt><trkpt lat="44.978796367209156" lon="7.6504071065404124"><ele>225.0</ele><time>2026-04-05T16:34:12Z</time></trkpt><trkpt lat="44.978973756413026" lon="7.650103170678877"><ele>225.5</ele><time>2026-04-05T16:34:13Z</time></trkpt><trkpt lat="44.97915156749976" lon="7.649805018823639"><ele>226.0</ele><time>2026-04-05T16:34:14Z</time></trkpt><trkpt lat="44.979319734279144" lon="7.649527880912462"><ele>226.5</ele><time>2026-04-05T16:34:15Z</time></trkpt><trkpt lat="44.97948427192737" lon="7.649256425847543"><ele>227.0</ele><time>2026-04-05T16:34:16Z</time></trkpt><trkpt lat="44.97965221110083" lon="7.648981527427528"><ele>227.0</ele><time>2026-04-05T16:34:17Z</time></trkpt><trkpt lat="44.97982693236579" lon="7.648694748784147"><ele>227.0</ele><time>2026-04-05T16:34:18Z</time></trkpt><trkpt lat="44.98000383596799" lon="7.648390530733585"><ele>227.5</ele><time>2026-04-05T16:34:19Z</time></trkpt><trkpt lat="44.9801788773036" lon="7.648080488528732"><ele>228.0</ele><time>2026-04-05T16:34:20Z</time></trkpt><trkpt lat="44.98036013630666" lon="7.647767251563919"><ele>228.0</ele><time>2026-04-05T16:34:21Z</time></trkpt><trkpt lat="44.980546435486055" lon="7.6474606098475055"><ele>228.0</ele><time>2026-04-05T16:34:22Z</time></trkpt><trkpt lat="44.98073207596251" lon="7.647160302758297"><ele>228.0</ele><time>2026-04-05T16:34:23Z</time></trkpt><trkpt lat="44.980915303305395" lon="7.646859571884657"><ele>228.0</ele><time>2026-04-05T16:34:24Z</time></trkpt><trkpt lat="44.98109907034589" lon="7.6465586874122655"><ele>228.0</ele><time>2026-04-05T16:34:25Z</time></trkpt><trkpt lat="44.98128445818198" lon="7.646257307483747"><ele>228.0</ele><time>2026-04-05T16:34:26Z</time></trkpt><trkpt lat="44.98146658903454" lon="7.645954822398923"><ele>228.0</ele><time>2026-04-05T16:34:27Z</time></trkpt><trkpt lat="44.98165016112982" lon="7.6456548683358"><ele>228.0</ele><time>2026-04-05T16:34:28Z</time></trkpt><trkpt lat="44.98183292853614" lon="7.645354513556972"><ele>227.5</ele><time>2026-04-05T16:34:29Z</time></trkpt><trkpt lat="44.98201675441235" lon="7.6450526277021496"><ele>227.0</ele><time>2026-04-05T16:34:30Z</time></trkpt><trkpt lat="44.98219985084367" lon="7.644752335223955"><ele>228.5</ele><time>2026-04-05T16:34:31Z</time></trkpt><trkpt lat="44.98238404116603" lon="7.644451403247608"><ele>230.0</ele><time>2026-04-05T16:34:32Z</time></trkpt><trkpt lat="44.98256853601517" lon="7.644151726821302"><ele>230.0</ele><time>2026-04-05T16:34:33Z</time></trkpt><trkpt lat="44.98275370564248" lon="7.643851489773997"><ele>230.0</ele><time>2026-04-05T16:34:34Z</time></trkpt><trkpt lat="44.98293979144952" lon="7.643549099746217"><ele>230.0</ele><time>2026-04-05T16:34:35Z</time></trkpt><trkpt lat="44.983128567490525" lon="7.643243846024068"><ele>230.0</ele><time>2026-04-05T16:34:36Z</time></trkpt><trkpt lat="44.98332060866233" lon="7.642942082254274"><ele>230.5</ele><time>2026-04-05T16:34:37Z</time></trkpt><trkpt lat="44.98351420156976" lon="7.64264052415708"><ele>231.0</ele><time>2026-04-05T16:34:38Z</time></trkpt><trkpt lat="44.983707904574125" lon="7.642337715358162"><ele>231.0</ele><time>2026-04-05T16:34:39Z</time></trkpt><trkpt lat="44.98390223514556" lon="7.642032336650135"><ele>231.0</ele><time>2026-04-05T16:34:40Z</time></trkpt><trkpt lat="44.98409657759082" lon="7.641726161654711"><ele>230.5</ele><time>2026-04-05T16:34:41Z</time></trkpt><trkpt lat="44.98429049279032" lon="7.641417719938687"><ele>230.0</ele><time>2026-04-05T16:34:42Z</time></trkpt><trkpt lat="44.984485881260476" lon="7.641110145524078"><ele>231.0</ele><time>2026-04-05T16:34:43Z</time></trkpt><trkpt lat="44.98468376886703" lon="7.640802426817963"><ele>232.0</ele><time>2026-04-05T16:34:44Z</time></trkpt><trkpt lat="44.984881972261384" lon="7.6404970628114555"><ele>231.0</ele><time>2026-04-05T16:34:45Z</time></trkpt><trkpt lat="44.98508138941557" lon="7.640190030276491"><ele>230.0</ele><time>2026-04-05T16:34:46Z</time></trkpt><trkpt lat="44.98527958436049" lon="7.63988558222144"><ele>230.0</ele><time>2026-04-05T16:34:47Z</time></trkpt><trkpt lat="44.98547692299366" lon="7.639582884333133"><ele>230.0</ele><time>2026-04-05T16:34:48Z</time></trkpt><trkpt lat="44.985673482556564" lon="7.639280104458183"><ele>230.0</ele><time>2026-04-05T16:34:49Z</time></trkpt><trkpt lat="44.98587044151531" lon="7.63898031370662"><ele>230.0</ele><time>2026-04-05T16:34:50Z</time></trkpt><trkpt lat="44.986066869736746" lon="7.638681030225612"><ele>232.0</ele><time>2026-04-05T16:34:51Z</time></trkpt><trkpt lat="44.98626527489796" lon="7.6383836146346775"><ele>234.0</ele><time>2026-04-05T16:34:52Z</time></trkpt><trkpt lat="44.98646491514732" lon="7.638088072025251"><ele>234.5</ele><time>2026-04-05T16:34:53Z</time></trkpt><trkpt lat="44.98666953818192" lon="7.637798840596618"><ele>235.0</ele><time>2026-04-05T16:34:54Z</time></trkpt><trkpt lat="44.98687654035933" lon="7.6375097630456565"><ele>235.0</ele><time>2026-04-05T16:34:55Z</time></trkpt><trkpt lat="44.98708093074633" lon="7.637220653223458"><ele>235.0</ele><time>2026-04-05T16:34:56Z</time></trkpt><trkpt lat="44.9872837409141" lon="7.636920272689242"><ele>235.0</ele><time>2026-04-05T16:34:57Z</time></trkpt><trkpt lat="44.98748334232336" lon="7.636621287363369"><ele>235.0</ele><time>2026-04-05T16:34:58Z</time></trkpt><trkpt lat="44.987684038312594" lon="7.636315793371252"><ele>234.5</ele><time>2026-04-05T16:34:59Z</time></trkpt><trkpt lat="44.98788539381125" lon="7.636011259173404"><ele>234.0</ele><time>2026-04-05T16:35:00Z</time></trkpt><trkpt lat="44.98808719086133" lon="7.635708179729251"><ele>234.0</ele><time>2026-04-05T16:35:01Z</time></trkpt><trkpt lat="44.98828850395365" lon="7.635404335142249"><ele>234.0</ele><time>2026-04-05T16:35:02Z</time></trkpt><trkpt lat="44.98848755494161" lon="7.6350967942663575"><ele>234.0</ele><time>2026-04-05T16:35:03Z</time></trkpt><trkpt lat="44.98868830902534" lon="7.6347938830674895"><ele>234.0</ele><time>2026-04-05T16:35:04Z</time></trkpt><trkpt lat="44.9888891078416" lon="7.634496296198078"><ele>233.5</ele><time>2026-04-05T16:35:05Z</time></trkpt><trkpt lat="44.98908892731853" lon="7.634197017020517"><ele>233.0</ele><time>2026-04-05T16:35:06Z</time></trkpt><trkpt lat="44.98928959696816" lon="7.633896135044595"><ele>234.0</ele><time>2026-04-05T16:35:07Z</time></trkpt><trkpt lat="44.989488749783085" lon="7.633595628672241"><ele>235.0</ele><time>2026-04-05T16:35:08Z</time></trkpt><trkpt lat="44.98968682638307" lon="7.633294253798312"><ele>235.0</ele><time>2026-04-05T16:35:09Z</time></trkpt><trkpt lat="44.989885206250634" lon="7.632996867767796"><ele>235.0</ele><time>2026-04-05T16:35:10Z</time></trkpt><trkpt lat="44.99008428715884" lon="7.632701511361326"><ele>235.0</ele><time>2026-04-05T16:35:11Z</time></trkpt><trkpt lat="44.990280478949416" lon="7.63240855222025"><ele>235.0</ele><time>2026-04-05T16:35:12Z</time></trkpt><trkpt lat="44.99047518933671" lon="7.6321151468010555"><ele>235.0</ele><time>2026-04-05T16:35:13Z</time></trkpt><trkpt lat="44.990669928846856" lon="7.631817550150021"><ele>235.0</ele><time>2026-04-05T16:35:14Z</time></trkpt><trkpt lat="44.99086876942033" lon="7.631525522134333"><ele>235.0</ele><time>2026-04-05T16:35:15Z</time></trkpt><trkpt lat="44.99106765401262" lon="7.6312304735314305"><ele>235.0</ele><time>2026-04-05T16:35:16Z</time></trkpt><trkpt lat="44.99127000095247" lon="7.630936862916066"><ele>234.5</ele><time>2026-04-05T16:35:17Z</time></trkpt><trkpt lat="44.991473865221124" lon="7.6306429183673465"><ele>234.0</ele><time>2026-04-05T16:35:18Z</time></trkpt><trkpt lat="44.99167725552759" lon="7.630356287572402"><ele>234.5</ele><time>2026-04-05T16:35:19Z</time></trkpt><trkpt lat="44.99187900559766" lon="7.630084477290615"><ele>235.0</ele><time>2026-04-05T16:35:20Z</time></trkpt><trkpt lat="44.99208248663959" lon="7.6298168971028115"><ele>235.0</ele><time>2026-04-05T16:35:21Z</time></trkpt><trkpt lat="44.99229095261056" lon="7.629553266499196"><ele>235.0</ele><time>2026-04-05T16:35:22Z</time></trkpt><trkpt lat="44.9924997855755" lon="7.629296180175465"><ele>235.0</ele><time>2026-04-05T16:35:23Z</time></trkpt><trkpt lat="44.99270629721396" lon="7.629047239495292"><ele>235.0</ele><time>2026-04-05T16:35:24Z</time></trkpt><trkpt lat="44.99292124416295" lon="7.628807559384498"><ele>235.5</ele><time>2026-04-05T16:35:25Z</time></trkpt><trkpt lat="44.99313481398759" lon="7.628563880990188"><ele>236.0</ele><time>2026-04-05T16:35:26Z</time></trkpt><trkpt lat="44.99335087064358" lon="7.628320712740819"><ele>236.0</ele><time>2026-04-05T16:35:27Z</time></trkpt><trkpt lat="44.993572647145264" lon="7.628081264359676"><ele>236.0</ele><time>2026-04-05T16:35:28Z</time></trkpt><trkpt lat="44.99379833881027" lon="7.627845189542584"><ele>234.5</ele><time>2026-04-05T16:35:29Z</time></trkpt><trkpt lat="44.994029954867095" lon="7.627611414158149"><ele>233.0</ele><time>2026-04-05T16:35:30Z</time></trkpt><trkpt lat="44.994265947123516" lon="7.627384833378979"><ele>233.0</ele><time>2026-04-05T16:35:31Z</time></trkpt><trkpt lat="44.99451141344792" lon="7.627161513125639"><ele>233.0</ele><time>2026-04-05T16:35:32Z</time></trkpt><trkpt lat="44.99476114415089" lon="7.626942520294047"><ele>233.0</ele><time>2026-04-05T16:35:33Z</time></trkpt><trkpt lat="44.995017104322805" lon="7.626724999602801"><ele>233.0</ele><time>2026-04-05T16:35:34Z</time></trkpt><trkpt lat="44.99527895998024" lon="7.626515305170751"><ele>233.0</ele><time>2026-04-05T16:35:35Z</time></trkpt><trkpt lat="44.99554218603103" lon="7.626307949616979"><ele>233.0</ele><time>2026-04-05T16:35:36Z</time></trkpt><trkpt lat="44.995804919086076" lon="7.626104040396657"><ele>233.0</ele><time>2026-04-05T16:35:37Z</time></trkpt><trkpt lat="44.99607075630739" lon="7.62590618192865"><ele>233.0</ele><time>2026-04-05T16:35:38Z</time></trkpt><trkpt lat="44.996342011826705" lon="7.625717014192884"><ele>233.0</ele><time>2026-04-05T16:35:39Z</time></trkpt><trkpt lat="44.99661908037717" lon="7.6255360802651815"><ele>233.0</ele><time>2026-04-05T16:35:40Z</time></trkpt><trkpt lat="44.99689955392659" lon="7.625360997416234"><ele>234.0</ele><time>2026-04-05T16:35:41Z</time></trkpt><trkpt lat="44.9971686050636" lon="7.625202471381393"><ele>235.0</ele><time>2026-04-05T16:35:42Z</time></trkpt><trkpt lat="44.997433147449826" lon="7.625051020491386"><ele>233.5</ele><time>2026-04-05T16:35:43Z</time></trkpt><trkpt lat="44.997709762866805" lon="7.624900814469856"><ele>232.0</ele><time>2026-04-05T16:35:44Z</time></trkpt><trkpt lat="44.99799196514935" lon="7.624747296357587"><ele>232.0</ele><time>2026-04-05T16:35:45Z</time></trkpt><trkpt lat="44.998275076132984" lon="7.624604609648106"><ele>232.0</ele><time>2026-04-05T16:35:46Z</time></trkpt><trkpt lat="44.998558918126925" lon="7.624472558169805"><ele>233.0</ele><time>2026-04-05T16:35:47Z</time></trkpt><trkpt lat="44.998844125046034" lon="7.62434016401814"><ele>234.0</ele><time>2026-04-05T16:35:48Z</time></trkpt><trkpt lat="44.99913051814568" lon="7.624208231532735"><ele>235.5</ele><time>2026-04-05T16:35:49Z</time></trkpt><trkpt lat="44.99941722323522" lon="7.6240746089472"><ele>237.0</ele><time>2026-04-05T16:35:50Z</time></trkpt><trkpt lat="44.99970623774002" lon="7.623939033094108"><ele>237.0</ele><time>2026-04-05T16:35:51Z</time></trkpt><trkpt lat="44.99999581771043" lon="7.623803809469767"><ele>237.0</ele><time>2026-04-05T16:35:52Z</time></trkpt><trkpt lat="45.00028535185602" lon="7.623668779064619"><ele>236.5</ele><time>2026-04-05T16:35:53Z</time></trkpt><trkpt lat="45.00057355088117" lon="7.62353222874881"><ele>236.0</ele><time>2026-04-05T16:35:54Z</time></trkpt><trkpt lat="45.00086260823858" lon="7.623399478043877"><ele>236.0</ele><time>2026-04-05T16:35:55Z</time></trkpt><trkpt lat="45.00115526937377" lon="7.623268314920072"><ele>236.0</ele><time>2026-04-05T16:35:56Z</time></trkpt><trkpt lat="45.001447062683475" lon="7.623135610972743"><ele>235.5</ele><time>2026-04-05T16:35:57Z</time></trkpt><trkpt lat="45.00174131140557" lon="7.623005945565293"><ele>235.0</ele><time>2026-04-05T16:35:58Z</time></trkpt><trkpt lat="45.00203747439572" lon="7.622875277025001"><ele>236.0</ele><time>2026-04-05T16:35:59Z</time></trkpt><trkpt lat="45.002329634589934" lon="7.622742791804209"><ele>237.0</ele><time>2026-04-05T16:36:00Z</time></trkpt><trkpt lat="45.002621335745744" lon="7.622608899140026"><ele>237.0</ele><time>2026-04-05T16:36:01Z</time></trkpt><trkpt lat="45.00291086179787" lon="7.622474679285977"><ele>237.0</ele><time>2026-04-05T16:36:02Z</time></trkpt><trkpt lat="45.003197349409824" lon="7.6223414903302675"><ele>236.5</ele><time>2026-04-05T16:36:03Z</time></trkpt><trkpt lat="45.00348533409752" lon="7.622208863733521"><ele>236.0</ele><time>2026-04-05T16:36:04Z</time></trkpt><trkpt lat="45.00377129990802" lon="7.62207112531415"><ele>235.5</ele><time>2026-04-05T16:36:05Z</time></trkpt><trkpt lat="45.004057900362845" lon="7.621934171361187"><ele>235.0</ele><time>2026-04-05T16:36:06Z</time></trkpt><trkpt lat="45.00434402628984" lon="7.62179861216646"><ele>236.0</ele><time>2026-04-05T16:36:07Z</time></trkpt><trkpt lat="45.004623919274344" lon="7.621662986628592"><ele>237.0</ele><time>2026-04-05T16:36:08Z</time></trkpt><trkpt lat="45.004902418094034" lon="7.621526188095825"><ele>238.0</ele><time>2026-04-05T16:36:09Z</time></trkpt><trkpt lat="45.00519433605717" lon="7.621413621629351"><ele>239.0</ele><time>2026-04-05T16:36:10Z</time></trkpt><trkpt lat="45.00547149904298" lon="7.621285011119442"><ele>239.0</ele><time>2026-04-05T16:36:11Z</time></trkpt><trkpt lat="45.00575132801081" lon="7.6211550486180615"><ele>239.0</ele><time>2026-04-05T16:36:12Z</time></trkpt><trkpt lat="45.006027120776565" lon="7.621025358208803"><ele>237.0</ele><time>2026-04-05T16:36:13Z</time></trkpt><trkpt lat="45.00630613289764" lon="7.620886547547073"><ele>235.0</ele><time>2026-04-05T16:36:14Z</time></trkpt><trkpt lat="45.00657947729964" lon="7.620722034797311"><ele>235.5</ele><time>2026-04-05T16:36:15Z</time></trkpt><trkpt lat="45.00684154262644" lon="7.620530664231433"><ele>236.0</ele><time>2026-04-05T16:36:16Z</time></trkpt><trkpt lat="45.007096572828026" lon="7.620316828685324"><ele>236.0</ele><time>2026-04-05T16:36:17Z</time></trkpt><trkpt lat="45.007343891567515" lon="7.620091592500982"><ele>236.0</ele><time>2026-04-05T16:36:18Z</time></trkpt><trkpt lat="45.007577974631836" lon="7.6198453063110785"><ele>236.5</ele><time>2026-04-05T16:36:19Z</time></trkpt><trkpt lat="45.00780163130437" lon="7.619585780560077"><ele>237.0</ele><time>2026-04-05T16:36:20Z</time></trkpt><trkpt lat="45.00801317979022" lon="7.619318840315226"><ele>237.0</ele><time>2026-04-05T16:36:21Z</time></trkpt><trkpt lat="45.008205426851596" lon="7.6190385323907135"><ele>237.0</ele><time>2026-04-05T16:36:22Z</time></trkpt><trkpt lat="45.0083832084028" lon="7.6187588057892555"><ele>235.0</ele><time>2026-04-05T16:36:23Z</time></trkpt><trkpt lat="45.00855977012403" lon="7.618435898598707"><ele>233.0</ele><time>2026-04-05T16:36:24Z</time></trkpt><trkpt lat="45.008724827755245" lon="7.6181324405344135"><ele>233.5</ele><time>2026-04-05T16:36:25Z</time></trkpt><trkpt lat="45.00887871775573" lon="7.617807403087461"><ele>234.0</ele><time>2026-04-05T16:36:26Z</time></trkpt><trkpt lat="45.00901610494257" lon="7.617464594183993"><ele>234.0</ele><time>2026-04-05T16:36:27Z</time></trkpt><trkpt lat="45.00914438950868" lon="7.6171163310082015"><ele>234.0</ele><time>2026-04-05T16:36:28Z</time></trkpt><trkpt lat="45.00926092591786" lon="7.616755941813279"><ele>235.5</ele><time>2026-04-05T16:36:29Z</time></trkpt><trkpt lat="45.00936395964373" lon="7.61638714949651"><ele>237.0</ele><time>2026-04-05T16:36:30Z</time></trkpt><trkpt lat="45.0094531429756" lon="7.616012364181935"><ele>237.0</ele><time>2026-04-05T16:36:31Z</time></trkpt><trkpt lat="45.009514022581826" lon="7.615617292610266"><ele>237.0</ele><time>2026-04-05T16:36:32Z</time></trkpt><trkpt lat="45.009574288622865" lon="7.615229396657854"><ele>237.0</ele><time>2026-04-05T16:36:33Z</time></trkpt><trkpt lat="45.00962307634534" lon="7.61483434619233"><ele>237.0</ele><time>2026-04-05T16:36:34Z</time></trkpt><trkpt lat="45.00966136324191" lon="7.614439289910697"><ele>238.0</ele><time>2026-04-05T16:36:35Z</time></trkpt><trkpt lat="45.00969917304385" lon="7.614045264820105"><ele>239.0</ele><time>2026-04-05T16:36:36Z</time></trkpt><trkpt lat="45.00973957938041" lon="7.613651772667097"><ele>239.0</ele><time>2026-04-05T16:36:37Z</time></trkpt><trkpt lat="45.00978220799798" lon="7.613261526241283"><ele>239.0</ele><time>2026-04-05T16:36:38Z</time></trkpt><trkpt lat="45.00982192837905" lon="7.612868352578456"><ele>239.5</ele><time>2026-04-05T16:36:39Z</time></trkpt><trkpt lat="45.00986469379268" lon="7.612475526829557"><ele>240.0</ele><time>2026-04-05T16:36:40Z</time></trkpt><trkpt lat="45.00990394531602" lon="7.6120834104752255"><ele>240.5</ele><time>2026-04-05T16:36:41Z</time></trkpt><trkpt lat="45.00994677915197" lon="7.611693567017568"><ele>241.0</ele><time>2026-04-05T16:36:42Z</time></trkpt><trkpt lat="45.00999246287048" lon="7.611302841844797"><ele>239.0</ele><time>2026-04-05T16:36:43Z</time></trkpt><trkpt lat="45.01003789223293" lon="7.610911431868659"><ele>237.0</ele><time>2026-04-05T16:36:44Z</time></trkpt><trkpt lat="45.01008674218044" lon="7.610515452605663"><ele>236.5</ele><time>2026-04-05T16:36:45Z</time></trkpt><trkpt lat="45.01014654282268" lon="7.610113727089331"><ele>236.0</ele><time>2026-04-05T16:36:46Z</time></trkpt><trkpt lat="45.01021778445552" lon="7.609687756263067"><ele>236.5</ele><time>2026-04-05T16:36:47Z</time></trkpt><trkpt lat="45.01030820292635" lon="7.609252320701827"><ele>237.0</ele><time>2026-04-05T16:36:48Z</time></trkpt><trkpt lat="45.010417011475226" lon="7.608817874356749"><ele>238.0</ele><time>2026-04-05T16:36:49Z</time></trkpt><trkpt lat="45.01053856113216" lon="7.608375050201451"><ele>239.0</ele><time>2026-04-05T16:36:50Z</time></trkpt><trkpt lat="45.01067539810497" lon="7.607939459382515"><ele>238.5</ele><time>2026-04-05T16:36:51Z</time></trkpt><trkpt lat="45.010830249218955" lon="7.607514527511312"><ele>238.0</ele><time>2026-04-05T16:36:52Z</time></trkpt><trkpt lat="45.01099948447371" lon="7.607098841546778"><ele>239.0</ele><time>2026-04-05T16:36:53Z</time></trkpt><trkpt lat="45.01117806360925" lon="7.606687939037227"><ele>240.0</ele><time>2026-04-05T16:36:54Z</time></trkpt><trkpt lat="45.01136875621921" lon="7.606291310315844"><ele>239.5</ele><time>2026-04-05T16:36:55Z</time></trkpt><trkpt lat="45.011573214137705" lon="7.60590602610961"><ele>239.0</ele><time>2026-04-05T16:36:56Z</time></trkpt><trkpt lat="45.01179011883071" lon="7.605537723590685"><ele>240.0</ele><time>2026-04-05T16:36:57Z</time></trkpt><trkpt lat="45.012018048333225" lon="7.605179549334739"><ele>241.0</ele><time>2026-04-05T16:36:58Z</time></trkpt><trkpt lat="45.01226032879677" lon="7.604835368579799"><ele>241.0</ele><time>2026-04-05T16:36:59Z</time></trkpt><trkpt lat="45.01251451838562" lon="7.604507119048109"><ele>241.0</ele><time>2026-04-05T16:37:00Z</time></trkpt><trkpt lat="45.012780837348096" lon="7.604192795394652"><ele>240.5</ele><time>2026-04-05T16:37:01Z</time></trkpt><trkpt lat="45.0130574091843" lon="7.603903315605854"><ele>240.0</ele><time>2026-04-05T16:37:02Z</time></trkpt><trkpt lat="45.01334022143605" lon="7.603630473913093"><ele>242.5</ele><time>2026-04-05T16:37:03Z</time></trkpt><trkpt lat="45.01362875485082" lon="7.603369787476282"><ele>245.0</ele><time>2026-04-05T16:37:04Z</time></trkpt><trkpt lat="45.013919032790255" lon="7.60312600348775"><ele>245.5</ele><time>2026-04-05T16:37:05Z</time></trkpt><trkpt lat="45.01421755674691" lon="7.602895794207378"><ele>246.0</ele><time>2026-04-05T16:37:06Z</time></trkpt><trkpt lat="45.01452428951121" lon="7.602686651773786"><ele>246.0</ele><time>2026-04-05T16:37:07Z</time></trkpt><trkpt lat="45.0148408334965" lon="7.6025032500024"><ele>246.0</ele><time>2026-04-05T16:37:08Z</time></trkpt><trkpt lat="45.01516486053733" lon="7.60234442130046"><ele>247.5</ele><time>2026-04-05T16:37:09Z</time></trkpt><trkpt lat="45.015490656394526" lon="7.602200214502267"><ele>249.0</ele><time>2026-04-05T16:37:10Z</time></trkpt><trkpt lat="45.01581938118325" lon="7.60205785481614"><ele>250.0</ele><time>2026-04-05T16:37:11Z</time></trkpt><trkpt lat="45.01614937614925" lon="7.601916957755288"><ele>251.0</ele><time>2026-04-05T16:37:12Z</time></trkpt><trkpt lat="45.01647900739687" lon="7.601770019424531"><ele>251.0</ele><time>2026-04-05T16:37:13Z</time></trkpt><trkpt lat="45.01680937202708" lon="7.601622384110462"><ele>251.0</ele><time>2026-04-05T16:37:14Z</time></trkpt><trkpt lat="45.017138664465264" lon="7.60147035294426"><ele>251.0</ele><time>2026-04-05T16:37:15Z</time></trkpt><trkpt lat="45.01746527297421" lon="7.60131262287126"><ele>251.0</ele><time>2026-04-05T16:37:16Z</time></trkpt><trkpt lat="45.01779026792645" lon="7.6011477654082364"><ele>252.5</ele><time>2026-04-05T16:37:17Z</time></trkpt><trkpt lat="45.01811270286835" lon="7.600974278926878"><ele>254.0</ele><time>2026-04-05T16:37:18Z</time></trkpt><trkpt lat="45.01843063718082" lon="7.600787067460458"><ele>254.0</ele><time>2026-04-05T16:37:19Z</time></trkpt><trkpt lat="45.0187459634248" lon="7.600596477031144"><ele>254.0</ele><time>2026-04-05T16:37:20Z</time></trkpt><trkpt lat="45.019060432489965" lon="7.600410526741125"><ele>254.5</ele><time>2026-04-05T16:37:21Z</time></trkpt><trkpt lat="45.019367672202286" lon="7.600211571290626"><ele>255.0</ele><time>2026-04-05T16:37:22Z</time></trkpt><trkpt lat="45.01967773690264" lon="7.600012402417145"><ele>255.0</ele><time>2026-04-05T16:37:23Z</time></trkpt><trkpt lat="45.01997904036099" lon="7.599809156452703"><ele>255.0</ele><time>2026-04-05T16:37:24Z</time></trkpt><trkpt lat="45.020283877354366" lon="7.599592629949104"><ele>255.0</ele><time>2026-04-05T16:37:25Z</time></trkpt><trkpt lat="45.020593681364716" lon="7.599367124932034"><ele>255.0</ele><time>2026-04-05T16:37:26Z</time></trkpt><trkpt lat="45.02089708694778" lon="7.599135965935548"><ele>255.5</ele><time>2026-04-05T16:37:27Z</time></trkpt><trkpt lat="45.021199856119736" lon="7.598901005414475"><ele>256.0</ele><time>2026-04-05T16:37:28Z</time></trkpt><trkpt lat="45.021496087681754" lon="7.598660241289982"><ele>257.0</ele><time>2026-04-05T16:37:29Z</time></trkpt><trkpt lat="45.021788606479404" lon="7.598413172398957"><ele>258.0</ele><time>2026-04-05T16:37:30Z</time></trkpt><trkpt lat="45.022075582394564" lon="7.598164359861246"><ele>258.0</ele><time>2026-04-05T16:37:31Z</time></trkpt><trkpt lat="45.02235018792384" lon="7.597929346842932"><ele>258.0</ele><time>2026-04-05T16:37:32Z</time></trkpt><trkpt lat="45.02260562774887" lon="7.597707861362243"><ele>258.0</ele><time>2026-04-05T16:37:33Z</time></trkpt><trkpt lat="45.02285580453176" lon="7.59748604815266"><ele>258.0</ele><time>2026-04-05T16:37:34Z</time></trkpt><trkpt lat="45.02311669674833" lon="7.5972529100063975"><ele>259.5</ele><time>2026-04-05T16:37:35Z</time></trkpt><trkpt lat="45.0233707067728" lon="7.597025528974633"><ele>261.0</ele><time>2026-04-05T16:37:36Z</time></trkpt><trkpt lat="45.02362427539869" lon="7.596803082873838"><ele>261.0</ele><time>2026-04-05T16:37:37Z</time></trkpt><trkpt lat="45.023876391673994" lon="7.596580629114955"><ele>261.0</ele><time>2026-04-05T16:37:38Z</time></trkpt><trkpt lat="45.02412811723712" lon="7.596360352821204"><ele>262.5</ele><time>2026-04-05T16:37:39Z</time></trkpt><trkpt lat="45.02438095275996" lon="7.596141238355454"><ele>264.0</ele><time>2026-04-05T16:37:40Z</time></trkpt><trkpt lat="45.02463275145986" lon="7.595916636786386"><ele>264.0</ele><time>2026-04-05T16:37:41Z</time></trkpt><trkpt lat="45.02489182203843" lon="7.595695552834653"><ele>264.0</ele><time>2026-04-05T16:37:42Z</time></trkpt><trkpt lat="45.0251499891385" lon="7.595469190974215"><ele>264.5</ele><time>2026-04-05T16:37:43Z</time></trkpt><trkpt lat="45.02541581660612" lon="7.595241466969716"><ele>265.0</ele><time>2026-04-05T16:37:44Z</time></trkpt><trkpt lat="45.02568195583922" lon="7.5950128952139035"><ele>266.0</ele><time>2026-04-05T16:37:45Z</time></trkpt><trkpt lat="45.0259486822406" lon="7.5947881953208904"><ele>267.0</ele><time>2026-04-05T16:37:46Z</time></trkpt><trkpt lat="45.0262185780344" lon="7.594557707342804"><ele>266.5</ele><time>2026-04-05T16:37:47Z</time></trkpt><trkpt lat="45.02648716077392" lon="7.5943258103990665"><ele>266.0</ele><time>2026-04-05T16:37:48Z</time></trkpt><trkpt lat="45.02675408511467" lon="7.5940970855962275"><ele>266.0</ele><time>2026-04-05T16:37:49Z</time></trkpt><trkpt lat="45.02701602824253" lon="7.59387187803559"><ele>266.0</ele><time>2026-04-05T16:37:50Z</time></trkpt><trkpt lat="45.0272764662121" lon="7.5936444579216"><ele>266.5</ele><time>2026-04-05T16:37:51Z</time></trkpt><trkpt lat="45.027534050320504" lon="7.593422896202612"><ele>267.0</ele><time>2026-04-05T16:37:52Z</time></trkpt><trkpt lat="45.02779117636483" lon="7.593201380408816"><ele>267.0</ele><time>2026-04-05T16:37:53Z</time></trkpt><trkpt lat="45.02804855324835" lon="7.592979621478699"><ele>267.0</ele><time>2026-04-05T16:37:54Z</time></trkpt><trkpt lat="45.02829526735411" lon="7.592765344573023"><ele>266.0</ele><time>2026-04-05T16:37:55Z</time></trkpt><trkpt lat="45.02854723024562" lon="7.592550152645102"><ele>265.0</ele><time>2026-04-05T16:37:56Z</time></trkpt><trkpt lat="45.02879705923269" lon="7.592336415504431"><ele>265.0</ele><time>2026-04-05T16:37:57Z</time></trkpt><trkpt lat="45.0290521335597" lon="7.592117469158222"><ele>265.0</ele><time>2026-04-05T16:37:58Z</time></trkpt><trkpt lat="45.02930759384593" lon="7.5918974193030015"><ele>265.5</ele><time>2026-04-05T16:37:59Z</time></trkpt><trkpt lat="45.02956154308684" lon="7.591673749890253"><ele>266.0</ele><time>2026-04-05T16:38:00Z</time></trkpt><trkpt lat="45.02981484772035" lon="7.591443375044628"><ele>265.0</ele><time>2026-04-05T16:38:01Z</time></trkpt><trkpt lat="45.030069029070425" lon="7.591200850724407"><ele>264.0</ele><time>2026-04-05T16:38:02Z</time></trkpt><trkpt lat="45.03031671487396" lon="7.590944275048185"><ele>263.5</ele><time>2026-04-05T16:38:03Z</time></trkpt><trkpt lat="45.03056210886639" lon="7.590669111941766"><ele>263.0</ele><time>2026-04-05T16:38:04Z</time></trkpt><trkpt lat="45.03080593296297" lon="7.590373867910214"><ele>263.0</ele><time>2026-04-05T16:38:05Z</time></trkpt><trkpt lat="45.03104084909878" lon="7.590067138548384"><ele>263.0</ele><time>2026-04-05T16:38:06Z</time></trkpt><trkpt lat="45.031268396777584" lon="7.589751688896819"><ele>264.5</ele><time>2026-04-05T16:38:07Z</time></trkpt><trkpt lat="45.031485978717605" lon="7.5894248604070205"><ele>266.0</ele><time>2026-04-05T16:38:08Z</time></trkpt><trkpt lat="45.031693791133826" lon="7.589088597145213"><ele>266.0</ele><time>2026-04-05T16:38:09Z</time></trkpt><trkpt lat="45.03189554383826" lon="7.588741155089976"><ele>266.0</ele><time>2026-04-05T16:38:10Z</time></trkpt><trkpt lat="45.032088351975254" lon="7.588386812542666"><ele>266.0</ele><time>2026-04-05T16:38:11Z</time></trkpt><trkpt lat="45.03226966966188" lon="7.588018678378426"><ele>266.0</ele><time>2026-04-05T16:38:12Z</time></trkpt><trkpt lat="45.03244134762577" lon="7.587643010326526"><ele>266.0</ele><time>2026-04-05T16:38:13Z</time></trkpt><trkpt lat="45.032602292561805" lon="7.587259564358249"><ele>266.0</ele><time>2026-04-05T16:38:14Z</time></trkpt><trkpt lat="45.032753973419645" lon="7.586868834250822"><ele>266.0</ele><time>2026-04-05T16:38:15Z</time></trkpt><trkpt lat="45.0328982206794" lon="7.586470566272228"><ele>266.0</ele><time>2026-04-05T16:38:16Z</time></trkpt><trkpt lat="45.03303182709354" lon="7.586066002847911"><ele>266.5</ele><time>2026-04-05T16:38:17Z</time></trkpt><trkpt lat="45.03315662522589" lon="7.585655377757732"><ele>267.0</ele><time>2026-04-05T16:38:18Z</time></trkpt><trkpt lat="45.03327638830788" lon="7.585229014976457"><ele>266.5</ele><time>2026-04-05T16:38:19Z</time></trkpt><trkpt lat="45.033396453376305" lon="7.58477719730653"><ele>266.0</ele><time>2026-04-05T16:38:20Z</time></trkpt><trkpt lat="45.03352181628807" lon="7.584312141633926"><ele>265.5</ele><time>2026-04-05T16:38:21Z</time></trkpt><trkpt lat="45.033651891566166" lon="7.583833324904299"><ele>265.0</ele><time>2026-04-05T16:38:22Z</time></trkpt><trkpt lat="45.033786654772264" lon="7.583348403621641"><ele>264.5</ele><time>2026-04-05T16:38:23Z</time></trkpt><trkpt lat="45.033924560525854" lon="7.582857658126565"><ele>264.0</ele><time>2026-04-05T16:38:24Z</time></trkpt><trkpt lat="45.0340612859006" lon="7.582357769477524"><ele>265.0</ele><time>2026-04-05T16:38:25Z</time></trkpt><trkpt lat="45.03419811586175" lon="7.581856498241793"><ele>266.0</ele><time>2026-04-05T16:38:26Z</time></trkpt><trkpt lat="45.03433280801001" lon="7.58135534229293"><ele>266.5</ele><time>2026-04-05T16:38:27Z</time></trkpt><trkpt lat="45.03446733573072" lon="7.580861543699566"><ele>267.0</ele><time>2026-04-05T16:38:28Z</time></trkpt><trkpt lat="45.034602357602765" lon="7.580370855895191"><ele>268.5</ele><time>2026-04-05T16:38:29Z</time></trkpt><trkpt lat="45.034738517497786" lon="7.5798852120214235"><ele>270.0</ele><time>2026-04-05T16:38:30Z</time></trkpt><trkpt lat="45.03487272555405" lon="7.579401194823958"><ele>270.5</ele><time>2026-04-05T16:38:31Z</time></trkpt><trkpt lat="45.03500707120998" lon="7.578911783092571"><ele>271.0</ele><time>2026-04-05T16:38:32Z</time></trkpt><trkpt lat="45.035139068555196" lon="7.57843179514185"><ele>271.0</ele><time>2026-04-05T16:38:33Z</time></trkpt><trkpt lat="45.035281125759376" lon="7.577972670880183"><ele>271.0</ele><time>2026-04-05T16:38:34Z</time></trkpt><trkpt lat="45.03542135463707" lon="7.57750179725515"><ele>273.0</ele><time>2026-04-05T16:38:35Z</time></trkpt><trkpt lat="45.03554376556808" lon="7.577016423121913"><ele>275.0</ele><time>2026-04-05T16:38:36Z</time></trkpt><trkpt lat="45.03566702749524" lon="7.576526977815212"><ele>274.5</ele><time>2026-04-05T16:38:37Z</time></trkpt><trkpt lat="45.035783565699234" lon="7.576029535487655"><ele>274.0</ele><time>2026-04-05T16:38:38Z</time></trkpt><trkpt lat="45.03593726315872" lon="7.575548996313945"><ele>274.5</ele><time>2026-04-05T16:38:39Z</time></trkpt><trkpt lat="45.03606817596094" lon="7.575067820436547"><ele>275.0</ele><time>2026-04-05T16:38:40Z</time></trkpt><trkpt lat="45.03620055047221" lon="7.574585339123095"><ele>275.0</ele><time>2026-04-05T16:38:41Z</time></trkpt><trkpt lat="45.036331455659315" lon="7.574109018705059"><ele>275.0</ele><time>2026-04-05T16:38:42Z</time></trkpt><trkpt lat="45.03646056701705" lon="7.573633670768476"><ele>275.0</ele><time>2026-04-05T16:38:43Z</time></trkpt><trkpt lat="45.036588809003234" lon="7.573161786083427"><ele>275.0</ele><time>2026-04-05T16:38:44Z</time></trkpt><trkpt lat="45.036715149836986" lon="7.572702767398582"><ele>275.0</ele><time>2026-04-05T16:38:45Z</time></trkpt><trkpt lat="45.03683327190508" lon="7.572258961494027"><ele>275.0</ele><time>2026-04-05T16:38:46Z</time></trkpt><trkpt lat="45.03694965445036" lon="7.571820783115487"><ele>276.0</ele><time>2026-04-05T16:38:47Z</time></trkpt><trkpt lat="45.03707091809315" lon="7.571386921723153"><ele>277.0</ele><time>2026-04-05T16:38:48Z</time></trkpt><trkpt lat="45.037192632063615" lon="7.570956801823781"><ele>277.5</ele><time>2026-04-05T16:38:49Z</time></trkpt><trkpt lat="45.03730847722432" lon="7.570527690587223"><ele>278.0</ele><time>2026-04-05T16:38:50Z</time></trkpt><trkpt lat="45.037426520947584" lon="7.570097511648485"><ele>279.5</ele><time>2026-04-05T16:38:51Z</time></trkpt><trkpt lat="45.03754536598172" lon="7.569658480440038"><ele>281.0</ele><time>2026-04-05T16:38:52Z</time></trkpt><trkpt lat="45.037665069589785" lon="7.569214002983181"><ele>280.5</ele><time>2026-04-05T16:38:53Z</time></trkpt><trkpt lat="45.03778403999341" lon="7.56876963900329"><ele>280.0</ele><time>2026-04-05T16:38:54Z</time></trkpt><trkpt lat="45.037906118383205" lon="7.568317358848705"><ele>279.0</ele><time>2026-04-05T16:38:55Z</time></trkpt><trkpt lat="45.03802565706735" lon="7.567855917403407"><ele>278.0</ele><time>2026-04-05T16:38:56Z</time></trkpt><trkpt lat="45.03815505760703" lon="7.567398137358395"><ele>279.0</ele><time>2026-04-05T16:38:57Z</time></trkpt><trkpt lat="45.038283365997316" lon="7.566938163664976"><ele>280.0</ele><time>2026-04-05T16:38:58Z</time></trkpt><trkpt lat="45.038411678458466" lon="7.566474812830151"><ele>282.5</ele><time>2026-04-05T16:38:59Z</time></trkpt><trkpt lat="45.03853686721189" lon="7.566016174106857"><ele>285.0</ele><time>2026-04-05T16:39:00Z</time></trkpt><trkpt lat="45.038657877257414" lon="7.565572728647324"><ele>284.5</ele><time>2026-04-05T16:39:01Z</time></trkpt><trkpt lat="45.038775698916744" lon="7.56512930117999"><ele>284.0</ele><time>2026-04-05T16:39:02Z</time></trkpt><trkpt lat="45.03889442747096" lon="7.564687058335131"><ele>284.0</ele><time>2026-04-05T16:39:03Z</time></trkpt><trkpt lat="45.03901299614033" lon="7.5642487447777365"><ele>284.0</ele><time>2026-04-05T16:39:04Z</time></trkpt><trkpt lat="45.03913369913586" lon="7.563815483105806"><ele>285.0</ele><time>2026-04-05T16:39:05Z</time></trkpt><trkpt lat="45.039253964660496" lon="7.563383803621761"><ele>286.0</ele><time>2026-04-05T16:39:06Z</time></trkpt><trkpt lat="45.039369430679116" lon="7.562957479982114"><ele>284.5</ele><time>2026-04-05T16:39:07Z</time></trkpt><trkpt lat="45.03948050906381" lon="7.562542746701941"><ele>283.0</ele><time>2026-04-05T16:39:08Z</time></trkpt><trkpt lat="45.0395936248592" lon="7.562133349017174"><ele>284.0</ele><time>2026-04-05T16:39:09Z</time></trkpt><trkpt lat="45.03981580678369" lon="7.561320439501008"><ele>285.0</ele><time>2026-04-05T16:39:11Z</time></trkpt><trkpt lat="45.03993030867817" lon="7.5609143257448075"><ele>286.0</ele><time>2026-04-05T16:39:12Z</time></trkpt><trkpt lat="45.04004169183665" lon="7.56050485363063"><ele>287.0</ele><time>2026-04-05T16:39:13Z</time></trkpt><trkpt lat="45.0401545080405" lon="7.5600923296896525"><ele>288.0</ele><time>2026-04-05T16:39:14Z</time></trkpt><trkpt lat="45.04026861473904" lon="7.559678353157313"><ele>288.0</ele><time>2026-04-05T16:39:15Z</time></trkpt><trkpt lat="45.04038325098454" lon="7.559262912836139"><ele>288.0</ele><time>2026-04-05T16:39:16Z</time></trkpt><trkpt lat="45.04049525485251" lon="7.558848007179194"><ele>288.0</ele><time>2026-04-05T16:39:17Z</time></trkpt><trkpt lat="45.04060582626829" lon="7.558437772018485"><ele>288.0</ele><time>2026-04-05T16:39:18Z</time></trkpt><trkpt lat="45.04071403923762" lon="7.558036077457305"><ele>289.0</ele><time>2026-04-05T16:39:19Z</time></trkpt><trkpt lat="45.04082132288214" lon="7.557635806381181"><ele>290.0</ele><time>2026-04-05T16:39:20Z</time></trkpt><trkpt lat="45.04093132084848" lon="7.557232037168805"><ele>290.0</ele><time>2026-04-05T16:39:21Z</time></trkpt><trkpt lat="45.04104352694074" lon="7.556828747729522"><ele>290.0</ele><time>2026-04-05T16:39:22Z</time></trkpt><trkpt lat="45.04115131548957" lon="7.556431403672838"><ele>290.0</ele><time>2026-04-05T16:39:23Z</time></trkpt><trkpt lat="45.04125661036532" lon="7.556048376502415"><ele>290.0</ele><time>2026-04-05T16:39:24Z</time></trkpt><trkpt lat="45.041361637632335" lon="7.555671131225292"><ele>289.5</ele><time>2026-04-05T16:39:25Z</time></trkpt><trkpt lat="45.04146843587078" lon="7.555294718979608"><ele>289.0</ele><time>2026-04-05T16:39:26Z</time></trkpt><trkpt lat="45.04158219517162" lon="7.554921973135879"><ele>289.5</ele><time>2026-04-05T16:39:27Z</time></trkpt><trkpt lat="45.04170670676125" lon="7.55455305494358"><ele>290.0</ele><time>2026-04-05T16:39:28Z</time></trkpt><trkpt lat="45.041841270903646" lon="7.554191673920393"><ele>290.0</ele><time>2026-04-05T16:39:29Z</time></trkpt><trkpt lat="45.04198378889702" lon="7.553835545822671"><ele>290.0</ele><time>2026-04-05T16:39:30Z</time></trkpt><trkpt lat="45.04213407986162" lon="7.553484989241765"><ele>290.5</ele><time>2026-04-05T16:39:31Z</time></trkpt><trkpt lat="45.04229195874826" lon="7.553137569597865"><ele>291.0</ele><time>2026-04-05T16:39:32Z</time></trkpt><trkpt lat="45.042456607156666" lon="7.552799306197179"><ele>293.5</ele><time>2026-04-05T16:39:33Z</time></trkpt><trkpt lat="45.04262817176106" lon="7.552471472128926"><ele>296.0</ele><time>2026-04-05T16:39:34Z</time></trkpt><trkpt lat="45.04280761130453" lon="7.552148894189568"><ele>295.0</ele><time>2026-04-05T16:39:35Z</time></trkpt><trkpt lat="45.042992324437606" lon="7.551839020429129"><ele>294.0</ele><time>2026-04-05T16:39:36Z</time></trkpt><trkpt lat="45.043174040134645" lon="7.5515525403256945"><ele>294.0</ele><time>2026-04-05T16:39:37Z</time></trkpt><trkpt lat="45.04336561592004" lon="7.55127203941776"><ele>294.0</ele><time>2026-04-05T16:39:38Z</time></trkpt><trkpt lat="45.043566617936015" lon="7.550997563137376"><ele>294.5</ele><time>2026-04-05T16:39:39Z</time></trkpt><trkpt lat="45.04377489366524" lon="7.550729737415098"><ele>295.0</ele><time>2026-04-05T16:39:40Z</time></trkpt><trkpt lat="45.043988373171764" lon="7.5504696968775"><ele>293.0</ele><time>2026-04-05T16:39:41Z</time></trkpt><trkpt lat="45.04420816856499" lon="7.550218480828734"><ele>291.0</ele><time>2026-04-05T16:39:42Z</time></trkpt><trkpt lat="45.044435485935416" lon="7.549974842213879"><ele>291.0</ele><time>2026-04-05T16:39:43Z</time></trkpt><trkpt lat="45.04467169947436" lon="7.5497377125133776"><ele>291.0</ele><time>2026-04-05T16:39:44Z</time></trkpt><trkpt lat="45.044914601952556" lon="7.549509203212155"><ele>294.0</ele><time>2026-04-05T16:39:45Z</time></trkpt><trkpt lat="45.04516127554537" lon="7.5492915711462825"><ele>297.0</ele><time>2026-04-05T16:39:46Z</time></trkpt><trkpt lat="45.04541312582978" lon="7.5490860768281305"><ele>297.0</ele><time>2026-04-05T16:39:47Z</time></trkpt><trkpt lat="45.04566940449659" lon="7.548890868891171"><ele>297.0</ele><time>2026-04-05T16:39:48Z</time></trkpt><trkpt lat="45.04593093043114" lon="7.548708336143065"><ele>297.5</ele><time>2026-04-05T16:39:49Z</time></trkpt><trkpt lat="45.04619822715751" lon="7.548539103471424"><ele>298.0</ele><time>2026-04-05T16:39:50Z</time></trkpt><trkpt lat="45.04647061153321" lon="7.548379254419287"><ele>297.0</ele><time>2026-04-05T16:39:51Z</time></trkpt><trkpt lat="45.04674879499128" lon="7.548229080814221"><ele>296.0</ele><time>2026-04-05T16:39:52Z</time></trkpt><trkpt lat="45.04703226123314" lon="7.54809461181818"><ele>296.0</ele><time>2026-04-05T16:39:53Z</time></trkpt><trkpt lat="45.04731991934278" lon="7.547976552044737"><ele>296.0</ele><time>2026-04-05T16:39:54Z</time></trkpt><trkpt lat="45.04761081086367" lon="7.547868285344485"><ele>298.0</ele><time>2026-04-05T16:39:55Z</time></trkpt><trkpt lat="45.047905038582485" lon="7.547765161524834"><ele>300.0</ele><time>2026-04-05T16:39:56Z</time></trkpt><trkpt lat="45.0482016200971" lon="7.547662791291977"><ele>300.5</ele><time>2026-04-05T16:39:57Z</time></trkpt><trkpt lat="45.04850163463451" lon="7.547561617637032"><ele>301.0</ele><time>2026-04-05T16:39:58Z</time></trkpt><trkpt lat="45.0488095587496" lon="7.54745276351032"><ele>301.0</ele><time>2026-04-05T16:39:59Z</time></trkpt><trkpt lat="45.04912185334174" lon="7.547341809949617"><ele>301.0</ele><time>2026-04-05T16:40:00Z</time></trkpt><trkpt lat="45.04943684179747" lon="7.547229135412979"><ele>301.0</ele><time>2026-04-05T16:40:01Z</time></trkpt><trkpt lat="45.04975557462453" lon="7.547117413842582"><ele>301.0</ele><time>2026-04-05T16:40:02Z</time></trkpt><trkpt lat="45.05007822430533" lon="7.547006942208799"><ele>302.5</ele><time>2026-04-05T16:40:03Z</time></trkpt><trkpt lat="45.05040125115393" lon="7.54689849783755"><ele>304.0</ele><time>2026-04-05T16:40:04Z</time></trkpt><trkpt lat="45.0507240618667" lon="7.546792030295714"><ele>304.5</ele><time>2026-04-05T16:40:05Z</time></trkpt><trkpt lat="45.05104690258788" lon="7.546682291834848"><ele>305.0</ele><time>2026-04-05T16:40:06Z</time></trkpt><trkpt lat="45.05137102069249" lon="7.546583813120928"><ele>306.5</ele><time>2026-04-05T16:40:07Z</time></trkpt><trkpt lat="45.0516886095142" lon="7.546448505208954"><ele>308.0</ele><time>2026-04-05T16:40:08Z</time></trkpt><trkpt lat="45.0520115591638" lon="7.546339783580842"><ele>308.0</ele><time>2026-04-05T16:40:09Z</time></trkpt><trkpt lat="45.05233218572915" lon="7.546228438880388"><ele>308.0</ele><time>2026-04-05T16:40:10Z</time></trkpt><trkpt lat="45.052653264693255" lon="7.546119197075881"><ele>308.0</ele><time>2026-04-05T16:40:11Z</time></trkpt><trkpt lat="45.05297315873735" lon="7.546004787932422"><ele>308.0</ele><time>2026-04-05T16:40:12Z</time></trkpt><trkpt lat="45.053290681117666" lon="7.545891034506686"><ele>308.0</ele><time>2026-04-05T16:40:13Z</time></trkpt><trkpt lat="45.05359900367167" lon="7.545785801344747"><ele>308.0</ele><time>2026-04-05T16:40:14Z</time></trkpt><trkpt lat="45.053896742779884" lon="7.545686647039597"><ele>308.0</ele><time>2026-04-05T16:40:15Z</time></trkpt><trkpt lat="45.054189860174695" lon="7.545586698875737"><ele>308.0</ele><time>2026-04-05T16:40:16Z</time></trkpt><trkpt lat="45.05447830465558" lon="7.545488272412335"><ele>308.0</ele><time>2026-04-05T16:40:17Z</time></trkpt><trkpt lat="45.054766472264326" lon="7.545390035076478"><ele>308.0</ele><time>2026-04-05T16:40:18Z</time></trkpt><trkpt lat="45.05505192955272" lon="7.545289925218458"><ele>308.0</ele><time>2026-04-05T16:40:19Z</time></trkpt><trkpt lat="45.05532706810078" lon="7.5451944075206105"><ele>308.0</ele><time>2026-04-05T16:40:20Z</time></trkpt><trkpt lat="45.055594746210566" lon="7.545104295473602"><ele>307.5</ele><time>2026-04-05T16:40:21Z</time></trkpt><trkpt lat="45.055856281230206" lon="7.5450126792806635"><ele>307.0</ele><time>2026-04-05T16:40:22Z</time></trkpt><trkpt lat="45.05610851447372" lon="7.544925560673965"><ele>307.0</ele><time>2026-04-05T16:40:23Z</time></trkpt><trkpt lat="45.05635835095223" lon="7.54484054298433"><ele>307.0</ele><time>2026-04-05T16:40:24Z</time></trkpt><trkpt lat="45.056609528178534" lon="7.54475552883961"><ele>308.0</ele><time>2026-04-05T16:40:25Z</time></trkpt><trkpt lat="45.056854343531064" lon="7.544671849307397"><ele>309.0</ele><time>2026-04-05T16:40:26Z</time></trkpt><trkpt lat="45.05710055290295" lon="7.544584844200208"><ele>309.0</ele><time>2026-04-05T16:40:27Z</time></trkpt><trkpt lat="45.05734703235678" lon="7.544494805646887"><ele>309.0</ele><time>2026-04-05T16:40:28Z</time></trkpt><trkpt lat="45.057592793845195" lon="7.54440854037302"><ele>310.0</ele><time>2026-04-05T16:40:29Z</time></trkpt><trkpt lat="45.05783693910311" lon="7.544322603804021"><ele>311.0</ele><time>2026-04-05T16:40:30Z</time></trkpt><trkpt lat="45.058079843936014" lon="7.544235804513822"><ele>311.0</ele><time>2026-04-05T16:40:31Z</time></trkpt><trkpt lat="45.05832204598785" lon="7.544150210837956"><ele>311.0</ele><time>2026-04-05T16:40:32Z</time></trkpt><trkpt lat="45.05855095155039" lon="7.544069480979816"><ele>311.0</ele><time>2026-04-05T16:40:33Z</time></trkpt><trkpt lat="45.058787916865136" lon="7.54398892977627"><ele>311.0</ele><time>2026-04-05T16:40:34Z</time></trkpt><trkpt lat="45.05902785290588" lon="7.543910473127554"><ele>311.0</ele><time>2026-04-05T16:40:35Z</time></trkpt><trkpt lat="45.05926899816453" lon="7.543828428445093"><ele>311.0</ele><time>2026-04-05T16:40:36Z</time></trkpt><trkpt lat="45.05951488649256" lon="7.543741450520107"><ele>312.5</ele><time>2026-04-05T16:40:37Z</time></trkpt><trkpt lat="45.05976505611685" lon="7.543659452830405"><ele>314.0</ele><time>2026-04-05T16:40:38Z</time></trkpt><trkpt lat="45.06001967548194" lon="7.543586483687852"><ele>314.0</ele><time>2026-04-05T16:40:39Z</time></trkpt><trkpt lat="45.060277539274296" lon="7.543522687800891"><ele>314.0</ele><time>2026-04-05T16:40:40Z</time></trkpt><trkpt lat="45.0605351733256" lon="7.543465189913861"><ele>313.5</ele><time>2026-04-05T16:40:41Z</time></trkpt><trkpt lat="45.060788721105034" lon="7.543423809075793"><ele>313.0</ele><time>2026-04-05T16:40:42Z</time></trkpt><trkpt lat="45.0610438456696" lon="7.54339766140905"><ele>313.0</ele><time>2026-04-05T16:40:43Z</time></trkpt><trkpt lat="45.061304259565595" lon="7.543382772443784"><ele>313.0</ele><time>2026-04-05T16:40:44Z</time></trkpt><trkpt lat="45.061567034175745" lon="7.543383401817601"><ele>313.5</ele><time>2026-04-05T16:40:45Z</time></trkpt><trkpt lat="45.06183320208782" lon="7.543394477991796"><ele>314.0</ele><time>2026-04-05T16:40:46Z</time></trkpt><trkpt lat="45.062101134050444" lon="7.543421818446969"><ele>314.0</ele><time>2026-04-05T16:40:47Z</time></trkpt><trkpt lat="45.06237281518836" lon="7.543460916563334"><ele>314.0</ele><time>2026-04-05T16:40:48Z</time></trkpt><trkpt lat="45.06264606187407" lon="7.543513762797923"><ele>313.0</ele><time>2026-04-05T16:40:49Z</time></trkpt><trkpt lat="45.06292266506353" lon="7.543573288994239"><ele>312.0</ele><time>2026-04-05T16:40:50Z</time></trkpt><trkpt lat="45.06319487302144" lon="7.543640753737553"><ele>313.5</ele><time>2026-04-05T16:40:51Z</time></trkpt><trkpt lat="45.06347538246729" lon="7.5437327827580765"><ele>315.0</ele><time>2026-04-05T16:40:52Z</time></trkpt><trkpt lat="45.06375731037817" lon="7.543819304495258"><ele>315.0</ele><time>2026-04-05T16:40:53Z</time></trkpt><trkpt lat="45.06404175376998" lon="7.543905373167267"><ele>315.0</ele><time>2026-04-05T16:40:54Z</time></trkpt><trkpt lat="45.06432748881078" lon="7.543995072235339"><ele>316.0</ele><time>2026-04-05T16:40:55Z</time></trkpt><trkpt lat="45.06460976882681" lon="7.544076977118503"><ele>317.0</ele><time>2026-04-05T16:40:56Z</time></trkpt><trkpt lat="45.06489349337783" lon="7.544165109120867"><ele>317.5</ele><time>2026-04-05T16:40:57Z</time></trkpt><trkpt lat="45.06518010601248" lon="7.544250708618657"><ele>318.0</ele><time>2026-04-05T16:40:58Z</time></trkpt><trkpt lat="45.06546061979368" lon="7.544341400571309"><ele>318.0</ele><time>2026-04-05T16:40:59Z</time></trkpt><trkpt lat="45.06573829270323" lon="7.544427051803855"><ele>318.0</ele><time>2026-04-05T16:41:00Z</time></trkpt><trkpt lat="45.06601298266658" lon="7.544518720131249"><ele>317.5</ele><time>2026-04-05T16:41:01Z</time></trkpt><trkpt lat="45.066284831951585" lon="7.5446075201806195"><ele>317.0</ele><time>2026-04-05T16:41:02Z</time></trkpt><trkpt lat="45.06655790788068" lon="7.544687644926891"><ele>318.0</ele><time>2026-04-05T16:41:03Z</time></trkpt><trkpt lat="45.06683141794744" lon="7.544771751541418"><ele>319.0</ele><time>2026-04-05T16:41:04Z</time></trkpt><trkpt lat="45.067113955650946" lon="7.5448518305418375"><ele>319.0</ele><time>2026-04-05T16:41:05Z</time></trkpt><trkpt lat="45.06742017059797" lon="7.544936833571136"><ele>319.0</ele><time>2026-04-05T16:41:06Z</time></trkpt><trkpt lat="45.06774492415803" lon="7.5450357824303"><ele>319.0</ele><time>2026-04-05T16:41:07Z</time></trkpt><trkpt lat="45.06807271677489" lon="7.545141522006583"><ele>319.0</ele><time>2026-04-05T16:41:08Z</time></trkpt><trkpt lat="45.06838577357382" lon="7.545247002652667"><ele>320.0</ele><time>2026-04-05T16:41:09Z</time></trkpt><trkpt lat="45.068676043963784" lon="7.545342836257032"><ele>321.0</ele><time>2026-04-05T16:41:10Z</time></trkpt><trkpt lat="45.068951173409715" lon="7.545429965735826"><ele>322.0</ele><time>2026-04-05T16:41:11Z</time></trkpt><trkpt lat="45.06922379496664" lon="7.5455160452701255"><ele>323.0</ele><time>2026-04-05T16:41:12Z</time></trkpt><trkpt lat="45.06949684028338" lon="7.545592147213279"><ele>323.0</ele><time>2026-04-05T16:41:13Z</time></trkpt><trkpt lat="45.06977179590846" lon="7.545676785840504"><ele>323.0</ele><time>2026-04-05T16:41:14Z</time></trkpt><trkpt lat="45.070045352978624" lon="7.545762809565053"><ele>324.0</ele><time>2026-04-05T16:41:15Z</time></trkpt><trkpt lat="45.07031803760206" lon="7.545846268380011"><ele>325.0</ele><time>2026-04-05T16:41:16Z</time></trkpt><trkpt lat="45.070590318155055" lon="7.545930994794677"><ele>325.0</ele><time>2026-04-05T16:41:17Z</time></trkpt><trkpt lat="45.0708653732281" lon="7.546017146014432"><ele>325.0</ele><time>2026-04-05T16:41:18Z</time></trkpt><trkpt lat="45.07114356073214" lon="7.546099980385095"><ele>325.0</ele><time>2026-04-05T16:41:19Z</time></trkpt><trkpt lat="45.071426919990834" lon="7.546182946120807"><ele>325.0</ele><time>2026-04-05T16:41:20Z</time></trkpt><trkpt lat="45.07171060129693" lon="7.546266668684097"><ele>324.5</ele><time>2026-04-05T16:41:21Z</time></trkpt><trkpt lat="45.07199260550546" lon="7.546352092361981"><ele>324.0</ele><time>2026-04-05T16:41:22Z</time></trkpt><trkpt lat="45.07227317833649" lon="7.546437844915758"><ele>323.5</ele><time>2026-04-05T16:41:23Z</time></trkpt><trkpt lat="45.0725569516456" lon="7.546523237581432"><ele>323.0</ele><time>2026-04-05T16:41:24Z</time></trkpt><trkpt lat="45.07284176805129" lon="7.546607005746197"><ele>323.0</ele><time>2026-04-05T16:41:25Z</time></trkpt><trkpt lat="45.07312656602043" lon="7.5466955667489515"><ele>323.0</ele><time>2026-04-05T16:41:26Z</time></trkpt><trkpt lat="45.073410291860874" lon="7.546786438195456"><ele>324.5</ele><time>2026-04-05T16:41:27Z</time></trkpt><trkpt lat="45.07369713191721" lon="7.546876138165511"><ele>326.0</ele><time>2026-04-05T16:41:28Z</time></trkpt><trkpt lat="45.07398213366128" lon="7.546965098806431"><ele>324.0</ele><time>2026-04-05T16:41:29Z</time></trkpt><trkpt lat="45.07426888893463" lon="7.547050711909478"><ele>322.0</ele><time>2026-04-05T16:41:30Z</time></trkpt><trkpt lat="45.07456557390732" lon="7.547140492466888"><ele>322.0</ele><time>2026-04-05T16:41:31Z</time></trkpt><trkpt lat="45.07486972704703" lon="7.547239832493139"><ele>322.0</ele><time>2026-04-05T16:41:32Z</time></trkpt><trkpt lat="45.07517159959628" lon="7.547339452764555"><ele>323.0</ele><time>2026-04-05T16:41:33Z</time></trkpt><trkpt lat="45.075480436991" lon="7.54743770669549"><ele>324.0</ele><time>2026-04-05T16:41:34Z</time></trkpt><trkpt lat="45.07578988016283" lon="7.54753774636862"><ele>326.0</ele><time>2026-04-05T16:41:35Z</time></trkpt><trkpt lat="45.07610006571137" lon="7.547633788692853"><ele>328.0</ele><time>2026-04-05T16:41:36Z</time></trkpt><trkpt lat="45.07641005167408" lon="7.5477307375146525"><ele>328.0</ele><time>2026-04-05T16:41:37Z</time></trkpt><trkpt lat="45.07672428084639" lon="7.5478274379500885"><ele>328.0</ele><time>2026-04-05T16:41:38Z</time></trkpt><trkpt lat="45.07703722456849" lon="7.547927979441477"><ele>326.0</ele><time>2026-04-05T16:41:39Z</time></trkpt><trkpt lat="45.077353020265846" lon="7.54802995853008"><ele>324.0</ele><time>2026-04-05T16:41:40Z</time></trkpt><trkpt lat="45.07766776195995" lon="7.548128462711006"><ele>324.0</ele><time>2026-04-05T16:41:41Z</time></trkpt><trkpt lat="45.07798405956761" lon="7.548228197731581"><ele>324.0</ele><time>2026-04-05T16:41:42Z</time></trkpt><trkpt lat="45.07830190561817" lon="7.548325811502634"><ele>324.0</ele><time>2026-04-05T16:41:43Z</time></trkpt><trkpt lat="45.07861842828834" lon="7.548422631074829"><ele>324.0</ele><time>2026-04-05T16:41:44Z</time></trkpt><trkpt lat="45.0789335492809" lon="7.548515183863848"><ele>323.5</ele><time>2026-04-05T16:41:45Z</time></trkpt><trkpt lat="45.07923426343536" lon="7.5486084878297985"><ele>323.0</ele><time>2026-04-05T16:41:46Z</time></trkpt><trkpt lat="45.07953003902577" lon="7.548724135722253"><ele>322.0</ele><time>2026-04-05T16:41:47Z</time></trkpt><trkpt lat="45.07982266650589" lon="7.548882028236058"><ele>321.0</ele><time>2026-04-05T16:41:48Z</time></trkpt><trkpt lat="45.08010719696538" lon="7.549098542277034"><ele>320.0</ele><time>2026-04-05T16:41:49Z</time></trkpt><trkpt lat="45.08035263177206" lon="7.549398999524438"><ele>319.0</ele><time>2026-04-05T16:41:50Z</time></trkpt><trkpt lat="45.08058761512131" lon="7.549713403067228"><ele>319.5</ele><time>2026-04-05T16:41:51Z</time></trkpt><trkpt lat="45.08079505765502" lon="7.550059524894135"><ele>320.0</ele><time>2026-04-05T16:41:52Z</time></trkpt><trkpt lat="45.080959461270595" lon="7.550410087330953"><ele>317.5</ele><time>2026-04-05T16:41:53Z</time></trkpt><trkpt lat="45.08108636065258" lon="7.5507595618381185"><ele>315.0</ele><time>2026-04-05T16:41:54Z</time></trkpt><trkpt lat="45.08119873377093" lon="7.55110256409974"><ele>313.5</ele><time>2026-04-05T16:41:55Z</time></trkpt><trkpt lat="45.08129504885246" lon="7.551441963211168"><ele>312.0</ele><time>2026-04-05T16:41:56Z</time></trkpt><trkpt lat="45.081368124640484" lon="7.551801458516527"><ele>310.5</ele><time>2026-04-05T16:41:57Z</time></trkpt><trkpt lat="45.08145116109897" lon="7.552147725181818"><ele>309.0</ele><time>2026-04-05T16:41:58Z</time></trkpt><trkpt lat="45.081539412361494" lon="7.552484575291594"><ele>312.5</ele><time>2026-04-05T16:41:59Z</time></trkpt><trkpt lat="45.081636059682936" lon="7.552824381743537"><ele>316.0</ele><time>2026-04-05T16:42:00Z</time></trkpt><trkpt lat="45.08174395479723" lon="7.553164971013689"><ele>316.0</ele><time>2026-04-05T16:42:01Z</time></trkpt><trkpt lat="45.081861099120026" lon="7.553508152998503"><ele>316.0</ele><time>2026-04-05T16:42:02Z</time></trkpt><trkpt lat="45.08198592184878" lon="7.553846704183102"><ele>315.5</ele><time>2026-04-05T16:42:03Z</time></trkpt><trkpt lat="45.0821181821236" lon="7.554188443782686"><ele>315.0</ele><time>2026-04-05T16:42:04Z</time></trkpt><trkpt lat="45.082262198267955" lon="7.554524264567686"><ele>315.0</ele><time>2026-04-05T16:42:05Z</time></trkpt><trkpt lat="45.08241653840633" lon="7.554859527866454"><ele>315.0</ele><time>2026-04-05T16:42:06Z</time></trkpt><trkpt lat="45.08258091528541" lon="7.555190636781717"><ele>316.0</ele><time>2026-04-05T16:42:07Z</time></trkpt><trkpt lat="45.0827506633903" lon="7.555516953735995"><ele>317.0</ele><time>2026-04-05T16:42:08Z</time></trkpt><trkpt lat="45.08292379092092" lon="7.555840907422799"><ele>317.0</ele><time>2026-04-05T16:42:09Z</time></trkpt><trkpt lat="45.083108487757286" lon="7.556157970918175"><ele>317.0</ele><time>2026-04-05T16:42:10Z</time></trkpt><trkpt lat="45.08330656318311" lon="7.556464044760973"><ele>316.0</ele><time>2026-04-05T16:42:11Z</time></trkpt><trkpt lat="45.0835019176999" lon="7.556753496048401"><ele>315.0</ele><time>2026-04-05T16:42:12Z</time></trkpt><trkpt lat="45.08369875410392" lon="7.557033474786435"><ele>314.0</ele><time>2026-04-05T16:42:13Z</time></trkpt><trkpt lat="45.08391198886112" lon="7.5573166355089"><ele>313.0</ele><time>2026-04-05T16:42:14Z</time></trkpt><trkpt lat="45.084134403952596" lon="7.557596834016974"><ele>313.0</ele><time>2026-04-05T16:42:15Z</time></trkpt><trkpt lat="45.08435587575201" lon="7.557868142990766"><ele>313.0</ele><time>2026-04-05T16:42:16Z</time></trkpt><trkpt lat="45.084577472607315" lon="7.55814391423788"><ele>313.0</ele><time>2026-04-05T16:42:17Z</time></trkpt><trkpt lat="45.08479997934295" lon="7.5584231784782405"><ele>313.0</ele><time>2026-04-05T16:42:18Z</time></trkpt><trkpt lat="45.08502312565556" lon="7.558709969989628"><ele>314.0</ele><time>2026-04-05T16:42:19Z</time></trkpt><trkpt lat="45.08524792181572" lon="7.558995234864795"><ele>315.0</ele><time>2026-04-05T16:42:20Z</time></trkpt><trkpt lat="45.085474003129846" lon="7.559283119573294"><ele>314.5</ele><time>2026-04-05T16:42:21Z</time></trkpt><trkpt lat="45.085705078829996" lon="7.5595723106449855"><ele>314.0</ele><time>2026-04-05T16:42:22Z</time></trkpt><trkpt lat="45.085935398975195" lon="7.559858827794658"><ele>313.5</ele><time>2026-04-05T16:42:23Z</time></trkpt><trkpt lat="45.086165985810084" lon="7.560149656395422"><ele>313.0</ele><time>2026-04-05T16:42:24Z</time></trkpt><trkpt lat="45.08639750052735" lon="7.560447084898277"><ele>309.5</ele><time>2026-04-05T16:42:25Z</time></trkpt><trkpt lat="45.08663489402666" lon="7.560742279721585"><ele>306.0</ele><time>2026-04-05T16:42:26Z</time></trkpt><trkpt lat="45.08687135131067" lon="7.561039839281957"><ele>304.0</ele><time>2026-04-05T16:42:27Z</time></trkpt><trkpt lat="45.08710936565887" lon="7.5613400155553645"><ele>302.0</ele><time>2026-04-05T16:42:28Z</time></trkpt><trkpt lat="45.08734920958974" lon="7.561641071740505"><ele>300.0</ele><time>2026-04-05T16:42:29Z</time></trkpt><trkpt lat="45.08758895444132" lon="7.561946292730802"><ele>298.0</ele><time>2026-04-05T16:42:30Z</time></trkpt><trkpt lat="45.08782765019802" lon="7.562249382879635"><ele>297.5</ele><time>2026-04-05T16:42:31Z</time></trkpt><trkpt lat="45.08806758302458" lon="7.562553329552946"><ele>297.0</ele><time>2026-04-05T16:42:32Z</time></trkpt><trkpt lat="45.08830975696326" lon="7.562856065829561"><ele>295.0</ele><time>2026-04-05T16:42:33Z</time></trkpt><trkpt lat="45.088548154752544" lon="7.563156007713514"><ele>293.0</ele><time>2026-04-05T16:42:34Z</time></trkpt><trkpt lat="45.088785269450206" lon="7.563452225798518"><ele>293.5</ele><time>2026-04-05T16:42:35Z</time></trkpt><trkpt lat="45.08901646762905" lon="7.563742973800416"><ele>294.0</ele><time>2026-04-05T16:42:36Z</time></trkpt><trkpt lat="45.08924955809783" lon="7.564036905226338"><ele>294.0</ele><time>2026-04-05T16:42:37Z</time></trkpt><trkpt lat="45.08948704880942" lon="7.564336649354124"><ele>294.0</ele><time>2026-04-05T16:42:38Z</time></trkpt><trkpt lat="45.08972810287051" lon="7.564639556273366"><ele>293.5</ele><time>2026-04-05T16:42:39Z</time></trkpt><trkpt lat="45.08997337098015" lon="7.564949151864804"><ele>293.0</ele><time>2026-04-05T16:42:40Z</time></trkpt><trkpt lat="45.090216848953986" lon="7.565260499480553"><ele>292.5</ele><time>2026-04-05T16:42:41Z</time></trkpt><trkpt lat="45.0904621843056" lon="7.56556892275047"><ele>292.0</ele><time>2026-04-05T16:42:42Z</time></trkpt><trkpt lat="45.0907097344695" lon="7.565876222733444"><ele>293.0</ele><time>2026-04-05T16:42:43Z</time></trkpt><trkpt lat="45.09095669085995" lon="7.5661907262010635"><ele>294.0</ele><time>2026-04-05T16:42:44Z</time></trkpt><trkpt lat="45.09120133247988" lon="7.566501885099073"><ele>294.5</ele><time>2026-04-05T16:42:45Z</time></trkpt><trkpt lat="45.091437033558435" lon="7.566800979919551"><ele>295.0</ele><time>2026-04-05T16:42:46Z</time></trkpt><trkpt lat="45.091662946448" lon="7.56708884206299"><ele>296.0</ele><time>2026-04-05T16:42:47Z</time></trkpt><trkpt lat="45.09189508211336" lon="7.567380659659746"><ele>297.0</ele><time>2026-04-05T16:42:48Z</time></trkpt><trkpt lat="45.09213641525058" lon="7.567674770395893"><ele>298.0</ele><time>2026-04-05T16:42:49Z</time></trkpt><trkpt lat="45.09237696377665" lon="7.567982134162643"><ele>299.0</ele><time>2026-04-05T16:42:50Z</time></trkpt><trkpt lat="45.09261897285813" lon="7.568285210243923"><ele>299.0</ele><time>2026-04-05T16:42:51Z</time></trkpt><trkpt lat="45.0928425148621" lon="7.568565617350907"><ele>299.0</ele><time>2026-04-05T16:42:52Z</time></trkpt><trkpt lat="45.093058159247406" lon="7.568838175128724"><ele>300.5</ele><time>2026-04-05T16:42:53Z</time></trkpt><trkpt lat="45.093280543658466" lon="7.569114713281996"><ele>302.0</ele><time>2026-04-05T16:42:54Z</time></trkpt><trkpt lat="45.09350109806614" lon="7.569397635523268"><ele>301.5</ele><time>2026-04-05T16:42:55Z</time></trkpt><trkpt lat="45.09371628889072" lon="7.569674946895399"><ele>301.0</ele><time>2026-04-05T16:42:56Z</time></trkpt><trkpt lat="45.09392347078352" lon="7.569939948884232"><ele>301.0</ele><time>2026-04-05T16:42:57Z</time></trkpt><trkpt lat="45.09412896121041" lon="7.570197865241607"><ele>301.0</ele><time>2026-04-05T16:42:58Z</time></trkpt><trkpt lat="45.094337583849864" lon="7.570457325863575"><ele>300.0</ele><time>2026-04-05T16:42:59Z</time></trkpt><trkpt lat="45.094544248869305" lon="7.570721292527382"><ele>299.0</ele><time>2026-04-05T16:43:00Z</time></trkpt><trkpt lat="45.09475001348339" lon="7.570983902953972"><ele>298.0</ele><time>2026-04-05T16:43:01Z</time></trkpt><trkpt lat="45.094961390994364" lon="7.571246377108283"><ele>297.0</ele><time>2026-04-05T16:43:02Z</time></trkpt><trkpt lat="45.09516924495855" lon="7.571512169616913"><ele>297.0</ele><time>2026-04-05T16:43:03Z</time></trkpt><trkpt lat="45.09538211884697" lon="7.571780090917205"><ele>297.0</ele><time>2026-04-05T16:43:04Z</time></trkpt><trkpt lat="45.0955998788452" lon="7.572048378900345"><ele>297.5</ele><time>2026-04-05T16:43:05Z</time></trkpt><trkpt lat="45.09581813797436" lon="7.572321686732798"><ele>298.0</ele><time>2026-04-05T16:43:06Z</time></trkpt><trkpt lat="45.09603094158051" lon="7.572584797959757"><ele>297.5</ele><time>2026-04-05T16:43:07Z</time></trkpt><trkpt lat="45.096239786972575" lon="7.572872310555384"><ele>297.0</ele><time>2026-04-05T16:43:08Z</time></trkpt><trkpt lat="45.096436769076675" lon="7.573147647675128"><ele>296.5</ele><time>2026-04-05T16:43:09Z</time></trkpt><trkpt lat="45.09662146304676" lon="7.573427795861401"><ele>296.0</ele><time>2026-04-05T16:43:10Z</time></trkpt><trkpt lat="45.09680158111691" lon="7.573713010756688"><ele>296.0</ele><time>2026-04-05T16:43:11Z</time></trkpt><trkpt lat="45.09697393643067" lon="7.574003763167835"><ele>296.0</ele><time>2026-04-05T16:43:12Z</time></trkpt><trkpt lat="45.09713990845263" lon="7.574296706840996"><ele>296.0</ele><time>2026-04-05T16:43:13Z</time></trkpt><trkpt lat="45.097300713035644" lon="7.5745933881729695"><ele>296.0</ele><time>2026-04-05T16:43:14Z</time></trkpt><trkpt lat="45.09745762990165" lon="7.574895188333176"><ele>296.0</ele><time>2026-04-05T16:43:15Z</time></trkpt><trkpt lat="45.09760978467717" lon="7.5752029578269395"><ele>296.0</ele><time>2026-04-05T16:43:16Z</time></trkpt><trkpt lat="45.0977505958989" lon="7.575504801358572"><ele>296.0</ele><time>2026-04-05T16:43:17Z</time></trkpt><trkpt lat="45.09787991986475" lon="7.575799118531661"><ele>296.0</ele><time>2026-04-05T16:43:18Z</time></trkpt><trkpt lat="45.09800420738522" lon="7.576096174867624"><ele>295.0</ele><time>2026-04-05T16:43:19Z</time></trkpt><trkpt lat="45.098126804679644" lon="7.576406446341385"><ele>294.0</ele><time>2026-04-05T16:43:20Z</time></trkpt><trkpt lat="45.09824339740043" lon="7.5767242934340375"><ele>294.5</ele><time>2026-04-05T16:43:21Z</time></trkpt><trkpt lat="45.098357744979204" lon="7.577051914955446"><ele>295.0</ele><time>2026-04-05T16:43:22Z</time></trkpt><trkpt lat="45.09846370923679" lon="7.577374398356106"><ele>295.0</ele><time>2026-04-05T16:43:23Z</time></trkpt><trkpt lat="45.09855846815989" lon="7.5776944315783545"><ele>295.0</ele><time>2026-04-05T16:43:24Z</time></trkpt><trkpt lat="45.09865735709502" lon="7.578027239531439"><ele>294.5</ele><time>2026-04-05T16:43:25Z</time></trkpt><trkpt lat="45.098752963985646" lon="7.578363917347249"><ele>294.0</ele><time>2026-04-05T16:43:26Z</time></trkpt><trkpt lat="45.0988479645892" lon="7.5787042129387405"><ele>293.0</ele><time>2026-04-05T16:43:27Z</time></trkpt><trkpt lat="45.09894209848531" lon="7.5790501865958495"><ele>292.0</ele><time>2026-04-05T16:43:28Z</time></trkpt><trkpt lat="45.09903950552734" lon="7.579400974345466"><ele>292.0</ele><time>2026-04-05T16:43:29Z</time></trkpt><trkpt lat="45.099133991625855" lon="7.5797541306315495"><ele>292.0</ele><time>2026-04-05T16:43:30Z</time></trkpt><trkpt lat="45.09923428670056" lon="7.580112176977066"><ele>291.0</ele><time>2026-04-05T16:43:31Z</time></trkpt><trkpt lat="45.09933587653409" lon="7.580475588411128"><ele>290.0</ele><time>2026-04-05T16:43:32Z</time></trkpt><trkpt lat="45.09944023285711" lon="7.580838855905739"><ele>289.0</ele><time>2026-04-05T16:43:33Z</time></trkpt><trkpt lat="45.09954088457919" lon="7.581208334560022"><ele>288.0</ele><time>2026-04-05T16:43:34Z</time></trkpt><trkpt lat="45.09964455493827" lon="7.5815799644939394"><ele>288.0</ele><time>2026-04-05T16:43:35Z</time></trkpt><trkpt lat="45.099751431435486" lon="7.581970476390856"><ele>288.0</ele><time>2026-04-05T16:43:36Z</time></trkpt><trkpt lat="45.09986035540777" lon="7.582364847281764"><ele>288.0</ele><time>2026-04-05T16:43:37Z</time></trkpt><trkpt lat="45.099968687711346" lon="7.582764541921099"><ele>288.0</ele><time>2026-04-05T16:43:38Z</time></trkpt><trkpt lat="45.10007982425993" lon="7.583160399554824"><ele>288.0</ele><time>2026-04-05T16:43:39Z</time></trkpt><trkpt lat="45.10018951567877" lon="7.5835587564535185"><ele>288.0</ele><time>2026-04-05T16:43:40Z</time></trkpt><trkpt lat="45.10029598128303" lon="7.583956142019977"><ele>287.5</ele><time>2026-04-05T16:43:41Z</time></trkpt><trkpt lat="45.10040613722545" lon="7.5843512922799725"><ele>287.0</ele><time>2026-04-05T16:43:42Z</time></trkpt><trkpt lat="45.100519623321254" lon="7.5847853015243585"><ele>287.0</ele><time>2026-04-05T16:43:43Z</time></trkpt><trkpt lat="45.10065730740743" lon="7.585258135415895"><ele>287.0</ele><time>2026-04-05T16:43:44Z</time></trkpt><trkpt lat="45.10079696574408" lon="7.585759590088201"><ele>287.0</ele><time>2026-04-05T16:43:45Z</time></trkpt><trkpt lat="45.10093203050385" lon="7.586230656185326"><ele>287.0</ele><time>2026-04-05T16:43:46Z</time></trkpt><trkpt lat="45.10105398955747" lon="7.586686998110618"><ele>286.5</ele><time>2026-04-05T16:43:47Z</time></trkpt><trkpt lat="45.10116822041411" lon="7.587118307501008"><ele>286.0</ele><time>2026-04-05T16:43:48Z</time></trkpt><trkpt lat="45.10128149353545" lon="7.587529409644248"><ele>286.0</ele><time>2026-04-05T16:43:49Z</time></trkpt><trkpt lat="45.101390574625874" lon="7.587930048852794"><ele>286.0</ele><time>2026-04-05T16:43:50Z</time></trkpt><trkpt lat="45.10149829716278" lon="7.588325534561052"><ele>285.0</ele><time>2026-04-05T16:43:51Z</time></trkpt><trkpt lat="45.101605354584095" lon="7.588715035629056"><ele>284.0</ele><time>2026-04-05T16:43:52Z</time></trkpt><trkpt lat="45.101710600210346" lon="7.589096916532243"><ele>284.0</ele><time>2026-04-05T16:43:53Z</time></trkpt><trkpt lat="45.10181217429968" lon="7.589471295666583"><ele>284.0</ele><time>2026-04-05T16:43:54Z</time></trkpt><trkpt lat="45.10191400299764" lon="7.589842608933863"><ele>284.5</ele><time>2026-04-05T16:43:55Z</time></trkpt><trkpt lat="45.102019295817975" lon="7.5902130781509545"><ele>285.0</ele><time>2026-04-05T16:43:56Z</time></trkpt><trkpt lat="45.10212472596466" lon="7.59058163474997"><ele>285.0</ele><time>2026-04-05T16:43:57Z</time></trkpt><trkpt lat="45.10222840629893" lon="7.590955812040101"><ele>285.0</ele><time>2026-04-05T16:43:58Z</time></trkpt><trkpt lat="45.1023348015358" lon="7.591339699815001"><ele>285.5</ele><time>2026-04-05T16:43:59Z</time></trkpt><trkpt lat="45.10244265042774" lon="7.5917268186248315"><ele>286.0</ele><time>2026-04-05T16:44:00Z</time></trkpt><trkpt lat="45.10254954661859" lon="7.592113732164424"><ele>284.5</ele><time>2026-04-05T16:44:01Z</time></trkpt><trkpt lat="45.10265490020497" lon="7.592502134343758"><ele>283.0</ele><time>2026-04-05T16:44:02Z</time></trkpt><trkpt lat="45.10276235431143" lon="7.59288847889176"><ele>282.0</ele><time>2026-04-05T16:44:03Z</time></trkpt><trkpt lat="45.10286656799601" lon="7.5932667344965665"><ele>281.0</ele><time>2026-04-05T16:44:04Z</time></trkpt><trkpt lat="45.10296998336303" lon="7.593643924191246"><ele>282.0</ele><time>2026-04-05T16:44:05Z</time></trkpt><trkpt lat="45.10307148578546" lon="7.594021590592276"><ele>283.0</ele><time>2026-04-05T16:44:06Z</time></trkpt><trkpt lat="45.10317545822103" lon="7.59439982517097"><ele>282.5</ele><time>2026-04-05T16:44:07Z</time></trkpt><trkpt lat="45.103280957654604" lon="7.594779485904958"><ele>282.0</ele><time>2026-04-05T16:44:08Z</time></trkpt><trkpt lat="45.10338623296456" lon="7.595161999714653"><ele>282.5</ele><time>2026-04-05T16:44:09Z</time></trkpt><trkpt lat="45.10348991878832" lon="7.595542566168752"><ele>283.0</ele><time>2026-04-05T16:44:10Z</time></trkpt><trkpt lat="45.1035886110556" lon="7.595911369949931"><ele>282.5</ele><time>2026-04-05T16:44:11Z</time></trkpt><trkpt lat="45.10368870054763" lon="7.596270705276701"><ele>282.0</ele><time>2026-04-05T16:44:12Z</time></trkpt><trkpt lat="45.103784509237094" lon="7.596610456972239"><ele>282.0</ele><time>2026-04-05T16:44:13Z</time></trkpt><trkpt lat="45.10387856461966" lon="7.596961552829473"><ele>282.0</ele><time>2026-04-05T16:44:14Z</time></trkpt><trkpt lat="45.10397490671519" lon="7.59732170037275"><ele>282.0</ele><time>2026-04-05T16:44:15Z</time></trkpt><trkpt lat="45.10407569247706" lon="7.597690723966639"><ele>282.0</ele><time>2026-04-05T16:44:16Z</time></trkpt><trkpt lat="45.10418086023237" lon="7.598063804306197"><ele>282.0</ele><time>2026-04-05T16:44:17Z</time></trkpt><trkpt lat="45.10428588624966" lon="7.5984407245548375"><ele>282.0</ele><time>2026-04-05T16:44:18Z</time></trkpt><trkpt lat="45.104391088191875" lon="7.598823516554584"><ele>281.0</ele><time>2026-04-05T16:44:19Z</time></trkpt><trkpt lat="45.10449719629646" lon="7.599211636854264"><ele>280.0</ele><time>2026-04-05T16:44:20Z</time></trkpt><trkpt lat="45.10460639610998" lon="7.599600286916919"><ele>279.0</ele><time>2026-04-05T16:44:21Z</time></trkpt><trkpt lat="45.10471839840934" lon="7.5999917712698855"><ele>278.0</ele><time>2026-04-05T16:44:22Z</time></trkpt><trkpt lat="45.10482789683616" lon="7.600383391132373"><ele>278.5</ele><time>2026-04-05T16:44:23Z</time></trkpt><trkpt lat="45.104935699606116" lon="7.600775940098523"><ele>279.0</ele><time>2026-04-05T16:44:24Z</time></trkpt><trkpt lat="45.10503988080977" lon="7.601162143497998"><ele>278.0</ele><time>2026-04-05T16:44:25Z</time></trkpt><trkpt lat="45.10514406475348" lon="7.601546208264404"><ele>277.0</ele><time>2026-04-05T16:44:26Z</time></trkpt><trkpt lat="45.1052520460142" lon="7.601927467927239"><ele>277.0</ele><time>2026-04-05T16:44:27Z</time></trkpt><trkpt lat="45.105364916318756" lon="7.602308506857628"><ele>277.0</ele><time>2026-04-05T16:44:28Z</time></trkpt><trkpt lat="45.105480462527794" lon="7.602688189504569"><ele>276.0</ele><time>2026-04-05T16:44:29Z</time></trkpt><trkpt lat="45.10559996794185" lon="7.603067823759023"><ele>275.0</ele><time>2026-04-05T16:44:30Z</time></trkpt><trkpt lat="45.10572135643389" lon="7.6034470370452425"><ele>276.0</ele><time>2026-04-05T16:44:31Z</time></trkpt><trkpt lat="45.105844752252494" lon="7.603816663578761"><ele>277.0</ele><time>2026-04-05T16:44:32Z</time></trkpt><trkpt lat="45.10596981474968" lon="7.6041823918740015"><ele>277.0</ele><time>2026-04-05T16:44:33Z</time></trkpt><trkpt lat="45.10609772597007" lon="7.604555026857422"><ele>277.0</ele><time>2026-04-05T16:44:34Z</time></trkpt><trkpt lat="45.10622943858988" lon="7.604926594329175"><ele>277.0</ele><time>2026-04-05T16:44:35Z</time></trkpt><trkpt lat="45.10636646328485" lon="7.605296926238044"><ele>277.0</ele><time>2026-04-05T16:44:36Z</time></trkpt><trkpt lat="45.10650686341616" lon="7.605662212370358"><ele>277.0</ele><time>2026-04-05T16:44:37Z</time></trkpt><trkpt lat="45.106646961870155" lon="7.606024559798599"><ele>277.0</ele><time>2026-04-05T16:44:38Z</time></trkpt><trkpt lat="45.1067889294341" lon="7.60638574872853"><ele>275.0</ele><time>2026-04-05T16:44:39Z</time></trkpt><trkpt lat="45.106937033842385" lon="7.606757356259318"><ele>273.0</ele><time>2026-04-05T16:44:40Z</time></trkpt><trkpt lat="45.10709843473173" lon="7.607141021663193"><ele>273.0</ele><time>2026-04-05T16:44:41Z</time></trkpt><trkpt lat="45.10726996098929" lon="7.607535833541768"><ele>273.0</ele><time>2026-04-05T16:44:42Z</time></trkpt><trkpt lat="45.107446101805415" lon="7.607942854063931"><ele>273.0</ele><time>2026-04-05T16:44:43Z</time></trkpt><trkpt lat="45.10762886162518" lon="7.608357004932212"><ele>273.0</ele><time>2026-04-05T16:44:44Z</time></trkpt><trkpt lat="45.1078234779309" lon="7.6087745440171615"><ele>273.5</ele><time>2026-04-05T16:44:45Z</time></trkpt><trkpt lat="45.108026768178284" lon="7.6092012549479495"><ele>274.0</ele><time>2026-04-05T16:44:46Z</time></trkpt><trkpt lat="45.108235577297336" lon="7.609636951405526"><ele>273.5</ele><time>2026-04-05T16:44:47Z</time></trkpt><trkpt lat="45.108446769344745" lon="7.610077773259059"><ele>273.0</ele><time>2026-04-05T16:44:48Z</time></trkpt><trkpt lat="45.10865543704342" lon="7.610520050153032"><ele>273.0</ele><time>2026-04-05T16:44:49Z</time></trkpt><trkpt lat="45.10885931482018" lon="7.610955066763764"><ele>273.0</ele><time>2026-04-05T16:44:50Z</time></trkpt><trkpt lat="45.10906020156998" lon="7.611383299461743"><ele>273.0</ele><time>2026-04-05T16:44:51Z</time></trkpt><trkpt lat="45.10926038344331" lon="7.611809797299241"><ele>273.0</ele><time>2026-04-05T16:44:52Z</time></trkpt><trkpt lat="45.10946011728042" lon="7.612227501848648"><ele>274.0</ele><time>2026-04-05T16:44:53Z</time></trkpt><trkpt lat="45.109659531881526" lon="7.612644932613602"><ele>275.0</ele><time>2026-04-05T16:44:54Z</time></trkpt><trkpt lat="45.10985780261451" lon="7.613062584948813"><ele>274.5</ele><time>2026-04-05T16:44:55Z</time></trkpt><trkpt lat="45.11005602806389" lon="7.613475517494813"><ele>274.0</ele><time>2026-04-05T16:44:56Z</time></trkpt><trkpt lat="45.11025075621845" lon="7.613885926700782"><ele>273.5</ele><time>2026-04-05T16:44:57Z</time></trkpt><trkpt lat="45.11044510807443" lon="7.614297908251516"><ele>273.0</ele><time>2026-04-05T16:44:58Z</time></trkpt><trkpt lat="45.11063718803939" lon="7.614705663511926"><ele>273.0</ele><time>2026-04-05T16:44:59Z</time></trkpt><trkpt lat="45.11083013547851" lon="7.615112771493417"><ele>273.0</ele><time>2026-04-05T16:45:00Z</time></trkpt><trkpt lat="45.11102383923334" lon="7.615518715770726"><ele>273.0</ele><time>2026-04-05T16:45:01Z</time></trkpt><trkpt lat="45.111216062716124" lon="7.6159213999498405"><ele>273.0</ele><time>2026-04-05T16:45:02Z</time></trkpt><trkpt lat="45.111406088299354" lon="7.616319081579738"><ele>273.0</ele><time>2026-04-05T16:45:03Z</time></trkpt><trkpt lat="45.111591924254384" lon="7.616703427788478"><ele>273.0</ele><time>2026-04-05T16:45:04Z</time></trkpt><trkpt lat="45.111771271495165" lon="7.617083984680125"><ele>272.0</ele><time>2026-04-05T16:45:05Z</time></trkpt><trkpt lat="45.11212635431218" lon="7.617838173874987"><ele>272.0</ele><time>2026-04-05T16:45:07Z</time></trkpt><trkpt lat="45.11230618054557" lon="7.618218355794001"><ele>272.0</ele><time>2026-04-05T16:45:08Z</time></trkpt><trkpt lat="45.11249023762477" lon="7.618612613803278"><ele>272.0</ele><time>2026-04-05T16:45:09Z</time></trkpt><trkpt lat="45.11267731435134" lon="7.619008203053009"><ele>272.0</ele><time>2026-04-05T16:45:10Z</time></trkpt><trkpt lat="45.11286945951199" lon="7.619412369918712"><ele>271.0</ele><time>2026-04-05T16:45:11Z</time></trkpt><trkpt lat="45.11309518923702" lon="7.61988081784451"><ele>270.0</ele><time>2026-04-05T16:45:12Z</time></trkpt><trkpt lat="45.1133434924199" lon="7.620402990589561"><ele>270.0</ele><time>2026-04-05T16:45:13Z</time></trkpt><trkpt lat="45.113610060900896" lon="7.62096363247111"><ele>270.0</ele><time>2026-04-05T16:45:14Z</time></trkpt><trkpt lat="45.11389158796703" lon="7.621558572190743"><ele>268.0</ele><time>2026-04-05T16:45:15Z</time></trkpt><trkpt lat="45.114175077796325" lon="7.622183653532129"><ele>268.0</ele><time>2026-04-05T16:45:16Z</time></trkpt><trkpt lat="45.114427646300214" lon="7.62278471668833"><ele>267.5</ele><time>2026-04-05T16:45:17Z</time></trkpt><trkpt lat="45.11463853697196" lon="7.623325489866426"><ele>267.0</ele><time>2026-04-05T16:45:18Z</time></trkpt><trkpt lat="45.11484897681262" lon="7.623845685362285"><ele>267.0</ele><time>2026-04-05T16:45:19Z</time></trkpt><trkpt lat="45.11505416848861" lon="7.624341047636437"><ele>267.0</ele><time>2026-04-05T16:45:20Z</time></trkpt><trkpt lat="45.115238712094666" lon="7.624805549306221"><ele>265.0</ele><time>2026-04-05T16:45:21Z</time></trkpt><trkpt lat="45.11540993333717" lon="7.625253102236134"><ele>263.0</ele><time>2026-04-05T16:45:22Z</time></trkpt><trkpt lat="45.115579838138565" lon="7.625704792435234"><ele>263.5</ele><time>2026-04-05T16:45:23Z</time></trkpt><trkpt lat="45.11574603902112" lon="7.626163763838026"><ele>264.0</ele><time>2026-04-05T16:45:24Z</time></trkpt><trkpt lat="45.115914962859094" lon="7.626644188591334"><ele>264.0</ele><time>2026-04-05T16:45:25Z</time></trkpt><trkpt lat="45.11608121771502" lon="7.627136715337583"><ele>264.0</ele><time>2026-04-05T16:45:26Z</time></trkpt><trkpt lat="45.11624237132442" lon="7.627619693440195"><ele>264.0</ele><time>2026-04-05T16:45:27Z</time></trkpt><trkpt lat="45.11639990628489" lon="7.6280997147000695"><ele>264.0</ele><time>2026-04-05T16:45:28Z</time></trkpt><trkpt lat="45.11655250733804" lon="7.62857561551947"><ele>264.0</ele><time>2026-04-05T16:45:29Z</time></trkpt><trkpt lat="45.11670608990294" lon="7.629062616116087"><ele>264.0</ele><time>2026-04-05T16:45:30Z</time></trkpt><trkpt lat="45.11686135885262" lon="7.629561154274692"><ele>264.0</ele><time>2026-04-05T16:45:31Z</time></trkpt><trkpt lat="45.117017322047104" lon="7.630053025937677"><ele>264.0</ele><time>2026-04-05T16:45:32Z</time></trkpt><trkpt lat="45.117172688390674" lon="7.630541828111181"><ele>264.0</ele><time>2026-04-05T16:45:33Z</time></trkpt><trkpt lat="45.11733007387931" lon="7.631037999059298"><ele>264.0</ele><time>2026-04-05T16:45:34Z</time></trkpt><trkpt lat="45.11748593863102" lon="7.631522931515734"><ele>263.0</ele><time>2026-04-05T16:45:35Z</time></trkpt><trkpt lat="45.117633352756776" lon="7.631989211294694"><ele>262.0</ele><time>2026-04-05T16:45:36Z</time></trkpt><trkpt lat="45.117764234424534" lon="7.632429313085707"><ele>261.0</ele><time>2026-04-05T16:45:37Z</time></trkpt><trkpt lat="45.11788594232748" lon="7.632843262175903"><ele>260.0</ele><time>2026-04-05T16:45:38Z</time></trkpt><trkpt lat="45.11800497240221" lon="7.63323729531944"><ele>260.0</ele><time>2026-04-05T16:45:39Z</time></trkpt><trkpt lat="45.11812300984468" lon="7.63362922925257"><ele>260.0</ele><time>2026-04-05T16:45:40Z</time></trkpt><trkpt lat="45.11823621828586" lon="7.6340437270716"><ele>260.0</ele><time>2026-04-05T16:45:41Z</time></trkpt><trkpt lat="45.118345129000225" lon="7.634466690328913"><ele>260.0</ele><time>2026-04-05T16:45:42Z</time></trkpt><trkpt lat="45.11844465594669" lon="7.634847912610013"><ele>259.0</ele><time>2026-04-05T16:45:43Z</time></trkpt><trkpt lat="45.11853853253524" lon="7.635193979026965"><ele>258.0</ele><time>2026-04-05T16:45:44Z</time></trkpt><trkpt lat="45.11862573152076" lon="7.635515999639623"><ele>257.5</ele><time>2026-04-05T16:45:45Z</time></trkpt><trkpt lat="45.118713068468026" lon="7.635846250017872"><ele>257.0</ele><time>2026-04-05T16:45:46Z</time></trkpt><trkpt lat="45.1187991374857" lon="7.636215004782771"><ele>257.0</ele><time>2026-04-05T16:45:47Z</time></trkpt><trkpt lat="45.118877626958124" lon="7.636594892343308"><ele>257.0</ele><time>2026-04-05T16:45:48Z</time></trkpt><trkpt lat="45.11892779394437" lon="7.636900123688344"><ele>256.5</ele><time>2026-04-05T16:45:49Z</time></trkpt><trkpt lat="45.11894888653269" lon="7.637128841240418"><ele>256.0</ele><time>2026-04-05T16:45:50Z</time></trkpt><trkpt lat="45.11894938818387" lon="7.637318596570692"><ele>255.5</ele><time>2026-04-05T16:45:51Z</time></trkpt><trkpt lat="45.118913882433944" lon="7.63746496986211"><ele>255.0</ele><time>2026-04-05T16:45:52Z</time></trkpt><trkpt lat="45.11883485308698" lon="7.637594282640542"><ele>255.0</ele><time>2026-04-05T16:45:53Z</time></trkpt><trkpt lat="45.118733618089344" lon="7.637729502665106"><ele>255.0</ele><time>2026-04-05T16:45:54Z</time></trkpt><trkpt lat="45.11868493014925" lon="7.637921476077988"><ele>255.0</ele><time>2026-04-05T16:45:55Z</time></trkpt><trkpt lat="45.118710493459794" lon="7.638146563801936"><ele>255.0</ele><time>2026-04-05T16:45:56Z</time></trkpt><trkpt lat="45.11872813378545" lon="7.63841519682184"><ele>257.0</ele><time>2026-04-05T16:45:57Z</time></trkpt><trkpt lat="45.118650680881395" lon="7.6386906522873135"><ele>259.0</ele><time>2026-04-05T16:45:58Z</time></trkpt><trkpt lat="45.118584224098875" lon="7.639007682145964"><ele>261.0</ele><time>2026-04-05T16:45:59Z</time></trkpt><trkpt lat="45.11851272383658" lon="7.639289287591889"><ele>260.3333333333333</ele><time>2026-04-05T16:46:00Z</time></trkpt><trkpt lat="45.118516460036716" lon="7.639550033999872"><ele>259.66666666666663</ele><time>2026-04-05T16:46:01Z</time></trkpt><trkpt lat="45.1185802573187" lon="7.6398295701532195"><ele>259.0</ele><time>2026-04-05T16:46:02Z</time></trkpt><trkpt lat="45.11870286291155" lon="7.640087097618514"><ele>259.0</ele><time>2026-04-05T16:46:03Z</time></trkpt><trkpt lat="45.118856508042434" lon="7.640266938222595"><ele>259.0</ele><time>2026-04-05T16:46:04Z</time></trkpt><trkpt lat="45.11903534285228" lon="7.64036538587481"><ele>259.0</ele><time>2026-04-05T16:46:05Z</time></trkpt><trkpt lat="45.11923325780563" lon="7.6403880495310545"><ele>258.0</ele><time>2026-04-05T16:46:06Z</time></trkpt><trkpt lat="45.119424490513765" lon="7.640346774445334"><ele>257.0</ele><time>2026-04-05T16:46:07Z</time></trkpt><trkpt lat="45.11958553437854" lon="7.640266418341173"><ele>256.0</ele><time>2026-04-05T16:46:08Z</time></trkpt><trkpt lat="45.11974082951299" lon="7.64014155216689"><ele>256.0</ele><time>2026-04-05T16:46:09Z</time></trkpt><trkpt lat="45.11989793300194" lon="7.640026811258742"><ele>256.0</ele><time>2026-04-05T16:46:10Z</time></trkpt><trkpt lat="45.120061520679876" lon="7.63992495029168"><ele>256.0</ele><time>2026-04-05T16:46:11Z</time></trkpt><trkpt lat="45.12023196147026" lon="7.639817657432422"><ele>255.5</ele><time>2026-04-05T16:46:12Z</time></trkpt><trkpt lat="45.120437998663675" lon="7.639702301659778"><ele>255.0</ele><time>2026-04-05T16:46:13Z</time></trkpt><trkpt lat="45.120688529720006" lon="7.639569586386331"><ele>257.5</ele><time>2026-04-05T16:46:14Z</time></trkpt><trkpt lat="45.12095897920498" lon="7.639384437047468"><ele>260.0</ele><time>2026-04-05T16:46:15Z</time></trkpt><trkpt lat="45.12125326145169" lon="7.639197583197194"><ele>260.0</ele><time>2026-04-05T16:46:16Z</time></trkpt><trkpt lat="45.121562095819044" lon="7.639019872620034"><ele>260.0</ele><time>2026-04-05T16:46:17Z</time></trkpt><trkpt lat="45.12185405720666" lon="7.638876466631369"><ele>260.5</ele><time>2026-04-05T16:46:18Z</time></trkpt><trkpt lat="45.12210129336722" lon="7.638764949714718"><ele>261.0</ele><time>2026-04-05T16:46:19Z</time></trkpt><trkpt lat="45.12231046734597" lon="7.638658642833871"><ele>260.0</ele><time>2026-04-05T16:46:20Z</time></trkpt><trkpt lat="45.122496457838935" lon="7.638552273971409"><ele>259.0</ele><time>2026-04-05T16:46:21Z</time></trkpt><trkpt lat="45.12265404618678" lon="7.6384650104900444"><ele>258.0</ele><time>2026-04-05T16:46:22Z</time></trkpt><trkpt lat="45.12277133496511" lon="7.638417004667509"><ele>258.0</ele><time>2026-04-05T16:46:23Z</time></trkpt><trkpt lat="45.12286441545676" lon="7.638408556170164"><ele>258.0</ele><time>2026-04-05T16:46:24Z</time></trkpt><trkpt lat="45.12295938546367" lon="7.6384428610072375"><ele>258.0</ele><time>2026-04-05T16:46:25Z</time></trkpt><trkpt lat="45.12305045594634" lon="7.638446781195063"><ele>258.0</ele><time>2026-04-05T16:46:26Z</time></trkpt><trkpt lat="45.12314104926697" lon="7.638420355263296"><ele>258.0</ele><time>2026-04-05T16:46:27Z</time></trkpt><trkpt lat="45.12322923930808" lon="7.638420256284364"><ele>258.0</ele><time>2026-04-05T16:46:28Z</time></trkpt><trkpt lat="45.123323298393565" lon="7.638438919279973"><ele>258.0</ele><time>2026-04-05T16:46:29Z</time></trkpt><trkpt lat="45.12346075972996" lon="7.63849077910964"><ele>258.0</ele><time>2026-04-05T16:46:30Z</time></trkpt><trkpt lat="45.12364189891533" lon="7.638621586379183"><ele>258.0</ele><time>2026-04-05T16:46:31Z</time></trkpt><trkpt lat="45.12385965342789" lon="7.638797765529618"><ele>258.0</ele><time>2026-04-05T16:46:32Z</time></trkpt><trkpt lat="45.124082219226125" lon="7.638997598850349"><ele>258.0</ele><time>2026-04-05T16:46:33Z</time></trkpt><trkpt lat="45.12427278369083" lon="7.639150976381114"><ele>258.0</ele><time>2026-04-05T16:46:34Z</time></trkpt><trkpt lat="45.1244506136637" lon="7.639295920724404"><ele>258.0</ele><time>2026-04-05T16:46:35Z</time></trkpt><trkpt lat="45.12456415921872" lon="7.639374243055515"><ele>258.0</ele><time>2026-04-05T16:46:36Z</time></trkpt><trkpt lat="45.124652179678705" lon="7.639498272631058"><ele>258.0</ele><time>2026-04-05T16:46:37Z</time></trkpt><trkpt lat="45.12470023888546" lon="7.639614312242603"><ele>258.0</ele><time>2026-04-05T16:46:38Z</time></trkpt><trkpt lat="45.12476645020759" lon="7.639697893575535"><ele>258.0</ele><time>2026-04-05T16:46:40Z</time></trkpt><trkpt lat="45.12483559372445" lon="7.639770400793589"><ele>258.0</ele><time>2026-04-05T16:47:33Z</time></trkpt><trkpt lat="45.12489847291965" lon="7.639836359860963"><ele>258.0</ele><time>2026-04-05T16:47:34Z</time></trkpt><trkpt lat="45.125044335419965" lon="7.639721195941337"><ele>258.0</ele><time>2026-04-05T16:47:35Z</time></trkpt><trkpt lat="45.125151612882625" lon="7.639649125431089"><ele>258.0</ele><time>2026-04-05T16:47:36Z</time></trkpt><trkpt lat="45.12526856903869" lon="7.6394945737297775"><ele>258.0</ele><time>2026-04-05T16:47:37Z</time></trkpt><trkpt lat="45.12542368943026" lon="7.639301173418579"><ele>258.0</ele><time>2026-04-05T16:47:38Z</time></trkpt><trkpt lat="45.12564396657864" lon="7.639116106727849"><ele>258.0</ele><time>2026-04-05T16:47:39Z</time></trkpt><trkpt lat="45.12586876079645" lon="7.638947591683624"><ele>257.5</ele><time>2026-04-05T16:47:40Z</time></trkpt><trkpt lat="45.12602764425591" lon="7.638605917094744"><ele>257.0</ele><time>2026-04-05T16:47:41Z</time></trkpt><trkpt lat="45.12620249529684" lon="7.638409129360384"><ele>257.0</ele><time>2026-04-05T16:47:42Z</time></trkpt><trkpt lat="45.126354962055444" lon="7.638228915337392"><ele>257.0</ele><time>2026-04-05T16:47:43Z</time></trkpt><trkpt lat="45.12649708115555" lon="7.638054985423136"><ele>257.0</ele><time>2026-04-05T16:47:44Z</time></trkpt><trkpt lat="45.12661539581368" lon="7.63787877595364"><ele>257.6666666666667</ele><time>2026-04-05T16:47:45Z</time></trkpt><trkpt lat="45.126722741482645" lon="7.637688745400011"><ele>258.3333333333333</ele><time>2026-04-05T16:47:46Z</time></trkpt><trkpt lat="45.126847366464126" lon="7.637464495346142"><ele>259.0</ele><time>2026-04-05T16:47:47Z</time></trkpt><trkpt lat="45.126998148620636" lon="7.6372167795499495"><ele>259.3333333333333</ele><time>2026-04-05T16:47:48Z</time></trkpt><trkpt lat="45.12715166592604" lon="7.636953720692779"><ele>259.6666666666667</ele><time>2026-04-05T16:47:49Z</time></trkpt><trkpt lat="45.127283347360034" lon="7.636738325034237"><ele>260.0</ele><time>2026-04-05T16:47:50Z</time></trkpt><trkpt lat="45.12740056071633" lon="7.636543881906469"><ele>260.5</ele><time>2026-04-05T16:47:51Z</time></trkpt><trkpt lat="45.12750230410894" lon="7.636388068580889"><ele>261.0</ele><time>2026-04-05T16:47:52Z</time></trkpt><trkpt lat="45.12760365916067" lon="7.636256574202655"><ele>261.5</ele><time>2026-04-05T16:47:53Z</time></trkpt><trkpt lat="45.127698035439984" lon="7.636162068029757"><ele>262.0</ele><time>2026-04-05T16:47:54Z</time></trkpt><trkpt lat="45.127778313179185" lon="7.636093987295083"><ele>262.0</ele><time>2026-04-05T16:47:55Z</time></trkpt><trkpt lat="45.127835994068974" lon="7.6360316064821605"><ele>262.0</ele><time>2026-04-05T16:47:56Z</time></trkpt><trkpt lat="45.12790746856693" lon="7.6359998856603974"><ele>262.0</ele><time>2026-04-05T16:47:57Z</time></trkpt><trkpt lat="45.127971493860905" lon="7.636014623144008"><ele>262.0</ele><time>2026-04-05T16:47:58Z</time></trkpt><trkpt lat="45.12802891565585" lon="7.636056581830284"><ele>262.0</ele><time>2026-04-05T16:47:59Z</time></trkpt><trkpt lat="45.12808175418875" lon="7.6361302444358445"><ele>262.0</ele><time>2026-04-05T16:48:00Z</time></trkpt><trkpt lat="45.12813270422637" lon="7.636238599980992"><ele>262.0</ele><time>2026-04-05T16:48:01Z</time></trkpt><trkpt lat="45.12818021289766" lon="7.636360275066189"><ele>261.6</ele><time>2026-04-05T16:48:02Z</time></trkpt><trkpt lat="45.1282422769613" lon="7.636484936151296"><ele>261.2</ele><time>2026-04-05T16:48:03Z</time></trkpt><trkpt lat="45.12830558966412" lon="7.636615631648265"><ele>260.8</ele><time>2026-04-05T16:48:04Z</time></trkpt><trkpt lat="45.12836257664826" lon="7.636720255860241"><ele>260.4</ele><time>2026-04-05T16:48:05Z</time></trkpt><trkpt lat="45.128414438626415" lon="7.636817044429575"><ele>260.0</ele><time>2026-04-05T16:48:06Z</time></trkpt><trkpt lat="45.12845175410673" lon="7.6368930394205945"><ele>259.8</ele><time>2026-04-05T16:48:07Z</time></trkpt><trkpt lat="45.128520331462994" lon="7.6370298073602285"><ele>259.6</ele><time>2026-04-05T16:48:09Z</time></trkpt><trkpt lat="45.12856795014658" lon="7.637123300765017"><ele>259.4</ele><time>2026-04-05T16:48:10Z</time></trkpt><trkpt lat="45.12862127682576" lon="7.637222747657574"><ele>259.2</ele><time>2026-04-05T16:48:11Z</time></trkpt><trkpt lat="45.12868451169566" lon="7.637351304155959"><ele>259.0</ele><time>2026-04-05T16:48:12Z</time></trkpt><trkpt lat="45.12874035289293" lon="7.637443303363323"><ele>259.0</ele><time>2026-04-05T16:48:13Z</time></trkpt><trkpt lat="45.128782330084576" lon="7.6375254642116035"><ele>259.0</ele><time>2026-04-05T16:48:14Z</time></trkpt><trkpt lat="45.12882670484363" lon="7.6376048429230625"><ele>259.0</ele><time>2026-04-05T16:48:15Z</time></trkpt><trkpt lat="45.12889419255455" lon="7.637726958852543"><ele>259.0</ele><time>2026-04-05T16:48:17Z</time></trkpt><trkpt lat="45.12893577866689" lon="7.637809327173261"><ele>259.0</ele><time>2026-04-05T16:48:35Z</time></trkpt><trkpt lat="45.128923704428345" lon="7.6379010798793585"><ele>259.0</ele><time>2026-04-05T16:48:37Z</time></trkpt><trkpt lat="45.128894512875476" lon="7.638078141879338"><ele>258.8333333333333</ele><time>2026-04-05T16:48:39Z</time></trkpt><trkpt lat="45.12889831486926" lon="7.638172653082697"><ele>258.66666666666663</ele><time>2026-04-05T16:48:40Z</time></trkpt><trkpt lat="45.12887984668009" lon="7.638327284786952"><ele>258.5</ele><time>2026-04-05T16:48:42Z</time></trkpt><trkpt lat="45.12886215958808" lon="7.638460509650771"><ele>258.3333333333333</ele><time>2026-04-05T16:48:44Z</time></trkpt><trkpt lat="45.12884367194157" lon="7.638569983415033"><ele>258.1666666666667</ele><time>2026-04-05T16:48:46Z</time></trkpt><trkpt lat="45.12881388998038" lon="7.6386665833086225"><ele>258.0</ele><time>2026-04-05T16:48:49Z</time></trkpt><trkpt lat="45.128797766234115" lon="7.6387624096184155"><ele>257.8333333333333</ele><time>2026-04-05T16:48:52Z</time></trkpt><trkpt lat="45.12876904838246" lon="7.638916819267933"><ele>257.6666666666667</ele><time>2026-04-05T16:48:56Z</time></trkpt><trkpt lat="45.12875040211307" lon="7.639010528885175"><ele>257.5</ele><time>2026-04-05T16:48:57Z</time></trkpt><trkpt lat="45.12872852502692" lon="7.639102862156494"><ele>257.33333333333337</ele><time>2026-04-05T16:48:58Z</time></trkpt><trkpt lat="45.12869527616944" lon="7.639239568671505"><ele>257.1666666666667</ele><time>2026-04-05T16:49:00Z</time></trkpt><trkpt lat="45.12866702365038" lon="7.639354316608426"><ele>257.0</ele><time>2026-04-05T16:49:02Z</time></trkpt><trkpt lat="45.12864362945528" lon="7.639450384175779"><ele>257.0</ele><time>2026-04-05T16:49:04Z</time></trkpt><trkpt lat="45.12861983532741" lon="7.6395497670444374"><ele>257.0</ele><time>2026-04-05T16:49:06Z</time></trkpt><trkpt lat="45.128591849555136" lon="7.639671813482"><ele>257.0</ele><time>2026-04-05T16:49:08Z</time></trkpt><trkpt lat="45.12856490588814" lon="7.6397769074365485"><ele>257.0</ele><time>2026-04-05T16:49:10Z</time></trkpt><trkpt lat="45.128518499794886" lon="7.639886125683586"><ele>257.0</ele><time>2026-04-05T16:49:13Z</time></trkpt><trkpt lat="45.12846856023151" lon="7.639974581225308"><ele>257.0</ele><time>2026-04-05T16:49:15Z</time></trkpt><trkpt lat="45.12842729924722" lon="7.640064767702683"><ele>257.0</ele><time>2026-04-05T16:49:17Z</time></trkpt><trkpt lat="45.12838000604907" lon="7.6401608738960345"><ele>257.0</ele><time>2026-04-05T16:49:19Z</time></trkpt><trkpt lat="45.12833808450809" lon="7.640274383999595"><ele>257.0</ele><time>2026-04-05T16:49:21Z</time></trkpt><trkpt lat="45.12829373833947" lon="7.6404052785336765"><ele>257.0</ele><time>2026-04-05T16:49:23Z</time></trkpt><trkpt lat="45.12821326845365" lon="7.640575421263631"><ele>257.0</ele><time>2026-04-05T16:49:25Z</time></trkpt><trkpt lat="45.128168058180776" lon="7.640679791424938"><ele>257.2</ele><time>2026-04-05T16:49:26Z</time></trkpt><trkpt lat="45.12815874622748" lon="7.640805469801414"><ele>257.4</ele><time>2026-04-05T16:49:27Z</time></trkpt><trkpt lat="45.128122142236606" lon="7.64092395497701"><ele>257.6</ele><time>2026-04-05T16:49:28Z</time></trkpt><trkpt lat="45.128079819006516" lon="7.641047600794486"><ele>257.8</ele><time>2026-04-05T16:49:29Z</time></trkpt><trkpt lat="45.12804102874955" lon="7.641171374144118"><ele>258.0</ele><time>2026-04-05T16:49:30Z</time></trkpt><trkpt lat="45.127989008333074" lon="7.641284345042075"><ele>258.1666666666667</ele><time>2026-04-05T16:49:31Z</time></trkpt><trkpt lat="45.127954224261075" lon="7.64139508943129"><ele>258.3333333333333</ele><time>2026-04-05T16:49:32Z</time></trkpt><trkpt lat="45.12792230782032" lon="7.641499330882231"><ele>258.5</ele><time>2026-04-05T16:49:33Z</time></trkpt><trkpt lat="45.12790662972418" lon="7.641596608952833"><ele>258.66666666666663</ele><time>2026-04-05T16:49:34Z</time></trkpt><trkpt lat="45.12787356026353" lon="7.641691598305754"><ele>258.8333333333333</ele><time>2026-04-05T16:49:35Z</time></trkpt><trkpt lat="45.127841300660066" lon="7.641784153566058"><ele>259.0</ele><time>2026-04-05T16:49:36Z</time></trkpt><trkpt lat="45.12780529622476" lon="7.641880642030753"><ele>259.16666666666663</ele><time>2026-04-05T16:49:37Z</time></trkpt><trkpt lat="45.12777656302882" lon="7.641984220114951"><ele>259.3333333333333</ele><time>2026-04-05T16:49:38Z</time></trkpt><trkpt lat="45.12774560518753" lon="7.6420865077504105"><ele>259.5</ele><time>2026-04-05T16:49:39Z</time></trkpt><trkpt lat="45.12771739476312" lon="7.642186445478936"><ele>259.6666666666667</ele><time>2026-04-05T16:49:40Z</time></trkpt><trkpt lat="45.127689438545126" lon="7.6422885884684755"><ele>259.83333333333337</ele><time>2026-04-05T16:49:41Z</time></trkpt><trkpt lat="45.12766005324267" lon="7.642373854216784"><ele>260.0</ele><time>2026-04-05T16:49:42Z</time></trkpt><trkpt lat="45.12761922419562" lon="7.6425195833989745"><ele>260.0</ele><time>2026-04-05T16:49:44Z</time></trkpt><trkpt lat="45.127565384394146" lon="7.642631419450595"><ele>260.0</ele><time>2026-04-05T16:49:46Z</time></trkpt><trkpt lat="45.12748162688444" lon="7.642692052175224"><ele>260.0</ele><time>2026-04-05T16:49:48Z</time></trkpt><trkpt lat="45.12743781870153" lon="7.642841206108326"><ele>260.0</ele><time>2026-04-05T16:49:50Z</time></trkpt><trkpt lat="45.12738558848802" lon="7.643004027758667"><ele>260.0</ele><time>2026-04-05T16:49:52Z</time></trkpt><trkpt lat="45.12735836314087" lon="7.643096731560645"><ele>260.1666666666667</ele><time>2026-04-05T16:49:53Z</time></trkpt><trkpt lat="45.12732259607422" lon="7.6432042948850105"><ele>260.33333333333337</ele><time>2026-04-05T16:49:54Z</time></trkpt><trkpt lat="45.12729125041068" lon="7.643303279423933"><ele>260.5</ele><time>2026-04-05T16:49:55Z</time></trkpt><trkpt lat="45.127261564094994" lon="7.6433977427637965"><ele>260.6666666666667</ele><time>2026-04-05T16:49:56Z</time></trkpt><trkpt lat="45.12723261703535" lon="7.643495076075436"><ele>260.8333333333333</ele><time>2026-04-05T16:49:57Z</time></trkpt><trkpt lat="45.12719968828042" lon="7.6436029609952"><ele>261.0</ele><time>2026-04-05T16:49:58Z</time></trkpt><trkpt lat="45.12716565720858" lon="7.643715678519567"><ele>261.1666666666667</ele><time>2026-04-05T16:49:59Z</time></trkpt><trkpt lat="45.12713148325988" lon="7.643831817296554"><ele>261.3333333333333</ele><time>2026-04-05T16:50:00Z</time></trkpt><trkpt lat="45.12709496798116" lon="7.643952130101537"><ele>261.5</ele><time>2026-04-05T16:50:01Z</time></trkpt><trkpt lat="45.127062301949884" lon="7.644064594937079"><ele>261.66666666666663</ele><time>2026-04-05T16:50:02Z</time></trkpt><trkpt lat="45.127031102685685" lon="7.644170322160407"><ele>261.8333333333333</ele><time>2026-04-05T16:50:03Z</time></trkpt><trkpt lat="45.1270045720566" lon="7.6442594487034"><ele>262.0</ele><time>2026-04-05T16:50:04Z</time></trkpt><trkpt lat="45.12698188120984" lon="7.644344266119779"><ele>261.2</ele><time>2026-04-05T16:50:05Z</time></trkpt><trkpt lat="45.12693682497748" lon="7.644484938844777"><ele>260.4</ele><time>2026-04-05T16:50:07Z</time></trkpt><trkpt lat="45.12690246424824" lon="7.644595405663542"><ele>259.6</ele><time>2026-04-05T16:50:10Z</time></trkpt><trkpt lat="45.12686698054106" lon="7.6447154408446485"><ele>258.8</ele><time>2026-04-05T16:50:13Z</time></trkpt><trkpt lat="45.12682859085796" lon="7.644834303502122"><ele>258.0</ele><time>2026-04-05T16:50:15Z</time></trkpt><trkpt lat="45.126777838846635" lon="7.644988159304273"><ele>257.99999999999994</ele><time>2026-04-05T16:50:17Z</time></trkpt><trkpt lat="45.12675153244072" lon="7.645074192422462"><ele>258.0</ele><time>2026-04-05T16:50:18Z</time></trkpt><trkpt lat="45.12672780721009" lon="7.645162890117143"><ele>258.0</ele><time>2026-04-05T16:50:19Z</time></trkpt><trkpt lat="45.1267032542175" lon="7.645251422903934"><ele>258.0</ele><time>2026-04-05T16:50:20Z</time></trkpt><trkpt lat="45.126673903937395" lon="7.645343553128845"><ele>258.0</ele><time>2026-04-05T16:50:21Z</time></trkpt><trkpt lat="45.12664363471078" lon="7.645436282896375"><ele>257.99999999999994</ele><time>2026-04-05T16:50:22Z</time></trkpt><trkpt lat="45.12661649003027" lon="7.64551942325586"><ele>258.0</ele><time>2026-04-05T16:50:23Z</time></trkpt><trkpt lat="45.1265921246134" lon="7.645605081645757"><ele>258.1666666666667</ele><time>2026-04-05T16:50:24Z</time></trkpt><trkpt lat="45.12657002841262" lon="7.645693236807667"><ele>258.3333333333333</ele><time>2026-04-05T16:50:25Z</time></trkpt><trkpt lat="45.12654413740867" lon="7.64579035908543"><ele>258.5</ele><time>2026-04-05T16:50:26Z</time></trkpt><trkpt lat="45.12651469667313" lon="7.645889642311904"><ele>258.66666666666663</ele><time>2026-04-05T16:50:27Z</time></trkpt><trkpt lat="45.126481900971484" lon="7.645995386343208"><ele>258.8333333333333</ele><time>2026-04-05T16:50:28Z</time></trkpt><trkpt lat="45.12644780071675" lon="7.646109521469572"><ele>259.0</ele><time>2026-04-05T16:50:29Z</time></trkpt><trkpt lat="45.126412367341764" lon="7.64623070645875"><ele>258.59999999999997</ele><time>2026-04-05T16:50:30Z</time></trkpt><trkpt lat="45.12637626993703" lon="7.646354572349914"><ele>258.2</ele><time>2026-04-05T16:50:31Z</time></trkpt><trkpt lat="45.12633825143045" lon="7.646481115994569"><ele>257.79999999999995</ele><time>2026-04-05T16:50:32Z</time></trkpt><trkpt lat="45.12630593131364" lon="7.646588837081595"><ele>257.4</ele><time>2026-04-05T16:50:33Z</time></trkpt><trkpt lat="45.1262759389842" lon="7.646685748981277"><ele>257.0</ele><time>2026-04-05T16:50:34Z</time></trkpt><trkpt lat="45.1262313087176" lon="7.646825208420598"><ele>257.0</ele><time>2026-04-05T16:50:36Z</time></trkpt><trkpt lat="45.126204211048794" lon="7.6469138359401905"><ele>257.0</ele><time>2026-04-05T16:50:38Z</time></trkpt><trkpt lat="45.12617231553655" lon="7.647024064492898"><ele>257.0</ele><time>2026-04-05T16:50:41Z</time></trkpt><trkpt lat="45.12614313077419" lon="7.647127306656333"><ele>257.0</ele><time>2026-04-05T16:50:43Z</time></trkpt><trkpt lat="45.12610457126038" lon="7.647254273934365"><ele>257.0</ele><time>2026-04-05T16:50:45Z</time></trkpt><trkpt lat="45.12608032851503" lon="7.647339035944561"><ele>257.0</ele><time>2026-04-05T16:50:46Z</time></trkpt><trkpt lat="45.126057263252115" lon="7.6474265653654605"><ele>256.4</ele><time>2026-04-05T16:50:47Z</time></trkpt><trkpt lat="45.12603118284215" lon="7.647514684315778"><ele>255.79999999999998</ele><time>2026-04-05T16:50:48Z</time></trkpt><trkpt lat="45.125982973290185" lon="7.647657540182989"><ele>255.2</ele><time>2026-04-05T16:50:50Z</time></trkpt><trkpt lat="45.12591478376715" lon="7.647769581773939"><ele>254.6</ele><time>2026-04-05T16:50:52Z</time></trkpt><trkpt lat="45.12584307003848" lon="7.647866998656665"><ele>254.0</ele><time>2026-04-05T16:50:54Z</time></trkpt><trkpt lat="45.12575634795474" lon="7.64792538438609"><ele>254.39999999999998</ele><time>2026-04-05T16:50:56Z</time></trkpt><trkpt lat="45.12566577766415" lon="7.647954675585633"><ele>254.79999999999998</ele><time>2026-04-05T16:50:58Z</time></trkpt><trkpt lat="45.12555764677865" lon="7.647972185499729"><ele>255.20000000000002</ele><time>2026-04-05T16:51:00Z</time></trkpt><trkpt lat="45.125508728529674" lon="7.647908235754303"><ele>255.60000000000002</ele><time>2026-04-05T16:51:01Z</time></trkpt><trkpt lat="45.125410981012564" lon="7.647804569297375"><ele>256.0</ele><time>2026-04-05T16:51:03Z</time></trkpt><trkpt lat="45.125377594766015" lon="7.647726223335026"><ele>256.0</ele><time>2026-04-05T16:51:04Z</time></trkpt><trkpt lat="45.12534545959768" lon="7.647639736451426"><ele>255.99999999999997</ele><time>2026-04-05T16:51:05Z</time></trkpt><trkpt lat="45.125315738716935" lon="7.647549509475763"><ele>256.0</ele><time>2026-04-05T16:51:06Z</time></trkpt><trkpt lat="45.12528372800537" lon="7.647453496777499"><ele>256.0</ele><time>2026-04-05T16:51:07Z</time></trkpt><trkpt lat="45.12525125075669" lon="7.647360386843693"><ele>255.99999999999997</ele><time>2026-04-05T16:51:08Z</time></trkpt><trkpt lat="45.12522161033851" lon="7.647260557334163"><ele>256.0</ele><time>2026-04-05T16:51:09Z</time></trkpt><trkpt lat="45.12519485554792" lon="7.647156347098274"><ele>256.0</ele><time>2026-04-05T16:51:10Z</time></trkpt><trkpt lat="45.125153183341226" lon="7.647068914840521"><ele>256.0</ele><time>2026-04-05T16:51:11Z</time></trkpt><trkpt lat="45.12510323962047" lon="7.64698321234848"><ele>256.0</ele><time>2026-04-05T16:51:12Z</time></trkpt><trkpt lat="45.12494036079643" lon="7.646997613678424"><ele>256.0</ele><time>2026-04-05T16:51:14Z</time></trkpt><trkpt lat="45.12486646557298" lon="7.647074553383713"><ele>256.0</ele><time>2026-04-05T16:51:15Z</time></trkpt><trkpt lat="45.124795619656915" lon="7.647152788401991"><ele>256.0</ele><time>2026-04-05T16:51:16Z</time></trkpt><trkpt lat="45.12472300143016" lon="7.647214122670149"><ele>256.2</ele><time>2026-04-05T16:51:17Z</time></trkpt><trkpt lat="45.12465507248861" lon="7.647253966878895"><ele>256.40000000000003</ele><time>2026-04-05T16:51:18Z</time></trkpt><trkpt lat="45.12455438139506" lon="7.647320978596026"><ele>256.6</ele><time>2026-04-05T16:51:20Z</time></trkpt><trkpt lat="45.12449231337421" lon="7.647361305242513"><ele>256.8</ele><time>2026-04-05T16:51:22Z</time></trkpt><trkpt lat="45.12442345883594" lon="7.647135793911634"><ele>257.0</ele><time>2026-04-05T16:51:44Z</time></trkpt><trkpt lat="45.12435842267007" lon="7.647121565486828"><ele>257.0</ele><time>2026-04-05T16:51:46Z</time></trkpt><trkpt lat="45.124325095775895" lon="7.64721683404426"><ele>257.0</ele><time>2026-04-05T16:51:48Z</time></trkpt><trkpt lat="45.1243239433182" lon="7.647318895858223"><ele>257.0</ele><time>2026-04-05T16:51:50Z</time></trkpt><trkpt lat="45.12431155092479" lon="7.647480067085677"><ele>257.0</ele><time>2026-04-05T16:51:54Z</time></trkpt><trkpt lat="45.12419730954819" lon="7.647559530075618"><ele>257.0</ele><time>2026-04-05T16:51:56Z</time></trkpt><trkpt lat="45.12406759759507" lon="7.647651850394211"><ele>256.8</ele><time>2026-04-05T16:51:59Z</time></trkpt><trkpt lat="45.12396187901211" lon="7.647730751940739"><ele>256.6</ele><time>2026-04-05T16:52:01Z</time></trkpt><trkpt lat="45.12387526667827" lon="7.647794590530175"><ele>256.40000000000003</ele><time>2026-04-05T16:52:03Z</time></trkpt><trkpt lat="45.123784510305065" lon="7.647860597768855"><ele>256.2</ele><time>2026-04-05T16:52:05.07Z</time></trkpt><trkpt lat="45.123719690790296" lon="7.647904906414901"><ele>256.0</ele><time>2026-04-05T16:52:06.045Z</time></trkpt><trkpt lat="45.1236235425842" lon="7.647973125093391"><ele>252.0</ele><time>2026-04-05T16:52:08.043Z</time></trkpt><trkpt lat="45.12354217870457" lon="7.648063881528401"><ele>252.0</ele><time>2026-04-05T16:52:10.035Z</time></trkpt><trkpt lat="45.123596506954534" lon="7.647955984735488"><ele>252.0</ele><time>2026-04-05T16:52:28.798Z</time></trkpt><trkpt lat="45.12366930630327" lon="7.64772640907075"><ele>256.0</ele><time>2026-04-05T16:52:40.644Z</time></trkpt></trkseg></trk></gpx>